<?xml version="1.0" encoding="UTF-8" standalone="no" ?>
<gpx xmlns="http://www.topografix.com/GPX/1/1" xmlns:xsi="http://www.w3.org/2001/XMLSchema-instance" xsi:schemaLocation="http://www.topografix.com/GPX/1/1 http://www.topografix.com/GPX/1/1/gpx.xsd" version="1.1" creator="VisuGPX - https://www.visugpx.com">
  <metadata>
    <name>100KM2000D</name>
    <desc><![CDATA[Zzzzz]]></desc>
  </metadata>
  <trk>
    <name><![CDATA[100KM2000D_1]]></name>
    <trkseg>
      <trkpt lat="47.7526" lon="6.59492">
        <ele>333.4</ele>
        <time>2020-09-06T19:45:40Z</time>
      </trkpt>
      <trkpt lat="47.75254" lon="6.59453">
        <ele>333.5</ele>
        <time>2020-09-06T19:45:40Z</time>
      </trkpt>
      <trkpt lat="47.75238" lon="6.59399">
        <ele>333.3</ele>
        <time>2020-09-06T19:45:40Z</time>
      </trkpt>
      <trkpt lat="47.75228" lon="6.59354">
        <ele>333.2</ele>
        <time>2020-09-06T19:45:40Z</time>
      </trkpt>
      <trkpt lat="47.75215" lon="6.59284">
        <ele>333</ele>
        <time>2020-09-06T19:45:40Z</time>
      </trkpt>
      <trkpt lat="47.75202" lon="6.59231">
        <ele>332.7</ele>
        <time>2020-09-06T19:45:40Z</time>
      </trkpt>
      <trkpt lat="47.75163" lon="6.59153">
        <ele>332.3</ele>
        <time>2020-09-06T19:45:40Z</time>
      </trkpt>
      <trkpt lat="47.75128" lon="6.5909">
        <ele>332.2</ele>
        <time>2020-09-06T19:45:40Z</time>
      </trkpt>
      <trkpt lat="47.75113" lon="6.59049">
        <ele>331.8</ele>
        <time>2020-09-06T19:45:40Z</time>
      </trkpt>
      <trkpt lat="47.751" lon="6.59015">
        <ele>331.3</ele>
        <time>2020-09-06T19:45:40Z</time>
      </trkpt>
      <trkpt lat="47.75062" lon="6.58924">
        <ele>330.1</ele>
        <time>2020-09-06T19:45:40Z</time>
      </trkpt>
      <trkpt lat="47.75056" lon="6.58911">
        <ele>329.9</ele>
        <time>2020-09-06T19:45:40Z</time>
      </trkpt>
      <trkpt lat="47.75048" lon="6.58907">
        <ele>329.8</ele>
        <time>2020-09-06T19:45:40Z</time>
      </trkpt>
      <trkpt lat="47.75019" lon="6.5889">
        <ele>329.6</ele>
        <time>2020-09-06T19:45:40Z</time>
      </trkpt>
      <trkpt lat="47.74976" lon="6.58866">
        <ele>330.7</ele>
        <time>2020-09-06T19:45:40Z</time>
      </trkpt>
      <trkpt lat="47.74978" lon="6.58854">
        <ele>330.9</ele>
        <time>2020-09-06T19:45:40Z</time>
      </trkpt>
      <trkpt lat="47.74979" lon="6.58837">
        <ele>331.3</ele>
        <time>2020-09-06T19:45:40Z</time>
      </trkpt>
      <trkpt lat="47.74981" lon="6.58816">
        <ele>331.6</ele>
        <time>2020-09-06T19:45:40Z</time>
      </trkpt>
      <trkpt lat="47.74982" lon="6.58796">
        <ele>332.6</ele>
        <time>2020-09-06T19:45:40Z</time>
      </trkpt>
      <trkpt lat="47.74979" lon="6.58776">
        <ele>333.3</ele>
        <time>2020-09-06T19:45:40Z</time>
      </trkpt>
      <trkpt lat="47.75003" lon="6.58716">
        <ele>333.3</ele>
        <time>2020-09-06T19:45:40Z</time>
      </trkpt>
      <trkpt lat="47.75015" lon="6.58696">
        <ele>333</ele>
        <time>2020-09-06T19:45:40Z</time>
      </trkpt>
      <trkpt lat="47.75025" lon="6.58668">
        <ele>332.7</ele>
        <time>2020-09-06T19:45:40Z</time>
      </trkpt>
      <trkpt lat="47.75037" lon="6.58637">
        <ele>332.3</ele>
        <time>2020-09-06T19:45:40Z</time>
      </trkpt>
      <trkpt lat="47.75057" lon="6.58593">
        <ele>331.7</ele>
        <time>2020-09-06T19:45:40Z</time>
      </trkpt>
      <trkpt lat="47.75064" lon="6.58578">
        <ele>331.5</ele>
        <time>2020-09-06T19:45:40Z</time>
      </trkpt>
      <trkpt lat="47.7507" lon="6.5855">
        <ele>331.3</ele>
        <time>2020-09-06T19:45:40Z</time>
      </trkpt>
      <trkpt lat="47.75073" lon="6.58525">
        <ele>331.5</ele>
        <time>2020-09-06T19:45:40Z</time>
      </trkpt>
      <trkpt lat="47.75081" lon="6.58443">
        <ele>331.4</ele>
        <time>2020-09-06T19:45:40Z</time>
      </trkpt>
      <trkpt lat="47.75085" lon="6.58406">
        <ele>331</ele>
        <time>2020-09-06T19:45:40Z</time>
      </trkpt>
      <trkpt lat="47.75088" lon="6.58375">
        <ele>330.7</ele>
        <time>2020-09-06T19:45:40Z</time>
      </trkpt>
      <trkpt lat="47.75095" lon="6.58338">
        <ele>330.8</ele>
        <time>2020-09-06T19:45:40Z</time>
      </trkpt>
      <trkpt lat="47.75102" lon="6.58305">
        <ele>331</ele>
        <time>2020-09-06T19:45:40Z</time>
      </trkpt>
      <trkpt lat="47.75118" lon="6.58304">
        <ele>326.5</ele>
        <time>2020-09-06T19:45:40Z</time>
      </trkpt>
      <trkpt lat="47.7515" lon="6.58304">
        <ele>327.5</ele>
        <time>2020-09-06T19:45:40Z</time>
      </trkpt>
      <trkpt lat="47.75166" lon="6.58303">
        <ele>327.9</ele>
        <time>2020-09-06T19:45:40Z</time>
      </trkpt>
      <trkpt lat="47.75187" lon="6.58302">
        <ele>328.5</ele>
        <time>2020-09-06T19:45:40Z</time>
      </trkpt>
      <trkpt lat="47.752" lon="6.58299">
        <ele>328</ele>
        <time>2020-09-06T19:45:40Z</time>
      </trkpt>
      <trkpt lat="47.75209" lon="6.5829">
        <ele>327.9</ele>
        <time>2020-09-06T19:45:40Z</time>
      </trkpt>
      <trkpt lat="47.75233" lon="6.5826">
        <ele>327.9</ele>
        <time>2020-09-06T19:45:40Z</time>
      </trkpt>
      <trkpt lat="47.75239" lon="6.58252">
        <ele>327.7</ele>
        <time>2020-09-06T19:45:40Z</time>
      </trkpt>
      <trkpt lat="47.75244" lon="6.58245">
        <ele>327.5</ele>
        <time>2020-09-06T19:45:40Z</time>
      </trkpt>
      <trkpt lat="47.7525" lon="6.58237">
        <ele>327.9</ele>
        <time>2020-09-06T19:45:40Z</time>
      </trkpt>
      <trkpt lat="47.75258" lon="6.58232">
        <ele>327.9</ele>
        <time>2020-09-06T19:45:40Z</time>
      </trkpt>
      <trkpt lat="47.75285" lon="6.58226">
        <ele>328</ele>
        <time>2020-09-06T19:45:40Z</time>
      </trkpt>
      <trkpt lat="47.75306" lon="6.58217">
        <ele>328.2</ele>
        <time>2020-09-06T19:45:40Z</time>
      </trkpt>
      <trkpt lat="47.75313" lon="6.58211">
        <ele>328.4</ele>
        <time>2020-09-06T19:45:40Z</time>
      </trkpt>
      <trkpt lat="47.75324" lon="6.58203">
        <ele>329</ele>
        <time>2020-09-06T19:45:40Z</time>
      </trkpt>
      <trkpt lat="47.7533" lon="6.58199">
        <ele>329.2</ele>
        <time>2020-09-06T19:45:40Z</time>
      </trkpt>
      <trkpt lat="47.75366" lon="6.58174">
        <ele>331.2</ele>
        <time>2020-09-06T19:45:40Z</time>
      </trkpt>
      <trkpt lat="47.75391" lon="6.58155">
        <ele>332.9</ele>
        <time>2020-09-06T19:45:40Z</time>
      </trkpt>
      <trkpt lat="47.75384" lon="6.58148">
        <ele>333</ele>
        <time>2020-09-06T19:45:40Z</time>
      </trkpt>
      <trkpt lat="47.75383" lon="6.58137">
        <ele>333.2</ele>
        <time>2020-09-06T19:45:40Z</time>
      </trkpt>
      <trkpt lat="47.75379" lon="6.58104">
        <ele>333.5</ele>
        <time>2020-09-06T19:45:40Z</time>
      </trkpt>
      <trkpt lat="47.75378" lon="6.5808">
        <ele>332.7</ele>
        <time>2020-09-06T19:45:40Z</time>
      </trkpt>
      <trkpt lat="47.75376" lon="6.5806">
        <ele>332.3</ele>
        <time>2020-09-06T19:45:40Z</time>
      </trkpt>
      <trkpt lat="47.75375" lon="6.58042">
        <ele>331.6</ele>
        <time>2020-09-06T19:45:40Z</time>
      </trkpt>
      <trkpt lat="47.7537" lon="6.58011">
        <ele>329.6</ele>
        <time>2020-09-06T19:45:40Z</time>
      </trkpt>
      <trkpt lat="47.75368" lon="6.57999">
        <ele>329.2</ele>
        <time>2020-09-06T19:45:40Z</time>
      </trkpt>
      <trkpt lat="47.75366" lon="6.57984">
        <ele>328.9</ele>
        <time>2020-09-06T19:45:40Z</time>
      </trkpt>
      <trkpt lat="47.75356" lon="6.57945">
        <ele>327.6</ele>
        <time>2020-09-06T19:45:40Z</time>
      </trkpt>
      <trkpt lat="47.75352" lon="6.57927">
        <ele>328.9</ele>
        <time>2020-09-06T19:45:40Z</time>
      </trkpt>
      <trkpt lat="47.75346" lon="6.57905">
        <ele>328.5</ele>
        <time>2020-09-06T19:45:40Z</time>
      </trkpt>
      <trkpt lat="47.75355" lon="6.57879">
        <ele>328.3</ele>
        <time>2020-09-06T19:45:40Z</time>
      </trkpt>
      <trkpt lat="47.7538" lon="6.57801">
        <ele>331.2</ele>
        <time>2020-09-06T19:45:40Z</time>
      </trkpt>
      <trkpt lat="47.75411" lon="6.57749">
        <ele>333.1</ele>
        <time>2020-09-06T19:45:40Z</time>
      </trkpt>
      <trkpt lat="47.75433" lon="6.57728">
        <ele>333.4</ele>
        <time>2020-09-06T19:45:40Z</time>
      </trkpt>
      <trkpt lat="47.75462" lon="6.5771">
        <ele>332.9</ele>
        <time>2020-09-06T19:45:40Z</time>
      </trkpt>
      <trkpt lat="47.75499" lon="6.57693">
        <ele>332.6</ele>
        <time>2020-09-06T19:45:40Z</time>
      </trkpt>
      <trkpt lat="47.75505" lon="6.57688">
        <ele>332.5</ele>
        <time>2020-09-06T19:45:40Z</time>
      </trkpt>
      <trkpt lat="47.75519" lon="6.57677">
        <ele>332</ele>
        <time>2020-09-06T19:45:40Z</time>
      </trkpt>
      <trkpt lat="47.75568" lon="6.57615">
        <ele>331.7</ele>
        <time>2020-09-06T19:45:40Z</time>
      </trkpt>
      <trkpt lat="47.75586" lon="6.57593">
        <ele>332.1</ele>
        <time>2020-09-06T19:45:40Z</time>
      </trkpt>
      <trkpt lat="47.75645" lon="6.57517">
        <ele>331.6</ele>
        <time>2020-09-06T19:45:40Z</time>
      </trkpt>
      <trkpt lat="47.75724" lon="6.57405">
        <ele>331.7</ele>
        <time>2020-09-06T19:45:40Z</time>
      </trkpt>
      <trkpt lat="47.75745" lon="6.57388">
        <ele>331.7</ele>
        <time>2020-09-06T19:45:40Z</time>
      </trkpt>
      <trkpt lat="47.75771" lon="6.57374">
        <ele>331.6</ele>
        <time>2020-09-06T19:45:40Z</time>
      </trkpt>
      <trkpt lat="47.75825" lon="6.57357">
        <ele>332</ele>
        <time>2020-09-06T19:45:40Z</time>
      </trkpt>
      <trkpt lat="47.75839" lon="6.5735">
        <ele>332.3</ele>
        <time>2020-09-06T19:45:40Z</time>
      </trkpt>
      <trkpt lat="47.75855" lon="6.57326">
        <ele>332.5</ele>
        <time>2020-09-06T19:45:40Z</time>
      </trkpt>
      <trkpt lat="47.75873" lon="6.57293">
        <ele>332.9</ele>
        <time>2020-09-06T19:45:40Z</time>
      </trkpt>
      <trkpt lat="47.75892" lon="6.57268">
        <ele>333.2</ele>
        <time>2020-09-06T19:45:40Z</time>
      </trkpt>
      <trkpt lat="47.75942" lon="6.57233">
        <ele>334.1</ele>
        <time>2020-09-06T19:45:40Z</time>
      </trkpt>
      <trkpt lat="47.75949" lon="6.57226">
        <ele>334.3</ele>
        <time>2020-09-06T19:45:40Z</time>
      </trkpt>
      <trkpt lat="47.75956" lon="6.57219">
        <ele>334.4</ele>
        <time>2020-09-06T19:45:40Z</time>
      </trkpt>
      <trkpt lat="47.75978" lon="6.57199">
        <ele>334.8</ele>
        <time>2020-09-06T19:45:40Z</time>
      </trkpt>
      <trkpt lat="47.76084" lon="6.57055">
        <ele>337</ele>
        <time>2020-09-06T19:45:40Z</time>
      </trkpt>
      <trkpt lat="47.76079" lon="6.57022">
        <ele>336.3</ele>
        <time>2020-09-06T19:45:40Z</time>
      </trkpt>
      <trkpt lat="47.76073" lon="6.56942">
        <ele>336.1</ele>
        <time>2020-09-06T19:45:40Z</time>
      </trkpt>
      <trkpt lat="47.7607" lon="6.56903">
        <ele>336.2</ele>
        <time>2020-09-06T19:45:40Z</time>
      </trkpt>
      <trkpt lat="47.76069" lon="6.56891">
        <ele>336.5</ele>
        <time>2020-09-06T19:45:40Z</time>
      </trkpt>
      <trkpt lat="47.76092" lon="6.56876">
        <ele>336.9</ele>
        <time>2020-09-06T19:45:40Z</time>
      </trkpt>
      <trkpt lat="47.76106" lon="6.56868">
        <ele>337.7</ele>
        <time>2020-09-06T19:45:40Z</time>
      </trkpt>
      <trkpt lat="47.76111" lon="6.56858">
        <ele>337.7</ele>
        <time>2020-09-06T19:45:40Z</time>
      </trkpt>
      <trkpt lat="47.76112" lon="6.5684">
        <ele>337.8</ele>
        <time>2020-09-06T19:45:40Z</time>
      </trkpt>
      <trkpt lat="47.76111" lon="6.56813">
        <ele>338</ele>
        <time>2020-09-06T19:45:40Z</time>
      </trkpt>
      <trkpt lat="47.76105" lon="6.56776">
        <ele>339.1</ele>
        <time>2020-09-06T19:45:40Z</time>
      </trkpt>
      <trkpt lat="47.76103" lon="6.56757">
        <ele>339.8</ele>
        <time>2020-09-06T19:45:40Z</time>
      </trkpt>
      <trkpt lat="47.76102" lon="6.5675">
        <ele>340.4</ele>
        <time>2020-09-06T19:45:40Z</time>
      </trkpt>
      <trkpt lat="47.76102" lon="6.56742">
        <ele>341</ele>
        <time>2020-09-06T19:45:40Z</time>
      </trkpt>
      <trkpt lat="47.76102" lon="6.56732">
        <ele>341.5</ele>
        <time>2020-09-06T19:45:40Z</time>
      </trkpt>
      <trkpt lat="47.76103" lon="6.56716">
        <ele>342.5</ele>
        <time>2020-09-06T19:45:40Z</time>
      </trkpt>
      <trkpt lat="47.76104" lon="6.56702">
        <ele>343.4</ele>
        <time>2020-09-06T19:45:40Z</time>
      </trkpt>
      <trkpt lat="47.76106" lon="6.56659">
        <ele>346.3</ele>
        <time>2020-09-06T19:45:40Z</time>
      </trkpt>
      <trkpt lat="47.76107" lon="6.56642">
        <ele>347.7</ele>
        <time>2020-09-06T19:45:40Z</time>
      </trkpt>
      <trkpt lat="47.76111" lon="6.56626">
        <ele>349.3</ele>
        <time>2020-09-06T19:45:40Z</time>
      </trkpt>
      <trkpt lat="47.76115" lon="6.56608">
        <ele>350.9</ele>
        <time>2020-09-06T19:45:40Z</time>
      </trkpt>
      <trkpt lat="47.76125" lon="6.56581">
        <ele>353.3</ele>
        <time>2020-09-06T19:45:40Z</time>
      </trkpt>
      <trkpt lat="47.76134" lon="6.5656">
        <ele>355.4</ele>
        <time>2020-09-06T19:45:40Z</time>
      </trkpt>
      <trkpt lat="47.76141" lon="6.56549">
        <ele>356.6</ele>
        <time>2020-09-06T19:45:40Z</time>
      </trkpt>
      <trkpt lat="47.76146" lon="6.56542">
        <ele>357.7</ele>
        <time>2020-09-06T19:45:40Z</time>
      </trkpt>
      <trkpt lat="47.76147" lon="6.56535">
        <ele>358.6</ele>
        <time>2020-09-06T19:45:40Z</time>
      </trkpt>
      <trkpt lat="47.76146" lon="6.56527">
        <ele>359.6</ele>
        <time>2020-09-06T19:45:40Z</time>
      </trkpt>
      <trkpt lat="47.76143" lon="6.5652">
        <ele>360.5</ele>
        <time>2020-09-06T19:45:40Z</time>
      </trkpt>
      <trkpt lat="47.76136" lon="6.56513">
        <ele>361.9</ele>
        <time>2020-09-06T19:45:40Z</time>
      </trkpt>
      <trkpt lat="47.76128" lon="6.56505">
        <ele>363.4</ele>
        <time>2020-09-06T19:45:40Z</time>
      </trkpt>
      <trkpt lat="47.76123" lon="6.56496">
        <ele>364.4</ele>
        <time>2020-09-06T19:45:40Z</time>
      </trkpt>
      <trkpt lat="47.76116" lon="6.56481">
        <ele>366.1</ele>
        <time>2020-09-06T19:45:40Z</time>
      </trkpt>
      <trkpt lat="47.76107" lon="6.56458">
        <ele>368.3</ele>
        <time>2020-09-06T19:45:40Z</time>
      </trkpt>
      <trkpt lat="47.761" lon="6.5644">
        <ele>369.9</ele>
        <time>2020-09-06T19:45:40Z</time>
      </trkpt>
      <trkpt lat="47.76088" lon="6.56418">
        <ele>372.7</ele>
        <time>2020-09-06T19:45:40Z</time>
      </trkpt>
      <trkpt lat="47.76085" lon="6.5641">
        <ele>373.6</ele>
        <time>2020-09-06T19:45:40Z</time>
      </trkpt>
      <trkpt lat="47.76088" lon="6.56395">
        <ele>374.9</ele>
        <time>2020-09-06T19:45:40Z</time>
      </trkpt>
      <trkpt lat="47.76089" lon="6.56388">
        <ele>375.4</ele>
        <time>2020-09-06T19:45:40Z</time>
      </trkpt>
      <trkpt lat="47.76092" lon="6.56383">
        <ele>375.9</ele>
        <time>2020-09-06T19:45:40Z</time>
      </trkpt>
      <trkpt lat="47.76099" lon="6.56375">
        <ele>376.9</ele>
        <time>2020-09-06T19:45:40Z</time>
      </trkpt>
      <trkpt lat="47.76103" lon="6.56371">
        <ele>377.5</ele>
        <time>2020-09-06T19:45:40Z</time>
      </trkpt>
      <trkpt lat="47.76108" lon="6.56369">
        <ele>377.8</ele>
        <time>2020-09-06T19:45:40Z</time>
      </trkpt>
      <trkpt lat="47.76113" lon="6.56366">
        <ele>378.7</ele>
        <time>2020-09-06T19:45:40Z</time>
      </trkpt>
      <trkpt lat="47.76117" lon="6.56363">
        <ele>379</ele>
        <time>2020-09-06T19:45:40Z</time>
      </trkpt>
      <trkpt lat="47.76123" lon="6.56358">
        <ele>379.7</ele>
        <time>2020-09-06T19:45:40Z</time>
      </trkpt>
      <trkpt lat="47.76133" lon="6.56343">
        <ele>381</ele>
        <time>2020-09-06T19:45:40Z</time>
      </trkpt>
      <trkpt lat="47.76139" lon="6.56334">
        <ele>382.5</ele>
        <time>2020-09-06T19:45:40Z</time>
      </trkpt>
      <trkpt lat="47.76147" lon="6.56317">
        <ele>384.4</ele>
        <time>2020-09-06T19:45:40Z</time>
      </trkpt>
      <trkpt lat="47.76153" lon="6.56302">
        <ele>385.7</ele>
        <time>2020-09-06T19:45:40Z</time>
      </trkpt>
      <trkpt lat="47.76157" lon="6.56295">
        <ele>386.6</ele>
        <time>2020-09-06T19:45:40Z</time>
      </trkpt>
      <trkpt lat="47.76161" lon="6.56289">
        <ele>387.3</ele>
        <time>2020-09-06T19:45:40Z</time>
      </trkpt>
      <trkpt lat="47.76169" lon="6.5628">
        <ele>388.5</ele>
        <time>2020-09-06T19:45:40Z</time>
      </trkpt>
      <trkpt lat="47.76209" lon="6.56243">
        <ele>392.4</ele>
        <time>2020-09-06T19:45:40Z</time>
      </trkpt>
      <trkpt lat="47.76247" lon="6.56209">
        <ele>396.4</ele>
        <time>2020-09-06T19:45:40Z</time>
      </trkpt>
      <trkpt lat="47.76252" lon="6.56201">
        <ele>397.1</ele>
        <time>2020-09-06T19:45:40Z</time>
      </trkpt>
      <trkpt lat="47.76255" lon="6.56179">
        <ele>398.8</ele>
        <time>2020-09-06T19:45:40Z</time>
      </trkpt>
      <trkpt lat="47.76256" lon="6.56165">
        <ele>400</ele>
        <time>2020-09-06T19:45:40Z</time>
      </trkpt>
      <trkpt lat="47.76258" lon="6.56159">
        <ele>400.3</ele>
        <time>2020-09-06T19:45:40Z</time>
      </trkpt>
      <trkpt lat="47.76261" lon="6.56151">
        <ele>401.5</ele>
        <time>2020-09-06T19:45:40Z</time>
      </trkpt>
      <trkpt lat="47.76264" lon="6.56145">
        <ele>402.4</ele>
        <time>2020-09-06T19:45:40Z</time>
      </trkpt>
      <trkpt lat="47.76279" lon="6.56123">
        <ele>404.1</ele>
        <time>2020-09-06T19:45:40Z</time>
      </trkpt>
      <trkpt lat="47.76285" lon="6.56114">
        <ele>405.1</ele>
        <time>2020-09-06T19:45:40Z</time>
      </trkpt>
      <trkpt lat="47.76292" lon="6.56097">
        <ele>405.7</ele>
        <time>2020-09-06T19:45:40Z</time>
      </trkpt>
      <trkpt lat="47.76293" lon="6.56091">
        <ele>405.7</ele>
        <time>2020-09-06T19:45:40Z</time>
      </trkpt>
      <trkpt lat="47.76294" lon="6.56082">
        <ele>406.6</ele>
        <time>2020-09-06T19:45:40Z</time>
      </trkpt>
      <trkpt lat="47.76296" lon="6.56074">
        <ele>406.9</ele>
        <time>2020-09-06T19:45:40Z</time>
      </trkpt>
      <trkpt lat="47.76306" lon="6.56064">
        <ele>408</ele>
        <time>2020-09-06T19:45:40Z</time>
      </trkpt>
      <trkpt lat="47.76312" lon="6.56058">
        <ele>408.9</ele>
        <time>2020-09-06T19:45:40Z</time>
      </trkpt>
      <trkpt lat="47.76318" lon="6.56055">
        <ele>409.4</ele>
        <time>2020-09-06T19:45:40Z</time>
      </trkpt>
      <trkpt lat="47.76326" lon="6.56052">
        <ele>410.2</ele>
        <time>2020-09-06T19:45:40Z</time>
      </trkpt>
      <trkpt lat="47.7634" lon="6.56047">
        <ele>411.4</ele>
        <time>2020-09-06T19:45:40Z</time>
      </trkpt>
      <trkpt lat="47.76355" lon="6.56039">
        <ele>412.6</ele>
        <time>2020-09-06T19:45:40Z</time>
      </trkpt>
      <trkpt lat="47.76371" lon="6.56029">
        <ele>413.6</ele>
        <time>2020-09-06T19:45:40Z</time>
      </trkpt>
      <trkpt lat="47.76382" lon="6.5602">
        <ele>414.1</ele>
        <time>2020-09-06T19:45:40Z</time>
      </trkpt>
      <trkpt lat="47.764" lon="6.56005">
        <ele>414.8</ele>
        <time>2020-09-06T19:45:40Z</time>
      </trkpt>
      <trkpt lat="47.7641" lon="6.55994">
        <ele>415.4</ele>
        <time>2020-09-06T19:45:40Z</time>
      </trkpt>
      <trkpt lat="47.76421" lon="6.55979">
        <ele>415.7</ele>
        <time>2020-09-06T19:45:40Z</time>
      </trkpt>
      <trkpt lat="47.76427" lon="6.55969">
        <ele>416.2</ele>
        <time>2020-09-06T19:45:40Z</time>
      </trkpt>
      <trkpt lat="47.76434" lon="6.55954">
        <ele>416.6</ele>
        <time>2020-09-06T19:45:40Z</time>
      </trkpt>
      <trkpt lat="47.76449" lon="6.55904">
        <ele>418.9</ele>
        <time>2020-09-06T19:45:40Z</time>
      </trkpt>
      <trkpt lat="47.76461" lon="6.55864">
        <ele>421.2</ele>
        <time>2020-09-06T19:45:40Z</time>
      </trkpt>
      <trkpt lat="47.76467" lon="6.55842">
        <ele>421.5</ele>
        <time>2020-09-06T19:45:40Z</time>
      </trkpt>
      <trkpt lat="47.76482" lon="6.55797">
        <ele>421.3</ele>
        <time>2020-09-06T19:45:40Z</time>
      </trkpt>
      <trkpt lat="47.7649" lon="6.55771">
        <ele>422.8</ele>
        <time>2020-09-06T19:45:40Z</time>
      </trkpt>
      <trkpt lat="47.76495" lon="6.55759">
        <ele>423.8</ele>
        <time>2020-09-06T19:45:40Z</time>
      </trkpt>
      <trkpt lat="47.76501" lon="6.55747">
        <ele>424.5</ele>
        <time>2020-09-06T19:45:40Z</time>
      </trkpt>
      <trkpt lat="47.76506" lon="6.55744">
        <ele>425.2</ele>
        <time>2020-09-06T19:45:40Z</time>
      </trkpt>
      <trkpt lat="47.76513" lon="6.55742">
        <ele>426.5</ele>
        <time>2020-09-06T19:45:40Z</time>
      </trkpt>
      <trkpt lat="47.76517" lon="6.5574">
        <ele>427.5</ele>
        <time>2020-09-06T19:45:40Z</time>
      </trkpt>
      <trkpt lat="47.76522" lon="6.55732">
        <ele>427.9</ele>
        <time>2020-09-06T19:45:40Z</time>
      </trkpt>
      <trkpt lat="47.7653" lon="6.55718">
        <ele>429.2</ele>
        <time>2020-09-06T19:45:40Z</time>
      </trkpt>
      <trkpt lat="47.76536" lon="6.55703">
        <ele>429.6</ele>
        <time>2020-09-06T19:45:40Z</time>
      </trkpt>
      <trkpt lat="47.7654" lon="6.55691">
        <ele>430</ele>
        <time>2020-09-06T19:45:40Z</time>
      </trkpt>
      <trkpt lat="47.76552" lon="6.55653">
        <ele>431.7</ele>
        <time>2020-09-06T19:45:40Z</time>
      </trkpt>
      <trkpt lat="47.76564" lon="6.55609">
        <ele>433.2</ele>
        <time>2020-09-06T19:45:40Z</time>
      </trkpt>
      <trkpt lat="47.76574" lon="6.55572">
        <ele>434.4</ele>
        <time>2020-09-06T19:45:40Z</time>
      </trkpt>
      <trkpt lat="47.76581" lon="6.55539">
        <ele>435.1</ele>
        <time>2020-09-06T19:45:40Z</time>
      </trkpt>
      <trkpt lat="47.76582" lon="6.5553">
        <ele>435.1</ele>
        <time>2020-09-06T19:45:40Z</time>
      </trkpt>
      <trkpt lat="47.76585" lon="6.55487">
        <ele>435.7</ele>
        <time>2020-09-06T19:45:40Z</time>
      </trkpt>
      <trkpt lat="47.76586" lon="6.55463">
        <ele>437.2</ele>
        <time>2020-09-06T19:45:40Z</time>
      </trkpt>
      <trkpt lat="47.76587" lon="6.55435">
        <ele>438</ele>
        <time>2020-09-06T19:45:40Z</time>
      </trkpt>
      <trkpt lat="47.76587" lon="6.55425">
        <ele>438.2</ele>
        <time>2020-09-06T19:45:40Z</time>
      </trkpt>
      <trkpt lat="47.76588" lon="6.55412">
        <ele>438.4</ele>
        <time>2020-09-06T19:45:40Z</time>
      </trkpt>
      <trkpt lat="47.76587" lon="6.55397">
        <ele>439</ele>
        <time>2020-09-06T19:45:40Z</time>
      </trkpt>
      <trkpt lat="47.76585" lon="6.55386">
        <ele>438.8</ele>
        <time>2020-09-06T19:45:40Z</time>
      </trkpt>
      <trkpt lat="47.76581" lon="6.55369">
        <ele>439.7</ele>
        <time>2020-09-06T19:45:40Z</time>
      </trkpt>
      <trkpt lat="47.76571" lon="6.55335">
        <ele>441.9</ele>
        <time>2020-09-06T19:45:40Z</time>
      </trkpt>
      <trkpt lat="47.76569" lon="6.55324">
        <ele>442.7</ele>
        <time>2020-09-06T19:45:40Z</time>
      </trkpt>
      <trkpt lat="47.76569" lon="6.55313">
        <ele>443</ele>
        <time>2020-09-06T19:45:40Z</time>
      </trkpt>
      <trkpt lat="47.76572" lon="6.55303">
        <ele>443</ele>
        <time>2020-09-06T19:45:40Z</time>
      </trkpt>
      <trkpt lat="47.76576" lon="6.55294">
        <ele>442.8</ele>
        <time>2020-09-06T19:45:40Z</time>
      </trkpt>
      <trkpt lat="47.76587" lon="6.55278">
        <ele>443</ele>
        <time>2020-09-06T19:45:40Z</time>
      </trkpt>
      <trkpt lat="47.76601" lon="6.55258">
        <ele>443.6</ele>
        <time>2020-09-06T19:45:40Z</time>
      </trkpt>
      <trkpt lat="47.76604" lon="6.55251">
        <ele>444.1</ele>
        <time>2020-09-06T19:45:40Z</time>
      </trkpt>
      <trkpt lat="47.76604" lon="6.55244">
        <ele>444.1</ele>
        <time>2020-09-06T19:45:40Z</time>
      </trkpt>
      <trkpt lat="47.76604" lon="6.5523">
        <ele>443.8</ele>
        <time>2020-09-06T19:45:40Z</time>
      </trkpt>
      <trkpt lat="47.76601" lon="6.55197">
        <ele>443.3</ele>
        <time>2020-09-06T19:45:40Z</time>
      </trkpt>
      <trkpt lat="47.76596" lon="6.55162">
        <ele>443.8</ele>
        <time>2020-09-06T19:45:40Z</time>
      </trkpt>
      <trkpt lat="47.76594" lon="6.55142">
        <ele>444.2</ele>
        <time>2020-09-06T19:45:40Z</time>
      </trkpt>
      <trkpt lat="47.76592" lon="6.55128">
        <ele>444.5</ele>
        <time>2020-09-06T19:45:40Z</time>
      </trkpt>
      <trkpt lat="47.76592" lon="6.55115">
        <ele>444.9</ele>
        <time>2020-09-06T19:45:40Z</time>
      </trkpt>
      <trkpt lat="47.76594" lon="6.55095">
        <ele>446.1</ele>
        <time>2020-09-06T19:45:40Z</time>
      </trkpt>
      <trkpt lat="47.76599" lon="6.55061">
        <ele>448.2</ele>
        <time>2020-09-06T19:45:40Z</time>
      </trkpt>
      <trkpt lat="47.76603" lon="6.55034">
        <ele>450.3</ele>
        <time>2020-09-06T19:45:40Z</time>
      </trkpt>
      <trkpt lat="47.76604" lon="6.55021">
        <ele>451</ele>
        <time>2020-09-06T19:45:40Z</time>
      </trkpt>
      <trkpt lat="47.76606" lon="6.54995">
        <ele>451.5</ele>
        <time>2020-09-06T19:45:40Z</time>
      </trkpt>
      <trkpt lat="47.76608" lon="6.5497">
        <ele>451.6</ele>
        <time>2020-09-06T19:45:40Z</time>
      </trkpt>
      <trkpt lat="47.7661" lon="6.54958">
        <ele>451.8</ele>
        <time>2020-09-06T19:45:40Z</time>
      </trkpt>
      <trkpt lat="47.76613" lon="6.54946">
        <ele>451.9</ele>
        <time>2020-09-06T19:45:40Z</time>
      </trkpt>
      <trkpt lat="47.76619" lon="6.54931">
        <ele>452.2</ele>
        <time>2020-09-06T19:45:40Z</time>
      </trkpt>
      <trkpt lat="47.76622" lon="6.54921">
        <ele>452.1</ele>
        <time>2020-09-06T19:45:40Z</time>
      </trkpt>
      <trkpt lat="47.76624" lon="6.549">
        <ele>452</ele>
        <time>2020-09-06T19:45:40Z</time>
      </trkpt>
      <trkpt lat="47.76631" lon="6.5489">
        <ele>452</ele>
        <time>2020-09-06T19:45:40Z</time>
      </trkpt>
      <trkpt lat="47.76642" lon="6.54877">
        <ele>451.7</ele>
        <time>2020-09-06T19:45:40Z</time>
      </trkpt>
      <trkpt lat="47.76654" lon="6.54865">
        <ele>451.4</ele>
        <time>2020-09-06T19:45:40Z</time>
      </trkpt>
      <trkpt lat="47.76668" lon="6.54854">
        <ele>451.3</ele>
        <time>2020-09-06T19:45:40Z</time>
      </trkpt>
      <trkpt lat="47.76682" lon="6.54843">
        <ele>451.1</ele>
        <time>2020-09-06T19:45:40Z</time>
      </trkpt>
      <trkpt lat="47.76707" lon="6.54826">
        <ele>450.7</ele>
        <time>2020-09-06T19:45:40Z</time>
      </trkpt>
      <trkpt lat="47.76721" lon="6.54817">
        <ele>450.5</ele>
        <time>2020-09-06T19:45:40Z</time>
      </trkpt>
      <trkpt lat="47.76737" lon="6.54806">
        <ele>450.4</ele>
        <time>2020-09-06T19:45:40Z</time>
      </trkpt>
      <trkpt lat="47.76762" lon="6.5479">
        <ele>450.4</ele>
        <time>2020-09-06T19:45:40Z</time>
      </trkpt>
      <trkpt lat="47.76786" lon="6.54774">
        <ele>450.5</ele>
        <time>2020-09-06T19:45:40Z</time>
      </trkpt>
      <trkpt lat="47.76817" lon="6.54753">
        <ele>450.6</ele>
        <time>2020-09-06T19:45:40Z</time>
      </trkpt>
      <trkpt lat="47.76832" lon="6.54744">
        <ele>450.9</ele>
        <time>2020-09-06T19:45:40Z</time>
      </trkpt>
      <trkpt lat="47.7684" lon="6.54739">
        <ele>451.1</ele>
        <time>2020-09-06T19:45:40Z</time>
      </trkpt>
      <trkpt lat="47.7685" lon="6.54734">
        <ele>451.4</ele>
        <time>2020-09-06T19:45:40Z</time>
      </trkpt>
      <trkpt lat="47.76859" lon="6.5473">
        <ele>451.7</ele>
        <time>2020-09-06T19:45:40Z</time>
      </trkpt>
      <trkpt lat="47.76866" lon="6.54728">
        <ele>452.1</ele>
        <time>2020-09-06T19:45:40Z</time>
      </trkpt>
      <trkpt lat="47.76876" lon="6.54728">
        <ele>452.3</ele>
        <time>2020-09-06T19:45:40Z</time>
      </trkpt>
      <trkpt lat="47.7692" lon="6.54727">
        <ele>453.4</ele>
        <time>2020-09-06T19:45:40Z</time>
      </trkpt>
      <trkpt lat="47.76959" lon="6.54728">
        <ele>454.3</ele>
        <time>2020-09-06T19:45:40Z</time>
      </trkpt>
      <trkpt lat="47.7699" lon="6.54727">
        <ele>455.1</ele>
        <time>2020-09-06T19:45:40Z</time>
      </trkpt>
      <trkpt lat="47.77047" lon="6.54728">
        <ele>455.9</ele>
        <time>2020-09-06T19:45:40Z</time>
      </trkpt>
      <trkpt lat="47.77064" lon="6.54729">
        <ele>456.2</ele>
        <time>2020-09-06T19:45:40Z</time>
      </trkpt>
      <trkpt lat="47.77082" lon="6.54729">
        <ele>456.6</ele>
        <time>2020-09-06T19:45:40Z</time>
      </trkpt>
      <trkpt lat="47.77095" lon="6.54729">
        <ele>456.9</ele>
        <time>2020-09-06T19:45:40Z</time>
      </trkpt>
      <trkpt lat="47.77111" lon="6.54729">
        <ele>457.2</ele>
        <time>2020-09-06T19:45:40Z</time>
      </trkpt>
      <trkpt lat="47.77152" lon="6.54729">
        <ele>458.1</ele>
        <time>2020-09-06T19:45:40Z</time>
      </trkpt>
      <trkpt lat="47.77182" lon="6.5473">
        <ele>458.7</ele>
        <time>2020-09-06T19:45:40Z</time>
      </trkpt>
      <trkpt lat="47.7721" lon="6.5473">
        <ele>459.1</ele>
        <time>2020-09-06T19:45:40Z</time>
      </trkpt>
      <trkpt lat="47.77237" lon="6.54731">
        <ele>458.6</ele>
        <time>2020-09-06T19:45:40Z</time>
      </trkpt>
      <trkpt lat="47.77255" lon="6.54731">
        <ele>457.6</ele>
        <time>2020-09-06T19:45:40Z</time>
      </trkpt>
      <trkpt lat="47.77296" lon="6.54731">
        <ele>455.7</ele>
        <time>2020-09-06T19:45:40Z</time>
      </trkpt>
      <trkpt lat="47.77318" lon="6.54732">
        <ele>454.8</ele>
        <time>2020-09-06T19:45:40Z</time>
      </trkpt>
      <trkpt lat="47.77335" lon="6.54732">
        <ele>454.4</ele>
        <time>2020-09-06T19:45:40Z</time>
      </trkpt>
      <trkpt lat="47.77352" lon="6.54733">
        <ele>454.3</ele>
        <time>2020-09-06T19:45:40Z</time>
      </trkpt>
      <trkpt lat="47.77365" lon="6.54735">
        <ele>454.2</ele>
        <time>2020-09-06T19:45:40Z</time>
      </trkpt>
      <trkpt lat="47.77374" lon="6.54737">
        <ele>454.4</ele>
        <time>2020-09-06T19:45:40Z</time>
      </trkpt>
      <trkpt lat="47.77384" lon="6.54739">
        <ele>454.7</ele>
        <time>2020-09-06T19:45:40Z</time>
      </trkpt>
      <trkpt lat="47.77399" lon="6.54743">
        <ele>455.1</ele>
        <time>2020-09-06T19:45:40Z</time>
      </trkpt>
      <trkpt lat="47.77421" lon="6.5475">
        <ele>455.9</ele>
        <time>2020-09-06T19:45:40Z</time>
      </trkpt>
      <trkpt lat="47.77445" lon="6.54756">
        <ele>456.8</ele>
        <time>2020-09-06T19:45:40Z</time>
      </trkpt>
      <trkpt lat="47.77461" lon="6.54761">
        <ele>457.3</ele>
        <time>2020-09-06T19:45:40Z</time>
      </trkpt>
      <trkpt lat="47.77477" lon="6.54765">
        <ele>457.3</ele>
        <time>2020-09-06T19:45:40Z</time>
      </trkpt>
      <trkpt lat="47.77495" lon="6.54771">
        <ele>457.2</ele>
        <time>2020-09-06T19:45:40Z</time>
      </trkpt>
      <trkpt lat="47.77516" lon="6.54777">
        <ele>457.1</ele>
        <time>2020-09-06T19:45:40Z</time>
      </trkpt>
      <trkpt lat="47.77524" lon="6.54779">
        <ele>457.1</ele>
        <time>2020-09-06T19:45:40Z</time>
      </trkpt>
      <trkpt lat="47.77541" lon="6.54784">
        <ele>457.2</ele>
        <time>2020-09-06T19:45:40Z</time>
      </trkpt>
      <trkpt lat="47.77548" lon="6.54787">
        <ele>457.1</ele>
        <time>2020-09-06T19:45:40Z</time>
      </trkpt>
      <trkpt lat="47.77559" lon="6.5479">
        <ele>457.1</ele>
        <time>2020-09-06T19:45:40Z</time>
      </trkpt>
      <trkpt lat="47.77567" lon="6.54793">
        <ele>457.3</ele>
        <time>2020-09-06T19:45:40Z</time>
      </trkpt>
      <trkpt lat="47.77581" lon="6.54798">
        <ele>457.6</ele>
        <time>2020-09-06T19:45:40Z</time>
      </trkpt>
      <trkpt lat="47.7759" lon="6.54804">
        <ele>457.9</ele>
        <time>2020-09-06T19:45:40Z</time>
      </trkpt>
      <trkpt lat="47.77603" lon="6.54811">
        <ele>458.4</ele>
        <time>2020-09-06T19:45:40Z</time>
      </trkpt>
      <trkpt lat="47.77628" lon="6.54824">
        <ele>459.5</ele>
        <time>2020-09-06T19:45:40Z</time>
      </trkpt>
      <trkpt lat="47.77657" lon="6.54838">
        <ele>460.8</ele>
        <time>2020-09-06T19:45:40Z</time>
      </trkpt>
      <trkpt lat="47.77668" lon="6.54843">
        <ele>461.3</ele>
        <time>2020-09-06T19:45:40Z</time>
      </trkpt>
      <trkpt lat="47.7768" lon="6.54845">
        <ele>461.4</ele>
        <time>2020-09-06T19:45:40Z</time>
      </trkpt>
      <trkpt lat="47.77691" lon="6.54845">
        <ele>461.5</ele>
        <time>2020-09-06T19:45:40Z</time>
      </trkpt>
      <trkpt lat="47.77692" lon="6.54867">
        <ele>461.1</ele>
        <time>2020-09-06T19:45:40Z</time>
      </trkpt>
      <trkpt lat="47.77694" lon="6.54901">
        <ele>460.6</ele>
        <time>2020-09-06T19:45:40Z</time>
      </trkpt>
      <trkpt lat="47.77696" lon="6.54928">
        <ele>460</ele>
        <time>2020-09-06T19:45:40Z</time>
      </trkpt>
      <trkpt lat="47.77699" lon="6.54972">
        <ele>458.1</ele>
        <time>2020-09-06T19:45:40Z</time>
      </trkpt>
      <trkpt lat="47.77703" lon="6.55016">
        <ele>456.8</ele>
        <time>2020-09-06T19:45:40Z</time>
      </trkpt>
      <trkpt lat="47.77703" lon="6.55024">
        <ele>456.6</ele>
        <time>2020-09-06T19:45:40Z</time>
      </trkpt>
      <trkpt lat="47.77706" lon="6.55075">
        <ele>456.4</ele>
        <time>2020-09-06T19:45:40Z</time>
      </trkpt>
      <trkpt lat="47.77708" lon="6.55107">
        <ele>456.2</ele>
        <time>2020-09-06T19:45:40Z</time>
      </trkpt>
      <trkpt lat="47.7771" lon="6.5514">
        <ele>456.8</ele>
        <time>2020-09-06T19:45:40Z</time>
      </trkpt>
      <trkpt lat="47.77712" lon="6.55173">
        <ele>455.1</ele>
        <time>2020-09-06T19:45:40Z</time>
      </trkpt>
      <trkpt lat="47.77714" lon="6.55208">
        <ele>454.2</ele>
        <time>2020-09-06T19:45:40Z</time>
      </trkpt>
      <trkpt lat="47.77716" lon="6.55235">
        <ele>453.6</ele>
        <time>2020-09-06T19:45:40Z</time>
      </trkpt>
      <trkpt lat="47.77717" lon="6.55247">
        <ele>453.6</ele>
        <time>2020-09-06T19:45:40Z</time>
      </trkpt>
      <trkpt lat="47.77718" lon="6.55267">
        <ele>454.3</ele>
        <time>2020-09-06T19:45:40Z</time>
      </trkpt>
      <trkpt lat="47.77718" lon="6.5528">
        <ele>455</ele>
        <time>2020-09-06T19:45:40Z</time>
      </trkpt>
      <trkpt lat="47.7772" lon="6.55288">
        <ele>454.9</ele>
        <time>2020-09-06T19:45:40Z</time>
      </trkpt>
      <trkpt lat="47.77723" lon="6.55296">
        <ele>454.7</ele>
        <time>2020-09-06T19:45:40Z</time>
      </trkpt>
      <trkpt lat="47.77727" lon="6.55306">
        <ele>454.5</ele>
        <time>2020-09-06T19:45:40Z</time>
      </trkpt>
      <trkpt lat="47.77731" lon="6.55315">
        <ele>454.4</ele>
        <time>2020-09-06T19:45:40Z</time>
      </trkpt>
      <trkpt lat="47.77735" lon="6.55324">
        <ele>454.5</ele>
        <time>2020-09-06T19:45:40Z</time>
      </trkpt>
      <trkpt lat="47.7774" lon="6.5533">
        <ele>454.8</ele>
        <time>2020-09-06T19:45:40Z</time>
      </trkpt>
      <trkpt lat="47.77744" lon="6.55335">
        <ele>455.1</ele>
        <time>2020-09-06T19:45:40Z</time>
      </trkpt>
      <trkpt lat="47.77752" lon="6.55339">
        <ele>455.2</ele>
        <time>2020-09-06T19:45:40Z</time>
      </trkpt>
      <trkpt lat="47.77759" lon="6.5534">
        <ele>455</ele>
        <time>2020-09-06T19:45:40Z</time>
      </trkpt>
      <trkpt lat="47.77766" lon="6.55338">
        <ele>455</ele>
        <time>2020-09-06T19:45:40Z</time>
      </trkpt>
      <trkpt lat="47.77774" lon="6.55335">
        <ele>454.5</ele>
        <time>2020-09-06T19:45:40Z</time>
      </trkpt>
      <trkpt lat="47.77789" lon="6.55327">
        <ele>454.6</ele>
        <time>2020-09-06T19:45:40Z</time>
      </trkpt>
      <trkpt lat="47.77799" lon="6.55324">
        <ele>454.8</ele>
        <time>2020-09-06T19:45:40Z</time>
      </trkpt>
      <trkpt lat="47.77809" lon="6.55322">
        <ele>454.7</ele>
        <time>2020-09-06T19:45:40Z</time>
      </trkpt>
      <trkpt lat="47.77817" lon="6.55323">
        <ele>454.9</ele>
        <time>2020-09-06T19:45:40Z</time>
      </trkpt>
      <trkpt lat="47.77822" lon="6.55327">
        <ele>454.9</ele>
        <time>2020-09-06T19:45:40Z</time>
      </trkpt>
      <trkpt lat="47.7783" lon="6.55337">
        <ele>455</ele>
        <time>2020-09-06T19:45:40Z</time>
      </trkpt>
      <trkpt lat="47.77836" lon="6.55344">
        <ele>455</ele>
        <time>2020-09-06T19:45:40Z</time>
      </trkpt>
      <trkpt lat="47.77841" lon="6.55352">
        <ele>454.9</ele>
        <time>2020-09-06T19:45:40Z</time>
      </trkpt>
      <trkpt lat="47.77847" lon="6.55359">
        <ele>455.7</ele>
        <time>2020-09-06T19:45:40Z</time>
      </trkpt>
      <trkpt lat="47.77851" lon="6.55365">
        <ele>455.3</ele>
        <time>2020-09-06T19:45:40Z</time>
      </trkpt>
      <trkpt lat="47.77856" lon="6.55371">
        <ele>455.6</ele>
        <time>2020-09-06T19:45:40Z</time>
      </trkpt>
      <trkpt lat="47.77861" lon="6.55377">
        <ele>455.7</ele>
        <time>2020-09-06T19:45:40Z</time>
      </trkpt>
      <trkpt lat="47.77868" lon="6.55385">
        <ele>455.5</ele>
        <time>2020-09-06T19:45:40Z</time>
      </trkpt>
      <trkpt lat="47.77875" lon="6.55397">
        <ele>454.8</ele>
        <time>2020-09-06T19:45:40Z</time>
      </trkpt>
      <trkpt lat="47.77883" lon="6.55415">
        <ele>454.2</ele>
        <time>2020-09-06T19:45:40Z</time>
      </trkpt>
      <trkpt lat="47.7789" lon="6.55428">
        <ele>454.3</ele>
        <time>2020-09-06T19:45:40Z</time>
      </trkpt>
      <trkpt lat="47.77895" lon="6.55436">
        <ele>454.4</ele>
        <time>2020-09-06T19:45:40Z</time>
      </trkpt>
      <trkpt lat="47.779" lon="6.55441">
        <ele>454.6</ele>
        <time>2020-09-06T19:45:40Z</time>
      </trkpt>
      <trkpt lat="47.77906" lon="6.55441">
        <ele>454.7</ele>
        <time>2020-09-06T19:45:40Z</time>
      </trkpt>
      <trkpt lat="47.77917" lon="6.55435">
        <ele>454.8</ele>
        <time>2020-09-06T19:45:40Z</time>
      </trkpt>
      <trkpt lat="47.77924" lon="6.55433">
        <ele>454.5</ele>
        <time>2020-09-06T19:45:40Z</time>
      </trkpt>
      <trkpt lat="47.77938" lon="6.55422">
        <ele>454</ele>
        <time>2020-09-06T19:45:40Z</time>
      </trkpt>
      <trkpt lat="47.77952" lon="6.55406">
        <ele>454.1</ele>
        <time>2020-09-06T19:45:40Z</time>
      </trkpt>
      <trkpt lat="47.7796" lon="6.55395">
        <ele>454</ele>
        <time>2020-09-06T19:45:40Z</time>
      </trkpt>
      <trkpt lat="47.77971" lon="6.55381">
        <ele>453.6</ele>
        <time>2020-09-06T19:45:40Z</time>
      </trkpt>
      <trkpt lat="47.77983" lon="6.55366">
        <ele>453.6</ele>
        <time>2020-09-06T19:45:40Z</time>
      </trkpt>
      <trkpt lat="47.77992" lon="6.55357">
        <ele>453.5</ele>
        <time>2020-09-06T19:45:40Z</time>
      </trkpt>
      <trkpt lat="47.78002" lon="6.55349">
        <ele>453.4</ele>
        <time>2020-09-06T19:45:40Z</time>
      </trkpt>
      <trkpt lat="47.78016" lon="6.5534">
        <ele>453.5</ele>
        <time>2020-09-06T19:45:40Z</time>
      </trkpt>
      <trkpt lat="47.78029" lon="6.55333">
        <ele>453.9</ele>
        <time>2020-09-06T19:45:40Z</time>
      </trkpt>
      <trkpt lat="47.78045" lon="6.55327">
        <ele>453.9</ele>
        <time>2020-09-06T19:45:40Z</time>
      </trkpt>
      <trkpt lat="47.78061" lon="6.5532">
        <ele>454.3</ele>
        <time>2020-09-06T19:45:40Z</time>
      </trkpt>
      <trkpt lat="47.78079" lon="6.55312">
        <ele>454.3</ele>
        <time>2020-09-06T19:45:40Z</time>
      </trkpt>
      <trkpt lat="47.78093" lon="6.55308">
        <ele>454.6</ele>
        <time>2020-09-06T19:45:40Z</time>
      </trkpt>
      <trkpt lat="47.78107" lon="6.55307">
        <ele>454.7</ele>
        <time>2020-09-06T19:45:40Z</time>
      </trkpt>
      <trkpt lat="47.78112" lon="6.55305">
        <ele>454.7</ele>
        <time>2020-09-06T19:45:40Z</time>
      </trkpt>
      <trkpt lat="47.78119" lon="6.55302">
        <ele>454.8</ele>
        <time>2020-09-06T19:45:40Z</time>
      </trkpt>
      <trkpt lat="47.7813" lon="6.55295">
        <ele>455.3</ele>
        <time>2020-09-06T19:45:40Z</time>
      </trkpt>
      <trkpt lat="47.78137" lon="6.55287">
        <ele>455.2</ele>
        <time>2020-09-06T19:45:40Z</time>
      </trkpt>
      <trkpt lat="47.78144" lon="6.55278">
        <ele>455</ele>
        <time>2020-09-06T19:45:40Z</time>
      </trkpt>
      <trkpt lat="47.78155" lon="6.55263">
        <ele>455.1</ele>
        <time>2020-09-06T19:45:40Z</time>
      </trkpt>
      <trkpt lat="47.78167" lon="6.55251">
        <ele>455.5</ele>
        <time>2020-09-06T19:45:40Z</time>
      </trkpt>
      <trkpt lat="47.78179" lon="6.55235">
        <ele>456.3</ele>
        <time>2020-09-06T19:45:40Z</time>
      </trkpt>
      <trkpt lat="47.78188" lon="6.55225">
        <ele>456.6</ele>
        <time>2020-09-06T19:45:40Z</time>
      </trkpt>
      <trkpt lat="47.78194" lon="6.55218">
        <ele>456.7</ele>
        <time>2020-09-06T19:45:40Z</time>
      </trkpt>
      <trkpt lat="47.78204" lon="6.55211">
        <ele>455.9</ele>
        <time>2020-09-06T19:45:40Z</time>
      </trkpt>
      <trkpt lat="47.78218" lon="6.55201">
        <ele>456.3</ele>
        <time>2020-09-06T19:45:40Z</time>
      </trkpt>
      <trkpt lat="47.78236" lon="6.55188">
        <ele>456.7</ele>
        <time>2020-09-06T19:45:40Z</time>
      </trkpt>
      <trkpt lat="47.78247" lon="6.55179">
        <ele>456.6</ele>
        <time>2020-09-06T19:45:40Z</time>
      </trkpt>
      <trkpt lat="47.78256" lon="6.55169">
        <ele>456.6</ele>
        <time>2020-09-06T19:45:40Z</time>
      </trkpt>
      <trkpt lat="47.78267" lon="6.55158">
        <ele>457.2</ele>
        <time>2020-09-06T19:45:40Z</time>
      </trkpt>
      <trkpt lat="47.78275" lon="6.5515">
        <ele>457.1</ele>
        <time>2020-09-06T19:45:40Z</time>
      </trkpt>
      <trkpt lat="47.78286" lon="6.55145">
        <ele>457.3</ele>
        <time>2020-09-06T19:45:40Z</time>
      </trkpt>
      <trkpt lat="47.78293" lon="6.55143">
        <ele>457</ele>
        <time>2020-09-06T19:45:40Z</time>
      </trkpt>
      <trkpt lat="47.78304" lon="6.55143">
        <ele>456.2</ele>
        <time>2020-09-06T19:45:40Z</time>
      </trkpt>
      <trkpt lat="47.78334" lon="6.55143">
        <ele>456.3</ele>
        <time>2020-09-06T19:45:40Z</time>
      </trkpt>
      <trkpt lat="47.78358" lon="6.55145">
        <ele>457</ele>
        <time>2020-09-06T19:45:40Z</time>
      </trkpt>
      <trkpt lat="47.78373" lon="6.55146">
        <ele>457.6</ele>
        <time>2020-09-06T19:45:40Z</time>
      </trkpt>
      <trkpt lat="47.78389" lon="6.55146">
        <ele>458.7</ele>
        <time>2020-09-06T19:45:40Z</time>
      </trkpt>
      <trkpt lat="47.78421" lon="6.55147">
        <ele>461.1</ele>
        <time>2020-09-06T19:45:40Z</time>
      </trkpt>
      <trkpt lat="47.78446" lon="6.55148">
        <ele>462.9</ele>
        <time>2020-09-06T19:45:40Z</time>
      </trkpt>
      <trkpt lat="47.78476" lon="6.5515">
        <ele>466.8</ele>
        <time>2020-09-06T19:45:40Z</time>
      </trkpt>
      <trkpt lat="47.78491" lon="6.55152">
        <ele>468.3</ele>
        <time>2020-09-06T19:45:40Z</time>
      </trkpt>
      <trkpt lat="47.78499" lon="6.55151">
        <ele>468.6</ele>
        <time>2020-09-06T19:45:40Z</time>
      </trkpt>
      <trkpt lat="47.78504" lon="6.55151">
        <ele>468.7</ele>
        <time>2020-09-06T19:45:40Z</time>
      </trkpt>
      <trkpt lat="47.7851" lon="6.5515">
        <ele>468.7</ele>
        <time>2020-09-06T19:45:40Z</time>
      </trkpt>
      <trkpt lat="47.78517" lon="6.55147">
        <ele>469.1</ele>
        <time>2020-09-06T19:45:40Z</time>
      </trkpt>
      <trkpt lat="47.78527" lon="6.55144">
        <ele>469.5</ele>
        <time>2020-09-06T19:45:40Z</time>
      </trkpt>
      <trkpt lat="47.78538" lon="6.55138">
        <ele>470.1</ele>
        <time>2020-09-06T19:45:40Z</time>
      </trkpt>
      <trkpt lat="47.7855" lon="6.55132">
        <ele>470.7</ele>
        <time>2020-09-06T19:45:40Z</time>
      </trkpt>
      <trkpt lat="47.78559" lon="6.55127">
        <ele>470.8</ele>
        <time>2020-09-06T19:45:40Z</time>
      </trkpt>
      <trkpt lat="47.78573" lon="6.55118">
        <ele>470.7</ele>
        <time>2020-09-06T19:45:40Z</time>
      </trkpt>
      <trkpt lat="47.78583" lon="6.55114">
        <ele>470.8</ele>
        <time>2020-09-06T19:45:40Z</time>
      </trkpt>
      <trkpt lat="47.78588" lon="6.55112">
        <ele>470.8</ele>
        <time>2020-09-06T19:45:40Z</time>
      </trkpt>
      <trkpt lat="47.78597" lon="6.5511">
        <ele>471</ele>
        <time>2020-09-06T19:45:40Z</time>
      </trkpt>
      <trkpt lat="47.78616" lon="6.55107">
        <ele>471.3</ele>
        <time>2020-09-06T19:45:40Z</time>
      </trkpt>
      <trkpt lat="47.7865" lon="6.55104">
        <ele>471</ele>
        <time>2020-09-06T19:45:40Z</time>
      </trkpt>
      <trkpt lat="47.78687" lon="6.55098">
        <ele>471.2</ele>
        <time>2020-09-06T19:45:40Z</time>
      </trkpt>
      <trkpt lat="47.78715" lon="6.55095">
        <ele>471</ele>
        <time>2020-09-06T19:45:40Z</time>
      </trkpt>
      <trkpt lat="47.78739" lon="6.55093">
        <ele>470.7</ele>
        <time>2020-09-06T19:45:40Z</time>
      </trkpt>
      <trkpt lat="47.78745" lon="6.55094">
        <ele>470.7</ele>
        <time>2020-09-06T19:45:40Z</time>
      </trkpt>
      <trkpt lat="47.78753" lon="6.55098">
        <ele>470</ele>
        <time>2020-09-06T19:45:40Z</time>
      </trkpt>
      <trkpt lat="47.78758" lon="6.55106">
        <ele>470.4</ele>
        <time>2020-09-06T19:45:40Z</time>
      </trkpt>
      <trkpt lat="47.78764" lon="6.55113">
        <ele>470.4</ele>
        <time>2020-09-06T19:45:40Z</time>
      </trkpt>
      <trkpt lat="47.78767" lon="6.55117">
        <ele>470.1</ele>
        <time>2020-09-06T19:45:40Z</time>
      </trkpt>
      <trkpt lat="47.78772" lon="6.55122">
        <ele>469.8</ele>
        <time>2020-09-06T19:45:40Z</time>
      </trkpt>
      <trkpt lat="47.78774" lon="6.55113">
        <ele>470.2</ele>
        <time>2020-09-06T19:45:40Z</time>
      </trkpt>
      <trkpt lat="47.78781" lon="6.55122">
        <ele>470.4</ele>
        <time>2020-09-06T19:45:40Z</time>
      </trkpt>
      <trkpt lat="47.78801" lon="6.55148">
        <ele>471.8</ele>
        <time>2020-09-06T19:45:40Z</time>
      </trkpt>
      <trkpt lat="47.78835" lon="6.55194">
        <ele>473.8</ele>
        <time>2020-09-06T19:45:40Z</time>
      </trkpt>
      <trkpt lat="47.78865" lon="6.55236">
        <ele>475.5</ele>
        <time>2020-09-06T19:45:40Z</time>
      </trkpt>
      <trkpt lat="47.78893" lon="6.55272">
        <ele>475.9</ele>
        <time>2020-09-06T19:45:40Z</time>
      </trkpt>
      <trkpt lat="47.78903" lon="6.55282">
        <ele>475.8</ele>
        <time>2020-09-06T19:45:40Z</time>
      </trkpt>
      <trkpt lat="47.7891" lon="6.55288">
        <ele>475.9</ele>
        <time>2020-09-06T19:45:40Z</time>
      </trkpt>
      <trkpt lat="47.78916" lon="6.55293">
        <ele>475.8</ele>
        <time>2020-09-06T19:45:40Z</time>
      </trkpt>
      <trkpt lat="47.78928" lon="6.55301">
        <ele>475.8</ele>
        <time>2020-09-06T19:45:40Z</time>
      </trkpt>
      <trkpt lat="47.78941" lon="6.55309">
        <ele>475.8</ele>
        <time>2020-09-06T19:45:40Z</time>
      </trkpt>
      <trkpt lat="47.7895" lon="6.55312">
        <ele>475.9</ele>
        <time>2020-09-06T19:45:40Z</time>
      </trkpt>
      <trkpt lat="47.78959" lon="6.55314">
        <ele>476</ele>
        <time>2020-09-06T19:45:40Z</time>
      </trkpt>
      <trkpt lat="47.78968" lon="6.55316">
        <ele>476</ele>
        <time>2020-09-06T19:45:40Z</time>
      </trkpt>
      <trkpt lat="47.78977" lon="6.55317">
        <ele>475.9</ele>
        <time>2020-09-06T19:45:40Z</time>
      </trkpt>
      <trkpt lat="47.78985" lon="6.55317">
        <ele>475.9</ele>
        <time>2020-09-06T19:45:40Z</time>
      </trkpt>
      <trkpt lat="47.78995" lon="6.55316">
        <ele>476</ele>
        <time>2020-09-06T19:45:40Z</time>
      </trkpt>
      <trkpt lat="47.79018" lon="6.55311">
        <ele>476.1</ele>
        <time>2020-09-06T19:45:40Z</time>
      </trkpt>
      <trkpt lat="47.79048" lon="6.55302">
        <ele>476.2</ele>
        <time>2020-09-06T19:45:40Z</time>
      </trkpt>
      <trkpt lat="47.79084" lon="6.5529">
        <ele>475.9</ele>
        <time>2020-09-06T19:45:40Z</time>
      </trkpt>
      <trkpt lat="47.79084" lon="6.55313">
        <ele>475.2</ele>
        <time>2020-09-06T19:45:40Z</time>
      </trkpt>
      <trkpt lat="47.79086" lon="6.55328">
        <ele>474.4</ele>
        <time>2020-09-06T19:45:40Z</time>
      </trkpt>
      <trkpt lat="47.79089" lon="6.55351">
        <ele>473.2</ele>
        <time>2020-09-06T19:45:40Z</time>
      </trkpt>
      <trkpt lat="47.79096" lon="6.55388">
        <ele>471.5</ele>
        <time>2020-09-06T19:45:40Z</time>
      </trkpt>
      <trkpt lat="47.791" lon="6.55407">
        <ele>471</ele>
        <time>2020-09-06T19:45:40Z</time>
      </trkpt>
      <trkpt lat="47.79102" lon="6.55421">
        <ele>470.5</ele>
        <time>2020-09-06T19:45:40Z</time>
      </trkpt>
      <trkpt lat="47.7911" lon="6.5546">
        <ele>468.2</ele>
        <time>2020-09-06T19:45:40Z</time>
      </trkpt>
      <trkpt lat="47.79118" lon="6.55507">
        <ele>464.8</ele>
        <time>2020-09-06T19:45:40Z</time>
      </trkpt>
      <trkpt lat="47.79126" lon="6.55546">
        <ele>461.9</ele>
        <time>2020-09-06T19:45:40Z</time>
      </trkpt>
      <trkpt lat="47.79141" lon="6.55612">
        <ele>458.4</ele>
        <time>2020-09-06T19:45:40Z</time>
      </trkpt>
      <trkpt lat="47.79148" lon="6.55641">
        <ele>457</ele>
        <time>2020-09-06T19:45:40Z</time>
      </trkpt>
      <trkpt lat="47.7915" lon="6.55653">
        <ele>456.5</ele>
        <time>2020-09-06T19:45:40Z</time>
      </trkpt>
      <trkpt lat="47.7915" lon="6.55661">
        <ele>456.3</ele>
        <time>2020-09-06T19:45:40Z</time>
      </trkpt>
      <trkpt lat="47.79147" lon="6.55675">
        <ele>455.9</ele>
        <time>2020-09-06T19:45:40Z</time>
      </trkpt>
      <trkpt lat="47.79144" lon="6.55682">
        <ele>455.8</ele>
        <time>2020-09-06T19:45:40Z</time>
      </trkpt>
      <trkpt lat="47.79137" lon="6.55693">
        <ele>455.4</ele>
        <time>2020-09-06T19:45:40Z</time>
      </trkpt>
      <trkpt lat="47.79123" lon="6.55709">
        <ele>455</ele>
        <time>2020-09-06T19:45:40Z</time>
      </trkpt>
      <trkpt lat="47.79105" lon="6.55731">
        <ele>454.2</ele>
        <time>2020-09-06T19:45:40Z</time>
      </trkpt>
      <trkpt lat="47.79077" lon="6.55767">
        <ele>453.1</ele>
        <time>2020-09-06T19:45:40Z</time>
      </trkpt>
      <trkpt lat="47.79065" lon="6.55782">
        <ele>453</ele>
        <time>2020-09-06T19:45:40Z</time>
      </trkpt>
      <trkpt lat="47.79047" lon="6.55807">
        <ele>453.1</ele>
        <time>2020-09-06T19:45:40Z</time>
      </trkpt>
      <trkpt lat="47.79044" lon="6.55813">
        <ele>453.2</ele>
        <time>2020-09-06T19:45:40Z</time>
      </trkpt>
      <trkpt lat="47.79044" lon="6.55823">
        <ele>452.8</ele>
        <time>2020-09-06T19:45:40Z</time>
      </trkpt>
      <trkpt lat="47.79042" lon="6.55836">
        <ele>452.2</ele>
        <time>2020-09-06T19:45:40Z</time>
      </trkpt>
      <trkpt lat="47.79041" lon="6.55843">
        <ele>452</ele>
        <time>2020-09-06T19:45:40Z</time>
      </trkpt>
      <trkpt lat="47.79048" lon="6.55853">
        <ele>451.8</ele>
        <time>2020-09-06T19:45:40Z</time>
      </trkpt>
      <trkpt lat="47.79076" lon="6.55913">
        <ele>452</ele>
        <time>2020-09-06T19:45:40Z</time>
      </trkpt>
      <trkpt lat="47.79098" lon="6.55974">
        <ele>452.2</ele>
        <time>2020-09-06T19:45:40Z</time>
      </trkpt>
      <trkpt lat="47.79103" lon="6.55989">
        <ele>452.3</ele>
        <time>2020-09-06T19:45:40Z</time>
      </trkpt>
      <trkpt lat="47.79107" lon="6.55998">
        <ele>452.3</ele>
        <time>2020-09-06T19:45:40Z</time>
      </trkpt>
      <trkpt lat="47.79114" lon="6.5601">
        <ele>452.6</ele>
        <time>2020-09-06T19:45:40Z</time>
      </trkpt>
      <trkpt lat="47.79123" lon="6.56023">
        <ele>452.5</ele>
        <time>2020-09-06T19:45:40Z</time>
      </trkpt>
      <trkpt lat="47.79133" lon="6.56038">
        <ele>452.4</ele>
        <time>2020-09-06T19:45:40Z</time>
      </trkpt>
      <trkpt lat="47.79141" lon="6.5605">
        <ele>452.4</ele>
        <time>2020-09-06T19:45:40Z</time>
      </trkpt>
      <trkpt lat="47.79153" lon="6.56067">
        <ele>452.6</ele>
        <time>2020-09-06T19:45:40Z</time>
      </trkpt>
      <trkpt lat="47.79162" lon="6.56079">
        <ele>452.8</ele>
        <time>2020-09-06T19:45:40Z</time>
      </trkpt>
      <trkpt lat="47.79169" lon="6.56087">
        <ele>453.2</ele>
        <time>2020-09-06T19:45:40Z</time>
      </trkpt>
      <trkpt lat="47.79174" lon="6.56094">
        <ele>453.4</ele>
        <time>2020-09-06T19:45:40Z</time>
      </trkpt>
      <trkpt lat="47.7918" lon="6.56101">
        <ele>453.8</ele>
        <time>2020-09-06T19:45:40Z</time>
      </trkpt>
      <trkpt lat="47.79188" lon="6.56109">
        <ele>454.3</ele>
        <time>2020-09-06T19:45:40Z</time>
      </trkpt>
      <trkpt lat="47.79193" lon="6.56116">
        <ele>454.6</ele>
        <time>2020-09-06T19:45:40Z</time>
      </trkpt>
      <trkpt lat="47.79199" lon="6.56125">
        <ele>454.7</ele>
        <time>2020-09-06T19:45:40Z</time>
      </trkpt>
      <trkpt lat="47.79207" lon="6.5614">
        <ele>455</ele>
        <time>2020-09-06T19:45:40Z</time>
      </trkpt>
      <trkpt lat="47.79211" lon="6.5615">
        <ele>455.7</ele>
        <time>2020-09-06T19:45:40Z</time>
      </trkpt>
      <trkpt lat="47.79214" lon="6.56158">
        <ele>455.4</ele>
        <time>2020-09-06T19:45:40Z</time>
      </trkpt>
      <trkpt lat="47.79218" lon="6.56171">
        <ele>455.7</ele>
        <time>2020-09-06T19:45:40Z</time>
      </trkpt>
      <trkpt lat="47.79222" lon="6.56187">
        <ele>456.1</ele>
        <time>2020-09-06T19:45:40Z</time>
      </trkpt>
      <trkpt lat="47.79225" lon="6.56196">
        <ele>456.1</ele>
        <time>2020-09-06T19:45:40Z</time>
      </trkpt>
      <trkpt lat="47.79235" lon="6.56221">
        <ele>455.8</ele>
        <time>2020-09-06T19:45:40Z</time>
      </trkpt>
      <trkpt lat="47.79239" lon="6.56234">
        <ele>455.6</ele>
        <time>2020-09-06T19:45:40Z</time>
      </trkpt>
      <trkpt lat="47.79236" lon="6.56242">
        <ele>455.9</ele>
        <time>2020-09-06T19:45:40Z</time>
      </trkpt>
      <trkpt lat="47.79229" lon="6.56253">
        <ele>456.3</ele>
        <time>2020-09-06T19:45:40Z</time>
      </trkpt>
      <trkpt lat="47.79235" lon="6.56262">
        <ele>456.2</ele>
        <time>2020-09-06T19:45:40Z</time>
      </trkpt>
      <trkpt lat="47.79242" lon="6.56279">
        <ele>456.1</ele>
        <time>2020-09-06T19:45:40Z</time>
      </trkpt>
      <trkpt lat="47.79248" lon="6.56291">
        <ele>456.1</ele>
        <time>2020-09-06T19:45:40Z</time>
      </trkpt>
      <trkpt lat="47.79254" lon="6.56301">
        <ele>456.1</ele>
        <time>2020-09-06T19:45:40Z</time>
      </trkpt>
      <trkpt lat="47.79258" lon="6.56306">
        <ele>456.2</ele>
        <time>2020-09-06T19:45:40Z</time>
      </trkpt>
      <trkpt lat="47.79263" lon="6.5631">
        <ele>456.2</ele>
        <time>2020-09-06T19:45:40Z</time>
      </trkpt>
      <trkpt lat="47.79268" lon="6.56314">
        <ele>456.2</ele>
        <time>2020-09-06T19:45:40Z</time>
      </trkpt>
      <trkpt lat="47.79275" lon="6.56317">
        <ele>456.2</ele>
        <time>2020-09-06T19:45:40Z</time>
      </trkpt>
      <trkpt lat="47.79281" lon="6.56318">
        <ele>456.3</ele>
        <time>2020-09-06T19:45:40Z</time>
      </trkpt>
      <trkpt lat="47.79292" lon="6.5632">
        <ele>456.3</ele>
        <time>2020-09-06T19:45:40Z</time>
      </trkpt>
      <trkpt lat="47.79305" lon="6.56322">
        <ele>456.6</ele>
        <time>2020-09-06T19:45:40Z</time>
      </trkpt>
      <trkpt lat="47.79331" lon="6.56324">
        <ele>456.1</ele>
        <time>2020-09-06T19:45:40Z</time>
      </trkpt>
      <trkpt lat="47.79341" lon="6.56326">
        <ele>455.8</ele>
        <time>2020-09-06T19:45:40Z</time>
      </trkpt>
      <trkpt lat="47.79346" lon="6.56327">
        <ele>455.5</ele>
        <time>2020-09-06T19:45:40Z</time>
      </trkpt>
      <trkpt lat="47.79356" lon="6.56336">
        <ele>454.9</ele>
        <time>2020-09-06T19:45:40Z</time>
      </trkpt>
      <trkpt lat="47.79367" lon="6.56351">
        <ele>454</ele>
        <time>2020-09-06T19:45:40Z</time>
      </trkpt>
      <trkpt lat="47.7938" lon="6.56369">
        <ele>453.2</ele>
        <time>2020-09-06T19:45:40Z</time>
      </trkpt>
      <trkpt lat="47.79388" lon="6.5638">
        <ele>452.8</ele>
        <time>2020-09-06T19:45:40Z</time>
      </trkpt>
      <trkpt lat="47.79395" lon="6.5639">
        <ele>452.5</ele>
        <time>2020-09-06T19:45:40Z</time>
      </trkpt>
      <trkpt lat="47.79401" lon="6.56395">
        <ele>452</ele>
        <time>2020-09-06T19:45:40Z</time>
      </trkpt>
      <trkpt lat="47.7941" lon="6.56402">
        <ele>451.6</ele>
        <time>2020-09-06T19:45:40Z</time>
      </trkpt>
      <trkpt lat="47.79421" lon="6.56408">
        <ele>451.4</ele>
        <time>2020-09-06T19:45:40Z</time>
      </trkpt>
      <trkpt lat="47.79428" lon="6.5641">
        <ele>451.4</ele>
        <time>2020-09-06T19:45:40Z</time>
      </trkpt>
      <trkpt lat="47.79437" lon="6.56413">
        <ele>451.6</ele>
        <time>2020-09-06T19:45:40Z</time>
      </trkpt>
      <trkpt lat="47.79444" lon="6.56415">
        <ele>451.8</ele>
        <time>2020-09-06T19:45:40Z</time>
      </trkpt>
      <trkpt lat="47.79455" lon="6.56417">
        <ele>452.1</ele>
        <time>2020-09-06T19:45:40Z</time>
      </trkpt>
      <trkpt lat="47.79464" lon="6.56418">
        <ele>452.6</ele>
        <time>2020-09-06T19:45:40Z</time>
      </trkpt>
      <trkpt lat="47.79468" lon="6.56417">
        <ele>452.8</ele>
        <time>2020-09-06T19:45:40Z</time>
      </trkpt>
      <trkpt lat="47.79473" lon="6.56417">
        <ele>453</ele>
        <time>2020-09-06T19:45:40Z</time>
      </trkpt>
      <trkpt lat="47.79478" lon="6.56415">
        <ele>453.4</ele>
        <time>2020-09-06T19:45:40Z</time>
      </trkpt>
      <trkpt lat="47.7949" lon="6.5641">
        <ele>453.9</ele>
        <time>2020-09-06T19:45:40Z</time>
      </trkpt>
      <trkpt lat="47.79496" lon="6.56406">
        <ele>454.4</ele>
        <time>2020-09-06T19:45:40Z</time>
      </trkpt>
      <trkpt lat="47.7952" lon="6.56388">
        <ele>455.7</ele>
        <time>2020-09-06T19:45:40Z</time>
      </trkpt>
      <trkpt lat="47.79527" lon="6.56383">
        <ele>456.1</ele>
        <time>2020-09-06T19:45:40Z</time>
      </trkpt>
      <trkpt lat="47.79536" lon="6.56377">
        <ele>456.4</ele>
        <time>2020-09-06T19:45:40Z</time>
      </trkpt>
      <trkpt lat="47.79545" lon="6.56372">
        <ele>456.4</ele>
        <time>2020-09-06T19:45:40Z</time>
      </trkpt>
      <trkpt lat="47.7956" lon="6.56369">
        <ele>456.1</ele>
        <time>2020-09-06T19:45:40Z</time>
      </trkpt>
      <trkpt lat="47.79582" lon="6.56367">
        <ele>455.5</ele>
        <time>2020-09-06T19:45:40Z</time>
      </trkpt>
      <trkpt lat="47.79598" lon="6.56363">
        <ele>454.7</ele>
        <time>2020-09-06T19:45:40Z</time>
      </trkpt>
      <trkpt lat="47.79609" lon="6.56357">
        <ele>454.2</ele>
        <time>2020-09-06T19:45:40Z</time>
      </trkpt>
      <trkpt lat="47.79619" lon="6.56351">
        <ele>453.6</ele>
        <time>2020-09-06T19:45:40Z</time>
      </trkpt>
      <trkpt lat="47.79633" lon="6.56337">
        <ele>452.5</ele>
        <time>2020-09-06T19:45:40Z</time>
      </trkpt>
      <trkpt lat="47.79654" lon="6.56313">
        <ele>450.9</ele>
        <time>2020-09-06T19:45:41Z</time>
      </trkpt>
      <trkpt lat="47.79677" lon="6.56288">
        <ele>449.5</ele>
        <time>2020-09-06T19:45:41Z</time>
      </trkpt>
      <trkpt lat="47.79698" lon="6.56267">
        <ele>448.7</ele>
        <time>2020-09-06T19:45:41Z</time>
      </trkpt>
      <trkpt lat="47.79723" lon="6.56246">
        <ele>448.2</ele>
        <time>2020-09-06T19:45:41Z</time>
      </trkpt>
      <trkpt lat="47.79738" lon="6.56239">
        <ele>447.9</ele>
        <time>2020-09-06T19:45:41Z</time>
      </trkpt>
      <trkpt lat="47.7975" lon="6.56237">
        <ele>447.5</ele>
        <time>2020-09-06T19:45:41Z</time>
      </trkpt>
      <trkpt lat="47.79762" lon="6.56239">
        <ele>447.2</ele>
        <time>2020-09-06T19:45:41Z</time>
      </trkpt>
      <trkpt lat="47.79785" lon="6.56247">
        <ele>446.2</ele>
        <time>2020-09-06T19:45:41Z</time>
      </trkpt>
      <trkpt lat="47.79809" lon="6.56257">
        <ele>445.5</ele>
        <time>2020-09-06T19:45:41Z</time>
      </trkpt>
      <trkpt lat="47.79827" lon="6.56263">
        <ele>445.5</ele>
        <time>2020-09-06T19:45:41Z</time>
      </trkpt>
      <trkpt lat="47.79839" lon="6.56267">
        <ele>445.8</ele>
        <time>2020-09-06T19:45:41Z</time>
      </trkpt>
      <trkpt lat="47.79848" lon="6.56268">
        <ele>446.1</ele>
        <time>2020-09-06T19:45:41Z</time>
      </trkpt>
      <trkpt lat="47.79863" lon="6.56267">
        <ele>446.5</ele>
        <time>2020-09-06T19:45:41Z</time>
      </trkpt>
      <trkpt lat="47.79917" lon="6.56262">
        <ele>448</ele>
        <time>2020-09-06T19:45:41Z</time>
      </trkpt>
      <trkpt lat="47.79932" lon="6.56261">
        <ele>448.5</ele>
        <time>2020-09-06T19:45:41Z</time>
      </trkpt>
      <trkpt lat="47.79971" lon="6.56256">
        <ele>449.7</ele>
        <time>2020-09-06T19:45:41Z</time>
      </trkpt>
      <trkpt lat="47.80001" lon="6.56256">
        <ele>450.2</ele>
        <time>2020-09-06T19:45:41Z</time>
      </trkpt>
      <trkpt lat="47.80027" lon="6.5626">
        <ele>448.9</ele>
        <time>2020-09-06T19:45:41Z</time>
      </trkpt>
      <trkpt lat="47.80052" lon="6.5626">
        <ele>448</ele>
        <time>2020-09-06T19:45:41Z</time>
      </trkpt>
      <trkpt lat="47.80062" lon="6.56256">
        <ele>447.6</ele>
        <time>2020-09-06T19:45:41Z</time>
      </trkpt>
      <trkpt lat="47.80078" lon="6.56247">
        <ele>447.3</ele>
        <time>2020-09-06T19:45:41Z</time>
      </trkpt>
      <trkpt lat="47.801" lon="6.56229">
        <ele>446.8</ele>
        <time>2020-09-06T19:45:41Z</time>
      </trkpt>
      <trkpt lat="47.80126" lon="6.56207">
        <ele>447</ele>
        <time>2020-09-06T19:45:41Z</time>
      </trkpt>
      <trkpt lat="47.80134" lon="6.56198">
        <ele>447.1</ele>
        <time>2020-09-06T19:45:41Z</time>
      </trkpt>
      <trkpt lat="47.80142" lon="6.56184">
        <ele>447</ele>
        <time>2020-09-06T19:45:41Z</time>
      </trkpt>
      <trkpt lat="47.80157" lon="6.56144">
        <ele>446.5</ele>
        <time>2020-09-06T19:45:41Z</time>
      </trkpt>
      <trkpt lat="47.80174" lon="6.56089">
        <ele>446.7</ele>
        <time>2020-09-06T19:45:41Z</time>
      </trkpt>
      <trkpt lat="47.80195" lon="6.56024">
        <ele>447.7</ele>
        <time>2020-09-06T19:45:41Z</time>
      </trkpt>
      <trkpt lat="47.80204" lon="6.55997">
        <ele>448.5</ele>
        <time>2020-09-06T19:45:41Z</time>
      </trkpt>
      <trkpt lat="47.80211" lon="6.55981">
        <ele>449.1</ele>
        <time>2020-09-06T19:45:41Z</time>
      </trkpt>
      <trkpt lat="47.80222" lon="6.55966">
        <ele>449.7</ele>
        <time>2020-09-06T19:45:41Z</time>
      </trkpt>
      <trkpt lat="47.80232" lon="6.55955">
        <ele>450.5</ele>
        <time>2020-09-06T19:45:41Z</time>
      </trkpt>
      <trkpt lat="47.80243" lon="6.55952">
        <ele>451.3</ele>
        <time>2020-09-06T19:45:41Z</time>
      </trkpt>
      <trkpt lat="47.80251" lon="6.55952">
        <ele>451.8</ele>
        <time>2020-09-06T19:45:41Z</time>
      </trkpt>
      <trkpt lat="47.80262" lon="6.55959">
        <ele>452.2</ele>
        <time>2020-09-06T19:45:41Z</time>
      </trkpt>
      <trkpt lat="47.80275" lon="6.55977">
        <ele>453.1</ele>
        <time>2020-09-06T19:45:41Z</time>
      </trkpt>
      <trkpt lat="47.80295" lon="6.56013">
        <ele>454.7</ele>
        <time>2020-09-06T19:45:41Z</time>
      </trkpt>
      <trkpt lat="47.80313" lon="6.56041">
        <ele>455.9</ele>
        <time>2020-09-06T19:45:41Z</time>
      </trkpt>
      <trkpt lat="47.80333" lon="6.56068">
        <ele>457.6</ele>
        <time>2020-09-06T19:45:41Z</time>
      </trkpt>
      <trkpt lat="47.8035" lon="6.56091">
        <ele>458.8</ele>
        <time>2020-09-06T19:45:41Z</time>
      </trkpt>
      <trkpt lat="47.80387" lon="6.56135">
        <ele>460.9</ele>
        <time>2020-09-06T19:45:41Z</time>
      </trkpt>
      <trkpt lat="47.80409" lon="6.56157">
        <ele>462.4</ele>
        <time>2020-09-06T19:45:41Z</time>
      </trkpt>
      <trkpt lat="47.8042" lon="6.56163">
        <ele>462.9</ele>
        <time>2020-09-06T19:45:41Z</time>
      </trkpt>
      <trkpt lat="47.80429" lon="6.56164">
        <ele>463.2</ele>
        <time>2020-09-06T19:45:41Z</time>
      </trkpt>
      <trkpt lat="47.80433" lon="6.56163">
        <ele>463.2</ele>
        <time>2020-09-06T19:45:41Z</time>
      </trkpt>
      <trkpt lat="47.80442" lon="6.5616">
        <ele>463.3</ele>
        <time>2020-09-06T19:45:41Z</time>
      </trkpt>
      <trkpt lat="47.80461" lon="6.5615">
        <ele>463.3</ele>
        <time>2020-09-06T19:45:41Z</time>
      </trkpt>
      <trkpt lat="47.8051" lon="6.56124">
        <ele>464.1</ele>
        <time>2020-09-06T19:45:41Z</time>
      </trkpt>
      <trkpt lat="47.80565" lon="6.56095">
        <ele>464.5</ele>
        <time>2020-09-06T19:45:41Z</time>
      </trkpt>
      <trkpt lat="47.8059" lon="6.56081">
        <ele>464.6</ele>
        <time>2020-09-06T19:45:41Z</time>
      </trkpt>
      <trkpt lat="47.80599" lon="6.56074">
        <ele>464.5</ele>
        <time>2020-09-06T19:45:41Z</time>
      </trkpt>
      <trkpt lat="47.80606" lon="6.56069">
        <ele>464.4</ele>
        <time>2020-09-06T19:45:41Z</time>
      </trkpt>
      <trkpt lat="47.80624" lon="6.56051">
        <ele>464.2</ele>
        <time>2020-09-06T19:45:41Z</time>
      </trkpt>
      <trkpt lat="47.80641" lon="6.56027">
        <ele>464.2</ele>
        <time>2020-09-06T19:45:41Z</time>
      </trkpt>
      <trkpt lat="47.80657" lon="6.56007">
        <ele>463.6</ele>
        <time>2020-09-06T19:45:41Z</time>
      </trkpt>
      <trkpt lat="47.80674" lon="6.55987">
        <ele>462.4</ele>
        <time>2020-09-06T19:45:41Z</time>
      </trkpt>
      <trkpt lat="47.80697" lon="6.55958">
        <ele>460.7</ele>
        <time>2020-09-06T19:45:41Z</time>
      </trkpt>
      <trkpt lat="47.80708" lon="6.55941">
        <ele>459.8</ele>
        <time>2020-09-06T19:45:41Z</time>
      </trkpt>
      <trkpt lat="47.80715" lon="6.55923">
        <ele>459.1</ele>
        <time>2020-09-06T19:45:41Z</time>
      </trkpt>
      <trkpt lat="47.80716" lon="6.55905">
        <ele>458.1</ele>
        <time>2020-09-06T19:45:41Z</time>
      </trkpt>
      <trkpt lat="47.80714" lon="6.55882">
        <ele>457.3</ele>
        <time>2020-09-06T19:45:41Z</time>
      </trkpt>
      <trkpt lat="47.80708" lon="6.55843">
        <ele>455.6</ele>
        <time>2020-09-06T19:45:41Z</time>
      </trkpt>
      <trkpt lat="47.80705" lon="6.55813">
        <ele>454.5</ele>
        <time>2020-09-06T19:45:41Z</time>
      </trkpt>
      <trkpt lat="47.80705" lon="6.55793">
        <ele>453.8</ele>
        <time>2020-09-06T19:45:41Z</time>
      </trkpt>
      <trkpt lat="47.80709" lon="6.55781">
        <ele>453.5</ele>
        <time>2020-09-06T19:45:41Z</time>
      </trkpt>
      <trkpt lat="47.80718" lon="6.55766">
        <ele>452.4</ele>
        <time>2020-09-06T19:45:41Z</time>
      </trkpt>
      <trkpt lat="47.8073" lon="6.55752">
        <ele>451.8</ele>
        <time>2020-09-06T19:45:41Z</time>
      </trkpt>
      <trkpt lat="47.80747" lon="6.55742">
        <ele>451</ele>
        <time>2020-09-06T19:45:41Z</time>
      </trkpt>
      <trkpt lat="47.80762" lon="6.5573">
        <ele>450.5</ele>
        <time>2020-09-06T19:45:41Z</time>
      </trkpt>
      <trkpt lat="47.80776" lon="6.55713">
        <ele>450.1</ele>
        <time>2020-09-06T19:45:41Z</time>
      </trkpt>
      <trkpt lat="47.80789" lon="6.55698">
        <ele>449.8</ele>
        <time>2020-09-06T19:45:41Z</time>
      </trkpt>
      <trkpt lat="47.808" lon="6.55676">
        <ele>449.1</ele>
        <time>2020-09-06T19:45:41Z</time>
      </trkpt>
      <trkpt lat="47.80811" lon="6.55648">
        <ele>448.1</ele>
        <time>2020-09-06T19:45:41Z</time>
      </trkpt>
      <trkpt lat="47.80816" lon="6.55627">
        <ele>447</ele>
        <time>2020-09-06T19:45:41Z</time>
      </trkpt>
      <trkpt lat="47.8082" lon="6.55604">
        <ele>446</ele>
        <time>2020-09-06T19:45:41Z</time>
      </trkpt>
      <trkpt lat="47.80822" lon="6.5558">
        <ele>445.1</ele>
        <time>2020-09-06T19:45:41Z</time>
      </trkpt>
      <trkpt lat="47.80824" lon="6.5556">
        <ele>444.7</ele>
        <time>2020-09-06T19:45:41Z</time>
      </trkpt>
      <trkpt lat="47.80826" lon="6.55548">
        <ele>444.9</ele>
        <time>2020-09-06T19:45:41Z</time>
      </trkpt>
      <trkpt lat="47.80833" lon="6.55536">
        <ele>445.2</ele>
        <time>2020-09-06T19:45:41Z</time>
      </trkpt>
      <trkpt lat="47.80849" lon="6.55516">
        <ele>445.4</ele>
        <time>2020-09-06T19:45:41Z</time>
      </trkpt>
      <trkpt lat="47.80866" lon="6.55492">
        <ele>446.1</ele>
        <time>2020-09-06T19:45:41Z</time>
      </trkpt>
      <trkpt lat="47.80877" lon="6.55475">
        <ele>446.9</ele>
        <time>2020-09-06T19:45:41Z</time>
      </trkpt>
      <trkpt lat="47.8088" lon="6.55465">
        <ele>446.9</ele>
        <time>2020-09-06T19:45:41Z</time>
      </trkpt>
      <trkpt lat="47.80882" lon="6.55457">
        <ele>447.2</ele>
        <time>2020-09-06T19:45:41Z</time>
      </trkpt>
      <trkpt lat="47.80882" lon="6.55449">
        <ele>447.3</ele>
        <time>2020-09-06T19:45:41Z</time>
      </trkpt>
      <trkpt lat="47.8088" lon="6.55377">
        <ele>445.9</ele>
        <time>2020-09-06T19:45:41Z</time>
      </trkpt>
      <trkpt lat="47.80881" lon="6.55361">
        <ele>445.4</ele>
        <time>2020-09-06T19:45:41Z</time>
      </trkpt>
      <trkpt lat="47.80886" lon="6.55326">
        <ele>445</ele>
        <time>2020-09-06T19:45:41Z</time>
      </trkpt>
      <trkpt lat="47.80894" lon="6.55282">
        <ele>443.9</ele>
        <time>2020-09-06T19:45:41Z</time>
      </trkpt>
      <trkpt lat="47.80906" lon="6.55245">
        <ele>443.2</ele>
        <time>2020-09-06T19:45:41Z</time>
      </trkpt>
      <trkpt lat="47.80931" lon="6.55181">
        <ele>441</ele>
        <time>2020-09-06T19:45:41Z</time>
      </trkpt>
      <trkpt lat="47.80945" lon="6.55146">
        <ele>440.1</ele>
        <time>2020-09-06T19:45:41Z</time>
      </trkpt>
      <trkpt lat="47.8097" lon="6.5511">
        <ele>438.9</ele>
        <time>2020-09-06T19:45:41Z</time>
      </trkpt>
      <trkpt lat="47.80996" lon="6.55077">
        <ele>437.7</ele>
        <time>2020-09-06T19:45:41Z</time>
      </trkpt>
      <trkpt lat="47.81024" lon="6.55047">
        <ele>438.1</ele>
        <time>2020-09-06T19:45:41Z</time>
      </trkpt>
      <trkpt lat="47.81045" lon="6.55038">
        <ele>438.5</ele>
        <time>2020-09-06T19:45:41Z</time>
      </trkpt>
      <trkpt lat="47.81061" lon="6.55036">
        <ele>438.7</ele>
        <time>2020-09-06T19:45:41Z</time>
      </trkpt>
      <trkpt lat="47.81079" lon="6.5504">
        <ele>438.6</ele>
        <time>2020-09-06T19:45:41Z</time>
      </trkpt>
      <trkpt lat="47.811" lon="6.55055">
        <ele>437.8</ele>
        <time>2020-09-06T19:45:41Z</time>
      </trkpt>
      <trkpt lat="47.81126" lon="6.55085">
        <ele>436.6</ele>
        <time>2020-09-06T19:45:41Z</time>
      </trkpt>
      <trkpt lat="47.81137" lon="6.55102">
        <ele>436</ele>
        <time>2020-09-06T19:45:41Z</time>
      </trkpt>
      <trkpt lat="47.81141" lon="6.5511">
        <ele>435.7</ele>
        <time>2020-09-06T19:45:41Z</time>
      </trkpt>
      <trkpt lat="47.81138" lon="6.55128">
        <ele>435</ele>
        <time>2020-09-06T19:45:41Z</time>
      </trkpt>
      <trkpt lat="47.81135" lon="6.55144">
        <ele>434.4</ele>
        <time>2020-09-06T19:45:41Z</time>
      </trkpt>
      <trkpt lat="47.81138" lon="6.55165">
        <ele>432.7</ele>
        <time>2020-09-06T19:45:41Z</time>
      </trkpt>
      <trkpt lat="47.81141" lon="6.55179">
        <ele>433</ele>
        <time>2020-09-06T19:45:41Z</time>
      </trkpt>
      <trkpt lat="47.81149" lon="6.55193">
        <ele>432</ele>
        <time>2020-09-06T19:45:41Z</time>
      </trkpt>
      <trkpt lat="47.81164" lon="6.55206">
        <ele>431.7</ele>
        <time>2020-09-06T19:45:41Z</time>
      </trkpt>
      <trkpt lat="47.8118" lon="6.55212">
        <ele>431.1</ele>
        <time>2020-09-06T19:45:41Z</time>
      </trkpt>
      <trkpt lat="47.81195" lon="6.55215">
        <ele>430.4</ele>
        <time>2020-09-06T19:45:41Z</time>
      </trkpt>
      <trkpt lat="47.81209" lon="6.55207">
        <ele>431.5</ele>
        <time>2020-09-06T19:45:41Z</time>
      </trkpt>
      <trkpt lat="47.81221" lon="6.55196">
        <ele>430.9</ele>
        <time>2020-09-06T19:45:41Z</time>
      </trkpt>
      <trkpt lat="47.81227" lon="6.55184">
        <ele>431.2</ele>
        <time>2020-09-06T19:45:41Z</time>
      </trkpt>
      <trkpt lat="47.81229" lon="6.55169">
        <ele>430</ele>
        <time>2020-09-06T19:45:41Z</time>
      </trkpt>
      <trkpt lat="47.8123" lon="6.55143">
        <ele>429.6</ele>
        <time>2020-09-06T19:45:41Z</time>
      </trkpt>
      <trkpt lat="47.81232" lon="6.55123">
        <ele>428.2</ele>
        <time>2020-09-06T19:45:41Z</time>
      </trkpt>
      <trkpt lat="47.81235" lon="6.55103">
        <ele>426.1</ele>
        <time>2020-09-06T19:45:41Z</time>
      </trkpt>
      <trkpt lat="47.8124" lon="6.55088">
        <ele>425.5</ele>
        <time>2020-09-06T19:45:41Z</time>
      </trkpt>
      <trkpt lat="47.81246" lon="6.55076">
        <ele>424.7</ele>
        <time>2020-09-06T19:45:41Z</time>
      </trkpt>
      <trkpt lat="47.81254" lon="6.55065">
        <ele>424.6</ele>
        <time>2020-09-06T19:45:41Z</time>
      </trkpt>
      <trkpt lat="47.81264" lon="6.5506">
        <ele>423.7</ele>
        <time>2020-09-06T19:45:41Z</time>
      </trkpt>
      <trkpt lat="47.81272" lon="6.55059">
        <ele>423.5</ele>
        <time>2020-09-06T19:45:41Z</time>
      </trkpt>
      <trkpt lat="47.81283" lon="6.55062">
        <ele>423</ele>
        <time>2020-09-06T19:45:41Z</time>
      </trkpt>
      <trkpt lat="47.81293" lon="6.55067">
        <ele>422.7</ele>
        <time>2020-09-06T19:45:41Z</time>
      </trkpt>
      <trkpt lat="47.81303" lon="6.5508">
        <ele>422</ele>
        <time>2020-09-06T19:45:41Z</time>
      </trkpt>
      <trkpt lat="47.81326" lon="6.55113">
        <ele>420.4</ele>
        <time>2020-09-06T19:45:41Z</time>
      </trkpt>
      <trkpt lat="47.81387" lon="6.55202">
        <ele>415.7</ele>
        <time>2020-09-06T19:45:41Z</time>
      </trkpt>
      <trkpt lat="47.81442" lon="6.55276">
        <ele>412.4</ele>
        <time>2020-09-06T19:45:41Z</time>
      </trkpt>
      <trkpt lat="47.81473" lon="6.55317">
        <ele>410.3</ele>
        <time>2020-09-06T19:45:41Z</time>
      </trkpt>
      <trkpt lat="47.81508" lon="6.55372">
        <ele>407.7</ele>
        <time>2020-09-06T19:45:41Z</time>
      </trkpt>
      <trkpt lat="47.81535" lon="6.55412">
        <ele>405.6</ele>
        <time>2020-09-06T19:45:41Z</time>
      </trkpt>
      <trkpt lat="47.81548" lon="6.55428">
        <ele>404.9</ele>
        <time>2020-09-06T19:45:41Z</time>
      </trkpt>
      <trkpt lat="47.81558" lon="6.55436">
        <ele>404.5</ele>
        <time>2020-09-06T19:45:41Z</time>
      </trkpt>
      <trkpt lat="47.81573" lon="6.55443">
        <ele>403.6</ele>
        <time>2020-09-06T19:45:41Z</time>
      </trkpt>
      <trkpt lat="47.81587" lon="6.55447">
        <ele>402.8</ele>
        <time>2020-09-06T19:45:41Z</time>
      </trkpt>
      <trkpt lat="47.81599" lon="6.55447">
        <ele>402.1</ele>
        <time>2020-09-06T19:45:41Z</time>
      </trkpt>
      <trkpt lat="47.81612" lon="6.55446">
        <ele>401.4</ele>
        <time>2020-09-06T19:45:41Z</time>
      </trkpt>
      <trkpt lat="47.81624" lon="6.55442">
        <ele>400.6</ele>
        <time>2020-09-06T19:45:41Z</time>
      </trkpt>
      <trkpt lat="47.8166" lon="6.55431">
        <ele>398.7</ele>
        <time>2020-09-06T19:45:41Z</time>
      </trkpt>
      <trkpt lat="47.81671" lon="6.55427">
        <ele>398.2</ele>
        <time>2020-09-06T19:45:41Z</time>
      </trkpt>
      <trkpt lat="47.81708" lon="6.55417">
        <ele>396.5</ele>
        <time>2020-09-06T19:45:41Z</time>
      </trkpt>
      <trkpt lat="47.81736" lon="6.5541">
        <ele>394.8</ele>
        <time>2020-09-06T19:45:41Z</time>
      </trkpt>
      <trkpt lat="47.81748" lon="6.55405">
        <ele>394.1</ele>
        <time>2020-09-06T19:45:41Z</time>
      </trkpt>
      <trkpt lat="47.81755" lon="6.55402">
        <ele>393.8</ele>
        <time>2020-09-06T19:45:41Z</time>
      </trkpt>
      <trkpt lat="47.81774" lon="6.55396">
        <ele>392.9</ele>
        <time>2020-09-06T19:45:41Z</time>
      </trkpt>
      <trkpt lat="47.81793" lon="6.55391">
        <ele>392.2</ele>
        <time>2020-09-06T19:45:41Z</time>
      </trkpt>
      <trkpt lat="47.81805" lon="6.5539">
        <ele>391.5</ele>
        <time>2020-09-06T19:45:41Z</time>
      </trkpt>
      <trkpt lat="47.81816" lon="6.55389">
        <ele>391.1</ele>
        <time>2020-09-06T19:45:41Z</time>
      </trkpt>
      <trkpt lat="47.81835" lon="6.5539">
        <ele>389.9</ele>
        <time>2020-09-06T19:45:41Z</time>
      </trkpt>
      <trkpt lat="47.81856" lon="6.55394">
        <ele>388.6</ele>
        <time>2020-09-06T19:45:41Z</time>
      </trkpt>
      <trkpt lat="47.81891" lon="6.55401">
        <ele>386.8</ele>
        <time>2020-09-06T19:45:41Z</time>
      </trkpt>
      <trkpt lat="47.81911" lon="6.55405">
        <ele>385.6</ele>
        <time>2020-09-06T19:45:41Z</time>
      </trkpt>
      <trkpt lat="47.81923" lon="6.55406">
        <ele>385.3</ele>
        <time>2020-09-06T19:45:41Z</time>
      </trkpt>
      <trkpt lat="47.81939" lon="6.55404">
        <ele>384.5</ele>
        <time>2020-09-06T19:45:41Z</time>
      </trkpt>
      <trkpt lat="47.81958" lon="6.554">
        <ele>383.6</ele>
        <time>2020-09-06T19:45:41Z</time>
      </trkpt>
      <trkpt lat="47.81982" lon="6.55392">
        <ele>382.1</ele>
        <time>2020-09-06T19:45:41Z</time>
      </trkpt>
      <trkpt lat="47.82012" lon="6.5538">
        <ele>380.6</ele>
        <time>2020-09-06T19:45:41Z</time>
      </trkpt>
      <trkpt lat="47.82046" lon="6.55366">
        <ele>378.8</ele>
        <time>2020-09-06T19:45:41Z</time>
      </trkpt>
      <trkpt lat="47.82079" lon="6.55353">
        <ele>376.9</ele>
        <time>2020-09-06T19:45:41Z</time>
      </trkpt>
      <trkpt lat="47.82104" lon="6.55347">
        <ele>375.9</ele>
        <time>2020-09-06T19:45:41Z</time>
      </trkpt>
      <trkpt lat="47.82118" lon="6.55347">
        <ele>375</ele>
        <time>2020-09-06T19:45:41Z</time>
      </trkpt>
      <trkpt lat="47.82131" lon="6.55353">
        <ele>374.1</ele>
        <time>2020-09-06T19:45:41Z</time>
      </trkpt>
      <trkpt lat="47.82141" lon="6.55358">
        <ele>373.4</ele>
        <time>2020-09-06T19:45:41Z</time>
      </trkpt>
      <trkpt lat="47.82158" lon="6.55376">
        <ele>371.8</ele>
        <time>2020-09-06T19:45:41Z</time>
      </trkpt>
      <trkpt lat="47.82168" lon="6.55388">
        <ele>371.5</ele>
        <time>2020-09-06T19:45:41Z</time>
      </trkpt>
      <trkpt lat="47.82176" lon="6.55404">
        <ele>371</ele>
        <time>2020-09-06T19:45:41Z</time>
      </trkpt>
      <trkpt lat="47.82193" lon="6.55449">
        <ele>369.7</ele>
        <time>2020-09-06T19:45:41Z</time>
      </trkpt>
      <trkpt lat="47.8222" lon="6.55512">
        <ele>367.2</ele>
        <time>2020-09-06T19:45:41Z</time>
      </trkpt>
      <trkpt lat="47.82229" lon="6.55535">
        <ele>366.5</ele>
        <time>2020-09-06T19:45:41Z</time>
      </trkpt>
      <trkpt lat="47.82233" lon="6.55548">
        <ele>366.1</ele>
        <time>2020-09-06T19:45:41Z</time>
      </trkpt>
      <trkpt lat="47.82243" lon="6.55568">
        <ele>365.4</ele>
        <time>2020-09-06T19:45:41Z</time>
      </trkpt>
      <trkpt lat="47.82255" lon="6.55581">
        <ele>364.6</ele>
        <time>2020-09-06T19:45:41Z</time>
      </trkpt>
      <trkpt lat="47.82264" lon="6.55589">
        <ele>364.2</ele>
        <time>2020-09-06T19:45:41Z</time>
      </trkpt>
      <trkpt lat="47.82275" lon="6.55595">
        <ele>363.7</ele>
        <time>2020-09-06T19:45:41Z</time>
      </trkpt>
      <trkpt lat="47.82295" lon="6.55603">
        <ele>362.7</ele>
        <time>2020-09-06T19:45:41Z</time>
      </trkpt>
      <trkpt lat="47.82343" lon="6.5562">
        <ele>361.5</ele>
        <time>2020-09-06T19:45:41Z</time>
      </trkpt>
      <trkpt lat="47.82374" lon="6.55627">
        <ele>361.1</ele>
        <time>2020-09-06T19:45:41Z</time>
      </trkpt>
      <trkpt lat="47.82385" lon="6.5563">
        <ele>361</ele>
        <time>2020-09-06T19:45:41Z</time>
      </trkpt>
      <trkpt lat="47.82397" lon="6.5563">
        <ele>360.8</ele>
        <time>2020-09-06T19:45:41Z</time>
      </trkpt>
      <trkpt lat="47.82415" lon="6.55628">
        <ele>360.7</ele>
        <time>2020-09-06T19:45:41Z</time>
      </trkpt>
      <trkpt lat="47.82437" lon="6.55624">
        <ele>360.5</ele>
        <time>2020-09-06T19:45:41Z</time>
      </trkpt>
      <trkpt lat="47.82477" lon="6.55617">
        <ele>360.1</ele>
        <time>2020-09-06T19:45:41Z</time>
      </trkpt>
      <trkpt lat="47.82538" lon="6.55604">
        <ele>359.8</ele>
        <time>2020-09-06T19:45:41Z</time>
      </trkpt>
      <trkpt lat="47.82591" lon="6.55593">
        <ele>359.6</ele>
        <time>2020-09-06T19:45:41Z</time>
      </trkpt>
      <trkpt lat="47.82648" lon="6.55581">
        <ele>359.3</ele>
        <time>2020-09-06T19:45:41Z</time>
      </trkpt>
      <trkpt lat="47.82686" lon="6.55575">
        <ele>359.3</ele>
        <time>2020-09-06T19:45:41Z</time>
      </trkpt>
      <trkpt lat="47.8271" lon="6.55569">
        <ele>359.5</ele>
        <time>2020-09-06T19:45:41Z</time>
      </trkpt>
      <trkpt lat="47.82719" lon="6.55566">
        <ele>359.3</ele>
        <time>2020-09-06T19:45:41Z</time>
      </trkpt>
      <trkpt lat="47.82729" lon="6.55562">
        <ele>359.4</ele>
        <time>2020-09-06T19:45:41Z</time>
      </trkpt>
      <trkpt lat="47.82737" lon="6.55556">
        <ele>359.1</ele>
        <time>2020-09-06T19:45:41Z</time>
      </trkpt>
      <trkpt lat="47.82741" lon="6.55553">
        <ele>359</ele>
        <time>2020-09-06T19:45:41Z</time>
      </trkpt>
      <trkpt lat="47.8275" lon="6.55546">
        <ele>358.8</ele>
        <time>2020-09-06T19:45:41Z</time>
      </trkpt>
      <trkpt lat="47.82763" lon="6.55537">
        <ele>358.5</ele>
        <time>2020-09-06T19:45:41Z</time>
      </trkpt>
      <trkpt lat="47.82773" lon="6.55535">
        <ele>358.4</ele>
        <time>2020-09-06T19:45:41Z</time>
      </trkpt>
      <trkpt lat="47.82789" lon="6.55537">
        <ele>358.2</ele>
        <time>2020-09-06T19:45:41Z</time>
      </trkpt>
      <trkpt lat="47.828" lon="6.55543">
        <ele>358.2</ele>
        <time>2020-09-06T19:45:41Z</time>
      </trkpt>
      <trkpt lat="47.82814" lon="6.55547">
        <ele>357.8</ele>
        <time>2020-09-06T19:45:41Z</time>
      </trkpt>
      <trkpt lat="47.8282" lon="6.55547">
        <ele>357.6</ele>
        <time>2020-09-06T19:45:41Z</time>
      </trkpt>
      <trkpt lat="47.82832" lon="6.55547">
        <ele>357.2</ele>
        <time>2020-09-06T19:45:41Z</time>
      </trkpt>
      <trkpt lat="47.82841" lon="6.55543">
        <ele>357</ele>
        <time>2020-09-06T19:45:41Z</time>
      </trkpt>
      <trkpt lat="47.82863" lon="6.55534">
        <ele>356.7</ele>
        <time>2020-09-06T19:45:41Z</time>
      </trkpt>
      <trkpt lat="47.82898" lon="6.55518">
        <ele>356.4</ele>
        <time>2020-09-06T19:45:41Z</time>
      </trkpt>
      <trkpt lat="47.82932" lon="6.55505">
        <ele>356.4</ele>
        <time>2020-09-06T19:45:41Z</time>
      </trkpt>
      <trkpt lat="47.82949" lon="6.555">
        <ele>356.5</ele>
        <time>2020-09-06T19:45:41Z</time>
      </trkpt>
      <trkpt lat="47.82956" lon="6.555">
        <ele>356.5</ele>
        <time>2020-09-06T19:45:41Z</time>
      </trkpt>
      <trkpt lat="47.82964" lon="6.55503">
        <ele>356.5</ele>
        <time>2020-09-06T19:45:41Z</time>
      </trkpt>
      <trkpt lat="47.82973" lon="6.55509">
        <ele>356.5</ele>
        <time>2020-09-06T19:45:41Z</time>
      </trkpt>
      <trkpt lat="47.82986" lon="6.55523">
        <ele>356.4</ele>
        <time>2020-09-06T19:45:41Z</time>
      </trkpt>
      <trkpt lat="47.83008" lon="6.55544">
        <ele>356.4</ele>
        <time>2020-09-06T19:45:41Z</time>
      </trkpt>
      <trkpt lat="47.83043" lon="6.55577">
        <ele>356.5</ele>
        <time>2020-09-06T19:45:41Z</time>
      </trkpt>
      <trkpt lat="47.83098" lon="6.5563">
        <ele>356.9</ele>
        <time>2020-09-06T19:45:41Z</time>
      </trkpt>
      <trkpt lat="47.83157" lon="6.55683">
        <ele>357.3</ele>
        <time>2020-09-06T19:45:41Z</time>
      </trkpt>
      <trkpt lat="47.83161" lon="6.55687">
        <ele>357.3</ele>
        <time>2020-09-06T19:45:41Z</time>
      </trkpt>
      <trkpt lat="47.83209" lon="6.55736">
        <ele>357.3</ele>
        <time>2020-09-06T19:45:41Z</time>
      </trkpt>
      <trkpt lat="47.83266" lon="6.5579">
        <ele>357.4</ele>
        <time>2020-09-06T19:45:41Z</time>
      </trkpt>
      <trkpt lat="47.83323" lon="6.55844">
        <ele>357.8</ele>
        <time>2020-09-06T19:45:41Z</time>
      </trkpt>
      <trkpt lat="47.83386" lon="6.55904">
        <ele>357.9</ele>
        <time>2020-09-06T19:45:41Z</time>
      </trkpt>
      <trkpt lat="47.8342" lon="6.55936">
        <ele>358</ele>
        <time>2020-09-06T19:45:41Z</time>
      </trkpt>
      <trkpt lat="47.8346" lon="6.55974">
        <ele>358.1</ele>
        <time>2020-09-06T19:45:41Z</time>
      </trkpt>
      <trkpt lat="47.83483" lon="6.55993">
        <ele>358.2</ele>
        <time>2020-09-06T19:45:41Z</time>
      </trkpt>
      <trkpt lat="47.83502" lon="6.56008">
        <ele>358.3</ele>
        <time>2020-09-06T19:45:41Z</time>
      </trkpt>
      <trkpt lat="47.83543" lon="6.56036">
        <ele>358.5</ele>
        <time>2020-09-06T19:45:41Z</time>
      </trkpt>
      <trkpt lat="47.83591" lon="6.5607">
        <ele>358.8</ele>
        <time>2020-09-06T19:45:41Z</time>
      </trkpt>
      <trkpt lat="47.83657" lon="6.56117">
        <ele>359.2</ele>
        <time>2020-09-06T19:45:41Z</time>
      </trkpt>
      <trkpt lat="47.83704" lon="6.56151">
        <ele>359.3</ele>
        <time>2020-09-06T19:45:41Z</time>
      </trkpt>
      <trkpt lat="47.83757" lon="6.56188">
        <ele>359.4</ele>
        <time>2020-09-06T19:45:41Z</time>
      </trkpt>
      <trkpt lat="47.83783" lon="6.56207">
        <ele>359.4</ele>
        <time>2020-09-06T19:45:41Z</time>
      </trkpt>
      <trkpt lat="47.838" lon="6.5622">
        <ele>359.5</ele>
        <time>2020-09-06T19:45:41Z</time>
      </trkpt>
      <trkpt lat="47.83816" lon="6.56234">
        <ele>359.5</ele>
        <time>2020-09-06T19:45:41Z</time>
      </trkpt>
      <trkpt lat="47.83835" lon="6.56253">
        <ele>359.6</ele>
        <time>2020-09-06T19:45:41Z</time>
      </trkpt>
      <trkpt lat="47.83849" lon="6.56267">
        <ele>359.6</ele>
        <time>2020-09-06T19:45:41Z</time>
      </trkpt>
      <trkpt lat="47.83862" lon="6.56279">
        <ele>359.7</ele>
        <time>2020-09-06T19:45:41Z</time>
      </trkpt>
      <trkpt lat="47.83885" lon="6.56304">
        <ele>359.8</ele>
        <time>2020-09-06T19:45:41Z</time>
      </trkpt>
      <trkpt lat="47.83891" lon="6.56311">
        <ele>359.9</ele>
        <time>2020-09-06T19:45:41Z</time>
      </trkpt>
      <trkpt lat="47.83945" lon="6.56365">
        <ele>360.7</ele>
        <time>2020-09-06T19:45:41Z</time>
      </trkpt>
      <trkpt lat="47.83963" lon="6.56385">
        <ele>361.1</ele>
        <time>2020-09-06T19:45:41Z</time>
      </trkpt>
      <trkpt lat="47.83968" lon="6.56389">
        <ele>361.1</ele>
        <time>2020-09-06T19:45:41Z</time>
      </trkpt>
      <trkpt lat="47.83959" lon="6.564">
        <ele>361.5</ele>
        <time>2020-09-06T19:45:41Z</time>
      </trkpt>
      <trkpt lat="47.83955" lon="6.56406">
        <ele>361.7</ele>
        <time>2020-09-06T19:45:41Z</time>
      </trkpt>
      <trkpt lat="47.83948" lon="6.56416">
        <ele>361.9</ele>
        <time>2020-09-06T19:45:41Z</time>
      </trkpt>
      <trkpt lat="47.83938" lon="6.56426">
        <ele>362</ele>
        <time>2020-09-06T19:45:41Z</time>
      </trkpt>
      <trkpt lat="47.83933" lon="6.56429">
        <ele>362.1</ele>
        <time>2020-09-06T19:45:41Z</time>
      </trkpt>
      <trkpt lat="47.83927" lon="6.56431">
        <ele>361.5</ele>
        <time>2020-09-06T19:45:41Z</time>
      </trkpt>
      <trkpt lat="47.83921" lon="6.56432">
        <ele>361.4</ele>
        <time>2020-09-06T19:45:41Z</time>
      </trkpt>
      <trkpt lat="47.83907" lon="6.56433">
        <ele>361.1</ele>
        <time>2020-09-06T19:45:41Z</time>
      </trkpt>
      <trkpt lat="47.83856" lon="6.56429">
        <ele>360.2</ele>
        <time>2020-09-06T19:45:41Z</time>
      </trkpt>
      <trkpt lat="47.83839" lon="6.56426">
        <ele>360.1</ele>
        <time>2020-09-06T19:45:41Z</time>
      </trkpt>
      <trkpt lat="47.83819" lon="6.56422">
        <ele>360</ele>
        <time>2020-09-06T19:45:41Z</time>
      </trkpt>
      <trkpt lat="47.83789" lon="6.56413">
        <ele>360.1</ele>
        <time>2020-09-06T19:45:41Z</time>
      </trkpt>
      <trkpt lat="47.83768" lon="6.56402">
        <ele>360.1</ele>
        <time>2020-09-06T19:45:41Z</time>
      </trkpt>
      <trkpt lat="47.83747" lon="6.56388">
        <ele>360.4</ele>
        <time>2020-09-06T19:45:41Z</time>
      </trkpt>
      <trkpt lat="47.83728" lon="6.56371">
        <ele>360.3</ele>
        <time>2020-09-06T19:45:41Z</time>
      </trkpt>
      <trkpt lat="47.83711" lon="6.56352">
        <ele>360.3</ele>
        <time>2020-09-06T19:45:41Z</time>
      </trkpt>
      <trkpt lat="47.83696" lon="6.56329">
        <ele>360.4</ele>
        <time>2020-09-06T19:45:41Z</time>
      </trkpt>
      <trkpt lat="47.8368" lon="6.56306">
        <ele>360.5</ele>
        <time>2020-09-06T19:45:41Z</time>
      </trkpt>
      <trkpt lat="47.83666" lon="6.56288">
        <ele>360.5</ele>
        <time>2020-09-06T19:45:41Z</time>
      </trkpt>
      <trkpt lat="47.83651" lon="6.56277">
        <ele>360.6</ele>
        <time>2020-09-06T19:45:41Z</time>
      </trkpt>
      <trkpt lat="47.83635" lon="6.56274">
        <ele>360.7</ele>
        <time>2020-09-06T19:45:41Z</time>
      </trkpt>
      <trkpt lat="47.83621" lon="6.56276">
        <ele>360.8</ele>
        <time>2020-09-06T19:45:41Z</time>
      </trkpt>
      <trkpt lat="47.83609" lon="6.56286">
        <ele>360.9</ele>
        <time>2020-09-06T19:45:41Z</time>
      </trkpt>
      <trkpt lat="47.83601" lon="6.56304">
        <ele>360.9</ele>
        <time>2020-09-06T19:45:41Z</time>
      </trkpt>
      <trkpt lat="47.83594" lon="6.56326">
        <ele>361</ele>
        <time>2020-09-06T19:45:41Z</time>
      </trkpt>
      <trkpt lat="47.83592" lon="6.56348">
        <ele>361.2</ele>
        <time>2020-09-06T19:45:41Z</time>
      </trkpt>
      <trkpt lat="47.83594" lon="6.56377">
        <ele>361.4</ele>
        <time>2020-09-06T19:45:41Z</time>
      </trkpt>
      <trkpt lat="47.83593" lon="6.56407">
        <ele>361.8</ele>
        <time>2020-09-06T19:45:41Z</time>
      </trkpt>
      <trkpt lat="47.8359" lon="6.5644">
        <ele>363.1</ele>
        <time>2020-09-06T19:45:41Z</time>
      </trkpt>
      <trkpt lat="47.83585" lon="6.56464">
        <ele>364.5</ele>
        <time>2020-09-06T19:45:41Z</time>
      </trkpt>
      <trkpt lat="47.83576" lon="6.56479">
        <ele>364.5</ele>
        <time>2020-09-06T19:45:41Z</time>
      </trkpt>
      <trkpt lat="47.83559" lon="6.56501">
        <ele>364.8</ele>
        <time>2020-09-06T19:45:41Z</time>
      </trkpt>
      <trkpt lat="47.83529" lon="6.56534">
        <ele>365</ele>
        <time>2020-09-06T19:45:41Z</time>
      </trkpt>
      <trkpt lat="47.83491" lon="6.56572">
        <ele>365.6</ele>
        <time>2020-09-06T19:45:41Z</time>
      </trkpt>
      <trkpt lat="47.83478" lon="6.56589">
        <ele>366.1</ele>
        <time>2020-09-06T19:45:41Z</time>
      </trkpt>
      <trkpt lat="47.83468" lon="6.56601">
        <ele>366.3</ele>
        <time>2020-09-06T19:45:41Z</time>
      </trkpt>
      <trkpt lat="47.83456" lon="6.56618">
        <ele>366.6</ele>
        <time>2020-09-06T19:45:41Z</time>
      </trkpt>
      <trkpt lat="47.83445" lon="6.56646">
        <ele>366.7</ele>
        <time>2020-09-06T19:45:41Z</time>
      </trkpt>
      <trkpt lat="47.83438" lon="6.56667">
        <ele>367.1</ele>
        <time>2020-09-06T19:45:41Z</time>
      </trkpt>
      <trkpt lat="47.83437" lon="6.56684">
        <ele>367.8</ele>
        <time>2020-09-06T19:45:41Z</time>
      </trkpt>
      <trkpt lat="47.83441" lon="6.56703">
        <ele>368.3</ele>
        <time>2020-09-06T19:45:41Z</time>
      </trkpt>
      <trkpt lat="47.83448" lon="6.56718">
        <ele>368.6</ele>
        <time>2020-09-06T19:45:41Z</time>
      </trkpt>
      <trkpt lat="47.83463" lon="6.56736">
        <ele>369.1</ele>
        <time>2020-09-06T19:45:41Z</time>
      </trkpt>
      <trkpt lat="47.83481" lon="6.5676">
        <ele>370</ele>
        <time>2020-09-06T19:45:41Z</time>
      </trkpt>
      <trkpt lat="47.83487" lon="6.56775">
        <ele>370.5</ele>
        <time>2020-09-06T19:45:41Z</time>
      </trkpt>
      <trkpt lat="47.83493" lon="6.56794">
        <ele>371.2</ele>
        <time>2020-09-06T19:45:41Z</time>
      </trkpt>
      <trkpt lat="47.83493" lon="6.56811">
        <ele>371.9</ele>
        <time>2020-09-06T19:45:41Z</time>
      </trkpt>
      <trkpt lat="47.8349" lon="6.5683">
        <ele>372.5</ele>
        <time>2020-09-06T19:45:41Z</time>
      </trkpt>
      <trkpt lat="47.83485" lon="6.56839">
        <ele>372.9</ele>
        <time>2020-09-06T19:45:41Z</time>
      </trkpt>
      <trkpt lat="47.83477" lon="6.56847">
        <ele>373.4</ele>
        <time>2020-09-06T19:45:41Z</time>
      </trkpt>
      <trkpt lat="47.83467" lon="6.56848">
        <ele>373.9</ele>
        <time>2020-09-06T19:45:41Z</time>
      </trkpt>
      <trkpt lat="47.83454" lon="6.56844">
        <ele>374.9</ele>
        <time>2020-09-06T19:45:41Z</time>
      </trkpt>
      <trkpt lat="47.83435" lon="6.56833">
        <ele>376.3</ele>
        <time>2020-09-06T19:45:41Z</time>
      </trkpt>
      <trkpt lat="47.8342" lon="6.56827">
        <ele>377.3</ele>
        <time>2020-09-06T19:45:41Z</time>
      </trkpt>
      <trkpt lat="47.83403" lon="6.56822">
        <ele>378.5</ele>
        <time>2020-09-06T19:45:41Z</time>
      </trkpt>
      <trkpt lat="47.8339" lon="6.56823">
        <ele>379.2</ele>
        <time>2020-09-06T19:45:41Z</time>
      </trkpt>
      <trkpt lat="47.83379" lon="6.56828">
        <ele>379.7</ele>
        <time>2020-09-06T19:45:41Z</time>
      </trkpt>
      <trkpt lat="47.83371" lon="6.56838">
        <ele>380.2</ele>
        <time>2020-09-06T19:45:41Z</time>
      </trkpt>
      <trkpt lat="47.83362" lon="6.56854">
        <ele>381</ele>
        <time>2020-09-06T19:45:41Z</time>
      </trkpt>
      <trkpt lat="47.83352" lon="6.56866">
        <ele>381</ele>
        <time>2020-09-06T19:45:41Z</time>
      </trkpt>
      <trkpt lat="47.83342" lon="6.56872">
        <ele>382.3</ele>
        <time>2020-09-06T19:45:41Z</time>
      </trkpt>
      <trkpt lat="47.83329" lon="6.56872">
        <ele>383.3</ele>
        <time>2020-09-06T19:45:41Z</time>
      </trkpt>
      <trkpt lat="47.83311" lon="6.56869">
        <ele>384.1</ele>
        <time>2020-09-06T19:45:41Z</time>
      </trkpt>
      <trkpt lat="47.83299" lon="6.5687">
        <ele>385</ele>
        <time>2020-09-06T19:45:41Z</time>
      </trkpt>
      <trkpt lat="47.83292" lon="6.56874">
        <ele>385.5</ele>
        <time>2020-09-06T19:45:41Z</time>
      </trkpt>
      <trkpt lat="47.83286" lon="6.56887">
        <ele>385.8</ele>
        <time>2020-09-06T19:45:41Z</time>
      </trkpt>
      <trkpt lat="47.83279" lon="6.56916">
        <ele>387.2</ele>
        <time>2020-09-06T19:45:41Z</time>
      </trkpt>
      <trkpt lat="47.83274" lon="6.56943">
        <ele>388</ele>
        <time>2020-09-06T19:45:41Z</time>
      </trkpt>
      <trkpt lat="47.83272" lon="6.56977">
        <ele>389.4</ele>
        <time>2020-09-06T19:45:41Z</time>
      </trkpt>
      <trkpt lat="47.8327" lon="6.57007">
        <ele>390.1</ele>
        <time>2020-09-06T19:45:41Z</time>
      </trkpt>
      <trkpt lat="47.83268" lon="6.57034">
        <ele>391.5</ele>
        <time>2020-09-06T19:45:41Z</time>
      </trkpt>
      <trkpt lat="47.83262" lon="6.57054">
        <ele>391</ele>
        <time>2020-09-06T19:45:41Z</time>
      </trkpt>
      <trkpt lat="47.83251" lon="6.57073">
        <ele>392.2</ele>
        <time>2020-09-06T19:45:41Z</time>
      </trkpt>
      <trkpt lat="47.83238" lon="6.57095">
        <ele>393.9</ele>
        <time>2020-09-06T19:45:41Z</time>
      </trkpt>
      <trkpt lat="47.83231" lon="6.57112">
        <ele>394.9</ele>
        <time>2020-09-06T19:45:41Z</time>
      </trkpt>
      <trkpt lat="47.83229" lon="6.57125">
        <ele>395.3</ele>
        <time>2020-09-06T19:45:41Z</time>
      </trkpt>
      <trkpt lat="47.83231" lon="6.57136">
        <ele>395.5</ele>
        <time>2020-09-06T19:45:41Z</time>
      </trkpt>
      <trkpt lat="47.83235" lon="6.5715">
        <ele>395.9</ele>
        <time>2020-09-06T19:45:41Z</time>
      </trkpt>
      <trkpt lat="47.83243" lon="6.57169">
        <ele>396.7</ele>
        <time>2020-09-06T19:45:41Z</time>
      </trkpt>
      <trkpt lat="47.83245" lon="6.57184">
        <ele>396.8</ele>
        <time>2020-09-06T19:45:41Z</time>
      </trkpt>
      <trkpt lat="47.83243" lon="6.57201">
        <ele>397.2</ele>
        <time>2020-09-06T19:45:41Z</time>
      </trkpt>
      <trkpt lat="47.83235" lon="6.5723">
        <ele>398.5</ele>
        <time>2020-09-06T19:45:41Z</time>
      </trkpt>
      <trkpt lat="47.83222" lon="6.57261">
        <ele>399.7</ele>
        <time>2020-09-06T19:45:41Z</time>
      </trkpt>
      <trkpt lat="47.83213" lon="6.57285">
        <ele>401.7</ele>
        <time>2020-09-06T19:45:41Z</time>
      </trkpt>
      <trkpt lat="47.83208" lon="6.57309">
        <ele>402.8</ele>
        <time>2020-09-06T19:45:41Z</time>
      </trkpt>
      <trkpt lat="47.83207" lon="6.57325">
        <ele>403.3</ele>
        <time>2020-09-06T19:45:41Z</time>
      </trkpt>
      <trkpt lat="47.8321" lon="6.57345">
        <ele>404.1</ele>
        <time>2020-09-06T19:45:41Z</time>
      </trkpt>
      <trkpt lat="47.83214" lon="6.57364">
        <ele>404.7</ele>
        <time>2020-09-06T19:45:41Z</time>
      </trkpt>
      <trkpt lat="47.83219" lon="6.57381">
        <ele>405.4</ele>
        <time>2020-09-06T19:45:41Z</time>
      </trkpt>
      <trkpt lat="47.83225" lon="6.57395">
        <ele>406.2</ele>
        <time>2020-09-06T19:45:41Z</time>
      </trkpt>
      <trkpt lat="47.83244" lon="6.57431">
        <ele>407.5</ele>
        <time>2020-09-06T19:45:41Z</time>
      </trkpt>
      <trkpt lat="47.83256" lon="6.5746">
        <ele>408.9</ele>
        <time>2020-09-06T19:45:41Z</time>
      </trkpt>
      <trkpt lat="47.83261" lon="6.57478">
        <ele>409.4</ele>
        <time>2020-09-06T19:45:41Z</time>
      </trkpt>
      <trkpt lat="47.83262" lon="6.57494">
        <ele>409.4</ele>
        <time>2020-09-06T19:45:41Z</time>
      </trkpt>
      <trkpt lat="47.83263" lon="6.57513">
        <ele>410.7</ele>
        <time>2020-09-06T19:45:41Z</time>
      </trkpt>
      <trkpt lat="47.83264" lon="6.57528">
        <ele>411.4</ele>
        <time>2020-09-06T19:45:41Z</time>
      </trkpt>
      <trkpt lat="47.83268" lon="6.5754">
        <ele>411.9</ele>
        <time>2020-09-06T19:45:41Z</time>
      </trkpt>
      <trkpt lat="47.8327" lon="6.5755">
        <ele>412.1</ele>
        <time>2020-09-06T19:45:41Z</time>
      </trkpt>
      <trkpt lat="47.8327" lon="6.57562">
        <ele>412.8</ele>
        <time>2020-09-06T19:45:41Z</time>
      </trkpt>
      <trkpt lat="47.83267" lon="6.57571">
        <ele>413.2</ele>
        <time>2020-09-06T19:45:41Z</time>
      </trkpt>
      <trkpt lat="47.83262" lon="6.57572">
        <ele>413.1</ele>
        <time>2020-09-06T19:45:41Z</time>
      </trkpt>
      <trkpt lat="47.83255" lon="6.57571">
        <ele>413.2</ele>
        <time>2020-09-06T19:45:41Z</time>
      </trkpt>
      <trkpt lat="47.83245" lon="6.57566">
        <ele>413.6</ele>
        <time>2020-09-06T19:45:41Z</time>
      </trkpt>
      <trkpt lat="47.83235" lon="6.57562">
        <ele>414.9</ele>
        <time>2020-09-06T19:45:41Z</time>
      </trkpt>
      <trkpt lat="47.83227" lon="6.5756">
        <ele>415.4</ele>
        <time>2020-09-06T19:45:41Z</time>
      </trkpt>
      <trkpt lat="47.83218" lon="6.57562">
        <ele>415.9</ele>
        <time>2020-09-06T19:45:41Z</time>
      </trkpt>
      <trkpt lat="47.83212" lon="6.57568">
        <ele>416.3</ele>
        <time>2020-09-06T19:45:41Z</time>
      </trkpt>
      <trkpt lat="47.83208" lon="6.57579">
        <ele>416.9</ele>
        <time>2020-09-06T19:45:41Z</time>
      </trkpt>
      <trkpt lat="47.83207" lon="6.57595">
        <ele>417.7</ele>
        <time>2020-09-06T19:45:41Z</time>
      </trkpt>
      <trkpt lat="47.83208" lon="6.5761">
        <ele>418.4</ele>
        <time>2020-09-06T19:45:41Z</time>
      </trkpt>
      <trkpt lat="47.83212" lon="6.57619">
        <ele>418.8</ele>
        <time>2020-09-06T19:45:41Z</time>
      </trkpt>
      <trkpt lat="47.83222" lon="6.57632">
        <ele>419.3</ele>
        <time>2020-09-06T19:45:41Z</time>
      </trkpt>
      <trkpt lat="47.83227" lon="6.57644">
        <ele>419.7</ele>
        <time>2020-09-06T19:45:41Z</time>
      </trkpt>
      <trkpt lat="47.8323" lon="6.57658">
        <ele>420.6</ele>
        <time>2020-09-06T19:45:41Z</time>
      </trkpt>
      <trkpt lat="47.83229" lon="6.57672">
        <ele>421.1</ele>
        <time>2020-09-06T19:45:41Z</time>
      </trkpt>
      <trkpt lat="47.83225" lon="6.57679">
        <ele>421.3</ele>
        <time>2020-09-06T19:45:41Z</time>
      </trkpt>
      <trkpt lat="47.83219" lon="6.57681">
        <ele>421.4</ele>
        <time>2020-09-06T19:45:41Z</time>
      </trkpt>
      <trkpt lat="47.83212" lon="6.5768">
        <ele>422</ele>
        <time>2020-09-06T19:45:41Z</time>
      </trkpt>
      <trkpt lat="47.83207" lon="6.57673">
        <ele>422.9</ele>
        <time>2020-09-06T19:45:41Z</time>
      </trkpt>
      <trkpt lat="47.83203" lon="6.57668">
        <ele>423.4</ele>
        <time>2020-09-06T19:45:41Z</time>
      </trkpt>
      <trkpt lat="47.83198" lon="6.57665">
        <ele>423.9</ele>
        <time>2020-09-06T19:45:41Z</time>
      </trkpt>
      <trkpt lat="47.83192" lon="6.57667">
        <ele>424.1</ele>
        <time>2020-09-06T19:45:41Z</time>
      </trkpt>
      <trkpt lat="47.83185" lon="6.57672">
        <ele>424.4</ele>
        <time>2020-09-06T19:45:41Z</time>
      </trkpt>
      <trkpt lat="47.83178" lon="6.57686">
        <ele>424.7</ele>
        <time>2020-09-06T19:45:41Z</time>
      </trkpt>
      <trkpt lat="47.83174" lon="6.57697">
        <ele>425.5</ele>
        <time>2020-09-06T19:45:41Z</time>
      </trkpt>
      <trkpt lat="47.83174" lon="6.57707">
        <ele>425.9</ele>
        <time>2020-09-06T19:45:41Z</time>
      </trkpt>
      <trkpt lat="47.83175" lon="6.57718">
        <ele>426.2</ele>
        <time>2020-09-06T19:45:41Z</time>
      </trkpt>
      <trkpt lat="47.8318" lon="6.5773">
        <ele>426.7</ele>
        <time>2020-09-06T19:45:41Z</time>
      </trkpt>
      <trkpt lat="47.83187" lon="6.57747">
        <ele>428</ele>
        <time>2020-09-06T19:45:41Z</time>
      </trkpt>
      <trkpt lat="47.83194" lon="6.57771">
        <ele>428.3</ele>
        <time>2020-09-06T19:45:41Z</time>
      </trkpt>
      <trkpt lat="47.83199" lon="6.57797">
        <ele>429.4</ele>
        <time>2020-09-06T19:45:41Z</time>
      </trkpt>
      <trkpt lat="47.83202" lon="6.57822">
        <ele>430.3</ele>
        <time>2020-09-06T19:45:41Z</time>
      </trkpt>
      <trkpt lat="47.83203" lon="6.57848">
        <ele>431.9</ele>
        <time>2020-09-06T19:45:41Z</time>
      </trkpt>
      <trkpt lat="47.832" lon="6.57883">
        <ele>432.6</ele>
        <time>2020-09-06T19:45:41Z</time>
      </trkpt>
      <trkpt lat="47.83194" lon="6.57896">
        <ele>433</ele>
        <time>2020-09-06T19:45:41Z</time>
      </trkpt>
      <trkpt lat="47.83189" lon="6.57903">
        <ele>433.5</ele>
        <time>2020-09-06T19:45:41Z</time>
      </trkpt>
      <trkpt lat="47.83184" lon="6.57912">
        <ele>434</ele>
        <time>2020-09-06T19:45:41Z</time>
      </trkpt>
      <trkpt lat="47.83179" lon="6.57923">
        <ele>434.6</ele>
        <time>2020-09-06T19:45:41Z</time>
      </trkpt>
      <trkpt lat="47.83173" lon="6.57937">
        <ele>435.3</ele>
        <time>2020-09-06T19:45:41Z</time>
      </trkpt>
      <trkpt lat="47.83171" lon="6.57953">
        <ele>435.9</ele>
        <time>2020-09-06T19:45:41Z</time>
      </trkpt>
      <trkpt lat="47.8317" lon="6.57963">
        <ele>436.3</ele>
        <time>2020-09-06T19:45:41Z</time>
      </trkpt>
      <trkpt lat="47.83171" lon="6.57975">
        <ele>436.5</ele>
        <time>2020-09-06T19:45:41Z</time>
      </trkpt>
      <trkpt lat="47.83174" lon="6.57989">
        <ele>437.3</ele>
        <time>2020-09-06T19:45:41Z</time>
      </trkpt>
      <trkpt lat="47.83179" lon="6.58003">
        <ele>437.9</ele>
        <time>2020-09-06T19:45:41Z</time>
      </trkpt>
      <trkpt lat="47.83181" lon="6.58014">
        <ele>438.2</ele>
        <time>2020-09-06T19:45:41Z</time>
      </trkpt>
      <trkpt lat="47.83182" lon="6.58029">
        <ele>439.1</ele>
        <time>2020-09-06T19:45:41Z</time>
      </trkpt>
      <trkpt lat="47.83181" lon="6.58042">
        <ele>439.1</ele>
        <time>2020-09-06T19:45:41Z</time>
      </trkpt>
      <trkpt lat="47.83179" lon="6.5805">
        <ele>439.6</ele>
        <time>2020-09-06T19:45:41Z</time>
      </trkpt>
      <trkpt lat="47.83174" lon="6.58058">
        <ele>440.1</ele>
        <time>2020-09-06T19:45:41Z</time>
      </trkpt>
      <trkpt lat="47.83166" lon="6.58063">
        <ele>440.6</ele>
        <time>2020-09-06T19:45:41Z</time>
      </trkpt>
      <trkpt lat="47.83157" lon="6.58063">
        <ele>441.1</ele>
        <time>2020-09-06T19:45:41Z</time>
      </trkpt>
      <trkpt lat="47.83147" lon="6.58061">
        <ele>441.6</ele>
        <time>2020-09-06T19:45:41Z</time>
      </trkpt>
      <trkpt lat="47.83141" lon="6.58056">
        <ele>442.1</ele>
        <time>2020-09-06T19:45:41Z</time>
      </trkpt>
      <trkpt lat="47.83134" lon="6.58045">
        <ele>442.4</ele>
        <time>2020-09-06T19:45:41Z</time>
      </trkpt>
      <trkpt lat="47.83127" lon="6.5803">
        <ele>443.3</ele>
        <time>2020-09-06T19:45:41Z</time>
      </trkpt>
      <trkpt lat="47.83118" lon="6.58021">
        <ele>443.9</ele>
        <time>2020-09-06T19:45:41Z</time>
      </trkpt>
      <trkpt lat="47.83111" lon="6.58018">
        <ele>444.5</ele>
        <time>2020-09-06T19:45:41Z</time>
      </trkpt>
      <trkpt lat="47.83097" lon="6.58018">
        <ele>445.1</ele>
        <time>2020-09-06T19:45:41Z</time>
      </trkpt>
      <trkpt lat="47.83079" lon="6.58019">
        <ele>446</ele>
        <time>2020-09-06T19:45:41Z</time>
      </trkpt>
      <trkpt lat="47.83066" lon="6.58021">
        <ele>446.8</ele>
        <time>2020-09-06T19:45:41Z</time>
      </trkpt>
      <trkpt lat="47.83059" lon="6.58027">
        <ele>447.1</ele>
        <time>2020-09-06T19:45:41Z</time>
      </trkpt>
      <trkpt lat="47.83059" lon="6.58044">
        <ele>447.3</ele>
        <time>2020-09-06T19:45:41Z</time>
      </trkpt>
      <trkpt lat="47.83062" lon="6.58058">
        <ele>448.1</ele>
        <time>2020-09-06T19:45:41Z</time>
      </trkpt>
      <trkpt lat="47.83069" lon="6.58067">
        <ele>448.8</ele>
        <time>2020-09-06T19:45:41Z</time>
      </trkpt>
      <trkpt lat="47.83079" lon="6.58079">
        <ele>449.7</ele>
        <time>2020-09-06T19:45:41Z</time>
      </trkpt>
      <trkpt lat="47.83083" lon="6.58088">
        <ele>449.9</ele>
        <time>2020-09-06T19:45:41Z</time>
      </trkpt>
      <trkpt lat="47.83086" lon="6.58096">
        <ele>449.9</ele>
        <time>2020-09-06T19:45:41Z</time>
      </trkpt>
      <trkpt lat="47.83086" lon="6.58105">
        <ele>449.8</ele>
        <time>2020-09-06T19:45:41Z</time>
      </trkpt>
      <trkpt lat="47.8308" lon="6.58108">
        <ele>451.6</ele>
        <time>2020-09-06T19:45:41Z</time>
      </trkpt>
      <trkpt lat="47.83073" lon="6.58105">
        <ele>452.5</ele>
        <time>2020-09-06T19:45:41Z</time>
      </trkpt>
      <trkpt lat="47.83061" lon="6.58087">
        <ele>453.1</ele>
        <time>2020-09-06T19:45:41Z</time>
      </trkpt>
      <trkpt lat="47.83048" lon="6.58074">
        <ele>453.7</ele>
        <time>2020-09-06T19:45:41Z</time>
      </trkpt>
      <trkpt lat="47.83037" lon="6.58068">
        <ele>453.5</ele>
        <time>2020-09-06T19:45:41Z</time>
      </trkpt>
      <trkpt lat="47.83025" lon="6.58065">
        <ele>454.9</ele>
        <time>2020-09-06T19:45:41Z</time>
      </trkpt>
      <trkpt lat="47.83014" lon="6.58064">
        <ele>455.3</ele>
        <time>2020-09-06T19:45:41Z</time>
      </trkpt>
      <trkpt lat="47.83007" lon="6.58067">
        <ele>455.7</ele>
        <time>2020-09-06T19:45:41Z</time>
      </trkpt>
      <trkpt lat="47.83" lon="6.58073">
        <ele>456.3</ele>
        <time>2020-09-06T19:45:41Z</time>
      </trkpt>
      <trkpt lat="47.82995" lon="6.58082">
        <ele>456.7</ele>
        <time>2020-09-06T19:45:41Z</time>
      </trkpt>
      <trkpt lat="47.82991" lon="6.58095">
        <ele>457.3</ele>
        <time>2020-09-06T19:45:41Z</time>
      </trkpt>
      <trkpt lat="47.82987" lon="6.58109">
        <ele>457.8</ele>
        <time>2020-09-06T19:45:41Z</time>
      </trkpt>
      <trkpt lat="47.82983" lon="6.58117">
        <ele>458.2</ele>
        <time>2020-09-06T19:45:41Z</time>
      </trkpt>
      <trkpt lat="47.82976" lon="6.58124">
        <ele>458.9</ele>
        <time>2020-09-06T19:45:41Z</time>
      </trkpt>
      <trkpt lat="47.82966" lon="6.58128">
        <ele>459.4</ele>
        <time>2020-09-06T19:45:41Z</time>
      </trkpt>
      <trkpt lat="47.82959" lon="6.58126">
        <ele>459.8</ele>
        <time>2020-09-06T19:45:41Z</time>
      </trkpt>
      <trkpt lat="47.82954" lon="6.58121">
        <ele>460.1</ele>
        <time>2020-09-06T19:45:41Z</time>
      </trkpt>
      <trkpt lat="47.8295" lon="6.58111">
        <ele>460.4</ele>
        <time>2020-09-06T19:45:41Z</time>
      </trkpt>
      <trkpt lat="47.82948" lon="6.58101">
        <ele>463.2</ele>
        <time>2020-09-06T19:45:41Z</time>
      </trkpt>
      <trkpt lat="47.82948" lon="6.58088">
        <ele>462.1</ele>
        <time>2020-09-06T19:45:41Z</time>
      </trkpt>
      <trkpt lat="47.82947" lon="6.58076">
        <ele>461.1</ele>
        <time>2020-09-06T19:45:41Z</time>
      </trkpt>
      <trkpt lat="47.82943" lon="6.58064">
        <ele>461.2</ele>
        <time>2020-09-06T19:45:41Z</time>
      </trkpt>
      <trkpt lat="47.82935" lon="6.58053">
        <ele>461.8</ele>
        <time>2020-09-06T19:45:41Z</time>
      </trkpt>
      <trkpt lat="47.82929" lon="6.58045">
        <ele>462.2</ele>
        <time>2020-09-06T19:45:41Z</time>
      </trkpt>
      <trkpt lat="47.82923" lon="6.58041">
        <ele>462.8</ele>
        <time>2020-09-06T19:45:41Z</time>
      </trkpt>
      <trkpt lat="47.82915" lon="6.58038">
        <ele>463.3</ele>
        <time>2020-09-06T19:45:41Z</time>
      </trkpt>
      <trkpt lat="47.82908" lon="6.58037">
        <ele>463.5</ele>
        <time>2020-09-06T19:45:41Z</time>
      </trkpt>
      <trkpt lat="47.82902" lon="6.58039">
        <ele>464.1</ele>
        <time>2020-09-06T19:45:41Z</time>
      </trkpt>
      <trkpt lat="47.82891" lon="6.58041">
        <ele>464.5</ele>
        <time>2020-09-06T19:45:41Z</time>
      </trkpt>
      <trkpt lat="47.82881" lon="6.58041">
        <ele>464.9</ele>
        <time>2020-09-06T19:45:41Z</time>
      </trkpt>
      <trkpt lat="47.82871" lon="6.58042">
        <ele>465.3</ele>
        <time>2020-09-06T19:45:41Z</time>
      </trkpt>
      <trkpt lat="47.82863" lon="6.58043">
        <ele>466.1</ele>
        <time>2020-09-06T19:45:41Z</time>
      </trkpt>
      <trkpt lat="47.82856" lon="6.58039">
        <ele>466.1</ele>
        <time>2020-09-06T19:45:41Z</time>
      </trkpt>
      <trkpt lat="47.8285" lon="6.58032">
        <ele>466.4</ele>
        <time>2020-09-06T19:45:41Z</time>
      </trkpt>
      <trkpt lat="47.82841" lon="6.58025">
        <ele>467.5</ele>
        <time>2020-09-06T19:45:41Z</time>
      </trkpt>
      <trkpt lat="47.82834" lon="6.58023">
        <ele>468</ele>
        <time>2020-09-06T19:45:41Z</time>
      </trkpt>
      <trkpt lat="47.82827" lon="6.58021">
        <ele>468.5</ele>
        <time>2020-09-06T19:45:41Z</time>
      </trkpt>
      <trkpt lat="47.82818" lon="6.58023">
        <ele>468.9</ele>
        <time>2020-09-06T19:45:41Z</time>
      </trkpt>
      <trkpt lat="47.82812" lon="6.58026">
        <ele>469.4</ele>
        <time>2020-09-06T19:45:41Z</time>
      </trkpt>
      <trkpt lat="47.82799" lon="6.58034">
        <ele>469.7</ele>
        <time>2020-09-06T19:45:41Z</time>
      </trkpt>
      <trkpt lat="47.82789" lon="6.58037">
        <ele>470.6</ele>
        <time>2020-09-06T19:45:41Z</time>
      </trkpt>
      <trkpt lat="47.82779" lon="6.5804">
        <ele>471.3</ele>
        <time>2020-09-06T19:45:41Z</time>
      </trkpt>
      <trkpt lat="47.82768" lon="6.58042">
        <ele>471.8</ele>
        <time>2020-09-06T19:45:41Z</time>
      </trkpt>
      <trkpt lat="47.82758" lon="6.58039">
        <ele>472</ele>
        <time>2020-09-06T19:45:41Z</time>
      </trkpt>
      <trkpt lat="47.82753" lon="6.58036">
        <ele>472.3</ele>
        <time>2020-09-06T19:45:41Z</time>
      </trkpt>
      <trkpt lat="47.82745" lon="6.58035">
        <ele>472.8</ele>
        <time>2020-09-06T19:45:41Z</time>
      </trkpt>
      <trkpt lat="47.82738" lon="6.58035">
        <ele>473.5</ele>
        <time>2020-09-06T19:45:41Z</time>
      </trkpt>
      <trkpt lat="47.82732" lon="6.58041">
        <ele>473.8</ele>
        <time>2020-09-06T19:45:41Z</time>
      </trkpt>
      <trkpt lat="47.82728" lon="6.58047">
        <ele>474.3</ele>
        <time>2020-09-06T19:45:41Z</time>
      </trkpt>
      <trkpt lat="47.82719" lon="6.5806">
        <ele>475.1</ele>
        <time>2020-09-06T19:45:41Z</time>
      </trkpt>
      <trkpt lat="47.82713" lon="6.58072">
        <ele>475.9</ele>
        <time>2020-09-06T19:45:41Z</time>
      </trkpt>
      <trkpt lat="47.8271" lon="6.5808">
        <ele>475.4</ele>
        <time>2020-09-06T19:45:41Z</time>
      </trkpt>
      <trkpt lat="47.82706" lon="6.58094">
        <ele>475.3</ele>
        <time>2020-09-06T19:45:41Z</time>
      </trkpt>
      <trkpt lat="47.82703" lon="6.58107">
        <ele>476.9</ele>
        <time>2020-09-06T19:45:41Z</time>
      </trkpt>
      <trkpt lat="47.82702" lon="6.58118">
        <ele>477.2</ele>
        <time>2020-09-06T19:45:41Z</time>
      </trkpt>
      <trkpt lat="47.82701" lon="6.58136">
        <ele>477.4</ele>
        <time>2020-09-06T19:45:41Z</time>
      </trkpt>
      <trkpt lat="47.82698" lon="6.58168">
        <ele>477.1</ele>
        <time>2020-09-06T19:45:41Z</time>
      </trkpt>
      <trkpt lat="47.82697" lon="6.58176">
        <ele>476.5</ele>
        <time>2020-09-06T19:45:41Z</time>
      </trkpt>
      <trkpt lat="47.82688" lon="6.58196">
        <ele>478.5</ele>
        <time>2020-09-06T19:45:41Z</time>
      </trkpt>
      <trkpt lat="47.82682" lon="6.58216">
        <ele>481.9</ele>
        <time>2020-09-06T19:45:41Z</time>
      </trkpt>
      <trkpt lat="47.82675" lon="6.58238">
        <ele>482.7</ele>
        <time>2020-09-06T19:45:41Z</time>
      </trkpt>
      <trkpt lat="47.82666" lon="6.58259">
        <ele>485.6</ele>
        <time>2020-09-06T19:45:41Z</time>
      </trkpt>
      <trkpt lat="47.82657" lon="6.58276">
        <ele>487.2</ele>
        <time>2020-09-06T19:45:41Z</time>
      </trkpt>
      <trkpt lat="47.82646" lon="6.5829">
        <ele>488.4</ele>
        <time>2020-09-06T19:45:41Z</time>
      </trkpt>
      <trkpt lat="47.82629" lon="6.58325">
        <ele>491.7</ele>
        <time>2020-09-06T19:45:41Z</time>
      </trkpt>
      <trkpt lat="47.82612" lon="6.58357">
        <ele>494</ele>
        <time>2020-09-06T19:45:41Z</time>
      </trkpt>
      <trkpt lat="47.82602" lon="6.58371">
        <ele>493.8</ele>
        <time>2020-09-06T19:45:41Z</time>
      </trkpt>
      <trkpt lat="47.82591" lon="6.58384">
        <ele>494.8</ele>
        <time>2020-09-06T19:45:41Z</time>
      </trkpt>
      <trkpt lat="47.82579" lon="6.58395">
        <ele>496</ele>
        <time>2020-09-06T19:45:41Z</time>
      </trkpt>
      <trkpt lat="47.82564" lon="6.58405">
        <ele>497.1</ele>
        <time>2020-09-06T19:45:41Z</time>
      </trkpt>
      <trkpt lat="47.82545" lon="6.5842">
        <ele>497.5</ele>
        <time>2020-09-06T19:45:41Z</time>
      </trkpt>
      <trkpt lat="47.82535" lon="6.58429">
        <ele>497</ele>
        <time>2020-09-06T19:45:41Z</time>
      </trkpt>
      <trkpt lat="47.82525" lon="6.5844">
        <ele>497.4</ele>
        <time>2020-09-06T19:45:41Z</time>
      </trkpt>
      <trkpt lat="47.82517" lon="6.58451">
        <ele>497.9</ele>
        <time>2020-09-06T19:45:41Z</time>
      </trkpt>
      <trkpt lat="47.82511" lon="6.58467">
        <ele>498.1</ele>
        <time>2020-09-06T19:45:41Z</time>
      </trkpt>
      <trkpt lat="47.82503" lon="6.58487">
        <ele>498.6</ele>
        <time>2020-09-06T19:45:41Z</time>
      </trkpt>
      <trkpt lat="47.825" lon="6.58493">
        <ele>498.3</ele>
        <time>2020-09-06T19:45:41Z</time>
      </trkpt>
      <trkpt lat="47.82496" lon="6.58503">
        <ele>498.5</ele>
        <time>2020-09-06T19:45:41Z</time>
      </trkpt>
      <trkpt lat="47.82489" lon="6.58514">
        <ele>498.9</ele>
        <time>2020-09-06T19:45:41Z</time>
      </trkpt>
      <trkpt lat="47.82478" lon="6.58525">
        <ele>498.7</ele>
        <time>2020-09-06T19:45:41Z</time>
      </trkpt>
      <trkpt lat="47.82466" lon="6.58538">
        <ele>498.5</ele>
        <time>2020-09-06T19:45:41Z</time>
      </trkpt>
      <trkpt lat="47.82454" lon="6.5855">
        <ele>498.3</ele>
        <time>2020-09-06T19:45:41Z</time>
      </trkpt>
      <trkpt lat="47.82445" lon="6.5856">
        <ele>498.2</ele>
        <time>2020-09-06T19:45:41Z</time>
      </trkpt>
      <trkpt lat="47.82437" lon="6.58566">
        <ele>498.2</ele>
        <time>2020-09-06T19:45:41Z</time>
      </trkpt>
      <trkpt lat="47.82425" lon="6.58575">
        <ele>498.4</ele>
        <time>2020-09-06T19:45:41Z</time>
      </trkpt>
      <trkpt lat="47.82414" lon="6.58584">
        <ele>497.8</ele>
        <time>2020-09-06T19:45:41Z</time>
      </trkpt>
      <trkpt lat="47.82402" lon="6.5859">
        <ele>498.3</ele>
        <time>2020-09-06T19:45:41Z</time>
      </trkpt>
      <trkpt lat="47.82393" lon="6.58597">
        <ele>498</ele>
        <time>2020-09-06T19:45:41Z</time>
      </trkpt>
      <trkpt lat="47.82387" lon="6.58605">
        <ele>498.5</ele>
        <time>2020-09-06T19:45:41Z</time>
      </trkpt>
      <trkpt lat="47.82379" lon="6.58615">
        <ele>498.3</ele>
        <time>2020-09-06T19:45:41Z</time>
      </trkpt>
      <trkpt lat="47.82371" lon="6.58632">
        <ele>498.1</ele>
        <time>2020-09-06T19:45:41Z</time>
      </trkpt>
      <trkpt lat="47.82363" lon="6.58654">
        <ele>498.1</ele>
        <time>2020-09-06T19:45:41Z</time>
      </trkpt>
      <trkpt lat="47.8236" lon="6.58671">
        <ele>498.8</ele>
        <time>2020-09-06T19:45:41Z</time>
      </trkpt>
      <trkpt lat="47.82358" lon="6.58685">
        <ele>499.1</ele>
        <time>2020-09-06T19:45:41Z</time>
      </trkpt>
      <trkpt lat="47.82358" lon="6.58696">
        <ele>499</ele>
        <time>2020-09-06T19:45:41Z</time>
      </trkpt>
      <trkpt lat="47.82357" lon="6.58712">
        <ele>499.1</ele>
        <time>2020-09-06T19:45:41Z</time>
      </trkpt>
      <trkpt lat="47.82356" lon="6.58727">
        <ele>499.2</ele>
        <time>2020-09-06T19:45:41Z</time>
      </trkpt>
      <trkpt lat="47.82349" lon="6.58753">
        <ele>500.4</ele>
        <time>2020-09-06T19:45:41Z</time>
      </trkpt>
      <trkpt lat="47.8234" lon="6.58777">
        <ele>500.4</ele>
        <time>2020-09-06T19:45:41Z</time>
      </trkpt>
      <trkpt lat="47.82331" lon="6.58801">
        <ele>501</ele>
        <time>2020-09-06T19:45:41Z</time>
      </trkpt>
      <trkpt lat="47.82325" lon="6.58818">
        <ele>500.9</ele>
        <time>2020-09-06T19:45:41Z</time>
      </trkpt>
      <trkpt lat="47.82319" lon="6.58828">
        <ele>501</ele>
        <time>2020-09-06T19:45:41Z</time>
      </trkpt>
      <trkpt lat="47.82316" lon="6.58834">
        <ele>501.4</ele>
        <time>2020-09-06T19:45:41Z</time>
      </trkpt>
      <trkpt lat="47.82312" lon="6.58839">
        <ele>501.7</ele>
        <time>2020-09-06T19:45:41Z</time>
      </trkpt>
      <trkpt lat="47.82307" lon="6.58844">
        <ele>502</ele>
        <time>2020-09-06T19:45:41Z</time>
      </trkpt>
      <trkpt lat="47.82302" lon="6.58848">
        <ele>502.3</ele>
        <time>2020-09-06T19:45:41Z</time>
      </trkpt>
      <trkpt lat="47.82296" lon="6.58852">
        <ele>502.9</ele>
        <time>2020-09-06T19:45:41Z</time>
      </trkpt>
      <trkpt lat="47.82285" lon="6.58856">
        <ele>503.5</ele>
        <time>2020-09-06T19:45:41Z</time>
      </trkpt>
      <trkpt lat="47.82274" lon="6.58861">
        <ele>504.5</ele>
        <time>2020-09-06T19:45:41Z</time>
      </trkpt>
      <trkpt lat="47.82262" lon="6.58867">
        <ele>504.8</ele>
        <time>2020-09-06T19:45:41Z</time>
      </trkpt>
      <trkpt lat="47.82251" lon="6.58877">
        <ele>505</ele>
        <time>2020-09-06T19:45:41Z</time>
      </trkpt>
      <trkpt lat="47.82246" lon="6.58886">
        <ele>505.1</ele>
        <time>2020-09-06T19:45:41Z</time>
      </trkpt>
      <trkpt lat="47.82242" lon="6.58896">
        <ele>505.4</ele>
        <time>2020-09-06T19:45:41Z</time>
      </trkpt>
      <trkpt lat="47.82236" lon="6.5892">
        <ele>506.9</ele>
        <time>2020-09-06T19:45:41Z</time>
      </trkpt>
      <trkpt lat="47.82229" lon="6.58939">
        <ele>507.1</ele>
        <time>2020-09-06T19:45:41Z</time>
      </trkpt>
      <trkpt lat="47.82222" lon="6.58958">
        <ele>507.8</ele>
        <time>2020-09-06T19:45:41Z</time>
      </trkpt>
      <trkpt lat="47.82215" lon="6.58973">
        <ele>508.8</ele>
        <time>2020-09-06T19:45:41Z</time>
      </trkpt>
      <trkpt lat="47.82209" lon="6.58986">
        <ele>508.5</ele>
        <time>2020-09-06T19:45:41Z</time>
      </trkpt>
      <trkpt lat="47.82202" lon="6.58999">
        <ele>508.8</ele>
        <time>2020-09-06T19:45:41Z</time>
      </trkpt>
      <trkpt lat="47.82193" lon="6.59018">
        <ele>509</ele>
        <time>2020-09-06T19:45:41Z</time>
      </trkpt>
      <trkpt lat="47.8218" lon="6.59044">
        <ele>509.8</ele>
        <time>2020-09-06T19:45:41Z</time>
      </trkpt>
      <trkpt lat="47.82167" lon="6.59074">
        <ele>510.7</ele>
        <time>2020-09-06T19:45:41Z</time>
      </trkpt>
      <trkpt lat="47.82144" lon="6.59139">
        <ele>513.9</ele>
        <time>2020-09-06T19:45:41Z</time>
      </trkpt>
      <trkpt lat="47.82134" lon="6.59168">
        <ele>514.5</ele>
        <time>2020-09-06T19:45:41Z</time>
      </trkpt>
      <trkpt lat="47.82128" lon="6.59191">
        <ele>514.8</ele>
        <time>2020-09-06T19:45:41Z</time>
      </trkpt>
      <trkpt lat="47.82124" lon="6.59204">
        <ele>514.9</ele>
        <time>2020-09-06T19:45:41Z</time>
      </trkpt>
      <trkpt lat="47.82123" lon="6.59212">
        <ele>514.9</ele>
        <time>2020-09-06T19:45:41Z</time>
      </trkpt>
      <trkpt lat="47.82122" lon="6.59229">
        <ele>515</ele>
        <time>2020-09-06T19:45:41Z</time>
      </trkpt>
      <trkpt lat="47.82119" lon="6.59264">
        <ele>514.6</ele>
        <time>2020-09-06T19:45:41Z</time>
      </trkpt>
      <trkpt lat="47.82117" lon="6.5928">
        <ele>514.4</ele>
        <time>2020-09-06T19:45:41Z</time>
      </trkpt>
      <trkpt lat="47.82115" lon="6.59298">
        <ele>514.1</ele>
        <time>2020-09-06T19:45:41Z</time>
      </trkpt>
      <trkpt lat="47.82113" lon="6.5931">
        <ele>514</ele>
        <time>2020-09-06T19:45:41Z</time>
      </trkpt>
      <trkpt lat="47.82111" lon="6.59324">
        <ele>513.4</ele>
        <time>2020-09-06T19:45:41Z</time>
      </trkpt>
      <trkpt lat="47.82108" lon="6.59335">
        <ele>512.8</ele>
        <time>2020-09-06T19:45:41Z</time>
      </trkpt>
      <trkpt lat="47.82098" lon="6.59378">
        <ele>511</ele>
        <time>2020-09-06T19:45:41Z</time>
      </trkpt>
      <trkpt lat="47.82087" lon="6.59424">
        <ele>509</ele>
        <time>2020-09-06T19:45:41Z</time>
      </trkpt>
      <trkpt lat="47.82084" lon="6.59434">
        <ele>508.2</ele>
        <time>2020-09-06T19:45:41Z</time>
      </trkpt>
      <trkpt lat="47.82082" lon="6.59441">
        <ele>507.9</ele>
        <time>2020-09-06T19:45:41Z</time>
      </trkpt>
      <trkpt lat="47.82078" lon="6.59448">
        <ele>507.2</ele>
        <time>2020-09-06T19:45:41Z</time>
      </trkpt>
      <trkpt lat="47.82074" lon="6.59454">
        <ele>507.1</ele>
        <time>2020-09-06T19:45:41Z</time>
      </trkpt>
      <trkpt lat="47.82068" lon="6.59459">
        <ele>506.2</ele>
        <time>2020-09-06T19:45:41Z</time>
      </trkpt>
      <trkpt lat="47.82059" lon="6.59468">
        <ele>505.5</ele>
        <time>2020-09-06T19:45:41Z</time>
      </trkpt>
      <trkpt lat="47.82049" lon="6.59479">
        <ele>504.8</ele>
        <time>2020-09-06T19:45:41Z</time>
      </trkpt>
      <trkpt lat="47.82043" lon="6.59486">
        <ele>504.2</ele>
        <time>2020-09-06T19:45:41Z</time>
      </trkpt>
      <trkpt lat="47.82037" lon="6.59494">
        <ele>503.7</ele>
        <time>2020-09-06T19:45:41Z</time>
      </trkpt>
      <trkpt lat="47.82032" lon="6.59504">
        <ele>503.1</ele>
        <time>2020-09-06T19:45:41Z</time>
      </trkpt>
      <trkpt lat="47.82014" lon="6.59533">
        <ele>501.2</ele>
        <time>2020-09-06T19:45:41Z</time>
      </trkpt>
      <trkpt lat="47.82005" lon="6.5955">
        <ele>500.5</ele>
        <time>2020-09-06T19:45:41Z</time>
      </trkpt>
      <trkpt lat="47.82002" lon="6.59557">
        <ele>500.3</ele>
        <time>2020-09-06T19:45:41Z</time>
      </trkpt>
      <trkpt lat="47.81999" lon="6.59563">
        <ele>500</ele>
        <time>2020-09-06T19:45:41Z</time>
      </trkpt>
      <trkpt lat="47.81997" lon="6.59572">
        <ele>499.8</ele>
        <time>2020-09-06T19:45:41Z</time>
      </trkpt>
      <trkpt lat="47.81995" lon="6.59579">
        <ele>500</ele>
        <time>2020-09-06T19:45:41Z</time>
      </trkpt>
      <trkpt lat="47.81995" lon="6.59587">
        <ele>500</ele>
        <time>2020-09-06T19:45:41Z</time>
      </trkpt>
      <trkpt lat="47.81995" lon="6.59596">
        <ele>500</ele>
        <time>2020-09-06T19:45:41Z</time>
      </trkpt>
      <trkpt lat="47.81995" lon="6.59615">
        <ele>499.9</ele>
        <time>2020-09-06T19:45:41Z</time>
      </trkpt>
      <trkpt lat="47.81995" lon="6.59625">
        <ele>499.8</ele>
        <time>2020-09-06T19:45:41Z</time>
      </trkpt>
      <trkpt lat="47.81993" lon="6.59635">
        <ele>499.3</ele>
        <time>2020-09-06T19:45:41Z</time>
      </trkpt>
      <trkpt lat="47.81991" lon="6.5965">
        <ele>499.6</ele>
        <time>2020-09-06T19:45:41Z</time>
      </trkpt>
      <trkpt lat="47.81986" lon="6.59669">
        <ele>499.3</ele>
        <time>2020-09-06T19:45:41Z</time>
      </trkpt>
      <trkpt lat="47.81981" lon="6.59684">
        <ele>499.2</ele>
        <time>2020-09-06T19:45:41Z</time>
      </trkpt>
      <trkpt lat="47.81977" lon="6.59704">
        <ele>498.2</ele>
        <time>2020-09-06T19:45:41Z</time>
      </trkpt>
      <trkpt lat="47.81972" lon="6.5972">
        <ele>497.7</ele>
        <time>2020-09-06T19:45:41Z</time>
      </trkpt>
      <trkpt lat="47.81968" lon="6.59733">
        <ele>497.5</ele>
        <time>2020-09-06T19:45:41Z</time>
      </trkpt>
      <trkpt lat="47.81967" lon="6.59743">
        <ele>497</ele>
        <time>2020-09-06T19:45:41Z</time>
      </trkpt>
      <trkpt lat="47.81966" lon="6.59756">
        <ele>497.2</ele>
        <time>2020-09-06T19:45:41Z</time>
      </trkpt>
      <trkpt lat="47.81965" lon="6.5977">
        <ele>496.9</ele>
        <time>2020-09-06T19:45:41Z</time>
      </trkpt>
      <trkpt lat="47.81964" lon="6.59779">
        <ele>496.7</ele>
        <time>2020-09-06T19:45:41Z</time>
      </trkpt>
      <trkpt lat="47.81962" lon="6.59791">
        <ele>496.8</ele>
        <time>2020-09-06T19:45:41Z</time>
      </trkpt>
      <trkpt lat="47.81958" lon="6.59807">
        <ele>496.6</ele>
        <time>2020-09-06T19:45:41Z</time>
      </trkpt>
      <trkpt lat="47.8195" lon="6.59843">
        <ele>495.4</ele>
        <time>2020-09-06T19:45:41Z</time>
      </trkpt>
      <trkpt lat="47.81943" lon="6.59867">
        <ele>495.3</ele>
        <time>2020-09-06T19:45:41Z</time>
      </trkpt>
      <trkpt lat="47.81939" lon="6.59885">
        <ele>495</ele>
        <time>2020-09-06T19:45:41Z</time>
      </trkpt>
      <trkpt lat="47.81937" lon="6.59895">
        <ele>494.7</ele>
        <time>2020-09-06T19:45:41Z</time>
      </trkpt>
      <trkpt lat="47.81935" lon="6.59908">
        <ele>494.8</ele>
        <time>2020-09-06T19:45:41Z</time>
      </trkpt>
      <trkpt lat="47.81934" lon="6.59937">
        <ele>493.8</ele>
        <time>2020-09-06T19:45:41Z</time>
      </trkpt>
      <trkpt lat="47.81931" lon="6.59962">
        <ele>493</ele>
        <time>2020-09-06T19:45:41Z</time>
      </trkpt>
      <trkpt lat="47.81927" lon="6.59985">
        <ele>493.1</ele>
        <time>2020-09-06T19:45:41Z</time>
      </trkpt>
      <trkpt lat="47.81922" lon="6.60011">
        <ele>490.3</ele>
        <time>2020-09-06T19:45:41Z</time>
      </trkpt>
      <trkpt lat="47.81918" lon="6.60032">
        <ele>488.9</ele>
        <time>2020-09-06T19:45:41Z</time>
      </trkpt>
      <trkpt lat="47.81907" lon="6.60076">
        <ele>486.9</ele>
        <time>2020-09-06T19:45:41Z</time>
      </trkpt>
      <trkpt lat="47.81901" lon="6.60106">
        <ele>485.3</ele>
        <time>2020-09-06T19:45:41Z</time>
      </trkpt>
      <trkpt lat="47.81894" lon="6.6013">
        <ele>484</ele>
        <time>2020-09-06T19:45:41Z</time>
      </trkpt>
      <trkpt lat="47.81884" lon="6.60156">
        <ele>482.2</ele>
        <time>2020-09-06T19:45:41Z</time>
      </trkpt>
      <trkpt lat="47.81874" lon="6.60185">
        <ele>481</ele>
        <time>2020-09-06T19:45:41Z</time>
      </trkpt>
      <trkpt lat="47.81868" lon="6.60202">
        <ele>480.9</ele>
        <time>2020-09-06T19:45:41Z</time>
      </trkpt>
      <trkpt lat="47.81864" lon="6.60215">
        <ele>480.1</ele>
        <time>2020-09-06T19:45:41Z</time>
      </trkpt>
      <trkpt lat="47.8186" lon="6.60225">
        <ele>479.7</ele>
        <time>2020-09-06T19:45:41Z</time>
      </trkpt>
      <trkpt lat="47.81854" lon="6.60234">
        <ele>478</ele>
        <time>2020-09-06T19:45:41Z</time>
      </trkpt>
      <trkpt lat="47.81847" lon="6.60244">
        <ele>478.6</ele>
        <time>2020-09-06T19:45:41Z</time>
      </trkpt>
      <trkpt lat="47.81838" lon="6.60258">
        <ele>477.8</ele>
        <time>2020-09-06T19:45:41Z</time>
      </trkpt>
      <trkpt lat="47.81826" lon="6.60278">
        <ele>475.2</ele>
        <time>2020-09-06T19:45:41Z</time>
      </trkpt>
      <trkpt lat="47.81817" lon="6.60295">
        <ele>473.7</ele>
        <time>2020-09-06T19:45:41Z</time>
      </trkpt>
      <trkpt lat="47.81812" lon="6.60302">
        <ele>472.9</ele>
        <time>2020-09-06T19:45:41Z</time>
      </trkpt>
      <trkpt lat="47.81807" lon="6.60306">
        <ele>472.5</ele>
        <time>2020-09-06T19:45:41Z</time>
      </trkpt>
      <trkpt lat="47.818" lon="6.60308">
        <ele>472.2</ele>
        <time>2020-09-06T19:45:41Z</time>
      </trkpt>
      <trkpt lat="47.81791" lon="6.60303">
        <ele>471.7</ele>
        <time>2020-09-06T19:45:41Z</time>
      </trkpt>
      <trkpt lat="47.81781" lon="6.60294">
        <ele>470.4</ele>
        <time>2020-09-06T19:45:41Z</time>
      </trkpt>
      <trkpt lat="47.81774" lon="6.60288">
        <ele>470.2</ele>
        <time>2020-09-06T19:45:41Z</time>
      </trkpt>
      <trkpt lat="47.81765" lon="6.60286">
        <ele>469.6</ele>
        <time>2020-09-06T19:45:41Z</time>
      </trkpt>
      <trkpt lat="47.81759" lon="6.60285">
        <ele>468.9</ele>
        <time>2020-09-06T19:45:41Z</time>
      </trkpt>
      <trkpt lat="47.81755" lon="6.60285">
        <ele>468.6</ele>
        <time>2020-09-06T19:45:41Z</time>
      </trkpt>
      <trkpt lat="47.8175" lon="6.60286">
        <ele>468.3</ele>
        <time>2020-09-06T19:45:41Z</time>
      </trkpt>
      <trkpt lat="47.81746" lon="6.60273">
        <ele>468.7</ele>
        <time>2020-09-06T19:45:41Z</time>
      </trkpt>
      <trkpt lat="47.81744" lon="6.60257">
        <ele>469.5</ele>
        <time>2020-09-06T19:45:41Z</time>
      </trkpt>
      <trkpt lat="47.81746" lon="6.60273">
        <ele>468.7</ele>
        <time>2020-09-06T19:45:41Z</time>
      </trkpt>
      <trkpt lat="47.81749" lon="6.60286">
        <ele>468.3</ele>
        <time>2020-09-06T19:45:41Z</time>
      </trkpt>
      <trkpt lat="47.81743" lon="6.60292">
        <ele>467.9</ele>
        <time>2020-09-06T19:45:41Z</time>
      </trkpt>
      <trkpt lat="47.81735" lon="6.603">
        <ele>468.1</ele>
        <time>2020-09-06T19:45:41Z</time>
      </trkpt>
      <trkpt lat="47.81731" lon="6.60304">
        <ele>467.5</ele>
        <time>2020-09-06T19:45:41Z</time>
      </trkpt>
      <trkpt lat="47.81726" lon="6.60308">
        <ele>466.9</ele>
        <time>2020-09-06T19:45:41Z</time>
      </trkpt>
      <trkpt lat="47.81717" lon="6.60314">
        <ele>466.7</ele>
        <time>2020-09-06T19:45:41Z</time>
      </trkpt>
      <trkpt lat="47.81708" lon="6.60322">
        <ele>466.4</ele>
        <time>2020-09-06T19:45:41Z</time>
      </trkpt>
      <trkpt lat="47.81693" lon="6.60333">
        <ele>466</ele>
        <time>2020-09-06T19:45:41Z</time>
      </trkpt>
      <trkpt lat="47.81682" lon="6.60342">
        <ele>465.8</ele>
        <time>2020-09-06T19:45:41Z</time>
      </trkpt>
      <trkpt lat="47.81677" lon="6.60347">
        <ele>465.2</ele>
        <time>2020-09-06T19:45:41Z</time>
      </trkpt>
      <trkpt lat="47.81672" lon="6.60352">
        <ele>465</ele>
        <time>2020-09-06T19:45:41Z</time>
      </trkpt>
      <trkpt lat="47.81669" lon="6.60358">
        <ele>464.9</ele>
        <time>2020-09-06T19:45:41Z</time>
      </trkpt>
      <trkpt lat="47.81666" lon="6.60364">
        <ele>464.8</ele>
        <time>2020-09-06T19:45:41Z</time>
      </trkpt>
      <trkpt lat="47.81662" lon="6.60375">
        <ele>464.5</ele>
        <time>2020-09-06T19:45:41Z</time>
      </trkpt>
      <trkpt lat="47.8166" lon="6.60382">
        <ele>464.4</ele>
        <time>2020-09-06T19:45:41Z</time>
      </trkpt>
      <trkpt lat="47.81657" lon="6.60394">
        <ele>464.4</ele>
        <time>2020-09-06T19:45:41Z</time>
      </trkpt>
      <trkpt lat="47.81654" lon="6.60405">
        <ele>464.2</ele>
        <time>2020-09-06T19:45:41Z</time>
      </trkpt>
      <trkpt lat="47.81652" lon="6.60418">
        <ele>464.1</ele>
        <time>2020-09-06T19:45:41Z</time>
      </trkpt>
      <trkpt lat="47.81648" lon="6.6043">
        <ele>464</ele>
        <time>2020-09-06T19:45:41Z</time>
      </trkpt>
      <trkpt lat="47.81644" lon="6.60444">
        <ele>464</ele>
        <time>2020-09-06T19:45:41Z</time>
      </trkpt>
      <trkpt lat="47.8164" lon="6.60453">
        <ele>464</ele>
        <time>2020-09-06T19:45:41Z</time>
      </trkpt>
      <trkpt lat="47.81636" lon="6.60462">
        <ele>464</ele>
        <time>2020-09-06T19:45:41Z</time>
      </trkpt>
      <trkpt lat="47.81633" lon="6.60472">
        <ele>464.1</ele>
        <time>2020-09-06T19:45:41Z</time>
      </trkpt>
      <trkpt lat="47.81626" lon="6.60484">
        <ele>464.3</ele>
        <time>2020-09-06T19:45:41Z</time>
      </trkpt>
      <trkpt lat="47.81621" lon="6.60494">
        <ele>464.6</ele>
        <time>2020-09-06T19:45:41Z</time>
      </trkpt>
      <trkpt lat="47.81617" lon="6.60503">
        <ele>464.9</ele>
        <time>2020-09-06T19:45:41Z</time>
      </trkpt>
      <trkpt lat="47.81615" lon="6.6051">
        <ele>465.2</ele>
        <time>2020-09-06T19:45:41Z</time>
      </trkpt>
      <trkpt lat="47.81611" lon="6.60522">
        <ele>465.5</ele>
        <time>2020-09-06T19:45:41Z</time>
      </trkpt>
      <trkpt lat="47.81609" lon="6.6053">
        <ele>465.5</ele>
        <time>2020-09-06T19:45:41Z</time>
      </trkpt>
      <trkpt lat="47.81607" lon="6.60538">
        <ele>465.8</ele>
        <time>2020-09-06T19:45:41Z</time>
      </trkpt>
      <trkpt lat="47.81606" lon="6.60546">
        <ele>466</ele>
        <time>2020-09-06T19:45:41Z</time>
      </trkpt>
      <trkpt lat="47.81605" lon="6.60554">
        <ele>466.2</ele>
        <time>2020-09-06T19:45:41Z</time>
      </trkpt>
      <trkpt lat="47.81605" lon="6.60561">
        <ele>466.3</ele>
        <time>2020-09-06T19:45:41Z</time>
      </trkpt>
      <trkpt lat="47.81605" lon="6.60569">
        <ele>466.6</ele>
        <time>2020-09-06T19:45:41Z</time>
      </trkpt>
      <trkpt lat="47.81606" lon="6.60576">
        <ele>466.7</ele>
        <time>2020-09-06T19:45:41Z</time>
      </trkpt>
      <trkpt lat="47.81607" lon="6.60585">
        <ele>467.1</ele>
        <time>2020-09-06T19:45:41Z</time>
      </trkpt>
      <trkpt lat="47.81609" lon="6.60594">
        <ele>467.4</ele>
        <time>2020-09-06T19:45:41Z</time>
      </trkpt>
      <trkpt lat="47.81611" lon="6.60601">
        <ele>467.7</ele>
        <time>2020-09-06T19:45:41Z</time>
      </trkpt>
      <trkpt lat="47.81615" lon="6.60613">
        <ele>467.9</ele>
        <time>2020-09-06T19:45:41Z</time>
      </trkpt>
      <trkpt lat="47.8162" lon="6.60625">
        <ele>468.4</ele>
        <time>2020-09-06T19:45:41Z</time>
      </trkpt>
      <trkpt lat="47.81623" lon="6.60631">
        <ele>468.8</ele>
        <time>2020-09-06T19:45:41Z</time>
      </trkpt>
      <trkpt lat="47.81628" lon="6.60643">
        <ele>469.2</ele>
        <time>2020-09-06T19:45:41Z</time>
      </trkpt>
      <trkpt lat="47.81632" lon="6.60649">
        <ele>469.4</ele>
        <time>2020-09-06T19:45:41Z</time>
      </trkpt>
      <trkpt lat="47.81636" lon="6.6066">
        <ele>469.9</ele>
        <time>2020-09-06T19:45:41Z</time>
      </trkpt>
      <trkpt lat="47.81639" lon="6.60675">
        <ele>470.7</ele>
        <time>2020-09-06T19:45:41Z</time>
      </trkpt>
      <trkpt lat="47.81639" lon="6.60682">
        <ele>471.1</ele>
        <time>2020-09-06T19:45:41Z</time>
      </trkpt>
      <trkpt lat="47.8164" lon="6.6069">
        <ele>471.3</ele>
        <time>2020-09-06T19:45:41Z</time>
      </trkpt>
      <trkpt lat="47.81639" lon="6.60699">
        <ele>472.1</ele>
        <time>2020-09-06T19:45:41Z</time>
      </trkpt>
      <trkpt lat="47.81638" lon="6.60708">
        <ele>472.8</ele>
        <time>2020-09-06T19:45:41Z</time>
      </trkpt>
      <trkpt lat="47.81636" lon="6.60715">
        <ele>473</ele>
        <time>2020-09-06T19:45:41Z</time>
      </trkpt>
      <trkpt lat="47.81634" lon="6.60721">
        <ele>473.7</ele>
        <time>2020-09-06T19:45:41Z</time>
      </trkpt>
      <trkpt lat="47.81632" lon="6.60729">
        <ele>474.4</ele>
        <time>2020-09-06T19:45:41Z</time>
      </trkpt>
      <trkpt lat="47.81628" lon="6.60738">
        <ele>475.2</ele>
        <time>2020-09-06T19:45:41Z</time>
      </trkpt>
      <trkpt lat="47.81623" lon="6.60747">
        <ele>475.7</ele>
        <time>2020-09-06T19:45:41Z</time>
      </trkpt>
      <trkpt lat="47.81601" lon="6.60787">
        <ele>479.5</ele>
        <time>2020-09-06T19:45:41Z</time>
      </trkpt>
      <trkpt lat="47.81597" lon="6.60796">
        <ele>480.1</ele>
        <time>2020-09-06T19:45:41Z</time>
      </trkpt>
      <trkpt lat="47.81592" lon="6.60807">
        <ele>481.1</ele>
        <time>2020-09-06T19:45:41Z</time>
      </trkpt>
      <trkpt lat="47.81586" lon="6.60822">
        <ele>482.1</ele>
        <time>2020-09-06T19:45:41Z</time>
      </trkpt>
      <trkpt lat="47.81582" lon="6.60834">
        <ele>483.2</ele>
        <time>2020-09-06T19:45:41Z</time>
      </trkpt>
      <trkpt lat="47.81578" lon="6.60844">
        <ele>484.3</ele>
        <time>2020-09-06T19:45:41Z</time>
      </trkpt>
      <trkpt lat="47.81575" lon="6.60852">
        <ele>485.8</ele>
        <time>2020-09-06T19:45:41Z</time>
      </trkpt>
      <trkpt lat="47.81573" lon="6.6086">
        <ele>486.2</ele>
        <time>2020-09-06T19:45:41Z</time>
      </trkpt>
      <trkpt lat="47.81572" lon="6.60872">
        <ele>487</ele>
        <time>2020-09-06T19:45:41Z</time>
      </trkpt>
      <trkpt lat="47.81576" lon="6.60884">
        <ele>488.4</ele>
        <time>2020-09-06T19:45:41Z</time>
      </trkpt>
      <trkpt lat="47.81584" lon="6.60892">
        <ele>488.4</ele>
        <time>2020-09-06T19:45:41Z</time>
      </trkpt>
      <trkpt lat="47.8159" lon="6.60894">
        <ele>489.3</ele>
        <time>2020-09-06T19:45:41Z</time>
      </trkpt>
      <trkpt lat="47.81598" lon="6.60892">
        <ele>490.5</ele>
        <time>2020-09-06T19:45:41Z</time>
      </trkpt>
      <trkpt lat="47.81608" lon="6.60891">
        <ele>491.6</ele>
        <time>2020-09-06T19:45:41Z</time>
      </trkpt>
      <trkpt lat="47.81613" lon="6.60892">
        <ele>492.4</ele>
        <time>2020-09-06T19:45:41Z</time>
      </trkpt>
      <trkpt lat="47.81617" lon="6.609">
        <ele>492.6</ele>
        <time>2020-09-06T19:45:41Z</time>
      </trkpt>
      <trkpt lat="47.81625" lon="6.60916">
        <ele>493.8</ele>
        <time>2020-09-06T19:45:41Z</time>
      </trkpt>
      <trkpt lat="47.81628" lon="6.60925">
        <ele>494.3</ele>
        <time>2020-09-06T19:45:41Z</time>
      </trkpt>
      <trkpt lat="47.81631" lon="6.60933">
        <ele>495.4</ele>
        <time>2020-09-06T19:45:41Z</time>
      </trkpt>
      <trkpt lat="47.81632" lon="6.60945">
        <ele>495.6</ele>
        <time>2020-09-06T19:45:41Z</time>
      </trkpt>
      <trkpt lat="47.81629" lon="6.60956">
        <ele>496.5</ele>
        <time>2020-09-06T19:45:41Z</time>
      </trkpt>
      <trkpt lat="47.81626" lon="6.60962">
        <ele>497.1</ele>
        <time>2020-09-06T19:45:41Z</time>
      </trkpt>
      <trkpt lat="47.81615" lon="6.60982">
        <ele>498.2</ele>
        <time>2020-09-06T19:45:41Z</time>
      </trkpt>
      <trkpt lat="47.81605" lon="6.61003">
        <ele>500.1</ele>
        <time>2020-09-06T19:45:41Z</time>
      </trkpt>
      <trkpt lat="47.81601" lon="6.61012">
        <ele>500.5</ele>
        <time>2020-09-06T19:45:41Z</time>
      </trkpt>
      <trkpt lat="47.81597" lon="6.61021">
        <ele>501.2</ele>
        <time>2020-09-06T19:45:41Z</time>
      </trkpt>
      <trkpt lat="47.81595" lon="6.61031">
        <ele>501.6</ele>
        <time>2020-09-06T19:45:41Z</time>
      </trkpt>
      <trkpt lat="47.81593" lon="6.61041">
        <ele>502.2</ele>
        <time>2020-09-06T19:45:41Z</time>
      </trkpt>
      <trkpt lat="47.81591" lon="6.61051">
        <ele>503</ele>
        <time>2020-09-06T19:45:41Z</time>
      </trkpt>
      <trkpt lat="47.81591" lon="6.6106">
        <ele>503.5</ele>
        <time>2020-09-06T19:45:41Z</time>
      </trkpt>
      <trkpt lat="47.8159" lon="6.61078">
        <ele>504.6</ele>
        <time>2020-09-06T19:45:41Z</time>
      </trkpt>
      <trkpt lat="47.81582" lon="6.61183">
        <ele>510.1</ele>
        <time>2020-09-06T19:45:41Z</time>
      </trkpt>
      <trkpt lat="47.81574" lon="6.61295">
        <ele>513.5</ele>
        <time>2020-09-06T19:45:41Z</time>
      </trkpt>
      <trkpt lat="47.81568" lon="6.61365">
        <ele>516</ele>
        <time>2020-09-06T19:45:41Z</time>
      </trkpt>
      <trkpt lat="47.81562" lon="6.61439">
        <ele>518.4</ele>
        <time>2020-09-06T19:45:41Z</time>
      </trkpt>
      <trkpt lat="47.8156" lon="6.61456">
        <ele>517.9</ele>
        <time>2020-09-06T19:45:41Z</time>
      </trkpt>
      <trkpt lat="47.8156" lon="6.61463">
        <ele>517.8</ele>
        <time>2020-09-06T19:45:41Z</time>
      </trkpt>
      <trkpt lat="47.81561" lon="6.61473">
        <ele>517.4</ele>
        <time>2020-09-06T19:45:41Z</time>
      </trkpt>
      <trkpt lat="47.81563" lon="6.61484">
        <ele>516.8</ele>
        <time>2020-09-06T19:45:41Z</time>
      </trkpt>
      <trkpt lat="47.81566" lon="6.61497">
        <ele>517</ele>
        <time>2020-09-06T19:45:41Z</time>
      </trkpt>
      <trkpt lat="47.8157" lon="6.61515">
        <ele>516.4</ele>
        <time>2020-09-06T19:45:41Z</time>
      </trkpt>
      <trkpt lat="47.81584" lon="6.6158">
        <ele>514.6</ele>
        <time>2020-09-06T19:45:41Z</time>
      </trkpt>
      <trkpt lat="47.8159" lon="6.61605">
        <ele>514.6</ele>
        <time>2020-09-06T19:45:41Z</time>
      </trkpt>
      <trkpt lat="47.81593" lon="6.61623">
        <ele>513.6</ele>
        <time>2020-09-06T19:45:41Z</time>
      </trkpt>
      <trkpt lat="47.816" lon="6.61652">
        <ele>513.5</ele>
        <time>2020-09-06T19:45:41Z</time>
      </trkpt>
      <trkpt lat="47.81604" lon="6.6167">
        <ele>512.4</ele>
        <time>2020-09-06T19:45:41Z</time>
      </trkpt>
      <trkpt lat="47.8161" lon="6.61684">
        <ele>512</ele>
        <time>2020-09-06T19:45:41Z</time>
      </trkpt>
      <trkpt lat="47.81644" lon="6.61748">
        <ele>514</ele>
        <time>2020-09-06T19:45:41Z</time>
      </trkpt>
      <trkpt lat="47.81654" lon="6.61767">
        <ele>515.7</ele>
        <time>2020-09-06T19:45:41Z</time>
      </trkpt>
      <trkpt lat="47.81659" lon="6.61784">
        <ele>514.4</ele>
        <time>2020-09-06T19:45:41Z</time>
      </trkpt>
      <trkpt lat="47.81661" lon="6.61795">
        <ele>513.4</ele>
        <time>2020-09-06T19:45:41Z</time>
      </trkpt>
      <trkpt lat="47.81661" lon="6.61806">
        <ele>513.1</ele>
        <time>2020-09-06T19:45:41Z</time>
      </trkpt>
      <trkpt lat="47.81661" lon="6.61812">
        <ele>513.1</ele>
        <time>2020-09-06T19:45:41Z</time>
      </trkpt>
      <trkpt lat="47.81657" lon="6.61827">
        <ele>512.9</ele>
        <time>2020-09-06T19:45:41Z</time>
      </trkpt>
      <trkpt lat="47.8165" lon="6.61839">
        <ele>513.1</ele>
        <time>2020-09-06T19:45:41Z</time>
      </trkpt>
      <trkpt lat="47.81638" lon="6.61865">
        <ele>513.2</ele>
        <time>2020-09-06T19:45:41Z</time>
      </trkpt>
      <trkpt lat="47.81627" lon="6.61888">
        <ele>513.1</ele>
        <time>2020-09-06T19:45:41Z</time>
      </trkpt>
      <trkpt lat="47.81617" lon="6.61906">
        <ele>512.9</ele>
        <time>2020-09-06T19:45:41Z</time>
      </trkpt>
      <trkpt lat="47.81608" lon="6.61922">
        <ele>513.1</ele>
        <time>2020-09-06T19:45:41Z</time>
      </trkpt>
      <trkpt lat="47.81595" lon="6.6194">
        <ele>512.9</ele>
        <time>2020-09-06T19:45:41Z</time>
      </trkpt>
      <trkpt lat="47.81579" lon="6.61958">
        <ele>511.5</ele>
        <time>2020-09-06T19:45:41Z</time>
      </trkpt>
      <trkpt lat="47.8156" lon="6.6198">
        <ele>510.1</ele>
        <time>2020-09-06T19:45:41Z</time>
      </trkpt>
      <trkpt lat="47.81546" lon="6.61998">
        <ele>509</ele>
        <time>2020-09-06T19:45:41Z</time>
      </trkpt>
      <trkpt lat="47.81537" lon="6.62009">
        <ele>508.5</ele>
        <time>2020-09-06T19:45:41Z</time>
      </trkpt>
      <trkpt lat="47.81531" lon="6.62019">
        <ele>508.2</ele>
        <time>2020-09-06T19:45:41Z</time>
      </trkpt>
      <trkpt lat="47.81525" lon="6.62031">
        <ele>507.8</ele>
        <time>2020-09-06T19:45:41Z</time>
      </trkpt>
      <trkpt lat="47.81516" lon="6.62051">
        <ele>506.4</ele>
        <time>2020-09-06T19:45:41Z</time>
      </trkpt>
      <trkpt lat="47.8151" lon="6.62067">
        <ele>506.3</ele>
        <time>2020-09-06T19:45:41Z</time>
      </trkpt>
      <trkpt lat="47.81507" lon="6.62082">
        <ele>506.9</ele>
        <time>2020-09-06T19:45:41Z</time>
      </trkpt>
      <trkpt lat="47.81501" lon="6.62104">
        <ele>507.5</ele>
        <time>2020-09-06T19:45:41Z</time>
      </trkpt>
      <trkpt lat="47.81494" lon="6.62122">
        <ele>507.4</ele>
        <time>2020-09-06T19:45:41Z</time>
      </trkpt>
      <trkpt lat="47.81489" lon="6.6214">
        <ele>507</ele>
        <time>2020-09-06T19:45:41Z</time>
      </trkpt>
      <trkpt lat="47.81484" lon="6.62153">
        <ele>506.7</ele>
        <time>2020-09-06T19:45:41Z</time>
      </trkpt>
      <trkpt lat="47.81477" lon="6.62165">
        <ele>506.4</ele>
        <time>2020-09-06T19:45:41Z</time>
      </trkpt>
      <trkpt lat="47.81465" lon="6.62185">
        <ele>506</ele>
        <time>2020-09-06T19:45:41Z</time>
      </trkpt>
      <trkpt lat="47.81456" lon="6.62198">
        <ele>504.3</ele>
        <time>2020-09-06T19:45:41Z</time>
      </trkpt>
      <trkpt lat="47.81445" lon="6.6221">
        <ele>503.2</ele>
        <time>2020-09-06T19:45:41Z</time>
      </trkpt>
      <trkpt lat="47.81426" lon="6.62233">
        <ele>502.3</ele>
        <time>2020-09-06T19:45:41Z</time>
      </trkpt>
      <trkpt lat="47.81409" lon="6.62251">
        <ele>501.5</ele>
        <time>2020-09-06T19:45:41Z</time>
      </trkpt>
      <trkpt lat="47.81396" lon="6.62263">
        <ele>501.4</ele>
        <time>2020-09-06T19:45:41Z</time>
      </trkpt>
      <trkpt lat="47.8139" lon="6.62268">
        <ele>501.2</ele>
        <time>2020-09-06T19:45:41Z</time>
      </trkpt>
      <trkpt lat="47.81379" lon="6.62276">
        <ele>501.4</ele>
        <time>2020-09-06T19:45:41Z</time>
      </trkpt>
      <trkpt lat="47.81369" lon="6.62282">
        <ele>501.6</ele>
        <time>2020-09-06T19:45:41Z</time>
      </trkpt>
      <trkpt lat="47.81363" lon="6.62289">
        <ele>501.4</ele>
        <time>2020-09-06T19:45:41Z</time>
      </trkpt>
      <trkpt lat="47.81358" lon="6.62295">
        <ele>501.2</ele>
        <time>2020-09-06T19:45:41Z</time>
      </trkpt>
      <trkpt lat="47.81353" lon="6.62307">
        <ele>500.8</ele>
        <time>2020-09-06T19:45:41Z</time>
      </trkpt>
      <trkpt lat="47.81346" lon="6.6232">
        <ele>501.1</ele>
        <time>2020-09-06T19:45:41Z</time>
      </trkpt>
      <trkpt lat="47.8134" lon="6.62333">
        <ele>501.2</ele>
        <time>2020-09-06T19:45:41Z</time>
      </trkpt>
      <trkpt lat="47.81336" lon="6.62341">
        <ele>500.9</ele>
        <time>2020-09-06T19:45:41Z</time>
      </trkpt>
      <trkpt lat="47.81334" lon="6.62355">
        <ele>500.8</ele>
        <time>2020-09-06T19:45:41Z</time>
      </trkpt>
      <trkpt lat="47.81331" lon="6.62371">
        <ele>500.5</ele>
        <time>2020-09-06T19:45:41Z</time>
      </trkpt>
      <trkpt lat="47.81329" lon="6.62384">
        <ele>498</ele>
        <time>2020-09-06T19:45:41Z</time>
      </trkpt>
      <trkpt lat="47.81327" lon="6.62394">
        <ele>496.6</ele>
        <time>2020-09-06T19:45:41Z</time>
      </trkpt>
      <trkpt lat="47.81323" lon="6.62406">
        <ele>496.3</ele>
        <time>2020-09-06T19:45:41Z</time>
      </trkpt>
      <trkpt lat="47.8132" lon="6.62412">
        <ele>495.9</ele>
        <time>2020-09-06T19:45:41Z</time>
      </trkpt>
      <trkpt lat="47.81315" lon="6.62421">
        <ele>495.5</ele>
        <time>2020-09-06T19:45:41Z</time>
      </trkpt>
      <trkpt lat="47.81308" lon="6.62429">
        <ele>495.1</ele>
        <time>2020-09-06T19:45:41Z</time>
      </trkpt>
      <trkpt lat="47.81302" lon="6.62439">
        <ele>495</ele>
        <time>2020-09-06T19:45:41Z</time>
      </trkpt>
      <trkpt lat="47.81296" lon="6.62448">
        <ele>494.8</ele>
        <time>2020-09-06T19:45:41Z</time>
      </trkpt>
      <trkpt lat="47.81288" lon="6.62458">
        <ele>494.6</ele>
        <time>2020-09-06T19:45:41Z</time>
      </trkpt>
      <trkpt lat="47.81281" lon="6.62468">
        <ele>495</ele>
        <time>2020-09-06T19:45:41Z</time>
      </trkpt>
      <trkpt lat="47.81278" lon="6.62475">
        <ele>494.9</ele>
        <time>2020-09-06T19:45:41Z</time>
      </trkpt>
      <trkpt lat="47.81276" lon="6.62484">
        <ele>495.1</ele>
        <time>2020-09-06T19:45:41Z</time>
      </trkpt>
      <trkpt lat="47.81274" lon="6.62493">
        <ele>495</ele>
        <time>2020-09-06T19:45:41Z</time>
      </trkpt>
      <trkpt lat="47.81273" lon="6.62506">
        <ele>494.9</ele>
        <time>2020-09-06T19:45:41Z</time>
      </trkpt>
      <trkpt lat="47.81272" lon="6.62518">
        <ele>494.9</ele>
        <time>2020-09-06T19:45:41Z</time>
      </trkpt>
      <trkpt lat="47.81273" lon="6.62534">
        <ele>494.6</ele>
        <time>2020-09-06T19:45:41Z</time>
      </trkpt>
      <trkpt lat="47.81274" lon="6.62545">
        <ele>494.1</ele>
        <time>2020-09-06T19:45:41Z</time>
      </trkpt>
      <trkpt lat="47.81275" lon="6.62563">
        <ele>493.6</ele>
        <time>2020-09-06T19:45:41Z</time>
      </trkpt>
      <trkpt lat="47.81276" lon="6.62579">
        <ele>493.8</ele>
        <time>2020-09-06T19:45:41Z</time>
      </trkpt>
      <trkpt lat="47.81277" lon="6.62592">
        <ele>493.8</ele>
        <time>2020-09-06T19:45:41Z</time>
      </trkpt>
      <trkpt lat="47.81276" lon="6.62607">
        <ele>494</ele>
        <time>2020-09-06T19:45:41Z</time>
      </trkpt>
      <trkpt lat="47.81275" lon="6.6262">
        <ele>493.5</ele>
        <time>2020-09-06T19:45:41Z</time>
      </trkpt>
      <trkpt lat="47.81274" lon="6.62636">
        <ele>494.2</ele>
        <time>2020-09-06T19:45:41Z</time>
      </trkpt>
      <trkpt lat="47.81272" lon="6.62648">
        <ele>495</ele>
        <time>2020-09-06T19:45:41Z</time>
      </trkpt>
      <trkpt lat="47.81268" lon="6.62664">
        <ele>495</ele>
        <time>2020-09-06T19:45:41Z</time>
      </trkpt>
      <trkpt lat="47.81264" lon="6.62679">
        <ele>495.6</ele>
        <time>2020-09-06T19:45:41Z</time>
      </trkpt>
      <trkpt lat="47.81259" lon="6.62692">
        <ele>495.5</ele>
        <time>2020-09-06T19:45:41Z</time>
      </trkpt>
      <trkpt lat="47.81256" lon="6.627">
        <ele>495.1</ele>
        <time>2020-09-06T19:45:41Z</time>
      </trkpt>
      <trkpt lat="47.81256" lon="6.62709">
        <ele>495.2</ele>
        <time>2020-09-06T19:45:41Z</time>
      </trkpt>
      <trkpt lat="47.81256" lon="6.62718">
        <ele>495.1</ele>
        <time>2020-09-06T19:45:41Z</time>
      </trkpt>
      <trkpt lat="47.81258" lon="6.6273">
        <ele>495</ele>
        <time>2020-09-06T19:45:41Z</time>
      </trkpt>
      <trkpt lat="47.81263" lon="6.62749">
        <ele>495.4</ele>
        <time>2020-09-06T19:45:41Z</time>
      </trkpt>
      <trkpt lat="47.81273" lon="6.62774">
        <ele>495.8</ele>
        <time>2020-09-06T19:45:41Z</time>
      </trkpt>
      <trkpt lat="47.81286" lon="6.62796">
        <ele>497</ele>
        <time>2020-09-06T19:45:41Z</time>
      </trkpt>
      <trkpt lat="47.813" lon="6.62816">
        <ele>497.2</ele>
        <time>2020-09-06T19:45:41Z</time>
      </trkpt>
      <trkpt lat="47.81313" lon="6.62831">
        <ele>498.1</ele>
        <time>2020-09-06T19:45:41Z</time>
      </trkpt>
      <trkpt lat="47.81322" lon="6.62845">
        <ele>497.6</ele>
        <time>2020-09-06T19:45:41Z</time>
      </trkpt>
      <trkpt lat="47.81329" lon="6.62861">
        <ele>497.9</ele>
        <time>2020-09-06T19:45:41Z</time>
      </trkpt>
      <trkpt lat="47.81335" lon="6.62886">
        <ele>498.3</ele>
        <time>2020-09-06T19:45:41Z</time>
      </trkpt>
      <trkpt lat="47.81337" lon="6.62901">
        <ele>498.8</ele>
        <time>2020-09-06T19:45:41Z</time>
      </trkpt>
      <trkpt lat="47.81337" lon="6.62922">
        <ele>498.9</ele>
        <time>2020-09-06T19:45:41Z</time>
      </trkpt>
      <trkpt lat="47.81337" lon="6.62939">
        <ele>498.5</ele>
        <time>2020-09-06T19:45:41Z</time>
      </trkpt>
      <trkpt lat="47.81338" lon="6.62958">
        <ele>497.9</ele>
        <time>2020-09-06T19:45:41Z</time>
      </trkpt>
      <trkpt lat="47.81343" lon="6.63023">
        <ele>497.1</ele>
        <time>2020-09-06T19:45:41Z</time>
      </trkpt>
      <trkpt lat="47.81349" lon="6.63121">
        <ele>498.1</ele>
        <time>2020-09-06T19:45:41Z</time>
      </trkpt>
      <trkpt lat="47.81351" lon="6.63152">
        <ele>497.6</ele>
        <time>2020-09-06T19:45:41Z</time>
      </trkpt>
      <trkpt lat="47.81353" lon="6.63166">
        <ele>497.6</ele>
        <time>2020-09-06T19:45:41Z</time>
      </trkpt>
      <trkpt lat="47.81359" lon="6.63182">
        <ele>497.9</ele>
        <time>2020-09-06T19:45:41Z</time>
      </trkpt>
      <trkpt lat="47.8137" lon="6.63208">
        <ele>498.2</ele>
        <time>2020-09-06T19:45:41Z</time>
      </trkpt>
      <trkpt lat="47.81376" lon="6.63223">
        <ele>498.6</ele>
        <time>2020-09-06T19:45:41Z</time>
      </trkpt>
      <trkpt lat="47.8138" lon="6.63235">
        <ele>498.9</ele>
        <time>2020-09-06T19:45:41Z</time>
      </trkpt>
      <trkpt lat="47.81383" lon="6.6325">
        <ele>499.1</ele>
        <time>2020-09-06T19:45:41Z</time>
      </trkpt>
      <trkpt lat="47.81383" lon="6.63281">
        <ele>499.9</ele>
        <time>2020-09-06T19:45:41Z</time>
      </trkpt>
      <trkpt lat="47.81382" lon="6.63324">
        <ele>502.1</ele>
        <time>2020-09-06T19:45:41Z</time>
      </trkpt>
      <trkpt lat="47.81379" lon="6.63354">
        <ele>504.4</ele>
        <time>2020-09-06T19:45:41Z</time>
      </trkpt>
      <trkpt lat="47.81378" lon="6.63365">
        <ele>505.8</ele>
        <time>2020-09-06T19:45:41Z</time>
      </trkpt>
      <trkpt lat="47.81376" lon="6.63382">
        <ele>507.6</ele>
        <time>2020-09-06T19:45:41Z</time>
      </trkpt>
      <trkpt lat="47.81375" lon="6.63411">
        <ele>510.1</ele>
        <time>2020-09-06T19:45:41Z</time>
      </trkpt>
      <trkpt lat="47.81372" lon="6.63445">
        <ele>512.1</ele>
        <time>2020-09-06T19:45:41Z</time>
      </trkpt>
      <trkpt lat="47.81372" lon="6.63475">
        <ele>513.5</ele>
        <time>2020-09-06T19:45:41Z</time>
      </trkpt>
      <trkpt lat="47.81375" lon="6.63484">
        <ele>514</ele>
        <time>2020-09-06T19:45:41Z</time>
      </trkpt>
      <trkpt lat="47.81378" lon="6.63492">
        <ele>514.4</ele>
        <time>2020-09-06T19:45:41Z</time>
      </trkpt>
      <trkpt lat="47.81381" lon="6.63503">
        <ele>515.4</ele>
        <time>2020-09-06T19:45:41Z</time>
      </trkpt>
      <trkpt lat="47.81386" lon="6.63517">
        <ele>516.5</ele>
        <time>2020-09-06T19:45:41Z</time>
      </trkpt>
      <trkpt lat="47.81396" lon="6.63537">
        <ele>519</ele>
        <time>2020-09-06T19:45:41Z</time>
      </trkpt>
      <trkpt lat="47.81417" lon="6.63578">
        <ele>522.8</ele>
        <time>2020-09-06T19:45:41Z</time>
      </trkpt>
      <trkpt lat="47.81442" lon="6.63621">
        <ele>519.7</ele>
        <time>2020-09-06T19:45:41Z</time>
      </trkpt>
      <trkpt lat="47.81454" lon="6.63644">
        <ele>517.4</ele>
        <time>2020-09-06T19:45:41Z</time>
      </trkpt>
      <trkpt lat="47.81459" lon="6.63654">
        <ele>517</ele>
        <time>2020-09-06T19:45:41Z</time>
      </trkpt>
      <trkpt lat="47.81464" lon="6.63663">
        <ele>516.9</ele>
        <time>2020-09-06T19:45:41Z</time>
      </trkpt>
      <trkpt lat="47.81465" lon="6.63671">
        <ele>517</ele>
        <time>2020-09-06T19:45:41Z</time>
      </trkpt>
      <trkpt lat="47.81467" lon="6.6368">
        <ele>516.9</ele>
        <time>2020-09-06T19:45:41Z</time>
      </trkpt>
      <trkpt lat="47.81467" lon="6.6369">
        <ele>516.9</ele>
        <time>2020-09-06T19:45:41Z</time>
      </trkpt>
      <trkpt lat="47.81465" lon="6.63713">
        <ele>516.8</ele>
        <time>2020-09-06T19:45:41Z</time>
      </trkpt>
      <trkpt lat="47.81462" lon="6.63731">
        <ele>516.2</ele>
        <time>2020-09-06T19:45:41Z</time>
      </trkpt>
      <trkpt lat="47.81457" lon="6.6376">
        <ele>516.5</ele>
        <time>2020-09-06T19:45:41Z</time>
      </trkpt>
      <trkpt lat="47.81456" lon="6.6378">
        <ele>515.5</ele>
        <time>2020-09-06T19:45:41Z</time>
      </trkpt>
      <trkpt lat="47.81458" lon="6.63812">
        <ele>514.9</ele>
        <time>2020-09-06T19:45:41Z</time>
      </trkpt>
      <trkpt lat="47.81457" lon="6.63823">
        <ele>515.2</ele>
        <time>2020-09-06T19:45:41Z</time>
      </trkpt>
      <trkpt lat="47.81455" lon="6.63835">
        <ele>515.7</ele>
        <time>2020-09-06T19:45:41Z</time>
      </trkpt>
      <trkpt lat="47.81451" lon="6.63855">
        <ele>517.6</ele>
        <time>2020-09-06T19:45:41Z</time>
      </trkpt>
      <trkpt lat="47.81451" lon="6.63868">
        <ele>518.3</ele>
        <time>2020-09-06T19:45:41Z</time>
      </trkpt>
      <trkpt lat="47.81452" lon="6.63891">
        <ele>518.4</ele>
        <time>2020-09-06T19:45:41Z</time>
      </trkpt>
      <trkpt lat="47.81453" lon="6.63902">
        <ele>518.7</ele>
        <time>2020-09-06T19:45:41Z</time>
      </trkpt>
      <trkpt lat="47.81445" lon="6.63957">
        <ele>519.4</ele>
        <time>2020-09-06T19:45:41Z</time>
      </trkpt>
      <trkpt lat="47.81446" lon="6.63987">
        <ele>517.7</ele>
        <time>2020-09-06T19:45:41Z</time>
      </trkpt>
      <trkpt lat="47.81446" lon="6.63998">
        <ele>517.2</ele>
        <time>2020-09-06T19:45:41Z</time>
      </trkpt>
      <trkpt lat="47.81461" lon="6.64046">
        <ele>517.8</ele>
        <time>2020-09-06T19:45:41Z</time>
      </trkpt>
      <trkpt lat="47.81462" lon="6.64056">
        <ele>518</ele>
        <time>2020-09-06T19:45:41Z</time>
      </trkpt>
      <trkpt lat="47.81464" lon="6.6407">
        <ele>518.1</ele>
        <time>2020-09-06T19:45:41Z</time>
      </trkpt>
      <trkpt lat="47.81464" lon="6.64084">
        <ele>518.2</ele>
        <time>2020-09-06T19:45:41Z</time>
      </trkpt>
      <trkpt lat="47.81461" lon="6.64095">
        <ele>518.4</ele>
        <time>2020-09-06T19:45:41Z</time>
      </trkpt>
      <trkpt lat="47.81449" lon="6.6411">
        <ele>519.1</ele>
        <time>2020-09-06T19:45:41Z</time>
      </trkpt>
      <trkpt lat="47.81441" lon="6.64116">
        <ele>519.7</ele>
        <time>2020-09-06T19:45:41Z</time>
      </trkpt>
      <trkpt lat="47.81433" lon="6.64137">
        <ele>521.1</ele>
        <time>2020-09-06T19:45:41Z</time>
      </trkpt>
      <trkpt lat="47.81429" lon="6.6415">
        <ele>521.9</ele>
        <time>2020-09-06T19:45:41Z</time>
      </trkpt>
      <trkpt lat="47.81421" lon="6.64175">
        <ele>523.6</ele>
        <time>2020-09-06T19:45:41Z</time>
      </trkpt>
      <trkpt lat="47.81421" lon="6.64192">
        <ele>524.4</ele>
        <time>2020-09-06T19:45:41Z</time>
      </trkpt>
      <trkpt lat="47.81423" lon="6.64213">
        <ele>526.4</ele>
        <time>2020-09-06T19:45:41Z</time>
      </trkpt>
      <trkpt lat="47.81423" lon="6.64246">
        <ele>528.9</ele>
        <time>2020-09-06T19:45:41Z</time>
      </trkpt>
      <trkpt lat="47.81428" lon="6.64281">
        <ele>531.8</ele>
        <time>2020-09-06T19:45:41Z</time>
      </trkpt>
      <trkpt lat="47.81431" lon="6.64305">
        <ele>533.3</ele>
        <time>2020-09-06T19:45:41Z</time>
      </trkpt>
      <trkpt lat="47.81434" lon="6.64324">
        <ele>533.8</ele>
        <time>2020-09-06T19:45:41Z</time>
      </trkpt>
      <trkpt lat="47.81434" lon="6.64341">
        <ele>535</ele>
        <time>2020-09-06T19:45:41Z</time>
      </trkpt>
      <trkpt lat="47.81432" lon="6.64371">
        <ele>536.5</ele>
        <time>2020-09-06T19:45:41Z</time>
      </trkpt>
      <trkpt lat="47.81433" lon="6.64391">
        <ele>537.7</ele>
        <time>2020-09-06T19:45:41Z</time>
      </trkpt>
      <trkpt lat="47.81437" lon="6.64406">
        <ele>537.6</ele>
        <time>2020-09-06T19:45:41Z</time>
      </trkpt>
      <trkpt lat="47.81437" lon="6.64429">
        <ele>539</ele>
        <time>2020-09-06T19:45:41Z</time>
      </trkpt>
      <trkpt lat="47.8144" lon="6.64451">
        <ele>538.4</ele>
        <time>2020-09-06T19:45:41Z</time>
      </trkpt>
      <trkpt lat="47.81444" lon="6.64475">
        <ele>537.7</ele>
        <time>2020-09-06T19:45:41Z</time>
      </trkpt>
      <trkpt lat="47.81449" lon="6.64498">
        <ele>538.2</ele>
        <time>2020-09-06T19:45:41Z</time>
      </trkpt>
      <trkpt lat="47.81454" lon="6.64517">
        <ele>538.3</ele>
        <time>2020-09-06T19:45:41Z</time>
      </trkpt>
      <trkpt lat="47.81459" lon="6.64541">
        <ele>538.6</ele>
        <time>2020-09-06T19:45:41Z</time>
      </trkpt>
      <trkpt lat="47.81462" lon="6.64563">
        <ele>538</ele>
        <time>2020-09-06T19:45:41Z</time>
      </trkpt>
      <trkpt lat="47.81465" lon="6.64584">
        <ele>537.7</ele>
        <time>2020-09-06T19:45:41Z</time>
      </trkpt>
      <trkpt lat="47.81468" lon="6.6461">
        <ele>538.2</ele>
        <time>2020-09-06T19:45:41Z</time>
      </trkpt>
      <trkpt lat="47.81472" lon="6.64637">
        <ele>538.2</ele>
        <time>2020-09-06T19:45:41Z</time>
      </trkpt>
      <trkpt lat="47.81479" lon="6.64667">
        <ele>537.7</ele>
        <time>2020-09-06T19:45:41Z</time>
      </trkpt>
      <trkpt lat="47.81487" lon="6.64695">
        <ele>537.9</ele>
        <time>2020-09-06T19:45:41Z</time>
      </trkpt>
      <trkpt lat="47.81497" lon="6.64731">
        <ele>538.7</ele>
        <time>2020-09-06T19:45:41Z</time>
      </trkpt>
      <trkpt lat="47.81497" lon="6.64759">
        <ele>539.7</ele>
        <time>2020-09-06T19:45:41Z</time>
      </trkpt>
      <trkpt lat="47.81493" lon="6.64825">
        <ele>541.5</ele>
        <time>2020-09-06T19:45:41Z</time>
      </trkpt>
      <trkpt lat="47.81493" lon="6.64884">
        <ele>542.7</ele>
        <time>2020-09-06T19:45:41Z</time>
      </trkpt>
      <trkpt lat="47.81499" lon="6.64947">
        <ele>544</ele>
        <time>2020-09-06T19:45:41Z</time>
      </trkpt>
      <trkpt lat="47.81508" lon="6.65051">
        <ele>541.2</ele>
        <time>2020-09-06T19:45:41Z</time>
      </trkpt>
      <trkpt lat="47.81516" lon="6.65074">
        <ele>540.2</ele>
        <time>2020-09-06T19:45:41Z</time>
      </trkpt>
      <trkpt lat="47.81541" lon="6.65125">
        <ele>539.3</ele>
        <time>2020-09-06T19:45:41Z</time>
      </trkpt>
      <trkpt lat="47.81556" lon="6.6516">
        <ele>539.7</ele>
        <time>2020-09-06T19:45:41Z</time>
      </trkpt>
      <trkpt lat="47.81576" lon="6.65246">
        <ele>538.7</ele>
        <time>2020-09-06T19:45:41Z</time>
      </trkpt>
      <trkpt lat="47.81577" lon="6.65258">
        <ele>539.5</ele>
        <time>2020-09-06T19:45:41Z</time>
      </trkpt>
      <trkpt lat="47.81574" lon="6.65269">
        <ele>539</ele>
        <time>2020-09-06T19:45:41Z</time>
      </trkpt>
      <trkpt lat="47.81566" lon="6.65288">
        <ele>539.2</ele>
        <time>2020-09-06T19:45:41Z</time>
      </trkpt>
      <trkpt lat="47.81554" lon="6.6533">
        <ele>539.5</ele>
        <time>2020-09-06T19:45:41Z</time>
      </trkpt>
      <trkpt lat="47.8155" lon="6.65374">
        <ele>539.6</ele>
        <time>2020-09-06T19:45:41Z</time>
      </trkpt>
      <trkpt lat="47.81551" lon="6.65437">
        <ele>540</ele>
        <time>2020-09-06T19:45:41Z</time>
      </trkpt>
      <trkpt lat="47.81551" lon="6.6549">
        <ele>539.5</ele>
        <time>2020-09-06T19:45:41Z</time>
      </trkpt>
      <trkpt lat="47.81549" lon="6.65499">
        <ele>539.1</ele>
        <time>2020-09-06T19:45:41Z</time>
      </trkpt>
      <trkpt lat="47.81543" lon="6.6551">
        <ele>539.2</ele>
        <time>2020-09-06T19:45:41Z</time>
      </trkpt>
      <trkpt lat="47.81537" lon="6.6552">
        <ele>538.7</ele>
        <time>2020-09-06T19:45:41Z</time>
      </trkpt>
      <trkpt lat="47.81531" lon="6.65536">
        <ele>537.6</ele>
        <time>2020-09-06T19:45:41Z</time>
      </trkpt>
      <trkpt lat="47.81529" lon="6.65547">
        <ele>537.2</ele>
        <time>2020-09-06T19:45:41Z</time>
      </trkpt>
      <trkpt lat="47.81528" lon="6.65577">
        <ele>535</ele>
        <time>2020-09-06T19:45:41Z</time>
      </trkpt>
      <trkpt lat="47.81528" lon="6.65641">
        <ele>530.4</ele>
        <time>2020-09-06T19:45:41Z</time>
      </trkpt>
      <trkpt lat="47.8153" lon="6.65719">
        <ele>524.9</ele>
        <time>2020-09-06T19:45:41Z</time>
      </trkpt>
      <trkpt lat="47.81534" lon="6.65767">
        <ele>518.9</ele>
        <time>2020-09-06T19:45:41Z</time>
      </trkpt>
      <trkpt lat="47.81538" lon="6.65816">
        <ele>512.6</ele>
        <time>2020-09-06T19:45:41Z</time>
      </trkpt>
      <trkpt lat="47.81543" lon="6.65845">
        <ele>510</ele>
        <time>2020-09-06T19:45:41Z</time>
      </trkpt>
      <trkpt lat="47.81548" lon="6.65867">
        <ele>508.2</ele>
        <time>2020-09-06T19:45:41Z</time>
      </trkpt>
      <trkpt lat="47.81556" lon="6.6588">
        <ele>507.5</ele>
        <time>2020-09-06T19:45:41Z</time>
      </trkpt>
      <trkpt lat="47.81561" lon="6.65888">
        <ele>507.3</ele>
        <time>2020-09-06T19:45:41Z</time>
      </trkpt>
      <trkpt lat="47.81573" lon="6.65907">
        <ele>507.4</ele>
        <time>2020-09-06T19:45:41Z</time>
      </trkpt>
      <trkpt lat="47.81581" lon="6.65933">
        <ele>507.5</ele>
        <time>2020-09-06T19:45:41Z</time>
      </trkpt>
      <trkpt lat="47.81585" lon="6.65959">
        <ele>507.8</ele>
        <time>2020-09-06T19:45:41Z</time>
      </trkpt>
      <trkpt lat="47.81586" lon="6.65972">
        <ele>507.9</ele>
        <time>2020-09-06T19:45:41Z</time>
      </trkpt>
      <trkpt lat="47.81589" lon="6.65983">
        <ele>508</ele>
        <time>2020-09-06T19:45:41Z</time>
      </trkpt>
      <trkpt lat="47.81591" lon="6.66003">
        <ele>508.4</ele>
        <time>2020-09-06T19:45:41Z</time>
      </trkpt>
      <trkpt lat="47.8159" lon="6.66021">
        <ele>509.1</ele>
        <time>2020-09-06T19:45:41Z</time>
      </trkpt>
      <trkpt lat="47.81586" lon="6.66032">
        <ele>509.2</ele>
        <time>2020-09-06T19:45:41Z</time>
      </trkpt>
      <trkpt lat="47.8158" lon="6.66043">
        <ele>509.8</ele>
        <time>2020-09-06T19:45:41Z</time>
      </trkpt>
      <trkpt lat="47.81576" lon="6.66068">
        <ele>510.2</ele>
        <time>2020-09-06T19:45:41Z</time>
      </trkpt>
      <trkpt lat="47.81578" lon="6.66111">
        <ele>510.8</ele>
        <time>2020-09-06T19:45:41Z</time>
      </trkpt>
      <trkpt lat="47.81577" lon="6.66166">
        <ele>512</ele>
        <time>2020-09-06T19:45:41Z</time>
      </trkpt>
      <trkpt lat="47.81581" lon="6.66248">
        <ele>514</ele>
        <time>2020-09-06T19:45:41Z</time>
      </trkpt>
      <trkpt lat="47.81583" lon="6.66275">
        <ele>514.9</ele>
        <time>2020-09-06T19:45:41Z</time>
      </trkpt>
      <trkpt lat="47.81587" lon="6.66294">
        <ele>515.2</ele>
        <time>2020-09-06T19:45:41Z</time>
      </trkpt>
      <trkpt lat="47.81602" lon="6.6634">
        <ele>516.1</ele>
        <time>2020-09-06T19:45:41Z</time>
      </trkpt>
      <trkpt lat="47.81622" lon="6.66413">
        <ele>517</ele>
        <time>2020-09-06T19:45:41Z</time>
      </trkpt>
      <trkpt lat="47.8163" lon="6.66444">
        <ele>516.7</ele>
        <time>2020-09-06T19:45:41Z</time>
      </trkpt>
      <trkpt lat="47.81634" lon="6.66458">
        <ele>516.9</ele>
        <time>2020-09-06T19:45:41Z</time>
      </trkpt>
      <trkpt lat="47.81629" lon="6.66461">
        <ele>516.6</ele>
        <time>2020-09-06T19:45:41Z</time>
      </trkpt>
      <trkpt lat="47.81603" lon="6.66491">
        <ele>512.5</ele>
        <time>2020-09-06T19:45:41Z</time>
      </trkpt>
      <trkpt lat="47.81579" lon="6.66518">
        <ele>506.9</ele>
        <time>2020-09-06T19:45:41Z</time>
      </trkpt>
      <trkpt lat="47.81569" lon="6.66539">
        <ele>505.2</ele>
        <time>2020-09-06T19:45:41Z</time>
      </trkpt>
      <trkpt lat="47.81564" lon="6.66562">
        <ele>502.3</ele>
        <time>2020-09-06T19:45:41Z</time>
      </trkpt>
      <trkpt lat="47.81564" lon="6.66586">
        <ele>499.7</ele>
        <time>2020-09-06T19:45:41Z</time>
      </trkpt>
      <trkpt lat="47.81569" lon="6.66609">
        <ele>496.8</ele>
        <time>2020-09-06T19:45:41Z</time>
      </trkpt>
      <trkpt lat="47.81574" lon="6.66628">
        <ele>494.2</ele>
        <time>2020-09-06T19:45:41Z</time>
      </trkpt>
      <trkpt lat="47.81582" lon="6.66647">
        <ele>491.1</ele>
        <time>2020-09-06T19:45:41Z</time>
      </trkpt>
      <trkpt lat="47.81592" lon="6.66669">
        <ele>488</ele>
        <time>2020-09-06T19:45:41Z</time>
      </trkpt>
      <trkpt lat="47.81596" lon="6.66693">
        <ele>485.2</ele>
        <time>2020-09-06T19:45:41Z</time>
      </trkpt>
      <trkpt lat="47.81595" lon="6.66718">
        <ele>482.1</ele>
        <time>2020-09-06T19:45:41Z</time>
      </trkpt>
      <trkpt lat="47.81592" lon="6.66734">
        <ele>480</ele>
        <time>2020-09-06T19:45:41Z</time>
      </trkpt>
      <trkpt lat="47.81581" lon="6.66761">
        <ele>476.5</ele>
        <time>2020-09-06T19:45:41Z</time>
      </trkpt>
      <trkpt lat="47.81571" lon="6.66795">
        <ele>471.4</ele>
        <time>2020-09-06T19:45:41Z</time>
      </trkpt>
      <trkpt lat="47.81567" lon="6.66823">
        <ele>467.8</ele>
        <time>2020-09-06T19:45:41Z</time>
      </trkpt>
      <trkpt lat="47.81565" lon="6.66837">
        <ele>466.3</ele>
        <time>2020-09-06T19:45:41Z</time>
      </trkpt>
      <trkpt lat="47.81558" lon="6.66859">
        <ele>463.8</ele>
        <time>2020-09-06T19:45:41Z</time>
      </trkpt>
      <trkpt lat="47.8154" lon="6.66896">
        <ele>459.3</ele>
        <time>2020-09-06T19:45:41Z</time>
      </trkpt>
      <trkpt lat="47.81537" lon="6.66902">
        <ele>458.8</ele>
        <time>2020-09-06T19:45:41Z</time>
      </trkpt>
      <trkpt lat="47.81518" lon="6.66941">
        <ele>454.7</ele>
        <time>2020-09-06T19:45:41Z</time>
      </trkpt>
      <trkpt lat="47.81502" lon="6.66984">
        <ele>450.5</ele>
        <time>2020-09-06T19:45:41Z</time>
      </trkpt>
      <trkpt lat="47.81492" lon="6.67016">
        <ele>447.1</ele>
        <time>2020-09-06T19:45:41Z</time>
      </trkpt>
      <trkpt lat="47.81487" lon="6.67031">
        <ele>446</ele>
        <time>2020-09-06T19:45:41Z</time>
      </trkpt>
      <trkpt lat="47.8147" lon="6.67057">
        <ele>442.5</ele>
        <time>2020-09-06T19:45:41Z</time>
      </trkpt>
      <trkpt lat="47.81457" lon="6.67079">
        <ele>439.4</ele>
        <time>2020-09-06T19:45:41Z</time>
      </trkpt>
      <trkpt lat="47.81441" lon="6.67116">
        <ele>436.2</ele>
        <time>2020-09-06T19:45:41Z</time>
      </trkpt>
      <trkpt lat="47.81432" lon="6.67138">
        <ele>435.3</ele>
        <time>2020-09-06T19:45:41Z</time>
      </trkpt>
      <trkpt lat="47.8142" lon="6.67171">
        <ele>435.1</ele>
        <time>2020-09-06T19:45:41Z</time>
      </trkpt>
      <trkpt lat="47.8141" lon="6.67194">
        <ele>434.7</ele>
        <time>2020-09-06T19:45:41Z</time>
      </trkpt>
      <trkpt lat="47.81382" lon="6.67241">
        <ele>432.7</ele>
        <time>2020-09-06T19:45:41Z</time>
      </trkpt>
      <trkpt lat="47.81369" lon="6.67264">
        <ele>432.9</ele>
        <time>2020-09-06T19:45:41Z</time>
      </trkpt>
      <trkpt lat="47.81357" lon="6.6728">
        <ele>432.6</ele>
        <time>2020-09-06T19:45:41Z</time>
      </trkpt>
      <trkpt lat="47.81349" lon="6.67288">
        <ele>432.4</ele>
        <time>2020-09-06T19:45:41Z</time>
      </trkpt>
      <trkpt lat="47.81342" lon="6.67294">
        <ele>431.6</ele>
        <time>2020-09-06T19:45:41Z</time>
      </trkpt>
      <trkpt lat="47.81321" lon="6.67312">
        <ele>428.9</ele>
        <time>2020-09-06T19:45:41Z</time>
      </trkpt>
      <trkpt lat="47.81302" lon="6.67328">
        <ele>426.2</ele>
        <time>2020-09-06T19:45:41Z</time>
      </trkpt>
      <trkpt lat="47.81288" lon="6.67347">
        <ele>423.1</ele>
        <time>2020-09-06T19:45:41Z</time>
      </trkpt>
      <trkpt lat="47.81259" lon="6.67397">
        <ele>418.1</ele>
        <time>2020-09-06T19:45:41Z</time>
      </trkpt>
      <trkpt lat="47.8124" lon="6.67433">
        <ele>414.5</ele>
        <time>2020-09-06T19:45:41Z</time>
      </trkpt>
      <trkpt lat="47.81231" lon="6.67457">
        <ele>412.9</ele>
        <time>2020-09-06T19:45:41Z</time>
      </trkpt>
      <trkpt lat="47.81219" lon="6.67493">
        <ele>411</ele>
        <time>2020-09-06T19:45:41Z</time>
      </trkpt>
      <trkpt lat="47.81212" lon="6.67521">
        <ele>409.1</ele>
        <time>2020-09-06T19:45:41Z</time>
      </trkpt>
      <trkpt lat="47.81207" lon="6.67539">
        <ele>408</ele>
        <time>2020-09-06T19:45:41Z</time>
      </trkpt>
      <trkpt lat="47.81198" lon="6.6758">
        <ele>406.6</ele>
        <time>2020-09-06T19:45:41Z</time>
      </trkpt>
      <trkpt lat="47.81193" lon="6.67616">
        <ele>406</ele>
        <time>2020-09-06T19:45:41Z</time>
      </trkpt>
      <trkpt lat="47.8119" lon="6.67629">
        <ele>405.9</ele>
        <time>2020-09-06T19:45:41Z</time>
      </trkpt>
      <trkpt lat="47.81184" lon="6.67662">
        <ele>405.9</ele>
        <time>2020-09-06T19:45:41Z</time>
      </trkpt>
      <trkpt lat="47.81179" lon="6.67675">
        <ele>406.1</ele>
        <time>2020-09-06T19:45:41Z</time>
      </trkpt>
      <trkpt lat="47.81174" lon="6.67686">
        <ele>406.3</ele>
        <time>2020-09-06T19:45:41Z</time>
      </trkpt>
      <trkpt lat="47.81177" lon="6.67693">
        <ele>406</ele>
        <time>2020-09-06T19:45:41Z</time>
      </trkpt>
      <trkpt lat="47.81184" lon="6.6771">
        <ele>406.4</ele>
        <time>2020-09-06T19:45:41Z</time>
      </trkpt>
      <trkpt lat="47.81191" lon="6.67726">
        <ele>406.6</ele>
        <time>2020-09-06T19:45:41Z</time>
      </trkpt>
      <trkpt lat="47.81194" lon="6.67734">
        <ele>406.7</ele>
        <time>2020-09-06T19:45:41Z</time>
      </trkpt>
      <trkpt lat="47.81212" lon="6.67772">
        <ele>407.7</ele>
        <time>2020-09-06T19:45:41Z</time>
      </trkpt>
      <trkpt lat="47.81219" lon="6.6779">
        <ele>407.7</ele>
        <time>2020-09-06T19:45:41Z</time>
      </trkpt>
      <trkpt lat="47.81223" lon="6.67798">
        <ele>407.8</ele>
        <time>2020-09-06T19:45:41Z</time>
      </trkpt>
      <trkpt lat="47.81231" lon="6.67813">
        <ele>408.1</ele>
        <time>2020-09-06T19:45:41Z</time>
      </trkpt>
      <trkpt lat="47.81241" lon="6.67831">
        <ele>408.3</ele>
        <time>2020-09-06T19:45:41Z</time>
      </trkpt>
      <trkpt lat="47.81259" lon="6.67859">
        <ele>409.4</ele>
        <time>2020-09-06T19:45:41Z</time>
      </trkpt>
      <trkpt lat="47.81275" lon="6.67894">
        <ele>409.5</ele>
        <time>2020-09-06T19:45:41Z</time>
      </trkpt>
      <trkpt lat="47.81286" lon="6.67924">
        <ele>410.1</ele>
        <time>2020-09-06T19:45:41Z</time>
      </trkpt>
      <trkpt lat="47.81292" lon="6.67943">
        <ele>410</ele>
        <time>2020-09-06T19:45:41Z</time>
      </trkpt>
      <trkpt lat="47.81293" lon="6.67956">
        <ele>410</ele>
        <time>2020-09-06T19:45:41Z</time>
      </trkpt>
      <trkpt lat="47.81292" lon="6.67964">
        <ele>409.6</ele>
        <time>2020-09-06T19:45:41Z</time>
      </trkpt>
      <trkpt lat="47.81289" lon="6.67971">
        <ele>409.7</ele>
        <time>2020-09-06T19:45:41Z</time>
      </trkpt>
      <trkpt lat="47.81282" lon="6.67983">
        <ele>409.5</ele>
        <time>2020-09-06T19:45:41Z</time>
      </trkpt>
      <trkpt lat="47.81265" lon="6.67999">
        <ele>409.2</ele>
        <time>2020-09-06T19:45:41Z</time>
      </trkpt>
      <trkpt lat="47.81255" lon="6.68008">
        <ele>409.1</ele>
        <time>2020-09-06T19:45:41Z</time>
      </trkpt>
      <trkpt lat="47.8125" lon="6.68012">
        <ele>408.9</ele>
        <time>2020-09-06T19:45:41Z</time>
      </trkpt>
      <trkpt lat="47.81243" lon="6.68018">
        <ele>408.9</ele>
        <time>2020-09-06T19:45:41Z</time>
      </trkpt>
      <trkpt lat="47.81239" lon="6.68025">
        <ele>408.8</ele>
        <time>2020-09-06T19:45:41Z</time>
      </trkpt>
      <trkpt lat="47.81236" lon="6.68033">
        <ele>408.5</ele>
        <time>2020-09-06T19:45:41Z</time>
      </trkpt>
      <trkpt lat="47.81236" lon="6.68044">
        <ele>408.3</ele>
        <time>2020-09-06T19:45:41Z</time>
      </trkpt>
      <trkpt lat="47.81235" lon="6.68055">
        <ele>407.9</ele>
        <time>2020-09-06T19:45:41Z</time>
      </trkpt>
      <trkpt lat="47.81236" lon="6.68072">
        <ele>407.7</ele>
        <time>2020-09-06T19:45:41Z</time>
      </trkpt>
      <trkpt lat="47.81237" lon="6.68085">
        <ele>407.7</ele>
        <time>2020-09-06T19:45:41Z</time>
      </trkpt>
      <trkpt lat="47.81223" lon="6.68084">
        <ele>407.6</ele>
        <time>2020-09-06T19:45:41Z</time>
      </trkpt>
      <trkpt lat="47.81217" lon="6.68084">
        <ele>407.3</ele>
        <time>2020-09-06T19:45:41Z</time>
      </trkpt>
      <trkpt lat="47.812" lon="6.68083">
        <ele>404.4</ele>
        <time>2020-09-06T19:45:41Z</time>
      </trkpt>
      <trkpt lat="47.81193" lon="6.68083">
        <ele>407.4</ele>
        <time>2020-09-06T19:45:41Z</time>
      </trkpt>
      <trkpt lat="47.81172" lon="6.68082">
        <ele>404.7</ele>
        <time>2020-09-06T19:45:41Z</time>
      </trkpt>
      <trkpt lat="47.81157" lon="6.68081">
        <ele>407</ele>
        <time>2020-09-06T19:45:41Z</time>
      </trkpt>
      <trkpt lat="47.8112" lon="6.68082">
        <ele>407.3</ele>
        <time>2020-09-06T19:45:41Z</time>
      </trkpt>
      <trkpt lat="47.81103" lon="6.68085">
        <ele>407.3</ele>
        <time>2020-09-06T19:45:41Z</time>
      </trkpt>
      <trkpt lat="47.81088" lon="6.68091">
        <ele>407.4</ele>
        <time>2020-09-06T19:45:41Z</time>
      </trkpt>
      <trkpt lat="47.81074" lon="6.68101">
        <ele>407.7</ele>
        <time>2020-09-06T19:45:41Z</time>
      </trkpt>
      <trkpt lat="47.8106" lon="6.6811">
        <ele>407.8</ele>
        <time>2020-09-06T19:45:41Z</time>
      </trkpt>
      <trkpt lat="47.81054" lon="6.68114">
        <ele>407.9</ele>
        <time>2020-09-06T19:45:41Z</time>
      </trkpt>
      <trkpt lat="47.81041" lon="6.6812">
        <ele>408.1</ele>
        <time>2020-09-06T19:45:41Z</time>
      </trkpt>
      <trkpt lat="47.81027" lon="6.68127">
        <ele>408.2</ele>
        <time>2020-09-06T19:45:41Z</time>
      </trkpt>
      <trkpt lat="47.81017" lon="6.68129">
        <ele>408.4</ele>
        <time>2020-09-06T19:45:41Z</time>
      </trkpt>
      <trkpt lat="47.81002" lon="6.68129">
        <ele>408.6</ele>
        <time>2020-09-06T19:45:41Z</time>
      </trkpt>
      <trkpt lat="47.80991" lon="6.68127">
        <ele>408.7</ele>
        <time>2020-09-06T19:45:41Z</time>
      </trkpt>
      <trkpt lat="47.80983" lon="6.68125">
        <ele>408.9</ele>
        <time>2020-09-06T19:45:41Z</time>
      </trkpt>
      <trkpt lat="47.80977" lon="6.68121">
        <ele>408.9</ele>
        <time>2020-09-06T19:45:41Z</time>
      </trkpt>
      <trkpt lat="47.80969" lon="6.68116">
        <ele>409.1</ele>
        <time>2020-09-06T19:45:41Z</time>
      </trkpt>
      <trkpt lat="47.80958" lon="6.68107">
        <ele>409.6</ele>
        <time>2020-09-06T19:45:41Z</time>
      </trkpt>
      <trkpt lat="47.80951" lon="6.68097">
        <ele>409.6</ele>
        <time>2020-09-06T19:45:41Z</time>
      </trkpt>
      <trkpt lat="47.8093" lon="6.68072">
        <ele>409.5</ele>
        <time>2020-09-06T19:45:41Z</time>
      </trkpt>
      <trkpt lat="47.8091" lon="6.68046">
        <ele>408.7</ele>
        <time>2020-09-06T19:45:41Z</time>
      </trkpt>
      <trkpt lat="47.80897" lon="6.6803">
        <ele>408.3</ele>
        <time>2020-09-06T19:45:41Z</time>
      </trkpt>
      <trkpt lat="47.80887" lon="6.68021">
        <ele>407.9</ele>
        <time>2020-09-06T19:45:41Z</time>
      </trkpt>
      <trkpt lat="47.80877" lon="6.68015">
        <ele>407.6</ele>
        <time>2020-09-06T19:45:41Z</time>
      </trkpt>
      <trkpt lat="47.80868" lon="6.68011">
        <ele>407.1</ele>
        <time>2020-09-06T19:45:41Z</time>
      </trkpt>
      <trkpt lat="47.80858" lon="6.68007">
        <ele>406.9</ele>
        <time>2020-09-06T19:45:41Z</time>
      </trkpt>
      <trkpt lat="47.80848" lon="6.68007">
        <ele>406.5</ele>
        <time>2020-09-06T19:45:41Z</time>
      </trkpt>
      <trkpt lat="47.80831" lon="6.68011">
        <ele>405.8</ele>
        <time>2020-09-06T19:45:41Z</time>
      </trkpt>
      <trkpt lat="47.80827" lon="6.68023">
        <ele>405.8</ele>
        <time>2020-09-06T19:45:41Z</time>
      </trkpt>
      <trkpt lat="47.80823" lon="6.68035">
        <ele>406.3</ele>
        <time>2020-09-06T19:45:41Z</time>
      </trkpt>
      <trkpt lat="47.80821" lon="6.68048">
        <ele>407.2</ele>
        <time>2020-09-06T19:45:41Z</time>
      </trkpt>
      <trkpt lat="47.8082" lon="6.6806">
        <ele>407.8</ele>
        <time>2020-09-06T19:45:41Z</time>
      </trkpt>
      <trkpt lat="47.80823" lon="6.68076">
        <ele>408.8</ele>
        <time>2020-09-06T19:45:41Z</time>
      </trkpt>
      <trkpt lat="47.8083" lon="6.68105">
        <ele>410.9</ele>
        <time>2020-09-06T19:45:41Z</time>
      </trkpt>
      <trkpt lat="47.80835" lon="6.68117">
        <ele>411.8</ele>
        <time>2020-09-06T19:45:41Z</time>
      </trkpt>
      <trkpt lat="47.80837" lon="6.6813">
        <ele>412.6</ele>
        <time>2020-09-06T19:45:41Z</time>
      </trkpt>
      <trkpt lat="47.80839" lon="6.68143">
        <ele>413.7</ele>
        <time>2020-09-06T19:45:41Z</time>
      </trkpt>
      <trkpt lat="47.80842" lon="6.68152">
        <ele>414.3</ele>
        <time>2020-09-06T19:45:41Z</time>
      </trkpt>
      <trkpt lat="47.8085" lon="6.68168">
        <ele>415.7</ele>
        <time>2020-09-06T19:45:41Z</time>
      </trkpt>
      <trkpt lat="47.80857" lon="6.68181">
        <ele>416.7</ele>
        <time>2020-09-06T19:45:41Z</time>
      </trkpt>
      <trkpt lat="47.80861" lon="6.68191">
        <ele>417.3</ele>
        <time>2020-09-06T19:45:41Z</time>
      </trkpt>
      <trkpt lat="47.80863" lon="6.68203">
        <ele>418.1</ele>
        <time>2020-09-06T19:45:41Z</time>
      </trkpt>
      <trkpt lat="47.80863" lon="6.68215">
        <ele>419.2</ele>
        <time>2020-09-06T19:45:41Z</time>
      </trkpt>
      <trkpt lat="47.80861" lon="6.68227">
        <ele>419.9</ele>
        <time>2020-09-06T19:45:41Z</time>
      </trkpt>
      <trkpt lat="47.80855" lon="6.68246">
        <ele>420.3</ele>
        <time>2020-09-06T19:45:41Z</time>
      </trkpt>
      <trkpt lat="47.80848" lon="6.68259">
        <ele>420.6</ele>
        <time>2020-09-06T19:45:41Z</time>
      </trkpt>
      <trkpt lat="47.80842" lon="6.68265">
        <ele>420.8</ele>
        <time>2020-09-06T19:45:41Z</time>
      </trkpt>
      <trkpt lat="47.80832" lon="6.68268">
        <ele>421.3</ele>
        <time>2020-09-06T19:45:41Z</time>
      </trkpt>
      <trkpt lat="47.80816" lon="6.68264">
        <ele>421.7</ele>
        <time>2020-09-06T19:45:41Z</time>
      </trkpt>
      <trkpt lat="47.80798" lon="6.68263">
        <ele>421.8</ele>
        <time>2020-09-06T19:45:41Z</time>
      </trkpt>
      <trkpt lat="47.80782" lon="6.68266">
        <ele>422.3</ele>
        <time>2020-09-06T19:45:41Z</time>
      </trkpt>
      <trkpt lat="47.80769" lon="6.68268">
        <ele>422.8</ele>
        <time>2020-09-06T19:45:41Z</time>
      </trkpt>
      <trkpt lat="47.8076" lon="6.68267">
        <ele>423.1</ele>
        <time>2020-09-06T19:45:41Z</time>
      </trkpt>
      <trkpt lat="47.80726" lon="6.68252">
        <ele>424.2</ele>
        <time>2020-09-06T19:45:41Z</time>
      </trkpt>
      <trkpt lat="47.80678" lon="6.68225">
        <ele>424.7</ele>
        <time>2020-09-06T19:45:41Z</time>
      </trkpt>
      <trkpt lat="47.8064" lon="6.68198">
        <ele>425.8</ele>
        <time>2020-09-06T19:45:41Z</time>
      </trkpt>
      <trkpt lat="47.8062" lon="6.68193">
        <ele>426.8</ele>
        <time>2020-09-06T19:45:41Z</time>
      </trkpt>
      <trkpt lat="47.80595" lon="6.68184">
        <ele>427.7</ele>
        <time>2020-09-06T19:45:41Z</time>
      </trkpt>
      <trkpt lat="47.80575" lon="6.68177">
        <ele>429.1</ele>
        <time>2020-09-06T19:45:41Z</time>
      </trkpt>
      <trkpt lat="47.8056" lon="6.68183">
        <ele>430.6</ele>
        <time>2020-09-06T19:45:41Z</time>
      </trkpt>
      <trkpt lat="47.80556" lon="6.68191">
        <ele>431.4</ele>
        <time>2020-09-06T19:45:41Z</time>
      </trkpt>
      <trkpt lat="47.80553" lon="6.68204">
        <ele>432.7</ele>
        <time>2020-09-06T19:45:41Z</time>
      </trkpt>
      <trkpt lat="47.80558" lon="6.68228">
        <ele>433.6</ele>
        <time>2020-09-06T19:45:41Z</time>
      </trkpt>
      <trkpt lat="47.80561" lon="6.68253">
        <ele>434.6</ele>
        <time>2020-09-06T19:45:41Z</time>
      </trkpt>
      <trkpt lat="47.8056" lon="6.68266">
        <ele>435.1</ele>
        <time>2020-09-06T19:45:41Z</time>
      </trkpt>
      <trkpt lat="47.80543" lon="6.68312">
        <ele>437.7</ele>
        <time>2020-09-06T19:45:41Z</time>
      </trkpt>
      <trkpt lat="47.80519" lon="6.684">
        <ele>441.4</ele>
        <time>2020-09-06T19:45:41Z</time>
      </trkpt>
      <trkpt lat="47.80517" lon="6.68414">
        <ele>441.9</ele>
        <time>2020-09-06T19:45:41Z</time>
      </trkpt>
      <trkpt lat="47.80518" lon="6.68432">
        <ele>442.4</ele>
        <time>2020-09-06T19:45:41Z</time>
      </trkpt>
      <trkpt lat="47.80521" lon="6.68466">
        <ele>442.8</ele>
        <time>2020-09-06T19:45:41Z</time>
      </trkpt>
      <trkpt lat="47.80521" lon="6.68492">
        <ele>443.1</ele>
        <time>2020-09-06T19:45:41Z</time>
      </trkpt>
      <trkpt lat="47.80517" lon="6.68504">
        <ele>443.6</ele>
        <time>2020-09-06T19:45:41Z</time>
      </trkpt>
      <trkpt lat="47.80508" lon="6.68517">
        <ele>444.9</ele>
        <time>2020-09-06T19:45:41Z</time>
      </trkpt>
      <trkpt lat="47.80484" lon="6.68538">
        <ele>448.3</ele>
        <time>2020-09-06T19:45:41Z</time>
      </trkpt>
      <trkpt lat="47.80457" lon="6.68572">
        <ele>451.9</ele>
        <time>2020-09-06T19:45:41Z</time>
      </trkpt>
      <trkpt lat="47.80439" lon="6.68597">
        <ele>454.4</ele>
        <time>2020-09-06T19:45:41Z</time>
      </trkpt>
      <trkpt lat="47.80431" lon="6.68617">
        <ele>455.3</ele>
        <time>2020-09-06T19:45:41Z</time>
      </trkpt>
      <trkpt lat="47.80427" lon="6.68652">
        <ele>455.8</ele>
        <time>2020-09-06T19:45:41Z</time>
      </trkpt>
      <trkpt lat="47.80424" lon="6.68668">
        <ele>455.8</ele>
        <time>2020-09-06T19:45:41Z</time>
      </trkpt>
      <trkpt lat="47.80417" lon="6.68679">
        <ele>456.4</ele>
        <time>2020-09-06T19:45:41Z</time>
      </trkpt>
      <trkpt lat="47.8041" lon="6.68685">
        <ele>456.8</ele>
        <time>2020-09-06T19:45:41Z</time>
      </trkpt>
      <trkpt lat="47.80377" lon="6.68714">
        <ele>460.9</ele>
        <time>2020-09-06T19:45:41Z</time>
      </trkpt>
      <trkpt lat="47.80365" lon="6.68724">
        <ele>461.5</ele>
        <time>2020-09-06T19:45:41Z</time>
      </trkpt>
      <trkpt lat="47.80339" lon="6.68761">
        <ele>462.8</ele>
        <time>2020-09-06T19:45:41Z</time>
      </trkpt>
      <trkpt lat="47.803" lon="6.68791">
        <ele>464.2</ele>
        <time>2020-09-06T19:45:41Z</time>
      </trkpt>
      <trkpt lat="47.80272" lon="6.68812">
        <ele>466.1</ele>
        <time>2020-09-06T19:45:41Z</time>
      </trkpt>
      <trkpt lat="47.80168" lon="6.68895">
        <ele>469</ele>
        <time>2020-09-06T19:45:41Z</time>
      </trkpt>
      <trkpt lat="47.80123" lon="6.68942">
        <ele>469.1</ele>
        <time>2020-09-06T19:45:41Z</time>
      </trkpt>
      <trkpt lat="47.8011" lon="6.68955">
        <ele>470</ele>
        <time>2020-09-06T19:45:41Z</time>
      </trkpt>
      <trkpt lat="47.80079" lon="6.68989">
        <ele>470.2</ele>
        <time>2020-09-06T19:45:41Z</time>
      </trkpt>
      <trkpt lat="47.80068" lon="6.69011">
        <ele>469.1</ele>
        <time>2020-09-06T19:45:41Z</time>
      </trkpt>
      <trkpt lat="47.80034" lon="6.69117">
        <ele>465.1</ele>
        <time>2020-09-06T19:45:41Z</time>
      </trkpt>
      <trkpt lat="47.80008" lon="6.69185">
        <ele>462.9</ele>
        <time>2020-09-06T19:45:41Z</time>
      </trkpt>
      <trkpt lat="47.79995" lon="6.69212">
        <ele>462.8</ele>
        <time>2020-09-06T19:45:41Z</time>
      </trkpt>
      <trkpt lat="47.79961" lon="6.69254">
        <ele>463.7</ele>
        <time>2020-09-06T19:45:41Z</time>
      </trkpt>
      <trkpt lat="47.79939" lon="6.69279">
        <ele>464.7</ele>
        <time>2020-09-06T19:45:41Z</time>
      </trkpt>
      <trkpt lat="47.79926" lon="6.69312">
        <ele>463.6</ele>
        <time>2020-09-06T19:45:41Z</time>
      </trkpt>
      <trkpt lat="47.79919" lon="6.69346">
        <ele>463.3</ele>
        <time>2020-09-06T19:45:41Z</time>
      </trkpt>
      <trkpt lat="47.79916" lon="6.6936">
        <ele>463.8</ele>
        <time>2020-09-06T19:45:41Z</time>
      </trkpt>
      <trkpt lat="47.79903" lon="6.69417">
        <ele>464.1</ele>
        <time>2020-09-06T19:45:41Z</time>
      </trkpt>
      <trkpt lat="47.79883" lon="6.69487">
        <ele>466.3</ele>
        <time>2020-09-06T19:45:41Z</time>
      </trkpt>
      <trkpt lat="47.79868" lon="6.69542">
        <ele>466.7</ele>
        <time>2020-09-06T19:45:41Z</time>
      </trkpt>
      <trkpt lat="47.7985" lon="6.69581">
        <ele>467.9</ele>
        <time>2020-09-06T19:45:41Z</time>
      </trkpt>
      <trkpt lat="47.79796" lon="6.69661">
        <ele>471.4</ele>
        <time>2020-09-06T19:45:41Z</time>
      </trkpt>
      <trkpt lat="47.79789" lon="6.69668">
        <ele>471.4</ele>
        <time>2020-09-06T19:45:41Z</time>
      </trkpt>
      <trkpt lat="47.7975" lon="6.69708">
        <ele>472.1</ele>
        <time>2020-09-06T19:45:41Z</time>
      </trkpt>
      <trkpt lat="47.79733" lon="6.69734">
        <ele>473.3</ele>
        <time>2020-09-06T19:45:41Z</time>
      </trkpt>
      <trkpt lat="47.79719" lon="6.69766">
        <ele>472.2</ele>
        <time>2020-09-06T19:45:41Z</time>
      </trkpt>
      <trkpt lat="47.79703" lon="6.69819">
        <ele>470.7</ele>
        <time>2020-09-06T19:45:41Z</time>
      </trkpt>
      <trkpt lat="47.797" lon="6.69863">
        <ele>470.5</ele>
        <time>2020-09-06T19:45:41Z</time>
      </trkpt>
      <trkpt lat="47.79686" lon="6.69905">
        <ele>468.5</ele>
        <time>2020-09-06T19:45:41Z</time>
      </trkpt>
      <trkpt lat="47.79684" lon="6.69957">
        <ele>467.1</ele>
        <time>2020-09-06T19:45:41Z</time>
      </trkpt>
      <trkpt lat="47.79685" lon="6.69964">
        <ele>467</ele>
        <time>2020-09-06T19:45:41Z</time>
      </trkpt>
      <trkpt lat="47.79695" lon="6.70067">
        <ele>467.4</ele>
        <time>2020-09-06T19:45:41Z</time>
      </trkpt>
      <trkpt lat="47.79702" lon="6.70106">
        <ele>467.5</ele>
        <time>2020-09-06T19:45:41Z</time>
      </trkpt>
      <trkpt lat="47.79725" lon="6.70167">
        <ele>468.2</ele>
        <time>2020-09-06T19:45:41Z</time>
      </trkpt>
      <trkpt lat="47.79738" lon="6.7021">
        <ele>468.7</ele>
        <time>2020-09-06T19:45:41Z</time>
      </trkpt>
      <trkpt lat="47.7974" lon="6.7022">
        <ele>469</ele>
        <time>2020-09-06T19:45:41Z</time>
      </trkpt>
      <trkpt lat="47.79757" lon="6.70297">
        <ele>471.1</ele>
        <time>2020-09-06T19:45:41Z</time>
      </trkpt>
      <trkpt lat="47.79758" lon="6.70304">
        <ele>470.8</ele>
        <time>2020-09-06T19:45:41Z</time>
      </trkpt>
      <trkpt lat="47.79763" lon="6.70336">
        <ele>471.5</ele>
        <time>2020-09-06T19:45:41Z</time>
      </trkpt>
      <trkpt lat="47.79768" lon="6.70365">
        <ele>472.6</ele>
        <time>2020-09-06T19:45:41Z</time>
      </trkpt>
      <trkpt lat="47.79768" lon="6.7038">
        <ele>473.2</ele>
        <time>2020-09-06T19:45:41Z</time>
      </trkpt>
      <trkpt lat="47.7977" lon="6.70419">
        <ele>475.5</ele>
        <time>2020-09-06T19:45:41Z</time>
      </trkpt>
      <trkpt lat="47.79772" lon="6.70469">
        <ele>477.7</ele>
        <time>2020-09-06T19:45:41Z</time>
      </trkpt>
      <trkpt lat="47.79773" lon="6.70486">
        <ele>478.5</ele>
        <time>2020-09-06T19:45:41Z</time>
      </trkpt>
      <trkpt lat="47.79776" lon="6.70506">
        <ele>479.5</ele>
        <time>2020-09-06T19:45:41Z</time>
      </trkpt>
      <trkpt lat="47.79782" lon="6.70525">
        <ele>480.4</ele>
        <time>2020-09-06T19:45:41Z</time>
      </trkpt>
      <trkpt lat="47.7979" lon="6.7054">
        <ele>481.5</ele>
        <time>2020-09-06T19:45:41Z</time>
      </trkpt>
      <trkpt lat="47.79804" lon="6.70559">
        <ele>482.6</ele>
        <time>2020-09-06T19:45:41Z</time>
      </trkpt>
      <trkpt lat="47.79816" lon="6.70578">
        <ele>483.3</ele>
        <time>2020-09-06T19:45:41Z</time>
      </trkpt>
      <trkpt lat="47.79826" lon="6.70596">
        <ele>484.5</ele>
        <time>2020-09-06T19:45:41Z</time>
      </trkpt>
      <trkpt lat="47.79834" lon="6.70615">
        <ele>485.5</ele>
        <time>2020-09-06T19:45:41Z</time>
      </trkpt>
      <trkpt lat="47.79839" lon="6.70632">
        <ele>485.5</ele>
        <time>2020-09-06T19:45:41Z</time>
      </trkpt>
      <trkpt lat="47.79844" lon="6.70653">
        <ele>485.2</ele>
        <time>2020-09-06T19:45:41Z</time>
      </trkpt>
      <trkpt lat="47.79849" lon="6.70677">
        <ele>485.2</ele>
        <time>2020-09-06T19:45:41Z</time>
      </trkpt>
      <trkpt lat="47.79853" lon="6.707">
        <ele>485.5</ele>
        <time>2020-09-06T19:45:41Z</time>
      </trkpt>
      <trkpt lat="47.79856" lon="6.70727">
        <ele>485.9</ele>
        <time>2020-09-06T19:45:41Z</time>
      </trkpt>
      <trkpt lat="47.79859" lon="6.70748">
        <ele>485.4</ele>
        <time>2020-09-06T19:45:41Z</time>
      </trkpt>
      <trkpt lat="47.79862" lon="6.70771">
        <ele>485</ele>
        <time>2020-09-06T19:45:41Z</time>
      </trkpt>
      <trkpt lat="47.79866" lon="6.70795">
        <ele>484.1</ele>
        <time>2020-09-06T19:45:41Z</time>
      </trkpt>
      <trkpt lat="47.79873" lon="6.7082">
        <ele>482.9</ele>
        <time>2020-09-06T19:45:41Z</time>
      </trkpt>
      <trkpt lat="47.79882" lon="6.70848">
        <ele>481.7</ele>
        <time>2020-09-06T19:45:41Z</time>
      </trkpt>
      <trkpt lat="47.79898" lon="6.70893">
        <ele>480.4</ele>
        <time>2020-09-06T19:45:41Z</time>
      </trkpt>
      <trkpt lat="47.7993" lon="6.70979">
        <ele>480.9</ele>
        <time>2020-09-06T19:45:41Z</time>
      </trkpt>
      <trkpt lat="47.79955" lon="6.71031">
        <ele>481.7</ele>
        <time>2020-09-06T19:45:41Z</time>
      </trkpt>
      <trkpt lat="47.7997" lon="6.71068">
        <ele>482</ele>
        <time>2020-09-06T19:45:41Z</time>
      </trkpt>
      <trkpt lat="47.79988" lon="6.71108">
        <ele>483.4</ele>
        <time>2020-09-06T19:45:41Z</time>
      </trkpt>
      <trkpt lat="47.80004" lon="6.71143">
        <ele>484.2</ele>
        <time>2020-09-06T19:45:41Z</time>
      </trkpt>
      <trkpt lat="47.80026" lon="6.71191">
        <ele>485.5</ele>
        <time>2020-09-06T19:45:41Z</time>
      </trkpt>
      <trkpt lat="47.80034" lon="6.71212">
        <ele>486.3</ele>
        <time>2020-09-06T19:45:41Z</time>
      </trkpt>
      <trkpt lat="47.8004" lon="6.71226">
        <ele>487.3</ele>
        <time>2020-09-06T19:45:41Z</time>
      </trkpt>
      <trkpt lat="47.80047" lon="6.7124">
        <ele>487.9</ele>
        <time>2020-09-06T19:45:41Z</time>
      </trkpt>
      <trkpt lat="47.80056" lon="6.71256">
        <ele>488.3</ele>
        <time>2020-09-06T19:45:41Z</time>
      </trkpt>
      <trkpt lat="47.80063" lon="6.71269">
        <ele>488.6</ele>
        <time>2020-09-06T19:45:41Z</time>
      </trkpt>
      <trkpt lat="47.8007" lon="6.71286">
        <ele>489.4</ele>
        <time>2020-09-06T19:45:41Z</time>
      </trkpt>
      <trkpt lat="47.80084" lon="6.71326">
        <ele>491.2</ele>
        <time>2020-09-06T19:45:41Z</time>
      </trkpt>
      <trkpt lat="47.80093" lon="6.71352">
        <ele>491.8</ele>
        <time>2020-09-06T19:45:41Z</time>
      </trkpt>
      <trkpt lat="47.80102" lon="6.71385">
        <ele>492.2</ele>
        <time>2020-09-06T19:45:41Z</time>
      </trkpt>
      <trkpt lat="47.80107" lon="6.71406">
        <ele>492.5</ele>
        <time>2020-09-06T19:45:41Z</time>
      </trkpt>
      <trkpt lat="47.80114" lon="6.71434">
        <ele>493.4</ele>
        <time>2020-09-06T19:45:41Z</time>
      </trkpt>
      <trkpt lat="47.80123" lon="6.71468">
        <ele>494.8</ele>
        <time>2020-09-06T19:45:41Z</time>
      </trkpt>
      <trkpt lat="47.8013" lon="6.71496">
        <ele>495.9</ele>
        <time>2020-09-06T19:45:41Z</time>
      </trkpt>
      <trkpt lat="47.80141" lon="6.71529">
        <ele>496.4</ele>
        <time>2020-09-06T19:45:41Z</time>
      </trkpt>
      <trkpt lat="47.80149" lon="6.71549">
        <ele>496.9</ele>
        <time>2020-09-06T19:45:41Z</time>
      </trkpt>
      <trkpt lat="47.80158" lon="6.7157">
        <ele>497.8</ele>
        <time>2020-09-06T19:45:41Z</time>
      </trkpt>
      <trkpt lat="47.80165" lon="6.71585">
        <ele>498.9</ele>
        <time>2020-09-06T19:45:41Z</time>
      </trkpt>
      <trkpt lat="47.80171" lon="6.71595">
        <ele>499.3</ele>
        <time>2020-09-06T19:45:41Z</time>
      </trkpt>
      <trkpt lat="47.8018" lon="6.71609">
        <ele>500</ele>
        <time>2020-09-06T19:45:41Z</time>
      </trkpt>
      <trkpt lat="47.80193" lon="6.71624">
        <ele>500.9</ele>
        <time>2020-09-06T19:45:41Z</time>
      </trkpt>
      <trkpt lat="47.80203" lon="6.71637">
        <ele>502</ele>
        <time>2020-09-06T19:45:41Z</time>
      </trkpt>
      <trkpt lat="47.80213" lon="6.7165">
        <ele>502.7</ele>
        <time>2020-09-06T19:45:41Z</time>
      </trkpt>
      <trkpt lat="47.80225" lon="6.71667">
        <ele>503.8</ele>
        <time>2020-09-06T19:45:41Z</time>
      </trkpt>
      <trkpt lat="47.80234" lon="6.71679">
        <ele>504.5</ele>
        <time>2020-09-06T19:45:41Z</time>
      </trkpt>
      <trkpt lat="47.80242" lon="6.7169">
        <ele>505.3</ele>
        <time>2020-09-06T19:45:41Z</time>
      </trkpt>
      <trkpt lat="47.80249" lon="6.71699">
        <ele>505.5</ele>
        <time>2020-09-06T19:45:41Z</time>
      </trkpt>
      <trkpt lat="47.80259" lon="6.71707">
        <ele>506.3</ele>
        <time>2020-09-06T19:45:41Z</time>
      </trkpt>
      <trkpt lat="47.80279" lon="6.71721">
        <ele>507.1</ele>
        <time>2020-09-06T19:45:41Z</time>
      </trkpt>
      <trkpt lat="47.80289" lon="6.7173">
        <ele>507.9</ele>
        <time>2020-09-06T19:45:41Z</time>
      </trkpt>
      <trkpt lat="47.80297" lon="6.71741">
        <ele>508.1</ele>
        <time>2020-09-06T19:45:41Z</time>
      </trkpt>
      <trkpt lat="47.80304" lon="6.71752">
        <ele>508.8</ele>
        <time>2020-09-06T19:45:41Z</time>
      </trkpt>
      <trkpt lat="47.80309" lon="6.71763">
        <ele>509.2</ele>
        <time>2020-09-06T19:45:41Z</time>
      </trkpt>
      <trkpt lat="47.80316" lon="6.71779">
        <ele>509.8</ele>
        <time>2020-09-06T19:45:41Z</time>
      </trkpt>
      <trkpt lat="47.80321" lon="6.7179">
        <ele>510.2</ele>
        <time>2020-09-06T19:45:41Z</time>
      </trkpt>
      <trkpt lat="47.80326" lon="6.71798">
        <ele>510.6</ele>
        <time>2020-09-06T19:45:41Z</time>
      </trkpt>
      <trkpt lat="47.80333" lon="6.71806">
        <ele>511.1</ele>
        <time>2020-09-06T19:45:41Z</time>
      </trkpt>
      <trkpt lat="47.80345" lon="6.71821">
        <ele>511.9</ele>
        <time>2020-09-06T19:45:41Z</time>
      </trkpt>
      <trkpt lat="47.80349" lon="6.71827">
        <ele>512.3</ele>
        <time>2020-09-06T19:45:41Z</time>
      </trkpt>
      <trkpt lat="47.80353" lon="6.71834">
        <ele>512.3</ele>
        <time>2020-09-06T19:45:41Z</time>
      </trkpt>
      <trkpt lat="47.8036" lon="6.71846">
        <ele>512.9</ele>
        <time>2020-09-06T19:45:41Z</time>
      </trkpt>
      <trkpt lat="47.80366" lon="6.71861">
        <ele>513.8</ele>
        <time>2020-09-06T19:45:41Z</time>
      </trkpt>
      <trkpt lat="47.80372" lon="6.71874">
        <ele>514.7</ele>
        <time>2020-09-06T19:45:41Z</time>
      </trkpt>
      <trkpt lat="47.80377" lon="6.71891">
        <ele>515.6</ele>
        <time>2020-09-06T19:45:41Z</time>
      </trkpt>
      <trkpt lat="47.80379" lon="6.71899">
        <ele>516.1</ele>
        <time>2020-09-06T19:45:41Z</time>
      </trkpt>
      <trkpt lat="47.80381" lon="6.7191">
        <ele>516.4</ele>
        <time>2020-09-06T19:45:41Z</time>
      </trkpt>
      <trkpt lat="47.80384" lon="6.7192">
        <ele>516.7</ele>
        <time>2020-09-06T19:45:41Z</time>
      </trkpt>
      <trkpt lat="47.80387" lon="6.71929">
        <ele>516.9</ele>
        <time>2020-09-06T19:45:41Z</time>
      </trkpt>
      <trkpt lat="47.80391" lon="6.71934">
        <ele>517.2</ele>
        <time>2020-09-06T19:45:41Z</time>
      </trkpt>
      <trkpt lat="47.80395" lon="6.71939">
        <ele>517.3</ele>
        <time>2020-09-06T19:45:41Z</time>
      </trkpt>
      <trkpt lat="47.80402" lon="6.71945">
        <ele>518</ele>
        <time>2020-09-06T19:45:41Z</time>
      </trkpt>
      <trkpt lat="47.80408" lon="6.71951">
        <ele>518.3</ele>
        <time>2020-09-06T19:45:41Z</time>
      </trkpt>
      <trkpt lat="47.80414" lon="6.71959">
        <ele>519.1</ele>
        <time>2020-09-06T19:45:41Z</time>
      </trkpt>
      <trkpt lat="47.80422" lon="6.71972">
        <ele>520.1</ele>
        <time>2020-09-06T19:45:41Z</time>
      </trkpt>
      <trkpt lat="47.80432" lon="6.71989">
        <ele>520.9</ele>
        <time>2020-09-06T19:45:41Z</time>
      </trkpt>
      <trkpt lat="47.80443" lon="6.72004">
        <ele>521.6</ele>
        <time>2020-09-06T19:45:41Z</time>
      </trkpt>
      <trkpt lat="47.80455" lon="6.72019">
        <ele>522.6</ele>
        <time>2020-09-06T19:45:41Z</time>
      </trkpt>
      <trkpt lat="47.80465" lon="6.72029">
        <ele>523.7</ele>
        <time>2020-09-06T19:45:41Z</time>
      </trkpt>
      <trkpt lat="47.80474" lon="6.72038">
        <ele>524.3</ele>
        <time>2020-09-06T19:45:41Z</time>
      </trkpt>
      <trkpt lat="47.80489" lon="6.72051">
        <ele>525.1</ele>
        <time>2020-09-06T19:45:41Z</time>
      </trkpt>
      <trkpt lat="47.80508" lon="6.72064">
        <ele>526.3</ele>
        <time>2020-09-06T19:45:41Z</time>
      </trkpt>
      <trkpt lat="47.80523" lon="6.72076">
        <ele>527.2</ele>
        <time>2020-09-06T19:45:41Z</time>
      </trkpt>
      <trkpt lat="47.80546" lon="6.72094">
        <ele>528.8</ele>
        <time>2020-09-06T19:45:41Z</time>
      </trkpt>
      <trkpt lat="47.80556" lon="6.72103">
        <ele>529.5</ele>
        <time>2020-09-06T19:45:41Z</time>
      </trkpt>
      <trkpt lat="47.80566" lon="6.72114">
        <ele>530</ele>
        <time>2020-09-06T19:45:41Z</time>
      </trkpt>
      <trkpt lat="47.80574" lon="6.7213">
        <ele>530.8</ele>
        <time>2020-09-06T19:45:41Z</time>
      </trkpt>
      <trkpt lat="47.80586" lon="6.72161">
        <ele>532.2</ele>
        <time>2020-09-06T19:45:41Z</time>
      </trkpt>
      <trkpt lat="47.80597" lon="6.72195">
        <ele>533.6</ele>
        <time>2020-09-06T19:45:41Z</time>
      </trkpt>
      <trkpt lat="47.806" lon="6.72211">
        <ele>534.3</ele>
        <time>2020-09-06T19:45:41Z</time>
      </trkpt>
      <trkpt lat="47.80601" lon="6.72233">
        <ele>535.2</ele>
        <time>2020-09-06T19:45:41Z</time>
      </trkpt>
      <trkpt lat="47.806" lon="6.72256">
        <ele>536.5</ele>
        <time>2020-09-06T19:45:41Z</time>
      </trkpt>
      <trkpt lat="47.80597" lon="6.72283">
        <ele>537.6</ele>
        <time>2020-09-06T19:45:41Z</time>
      </trkpt>
      <trkpt lat="47.80593" lon="6.72304">
        <ele>538.7</ele>
        <time>2020-09-06T19:45:41Z</time>
      </trkpt>
      <trkpt lat="47.80587" lon="6.72325">
        <ele>539.7</ele>
        <time>2020-09-06T19:45:41Z</time>
      </trkpt>
      <trkpt lat="47.80585" lon="6.72337">
        <ele>540.1</ele>
        <time>2020-09-06T19:45:41Z</time>
      </trkpt>
      <trkpt lat="47.80585" lon="6.72348">
        <ele>540.6</ele>
        <time>2020-09-06T19:45:41Z</time>
      </trkpt>
      <trkpt lat="47.80591" lon="6.72369">
        <ele>541.3</ele>
        <time>2020-09-06T19:45:41Z</time>
      </trkpt>
      <trkpt lat="47.806" lon="6.7239">
        <ele>542.1</ele>
        <time>2020-09-06T19:45:41Z</time>
      </trkpt>
      <trkpt lat="47.80612" lon="6.72413">
        <ele>543.1</ele>
        <time>2020-09-06T19:45:41Z</time>
      </trkpt>
      <trkpt lat="47.80616" lon="6.72422">
        <ele>543.3</ele>
        <time>2020-09-06T19:45:41Z</time>
      </trkpt>
      <trkpt lat="47.80624" lon="6.72442">
        <ele>543.9</ele>
        <time>2020-09-06T19:45:41Z</time>
      </trkpt>
      <trkpt lat="47.80637" lon="6.72477">
        <ele>544.4</ele>
        <time>2020-09-06T19:45:41Z</time>
      </trkpt>
      <trkpt lat="47.80644" lon="6.72491">
        <ele>544.7</ele>
        <time>2020-09-06T19:45:41Z</time>
      </trkpt>
      <trkpt lat="47.80661" lon="6.72524">
        <ele>545.6</ele>
        <time>2020-09-06T19:45:41Z</time>
      </trkpt>
      <trkpt lat="47.80668" lon="6.7254">
        <ele>545.9</ele>
        <time>2020-09-06T19:45:41Z</time>
      </trkpt>
      <trkpt lat="47.80671" lon="6.72556">
        <ele>546.1</ele>
        <time>2020-09-06T19:45:41Z</time>
      </trkpt>
      <trkpt lat="47.80672" lon="6.72574">
        <ele>547</ele>
        <time>2020-09-06T19:45:41Z</time>
      </trkpt>
      <trkpt lat="47.80672" lon="6.72608">
        <ele>548.4</ele>
        <time>2020-09-06T19:45:41Z</time>
      </trkpt>
      <trkpt lat="47.80672" lon="6.72636">
        <ele>549.2</ele>
        <time>2020-09-06T19:45:41Z</time>
      </trkpt>
      <trkpt lat="47.80671" lon="6.72668">
        <ele>550.5</ele>
        <time>2020-09-06T19:45:41Z</time>
      </trkpt>
      <trkpt lat="47.80671" lon="6.72679">
        <ele>550.8</ele>
        <time>2020-09-06T19:45:41Z</time>
      </trkpt>
      <trkpt lat="47.80669" lon="6.72709">
        <ele>551.9</ele>
        <time>2020-09-06T19:45:41Z</time>
      </trkpt>
      <trkpt lat="47.80666" lon="6.72732">
        <ele>552.4</ele>
        <time>2020-09-06T19:45:41Z</time>
      </trkpt>
      <trkpt lat="47.80663" lon="6.72751">
        <ele>553.4</ele>
        <time>2020-09-06T19:45:41Z</time>
      </trkpt>
      <trkpt lat="47.80657" lon="6.72772">
        <ele>554.1</ele>
        <time>2020-09-06T19:45:41Z</time>
      </trkpt>
      <trkpt lat="47.80653" lon="6.72798">
        <ele>555.6</ele>
        <time>2020-09-06T19:45:41Z</time>
      </trkpt>
      <trkpt lat="47.80652" lon="6.72814">
        <ele>556.2</ele>
        <time>2020-09-06T19:45:41Z</time>
      </trkpt>
      <trkpt lat="47.80654" lon="6.7285">
        <ele>557.7</ele>
        <time>2020-09-06T19:45:41Z</time>
      </trkpt>
      <trkpt lat="47.80657" lon="6.72875">
        <ele>558.2</ele>
        <time>2020-09-06T19:45:41Z</time>
      </trkpt>
      <trkpt lat="47.8066" lon="6.72895">
        <ele>559.2</ele>
        <time>2020-09-06T19:45:41Z</time>
      </trkpt>
      <trkpt lat="47.8067" lon="6.72949">
        <ele>560.7</ele>
        <time>2020-09-06T19:45:41Z</time>
      </trkpt>
      <trkpt lat="47.80676" lon="6.72984">
        <ele>562</ele>
        <time>2020-09-06T19:45:41Z</time>
      </trkpt>
      <trkpt lat="47.80679" lon="6.73015">
        <ele>562.5</ele>
        <time>2020-09-06T19:45:41Z</time>
      </trkpt>
      <trkpt lat="47.8068" lon="6.73039">
        <ele>564.3</ele>
        <time>2020-09-06T19:45:41Z</time>
      </trkpt>
      <trkpt lat="47.80683" lon="6.73061">
        <ele>564.7</ele>
        <time>2020-09-06T19:45:41Z</time>
      </trkpt>
      <trkpt lat="47.80687" lon="6.73079">
        <ele>565.6</ele>
        <time>2020-09-06T19:45:41Z</time>
      </trkpt>
      <trkpt lat="47.80694" lon="6.73101">
        <ele>566.7</ele>
        <time>2020-09-06T19:45:41Z</time>
      </trkpt>
      <trkpt lat="47.80703" lon="6.73119">
        <ele>567.8</ele>
        <time>2020-09-06T19:45:41Z</time>
      </trkpt>
      <trkpt lat="47.80716" lon="6.73146">
        <ele>569.4</ele>
        <time>2020-09-06T19:45:41Z</time>
      </trkpt>
      <trkpt lat="47.80726" lon="6.73167">
        <ele>570.2</ele>
        <time>2020-09-06T19:45:41Z</time>
      </trkpt>
      <trkpt lat="47.80738" lon="6.73199">
        <ele>571.6</ele>
        <time>2020-09-06T19:45:41Z</time>
      </trkpt>
      <trkpt lat="47.80744" lon="6.73216">
        <ele>572.6</ele>
        <time>2020-09-06T19:45:41Z</time>
      </trkpt>
      <trkpt lat="47.80753" lon="6.73234">
        <ele>573.4</ele>
        <time>2020-09-06T19:45:41Z</time>
      </trkpt>
      <trkpt lat="47.80759" lon="6.73247">
        <ele>574</ele>
        <time>2020-09-06T19:45:41Z</time>
      </trkpt>
      <trkpt lat="47.80773" lon="6.73269">
        <ele>575.2</ele>
        <time>2020-09-06T19:45:41Z</time>
      </trkpt>
      <trkpt lat="47.80784" lon="6.73288">
        <ele>576.4</ele>
        <time>2020-09-06T19:45:41Z</time>
      </trkpt>
      <trkpt lat="47.80793" lon="6.73305">
        <ele>577.5</ele>
        <time>2020-09-06T19:45:41Z</time>
      </trkpt>
      <trkpt lat="47.80799" lon="6.73319">
        <ele>578.1</ele>
        <time>2020-09-06T19:45:41Z</time>
      </trkpt>
      <trkpt lat="47.80805" lon="6.73331">
        <ele>578.7</ele>
        <time>2020-09-06T19:45:41Z</time>
      </trkpt>
      <trkpt lat="47.80811" lon="6.73339">
        <ele>579.2</ele>
        <time>2020-09-06T19:45:41Z</time>
      </trkpt>
      <trkpt lat="47.80822" lon="6.73353">
        <ele>580.2</ele>
        <time>2020-09-06T19:45:41Z</time>
      </trkpt>
      <trkpt lat="47.80838" lon="6.73372">
        <ele>580.8</ele>
        <time>2020-09-06T19:45:41Z</time>
      </trkpt>
      <trkpt lat="47.80856" lon="6.734">
        <ele>581.9</ele>
        <time>2020-09-06T19:45:41Z</time>
      </trkpt>
      <trkpt lat="47.80865" lon="6.73416">
        <ele>582.5</ele>
        <time>2020-09-06T19:45:41Z</time>
      </trkpt>
      <trkpt lat="47.8087" lon="6.7343">
        <ele>582.8</ele>
        <time>2020-09-06T19:45:41Z</time>
      </trkpt>
      <trkpt lat="47.80878" lon="6.73448">
        <ele>583</ele>
        <time>2020-09-06T19:45:41Z</time>
      </trkpt>
      <trkpt lat="47.80888" lon="6.73467">
        <ele>582.9</ele>
        <time>2020-09-06T19:45:41Z</time>
      </trkpt>
      <trkpt lat="47.80905" lon="6.73502">
        <ele>582.1</ele>
        <time>2020-09-06T19:45:41Z</time>
      </trkpt>
      <trkpt lat="47.80912" lon="6.73514">
        <ele>581.9</ele>
        <time>2020-09-06T19:45:41Z</time>
      </trkpt>
      <trkpt lat="47.80917" lon="6.73527">
        <ele>581.5</ele>
        <time>2020-09-06T19:45:41Z</time>
      </trkpt>
      <trkpt lat="47.80928" lon="6.73559">
        <ele>580.2</ele>
        <time>2020-09-06T19:45:41Z</time>
      </trkpt>
      <trkpt lat="47.80938" lon="6.73587">
        <ele>579.1</ele>
        <time>2020-09-06T19:45:41Z</time>
      </trkpt>
      <trkpt lat="47.80955" lon="6.7363">
        <ele>577.7</ele>
        <time>2020-09-06T19:45:41Z</time>
      </trkpt>
      <trkpt lat="47.80965" lon="6.73654">
        <ele>576.9</ele>
        <time>2020-09-06T19:45:41Z</time>
      </trkpt>
      <trkpt lat="47.80973" lon="6.73671">
        <ele>576.3</ele>
        <time>2020-09-06T19:45:41Z</time>
      </trkpt>
      <trkpt lat="47.80979" lon="6.73683">
        <ele>575.9</ele>
        <time>2020-09-06T19:45:41Z</time>
      </trkpt>
      <trkpt lat="47.80984" lon="6.73694">
        <ele>575.5</ele>
        <time>2020-09-06T19:45:41Z</time>
      </trkpt>
      <trkpt lat="47.80992" lon="6.73713">
        <ele>574.9</ele>
        <time>2020-09-06T19:45:41Z</time>
      </trkpt>
      <trkpt lat="47.81002" lon="6.73735">
        <ele>574.5</ele>
        <time>2020-09-06T19:45:41Z</time>
      </trkpt>
      <trkpt lat="47.81011" lon="6.73752">
        <ele>574.2</ele>
        <time>2020-09-06T19:45:41Z</time>
      </trkpt>
      <trkpt lat="47.81017" lon="6.73763">
        <ele>573.9</ele>
        <time>2020-09-06T19:45:41Z</time>
      </trkpt>
      <trkpt lat="47.81023" lon="6.73776">
        <ele>574.1</ele>
        <time>2020-09-06T19:45:41Z</time>
      </trkpt>
      <trkpt lat="47.81027" lon="6.73785">
        <ele>574.2</ele>
        <time>2020-09-06T19:45:41Z</time>
      </trkpt>
      <trkpt lat="47.81031" lon="6.73797">
        <ele>573.9</ele>
        <time>2020-09-06T19:45:41Z</time>
      </trkpt>
      <trkpt lat="47.81035" lon="6.73809">
        <ele>574</ele>
        <time>2020-09-06T19:45:41Z</time>
      </trkpt>
      <trkpt lat="47.81038" lon="6.73816">
        <ele>574</ele>
        <time>2020-09-06T19:45:41Z</time>
      </trkpt>
      <trkpt lat="47.81039" lon="6.7383">
        <ele>573.4</ele>
        <time>2020-09-06T19:45:41Z</time>
      </trkpt>
      <trkpt lat="47.81035" lon="6.73839">
        <ele>572.7</ele>
        <time>2020-09-06T19:45:41Z</time>
      </trkpt>
      <trkpt lat="47.81026" lon="6.73852">
        <ele>571.8</ele>
        <time>2020-09-06T19:45:41Z</time>
      </trkpt>
      <trkpt lat="47.81022" lon="6.73864">
        <ele>571.5</ele>
        <time>2020-09-06T19:45:41Z</time>
      </trkpt>
      <trkpt lat="47.8102" lon="6.73873">
        <ele>571.4</ele>
        <time>2020-09-06T19:45:41Z</time>
      </trkpt>
      <trkpt lat="47.81018" lon="6.73886">
        <ele>571.3</ele>
        <time>2020-09-06T19:45:41Z</time>
      </trkpt>
      <trkpt lat="47.81019" lon="6.73896">
        <ele>571.3</ele>
        <time>2020-09-06T19:45:41Z</time>
      </trkpt>
      <trkpt lat="47.8102" lon="6.73922">
        <ele>571.7</ele>
        <time>2020-09-06T19:45:41Z</time>
      </trkpt>
      <trkpt lat="47.8102" lon="6.73932">
        <ele>572.1</ele>
        <time>2020-09-06T19:45:41Z</time>
      </trkpt>
      <trkpt lat="47.81019" lon="6.73943">
        <ele>572.5</ele>
        <time>2020-09-06T19:45:41Z</time>
      </trkpt>
      <trkpt lat="47.81016" lon="6.7395">
        <ele>572.3</ele>
        <time>2020-09-06T19:45:41Z</time>
      </trkpt>
      <trkpt lat="47.81012" lon="6.73956">
        <ele>572.5</ele>
        <time>2020-09-06T19:45:41Z</time>
      </trkpt>
      <trkpt lat="47.81007" lon="6.73963">
        <ele>572.4</ele>
        <time>2020-09-06T19:45:41Z</time>
      </trkpt>
      <trkpt lat="47.80998" lon="6.73973">
        <ele>573.1</ele>
        <time>2020-09-06T19:45:41Z</time>
      </trkpt>
      <trkpt lat="47.80995" lon="6.73981">
        <ele>573.5</ele>
        <time>2020-09-06T19:45:41Z</time>
      </trkpt>
      <trkpt lat="47.8099" lon="6.73995">
        <ele>574.9</ele>
        <time>2020-09-06T19:45:41Z</time>
      </trkpt>
      <trkpt lat="47.80986" lon="6.74008">
        <ele>576</ele>
        <time>2020-09-06T19:45:41Z</time>
      </trkpt>
      <trkpt lat="47.8098" lon="6.74021">
        <ele>577.2</ele>
        <time>2020-09-06T19:45:41Z</time>
      </trkpt>
      <trkpt lat="47.80972" lon="6.74034">
        <ele>578</ele>
        <time>2020-09-06T19:45:41Z</time>
      </trkpt>
      <trkpt lat="47.80963" lon="6.74044">
        <ele>578.2</ele>
        <time>2020-09-06T19:45:41Z</time>
      </trkpt>
      <trkpt lat="47.80956" lon="6.74049">
        <ele>578.4</ele>
        <time>2020-09-06T19:45:41Z</time>
      </trkpt>
      <trkpt lat="47.80951" lon="6.7405">
        <ele>578.6</ele>
        <time>2020-09-06T19:45:41Z</time>
      </trkpt>
      <trkpt lat="47.80944" lon="6.74051">
        <ele>579.3</ele>
        <time>2020-09-06T19:45:41Z</time>
      </trkpt>
      <trkpt lat="47.80938" lon="6.74051">
        <ele>579.5</ele>
        <time>2020-09-06T19:45:41Z</time>
      </trkpt>
      <trkpt lat="47.80927" lon="6.74048">
        <ele>579.7</ele>
        <time>2020-09-06T19:45:41Z</time>
      </trkpt>
      <trkpt lat="47.8092" lon="6.74045">
        <ele>579.8</ele>
        <time>2020-09-06T19:45:41Z</time>
      </trkpt>
      <trkpt lat="47.80914" lon="6.74041">
        <ele>580.2</ele>
        <time>2020-09-06T19:45:41Z</time>
      </trkpt>
      <trkpt lat="47.80907" lon="6.74035">
        <ele>580.4</ele>
        <time>2020-09-06T19:45:41Z</time>
      </trkpt>
      <trkpt lat="47.80902" lon="6.74029">
        <ele>581.1</ele>
        <time>2020-09-06T19:45:41Z</time>
      </trkpt>
      <trkpt lat="47.80898" lon="6.7402">
        <ele>581</ele>
        <time>2020-09-06T19:45:41Z</time>
      </trkpt>
      <trkpt lat="47.80893" lon="6.74007">
        <ele>580.7</ele>
        <time>2020-09-06T19:45:41Z</time>
      </trkpt>
      <trkpt lat="47.8089" lon="6.73996">
        <ele>580.2</ele>
        <time>2020-09-06T19:45:41Z</time>
      </trkpt>
      <trkpt lat="47.80885" lon="6.73979">
        <ele>580.2</ele>
        <time>2020-09-06T19:45:41Z</time>
      </trkpt>
      <trkpt lat="47.80881" lon="6.73969">
        <ele>579.9</ele>
        <time>2020-09-06T19:45:41Z</time>
      </trkpt>
      <trkpt lat="47.80877" lon="6.7396">
        <ele>579.8</ele>
        <time>2020-09-06T19:45:41Z</time>
      </trkpt>
      <trkpt lat="47.80866" lon="6.73954">
        <ele>580.5</ele>
        <time>2020-09-06T19:45:41Z</time>
      </trkpt>
      <trkpt lat="47.80856" lon="6.73945">
        <ele>581.1</ele>
        <time>2020-09-06T19:45:41Z</time>
      </trkpt>
      <trkpt lat="47.8084" lon="6.73932">
        <ele>583.1</ele>
        <time>2020-09-06T19:45:41Z</time>
      </trkpt>
      <trkpt lat="47.80828" lon="6.73921">
        <ele>584.8</ele>
        <time>2020-09-06T19:45:41Z</time>
      </trkpt>
      <trkpt lat="47.80814" lon="6.73902">
        <ele>586.3</ele>
        <time>2020-09-06T19:45:41Z</time>
      </trkpt>
      <trkpt lat="47.80803" lon="6.73889">
        <ele>588.1</ele>
        <time>2020-09-06T19:45:41Z</time>
      </trkpt>
      <trkpt lat="47.80794" lon="6.73879">
        <ele>588.9</ele>
        <time>2020-09-06T19:45:41Z</time>
      </trkpt>
      <trkpt lat="47.80786" lon="6.73866">
        <ele>590.4</ele>
        <time>2020-09-06T19:45:41Z</time>
      </trkpt>
      <trkpt lat="47.80778" lon="6.73851">
        <ele>590.7</ele>
        <time>2020-09-06T19:45:41Z</time>
      </trkpt>
      <trkpt lat="47.8077" lon="6.73838">
        <ele>592</ele>
        <time>2020-09-06T19:45:41Z</time>
      </trkpt>
      <trkpt lat="47.80762" lon="6.73826">
        <ele>593.3</ele>
        <time>2020-09-06T19:45:41Z</time>
      </trkpt>
      <trkpt lat="47.80752" lon="6.73813">
        <ele>595.4</ele>
        <time>2020-09-06T19:45:41Z</time>
      </trkpt>
      <trkpt lat="47.8074" lon="6.73801">
        <ele>596.8</ele>
        <time>2020-09-06T19:45:41Z</time>
      </trkpt>
      <trkpt lat="47.8073" lon="6.7379">
        <ele>598.3</ele>
        <time>2020-09-06T19:45:41Z</time>
      </trkpt>
      <trkpt lat="47.80722" lon="6.73784">
        <ele>599.4</ele>
        <time>2020-09-06T19:45:41Z</time>
      </trkpt>
      <trkpt lat="47.8071" lon="6.73776">
        <ele>600.4</ele>
        <time>2020-09-06T19:45:41Z</time>
      </trkpt>
      <trkpt lat="47.80699" lon="6.73772">
        <ele>601.8</ele>
        <time>2020-09-06T19:45:41Z</time>
      </trkpt>
      <trkpt lat="47.80687" lon="6.73771">
        <ele>603.5</ele>
        <time>2020-09-06T19:45:41Z</time>
      </trkpt>
      <trkpt lat="47.80671" lon="6.73775">
        <ele>604.6</ele>
        <time>2020-09-06T19:45:41Z</time>
      </trkpt>
      <trkpt lat="47.80649" lon="6.7378">
        <ele>608.7</ele>
        <time>2020-09-06T19:45:41Z</time>
      </trkpt>
      <trkpt lat="47.8063" lon="6.73786">
        <ele>611.4</ele>
        <time>2020-09-06T19:45:41Z</time>
      </trkpt>
      <trkpt lat="47.80615" lon="6.73792">
        <ele>613</ele>
        <time>2020-09-06T19:45:41Z</time>
      </trkpt>
      <trkpt lat="47.80604" lon="6.73793">
        <ele>614.5</ele>
        <time>2020-09-06T19:45:41Z</time>
      </trkpt>
      <trkpt lat="47.80593" lon="6.73793">
        <ele>616.5</ele>
        <time>2020-09-06T19:45:41Z</time>
      </trkpt>
      <trkpt lat="47.80585" lon="6.73791">
        <ele>617.3</ele>
        <time>2020-09-06T19:45:41Z</time>
      </trkpt>
      <trkpt lat="47.8057" lon="6.73791">
        <ele>619.7</ele>
        <time>2020-09-06T19:45:41Z</time>
      </trkpt>
      <trkpt lat="47.8056" lon="6.7379">
        <ele>620.5</ele>
        <time>2020-09-06T19:45:41Z</time>
      </trkpt>
      <trkpt lat="47.80552" lon="6.73791">
        <ele>621.1</ele>
        <time>2020-09-06T19:45:41Z</time>
      </trkpt>
      <trkpt lat="47.80542" lon="6.73794">
        <ele>622.2</ele>
        <time>2020-09-06T19:45:41Z</time>
      </trkpt>
      <trkpt lat="47.80529" lon="6.73798">
        <ele>623.9</ele>
        <time>2020-09-06T19:45:41Z</time>
      </trkpt>
      <trkpt lat="47.80522" lon="6.73804">
        <ele>624.3</ele>
        <time>2020-09-06T19:45:41Z</time>
      </trkpt>
      <trkpt lat="47.80514" lon="6.73813">
        <ele>624.8</ele>
        <time>2020-09-06T19:45:41Z</time>
      </trkpt>
      <trkpt lat="47.80507" lon="6.73825">
        <ele>625.6</ele>
        <time>2020-09-06T19:45:41Z</time>
      </trkpt>
      <trkpt lat="47.805" lon="6.73838">
        <ele>626.5</ele>
        <time>2020-09-06T19:45:41Z</time>
      </trkpt>
      <trkpt lat="47.80495" lon="6.73853">
        <ele>628.1</ele>
        <time>2020-09-06T19:45:41Z</time>
      </trkpt>
      <trkpt lat="47.80478" lon="6.73919">
        <ele>630</ele>
        <time>2020-09-06T19:45:41Z</time>
      </trkpt>
      <trkpt lat="47.80469" lon="6.73947">
        <ele>630.6</ele>
        <time>2020-09-06T19:45:41Z</time>
      </trkpt>
      <trkpt lat="47.80437" lon="6.74038">
        <ele>632.8</ele>
        <time>2020-09-06T19:45:41Z</time>
      </trkpt>
      <trkpt lat="47.80429" lon="6.74059">
        <ele>633.6</ele>
        <time>2020-09-06T19:45:41Z</time>
      </trkpt>
      <trkpt lat="47.80415" lon="6.74094">
        <ele>634.6</ele>
        <time>2020-09-06T19:45:41Z</time>
      </trkpt>
      <trkpt lat="47.80395" lon="6.74144">
        <ele>637.1</ele>
        <time>2020-09-06T19:45:41Z</time>
      </trkpt>
      <trkpt lat="47.8038" lon="6.74176">
        <ele>638</ele>
        <time>2020-09-06T19:45:41Z</time>
      </trkpt>
      <trkpt lat="47.8037" lon="6.74194">
        <ele>638.3</ele>
        <time>2020-09-06T19:45:41Z</time>
      </trkpt>
      <trkpt lat="47.80358" lon="6.7421">
        <ele>638.8</ele>
        <time>2020-09-06T19:45:41Z</time>
      </trkpt>
      <trkpt lat="47.80332" lon="6.74242">
        <ele>639.7</ele>
        <time>2020-09-06T19:45:41Z</time>
      </trkpt>
      <trkpt lat="47.80319" lon="6.74259">
        <ele>641.1</ele>
        <time>2020-09-06T19:45:41Z</time>
      </trkpt>
      <trkpt lat="47.80309" lon="6.74267">
        <ele>642.6</ele>
        <time>2020-09-06T19:45:41Z</time>
      </trkpt>
      <trkpt lat="47.80298" lon="6.74278">
        <ele>646.3</ele>
        <time>2020-09-06T19:45:41Z</time>
      </trkpt>
      <trkpt lat="47.80285" lon="6.74285">
        <ele>645.4</ele>
        <time>2020-09-06T19:45:41Z</time>
      </trkpt>
      <trkpt lat="47.80269" lon="6.74297">
        <ele>646.6</ele>
        <time>2020-09-06T19:45:41Z</time>
      </trkpt>
      <trkpt lat="47.80256" lon="6.743">
        <ele>646.9</ele>
        <time>2020-09-06T19:45:41Z</time>
      </trkpt>
      <trkpt lat="47.80245" lon="6.743">
        <ele>647.3</ele>
        <time>2020-09-06T19:45:41Z</time>
      </trkpt>
      <trkpt lat="47.80234" lon="6.74297">
        <ele>647.6</ele>
        <time>2020-09-06T19:45:41Z</time>
      </trkpt>
      <trkpt lat="47.8022" lon="6.74295">
        <ele>648.7</ele>
        <time>2020-09-06T19:45:41Z</time>
      </trkpt>
      <trkpt lat="47.80205" lon="6.74296">
        <ele>649.8</ele>
        <time>2020-09-06T19:45:41Z</time>
      </trkpt>
      <trkpt lat="47.80195" lon="6.74297">
        <ele>650.9</ele>
        <time>2020-09-06T19:45:41Z</time>
      </trkpt>
      <trkpt lat="47.80169" lon="6.74302">
        <ele>653.3</ele>
        <time>2020-09-06T19:45:41Z</time>
      </trkpt>
      <trkpt lat="47.80143" lon="6.74313">
        <ele>655.2</ele>
        <time>2020-09-06T19:45:41Z</time>
      </trkpt>
      <trkpt lat="47.80124" lon="6.74324">
        <ele>657.1</ele>
        <time>2020-09-06T19:45:41Z</time>
      </trkpt>
      <trkpt lat="47.80106" lon="6.74334">
        <ele>658.4</ele>
        <time>2020-09-06T19:45:41Z</time>
      </trkpt>
      <trkpt lat="47.80092" lon="6.7434">
        <ele>659.5</ele>
        <time>2020-09-06T19:45:41Z</time>
      </trkpt>
      <trkpt lat="47.80084" lon="6.74342">
        <ele>660.4</ele>
        <time>2020-09-06T19:45:41Z</time>
      </trkpt>
      <trkpt lat="47.80076" lon="6.74343">
        <ele>661</ele>
        <time>2020-09-06T19:45:41Z</time>
      </trkpt>
      <trkpt lat="47.80062" lon="6.74343">
        <ele>661.4</ele>
        <time>2020-09-06T19:45:41Z</time>
      </trkpt>
      <trkpt lat="47.80052" lon="6.7434">
        <ele>662.7</ele>
        <time>2020-09-06T19:45:41Z</time>
      </trkpt>
      <trkpt lat="47.80039" lon="6.74333">
        <ele>664.2</ele>
        <time>2020-09-06T19:45:41Z</time>
      </trkpt>
      <trkpt lat="47.80025" lon="6.74324">
        <ele>665</ele>
        <time>2020-09-06T19:45:41Z</time>
      </trkpt>
      <trkpt lat="47.80017" lon="6.74321">
        <ele>665.4</ele>
        <time>2020-09-06T19:45:41Z</time>
      </trkpt>
      <trkpt lat="47.8001" lon="6.74322">
        <ele>665.7</ele>
        <time>2020-09-06T19:45:41Z</time>
      </trkpt>
      <trkpt lat="47.80003" lon="6.74325">
        <ele>666.5</ele>
        <time>2020-09-06T19:45:41Z</time>
      </trkpt>
      <trkpt lat="47.8" lon="6.74333">
        <ele>666.9</ele>
        <time>2020-09-06T19:45:41Z</time>
      </trkpt>
      <trkpt lat="47.8" lon="6.74341">
        <ele>667.5</ele>
        <time>2020-09-06T19:45:41Z</time>
      </trkpt>
      <trkpt lat="47.80002" lon="6.7435">
        <ele>668.4</ele>
        <time>2020-09-06T19:45:41Z</time>
      </trkpt>
      <trkpt lat="47.80008" lon="6.74361">
        <ele>670</ele>
        <time>2020-09-06T19:45:41Z</time>
      </trkpt>
      <trkpt lat="47.80017" lon="6.74373">
        <ele>672.1</ele>
        <time>2020-09-06T19:45:41Z</time>
      </trkpt>
      <trkpt lat="47.80027" lon="6.74388">
        <ele>674</ele>
        <time>2020-09-06T19:45:41Z</time>
      </trkpt>
      <trkpt lat="47.80034" lon="6.74401">
        <ele>675.6</ele>
        <time>2020-09-06T19:45:41Z</time>
      </trkpt>
      <trkpt lat="47.80042" lon="6.74421">
        <ele>677.9</ele>
        <time>2020-09-06T19:45:41Z</time>
      </trkpt>
      <trkpt lat="47.80046" lon="6.74438">
        <ele>679.3</ele>
        <time>2020-09-06T19:45:41Z</time>
      </trkpt>
      <trkpt lat="47.80048" lon="6.74452">
        <ele>680.6</ele>
        <time>2020-09-06T19:45:41Z</time>
      </trkpt>
      <trkpt lat="47.80047" lon="6.74462">
        <ele>681.9</ele>
        <time>2020-09-06T19:45:41Z</time>
      </trkpt>
      <trkpt lat="47.80045" lon="6.74469">
        <ele>682.3</ele>
        <time>2020-09-06T19:45:41Z</time>
      </trkpt>
      <trkpt lat="47.8004" lon="6.74474">
        <ele>683.2</ele>
        <time>2020-09-06T19:45:41Z</time>
      </trkpt>
      <trkpt lat="47.80035" lon="6.74475">
        <ele>684.6</ele>
        <time>2020-09-06T19:45:41Z</time>
      </trkpt>
      <trkpt lat="47.80024" lon="6.74476">
        <ele>685.7</ele>
        <time>2020-09-06T19:45:41Z</time>
      </trkpt>
      <trkpt lat="47.80011" lon="6.74477">
        <ele>686.9</ele>
        <time>2020-09-06T19:45:41Z</time>
      </trkpt>
      <trkpt lat="47.79992" lon="6.74482">
        <ele>688.8</ele>
        <time>2020-09-06T19:45:41Z</time>
      </trkpt>
      <trkpt lat="47.7998" lon="6.74485">
        <ele>689.7</ele>
        <time>2020-09-06T19:45:41Z</time>
      </trkpt>
      <trkpt lat="47.79962" lon="6.74484">
        <ele>692.1</ele>
        <time>2020-09-06T19:45:41Z</time>
      </trkpt>
      <trkpt lat="47.79936" lon="6.74485">
        <ele>695.7</ele>
        <time>2020-09-06T19:45:41Z</time>
      </trkpt>
      <trkpt lat="47.79929" lon="6.74487">
        <ele>696.3</ele>
        <time>2020-09-06T19:45:41Z</time>
      </trkpt>
      <trkpt lat="47.79924" lon="6.74492">
        <ele>697.2</ele>
        <time>2020-09-06T19:45:41Z</time>
      </trkpt>
      <trkpt lat="47.79918" lon="6.74498">
        <ele>697.9</ele>
        <time>2020-09-06T19:45:41Z</time>
      </trkpt>
      <trkpt lat="47.79907" lon="6.74509">
        <ele>700.2</ele>
        <time>2020-09-06T19:45:41Z</time>
      </trkpt>
      <trkpt lat="47.79901" lon="6.74513">
        <ele>700.2</ele>
        <time>2020-09-06T19:45:41Z</time>
      </trkpt>
      <trkpt lat="47.79892" lon="6.74521">
        <ele>701.4</ele>
        <time>2020-09-06T19:45:41Z</time>
      </trkpt>
      <trkpt lat="47.79885" lon="6.74532">
        <ele>702.7</ele>
        <time>2020-09-06T19:45:41Z</time>
      </trkpt>
      <trkpt lat="47.79879" lon="6.74535">
        <ele>702.7</ele>
        <time>2020-09-06T19:45:41Z</time>
      </trkpt>
      <trkpt lat="47.79869" lon="6.74534">
        <ele>702.6</ele>
        <time>2020-09-06T19:45:41Z</time>
      </trkpt>
      <trkpt lat="47.7986" lon="6.74534">
        <ele>703.2</ele>
        <time>2020-09-06T19:45:41Z</time>
      </trkpt>
      <trkpt lat="47.79848" lon="6.74528">
        <ele>704.4</ele>
        <time>2020-09-06T19:45:41Z</time>
      </trkpt>
      <trkpt lat="47.79832" lon="6.74517">
        <ele>706.1</ele>
        <time>2020-09-06T19:45:41Z</time>
      </trkpt>
      <trkpt lat="47.79822" lon="6.74507">
        <ele>706.8</ele>
        <time>2020-09-06T19:45:41Z</time>
      </trkpt>
      <trkpt lat="47.7981" lon="6.74501">
        <ele>707.9</ele>
        <time>2020-09-06T19:45:41Z</time>
      </trkpt>
      <trkpt lat="47.79801" lon="6.74499">
        <ele>708.8</ele>
        <time>2020-09-06T19:45:41Z</time>
      </trkpt>
      <trkpt lat="47.79793" lon="6.74501">
        <ele>709.6</ele>
        <time>2020-09-06T19:45:41Z</time>
      </trkpt>
      <trkpt lat="47.79783" lon="6.74505">
        <ele>710.8</ele>
        <time>2020-09-06T19:45:41Z</time>
      </trkpt>
      <trkpt lat="47.79765" lon="6.74519">
        <ele>713.5</ele>
        <time>2020-09-06T19:45:41Z</time>
      </trkpt>
      <trkpt lat="47.79734" lon="6.74555">
        <ele>718.2</ele>
        <time>2020-09-06T19:45:41Z</time>
      </trkpt>
      <trkpt lat="47.79711" lon="6.74577">
        <ele>722.8</ele>
        <time>2020-09-06T19:45:41Z</time>
      </trkpt>
      <trkpt lat="47.79695" lon="6.74592">
        <ele>725.8</ele>
        <time>2020-09-06T19:45:41Z</time>
      </trkpt>
      <trkpt lat="47.79686" lon="6.74605">
        <ele>727.2</ele>
        <time>2020-09-06T19:45:41Z</time>
      </trkpt>
      <trkpt lat="47.79682" lon="6.74618">
        <ele>729.1</ele>
        <time>2020-09-06T19:45:41Z</time>
      </trkpt>
      <trkpt lat="47.79681" lon="6.74635">
        <ele>730.3</ele>
        <time>2020-09-06T19:45:41Z</time>
      </trkpt>
      <trkpt lat="47.79682" lon="6.74646">
        <ele>730.9</ele>
        <time>2020-09-06T19:45:41Z</time>
      </trkpt>
      <trkpt lat="47.79686" lon="6.74655">
        <ele>732.5</ele>
        <time>2020-09-06T19:45:41Z</time>
      </trkpt>
      <trkpt lat="47.79691" lon="6.74658">
        <ele>733.1</ele>
        <time>2020-09-06T19:45:41Z</time>
      </trkpt>
      <trkpt lat="47.79699" lon="6.74658">
        <ele>734.7</ele>
        <time>2020-09-06T19:45:41Z</time>
      </trkpt>
      <trkpt lat="47.79708" lon="6.74655">
        <ele>736.1</ele>
        <time>2020-09-06T19:45:41Z</time>
      </trkpt>
      <trkpt lat="47.79721" lon="6.74651">
        <ele>738.2</ele>
        <time>2020-09-06T19:45:41Z</time>
      </trkpt>
      <trkpt lat="47.79729" lon="6.74653">
        <ele>739.8</ele>
        <time>2020-09-06T19:45:41Z</time>
      </trkpt>
      <trkpt lat="47.79733" lon="6.74658">
        <ele>740.9</ele>
        <time>2020-09-06T19:45:41Z</time>
      </trkpt>
      <trkpt lat="47.79736" lon="6.74668">
        <ele>743.3</ele>
        <time>2020-09-06T19:45:41Z</time>
      </trkpt>
      <trkpt lat="47.79736" lon="6.74677">
        <ele>744.7</ele>
        <time>2020-09-06T19:45:41Z</time>
      </trkpt>
      <trkpt lat="47.79734" lon="6.74685">
        <ele>746.1</ele>
        <time>2020-09-06T19:45:41Z</time>
      </trkpt>
      <trkpt lat="47.79726" lon="6.74696">
        <ele>748</ele>
        <time>2020-09-06T19:45:41Z</time>
      </trkpt>
      <trkpt lat="47.79715" lon="6.7471">
        <ele>750.3</ele>
        <time>2020-09-06T19:45:41Z</time>
      </trkpt>
      <trkpt lat="47.79691" lon="6.74749">
        <ele>756.7</ele>
        <time>2020-09-06T19:45:41Z</time>
      </trkpt>
      <trkpt lat="47.79667" lon="6.74795">
        <ele>763</ele>
        <time>2020-09-06T19:45:41Z</time>
      </trkpt>
      <trkpt lat="47.79651" lon="6.74825">
        <ele>767.7</ele>
        <time>2020-09-06T19:45:41Z</time>
      </trkpt>
      <trkpt lat="47.79636" lon="6.74859">
        <ele>772.6</ele>
        <time>2020-09-06T19:45:41Z</time>
      </trkpt>
      <trkpt lat="47.79621" lon="6.74902">
        <ele>777.8</ele>
        <time>2020-09-06T19:45:41Z</time>
      </trkpt>
      <trkpt lat="47.7961" lon="6.74927">
        <ele>781.4</ele>
        <time>2020-09-06T19:45:41Z</time>
      </trkpt>
      <trkpt lat="47.79606" lon="6.7494">
        <ele>783.1</ele>
        <time>2020-09-06T19:45:41Z</time>
      </trkpt>
      <trkpt lat="47.79604" lon="6.74955">
        <ele>784.7</ele>
        <time>2020-09-06T19:45:41Z</time>
      </trkpt>
      <trkpt lat="47.79601" lon="6.74979">
        <ele>787.9</ele>
        <time>2020-09-06T19:45:41Z</time>
      </trkpt>
      <trkpt lat="47.79598" lon="6.74993">
        <ele>789.4</ele>
        <time>2020-09-06T19:45:41Z</time>
      </trkpt>
      <trkpt lat="47.79594" lon="6.75002">
        <ele>790.4</ele>
        <time>2020-09-06T19:45:41Z</time>
      </trkpt>
      <trkpt lat="47.79589" lon="6.75011">
        <ele>791.7</ele>
        <time>2020-09-06T19:45:41Z</time>
      </trkpt>
      <trkpt lat="47.79584" lon="6.7503">
        <ele>794.7</ele>
        <time>2020-09-06T19:45:41Z</time>
      </trkpt>
      <trkpt lat="47.79578" lon="6.75048">
        <ele>796.6</ele>
        <time>2020-09-06T19:45:41Z</time>
      </trkpt>
      <trkpt lat="47.79572" lon="6.75056">
        <ele>796.6</ele>
        <time>2020-09-06T19:45:41Z</time>
      </trkpt>
      <trkpt lat="47.79565" lon="6.75062">
        <ele>796.9</ele>
        <time>2020-09-06T19:45:41Z</time>
      </trkpt>
      <trkpt lat="47.79555" lon="6.75067">
        <ele>797.7</ele>
        <time>2020-09-06T19:45:41Z</time>
      </trkpt>
      <trkpt lat="47.79535" lon="6.75073">
        <ele>799</ele>
        <time>2020-09-06T19:45:41Z</time>
      </trkpt>
      <trkpt lat="47.79522" lon="6.75077">
        <ele>800.6</ele>
        <time>2020-09-06T19:45:41Z</time>
      </trkpt>
      <trkpt lat="47.79505" lon="6.75085">
        <ele>803.7</ele>
        <time>2020-09-06T19:45:41Z</time>
      </trkpt>
      <trkpt lat="47.79494" lon="6.75091">
        <ele>805.4</ele>
        <time>2020-09-06T19:45:41Z</time>
      </trkpt>
      <trkpt lat="47.79477" lon="6.75105">
        <ele>808.6</ele>
        <time>2020-09-06T19:45:41Z</time>
      </trkpt>
      <trkpt lat="47.79462" lon="6.75122">
        <ele>811.8</ele>
        <time>2020-09-06T19:45:41Z</time>
      </trkpt>
      <trkpt lat="47.79448" lon="6.75135">
        <ele>814.4</ele>
        <time>2020-09-06T19:45:41Z</time>
      </trkpt>
      <trkpt lat="47.7944" lon="6.75144">
        <ele>816</ele>
        <time>2020-09-06T19:45:41Z</time>
      </trkpt>
      <trkpt lat="47.79432" lon="6.75152">
        <ele>817.7</ele>
        <time>2020-09-06T19:45:41Z</time>
      </trkpt>
      <trkpt lat="47.79424" lon="6.75154">
        <ele>819</ele>
        <time>2020-09-06T19:45:41Z</time>
      </trkpt>
      <trkpt lat="47.79416" lon="6.75149">
        <ele>820.2</ele>
        <time>2020-09-06T19:45:41Z</time>
      </trkpt>
      <trkpt lat="47.7941" lon="6.7514">
        <ele>820.9</ele>
        <time>2020-09-06T19:45:41Z</time>
      </trkpt>
      <trkpt lat="47.79401" lon="6.75103">
        <ele>823.8</ele>
        <time>2020-09-06T19:45:41Z</time>
      </trkpt>
      <trkpt lat="47.79397" lon="6.75073">
        <ele>826.2</ele>
        <time>2020-09-06T19:45:41Z</time>
      </trkpt>
      <trkpt lat="47.79395" lon="6.75054">
        <ele>828.4</ele>
        <time>2020-09-06T19:45:41Z</time>
      </trkpt>
      <trkpt lat="47.79391" lon="6.75035">
        <ele>830.1</ele>
        <time>2020-09-06T19:45:41Z</time>
      </trkpt>
      <trkpt lat="47.79382" lon="6.75012">
        <ele>832.5</ele>
        <time>2020-09-06T19:45:41Z</time>
      </trkpt>
      <trkpt lat="47.79372" lon="6.74997">
        <ele>834.8</ele>
        <time>2020-09-06T19:45:41Z</time>
      </trkpt>
      <trkpt lat="47.79362" lon="6.74983">
        <ele>836.3</ele>
        <time>2020-09-06T19:45:41Z</time>
      </trkpt>
      <trkpt lat="47.79353" lon="6.74971">
        <ele>838.3</ele>
        <time>2020-09-06T19:45:41Z</time>
      </trkpt>
      <trkpt lat="47.79344" lon="6.74958">
        <ele>839.5</ele>
        <time>2020-09-06T19:45:41Z</time>
      </trkpt>
      <trkpt lat="47.79329" lon="6.74946">
        <ele>841</ele>
        <time>2020-09-06T19:45:41Z</time>
      </trkpt>
      <trkpt lat="47.79317" lon="6.74939">
        <ele>842.2</ele>
        <time>2020-09-06T19:45:41Z</time>
      </trkpt>
      <trkpt lat="47.7931" lon="6.74932">
        <ele>843</ele>
        <time>2020-09-06T19:45:41Z</time>
      </trkpt>
      <trkpt lat="47.79305" lon="6.74922">
        <ele>843.4</ele>
        <time>2020-09-06T19:45:41Z</time>
      </trkpt>
      <trkpt lat="47.79301" lon="6.74905">
        <ele>845.1</ele>
        <time>2020-09-06T19:45:41Z</time>
      </trkpt>
      <trkpt lat="47.79298" lon="6.74876">
        <ele>846.8</ele>
        <time>2020-09-06T19:45:41Z</time>
      </trkpt>
      <trkpt lat="47.79295" lon="6.74847">
        <ele>850.3</ele>
        <time>2020-09-06T19:45:41Z</time>
      </trkpt>
      <trkpt lat="47.79296" lon="6.7482">
        <ele>851.7</ele>
        <time>2020-09-06T19:45:41Z</time>
      </trkpt>
      <trkpt lat="47.79293" lon="6.74806">
        <ele>852.9</ele>
        <time>2020-09-06T19:45:41Z</time>
      </trkpt>
      <trkpt lat="47.79289" lon="6.74801">
        <ele>853.2</ele>
        <time>2020-09-06T19:45:41Z</time>
      </trkpt>
      <trkpt lat="47.79283" lon="6.74798">
        <ele>854.2</ele>
        <time>2020-09-06T19:45:41Z</time>
      </trkpt>
      <trkpt lat="47.79276" lon="6.74798">
        <ele>854.7</ele>
        <time>2020-09-06T19:45:41Z</time>
      </trkpt>
      <trkpt lat="47.79272" lon="6.74801">
        <ele>855.2</ele>
        <time>2020-09-06T19:45:41Z</time>
      </trkpt>
      <trkpt lat="47.79267" lon="6.74809">
        <ele>855.8</ele>
        <time>2020-09-06T19:45:41Z</time>
      </trkpt>
      <trkpt lat="47.79261" lon="6.74824">
        <ele>857.3</ele>
        <time>2020-09-06T19:45:41Z</time>
      </trkpt>
      <trkpt lat="47.79247" lon="6.74863">
        <ele>861.1</ele>
        <time>2020-09-06T19:45:41Z</time>
      </trkpt>
      <trkpt lat="47.79239" lon="6.74892">
        <ele>863.9</ele>
        <time>2020-09-06T19:45:41Z</time>
      </trkpt>
      <trkpt lat="47.7923" lon="6.74921">
        <ele>866.8</ele>
        <time>2020-09-06T19:45:41Z</time>
      </trkpt>
      <trkpt lat="47.79225" lon="6.74927">
        <ele>867.6</ele>
        <time>2020-09-06T19:45:41Z</time>
      </trkpt>
      <trkpt lat="47.7922" lon="6.74929">
        <ele>868.8</ele>
        <time>2020-09-06T19:45:41Z</time>
      </trkpt>
      <trkpt lat="47.79213" lon="6.74926">
        <ele>869.4</ele>
        <time>2020-09-06T19:45:41Z</time>
      </trkpt>
      <trkpt lat="47.79209" lon="6.74918">
        <ele>870.2</ele>
        <time>2020-09-06T19:45:41Z</time>
      </trkpt>
      <trkpt lat="47.79203" lon="6.74899">
        <ele>872.1</ele>
        <time>2020-09-06T19:45:41Z</time>
      </trkpt>
      <trkpt lat="47.79194" lon="6.74867">
        <ele>876.3</ele>
        <time>2020-09-06T19:45:41Z</time>
      </trkpt>
      <trkpt lat="47.79191" lon="6.74842">
        <ele>877.1</ele>
        <time>2020-09-06T19:45:41Z</time>
      </trkpt>
      <trkpt lat="47.7919" lon="6.74825">
        <ele>879.3</ele>
        <time>2020-09-06T19:45:41Z</time>
      </trkpt>
      <trkpt lat="47.79193" lon="6.74803">
        <ele>880.8</ele>
        <time>2020-09-06T19:45:41Z</time>
      </trkpt>
      <trkpt lat="47.79196" lon="6.74778">
        <ele>882.5</ele>
        <time>2020-09-06T19:45:41Z</time>
      </trkpt>
      <trkpt lat="47.79204" lon="6.74747">
        <ele>884.6</ele>
        <time>2020-09-06T19:45:41Z</time>
      </trkpt>
      <trkpt lat="47.79208" lon="6.74718">
        <ele>887.4</ele>
        <time>2020-09-06T19:45:41Z</time>
      </trkpt>
      <trkpt lat="47.7921" lon="6.7469">
        <ele>890.3</ele>
        <time>2020-09-06T19:45:41Z</time>
      </trkpt>
      <trkpt lat="47.79208" lon="6.74668">
        <ele>892</ele>
        <time>2020-09-06T19:45:41Z</time>
      </trkpt>
      <trkpt lat="47.79207" lon="6.74642">
        <ele>895.6</ele>
        <time>2020-09-06T19:45:41Z</time>
      </trkpt>
      <trkpt lat="47.79203" lon="6.74614">
        <ele>895.8</ele>
        <time>2020-09-06T19:45:41Z</time>
      </trkpt>
      <trkpt lat="47.792" lon="6.74588">
        <ele>897.9</ele>
        <time>2020-09-06T19:45:41Z</time>
      </trkpt>
      <trkpt lat="47.79194" lon="6.74556">
        <ele>902.8</ele>
        <time>2020-09-06T19:45:41Z</time>
      </trkpt>
      <trkpt lat="47.79191" lon="6.74531">
        <ele>903</ele>
        <time>2020-09-06T19:45:41Z</time>
      </trkpt>
      <trkpt lat="47.79188" lon="6.74493">
        <ele>905.9</ele>
        <time>2020-09-06T19:45:41Z</time>
      </trkpt>
      <trkpt lat="47.79184" lon="6.74461">
        <ele>908.7</ele>
        <time>2020-09-06T19:45:41Z</time>
      </trkpt>
      <trkpt lat="47.79179" lon="6.74436">
        <ele>909.7</ele>
        <time>2020-09-06T19:45:41Z</time>
      </trkpt>
      <trkpt lat="47.79174" lon="6.74416">
        <ele>910.5</ele>
        <time>2020-09-06T19:45:41Z</time>
      </trkpt>
      <trkpt lat="47.79165" lon="6.7439">
        <ele>912.7</ele>
        <time>2020-09-06T19:45:41Z</time>
      </trkpt>
      <trkpt lat="47.79158" lon="6.74364">
        <ele>915.4</ele>
        <time>2020-09-06T19:45:41Z</time>
      </trkpt>
      <trkpt lat="47.79151" lon="6.74332">
        <ele>915.5</ele>
        <time>2020-09-06T19:45:41Z</time>
      </trkpt>
      <trkpt lat="47.79146" lon="6.74308">
        <ele>915.9</ele>
        <time>2020-09-06T19:45:41Z</time>
      </trkpt>
      <trkpt lat="47.79143" lon="6.74279">
        <ele>916.7</ele>
        <time>2020-09-06T19:45:41Z</time>
      </trkpt>
      <trkpt lat="47.7914" lon="6.74256">
        <ele>917.5</ele>
        <time>2020-09-06T19:45:41Z</time>
      </trkpt>
      <trkpt lat="47.79138" lon="6.74247">
        <ele>918.2</ele>
        <time>2020-09-06T19:45:41Z</time>
      </trkpt>
      <trkpt lat="47.79135" lon="6.74241">
        <ele>918.4</ele>
        <time>2020-09-06T19:45:41Z</time>
      </trkpt>
      <trkpt lat="47.7913" lon="6.74232">
        <ele>918.7</ele>
        <time>2020-09-06T19:45:41Z</time>
      </trkpt>
      <trkpt lat="47.79124" lon="6.74227">
        <ele>918.6</ele>
        <time>2020-09-06T19:45:41Z</time>
      </trkpt>
      <trkpt lat="47.7912" lon="6.74225">
        <ele>918.2</ele>
        <time>2020-09-06T19:45:41Z</time>
      </trkpt>
      <trkpt lat="47.7911" lon="6.74217">
        <ele>917.2</ele>
        <time>2020-09-06T19:45:41Z</time>
      </trkpt>
      <trkpt lat="47.79094" lon="6.74208">
        <ele>914.9</ele>
        <time>2020-09-06T19:45:41Z</time>
      </trkpt>
      <trkpt lat="47.79085" lon="6.74205">
        <ele>913.6</ele>
        <time>2020-09-06T19:45:41Z</time>
      </trkpt>
      <trkpt lat="47.79077" lon="6.74204">
        <ele>912.4</ele>
        <time>2020-09-06T19:45:41Z</time>
      </trkpt>
      <trkpt lat="47.79063" lon="6.74209">
        <ele>910.6</ele>
        <time>2020-09-06T19:45:41Z</time>
      </trkpt>
      <trkpt lat="47.79054" lon="6.74214">
        <ele>909.8</ele>
        <time>2020-09-06T19:45:41Z</time>
      </trkpt>
      <trkpt lat="47.79047" lon="6.74215">
        <ele>909</ele>
        <time>2020-09-06T19:45:41Z</time>
      </trkpt>
      <trkpt lat="47.79038" lon="6.74215">
        <ele>908.5</ele>
        <time>2020-09-06T19:45:41Z</time>
      </trkpt>
      <trkpt lat="47.79031" lon="6.74212">
        <ele>908.2</ele>
        <time>2020-09-06T19:45:41Z</time>
      </trkpt>
      <trkpt lat="47.79025" lon="6.74209">
        <ele>908</ele>
        <time>2020-09-06T19:45:41Z</time>
      </trkpt>
      <trkpt lat="47.7902" lon="6.74206">
        <ele>907.8</ele>
        <time>2020-09-06T19:45:41Z</time>
      </trkpt>
      <trkpt lat="47.79009" lon="6.74195">
        <ele>907.6</ele>
        <time>2020-09-06T19:45:41Z</time>
      </trkpt>
      <trkpt lat="47.79" lon="6.74183">
        <ele>907.6</ele>
        <time>2020-09-06T19:45:41Z</time>
      </trkpt>
      <trkpt lat="47.78993" lon="6.74174">
        <ele>907.6</ele>
        <time>2020-09-06T19:45:41Z</time>
      </trkpt>
      <trkpt lat="47.78984" lon="6.74166">
        <ele>907.3</ele>
        <time>2020-09-06T19:45:41Z</time>
      </trkpt>
      <trkpt lat="47.78969" lon="6.74155">
        <ele>906.8</ele>
        <time>2020-09-06T19:45:41Z</time>
      </trkpt>
      <trkpt lat="47.78941" lon="6.74134">
        <ele>906.1</ele>
        <time>2020-09-06T19:45:41Z</time>
      </trkpt>
      <trkpt lat="47.7892" lon="6.74119">
        <ele>905.9</ele>
        <time>2020-09-06T19:45:41Z</time>
      </trkpt>
      <trkpt lat="47.78893" lon="6.74097">
        <ele>905.6</ele>
        <time>2020-09-06T19:45:41Z</time>
      </trkpt>
      <trkpt lat="47.78875" lon="6.74085">
        <ele>905.1</ele>
        <time>2020-09-06T19:45:41Z</time>
      </trkpt>
      <trkpt lat="47.78855" lon="6.74069">
        <ele>904</ele>
        <time>2020-09-06T19:45:41Z</time>
      </trkpt>
      <trkpt lat="47.78844" lon="6.7406">
        <ele>903.2</ele>
        <time>2020-09-06T19:45:41Z</time>
      </trkpt>
      <trkpt lat="47.78839" lon="6.74053">
        <ele>902.4</ele>
        <time>2020-09-06T19:45:41Z</time>
      </trkpt>
      <trkpt lat="47.78835" lon="6.74048">
        <ele>902.2</ele>
        <time>2020-09-06T19:45:41Z</time>
      </trkpt>
      <trkpt lat="47.7883" lon="6.74042">
        <ele>902.1</ele>
        <time>2020-09-06T19:45:41Z</time>
      </trkpt>
      <trkpt lat="47.7882" lon="6.74027">
        <ele>902</ele>
        <time>2020-09-06T19:45:41Z</time>
      </trkpt>
      <trkpt lat="47.78809" lon="6.74011">
        <ele>901.9</ele>
        <time>2020-09-06T19:45:41Z</time>
      </trkpt>
      <trkpt lat="47.78799" lon="6.73998">
        <ele>901.6</ele>
        <time>2020-09-06T19:45:41Z</time>
      </trkpt>
      <trkpt lat="47.78794" lon="6.73992">
        <ele>901.4</ele>
        <time>2020-09-06T19:45:41Z</time>
      </trkpt>
      <trkpt lat="47.78778" lon="6.73973">
        <ele>901.5</ele>
        <time>2020-09-06T19:45:41Z</time>
      </trkpt>
      <trkpt lat="47.78759" lon="6.73949">
        <ele>901.4</ele>
        <time>2020-09-06T19:45:41Z</time>
      </trkpt>
      <trkpt lat="47.78745" lon="6.73928">
        <ele>901.4</ele>
        <time>2020-09-06T19:45:41Z</time>
      </trkpt>
      <trkpt lat="47.78736" lon="6.73913">
        <ele>901.6</ele>
        <time>2020-09-06T19:45:41Z</time>
      </trkpt>
      <trkpt lat="47.78726" lon="6.7389">
        <ele>902</ele>
        <time>2020-09-06T19:45:41Z</time>
      </trkpt>
      <trkpt lat="47.7872" lon="6.73876">
        <ele>902.1</ele>
        <time>2020-09-06T19:45:41Z</time>
      </trkpt>
      <trkpt lat="47.78716" lon="6.73863">
        <ele>902.3</ele>
        <time>2020-09-06T19:45:41Z</time>
      </trkpt>
      <trkpt lat="47.78711" lon="6.73846">
        <ele>902.9</ele>
        <time>2020-09-06T19:45:41Z</time>
      </trkpt>
      <trkpt lat="47.78707" lon="6.73832">
        <ele>903.5</ele>
        <time>2020-09-06T19:45:41Z</time>
      </trkpt>
      <trkpt lat="47.78703" lon="6.73823">
        <ele>904</ele>
        <time>2020-09-06T19:45:41Z</time>
      </trkpt>
      <trkpt lat="47.78699" lon="6.73815">
        <ele>904.6</ele>
        <time>2020-09-06T19:45:41Z</time>
      </trkpt>
      <trkpt lat="47.78695" lon="6.73806">
        <ele>904.9</ele>
        <time>2020-09-06T19:45:41Z</time>
      </trkpt>
      <trkpt lat="47.78689" lon="6.73796">
        <ele>905</ele>
        <time>2020-09-06T19:45:41Z</time>
      </trkpt>
      <trkpt lat="47.78676" lon="6.73776">
        <ele>905.8</ele>
        <time>2020-09-06T19:45:41Z</time>
      </trkpt>
      <trkpt lat="47.78652" lon="6.73742">
        <ele>908.2</ele>
        <time>2020-09-06T19:45:41Z</time>
      </trkpt>
      <trkpt lat="47.78644" lon="6.73732">
        <ele>908.5</ele>
        <time>2020-09-06T19:45:41Z</time>
      </trkpt>
      <trkpt lat="47.78638" lon="6.73724">
        <ele>908.6</ele>
        <time>2020-09-06T19:45:41Z</time>
      </trkpt>
      <trkpt lat="47.78633" lon="6.73717">
        <ele>908.9</ele>
        <time>2020-09-06T19:45:41Z</time>
      </trkpt>
      <trkpt lat="47.7862" lon="6.73716">
        <ele>907.8</ele>
        <time>2020-09-06T19:45:41Z</time>
      </trkpt>
      <trkpt lat="47.78612" lon="6.73714">
        <ele>907</ele>
        <time>2020-09-06T19:45:41Z</time>
      </trkpt>
      <trkpt lat="47.78599" lon="6.73709">
        <ele>905</ele>
        <time>2020-09-06T19:45:41Z</time>
      </trkpt>
      <trkpt lat="47.78588" lon="6.73704">
        <ele>902.8</ele>
        <time>2020-09-06T19:45:41Z</time>
      </trkpt>
      <trkpt lat="47.7858" lon="6.73699">
        <ele>901.2</ele>
        <time>2020-09-06T19:45:41Z</time>
      </trkpt>
      <trkpt lat="47.78573" lon="6.73698">
        <ele>900.5</ele>
        <time>2020-09-06T19:45:41Z</time>
      </trkpt>
      <trkpt lat="47.78564" lon="6.73697">
        <ele>898.2</ele>
        <time>2020-09-06T19:45:41Z</time>
      </trkpt>
      <trkpt lat="47.78549" lon="6.73694">
        <ele>894.7</ele>
        <time>2020-09-06T19:45:41Z</time>
      </trkpt>
      <trkpt lat="47.78524" lon="6.7369">
        <ele>889.9</ele>
        <time>2020-09-06T19:45:41Z</time>
      </trkpt>
      <trkpt lat="47.78511" lon="6.73688">
        <ele>887.1</ele>
        <time>2020-09-06T19:45:41Z</time>
      </trkpt>
      <trkpt lat="47.785" lon="6.73686">
        <ele>885.4</ele>
        <time>2020-09-06T19:45:41Z</time>
      </trkpt>
      <trkpt lat="47.78495" lon="6.73683">
        <ele>884.2</ele>
        <time>2020-09-06T19:45:41Z</time>
      </trkpt>
      <trkpt lat="47.78487" lon="6.73676">
        <ele>882.1</ele>
        <time>2020-09-06T19:45:41Z</time>
      </trkpt>
      <trkpt lat="47.7848" lon="6.7367">
        <ele>879.8</ele>
        <time>2020-09-06T19:45:41Z</time>
      </trkpt>
      <trkpt lat="47.78471" lon="6.73664">
        <ele>878</ele>
        <time>2020-09-06T19:45:41Z</time>
      </trkpt>
      <trkpt lat="47.78462" lon="6.73657">
        <ele>876</ele>
        <time>2020-09-06T19:45:41Z</time>
      </trkpt>
      <trkpt lat="47.78451" lon="6.73642">
        <ele>872.8</ele>
        <time>2020-09-06T19:45:41Z</time>
      </trkpt>
      <trkpt lat="47.78441" lon="6.73631">
        <ele>870.9</ele>
        <time>2020-09-06T19:45:41Z</time>
      </trkpt>
      <trkpt lat="47.78425" lon="6.73616">
        <ele>867.4</ele>
        <time>2020-09-06T19:45:41Z</time>
      </trkpt>
      <trkpt lat="47.78409" lon="6.73601">
        <ele>864.5</ele>
        <time>2020-09-06T19:45:41Z</time>
      </trkpt>
      <trkpt lat="47.78392" lon="6.73592">
        <ele>862.7</ele>
        <time>2020-09-06T19:45:41Z</time>
      </trkpt>
      <trkpt lat="47.78372" lon="6.73581">
        <ele>859.5</ele>
        <time>2020-09-06T19:45:41Z</time>
      </trkpt>
      <trkpt lat="47.78358" lon="6.73575">
        <ele>858</ele>
        <time>2020-09-06T19:45:41Z</time>
      </trkpt>
      <trkpt lat="47.78347" lon="6.73571">
        <ele>856.3</ele>
        <time>2020-09-06T19:45:41Z</time>
      </trkpt>
      <trkpt lat="47.78335" lon="6.73568">
        <ele>854.5</ele>
        <time>2020-09-06T19:45:41Z</time>
      </trkpt>
      <trkpt lat="47.78315" lon="6.73563">
        <ele>852.4</ele>
        <time>2020-09-06T19:45:41Z</time>
      </trkpt>
      <trkpt lat="47.78304" lon="6.7356">
        <ele>850.8</ele>
        <time>2020-09-06T19:45:41Z</time>
      </trkpt>
      <trkpt lat="47.78293" lon="6.73557">
        <ele>850.1</ele>
        <time>2020-09-06T19:45:41Z</time>
      </trkpt>
      <trkpt lat="47.78278" lon="6.73552">
        <ele>849.1</ele>
        <time>2020-09-06T19:45:41Z</time>
      </trkpt>
      <trkpt lat="47.78264" lon="6.73548">
        <ele>847.5</ele>
        <time>2020-09-06T19:45:41Z</time>
      </trkpt>
      <trkpt lat="47.78245" lon="6.73543">
        <ele>844.9</ele>
        <time>2020-09-06T19:45:41Z</time>
      </trkpt>
      <trkpt lat="47.78237" lon="6.7354">
        <ele>844.2</ele>
        <time>2020-09-06T19:45:41Z</time>
      </trkpt>
      <trkpt lat="47.78229" lon="6.73536">
        <ele>843.5</ele>
        <time>2020-09-06T19:45:41Z</time>
      </trkpt>
      <trkpt lat="47.7822" lon="6.73531">
        <ele>842.3</ele>
        <time>2020-09-06T19:45:41Z</time>
      </trkpt>
      <trkpt lat="47.78207" lon="6.73523">
        <ele>840.5</ele>
        <time>2020-09-06T19:45:41Z</time>
      </trkpt>
      <trkpt lat="47.78196" lon="6.73515">
        <ele>839.2</ele>
        <time>2020-09-06T19:45:41Z</time>
      </trkpt>
      <trkpt lat="47.78182" lon="6.73506">
        <ele>837.2</ele>
        <time>2020-09-06T19:45:41Z</time>
      </trkpt>
      <trkpt lat="47.78173" lon="6.73498">
        <ele>835.4</ele>
        <time>2020-09-06T19:45:41Z</time>
      </trkpt>
      <trkpt lat="47.78167" lon="6.7349">
        <ele>833.2</ele>
        <time>2020-09-06T19:45:41Z</time>
      </trkpt>
      <trkpt lat="47.78164" lon="6.73483">
        <ele>832.6</ele>
        <time>2020-09-06T19:45:41Z</time>
      </trkpt>
      <trkpt lat="47.78159" lon="6.73483">
        <ele>832.3</ele>
        <time>2020-09-06T19:45:41Z</time>
      </trkpt>
      <trkpt lat="47.78146" lon="6.73483">
        <ele>831.3</ele>
        <time>2020-09-06T19:45:41Z</time>
      </trkpt>
      <trkpt lat="47.78124" lon="6.73482">
        <ele>829.6</ele>
        <time>2020-09-06T19:45:41Z</time>
      </trkpt>
      <trkpt lat="47.781" lon="6.73481">
        <ele>827.8</ele>
        <time>2020-09-06T19:45:41Z</time>
      </trkpt>
      <trkpt lat="47.78083" lon="6.73479">
        <ele>827.2</ele>
        <time>2020-09-06T19:45:41Z</time>
      </trkpt>
      <trkpt lat="47.78068" lon="6.73476">
        <ele>826.4</ele>
        <time>2020-09-06T19:45:41Z</time>
      </trkpt>
      <trkpt lat="47.78056" lon="6.73472">
        <ele>825.8</ele>
        <time>2020-09-06T19:45:41Z</time>
      </trkpt>
      <trkpt lat="47.78049" lon="6.73468">
        <ele>825.6</ele>
        <time>2020-09-06T19:45:41Z</time>
      </trkpt>
      <trkpt lat="47.78043" lon="6.73463">
        <ele>825.6</ele>
        <time>2020-09-06T19:45:41Z</time>
      </trkpt>
      <trkpt lat="47.78037" lon="6.73456">
        <ele>825.4</ele>
        <time>2020-09-06T19:45:41Z</time>
      </trkpt>
      <trkpt lat="47.7803" lon="6.73446">
        <ele>825.4</ele>
        <time>2020-09-06T19:45:41Z</time>
      </trkpt>
      <trkpt lat="47.78019" lon="6.73431">
        <ele>825</ele>
        <time>2020-09-06T19:45:41Z</time>
      </trkpt>
      <trkpt lat="47.78008" lon="6.73416">
        <ele>824.7</ele>
        <time>2020-09-06T19:45:41Z</time>
      </trkpt>
      <trkpt lat="47.77988" lon="6.73394">
        <ele>823.7</ele>
        <time>2020-09-06T19:45:41Z</time>
      </trkpt>
      <trkpt lat="47.77968" lon="6.73369">
        <ele>822.9</ele>
        <time>2020-09-06T19:45:41Z</time>
      </trkpt>
      <trkpt lat="47.77944" lon="6.73339">
        <ele>822.4</ele>
        <time>2020-09-06T19:45:41Z</time>
      </trkpt>
      <trkpt lat="47.7793" lon="6.73322">
        <ele>822</ele>
        <time>2020-09-06T19:45:41Z</time>
      </trkpt>
      <trkpt lat="47.77921" lon="6.73309">
        <ele>821.6</ele>
        <time>2020-09-06T19:45:41Z</time>
      </trkpt>
      <trkpt lat="47.77915" lon="6.73299">
        <ele>821.6</ele>
        <time>2020-09-06T19:45:41Z</time>
      </trkpt>
      <trkpt lat="47.77912" lon="6.73292">
        <ele>821.3</ele>
        <time>2020-09-06T19:45:41Z</time>
      </trkpt>
      <trkpt lat="47.7791" lon="6.73284">
        <ele>821.3</ele>
        <time>2020-09-06T19:45:41Z</time>
      </trkpt>
      <trkpt lat="47.77908" lon="6.73275">
        <ele>821.3</ele>
        <time>2020-09-06T19:45:41Z</time>
      </trkpt>
      <trkpt lat="47.77907" lon="6.73263">
        <ele>821.3</ele>
        <time>2020-09-06T19:45:41Z</time>
      </trkpt>
      <trkpt lat="47.77907" lon="6.73243">
        <ele>821.4</ele>
        <time>2020-09-06T19:45:41Z</time>
      </trkpt>
      <trkpt lat="47.77906" lon="6.73228">
        <ele>821.5</ele>
        <time>2020-09-06T19:45:41Z</time>
      </trkpt>
      <trkpt lat="47.77905" lon="6.73209">
        <ele>821.4</ele>
        <time>2020-09-06T19:45:41Z</time>
      </trkpt>
      <trkpt lat="47.77901" lon="6.73188">
        <ele>821.6</ele>
        <time>2020-09-06T19:45:41Z</time>
      </trkpt>
      <trkpt lat="47.77896" lon="6.73173">
        <ele>821.7</ele>
        <time>2020-09-06T19:45:41Z</time>
      </trkpt>
      <trkpt lat="47.77888" lon="6.73151">
        <ele>821.8</ele>
        <time>2020-09-06T19:45:41Z</time>
      </trkpt>
      <trkpt lat="47.77878" lon="6.73127">
        <ele>821.9</ele>
        <time>2020-09-06T19:45:41Z</time>
      </trkpt>
      <trkpt lat="47.77868" lon="6.73106">
        <ele>822.6</ele>
        <time>2020-09-06T19:45:41Z</time>
      </trkpt>
      <trkpt lat="47.77862" lon="6.73097">
        <ele>822.6</ele>
        <time>2020-09-06T19:45:41Z</time>
      </trkpt>
      <trkpt lat="47.77857" lon="6.73091">
        <ele>822.9</ele>
        <time>2020-09-06T19:45:41Z</time>
      </trkpt>
      <trkpt lat="47.77852" lon="6.73088">
        <ele>823.1</ele>
        <time>2020-09-06T19:45:41Z</time>
      </trkpt>
      <trkpt lat="47.77845" lon="6.73086">
        <ele>822.9</ele>
        <time>2020-09-06T19:45:41Z</time>
      </trkpt>
      <trkpt lat="47.77837" lon="6.73086">
        <ele>822.1</ele>
        <time>2020-09-06T19:45:41Z</time>
      </trkpt>
      <trkpt lat="47.77831" lon="6.73089">
        <ele>821.8</ele>
        <time>2020-09-06T19:45:41Z</time>
      </trkpt>
      <trkpt lat="47.77821" lon="6.73094">
        <ele>820.9</ele>
        <time>2020-09-06T19:45:41Z</time>
      </trkpt>
      <trkpt lat="47.77817" lon="6.73097">
        <ele>820.9</ele>
        <time>2020-09-06T19:45:41Z</time>
      </trkpt>
      <trkpt lat="47.77792" lon="6.73113">
        <ele>820</ele>
        <time>2020-09-06T19:45:41Z</time>
      </trkpt>
      <trkpt lat="47.77738" lon="6.73154">
        <ele>818</ele>
        <time>2020-09-06T19:45:41Z</time>
      </trkpt>
      <trkpt lat="47.77671" lon="6.732">
        <ele>817</ele>
        <time>2020-09-06T19:45:41Z</time>
      </trkpt>
      <trkpt lat="47.77665" lon="6.73205">
        <ele>817.1</ele>
        <time>2020-09-06T19:45:41Z</time>
      </trkpt>
      <trkpt lat="47.77655" lon="6.73213">
        <ele>817.2</ele>
        <time>2020-09-06T19:45:41Z</time>
      </trkpt>
      <trkpt lat="47.77649" lon="6.73219">
        <ele>817.2</ele>
        <time>2020-09-06T19:45:41Z</time>
      </trkpt>
      <trkpt lat="47.77643" lon="6.73224">
        <ele>817.2</ele>
        <time>2020-09-06T19:45:41Z</time>
      </trkpt>
      <trkpt lat="47.77632" lon="6.73237">
        <ele>816.4</ele>
        <time>2020-09-06T19:45:41Z</time>
      </trkpt>
      <trkpt lat="47.77626" lon="6.73245">
        <ele>816.1</ele>
        <time>2020-09-06T19:45:41Z</time>
      </trkpt>
      <trkpt lat="47.77602" lon="6.73277">
        <ele>814.5</ele>
        <time>2020-09-06T19:45:41Z</time>
      </trkpt>
      <trkpt lat="47.77568" lon="6.73322">
        <ele>811.7</ele>
        <time>2020-09-06T19:45:41Z</time>
      </trkpt>
      <trkpt lat="47.77538" lon="6.73357">
        <ele>810.3</ele>
        <time>2020-09-06T19:45:41Z</time>
      </trkpt>
      <trkpt lat="47.77524" lon="6.73372">
        <ele>809.2</ele>
        <time>2020-09-06T19:45:41Z</time>
      </trkpt>
      <trkpt lat="47.77516" lon="6.73381">
        <ele>808.6</ele>
        <time>2020-09-06T19:45:41Z</time>
      </trkpt>
      <trkpt lat="47.77506" lon="6.73388">
        <ele>808.3</ele>
        <time>2020-09-06T19:45:41Z</time>
      </trkpt>
      <trkpt lat="47.77496" lon="6.73392">
        <ele>807.9</ele>
        <time>2020-09-06T19:45:41Z</time>
      </trkpt>
      <trkpt lat="47.77486" lon="6.73392">
        <ele>807.1</ele>
        <time>2020-09-06T19:45:41Z</time>
      </trkpt>
      <trkpt lat="47.77472" lon="6.73388">
        <ele>806.2</ele>
        <time>2020-09-06T19:45:41Z</time>
      </trkpt>
      <trkpt lat="47.77451" lon="6.73379">
        <ele>805.2</ele>
        <time>2020-09-06T19:45:41Z</time>
      </trkpt>
      <trkpt lat="47.77442" lon="6.73375">
        <ele>804.8</ele>
        <time>2020-09-06T19:45:41Z</time>
      </trkpt>
      <trkpt lat="47.77435" lon="6.7337">
        <ele>804.5</ele>
        <time>2020-09-06T19:45:41Z</time>
      </trkpt>
      <trkpt lat="47.77426" lon="6.73359">
        <ele>803.5</ele>
        <time>2020-09-06T19:45:41Z</time>
      </trkpt>
      <trkpt lat="47.77416" lon="6.73347">
        <ele>803.3</ele>
        <time>2020-09-06T19:45:41Z</time>
      </trkpt>
      <trkpt lat="47.7741" lon="6.7334">
        <ele>803.3</ele>
        <time>2020-09-06T19:45:41Z</time>
      </trkpt>
      <trkpt lat="47.77403" lon="6.73337">
        <ele>802.8</ele>
        <time>2020-09-06T19:45:41Z</time>
      </trkpt>
      <trkpt lat="47.77394" lon="6.73337">
        <ele>802.4</ele>
        <time>2020-09-06T19:45:41Z</time>
      </trkpt>
      <trkpt lat="47.77384" lon="6.73339">
        <ele>801.9</ele>
        <time>2020-09-06T19:45:41Z</time>
      </trkpt>
      <trkpt lat="47.77366" lon="6.73344">
        <ele>801</ele>
        <time>2020-09-06T19:45:41Z</time>
      </trkpt>
      <trkpt lat="47.77354" lon="6.73347">
        <ele>800.3</ele>
        <time>2020-09-06T19:45:41Z</time>
      </trkpt>
      <trkpt lat="47.77339" lon="6.7335">
        <ele>799.6</ele>
        <time>2020-09-06T19:45:41Z</time>
      </trkpt>
      <trkpt lat="47.77323" lon="6.73349">
        <ele>799.1</ele>
        <time>2020-09-06T19:45:41Z</time>
      </trkpt>
      <trkpt lat="47.7731" lon="6.7335">
        <ele>798.9</ele>
        <time>2020-09-06T19:45:41Z</time>
      </trkpt>
      <trkpt lat="47.77303" lon="6.73349">
        <ele>798.8</ele>
        <time>2020-09-06T19:45:41Z</time>
      </trkpt>
      <trkpt lat="47.77291" lon="6.73345">
        <ele>798.6</ele>
        <time>2020-09-06T19:45:41Z</time>
      </trkpt>
      <trkpt lat="47.77279" lon="6.73339">
        <ele>798.4</ele>
        <time>2020-09-06T19:45:41Z</time>
      </trkpt>
      <trkpt lat="47.77272" lon="6.73337">
        <ele>798.4</ele>
        <time>2020-09-06T19:45:41Z</time>
      </trkpt>
      <trkpt lat="47.77267" lon="6.73336">
        <ele>798.2</ele>
        <time>2020-09-06T19:45:41Z</time>
      </trkpt>
      <trkpt lat="47.77263" lon="6.73336">
        <ele>798</ele>
        <time>2020-09-06T19:45:41Z</time>
      </trkpt>
      <trkpt lat="47.77255" lon="6.73336">
        <ele>797.9</ele>
        <time>2020-09-06T19:45:41Z</time>
      </trkpt>
      <trkpt lat="47.77245" lon="6.73341">
        <ele>797.9</ele>
        <time>2020-09-06T19:45:41Z</time>
      </trkpt>
      <trkpt lat="47.77229" lon="6.7335">
        <ele>796.6</ele>
        <time>2020-09-06T19:45:41Z</time>
      </trkpt>
      <trkpt lat="47.77214" lon="6.73353">
        <ele>795.5</ele>
        <time>2020-09-06T19:45:41Z</time>
      </trkpt>
      <trkpt lat="47.77204" lon="6.73353">
        <ele>795.2</ele>
        <time>2020-09-06T19:45:41Z</time>
      </trkpt>
      <trkpt lat="47.77193" lon="6.73349">
        <ele>794.8</ele>
        <time>2020-09-06T19:45:41Z</time>
      </trkpt>
      <trkpt lat="47.77183" lon="6.73343">
        <ele>794.4</ele>
        <time>2020-09-06T19:45:41Z</time>
      </trkpt>
      <trkpt lat="47.77175" lon="6.73338">
        <ele>793.8</ele>
        <time>2020-09-06T19:45:41Z</time>
      </trkpt>
      <trkpt lat="47.77169" lon="6.73331">
        <ele>793.4</ele>
        <time>2020-09-06T19:45:41Z</time>
      </trkpt>
      <trkpt lat="47.77154" lon="6.73313">
        <ele>792.3</ele>
        <time>2020-09-06T19:45:41Z</time>
      </trkpt>
      <trkpt lat="47.77149" lon="6.73306">
        <ele>792.1</ele>
        <time>2020-09-06T19:45:41Z</time>
      </trkpt>
      <trkpt lat="47.77146" lon="6.73299">
        <ele>791.8</ele>
        <time>2020-09-06T19:45:41Z</time>
      </trkpt>
      <trkpt lat="47.77144" lon="6.73293">
        <ele>791.6</ele>
        <time>2020-09-06T19:45:41Z</time>
      </trkpt>
      <trkpt lat="47.77141" lon="6.73281">
        <ele>791</ele>
        <time>2020-09-06T19:45:41Z</time>
      </trkpt>
      <trkpt lat="47.77138" lon="6.7327">
        <ele>790.4</ele>
        <time>2020-09-06T19:45:41Z</time>
      </trkpt>
      <trkpt lat="47.77136" lon="6.73261">
        <ele>790.4</ele>
        <time>2020-09-06T19:45:41Z</time>
      </trkpt>
      <trkpt lat="47.7713" lon="6.73248">
        <ele>789.8</ele>
        <time>2020-09-06T19:45:41Z</time>
      </trkpt>
      <trkpt lat="47.77113" lon="6.73211">
        <ele>788.5</ele>
        <time>2020-09-06T19:45:41Z</time>
      </trkpt>
      <trkpt lat="47.77096" lon="6.73178">
        <ele>787.2</ele>
        <time>2020-09-06T19:45:41Z</time>
      </trkpt>
      <trkpt lat="47.77092" lon="6.73169">
        <ele>786.8</ele>
        <time>2020-09-06T19:45:41Z</time>
      </trkpt>
      <trkpt lat="47.77088" lon="6.7316">
        <ele>786.2</ele>
        <time>2020-09-06T19:45:41Z</time>
      </trkpt>
      <trkpt lat="47.77085" lon="6.73149">
        <ele>785.6</ele>
        <time>2020-09-06T19:45:41Z</time>
      </trkpt>
      <trkpt lat="47.77081" lon="6.73136">
        <ele>784.9</ele>
        <time>2020-09-06T19:45:41Z</time>
      </trkpt>
      <trkpt lat="47.77077" lon="6.73123">
        <ele>784.3</ele>
        <time>2020-09-06T19:45:41Z</time>
      </trkpt>
      <trkpt lat="47.77073" lon="6.73114">
        <ele>784.3</ele>
        <time>2020-09-06T19:45:41Z</time>
      </trkpt>
      <trkpt lat="47.77067" lon="6.73106">
        <ele>784.1</ele>
        <time>2020-09-06T19:45:41Z</time>
      </trkpt>
      <trkpt lat="47.77057" lon="6.73096">
        <ele>783.3</ele>
        <time>2020-09-06T19:45:41Z</time>
      </trkpt>
      <trkpt lat="47.77031" lon="6.73075">
        <ele>781.6</ele>
        <time>2020-09-06T19:45:41Z</time>
      </trkpt>
      <trkpt lat="47.77002" lon="6.73049">
        <ele>779.8</ele>
        <time>2020-09-06T19:45:41Z</time>
      </trkpt>
      <trkpt lat="47.76982" lon="6.73032">
        <ele>778.5</ele>
        <time>2020-09-06T19:45:41Z</time>
      </trkpt>
      <trkpt lat="47.7696" lon="6.73011">
        <ele>777.5</ele>
        <time>2020-09-06T19:45:41Z</time>
      </trkpt>
      <trkpt lat="47.76937" lon="6.72989">
        <ele>775.6</ele>
        <time>2020-09-06T19:45:41Z</time>
      </trkpt>
      <trkpt lat="47.76923" lon="6.72976">
        <ele>774.6</ele>
        <time>2020-09-06T19:45:41Z</time>
      </trkpt>
      <trkpt lat="47.76915" lon="6.7297">
        <ele>774</ele>
        <time>2020-09-06T19:45:41Z</time>
      </trkpt>
      <trkpt lat="47.76911" lon="6.72967">
        <ele>773.8</ele>
        <time>2020-09-06T19:45:41Z</time>
      </trkpt>
      <trkpt lat="47.76905" lon="6.72965">
        <ele>773.5</ele>
        <time>2020-09-06T19:45:41Z</time>
      </trkpt>
      <trkpt lat="47.76898" lon="6.72964">
        <ele>773</ele>
        <time>2020-09-06T19:45:41Z</time>
      </trkpt>
      <trkpt lat="47.76892" lon="6.72963">
        <ele>772.8</ele>
        <time>2020-09-06T19:45:41Z</time>
      </trkpt>
      <trkpt lat="47.76887" lon="6.72964">
        <ele>772.5</ele>
        <time>2020-09-06T19:45:41Z</time>
      </trkpt>
      <trkpt lat="47.76881" lon="6.72964">
        <ele>772.3</ele>
        <time>2020-09-06T19:45:41Z</time>
      </trkpt>
      <trkpt lat="47.76875" lon="6.72966">
        <ele>771.7</ele>
        <time>2020-09-06T19:45:41Z</time>
      </trkpt>
      <trkpt lat="47.76868" lon="6.72971">
        <ele>771.4</ele>
        <time>2020-09-06T19:45:41Z</time>
      </trkpt>
      <trkpt lat="47.76862" lon="6.72978">
        <ele>770.7</ele>
        <time>2020-09-06T19:45:41Z</time>
      </trkpt>
      <trkpt lat="47.76855" lon="6.7299">
        <ele>770.2</ele>
        <time>2020-09-06T19:45:41Z</time>
      </trkpt>
      <trkpt lat="47.76849" lon="6.73">
        <ele>769.7</ele>
        <time>2020-09-06T19:45:41Z</time>
      </trkpt>
      <trkpt lat="47.76834" lon="6.73035">
        <ele>767.7</ele>
        <time>2020-09-06T19:45:41Z</time>
      </trkpt>
      <trkpt lat="47.76817" lon="6.73073">
        <ele>765.5</ele>
        <time>2020-09-06T19:45:41Z</time>
      </trkpt>
      <trkpt lat="47.76795" lon="6.73131">
        <ele>762.8</ele>
        <time>2020-09-06T19:45:41Z</time>
      </trkpt>
      <trkpt lat="47.76781" lon="6.73166">
        <ele>760.7</ele>
        <time>2020-09-06T19:45:41Z</time>
      </trkpt>
      <trkpt lat="47.76776" lon="6.73176">
        <ele>760.2</ele>
        <time>2020-09-06T19:45:41Z</time>
      </trkpt>
      <trkpt lat="47.76754" lon="6.73234">
        <ele>757</ele>
        <time>2020-09-06T19:45:41Z</time>
      </trkpt>
      <trkpt lat="47.76733" lon="6.7329">
        <ele>754.2</ele>
        <time>2020-09-06T19:45:41Z</time>
      </trkpt>
      <trkpt lat="47.76724" lon="6.73311">
        <ele>753.2</ele>
        <time>2020-09-06T19:45:41Z</time>
      </trkpt>
      <trkpt lat="47.76719" lon="6.7332">
        <ele>752.7</ele>
        <time>2020-09-06T19:45:41Z</time>
      </trkpt>
      <trkpt lat="47.76713" lon="6.73326">
        <ele>751.9</ele>
        <time>2020-09-06T19:45:41Z</time>
      </trkpt>
      <trkpt lat="47.76706" lon="6.73331">
        <ele>751.6</ele>
        <time>2020-09-06T19:45:41Z</time>
      </trkpt>
      <trkpt lat="47.767" lon="6.73333">
        <ele>751</ele>
        <time>2020-09-06T19:45:41Z</time>
      </trkpt>
      <trkpt lat="47.76684" lon="6.73338">
        <ele>749.8</ele>
        <time>2020-09-06T19:45:41Z</time>
      </trkpt>
      <trkpt lat="47.76657" lon="6.73344">
        <ele>748.2</ele>
        <time>2020-09-06T19:45:41Z</time>
      </trkpt>
      <trkpt lat="47.7663" lon="6.7335">
        <ele>746.8</ele>
        <time>2020-09-06T19:45:41Z</time>
      </trkpt>
      <trkpt lat="47.76612" lon="6.73354">
        <ele>745.5</ele>
        <time>2020-09-06T19:45:41Z</time>
      </trkpt>
      <trkpt lat="47.76599" lon="6.73357">
        <ele>744.5</ele>
        <time>2020-09-06T19:45:41Z</time>
      </trkpt>
      <trkpt lat="47.76589" lon="6.73359">
        <ele>743.5</ele>
        <time>2020-09-06T19:45:41Z</time>
      </trkpt>
      <trkpt lat="47.76584" lon="6.73361">
        <ele>743.2</ele>
        <time>2020-09-06T19:45:41Z</time>
      </trkpt>
      <trkpt lat="47.76573" lon="6.73367">
        <ele>742.6</ele>
        <time>2020-09-06T19:45:41Z</time>
      </trkpt>
      <trkpt lat="47.76553" lon="6.73378">
        <ele>741.1</ele>
        <time>2020-09-06T19:45:41Z</time>
      </trkpt>
      <trkpt lat="47.7654" lon="6.73382">
        <ele>740.2</ele>
        <time>2020-09-06T19:45:41Z</time>
      </trkpt>
      <trkpt lat="47.76526" lon="6.73387">
        <ele>739.4</ele>
        <time>2020-09-06T19:45:41Z</time>
      </trkpt>
      <trkpt lat="47.76508" lon="6.73391">
        <ele>738.4</ele>
        <time>2020-09-06T19:45:41Z</time>
      </trkpt>
      <trkpt lat="47.7649" lon="6.73394">
        <ele>736.9</ele>
        <time>2020-09-06T19:45:41Z</time>
      </trkpt>
      <trkpt lat="47.76478" lon="6.73394">
        <ele>736.3</ele>
        <time>2020-09-06T19:45:41Z</time>
      </trkpt>
      <trkpt lat="47.7647" lon="6.73393">
        <ele>735.6</ele>
        <time>2020-09-06T19:45:41Z</time>
      </trkpt>
      <trkpt lat="47.76462" lon="6.7339">
        <ele>735.2</ele>
        <time>2020-09-06T19:45:41Z</time>
      </trkpt>
      <trkpt lat="47.76454" lon="6.73386">
        <ele>734.5</ele>
        <time>2020-09-06T19:45:41Z</time>
      </trkpt>
      <trkpt lat="47.76446" lon="6.73381">
        <ele>733.9</ele>
        <time>2020-09-06T19:45:41Z</time>
      </trkpt>
      <trkpt lat="47.76439" lon="6.73375">
        <ele>733.2</ele>
        <time>2020-09-06T19:45:41Z</time>
      </trkpt>
      <trkpt lat="47.76431" lon="6.73366">
        <ele>732.5</ele>
        <time>2020-09-06T19:45:41Z</time>
      </trkpt>
      <trkpt lat="47.76426" lon="6.73357">
        <ele>731.8</ele>
        <time>2020-09-06T19:45:41Z</time>
      </trkpt>
      <trkpt lat="47.76419" lon="6.73347">
        <ele>731.3</ele>
        <time>2020-09-06T19:45:41Z</time>
      </trkpt>
      <trkpt lat="47.76411" lon="6.73329">
        <ele>730.2</ele>
        <time>2020-09-06T19:45:41Z</time>
      </trkpt>
      <trkpt lat="47.76405" lon="6.73317">
        <ele>729.5</ele>
        <time>2020-09-06T19:45:41Z</time>
      </trkpt>
      <trkpt lat="47.76398" lon="6.73298">
        <ele>728.3</ele>
        <time>2020-09-06T19:45:41Z</time>
      </trkpt>
      <trkpt lat="47.76389" lon="6.73271">
        <ele>727</ele>
        <time>2020-09-06T19:45:41Z</time>
      </trkpt>
      <trkpt lat="47.76384" lon="6.73254">
        <ele>726</ele>
        <time>2020-09-06T19:45:41Z</time>
      </trkpt>
      <trkpt lat="47.76373" lon="6.73221">
        <ele>724.1</ele>
        <time>2020-09-06T19:45:41Z</time>
      </trkpt>
      <trkpt lat="47.76361" lon="6.73183">
        <ele>722</ele>
        <time>2020-09-06T19:45:41Z</time>
      </trkpt>
      <trkpt lat="47.76355" lon="6.73165">
        <ele>721.2</ele>
        <time>2020-09-06T19:45:41Z</time>
      </trkpt>
      <trkpt lat="47.76349" lon="6.73151">
        <ele>720.4</ele>
        <time>2020-09-06T19:45:41Z</time>
      </trkpt>
      <trkpt lat="47.76342" lon="6.73141">
        <ele>719.9</ele>
        <time>2020-09-06T19:45:41Z</time>
      </trkpt>
      <trkpt lat="47.76333" lon="6.73128">
        <ele>719.1</ele>
        <time>2020-09-06T19:45:41Z</time>
      </trkpt>
      <trkpt lat="47.76313" lon="6.73105">
        <ele>717</ele>
        <time>2020-09-06T19:45:41Z</time>
      </trkpt>
      <trkpt lat="47.76295" lon="6.73084">
        <ele>715.7</ele>
        <time>2020-09-06T19:45:41Z</time>
      </trkpt>
      <trkpt lat="47.76277" lon="6.73066">
        <ele>714.6</ele>
        <time>2020-09-06T19:45:41Z</time>
      </trkpt>
      <trkpt lat="47.76264" lon="6.73054">
        <ele>714</ele>
        <time>2020-09-06T19:45:41Z</time>
      </trkpt>
      <trkpt lat="47.76254" lon="6.73044">
        <ele>712.2</ele>
        <time>2020-09-06T19:45:41Z</time>
      </trkpt>
      <trkpt lat="47.76241" lon="6.73032">
        <ele>710.7</ele>
        <time>2020-09-06T19:45:41Z</time>
      </trkpt>
      <trkpt lat="47.76231" lon="6.73021">
        <ele>710</ele>
        <time>2020-09-06T19:45:41Z</time>
      </trkpt>
      <trkpt lat="47.76223" lon="6.73009">
        <ele>709.1</ele>
        <time>2020-09-06T19:45:41Z</time>
      </trkpt>
      <trkpt lat="47.76217" lon="6.72995">
        <ele>708.4</ele>
        <time>2020-09-06T19:45:41Z</time>
      </trkpt>
      <trkpt lat="47.7621" lon="6.72973">
        <ele>707.2</ele>
        <time>2020-09-06T19:45:41Z</time>
      </trkpt>
      <trkpt lat="47.76205" lon="6.72952">
        <ele>706.2</ele>
        <time>2020-09-06T19:45:41Z</time>
      </trkpt>
      <trkpt lat="47.76202" lon="6.72919">
        <ele>704.7</ele>
        <time>2020-09-06T19:45:41Z</time>
      </trkpt>
      <trkpt lat="47.76197" lon="6.72895">
        <ele>703.6</ele>
        <time>2020-09-06T19:45:41Z</time>
      </trkpt>
      <trkpt lat="47.7619" lon="6.72865">
        <ele>702.2</ele>
        <time>2020-09-06T19:45:41Z</time>
      </trkpt>
      <trkpt lat="47.76183" lon="6.72845">
        <ele>701.7</ele>
        <time>2020-09-06T19:45:41Z</time>
      </trkpt>
      <trkpt lat="47.76176" lon="6.7282">
        <ele>699.9</ele>
        <time>2020-09-06T19:45:41Z</time>
      </trkpt>
      <trkpt lat="47.7617" lon="6.72807">
        <ele>699.5</ele>
        <time>2020-09-06T19:45:41Z</time>
      </trkpt>
      <trkpt lat="47.76164" lon="6.72794">
        <ele>698.6</ele>
        <time>2020-09-06T19:45:41Z</time>
      </trkpt>
      <trkpt lat="47.76155" lon="6.72777">
        <ele>697.8</ele>
        <time>2020-09-06T19:45:41Z</time>
      </trkpt>
      <trkpt lat="47.76148" lon="6.72762">
        <ele>697.1</ele>
        <time>2020-09-06T19:45:41Z</time>
      </trkpt>
      <trkpt lat="47.76142" lon="6.72743">
        <ele>695.8</ele>
        <time>2020-09-06T19:45:41Z</time>
      </trkpt>
      <trkpt lat="47.76135" lon="6.72719">
        <ele>695.2</ele>
        <time>2020-09-06T19:45:41Z</time>
      </trkpt>
      <trkpt lat="47.76115" lon="6.72657">
        <ele>691.6</ele>
        <time>2020-09-06T19:45:41Z</time>
      </trkpt>
      <trkpt lat="47.76101" lon="6.72623">
        <ele>690.2</ele>
        <time>2020-09-06T19:45:41Z</time>
      </trkpt>
      <trkpt lat="47.76088" lon="6.7259">
        <ele>688.2</ele>
        <time>2020-09-06T19:45:41Z</time>
      </trkpt>
      <trkpt lat="47.7608" lon="6.72573">
        <ele>686.9</ele>
        <time>2020-09-06T19:45:41Z</time>
      </trkpt>
      <trkpt lat="47.76072" lon="6.7256">
        <ele>686.2</ele>
        <time>2020-09-06T19:45:41Z</time>
      </trkpt>
      <trkpt lat="47.76067" lon="6.72552">
        <ele>686.6</ele>
        <time>2020-09-06T19:45:41Z</time>
      </trkpt>
      <trkpt lat="47.76058" lon="6.72543">
        <ele>685.8</ele>
        <time>2020-09-06T19:45:41Z</time>
      </trkpt>
      <trkpt lat="47.76045" lon="6.72531">
        <ele>684.5</ele>
        <time>2020-09-06T19:45:41Z</time>
      </trkpt>
      <trkpt lat="47.7603" lon="6.72525">
        <ele>683.2</ele>
        <time>2020-09-06T19:45:41Z</time>
      </trkpt>
      <trkpt lat="47.76015" lon="6.72519">
        <ele>682.1</ele>
        <time>2020-09-06T19:45:41Z</time>
      </trkpt>
      <trkpt lat="47.75994" lon="6.72512">
        <ele>680.9</ele>
        <time>2020-09-06T19:45:41Z</time>
      </trkpt>
      <trkpt lat="47.75982" lon="6.72506">
        <ele>680.3</ele>
        <time>2020-09-06T19:45:41Z</time>
      </trkpt>
      <trkpt lat="47.75972" lon="6.725">
        <ele>679.6</ele>
        <time>2020-09-06T19:45:41Z</time>
      </trkpt>
      <trkpt lat="47.75963" lon="6.72492">
        <ele>679.2</ele>
        <time>2020-09-06T19:45:41Z</time>
      </trkpt>
      <trkpt lat="47.75954" lon="6.72482">
        <ele>678.2</ele>
        <time>2020-09-06T19:45:41Z</time>
      </trkpt>
      <trkpt lat="47.75945" lon="6.72471">
        <ele>677.6</ele>
        <time>2020-09-06T19:45:41Z</time>
      </trkpt>
      <trkpt lat="47.75937" lon="6.72458">
        <ele>676.8</ele>
        <time>2020-09-06T19:45:41Z</time>
      </trkpt>
      <trkpt lat="47.75929" lon="6.72442">
        <ele>676.1</ele>
        <time>2020-09-06T19:45:41Z</time>
      </trkpt>
      <trkpt lat="47.75922" lon="6.72426">
        <ele>675.1</ele>
        <time>2020-09-06T19:45:41Z</time>
      </trkpt>
      <trkpt lat="47.75913" lon="6.72403">
        <ele>673.9</ele>
        <time>2020-09-06T19:45:41Z</time>
      </trkpt>
      <trkpt lat="47.75903" lon="6.72378">
        <ele>672.7</ele>
        <time>2020-09-06T19:45:41Z</time>
      </trkpt>
      <trkpt lat="47.7589" lon="6.72348">
        <ele>671.5</ele>
        <time>2020-09-06T19:45:41Z</time>
      </trkpt>
      <trkpt lat="47.75875" lon="6.72312">
        <ele>669.9</ele>
        <time>2020-09-06T19:45:41Z</time>
      </trkpt>
      <trkpt lat="47.7585" lon="6.72258">
        <ele>667.1</ele>
        <time>2020-09-06T19:45:41Z</time>
      </trkpt>
      <trkpt lat="47.75834" lon="6.72221">
        <ele>665.2</ele>
        <time>2020-09-06T19:45:41Z</time>
      </trkpt>
      <trkpt lat="47.75826" lon="6.72206">
        <ele>664.5</ele>
        <time>2020-09-06T19:45:41Z</time>
      </trkpt>
      <trkpt lat="47.75818" lon="6.72194">
        <ele>663.6</ele>
        <time>2020-09-06T19:45:41Z</time>
      </trkpt>
      <trkpt lat="47.75808" lon="6.7218">
        <ele>662.5</ele>
        <time>2020-09-06T19:45:41Z</time>
      </trkpt>
      <trkpt lat="47.75795" lon="6.72163">
        <ele>661.6</ele>
        <time>2020-09-06T19:45:41Z</time>
      </trkpt>
      <trkpt lat="47.75784" lon="6.72149">
        <ele>661.2</ele>
        <time>2020-09-06T19:45:41Z</time>
      </trkpt>
      <trkpt lat="47.75778" lon="6.72139">
        <ele>660.7</ele>
        <time>2020-09-06T19:45:41Z</time>
      </trkpt>
      <trkpt lat="47.75772" lon="6.72129">
        <ele>660.5</ele>
        <time>2020-09-06T19:45:41Z</time>
      </trkpt>
      <trkpt lat="47.75767" lon="6.7212">
        <ele>660.1</ele>
        <time>2020-09-06T19:45:41Z</time>
      </trkpt>
      <trkpt lat="47.75763" lon="6.7211">
        <ele>659.3</ele>
        <time>2020-09-06T19:45:41Z</time>
      </trkpt>
      <trkpt lat="47.75757" lon="6.72094">
        <ele>658.5</ele>
        <time>2020-09-06T19:45:41Z</time>
      </trkpt>
      <trkpt lat="47.75748" lon="6.72069">
        <ele>656.6</ele>
        <time>2020-09-06T19:45:41Z</time>
      </trkpt>
      <trkpt lat="47.75743" lon="6.72055">
        <ele>655.7</ele>
        <time>2020-09-06T19:45:41Z</time>
      </trkpt>
      <trkpt lat="47.75739" lon="6.72046">
        <ele>655.1</ele>
        <time>2020-09-06T19:45:41Z</time>
      </trkpt>
      <trkpt lat="47.75735" lon="6.72039">
        <ele>654.5</ele>
        <time>2020-09-06T19:45:41Z</time>
      </trkpt>
      <trkpt lat="47.75727" lon="6.72025">
        <ele>653.8</ele>
        <time>2020-09-06T19:45:41Z</time>
      </trkpt>
      <trkpt lat="47.75718" lon="6.72012">
        <ele>652.3</ele>
        <time>2020-09-06T19:45:41Z</time>
      </trkpt>
      <trkpt lat="47.75696" lon="6.71984">
        <ele>649.9</ele>
        <time>2020-09-06T19:45:41Z</time>
      </trkpt>
      <trkpt lat="47.75665" lon="6.71943">
        <ele>647.8</ele>
        <time>2020-09-06T19:45:41Z</time>
      </trkpt>
      <trkpt lat="47.75638" lon="6.71915">
        <ele>645.4</ele>
        <time>2020-09-06T19:45:41Z</time>
      </trkpt>
      <trkpt lat="47.7563" lon="6.71904">
        <ele>644.4</ele>
        <time>2020-09-06T19:45:41Z</time>
      </trkpt>
      <trkpt lat="47.75629" lon="6.71897">
        <ele>644</ele>
        <time>2020-09-06T19:45:41Z</time>
      </trkpt>
      <trkpt lat="47.75629" lon="6.71889">
        <ele>643.3</ele>
        <time>2020-09-06T19:45:41Z</time>
      </trkpt>
      <trkpt lat="47.75633" lon="6.7188">
        <ele>642.6</ele>
        <time>2020-09-06T19:45:41Z</time>
      </trkpt>
      <trkpt lat="47.75639" lon="6.71875">
        <ele>642.2</ele>
        <time>2020-09-06T19:45:41Z</time>
      </trkpt>
      <trkpt lat="47.75645" lon="6.71875">
        <ele>641.8</ele>
        <time>2020-09-06T19:45:41Z</time>
      </trkpt>
      <trkpt lat="47.75655" lon="6.71877">
        <ele>641</ele>
        <time>2020-09-06T19:45:41Z</time>
      </trkpt>
      <trkpt lat="47.75663" lon="6.71881">
        <ele>640.4</ele>
        <time>2020-09-06T19:45:41Z</time>
      </trkpt>
      <trkpt lat="47.75681" lon="6.71891">
        <ele>639.1</ele>
        <time>2020-09-06T19:45:41Z</time>
      </trkpt>
      <trkpt lat="47.75693" lon="6.71898">
        <ele>638.3</ele>
        <time>2020-09-06T19:45:41Z</time>
      </trkpt>
      <trkpt lat="47.75704" lon="6.71902">
        <ele>637.9</ele>
        <time>2020-09-06T19:45:41Z</time>
      </trkpt>
      <trkpt lat="47.75715" lon="6.71903">
        <ele>637.6</ele>
        <time>2020-09-06T19:45:41Z</time>
      </trkpt>
      <trkpt lat="47.75723" lon="6.71904">
        <ele>637.3</ele>
        <time>2020-09-06T19:45:41Z</time>
      </trkpt>
      <trkpt lat="47.75738" lon="6.71905">
        <ele>637.1</ele>
        <time>2020-09-06T19:45:41Z</time>
      </trkpt>
      <trkpt lat="47.75752" lon="6.71904">
        <ele>635.7</ele>
        <time>2020-09-06T19:45:41Z</time>
      </trkpt>
      <trkpt lat="47.75764" lon="6.71903">
        <ele>634.8</ele>
        <time>2020-09-06T19:45:41Z</time>
      </trkpt>
      <trkpt lat="47.75768" lon="6.71901">
        <ele>634.6</ele>
        <time>2020-09-06T19:45:41Z</time>
      </trkpt>
      <trkpt lat="47.75773" lon="6.71896">
        <ele>634</ele>
        <time>2020-09-06T19:45:41Z</time>
      </trkpt>
      <trkpt lat="47.75776" lon="6.71888">
        <ele>633.3</ele>
        <time>2020-09-06T19:45:41Z</time>
      </trkpt>
      <trkpt lat="47.75776" lon="6.71877">
        <ele>632.2</ele>
        <time>2020-09-06T19:45:41Z</time>
      </trkpt>
      <trkpt lat="47.75773" lon="6.71869">
        <ele>631.4</ele>
        <time>2020-09-06T19:45:41Z</time>
      </trkpt>
      <trkpt lat="47.75763" lon="6.71864">
        <ele>630.3</ele>
        <time>2020-09-06T19:45:41Z</time>
      </trkpt>
      <trkpt lat="47.75752" lon="6.71861">
        <ele>628.8</ele>
        <time>2020-09-06T19:45:41Z</time>
      </trkpt>
      <trkpt lat="47.75741" lon="6.7186">
        <ele>628</ele>
        <time>2020-09-06T19:45:41Z</time>
      </trkpt>
      <trkpt lat="47.75732" lon="6.71858">
        <ele>627.4</ele>
        <time>2020-09-06T19:45:41Z</time>
      </trkpt>
      <trkpt lat="47.75726" lon="6.71857">
        <ele>627.6</ele>
        <time>2020-09-06T19:45:41Z</time>
      </trkpt>
      <trkpt lat="47.75718" lon="6.71852">
        <ele>626.3</ele>
        <time>2020-09-06T19:45:41Z</time>
      </trkpt>
      <trkpt lat="47.75711" lon="6.71845">
        <ele>626.1</ele>
        <time>2020-09-06T19:45:41Z</time>
      </trkpt>
      <trkpt lat="47.75704" lon="6.71835">
        <ele>625</ele>
        <time>2020-09-06T19:45:41Z</time>
      </trkpt>
      <trkpt lat="47.75693" lon="6.71819">
        <ele>623.9</ele>
        <time>2020-09-06T19:45:41Z</time>
      </trkpt>
      <trkpt lat="47.75677" lon="6.71795">
        <ele>622.1</ele>
        <time>2020-09-06T19:45:41Z</time>
      </trkpt>
      <trkpt lat="47.75669" lon="6.71781">
        <ele>621.2</ele>
        <time>2020-09-06T19:45:41Z</time>
      </trkpt>
      <trkpt lat="47.75665" lon="6.71769">
        <ele>620.2</ele>
        <time>2020-09-06T19:45:41Z</time>
      </trkpt>
      <trkpt lat="47.75662" lon="6.71758">
        <ele>619.5</ele>
        <time>2020-09-06T19:45:41Z</time>
      </trkpt>
      <trkpt lat="47.7566" lon="6.71749">
        <ele>619.1</ele>
        <time>2020-09-06T19:45:41Z</time>
      </trkpt>
      <trkpt lat="47.7566" lon="6.7174">
        <ele>618.6</ele>
        <time>2020-09-06T19:45:41Z</time>
      </trkpt>
      <trkpt lat="47.7566" lon="6.71716">
        <ele>617.9</ele>
        <time>2020-09-06T19:45:41Z</time>
      </trkpt>
      <trkpt lat="47.75661" lon="6.71701">
        <ele>617.2</ele>
        <time>2020-09-06T19:45:41Z</time>
      </trkpt>
      <trkpt lat="47.75661" lon="6.71692">
        <ele>616.8</ele>
        <time>2020-09-06T19:45:41Z</time>
      </trkpt>
      <trkpt lat="47.75661" lon="6.71683">
        <ele>616.3</ele>
        <time>2020-09-06T19:45:41Z</time>
      </trkpt>
      <trkpt lat="47.7566" lon="6.71675">
        <ele>615.9</ele>
        <time>2020-09-06T19:45:41Z</time>
      </trkpt>
      <trkpt lat="47.75658" lon="6.71666">
        <ele>615.4</ele>
        <time>2020-09-06T19:45:41Z</time>
      </trkpt>
      <trkpt lat="47.75655" lon="6.71655">
        <ele>614.6</ele>
        <time>2020-09-06T19:45:41Z</time>
      </trkpt>
      <trkpt lat="47.75651" lon="6.71648">
        <ele>614.1</ele>
        <time>2020-09-06T19:45:41Z</time>
      </trkpt>
      <trkpt lat="47.75647" lon="6.71641">
        <ele>613.5</ele>
        <time>2020-09-06T19:45:41Z</time>
      </trkpt>
      <trkpt lat="47.75641" lon="6.71633">
        <ele>612.8</ele>
        <time>2020-09-06T19:45:41Z</time>
      </trkpt>
      <trkpt lat="47.75634" lon="6.71624">
        <ele>611.9</ele>
        <time>2020-09-06T19:45:41Z</time>
      </trkpt>
      <trkpt lat="47.75629" lon="6.71617">
        <ele>611.6</ele>
        <time>2020-09-06T19:45:41Z</time>
      </trkpt>
      <trkpt lat="47.75625" lon="6.7161">
        <ele>611.4</ele>
        <time>2020-09-06T19:45:41Z</time>
      </trkpt>
      <trkpt lat="47.75617" lon="6.71611">
        <ele>611.6</ele>
        <time>2020-09-06T19:45:41Z</time>
      </trkpt>
      <trkpt lat="47.75607" lon="6.71612">
        <ele>611.2</ele>
        <time>2020-09-06T19:45:41Z</time>
      </trkpt>
      <trkpt lat="47.756" lon="6.71615">
        <ele>610.5</ele>
        <time>2020-09-06T19:45:41Z</time>
      </trkpt>
      <trkpt lat="47.75587" lon="6.7162">
        <ele>609.3</ele>
        <time>2020-09-06T19:45:41Z</time>
      </trkpt>
      <trkpt lat="47.75575" lon="6.71627">
        <ele>608.2</ele>
        <time>2020-09-06T19:45:41Z</time>
      </trkpt>
      <trkpt lat="47.75563" lon="6.71636">
        <ele>607.2</ele>
        <time>2020-09-06T19:45:41Z</time>
      </trkpt>
      <trkpt lat="47.75551" lon="6.71647">
        <ele>606.2</ele>
        <time>2020-09-06T19:45:41Z</time>
      </trkpt>
      <trkpt lat="47.75539" lon="6.7166">
        <ele>605.2</ele>
        <time>2020-09-06T19:45:41Z</time>
      </trkpt>
      <trkpt lat="47.75526" lon="6.71678">
        <ele>604.1</ele>
        <time>2020-09-06T19:45:41Z</time>
      </trkpt>
      <trkpt lat="47.75516" lon="6.71696">
        <ele>603.1</ele>
        <time>2020-09-06T19:45:41Z</time>
      </trkpt>
      <trkpt lat="47.75507" lon="6.71713">
        <ele>602.3</ele>
        <time>2020-09-06T19:45:41Z</time>
      </trkpt>
      <trkpt lat="47.755" lon="6.7173">
        <ele>601.5</ele>
        <time>2020-09-06T19:45:41Z</time>
      </trkpt>
      <trkpt lat="47.75494" lon="6.71749">
        <ele>600.6</ele>
        <time>2020-09-06T19:45:41Z</time>
      </trkpt>
      <trkpt lat="47.7549" lon="6.71765">
        <ele>599.8</ele>
        <time>2020-09-06T19:45:41Z</time>
      </trkpt>
      <trkpt lat="47.75486" lon="6.71777">
        <ele>599.2</ele>
        <time>2020-09-06T19:45:41Z</time>
      </trkpt>
      <trkpt lat="47.75482" lon="6.7179">
        <ele>598.6</ele>
        <time>2020-09-06T19:45:41Z</time>
      </trkpt>
      <trkpt lat="47.75472" lon="6.71818">
        <ele>597.4</ele>
        <time>2020-09-06T19:45:41Z</time>
      </trkpt>
      <trkpt lat="47.75466" lon="6.71837">
        <ele>596.6</ele>
        <time>2020-09-06T19:45:41Z</time>
      </trkpt>
      <trkpt lat="47.75463" lon="6.7185">
        <ele>595.7</ele>
        <time>2020-09-06T19:45:41Z</time>
      </trkpt>
      <trkpt lat="47.75461" lon="6.7186">
        <ele>595.6</ele>
        <time>2020-09-06T19:45:41Z</time>
      </trkpt>
      <trkpt lat="47.7546" lon="6.71868">
        <ele>594.8</ele>
        <time>2020-09-06T19:45:41Z</time>
      </trkpt>
      <trkpt lat="47.7546" lon="6.71877">
        <ele>594.3</ele>
        <time>2020-09-06T19:45:41Z</time>
      </trkpt>
      <trkpt lat="47.7546" lon="6.71893">
        <ele>593.5</ele>
        <time>2020-09-06T19:45:41Z</time>
      </trkpt>
      <trkpt lat="47.7546" lon="6.71915">
        <ele>592.6</ele>
        <time>2020-09-06T19:45:41Z</time>
      </trkpt>
      <trkpt lat="47.75461" lon="6.71934">
        <ele>592.2</ele>
        <time>2020-09-06T19:45:41Z</time>
      </trkpt>
      <trkpt lat="47.75461" lon="6.71951">
        <ele>591</ele>
        <time>2020-09-06T19:45:41Z</time>
      </trkpt>
      <trkpt lat="47.75464" lon="6.7197">
        <ele>590.2</ele>
        <time>2020-09-06T19:45:41Z</time>
      </trkpt>
      <trkpt lat="47.75465" lon="6.71981">
        <ele>589.8</ele>
        <time>2020-09-06T19:45:41Z</time>
      </trkpt>
      <trkpt lat="47.75469" lon="6.71994">
        <ele>589.3</ele>
        <time>2020-09-06T19:45:41Z</time>
      </trkpt>
      <trkpt lat="47.75473" lon="6.72008">
        <ele>588.5</ele>
        <time>2020-09-06T19:45:41Z</time>
      </trkpt>
      <trkpt lat="47.75478" lon="6.72023">
        <ele>587.7</ele>
        <time>2020-09-06T19:45:41Z</time>
      </trkpt>
      <trkpt lat="47.75482" lon="6.72033">
        <ele>587.5</ele>
        <time>2020-09-06T19:45:41Z</time>
      </trkpt>
      <trkpt lat="47.75486" lon="6.72043">
        <ele>587.1</ele>
        <time>2020-09-06T19:45:41Z</time>
      </trkpt>
      <trkpt lat="47.75491" lon="6.72052">
        <ele>586.4</ele>
        <time>2020-09-06T19:45:41Z</time>
      </trkpt>
      <trkpt lat="47.75499" lon="6.72063">
        <ele>585.9</ele>
        <time>2020-09-06T19:45:41Z</time>
      </trkpt>
      <trkpt lat="47.75509" lon="6.72075">
        <ele>584.8</ele>
        <time>2020-09-06T19:45:41Z</time>
      </trkpt>
      <trkpt lat="47.75525" lon="6.72093">
        <ele>583.5</ele>
        <time>2020-09-06T19:45:41Z</time>
      </trkpt>
      <trkpt lat="47.7554" lon="6.72111">
        <ele>582.2</ele>
        <time>2020-09-06T19:45:41Z</time>
      </trkpt>
      <trkpt lat="47.75552" lon="6.72125">
        <ele>581.1</ele>
        <time>2020-09-06T19:45:41Z</time>
      </trkpt>
      <trkpt lat="47.75557" lon="6.72133">
        <ele>580.6</ele>
        <time>2020-09-06T19:45:41Z</time>
      </trkpt>
      <trkpt lat="47.75562" lon="6.7214">
        <ele>580.3</ele>
        <time>2020-09-06T19:45:41Z</time>
      </trkpt>
      <trkpt lat="47.75565" lon="6.72147">
        <ele>579.8</ele>
        <time>2020-09-06T19:45:41Z</time>
      </trkpt>
      <trkpt lat="47.7557" lon="6.72157">
        <ele>579.3</ele>
        <time>2020-09-06T19:45:41Z</time>
      </trkpt>
      <trkpt lat="47.75575" lon="6.72168">
        <ele>578.6</ele>
        <time>2020-09-06T19:45:41Z</time>
      </trkpt>
      <trkpt lat="47.7558" lon="6.72178">
        <ele>578.2</ele>
        <time>2020-09-06T19:45:41Z</time>
      </trkpt>
      <trkpt lat="47.75585" lon="6.72188">
        <ele>577.6</ele>
        <time>2020-09-06T19:45:41Z</time>
      </trkpt>
      <trkpt lat="47.7559" lon="6.72204">
        <ele>576.8</ele>
        <time>2020-09-06T19:45:41Z</time>
      </trkpt>
      <trkpt lat="47.75596" lon="6.72225">
        <ele>575.9</ele>
        <time>2020-09-06T19:45:41Z</time>
      </trkpt>
      <trkpt lat="47.75601" lon="6.72243">
        <ele>575.1</ele>
        <time>2020-09-06T19:45:41Z</time>
      </trkpt>
      <trkpt lat="47.75605" lon="6.72267">
        <ele>574.1</ele>
        <time>2020-09-06T19:45:41Z</time>
      </trkpt>
      <trkpt lat="47.7561" lon="6.72296">
        <ele>573</ele>
        <time>2020-09-06T19:45:41Z</time>
      </trkpt>
      <trkpt lat="47.75615" lon="6.7232">
        <ele>572.1</ele>
        <time>2020-09-06T19:45:41Z</time>
      </trkpt>
      <trkpt lat="47.75624" lon="6.72367">
        <ele>569.9</ele>
        <time>2020-09-06T19:45:41Z</time>
      </trkpt>
      <trkpt lat="47.75625" lon="6.72383">
        <ele>569.3</ele>
        <time>2020-09-06T19:45:41Z</time>
      </trkpt>
      <trkpt lat="47.75625" lon="6.72392">
        <ele>569</ele>
        <time>2020-09-06T19:45:41Z</time>
      </trkpt>
      <trkpt lat="47.75624" lon="6.72402">
        <ele>568.6</ele>
        <time>2020-09-06T19:45:41Z</time>
      </trkpt>
      <trkpt lat="47.75623" lon="6.72409">
        <ele>568.2</ele>
        <time>2020-09-06T19:45:41Z</time>
      </trkpt>
      <trkpt lat="47.7562" lon="6.72416">
        <ele>568</ele>
        <time>2020-09-06T19:45:41Z</time>
      </trkpt>
      <trkpt lat="47.75616" lon="6.72422">
        <ele>567.7</ele>
        <time>2020-09-06T19:45:41Z</time>
      </trkpt>
      <trkpt lat="47.75611" lon="6.72427">
        <ele>567.3</ele>
        <time>2020-09-06T19:45:41Z</time>
      </trkpt>
      <trkpt lat="47.75607" lon="6.72431">
        <ele>567</ele>
        <time>2020-09-06T19:45:41Z</time>
      </trkpt>
      <trkpt lat="47.75602" lon="6.72434">
        <ele>566.4</ele>
        <time>2020-09-06T19:45:41Z</time>
      </trkpt>
      <trkpt lat="47.75596" lon="6.72435">
        <ele>566.1</ele>
        <time>2020-09-06T19:45:41Z</time>
      </trkpt>
      <trkpt lat="47.75591" lon="6.72435">
        <ele>565.7</ele>
        <time>2020-09-06T19:45:41Z</time>
      </trkpt>
      <trkpt lat="47.75586" lon="6.72435">
        <ele>565.4</ele>
        <time>2020-09-06T19:45:41Z</time>
      </trkpt>
      <trkpt lat="47.75581" lon="6.72434">
        <ele>565.1</ele>
        <time>2020-09-06T19:45:41Z</time>
      </trkpt>
      <trkpt lat="47.75573" lon="6.72428">
        <ele>564.4</ele>
        <time>2020-09-06T19:45:41Z</time>
      </trkpt>
      <trkpt lat="47.75568" lon="6.72421">
        <ele>563.2</ele>
        <time>2020-09-06T19:45:41Z</time>
      </trkpt>
      <trkpt lat="47.75547" lon="6.72391">
        <ele>561.8</ele>
        <time>2020-09-06T19:45:41Z</time>
      </trkpt>
      <trkpt lat="47.75494" lon="6.72328">
        <ele>557.3</ele>
        <time>2020-09-06T19:45:41Z</time>
      </trkpt>
      <trkpt lat="47.75481" lon="6.72311">
        <ele>556.2</ele>
        <time>2020-09-06T19:45:41Z</time>
      </trkpt>
      <trkpt lat="47.75472" lon="6.72298">
        <ele>555.5</ele>
        <time>2020-09-06T19:45:41Z</time>
      </trkpt>
      <trkpt lat="47.75465" lon="6.72285">
        <ele>554.5</ele>
        <time>2020-09-06T19:45:41Z</time>
      </trkpt>
      <trkpt lat="47.7546" lon="6.72273">
        <ele>554</ele>
        <time>2020-09-06T19:45:41Z</time>
      </trkpt>
      <trkpt lat="47.75455" lon="6.7226">
        <ele>553.4</ele>
        <time>2020-09-06T19:45:41Z</time>
      </trkpt>
      <trkpt lat="47.75442" lon="6.72236">
        <ele>552.1</ele>
        <time>2020-09-06T19:45:41Z</time>
      </trkpt>
      <trkpt lat="47.75428" lon="6.72214">
        <ele>551</ele>
        <time>2020-09-06T19:45:41Z</time>
      </trkpt>
      <trkpt lat="47.75413" lon="6.72193">
        <ele>549.5</ele>
        <time>2020-09-06T19:45:41Z</time>
      </trkpt>
      <trkpt lat="47.75391" lon="6.72165">
        <ele>547.6</ele>
        <time>2020-09-06T19:45:41Z</time>
      </trkpt>
      <trkpt lat="47.75367" lon="6.72136">
        <ele>545.8</ele>
        <time>2020-09-06T19:45:41Z</time>
      </trkpt>
      <trkpt lat="47.75358" lon="6.72128">
        <ele>545.2</ele>
        <time>2020-09-06T19:45:41Z</time>
      </trkpt>
      <trkpt lat="47.75353" lon="6.72124">
        <ele>544.4</ele>
        <time>2020-09-06T19:45:41Z</time>
      </trkpt>
      <trkpt lat="47.75348" lon="6.72123">
        <ele>544</ele>
        <time>2020-09-06T19:45:41Z</time>
      </trkpt>
      <trkpt lat="47.75343" lon="6.72122">
        <ele>543.9</ele>
        <time>2020-09-06T19:45:41Z</time>
      </trkpt>
      <trkpt lat="47.75337" lon="6.72123">
        <ele>543.3</ele>
        <time>2020-09-06T19:45:41Z</time>
      </trkpt>
      <trkpt lat="47.7533" lon="6.72126">
        <ele>542.8</ele>
        <time>2020-09-06T19:45:41Z</time>
      </trkpt>
      <trkpt lat="47.75324" lon="6.7213">
        <ele>542.4</ele>
        <time>2020-09-06T19:45:41Z</time>
      </trkpt>
      <trkpt lat="47.75318" lon="6.72136">
        <ele>541.7</ele>
        <time>2020-09-06T19:45:41Z</time>
      </trkpt>
      <trkpt lat="47.75312" lon="6.72146">
        <ele>541.3</ele>
        <time>2020-09-06T19:45:41Z</time>
      </trkpt>
      <trkpt lat="47.75306" lon="6.7216">
        <ele>540.7</ele>
        <time>2020-09-06T19:45:41Z</time>
      </trkpt>
      <trkpt lat="47.75298" lon="6.72187">
        <ele>539.5</ele>
        <time>2020-09-06T19:45:41Z</time>
      </trkpt>
      <trkpt lat="47.75291" lon="6.72211">
        <ele>538.5</ele>
        <time>2020-09-06T19:45:41Z</time>
      </trkpt>
      <trkpt lat="47.75287" lon="6.72224">
        <ele>538.1</ele>
        <time>2020-09-06T19:45:41Z</time>
      </trkpt>
      <trkpt lat="47.75284" lon="6.72231">
        <ele>537.7</ele>
        <time>2020-09-06T19:45:41Z</time>
      </trkpt>
      <trkpt lat="47.7528" lon="6.72236">
        <ele>537.4</ele>
        <time>2020-09-06T19:45:41Z</time>
      </trkpt>
      <trkpt lat="47.75276" lon="6.72241">
        <ele>537.1</ele>
        <time>2020-09-06T19:45:41Z</time>
      </trkpt>
      <trkpt lat="47.75272" lon="6.72245">
        <ele>537.2</ele>
        <time>2020-09-06T19:45:41Z</time>
      </trkpt>
      <trkpt lat="47.75266" lon="6.72248">
        <ele>536.7</ele>
        <time>2020-09-06T19:45:41Z</time>
      </trkpt>
      <trkpt lat="47.75259" lon="6.72249">
        <ele>536.2</ele>
        <time>2020-09-06T19:45:41Z</time>
      </trkpt>
      <trkpt lat="47.75254" lon="6.72248">
        <ele>536</ele>
        <time>2020-09-06T19:45:41Z</time>
      </trkpt>
      <trkpt lat="47.75248" lon="6.72245">
        <ele>535.6</ele>
        <time>2020-09-06T19:45:41Z</time>
      </trkpt>
      <trkpt lat="47.75239" lon="6.7224">
        <ele>535.2</ele>
        <time>2020-09-06T19:45:41Z</time>
      </trkpt>
      <trkpt lat="47.7523" lon="6.72233">
        <ele>534.5</ele>
        <time>2020-09-06T19:45:41Z</time>
      </trkpt>
      <trkpt lat="47.75225" lon="6.72226">
        <ele>534.2</ele>
        <time>2020-09-06T19:45:41Z</time>
      </trkpt>
      <trkpt lat="47.7522" lon="6.72218">
        <ele>533.8</ele>
        <time>2020-09-06T19:45:41Z</time>
      </trkpt>
      <trkpt lat="47.75215" lon="6.72208">
        <ele>533.2</ele>
        <time>2020-09-06T19:45:41Z</time>
      </trkpt>
      <trkpt lat="47.75211" lon="6.72197">
        <ele>532.9</ele>
        <time>2020-09-06T19:45:41Z</time>
      </trkpt>
      <trkpt lat="47.75208" lon="6.72186">
        <ele>532.3</ele>
        <time>2020-09-06T19:45:41Z</time>
      </trkpt>
      <trkpt lat="47.75205" lon="6.7216">
        <ele>531.2</ele>
        <time>2020-09-06T19:45:41Z</time>
      </trkpt>
      <trkpt lat="47.75201" lon="6.72132">
        <ele>530.3</ele>
        <time>2020-09-06T19:45:41Z</time>
      </trkpt>
      <trkpt lat="47.75199" lon="6.72107">
        <ele>529.4</ele>
        <time>2020-09-06T19:45:41Z</time>
      </trkpt>
      <trkpt lat="47.75196" lon="6.72081">
        <ele>528.5</ele>
        <time>2020-09-06T19:45:41Z</time>
      </trkpt>
      <trkpt lat="47.75194" lon="6.72071">
        <ele>528</ele>
        <time>2020-09-06T19:45:41Z</time>
      </trkpt>
      <trkpt lat="47.75191" lon="6.72064">
        <ele>527.9</ele>
        <time>2020-09-06T19:45:41Z</time>
      </trkpt>
      <trkpt lat="47.75185" lon="6.72059">
        <ele>527</ele>
        <time>2020-09-06T19:45:41Z</time>
      </trkpt>
      <trkpt lat="47.75179" lon="6.72054">
        <ele>526.8</ele>
        <time>2020-09-06T19:45:41Z</time>
      </trkpt>
      <trkpt lat="47.75173" lon="6.72052">
        <ele>526</ele>
        <time>2020-09-06T19:45:41Z</time>
      </trkpt>
      <trkpt lat="47.75167" lon="6.72053">
        <ele>525.7</ele>
        <time>2020-09-06T19:45:41Z</time>
      </trkpt>
      <trkpt lat="47.75161" lon="6.72055">
        <ele>525.1</ele>
        <time>2020-09-06T19:45:41Z</time>
      </trkpt>
      <trkpt lat="47.75155" lon="6.72059">
        <ele>524.8</ele>
        <time>2020-09-06T19:45:41Z</time>
      </trkpt>
      <trkpt lat="47.75151" lon="6.72063">
        <ele>524.5</ele>
        <time>2020-09-06T19:45:41Z</time>
      </trkpt>
      <trkpt lat="47.75147" lon="6.72068">
        <ele>524.3</ele>
        <time>2020-09-06T19:45:41Z</time>
      </trkpt>
      <trkpt lat="47.75136" lon="6.72089">
        <ele>523.2</ele>
        <time>2020-09-06T19:45:41Z</time>
      </trkpt>
      <trkpt lat="47.75131" lon="6.72099">
        <ele>522.7</ele>
        <time>2020-09-06T19:45:41Z</time>
      </trkpt>
      <trkpt lat="47.75126" lon="6.72107">
        <ele>522.2</ele>
        <time>2020-09-06T19:45:41Z</time>
      </trkpt>
      <trkpt lat="47.75122" lon="6.72113">
        <ele>521.9</ele>
        <time>2020-09-06T19:45:41Z</time>
      </trkpt>
      <trkpt lat="47.75117" lon="6.7212">
        <ele>521.3</ele>
        <time>2020-09-06T19:45:41Z</time>
      </trkpt>
      <trkpt lat="47.75111" lon="6.72128">
        <ele>520.7</ele>
        <time>2020-09-06T19:45:41Z</time>
      </trkpt>
      <trkpt lat="47.75105" lon="6.72136">
        <ele>520.1</ele>
        <time>2020-09-06T19:45:41Z</time>
      </trkpt>
      <trkpt lat="47.75101" lon="6.72141">
        <ele>519.8</ele>
        <time>2020-09-06T19:45:41Z</time>
      </trkpt>
      <trkpt lat="47.75098" lon="6.72147">
        <ele>519.5</ele>
        <time>2020-09-06T19:45:41Z</time>
      </trkpt>
      <trkpt lat="47.75096" lon="6.72153">
        <ele>519</ele>
        <time>2020-09-06T19:45:41Z</time>
      </trkpt>
      <trkpt lat="47.75094" lon="6.7216">
        <ele>518.9</ele>
        <time>2020-09-06T19:45:41Z</time>
      </trkpt>
      <trkpt lat="47.75092" lon="6.72166">
        <ele>518.4</ele>
        <time>2020-09-06T19:45:41Z</time>
      </trkpt>
      <trkpt lat="47.75091" lon="6.72174">
        <ele>518.3</ele>
        <time>2020-09-06T19:45:41Z</time>
      </trkpt>
      <trkpt lat="47.75085" lon="6.7221">
        <ele>516.6</ele>
        <time>2020-09-06T19:45:41Z</time>
      </trkpt>
      <trkpt lat="47.75082" lon="6.72233">
        <ele>515.6</ele>
        <time>2020-09-06T19:45:41Z</time>
      </trkpt>
      <trkpt lat="47.75082" lon="6.72243">
        <ele>515.2</ele>
        <time>2020-09-06T19:45:41Z</time>
      </trkpt>
      <trkpt lat="47.75081" lon="6.72252">
        <ele>514.7</ele>
        <time>2020-09-06T19:45:41Z</time>
      </trkpt>
      <trkpt lat="47.75082" lon="6.72262">
        <ele>514.3</ele>
        <time>2020-09-06T19:45:41Z</time>
      </trkpt>
      <trkpt lat="47.75083" lon="6.72274">
        <ele>513.8</ele>
        <time>2020-09-06T19:45:41Z</time>
      </trkpt>
      <trkpt lat="47.75084" lon="6.72284">
        <ele>513.4</ele>
        <time>2020-09-06T19:45:41Z</time>
      </trkpt>
      <trkpt lat="47.75085" lon="6.72294">
        <ele>513.1</ele>
        <time>2020-09-06T19:45:41Z</time>
      </trkpt>
      <trkpt lat="47.75087" lon="6.72302">
        <ele>512.9</ele>
        <time>2020-09-06T19:45:41Z</time>
      </trkpt>
      <trkpt lat="47.75089" lon="6.7231">
        <ele>512.5</ele>
        <time>2020-09-06T19:45:41Z</time>
      </trkpt>
      <trkpt lat="47.75092" lon="6.72318">
        <ele>512.1</ele>
        <time>2020-09-06T19:45:41Z</time>
      </trkpt>
      <trkpt lat="47.75095" lon="6.72324">
        <ele>512</ele>
        <time>2020-09-06T19:45:41Z</time>
      </trkpt>
      <trkpt lat="47.75099" lon="6.72329">
        <ele>511.5</ele>
        <time>2020-09-06T19:45:41Z</time>
      </trkpt>
      <trkpt lat="47.75107" lon="6.72337">
        <ele>511.1</ele>
        <time>2020-09-06T19:45:41Z</time>
      </trkpt>
      <trkpt lat="47.7512" lon="6.72345">
        <ele>510.2</ele>
        <time>2020-09-06T19:45:41Z</time>
      </trkpt>
      <trkpt lat="47.75147" lon="6.72363">
        <ele>508.3</ele>
        <time>2020-09-06T19:45:41Z</time>
      </trkpt>
      <trkpt lat="47.75175" lon="6.72381">
        <ele>506.3</ele>
        <time>2020-09-06T19:45:41Z</time>
      </trkpt>
      <trkpt lat="47.75183" lon="6.72388">
        <ele>505.8</ele>
        <time>2020-09-06T19:45:41Z</time>
      </trkpt>
      <trkpt lat="47.75189" lon="6.72394">
        <ele>505.3</ele>
        <time>2020-09-06T19:45:41Z</time>
      </trkpt>
      <trkpt lat="47.75193" lon="6.724">
        <ele>505</ele>
        <time>2020-09-06T19:45:41Z</time>
      </trkpt>
      <trkpt lat="47.75198" lon="6.72406">
        <ele>504.7</ele>
        <time>2020-09-06T19:45:41Z</time>
      </trkpt>
      <trkpt lat="47.75201" lon="6.72413">
        <ele>504.2</ele>
        <time>2020-09-06T19:45:41Z</time>
      </trkpt>
      <trkpt lat="47.75207" lon="6.72425">
        <ele>503.7</ele>
        <time>2020-09-06T19:45:41Z</time>
      </trkpt>
      <trkpt lat="47.75209" lon="6.72433">
        <ele>503.4</ele>
        <time>2020-09-06T19:45:41Z</time>
      </trkpt>
      <trkpt lat="47.75212" lon="6.72446">
        <ele>502.6</ele>
        <time>2020-09-06T19:45:41Z</time>
      </trkpt>
      <trkpt lat="47.75214" lon="6.72457">
        <ele>502.3</ele>
        <time>2020-09-06T19:45:41Z</time>
      </trkpt>
      <trkpt lat="47.75214" lon="6.72465">
        <ele>502</ele>
        <time>2020-09-06T19:45:41Z</time>
      </trkpt>
      <trkpt lat="47.75215" lon="6.72474">
        <ele>501.6</ele>
        <time>2020-09-06T19:45:41Z</time>
      </trkpt>
      <trkpt lat="47.75214" lon="6.72488">
        <ele>500.9</ele>
        <time>2020-09-06T19:45:41Z</time>
      </trkpt>
      <trkpt lat="47.75213" lon="6.72502">
        <ele>500.3</ele>
        <time>2020-09-06T19:45:41Z</time>
      </trkpt>
      <trkpt lat="47.75211" lon="6.72515">
        <ele>499.7</ele>
        <time>2020-09-06T19:45:41Z</time>
      </trkpt>
      <trkpt lat="47.75209" lon="6.72525">
        <ele>499.4</ele>
        <time>2020-09-06T19:45:41Z</time>
      </trkpt>
      <trkpt lat="47.75206" lon="6.72534">
        <ele>498.9</ele>
        <time>2020-09-06T19:45:41Z</time>
      </trkpt>
      <trkpt lat="47.75202" lon="6.72542">
        <ele>498.4</ele>
        <time>2020-09-06T19:45:41Z</time>
      </trkpt>
      <trkpt lat="47.75198" lon="6.7255">
        <ele>497.9</ele>
        <time>2020-09-06T19:45:41Z</time>
      </trkpt>
      <trkpt lat="47.75193" lon="6.72556">
        <ele>497.6</ele>
        <time>2020-09-06T19:45:41Z</time>
      </trkpt>
      <trkpt lat="47.75187" lon="6.72562">
        <ele>497.1</ele>
        <time>2020-09-06T19:45:41Z</time>
      </trkpt>
      <trkpt lat="47.75178" lon="6.7257">
        <ele>496.3</ele>
        <time>2020-09-06T19:45:41Z</time>
      </trkpt>
      <trkpt lat="47.75167" lon="6.72583">
        <ele>495</ele>
        <time>2020-09-06T19:45:41Z</time>
      </trkpt>
      <trkpt lat="47.75161" lon="6.72593">
        <ele>494.4</ele>
        <time>2020-09-06T19:45:41Z</time>
      </trkpt>
      <trkpt lat="47.75158" lon="6.726">
        <ele>494</ele>
        <time>2020-09-06T19:45:41Z</time>
      </trkpt>
      <trkpt lat="47.75156" lon="6.72607">
        <ele>493.8</ele>
        <time>2020-09-06T19:45:41Z</time>
      </trkpt>
      <trkpt lat="47.75154" lon="6.72619">
        <ele>493.3</ele>
        <time>2020-09-06T19:45:41Z</time>
      </trkpt>
      <trkpt lat="47.75149" lon="6.72643">
        <ele>492.1</ele>
        <time>2020-09-06T19:45:41Z</time>
      </trkpt>
      <trkpt lat="47.75146" lon="6.72662">
        <ele>491.3</ele>
        <time>2020-09-06T19:45:41Z</time>
      </trkpt>
      <trkpt lat="47.75145" lon="6.72673">
        <ele>490.7</ele>
        <time>2020-09-06T19:45:41Z</time>
      </trkpt>
      <trkpt lat="47.75145" lon="6.72681">
        <ele>490.3</ele>
        <time>2020-09-06T19:45:41Z</time>
      </trkpt>
      <trkpt lat="47.75147" lon="6.72693">
        <ele>490</ele>
        <time>2020-09-06T19:45:41Z</time>
      </trkpt>
      <trkpt lat="47.7515" lon="6.72716">
        <ele>488.8</ele>
        <time>2020-09-06T19:45:41Z</time>
      </trkpt>
      <trkpt lat="47.75151" lon="6.72725">
        <ele>488.2</ele>
        <time>2020-09-06T19:45:41Z</time>
      </trkpt>
      <trkpt lat="47.75151" lon="6.7274">
        <ele>487.4</ele>
        <time>2020-09-06T19:45:41Z</time>
      </trkpt>
      <trkpt lat="47.7515" lon="6.72748">
        <ele>487</ele>
        <time>2020-09-06T19:45:41Z</time>
      </trkpt>
      <trkpt lat="47.75147" lon="6.72758">
        <ele>486.3</ele>
        <time>2020-09-06T19:45:41Z</time>
      </trkpt>
      <trkpt lat="47.75142" lon="6.72765">
        <ele>485.8</ele>
        <time>2020-09-06T19:45:41Z</time>
      </trkpt>
      <trkpt lat="47.75138" lon="6.72769">
        <ele>485.5</ele>
        <time>2020-09-06T19:45:41Z</time>
      </trkpt>
      <trkpt lat="47.75132" lon="6.72775">
        <ele>485.2</ele>
        <time>2020-09-06T19:45:41Z</time>
      </trkpt>
      <trkpt lat="47.75126" lon="6.72781">
        <ele>484.9</ele>
        <time>2020-09-06T19:45:41Z</time>
      </trkpt>
      <trkpt lat="47.75122" lon="6.72786">
        <ele>484.6</ele>
        <time>2020-09-06T19:45:41Z</time>
      </trkpt>
      <trkpt lat="47.75118" lon="6.72792">
        <ele>484.3</ele>
        <time>2020-09-06T19:45:41Z</time>
      </trkpt>
      <trkpt lat="47.75115" lon="6.72798">
        <ele>483.8</ele>
        <time>2020-09-06T19:45:41Z</time>
      </trkpt>
      <trkpt lat="47.75111" lon="6.72809">
        <ele>483.3</ele>
        <time>2020-09-06T19:45:41Z</time>
      </trkpt>
      <trkpt lat="47.75109" lon="6.72818">
        <ele>482.8</ele>
        <time>2020-09-06T19:45:41Z</time>
      </trkpt>
      <trkpt lat="47.75105" lon="6.72837">
        <ele>481.8</ele>
        <time>2020-09-06T19:45:41Z</time>
      </trkpt>
      <trkpt lat="47.751" lon="6.72856">
        <ele>480.9</ele>
        <time>2020-09-06T19:45:41Z</time>
      </trkpt>
      <trkpt lat="47.75097" lon="6.72866">
        <ele>480.7</ele>
        <time>2020-09-06T19:45:41Z</time>
      </trkpt>
      <trkpt lat="47.75095" lon="6.72873">
        <ele>480.4</ele>
        <time>2020-09-06T19:45:41Z</time>
      </trkpt>
      <trkpt lat="47.75091" lon="6.72888">
        <ele>480</ele>
        <time>2020-09-06T19:45:41Z</time>
      </trkpt>
      <trkpt lat="47.75088" lon="6.72902">
        <ele>479.8</ele>
        <time>2020-09-06T19:45:41Z</time>
      </trkpt>
      <trkpt lat="47.75085" lon="6.72916">
        <ele>479.5</ele>
        <time>2020-09-06T19:45:41Z</time>
      </trkpt>
      <trkpt lat="47.7508" lon="6.72944">
        <ele>478.9</ele>
        <time>2020-09-06T19:45:41Z</time>
      </trkpt>
      <trkpt lat="47.75068" lon="6.7301">
        <ele>477.9</ele>
        <time>2020-09-06T19:45:41Z</time>
      </trkpt>
      <trkpt lat="47.75063" lon="6.73041">
        <ele>477.3</ele>
        <time>2020-09-06T19:45:41Z</time>
      </trkpt>
      <trkpt lat="47.75061" lon="6.73065">
        <ele>476.9</ele>
        <time>2020-09-06T19:45:41Z</time>
      </trkpt>
      <trkpt lat="47.7506" lon="6.7308">
        <ele>476.7</ele>
        <time>2020-09-06T19:45:41Z</time>
      </trkpt>
      <trkpt lat="47.75052" lon="6.73078">
        <ele>476.6</ele>
        <time>2020-09-06T19:45:41Z</time>
      </trkpt>
      <trkpt lat="47.75058" lon="6.73079">
        <ele>476.8</ele>
        <time>2020-09-06T19:45:41Z</time>
      </trkpt>
      <trkpt lat="47.75069" lon="6.73083">
        <ele>477</ele>
        <time>2020-09-06T19:45:41Z</time>
      </trkpt>
      <trkpt lat="47.75082" lon="6.73088">
        <ele>477.2</ele>
        <time>2020-09-06T19:45:41Z</time>
      </trkpt>
      <trkpt lat="47.75102" lon="6.73097">
        <ele>477.7</ele>
        <time>2020-09-06T19:45:41Z</time>
      </trkpt>
      <trkpt lat="47.75123" lon="6.73107">
        <ele>478.2</ele>
        <time>2020-09-06T19:45:41Z</time>
      </trkpt>
      <trkpt lat="47.75137" lon="6.73115">
        <ele>478.7</ele>
        <time>2020-09-06T19:45:41Z</time>
      </trkpt>
      <trkpt lat="47.75146" lon="6.73121">
        <ele>479</ele>
        <time>2020-09-06T19:45:41Z</time>
      </trkpt>
      <trkpt lat="47.75153" lon="6.73126">
        <ele>479.5</ele>
        <time>2020-09-06T19:45:41Z</time>
      </trkpt>
      <trkpt lat="47.75162" lon="6.73131">
        <ele>479.9</ele>
        <time>2020-09-06T19:45:41Z</time>
      </trkpt>
      <trkpt lat="47.75169" lon="6.73137">
        <ele>480.2</ele>
        <time>2020-09-06T19:45:41Z</time>
      </trkpt>
      <trkpt lat="47.75185" lon="6.73151">
        <ele>480.7</ele>
        <time>2020-09-06T19:45:41Z</time>
      </trkpt>
      <trkpt lat="47.75205" lon="6.7317">
        <ele>481.4</ele>
        <time>2020-09-06T19:45:41Z</time>
      </trkpt>
      <trkpt lat="47.75222" lon="6.73186">
        <ele>481.9</ele>
        <time>2020-09-06T19:45:41Z</time>
      </trkpt>
      <trkpt lat="47.75244" lon="6.73205">
        <ele>482.3</ele>
        <time>2020-09-06T19:45:41Z</time>
      </trkpt>
      <trkpt lat="47.7526" lon="6.73218">
        <ele>482.4</ele>
        <time>2020-09-06T19:45:41Z</time>
      </trkpt>
      <trkpt lat="47.75269" lon="6.73224">
        <ele>482.4</ele>
        <time>2020-09-06T19:45:41Z</time>
      </trkpt>
      <trkpt lat="47.75278" lon="6.7323">
        <ele>482.5</ele>
        <time>2020-09-06T19:45:41Z</time>
      </trkpt>
      <trkpt lat="47.75285" lon="6.73234">
        <ele>482.7</ele>
        <time>2020-09-06T19:45:41Z</time>
      </trkpt>
      <trkpt lat="47.75302" lon="6.73242">
        <ele>482.9</ele>
        <time>2020-09-06T19:45:41Z</time>
      </trkpt>
      <trkpt lat="47.75325" lon="6.73253">
        <ele>483.1</ele>
        <time>2020-09-06T19:45:41Z</time>
      </trkpt>
      <trkpt lat="47.75336" lon="6.7326">
        <ele>483.1</ele>
        <time>2020-09-06T19:45:41Z</time>
      </trkpt>
      <trkpt lat="47.75351" lon="6.73268">
        <ele>483.3</ele>
        <time>2020-09-06T19:45:41Z</time>
      </trkpt>
      <trkpt lat="47.75365" lon="6.73278">
        <ele>483.3</ele>
        <time>2020-09-06T19:45:41Z</time>
      </trkpt>
      <trkpt lat="47.75377" lon="6.73286">
        <ele>483.5</ele>
        <time>2020-09-06T19:45:41Z</time>
      </trkpt>
      <trkpt lat="47.75386" lon="6.73294">
        <ele>483.6</ele>
        <time>2020-09-06T19:45:41Z</time>
      </trkpt>
      <trkpt lat="47.75394" lon="6.73303">
        <ele>483.7</ele>
        <time>2020-09-06T19:45:41Z</time>
      </trkpt>
      <trkpt lat="47.75401" lon="6.7331">
        <ele>483.8</ele>
        <time>2020-09-06T19:45:41Z</time>
      </trkpt>
      <trkpt lat="47.75407" lon="6.73318">
        <ele>483.7</ele>
        <time>2020-09-06T19:45:41Z</time>
      </trkpt>
      <trkpt lat="47.75418" lon="6.73332">
        <ele>483.9</ele>
        <time>2020-09-06T19:45:41Z</time>
      </trkpt>
      <trkpt lat="47.75435" lon="6.73359">
        <ele>483.5</ele>
        <time>2020-09-06T19:45:41Z</time>
      </trkpt>
      <trkpt lat="47.75458" lon="6.73395">
        <ele>483.8</ele>
        <time>2020-09-06T19:45:41Z</time>
      </trkpt>
      <trkpt lat="47.75483" lon="6.73433">
        <ele>484.4</ele>
        <time>2020-09-06T19:45:41Z</time>
      </trkpt>
      <trkpt lat="47.75507" lon="6.73472">
        <ele>485</ele>
        <time>2020-09-06T19:45:41Z</time>
      </trkpt>
      <trkpt lat="47.75515" lon="6.73485">
        <ele>485.3</ele>
        <time>2020-09-06T19:45:41Z</time>
      </trkpt>
      <trkpt lat="47.75521" lon="6.73497">
        <ele>485.7</ele>
        <time>2020-09-06T19:45:41Z</time>
      </trkpt>
      <trkpt lat="47.75526" lon="6.7351">
        <ele>485.7</ele>
        <time>2020-09-06T19:45:41Z</time>
      </trkpt>
      <trkpt lat="47.75532" lon="6.73524">
        <ele>485.8</ele>
        <time>2020-09-06T19:45:41Z</time>
      </trkpt>
      <trkpt lat="47.75537" lon="6.7354">
        <ele>485.7</ele>
        <time>2020-09-06T19:45:41Z</time>
      </trkpt>
      <trkpt lat="47.75541" lon="6.73552">
        <ele>485.7</ele>
        <time>2020-09-06T19:45:41Z</time>
      </trkpt>
      <trkpt lat="47.75543" lon="6.73564">
        <ele>485.8</ele>
        <time>2020-09-06T19:45:41Z</time>
      </trkpt>
      <trkpt lat="47.75546" lon="6.73583">
        <ele>485.6</ele>
        <time>2020-09-06T19:45:41Z</time>
      </trkpt>
      <trkpt lat="47.75548" lon="6.73601">
        <ele>485.8</ele>
        <time>2020-09-06T19:45:41Z</time>
      </trkpt>
      <trkpt lat="47.7555" lon="6.7363">
        <ele>485.7</ele>
        <time>2020-09-06T19:45:41Z</time>
      </trkpt>
      <trkpt lat="47.75553" lon="6.73659">
        <ele>485.8</ele>
        <time>2020-09-06T19:45:41Z</time>
      </trkpt>
      <trkpt lat="47.75555" lon="6.73686">
        <ele>485.8</ele>
        <time>2020-09-06T19:45:41Z</time>
      </trkpt>
      <trkpt lat="47.75558" lon="6.73712">
        <ele>486</ele>
        <time>2020-09-06T19:45:41Z</time>
      </trkpt>
      <trkpt lat="47.7556" lon="6.73727">
        <ele>486.1</ele>
        <time>2020-09-06T19:45:41Z</time>
      </trkpt>
      <trkpt lat="47.75562" lon="6.73736">
        <ele>486.1</ele>
        <time>2020-09-06T19:45:41Z</time>
      </trkpt>
      <trkpt lat="47.75565" lon="6.73744">
        <ele>486.1</ele>
        <time>2020-09-06T19:45:41Z</time>
      </trkpt>
      <trkpt lat="47.75572" lon="6.73759">
        <ele>486.3</ele>
        <time>2020-09-06T19:45:41Z</time>
      </trkpt>
      <trkpt lat="47.75581" lon="6.73772">
        <ele>486.3</ele>
        <time>2020-09-06T19:45:41Z</time>
      </trkpt>
      <trkpt lat="47.75589" lon="6.7378">
        <ele>486.4</ele>
        <time>2020-09-06T19:45:41Z</time>
      </trkpt>
      <trkpt lat="47.75598" lon="6.73786">
        <ele>486.5</ele>
        <time>2020-09-06T19:45:41Z</time>
      </trkpt>
      <trkpt lat="47.75612" lon="6.73795">
        <ele>486.6</ele>
        <time>2020-09-06T19:45:41Z</time>
      </trkpt>
      <trkpt lat="47.75622" lon="6.73799">
        <ele>486.7</ele>
        <time>2020-09-06T19:45:41Z</time>
      </trkpt>
      <trkpt lat="47.75632" lon="6.73802">
        <ele>486.9</ele>
        <time>2020-09-06T19:45:41Z</time>
      </trkpt>
      <trkpt lat="47.75648" lon="6.73803">
        <ele>487.1</ele>
        <time>2020-09-06T19:45:41Z</time>
      </trkpt>
      <trkpt lat="47.75662" lon="6.73804">
        <ele>487.4</ele>
        <time>2020-09-06T19:45:41Z</time>
      </trkpt>
      <trkpt lat="47.75682" lon="6.73806">
        <ele>487.9</ele>
        <time>2020-09-06T19:45:41Z</time>
      </trkpt>
      <trkpt lat="47.75693" lon="6.73807">
        <ele>488.1</ele>
        <time>2020-09-06T19:45:41Z</time>
      </trkpt>
      <trkpt lat="47.75703" lon="6.7381">
        <ele>488.1</ele>
        <time>2020-09-06T19:45:41Z</time>
      </trkpt>
      <trkpt lat="47.7571" lon="6.73813">
        <ele>488.2</ele>
        <time>2020-09-06T19:45:41Z</time>
      </trkpt>
      <trkpt lat="47.75717" lon="6.73818">
        <ele>488.2</ele>
        <time>2020-09-06T19:45:41Z</time>
      </trkpt>
      <trkpt lat="47.75722" lon="6.73822">
        <ele>488.2</ele>
        <time>2020-09-06T19:45:41Z</time>
      </trkpt>
      <trkpt lat="47.75727" lon="6.73826">
        <ele>488.4</ele>
        <time>2020-09-06T19:45:41Z</time>
      </trkpt>
      <trkpt lat="47.75732" lon="6.73832">
        <ele>488.3</ele>
        <time>2020-09-06T19:45:41Z</time>
      </trkpt>
      <trkpt lat="47.75744" lon="6.73846">
        <ele>488.5</ele>
        <time>2020-09-06T19:45:41Z</time>
      </trkpt>
      <trkpt lat="47.75777" lon="6.7389">
        <ele>488.9</ele>
        <time>2020-09-06T19:45:41Z</time>
      </trkpt>
      <trkpt lat="47.758" lon="6.7392">
        <ele>489.5</ele>
        <time>2020-09-06T19:45:41Z</time>
      </trkpt>
      <trkpt lat="47.75826" lon="6.73951">
        <ele>490.2</ele>
        <time>2020-09-06T19:45:41Z</time>
      </trkpt>
      <trkpt lat="47.75837" lon="6.73962">
        <ele>490.5</ele>
        <time>2020-09-06T19:45:41Z</time>
      </trkpt>
      <trkpt lat="47.75846" lon="6.7397">
        <ele>490.8</ele>
        <time>2020-09-06T19:45:41Z</time>
      </trkpt>
      <trkpt lat="47.75852" lon="6.73973">
        <ele>491.1</ele>
        <time>2020-09-06T19:45:41Z</time>
      </trkpt>
      <trkpt lat="47.75861" lon="6.73977">
        <ele>491.4</ele>
        <time>2020-09-06T19:45:41Z</time>
      </trkpt>
      <trkpt lat="47.75873" lon="6.73983">
        <ele>491.6</ele>
        <time>2020-09-06T19:45:41Z</time>
      </trkpt>
      <trkpt lat="47.7588" lon="6.73987">
        <ele>491.7</ele>
        <time>2020-09-06T19:45:41Z</time>
      </trkpt>
      <trkpt lat="47.75886" lon="6.73992">
        <ele>491.9</ele>
        <time>2020-09-06T19:45:41Z</time>
      </trkpt>
      <trkpt lat="47.75895" lon="6.73999">
        <ele>492</ele>
        <time>2020-09-06T19:45:41Z</time>
      </trkpt>
      <trkpt lat="47.75909" lon="6.74013">
        <ele>492.3</ele>
        <time>2020-09-06T19:45:41Z</time>
      </trkpt>
      <trkpt lat="47.75931" lon="6.74037">
        <ele>492.7</ele>
        <time>2020-09-06T19:45:41Z</time>
      </trkpt>
      <trkpt lat="47.75951" lon="6.7406">
        <ele>493.2</ele>
        <time>2020-09-06T19:45:41Z</time>
      </trkpt>
      <trkpt lat="47.7597" lon="6.74083">
        <ele>493.6</ele>
        <time>2020-09-06T19:45:41Z</time>
      </trkpt>
      <trkpt lat="47.75985" lon="6.74101">
        <ele>494.1</ele>
        <time>2020-09-06T19:45:41Z</time>
      </trkpt>
      <trkpt lat="47.75989" lon="6.74106">
        <ele>494.3</ele>
        <time>2020-09-06T19:45:41Z</time>
      </trkpt>
      <trkpt lat="47.76002" lon="6.74112">
        <ele>494.5</ele>
        <time>2020-09-06T19:45:41Z</time>
      </trkpt>
      <trkpt lat="47.76023" lon="6.74121">
        <ele>495</ele>
        <time>2020-09-06T19:45:41Z</time>
      </trkpt>
      <trkpt lat="47.76031" lon="6.74124">
        <ele>495.1</ele>
        <time>2020-09-06T19:45:41Z</time>
      </trkpt>
      <trkpt lat="47.76053" lon="6.74135">
        <ele>495.8</ele>
        <time>2020-09-06T19:45:41Z</time>
      </trkpt>
      <trkpt lat="47.76063" lon="6.74142">
        <ele>495.9</ele>
        <time>2020-09-06T19:45:41Z</time>
      </trkpt>
      <trkpt lat="47.76073" lon="6.74148">
        <ele>496.1</ele>
        <time>2020-09-06T19:45:41Z</time>
      </trkpt>
      <trkpt lat="47.7608" lon="6.74153">
        <ele>496.3</ele>
        <time>2020-09-06T19:45:41Z</time>
      </trkpt>
      <trkpt lat="47.76086" lon="6.7416">
        <ele>496.4</ele>
        <time>2020-09-06T19:45:41Z</time>
      </trkpt>
      <trkpt lat="47.76091" lon="6.74168">
        <ele>496.5</ele>
        <time>2020-09-06T19:45:41Z</time>
      </trkpt>
      <trkpt lat="47.76104" lon="6.74192">
        <ele>496.8</ele>
        <time>2020-09-06T19:45:41Z</time>
      </trkpt>
      <trkpt lat="47.76112" lon="6.74207">
        <ele>497</ele>
        <time>2020-09-06T19:45:41Z</time>
      </trkpt>
      <trkpt lat="47.7612" lon="6.74221">
        <ele>497.2</ele>
        <time>2020-09-06T19:45:41Z</time>
      </trkpt>
      <trkpt lat="47.76131" lon="6.74235">
        <ele>497.5</ele>
        <time>2020-09-06T19:45:41Z</time>
      </trkpt>
      <trkpt lat="47.76142" lon="6.74243">
        <ele>497.7</ele>
        <time>2020-09-06T19:45:41Z</time>
      </trkpt>
      <trkpt lat="47.76153" lon="6.74245">
        <ele>498</ele>
        <time>2020-09-06T19:45:41Z</time>
      </trkpt>
      <trkpt lat="47.76166" lon="6.74248">
        <ele>498.4</ele>
        <time>2020-09-06T19:45:41Z</time>
      </trkpt>
      <trkpt lat="47.76177" lon="6.74248">
        <ele>498.7</ele>
        <time>2020-09-06T19:45:41Z</time>
      </trkpt>
      <trkpt lat="47.76189" lon="6.74243">
        <ele>499.4</ele>
        <time>2020-09-06T19:45:41Z</time>
      </trkpt>
      <trkpt lat="47.76214" lon="6.7423">
        <ele>500.6</ele>
        <time>2020-09-06T19:45:41Z</time>
      </trkpt>
      <trkpt lat="47.76226" lon="6.74225">
        <ele>500.8</ele>
        <time>2020-09-06T19:45:41Z</time>
      </trkpt>
      <trkpt lat="47.76236" lon="6.74221">
        <ele>500.7</ele>
        <time>2020-09-06T19:45:41Z</time>
      </trkpt>
      <trkpt lat="47.76256" lon="6.7422">
        <ele>500.4</ele>
        <time>2020-09-06T19:45:41Z</time>
      </trkpt>
      <trkpt lat="47.76283" lon="6.74218">
        <ele>500.4</ele>
        <time>2020-09-06T19:45:41Z</time>
      </trkpt>
      <trkpt lat="47.76307" lon="6.74217">
        <ele>500.5</ele>
        <time>2020-09-06T19:45:41Z</time>
      </trkpt>
      <trkpt lat="47.76326" lon="6.74214">
        <ele>500.7</ele>
        <time>2020-09-06T19:45:41Z</time>
      </trkpt>
      <trkpt lat="47.76343" lon="6.74211">
        <ele>500.8</ele>
        <time>2020-09-06T19:45:41Z</time>
      </trkpt>
      <trkpt lat="47.76363" lon="6.74204">
        <ele>501.1</ele>
        <time>2020-09-06T19:45:41Z</time>
      </trkpt>
      <trkpt lat="47.76371" lon="6.74201">
        <ele>501</ele>
        <time>2020-09-06T19:45:41Z</time>
      </trkpt>
      <trkpt lat="47.76381" lon="6.74197">
        <ele>501.1</ele>
        <time>2020-09-06T19:45:41Z</time>
      </trkpt>
      <trkpt lat="47.76402" lon="6.74184">
        <ele>501.4</ele>
        <time>2020-09-06T19:45:41Z</time>
      </trkpt>
      <trkpt lat="47.76419" lon="6.74175">
        <ele>501.9</ele>
        <time>2020-09-06T19:45:41Z</time>
      </trkpt>
      <trkpt lat="47.76431" lon="6.74171">
        <ele>502.2</ele>
        <time>2020-09-06T19:45:41Z</time>
      </trkpt>
      <trkpt lat="47.76457" lon="6.74168">
        <ele>502.9</ele>
        <time>2020-09-06T19:45:41Z</time>
      </trkpt>
      <trkpt lat="47.76468" lon="6.74164">
        <ele>503.3</ele>
        <time>2020-09-06T19:45:41Z</time>
      </trkpt>
      <trkpt lat="47.7648" lon="6.74161">
        <ele>503.6</ele>
        <time>2020-09-06T19:45:41Z</time>
      </trkpt>
      <trkpt lat="47.765" lon="6.74155">
        <ele>503.8</ele>
        <time>2020-09-06T19:45:41Z</time>
      </trkpt>
      <trkpt lat="47.76533" lon="6.74145">
        <ele>503.9</ele>
        <time>2020-09-06T19:45:41Z</time>
      </trkpt>
      <trkpt lat="47.76554" lon="6.74136">
        <ele>504.3</ele>
        <time>2020-09-06T19:45:41Z</time>
      </trkpt>
      <trkpt lat="47.76565" lon="6.74134">
        <ele>504.5</ele>
        <time>2020-09-06T19:45:41Z</time>
      </trkpt>
      <trkpt lat="47.76579" lon="6.74134">
        <ele>504.7</ele>
        <time>2020-09-06T19:45:41Z</time>
      </trkpt>
      <trkpt lat="47.76593" lon="6.74137">
        <ele>504.9</ele>
        <time>2020-09-06T19:45:41Z</time>
      </trkpt>
      <trkpt lat="47.76615" lon="6.74146">
        <ele>505.4</ele>
        <time>2020-09-06T19:45:41Z</time>
      </trkpt>
      <trkpt lat="47.76634" lon="6.74152">
        <ele>506.1</ele>
        <time>2020-09-06T19:45:41Z</time>
      </trkpt>
      <trkpt lat="47.76642" lon="6.74155">
        <ele>506.3</ele>
        <time>2020-09-06T19:45:41Z</time>
      </trkpt>
      <trkpt lat="47.76652" lon="6.74165">
        <ele>506.6</ele>
        <time>2020-09-06T19:45:41Z</time>
      </trkpt>
      <trkpt lat="47.7666" lon="6.74174">
        <ele>506.7</ele>
        <time>2020-09-06T19:45:41Z</time>
      </trkpt>
      <trkpt lat="47.76666" lon="6.74181">
        <ele>506.7</ele>
        <time>2020-09-06T19:45:41Z</time>
      </trkpt>
      <trkpt lat="47.76685" lon="6.74204">
        <ele>506.6</ele>
        <time>2020-09-06T19:45:41Z</time>
      </trkpt>
      <trkpt lat="47.76703" lon="6.74224">
        <ele>506.5</ele>
        <time>2020-09-06T19:45:41Z</time>
      </trkpt>
      <trkpt lat="47.76715" lon="6.74238">
        <ele>506.5</ele>
        <time>2020-09-06T19:45:41Z</time>
      </trkpt>
      <trkpt lat="47.76729" lon="6.74251">
        <ele>506.6</ele>
        <time>2020-09-06T19:45:41Z</time>
      </trkpt>
      <trkpt lat="47.76741" lon="6.74261">
        <ele>506.7</ele>
        <time>2020-09-06T19:45:41Z</time>
      </trkpt>
      <trkpt lat="47.76752" lon="6.74268">
        <ele>506.8</ele>
        <time>2020-09-06T19:45:41Z</time>
      </trkpt>
      <trkpt lat="47.76758" lon="6.7427">
        <ele>507</ele>
        <time>2020-09-06T19:45:41Z</time>
      </trkpt>
      <trkpt lat="47.76768" lon="6.74273">
        <ele>507.3</ele>
        <time>2020-09-06T19:45:41Z</time>
      </trkpt>
      <trkpt lat="47.76793" lon="6.74275">
        <ele>507.9</ele>
        <time>2020-09-06T19:45:41Z</time>
      </trkpt>
      <trkpt lat="47.76806" lon="6.74273">
        <ele>508.4</ele>
        <time>2020-09-06T19:45:41Z</time>
      </trkpt>
      <trkpt lat="47.76818" lon="6.74266">
        <ele>508.9</ele>
        <time>2020-09-06T19:45:41Z</time>
      </trkpt>
      <trkpt lat="47.76831" lon="6.74252">
        <ele>509.6</ele>
        <time>2020-09-06T19:45:41Z</time>
      </trkpt>
      <trkpt lat="47.76849" lon="6.74231">
        <ele>510.9</ele>
        <time>2020-09-06T19:45:41Z</time>
      </trkpt>
      <trkpt lat="47.7686" lon="6.7422">
        <ele>511.5</ele>
        <time>2020-09-06T19:45:41Z</time>
      </trkpt>
      <trkpt lat="47.76873" lon="6.74211">
        <ele>511.9</ele>
        <time>2020-09-06T19:45:41Z</time>
      </trkpt>
      <trkpt lat="47.76884" lon="6.74206">
        <ele>512.2</ele>
        <time>2020-09-06T19:45:41Z</time>
      </trkpt>
      <trkpt lat="47.76898" lon="6.74205">
        <ele>512.6</ele>
        <time>2020-09-06T19:45:41Z</time>
      </trkpt>
      <trkpt lat="47.76911" lon="6.74206">
        <ele>513</ele>
        <time>2020-09-06T19:45:41Z</time>
      </trkpt>
      <trkpt lat="47.76931" lon="6.74212">
        <ele>513.5</ele>
        <time>2020-09-06T19:45:41Z</time>
      </trkpt>
      <trkpt lat="47.76957" lon="6.74222">
        <ele>513.8</ele>
        <time>2020-09-06T19:45:41Z</time>
      </trkpt>
      <trkpt lat="47.77" lon="6.74239">
        <ele>514.6</ele>
        <time>2020-09-06T19:45:41Z</time>
      </trkpt>
      <trkpt lat="47.7702" lon="6.74246">
        <ele>515.7</ele>
        <time>2020-09-06T19:45:41Z</time>
      </trkpt>
      <trkpt lat="47.77036" lon="6.74255">
        <ele>516.4</ele>
        <time>2020-09-06T19:45:41Z</time>
      </trkpt>
      <trkpt lat="47.77041" lon="6.7426">
        <ele>516.5</ele>
        <time>2020-09-06T19:45:41Z</time>
      </trkpt>
      <trkpt lat="47.77046" lon="6.74269">
        <ele>516.5</ele>
        <time>2020-09-06T19:45:41Z</time>
      </trkpt>
      <trkpt lat="47.77056" lon="6.74287">
        <ele>516.1</ele>
        <time>2020-09-06T19:45:41Z</time>
      </trkpt>
      <trkpt lat="47.7706" lon="6.74298">
        <ele>515.8</ele>
        <time>2020-09-06T19:45:41Z</time>
      </trkpt>
      <trkpt lat="47.77065" lon="6.74335">
        <ele>514.8</ele>
        <time>2020-09-06T19:45:41Z</time>
      </trkpt>
      <trkpt lat="47.77069" lon="6.74357">
        <ele>514.1</ele>
        <time>2020-09-06T19:45:41Z</time>
      </trkpt>
      <trkpt lat="47.77075" lon="6.7438">
        <ele>513.5</ele>
        <time>2020-09-06T19:45:41Z</time>
      </trkpt>
      <trkpt lat="47.7708" lon="6.74396">
        <ele>513.5</ele>
        <time>2020-09-06T19:45:41Z</time>
      </trkpt>
      <trkpt lat="47.77085" lon="6.74405">
        <ele>513.5</ele>
        <time>2020-09-06T19:45:41Z</time>
      </trkpt>
      <trkpt lat="47.77094" lon="6.74422">
        <ele>511.1</ele>
        <time>2020-09-06T19:45:41Z</time>
      </trkpt>
      <trkpt lat="47.771" lon="6.74433">
        <ele>513.8</ele>
        <time>2020-09-06T19:45:41Z</time>
      </trkpt>
      <trkpt lat="47.77104" lon="6.74441">
        <ele>514.3</ele>
        <time>2020-09-06T19:45:41Z</time>
      </trkpt>
      <trkpt lat="47.77119" lon="6.74465">
        <ele>515.9</ele>
        <time>2020-09-06T19:45:41Z</time>
      </trkpt>
      <trkpt lat="47.77127" lon="6.74482">
        <ele>517</ele>
        <time>2020-09-06T19:45:41Z</time>
      </trkpt>
      <trkpt lat="47.7713" lon="6.74497">
        <ele>518.1</ele>
        <time>2020-09-06T19:45:41Z</time>
      </trkpt>
      <trkpt lat="47.77128" lon="6.74512">
        <ele>519.4</ele>
        <time>2020-09-06T19:45:41Z</time>
      </trkpt>
      <trkpt lat="47.77123" lon="6.74528">
        <ele>520.9</ele>
        <time>2020-09-06T19:45:41Z</time>
      </trkpt>
      <trkpt lat="47.77111" lon="6.74566">
        <ele>522.8</ele>
        <time>2020-09-06T19:45:41Z</time>
      </trkpt>
      <trkpt lat="47.77102" lon="6.74592">
        <ele>523.9</ele>
        <time>2020-09-06T19:45:41Z</time>
      </trkpt>
      <trkpt lat="47.77099" lon="6.74607">
        <ele>524.4</ele>
        <time>2020-09-06T19:45:41Z</time>
      </trkpt>
      <trkpt lat="47.77099" lon="6.74624">
        <ele>525</ele>
        <time>2020-09-06T19:45:41Z</time>
      </trkpt>
      <trkpt lat="47.77104" lon="6.7464">
        <ele>524.5</ele>
        <time>2020-09-06T19:45:41Z</time>
      </trkpt>
      <trkpt lat="47.77109" lon="6.74655">
        <ele>523.6</ele>
        <time>2020-09-06T19:45:41Z</time>
      </trkpt>
      <trkpt lat="47.77117" lon="6.74666">
        <ele>523.4</ele>
        <time>2020-09-06T19:45:41Z</time>
      </trkpt>
      <trkpt lat="47.77127" lon="6.7468">
        <ele>523</ele>
        <time>2020-09-06T19:45:41Z</time>
      </trkpt>
      <trkpt lat="47.7714" lon="6.74691">
        <ele>523</ele>
        <time>2020-09-06T19:45:41Z</time>
      </trkpt>
      <trkpt lat="47.77151" lon="6.74704">
        <ele>523.3</ele>
        <time>2020-09-06T19:45:41Z</time>
      </trkpt>
      <trkpt lat="47.77159" lon="6.74719">
        <ele>523.5</ele>
        <time>2020-09-06T19:45:41Z</time>
      </trkpt>
      <trkpt lat="47.77166" lon="6.7473">
        <ele>523.9</ele>
        <time>2020-09-06T19:45:41Z</time>
      </trkpt>
      <trkpt lat="47.77177" lon="6.74762">
        <ele>524.9</ele>
        <time>2020-09-06T19:45:41Z</time>
      </trkpt>
      <trkpt lat="47.77184" lon="6.7478">
        <ele>525.6</ele>
        <time>2020-09-06T19:45:41Z</time>
      </trkpt>
      <trkpt lat="47.77189" lon="6.74797">
        <ele>526.1</ele>
        <time>2020-09-06T19:45:41Z</time>
      </trkpt>
      <trkpt lat="47.77191" lon="6.74822">
        <ele>526.9</ele>
        <time>2020-09-06T19:45:41Z</time>
      </trkpt>
      <trkpt lat="47.77192" lon="6.74845">
        <ele>527.9</ele>
        <time>2020-09-06T19:45:41Z</time>
      </trkpt>
      <trkpt lat="47.77192" lon="6.74863">
        <ele>528.3</ele>
        <time>2020-09-06T19:45:41Z</time>
      </trkpt>
      <trkpt lat="47.77195" lon="6.74881">
        <ele>528.5</ele>
        <time>2020-09-06T19:45:41Z</time>
      </trkpt>
      <trkpt lat="47.77203" lon="6.74913">
        <ele>528.5</ele>
        <time>2020-09-06T19:45:41Z</time>
      </trkpt>
      <trkpt lat="47.77214" lon="6.74951">
        <ele>528.8</ele>
        <time>2020-09-06T19:45:41Z</time>
      </trkpt>
      <trkpt lat="47.77227" lon="6.74995">
        <ele>529.7</ele>
        <time>2020-09-06T19:45:41Z</time>
      </trkpt>
      <trkpt lat="47.77237" lon="6.75037">
        <ele>530.8</ele>
        <time>2020-09-06T19:45:41Z</time>
      </trkpt>
      <trkpt lat="47.77255" lon="6.75112">
        <ele>533.5</ele>
        <time>2020-09-06T19:45:41Z</time>
      </trkpt>
      <trkpt lat="47.7726" lon="6.75142">
        <ele>534.3</ele>
        <time>2020-09-06T19:45:41Z</time>
      </trkpt>
      <trkpt lat="47.77267" lon="6.75148">
        <ele>534.4</ele>
        <time>2020-09-06T19:45:41Z</time>
      </trkpt>
      <trkpt lat="47.77276" lon="6.75156">
        <ele>534.1</ele>
        <time>2020-09-06T19:45:41Z</time>
      </trkpt>
      <trkpt lat="47.77282" lon="6.75163">
        <ele>533.7</ele>
        <time>2020-09-06T19:45:41Z</time>
      </trkpt>
      <trkpt lat="47.77286" lon="6.75171">
        <ele>533.6</ele>
        <time>2020-09-06T19:45:41Z</time>
      </trkpt>
      <trkpt lat="47.77288" lon="6.75184">
        <ele>533.8</ele>
        <time>2020-09-06T19:45:41Z</time>
      </trkpt>
      <trkpt lat="47.77287" lon="6.75216">
        <ele>534.3</ele>
        <time>2020-09-06T19:45:41Z</time>
      </trkpt>
      <trkpt lat="47.77291" lon="6.75241">
        <ele>534.7</ele>
        <time>2020-09-06T19:45:41Z</time>
      </trkpt>
      <trkpt lat="47.77301" lon="6.75276">
        <ele>535.5</ele>
        <time>2020-09-06T19:45:41Z</time>
      </trkpt>
      <trkpt lat="47.77307" lon="6.75313">
        <ele>535.9</ele>
        <time>2020-09-06T19:45:41Z</time>
      </trkpt>
      <trkpt lat="47.77313" lon="6.75349">
        <ele>536.9</ele>
        <time>2020-09-06T19:45:41Z</time>
      </trkpt>
      <trkpt lat="47.77318" lon="6.75386">
        <ele>537.9</ele>
        <time>2020-09-06T19:45:41Z</time>
      </trkpt>
      <trkpt lat="47.77321" lon="6.75416">
        <ele>538.2</ele>
        <time>2020-09-06T19:45:41Z</time>
      </trkpt>
      <trkpt lat="47.77322" lon="6.75433">
        <ele>538.6</ele>
        <time>2020-09-06T19:45:41Z</time>
      </trkpt>
      <trkpt lat="47.77324" lon="6.75454">
        <ele>539.1</ele>
        <time>2020-09-06T19:45:41Z</time>
      </trkpt>
      <trkpt lat="47.77327" lon="6.75474">
        <ele>540.2</ele>
        <time>2020-09-06T19:45:41Z</time>
      </trkpt>
      <trkpt lat="47.7733" lon="6.75489">
        <ele>540.9</ele>
        <time>2020-09-06T19:45:41Z</time>
      </trkpt>
      <trkpt lat="47.77335" lon="6.75501">
        <ele>541.5</ele>
        <time>2020-09-06T19:45:41Z</time>
      </trkpt>
      <trkpt lat="47.77344" lon="6.75521">
        <ele>542.2</ele>
        <time>2020-09-06T19:45:41Z</time>
      </trkpt>
      <trkpt lat="47.77353" lon="6.75536">
        <ele>542.5</ele>
        <time>2020-09-06T19:45:41Z</time>
      </trkpt>
      <trkpt lat="47.77361" lon="6.75554">
        <ele>543.1</ele>
        <time>2020-09-06T19:45:41Z</time>
      </trkpt>
      <trkpt lat="47.77367" lon="6.75572">
        <ele>543.9</ele>
        <time>2020-09-06T19:45:41Z</time>
      </trkpt>
      <trkpt lat="47.77376" lon="6.75597">
        <ele>545.4</ele>
        <time>2020-09-06T19:45:41Z</time>
      </trkpt>
      <trkpt lat="47.77379" lon="6.75609">
        <ele>546.4</ele>
        <time>2020-09-06T19:45:41Z</time>
      </trkpt>
      <trkpt lat="47.77386" lon="6.75634">
        <ele>548.3</ele>
        <time>2020-09-06T19:45:41Z</time>
      </trkpt>
      <trkpt lat="47.77394" lon="6.75657">
        <ele>550</ele>
        <time>2020-09-06T19:45:41Z</time>
      </trkpt>
      <trkpt lat="47.77404" lon="6.75685">
        <ele>552.1</ele>
        <time>2020-09-06T19:45:41Z</time>
      </trkpt>
      <trkpt lat="47.77416" lon="6.75714">
        <ele>553.5</ele>
        <time>2020-09-06T19:45:41Z</time>
      </trkpt>
      <trkpt lat="47.7742" lon="6.75727">
        <ele>554.2</ele>
        <time>2020-09-06T19:45:41Z</time>
      </trkpt>
      <trkpt lat="47.77424" lon="6.75741">
        <ele>554.7</ele>
        <time>2020-09-06T19:45:41Z</time>
      </trkpt>
      <trkpt lat="47.77428" lon="6.75764">
        <ele>554.6</ele>
        <time>2020-09-06T19:45:41Z</time>
      </trkpt>
      <trkpt lat="47.77434" lon="6.75795">
        <ele>554.2</ele>
        <time>2020-09-06T19:45:41Z</time>
      </trkpt>
      <trkpt lat="47.7744" lon="6.75819">
        <ele>553.7</ele>
        <time>2020-09-06T19:45:41Z</time>
      </trkpt>
      <trkpt lat="47.77448" lon="6.75838">
        <ele>553.5</ele>
        <time>2020-09-06T19:45:41Z</time>
      </trkpt>
      <trkpt lat="47.77456" lon="6.7585">
        <ele>553.5</ele>
        <time>2020-09-06T19:45:41Z</time>
      </trkpt>
      <trkpt lat="47.77467" lon="6.75859">
        <ele>553.6</ele>
        <time>2020-09-06T19:45:41Z</time>
      </trkpt>
      <trkpt lat="47.77473" lon="6.75862">
        <ele>553.8</ele>
        <time>2020-09-06T19:45:41Z</time>
      </trkpt>
      <trkpt lat="47.77494" lon="6.75877">
        <ele>555.1</ele>
        <time>2020-09-06T19:45:41Z</time>
      </trkpt>
      <trkpt lat="47.77506" lon="6.75888">
        <ele>556.5</ele>
        <time>2020-09-06T19:45:41Z</time>
      </trkpt>
      <trkpt lat="47.77518" lon="6.75903">
        <ele>558.1</ele>
        <time>2020-09-06T19:45:41Z</time>
      </trkpt>
      <trkpt lat="47.77535" lon="6.75926">
        <ele>559.3</ele>
        <time>2020-09-06T19:45:41Z</time>
      </trkpt>
      <trkpt lat="47.77558" lon="6.7596">
        <ele>560.2</ele>
        <time>2020-09-06T19:45:41Z</time>
      </trkpt>
      <trkpt lat="47.77571" lon="6.75982">
        <ele>560.9</ele>
        <time>2020-09-06T19:45:41Z</time>
      </trkpt>
      <trkpt lat="47.77591" lon="6.76013">
        <ele>561.9</ele>
        <time>2020-09-06T19:45:41Z</time>
      </trkpt>
      <trkpt lat="47.7761" lon="6.76041">
        <ele>563</ele>
        <time>2020-09-06T19:45:41Z</time>
      </trkpt>
      <trkpt lat="47.77637" lon="6.76081">
        <ele>566.6</ele>
        <time>2020-09-06T19:45:41Z</time>
      </trkpt>
      <trkpt lat="47.77661" lon="6.76118">
        <ele>569.5</ele>
        <time>2020-09-06T19:45:41Z</time>
      </trkpt>
      <trkpt lat="47.7768" lon="6.76145">
        <ele>571.5</ele>
        <time>2020-09-06T19:45:41Z</time>
      </trkpt>
      <trkpt lat="47.77688" lon="6.76158">
        <ele>572</ele>
        <time>2020-09-06T19:45:41Z</time>
      </trkpt>
      <trkpt lat="47.77694" lon="6.76171">
        <ele>572.5</ele>
        <time>2020-09-06T19:45:41Z</time>
      </trkpt>
      <trkpt lat="47.77702" lon="6.76201">
        <ele>573.8</ele>
        <time>2020-09-06T19:45:41Z</time>
      </trkpt>
      <trkpt lat="47.7771" lon="6.76232">
        <ele>574.4</ele>
        <time>2020-09-06T19:45:41Z</time>
      </trkpt>
      <trkpt lat="47.7772" lon="6.76262">
        <ele>575.1</ele>
        <time>2020-09-06T19:45:41Z</time>
      </trkpt>
      <trkpt lat="47.77734" lon="6.76294">
        <ele>576.4</ele>
        <time>2020-09-06T19:45:41Z</time>
      </trkpt>
      <trkpt lat="47.77739" lon="6.76316">
        <ele>578.1</ele>
        <time>2020-09-06T19:45:41Z</time>
      </trkpt>
      <trkpt lat="47.77747" lon="6.76342">
        <ele>578.3</ele>
        <time>2020-09-06T19:45:41Z</time>
      </trkpt>
      <trkpt lat="47.7775" lon="6.76351">
        <ele>578.2</ele>
        <time>2020-09-06T19:45:41Z</time>
      </trkpt>
      <trkpt lat="47.77758" lon="6.76365">
        <ele>577.9</ele>
        <time>2020-09-06T19:45:41Z</time>
      </trkpt>
      <trkpt lat="47.77774" lon="6.76381">
        <ele>576.7</ele>
        <time>2020-09-06T19:45:41Z</time>
      </trkpt>
      <trkpt lat="47.77803" lon="6.76408">
        <ele>575</ele>
        <time>2020-09-06T19:45:41Z</time>
      </trkpt>
      <trkpt lat="47.77833" lon="6.76432">
        <ele>574.3</ele>
        <time>2020-09-06T19:45:41Z</time>
      </trkpt>
      <trkpt lat="47.7786" lon="6.76452">
        <ele>573.5</ele>
        <time>2020-09-06T19:45:41Z</time>
      </trkpt>
      <trkpt lat="47.77884" lon="6.76468">
        <ele>573.4</ele>
        <time>2020-09-06T19:45:41Z</time>
      </trkpt>
      <trkpt lat="47.7791" lon="6.76484">
        <ele>573.6</ele>
        <time>2020-09-06T19:45:41Z</time>
      </trkpt>
      <trkpt lat="47.77931" lon="6.76495">
        <ele>574.1</ele>
        <time>2020-09-06T19:45:41Z</time>
      </trkpt>
      <trkpt lat="47.77946" lon="6.76504">
        <ele>574.1</ele>
        <time>2020-09-06T19:45:41Z</time>
      </trkpt>
      <trkpt lat="47.77954" lon="6.76513">
        <ele>574</ele>
        <time>2020-09-06T19:45:41Z</time>
      </trkpt>
      <trkpt lat="47.77966" lon="6.76532">
        <ele>574.1</ele>
        <time>2020-09-06T19:45:41Z</time>
      </trkpt>
      <trkpt lat="47.77972" lon="6.7654">
        <ele>573.9</ele>
        <time>2020-09-06T19:45:41Z</time>
      </trkpt>
      <trkpt lat="47.7799" lon="6.76563">
        <ele>575</ele>
        <time>2020-09-06T19:45:41Z</time>
      </trkpt>
      <trkpt lat="47.78007" lon="6.76578">
        <ele>574.9</ele>
        <time>2020-09-06T19:45:41Z</time>
      </trkpt>
      <trkpt lat="47.78025" lon="6.76596">
        <ele>576</ele>
        <time>2020-09-06T19:45:41Z</time>
      </trkpt>
      <trkpt lat="47.78048" lon="6.7662">
        <ele>577.6</ele>
        <time>2020-09-06T19:45:41Z</time>
      </trkpt>
      <trkpt lat="47.78071" lon="6.76644">
        <ele>578.4</ele>
        <time>2020-09-06T19:45:41Z</time>
      </trkpt>
      <trkpt lat="47.78088" lon="6.76661">
        <ele>579.5</ele>
        <time>2020-09-06T19:45:41Z</time>
      </trkpt>
      <trkpt lat="47.78107" lon="6.76686">
        <ele>578.8</ele>
        <time>2020-09-06T19:45:41Z</time>
      </trkpt>
      <trkpt lat="47.78119" lon="6.76704">
        <ele>578.2</ele>
        <time>2020-09-06T19:45:41Z</time>
      </trkpt>
      <trkpt lat="47.78127" lon="6.76725">
        <ele>577.9</ele>
        <time>2020-09-06T19:45:41Z</time>
      </trkpt>
      <trkpt lat="47.78131" lon="6.76752">
        <ele>577.4</ele>
        <time>2020-09-06T19:45:41Z</time>
      </trkpt>
      <trkpt lat="47.78135" lon="6.76778">
        <ele>577.7</ele>
        <time>2020-09-06T19:45:41Z</time>
      </trkpt>
      <trkpt lat="47.78139" lon="6.76792">
        <ele>577.7</ele>
        <time>2020-09-06T19:45:41Z</time>
      </trkpt>
      <trkpt lat="47.78143" lon="6.76804">
        <ele>577.8</ele>
        <time>2020-09-06T19:45:41Z</time>
      </trkpt>
      <trkpt lat="47.78151" lon="6.76812">
        <ele>577.8</ele>
        <time>2020-09-06T19:45:41Z</time>
      </trkpt>
      <trkpt lat="47.78182" lon="6.76836">
        <ele>578.5</ele>
        <time>2020-09-06T19:45:41Z</time>
      </trkpt>
      <trkpt lat="47.78199" lon="6.76848">
        <ele>579.2</ele>
        <time>2020-09-06T19:45:41Z</time>
      </trkpt>
      <trkpt lat="47.78208" lon="6.76856">
        <ele>579.7</ele>
        <time>2020-09-06T19:45:41Z</time>
      </trkpt>
      <trkpt lat="47.78249" lon="6.76892">
        <ele>583.9</ele>
        <time>2020-09-06T19:45:41Z</time>
      </trkpt>
      <trkpt lat="47.78275" lon="6.76908">
        <ele>586.8</ele>
        <time>2020-09-06T19:45:41Z</time>
      </trkpt>
      <trkpt lat="47.78305" lon="6.76916">
        <ele>590</ele>
        <time>2020-09-06T19:45:41Z</time>
      </trkpt>
      <trkpt lat="47.78342" lon="6.76907">
        <ele>594.2</ele>
        <time>2020-09-06T19:45:41Z</time>
      </trkpt>
      <trkpt lat="47.78383" lon="6.76881">
        <ele>598.6</ele>
        <time>2020-09-06T19:45:41Z</time>
      </trkpt>
      <trkpt lat="47.78414" lon="6.76864">
        <ele>602.7</ele>
        <time>2020-09-06T19:45:41Z</time>
      </trkpt>
      <trkpt lat="47.78442" lon="6.76866">
        <ele>605.6</ele>
        <time>2020-09-06T19:45:41Z</time>
      </trkpt>
      <trkpt lat="47.78482" lon="6.76885">
        <ele>612</ele>
        <time>2020-09-06T19:45:41Z</time>
      </trkpt>
      <trkpt lat="47.78533" lon="6.76941">
        <ele>616.6</ele>
        <time>2020-09-06T19:45:41Z</time>
      </trkpt>
      <trkpt lat="47.78568" lon="6.77011">
        <ele>617.2</ele>
        <time>2020-09-06T19:45:41Z</time>
      </trkpt>
      <trkpt lat="47.78595" lon="6.77089">
        <ele>618.2</ele>
        <time>2020-09-06T19:45:41Z</time>
      </trkpt>
      <trkpt lat="47.78633" lon="6.77198">
        <ele>619.7</ele>
        <time>2020-09-06T19:45:41Z</time>
      </trkpt>
      <trkpt lat="47.78657" lon="6.77246">
        <ele>620.6</ele>
        <time>2020-09-06T19:45:41Z</time>
      </trkpt>
      <trkpt lat="47.78668" lon="6.77284">
        <ele>621.4</ele>
        <time>2020-09-06T19:45:41Z</time>
      </trkpt>
      <trkpt lat="47.78676" lon="6.7732">
        <ele>622.6</ele>
        <time>2020-09-06T19:45:41Z</time>
      </trkpt>
      <trkpt lat="47.78677" lon="6.77343">
        <ele>623.2</ele>
        <time>2020-09-06T19:45:41Z</time>
      </trkpt>
      <trkpt lat="47.78677" lon="6.77362">
        <ele>623.3</ele>
        <time>2020-09-06T19:45:41Z</time>
      </trkpt>
      <trkpt lat="47.7868" lon="6.7738">
        <ele>623.1</ele>
        <time>2020-09-06T19:45:41Z</time>
      </trkpt>
      <trkpt lat="47.78689" lon="6.7741">
        <ele>622.7</ele>
        <time>2020-09-06T19:45:41Z</time>
      </trkpt>
      <trkpt lat="47.78706" lon="6.77435">
        <ele>622.8</ele>
        <time>2020-09-06T19:45:41Z</time>
      </trkpt>
      <trkpt lat="47.78795" lon="6.77547">
        <ele>623.1</ele>
        <time>2020-09-06T19:45:41Z</time>
      </trkpt>
      <trkpt lat="47.78821" lon="6.77574">
        <ele>623.2</ele>
        <time>2020-09-06T19:45:41Z</time>
      </trkpt>
      <trkpt lat="47.78842" lon="6.77588">
        <ele>623.3</ele>
        <time>2020-09-06T19:45:41Z</time>
      </trkpt>
      <trkpt lat="47.78877" lon="6.77612">
        <ele>623.9</ele>
        <time>2020-09-06T19:45:41Z</time>
      </trkpt>
      <trkpt lat="47.78909" lon="6.77643">
        <ele>624.6</ele>
        <time>2020-09-06T19:45:41Z</time>
      </trkpt>
      <trkpt lat="47.78933" lon="6.77687">
        <ele>625.6</ele>
        <time>2020-09-06T19:45:41Z</time>
      </trkpt>
      <trkpt lat="47.78961" lon="6.77743">
        <ele>627.1</ele>
        <time>2020-09-06T19:45:41Z</time>
      </trkpt>
      <trkpt lat="47.78981" lon="6.77777">
        <ele>627.8</ele>
        <time>2020-09-06T19:45:41Z</time>
      </trkpt>
      <trkpt lat="47.78995" lon="6.77802">
        <ele>628.6</ele>
        <time>2020-09-06T19:45:41Z</time>
      </trkpt>
      <trkpt lat="47.79055" lon="6.77907">
        <ele>630.6</ele>
        <time>2020-09-06T19:45:41Z</time>
      </trkpt>
      <trkpt lat="47.7908" lon="6.77932">
        <ele>631.3</ele>
        <time>2020-09-06T19:45:41Z</time>
      </trkpt>
      <trkpt lat="47.79105" lon="6.77956">
        <ele>632.1</ele>
        <time>2020-09-06T19:45:41Z</time>
      </trkpt>
      <trkpt lat="47.79129" lon="6.77977">
        <ele>632.8</ele>
        <time>2020-09-06T19:45:41Z</time>
      </trkpt>
      <trkpt lat="47.79138" lon="6.77981">
        <ele>633.1</ele>
        <time>2020-09-06T19:45:41Z</time>
      </trkpt>
      <trkpt lat="47.79142" lon="6.77974">
        <ele>632.8</ele>
        <time>2020-09-06T19:45:41Z</time>
      </trkpt>
      <trkpt lat="47.7915" lon="6.77968">
        <ele>632.8</ele>
        <time>2020-09-06T19:45:41Z</time>
      </trkpt>
      <trkpt lat="47.79156" lon="6.77967">
        <ele>632.8</ele>
        <time>2020-09-06T19:45:41Z</time>
      </trkpt>
      <trkpt lat="47.79163" lon="6.77972">
        <ele>632.9</ele>
        <time>2020-09-06T19:45:41Z</time>
      </trkpt>
      <trkpt lat="47.79169" lon="6.77982">
        <ele>633.3</ele>
        <time>2020-09-06T19:45:41Z</time>
      </trkpt>
      <trkpt lat="47.79172" lon="6.77994">
        <ele>634</ele>
        <time>2020-09-06T19:45:41Z</time>
      </trkpt>
      <trkpt lat="47.79178" lon="6.78003">
        <ele>634.5</ele>
        <time>2020-09-06T19:45:41Z</time>
      </trkpt>
      <trkpt lat="47.79209" lon="6.78019">
        <ele>634.9</ele>
        <time>2020-09-06T19:45:41Z</time>
      </trkpt>
      <trkpt lat="47.79241" lon="6.78039">
        <ele>635.1</ele>
        <time>2020-09-06T19:45:41Z</time>
      </trkpt>
      <trkpt lat="47.79252" lon="6.78062">
        <ele>636</ele>
        <time>2020-09-06T19:45:41Z</time>
      </trkpt>
      <trkpt lat="47.79267" lon="6.7813">
        <ele>636.6</ele>
        <time>2020-09-06T19:45:41Z</time>
      </trkpt>
      <trkpt lat="47.79276" lon="6.7816">
        <ele>637.4</ele>
        <time>2020-09-06T19:45:41Z</time>
      </trkpt>
      <trkpt lat="47.7928" lon="6.78174">
        <ele>639</ele>
        <time>2020-09-06T19:45:41Z</time>
      </trkpt>
      <trkpt lat="47.79285" lon="6.7818">
        <ele>639.4</ele>
        <time>2020-09-06T19:45:41Z</time>
      </trkpt>
      <trkpt lat="47.79289" lon="6.78184">
        <ele>639.6</ele>
        <time>2020-09-06T19:45:41Z</time>
      </trkpt>
      <trkpt lat="47.79304" lon="6.78188">
        <ele>639.9</ele>
        <time>2020-09-06T19:45:41Z</time>
      </trkpt>
      <trkpt lat="47.79321" lon="6.78192">
        <ele>640.5</ele>
        <time>2020-09-06T19:45:41Z</time>
      </trkpt>
      <trkpt lat="47.79346" lon="6.78201">
        <ele>641.3</ele>
        <time>2020-09-06T19:45:41Z</time>
      </trkpt>
      <trkpt lat="47.79371" lon="6.78214">
        <ele>642.6</ele>
        <time>2020-09-06T19:45:41Z</time>
      </trkpt>
      <trkpt lat="47.79396" lon="6.78226">
        <ele>644.3</ele>
        <time>2020-09-06T19:45:41Z</time>
      </trkpt>
      <trkpt lat="47.79419" lon="6.78245">
        <ele>646.9</ele>
        <time>2020-09-06T19:45:41Z</time>
      </trkpt>
      <trkpt lat="47.79427" lon="6.78251">
        <ele>647.7</ele>
        <time>2020-09-06T19:45:41Z</time>
      </trkpt>
      <trkpt lat="47.79434" lon="6.78258">
        <ele>648.2</ele>
        <time>2020-09-06T19:45:41Z</time>
      </trkpt>
      <trkpt lat="47.79443" lon="6.78269">
        <ele>649.6</ele>
        <time>2020-09-06T19:45:41Z</time>
      </trkpt>
      <trkpt lat="47.7945" lon="6.78282">
        <ele>649.7</ele>
        <time>2020-09-06T19:45:41Z</time>
      </trkpt>
      <trkpt lat="47.79456" lon="6.78298">
        <ele>650</ele>
        <time>2020-09-06T19:45:41Z</time>
      </trkpt>
      <trkpt lat="47.79462" lon="6.78317">
        <ele>649.7</ele>
        <time>2020-09-06T19:45:41Z</time>
      </trkpt>
      <trkpt lat="47.79477" lon="6.7836">
        <ele>649.6</ele>
        <time>2020-09-06T19:45:41Z</time>
      </trkpt>
      <trkpt lat="47.79495" lon="6.78398">
        <ele>649.6</ele>
        <time>2020-09-06T19:45:41Z</time>
      </trkpt>
      <trkpt lat="47.79503" lon="6.78413">
        <ele>650</ele>
        <time>2020-09-06T19:45:41Z</time>
      </trkpt>
      <trkpt lat="47.7951" lon="6.78422">
        <ele>650.3</ele>
        <time>2020-09-06T19:45:41Z</time>
      </trkpt>
      <trkpt lat="47.79524" lon="6.78433">
        <ele>650.7</ele>
        <time>2020-09-06T19:45:41Z</time>
      </trkpt>
      <trkpt lat="47.79528" lon="6.78437">
        <ele>650.8</ele>
        <time>2020-09-06T19:45:41Z</time>
      </trkpt>
      <trkpt lat="47.79535" lon="6.78439">
        <ele>650.7</ele>
        <time>2020-09-06T19:45:41Z</time>
      </trkpt>
      <trkpt lat="47.79548" lon="6.78442">
        <ele>650.9</ele>
        <time>2020-09-06T19:45:41Z</time>
      </trkpt>
      <trkpt lat="47.79553" lon="6.78444">
        <ele>650.9</ele>
        <time>2020-09-06T19:45:41Z</time>
      </trkpt>
      <trkpt lat="47.79561" lon="6.78448">
        <ele>651.1</ele>
        <time>2020-09-06T19:45:41Z</time>
      </trkpt>
      <trkpt lat="47.79566" lon="6.78451">
        <ele>651.2</ele>
        <time>2020-09-06T19:45:41Z</time>
      </trkpt>
      <trkpt lat="47.79571" lon="6.78459">
        <ele>651.6</ele>
        <time>2020-09-06T19:45:41Z</time>
      </trkpt>
      <trkpt lat="47.79583" lon="6.78477">
        <ele>652.5</ele>
        <time>2020-09-06T19:45:41Z</time>
      </trkpt>
      <trkpt lat="47.79593" lon="6.78491">
        <ele>653.1</ele>
        <time>2020-09-06T19:45:41Z</time>
      </trkpt>
      <trkpt lat="47.79602" lon="6.78501">
        <ele>653.8</ele>
        <time>2020-09-06T19:45:41Z</time>
      </trkpt>
      <trkpt lat="47.79612" lon="6.78507">
        <ele>654.6</ele>
        <time>2020-09-06T19:45:41Z</time>
      </trkpt>
      <trkpt lat="47.79621" lon="6.7851">
        <ele>655.1</ele>
        <time>2020-09-06T19:45:41Z</time>
      </trkpt>
      <trkpt lat="47.7963" lon="6.78512">
        <ele>655.7</ele>
        <time>2020-09-06T19:45:41Z</time>
      </trkpt>
      <trkpt lat="47.79636" lon="6.78514">
        <ele>656</ele>
        <time>2020-09-06T19:45:41Z</time>
      </trkpt>
      <trkpt lat="47.79646" lon="6.7852">
        <ele>656.7</ele>
        <time>2020-09-06T19:45:41Z</time>
      </trkpt>
      <trkpt lat="47.79651" lon="6.78526">
        <ele>656.9</ele>
        <time>2020-09-06T19:45:41Z</time>
      </trkpt>
      <trkpt lat="47.79658" lon="6.78537">
        <ele>657.2</ele>
        <time>2020-09-06T19:45:41Z</time>
      </trkpt>
      <trkpt lat="47.7967" lon="6.78557">
        <ele>657.7</ele>
        <time>2020-09-06T19:45:41Z</time>
      </trkpt>
      <trkpt lat="47.79679" lon="6.78567">
        <ele>659.2</ele>
        <time>2020-09-06T19:45:41Z</time>
      </trkpt>
      <trkpt lat="47.79707" lon="6.78623">
        <ele>661.7</ele>
        <time>2020-09-06T19:45:41Z</time>
      </trkpt>
      <trkpt lat="47.79727" lon="6.78664">
        <ele>662.4</ele>
        <time>2020-09-06T19:45:41Z</time>
      </trkpt>
      <trkpt lat="47.79744" lon="6.78702">
        <ele>663.3</ele>
        <time>2020-09-06T19:45:41Z</time>
      </trkpt>
      <trkpt lat="47.79779" lon="6.78772">
        <ele>666</ele>
        <time>2020-09-06T19:45:41Z</time>
      </trkpt>
      <trkpt lat="47.79802" lon="6.78825">
        <ele>667.6</ele>
        <time>2020-09-06T19:45:41Z</time>
      </trkpt>
      <trkpt lat="47.79825" lon="6.78887">
        <ele>671.2</ele>
        <time>2020-09-06T19:45:41Z</time>
      </trkpt>
      <trkpt lat="47.79856" lon="6.78958">
        <ele>677.7</ele>
        <time>2020-09-06T19:45:41Z</time>
      </trkpt>
      <trkpt lat="47.79917" lon="6.79175">
        <ele>675.5</ele>
        <time>2020-09-06T19:45:41Z</time>
      </trkpt>
      <trkpt lat="47.79926" lon="6.79188">
        <ele>676.3</ele>
        <time>2020-09-06T19:45:41Z</time>
      </trkpt>
      <trkpt lat="47.79933" lon="6.79209">
        <ele>676.8</ele>
        <time>2020-09-06T19:45:41Z</time>
      </trkpt>
      <trkpt lat="47.79958" lon="6.79238">
        <ele>678.5</ele>
        <time>2020-09-06T19:45:41Z</time>
      </trkpt>
      <trkpt lat="47.79985" lon="6.7926">
        <ele>683.5</ele>
        <time>2020-09-06T19:45:41Z</time>
      </trkpt>
      <trkpt lat="47.80014" lon="6.79286">
        <ele>688.5</ele>
        <time>2020-09-06T19:45:41Z</time>
      </trkpt>
      <trkpt lat="47.80027" lon="6.79313">
        <ele>693.4</ele>
        <time>2020-09-06T19:45:41Z</time>
      </trkpt>
      <trkpt lat="47.80031" lon="6.79345">
        <ele>695.1</ele>
        <time>2020-09-06T19:45:41Z</time>
      </trkpt>
      <trkpt lat="47.80036" lon="6.7936">
        <ele>696.5</ele>
        <time>2020-09-06T19:45:41Z</time>
      </trkpt>
      <trkpt lat="47.80044" lon="6.79363">
        <ele>696.9</ele>
        <time>2020-09-06T19:45:41Z</time>
      </trkpt>
      <trkpt lat="47.80052" lon="6.79356">
        <ele>697.7</ele>
        <time>2020-09-06T19:45:41Z</time>
      </trkpt>
      <trkpt lat="47.80056" lon="6.79347">
        <ele>698.3</ele>
        <time>2020-09-06T19:45:41Z</time>
      </trkpt>
      <trkpt lat="47.80058" lon="6.79338">
        <ele>699.2</ele>
        <time>2020-09-06T19:45:41Z</time>
      </trkpt>
      <trkpt lat="47.80059" lon="6.79321">
        <ele>699.9</ele>
        <time>2020-09-06T19:45:41Z</time>
      </trkpt>
      <trkpt lat="47.80058" lon="6.79298">
        <ele>701.9</ele>
        <time>2020-09-06T19:45:41Z</time>
      </trkpt>
      <trkpt lat="47.80055" lon="6.79271">
        <ele>702.6</ele>
        <time>2020-09-06T19:45:41Z</time>
      </trkpt>
      <trkpt lat="47.80048" lon="6.79228">
        <ele>705.6</ele>
        <time>2020-09-06T19:45:41Z</time>
      </trkpt>
      <trkpt lat="47.80037" lon="6.79168">
        <ele>709.9</ele>
        <time>2020-09-06T19:45:41Z</time>
      </trkpt>
      <trkpt lat="47.8003" lon="6.79141">
        <ele>711.5</ele>
        <time>2020-09-06T19:45:41Z</time>
      </trkpt>
      <trkpt lat="47.80017" lon="6.79092">
        <ele>715</ele>
        <time>2020-09-06T19:45:41Z</time>
      </trkpt>
      <trkpt lat="47.80009" lon="6.79063">
        <ele>716.9</ele>
        <time>2020-09-06T19:45:41Z</time>
      </trkpt>
      <trkpt lat="47.80004" lon="6.79048">
        <ele>718.1</ele>
        <time>2020-09-06T19:45:41Z</time>
      </trkpt>
      <trkpt lat="47.79999" lon="6.79039">
        <ele>718.7</ele>
        <time>2020-09-06T19:45:41Z</time>
      </trkpt>
      <trkpt lat="47.79994" lon="6.79033">
        <ele>718.9</ele>
        <time>2020-09-06T19:45:41Z</time>
      </trkpt>
      <trkpt lat="47.79986" lon="6.79026">
        <ele>719.2</ele>
        <time>2020-09-06T19:45:41Z</time>
      </trkpt>
      <trkpt lat="47.79979" lon="6.79021">
        <ele>718.2</ele>
        <time>2020-09-06T19:45:41Z</time>
      </trkpt>
      <trkpt lat="47.79973" lon="6.79003">
        <ele>719.9</ele>
        <time>2020-09-06T19:45:41Z</time>
      </trkpt>
      <trkpt lat="47.79973" lon="6.78988">
        <ele>720</ele>
        <time>2020-09-06T19:45:41Z</time>
      </trkpt>
      <trkpt lat="47.79977" lon="6.78972">
        <ele>720.2</ele>
        <time>2020-09-06T19:45:41Z</time>
      </trkpt>
      <trkpt lat="47.79985" lon="6.78965">
        <ele>720.2</ele>
        <time>2020-09-06T19:45:41Z</time>
      </trkpt>
      <trkpt lat="47.79992" lon="6.78963">
        <ele>720.5</ele>
        <time>2020-09-06T19:45:41Z</time>
      </trkpt>
      <trkpt lat="47.8" lon="6.78966">
        <ele>720.7</ele>
        <time>2020-09-06T19:45:41Z</time>
      </trkpt>
      <trkpt lat="47.80007" lon="6.78973">
        <ele>721.3</ele>
        <time>2020-09-06T19:45:41Z</time>
      </trkpt>
      <trkpt lat="47.80011" lon="6.78986">
        <ele>721.7</ele>
        <time>2020-09-06T19:45:41Z</time>
      </trkpt>
      <trkpt lat="47.80015" lon="6.79004">
        <ele>722.5</ele>
        <time>2020-09-06T19:45:41Z</time>
      </trkpt>
      <trkpt lat="47.80017" lon="6.79024">
        <ele>723.5</ele>
        <time>2020-09-06T19:45:41Z</time>
      </trkpt>
      <trkpt lat="47.80025" lon="6.79051">
        <ele>726</ele>
        <time>2020-09-06T19:45:41Z</time>
      </trkpt>
      <trkpt lat="47.80037" lon="6.79081">
        <ele>728.3</ele>
        <time>2020-09-06T19:45:41Z</time>
      </trkpt>
      <trkpt lat="47.8012" lon="6.79243">
        <ele>741.9</ele>
        <time>2020-09-06T19:45:41Z</time>
      </trkpt>
      <trkpt lat="47.80137" lon="6.79282">
        <ele>744</ele>
        <time>2020-09-06T19:45:41Z</time>
      </trkpt>
      <trkpt lat="47.80145" lon="6.79311">
        <ele>744.3</ele>
        <time>2020-09-06T19:45:41Z</time>
      </trkpt>
      <trkpt lat="47.80144" lon="6.79333">
        <ele>744.4</ele>
        <time>2020-09-06T19:45:41Z</time>
      </trkpt>
      <trkpt lat="47.80147" lon="6.79343">
        <ele>742.1</ele>
        <time>2020-09-06T19:45:41Z</time>
      </trkpt>
      <trkpt lat="47.80154" lon="6.79354">
        <ele>745.8</ele>
        <time>2020-09-06T19:45:41Z</time>
      </trkpt>
      <trkpt lat="47.80162" lon="6.79359">
        <ele>748.3</ele>
        <time>2020-09-06T19:45:41Z</time>
      </trkpt>
      <trkpt lat="47.80168" lon="6.79369">
        <ele>748.3</ele>
        <time>2020-09-06T19:45:41Z</time>
      </trkpt>
      <trkpt lat="47.80174" lon="6.79384">
        <ele>749.8</ele>
        <time>2020-09-06T19:45:41Z</time>
      </trkpt>
      <trkpt lat="47.80179" lon="6.79397">
        <ele>751.1</ele>
        <time>2020-09-06T19:45:41Z</time>
      </trkpt>
      <trkpt lat="47.8023" lon="6.79446">
        <ele>758.1</ele>
        <time>2020-09-06T19:45:41Z</time>
      </trkpt>
      <trkpt lat="47.80276" lon="6.7948">
        <ele>759.8</ele>
        <time>2020-09-06T19:45:41Z</time>
      </trkpt>
      <trkpt lat="47.80307" lon="6.79498">
        <ele>763.3</ele>
        <time>2020-09-06T19:45:41Z</time>
      </trkpt>
      <trkpt lat="47.80352" lon="6.79517">
        <ele>767.4</ele>
        <time>2020-09-06T19:45:41Z</time>
      </trkpt>
      <trkpt lat="47.80376" lon="6.79513">
        <ele>771.7</ele>
        <time>2020-09-06T19:45:41Z</time>
      </trkpt>
      <trkpt lat="47.80393" lon="6.79519">
        <ele>773.2</ele>
        <time>2020-09-06T19:45:41Z</time>
      </trkpt>
      <trkpt lat="47.80412" lon="6.79522">
        <ele>774.7</ele>
        <time>2020-09-06T19:45:41Z</time>
      </trkpt>
      <trkpt lat="47.80439" lon="6.79518">
        <ele>777.3</ele>
        <time>2020-09-06T19:45:41Z</time>
      </trkpt>
      <trkpt lat="47.80471" lon="6.79511">
        <ele>780.5</ele>
        <time>2020-09-06T19:45:41Z</time>
      </trkpt>
      <trkpt lat="47.80515" lon="6.79498">
        <ele>785.1</ele>
        <time>2020-09-06T19:45:41Z</time>
      </trkpt>
      <trkpt lat="47.8058" lon="6.79483">
        <ele>791.4</ele>
        <time>2020-09-06T19:45:41Z</time>
      </trkpt>
      <trkpt lat="47.80591" lon="6.79476">
        <ele>792.8</ele>
        <time>2020-09-06T19:45:41Z</time>
      </trkpt>
      <trkpt lat="47.80601" lon="6.79466">
        <ele>793.6</ele>
        <time>2020-09-06T19:45:41Z</time>
      </trkpt>
      <trkpt lat="47.80606" lon="6.7946">
        <ele>794.5</ele>
        <time>2020-09-06T19:45:41Z</time>
      </trkpt>
      <trkpt lat="47.80617" lon="6.79456">
        <ele>795.5</ele>
        <time>2020-09-06T19:45:41Z</time>
      </trkpt>
      <trkpt lat="47.80628" lon="6.79457">
        <ele>796.4</ele>
        <time>2020-09-06T19:45:41Z</time>
      </trkpt>
      <trkpt lat="47.80636" lon="6.79459">
        <ele>796.6</ele>
        <time>2020-09-06T19:45:41Z</time>
      </trkpt>
      <trkpt lat="47.80675" lon="6.79465">
        <ele>799.4</ele>
        <time>2020-09-06T19:45:41Z</time>
      </trkpt>
      <trkpt lat="47.80704" lon="6.79466">
        <ele>801.3</ele>
        <time>2020-09-06T19:45:41Z</time>
      </trkpt>
      <trkpt lat="47.80738" lon="6.79461">
        <ele>805</ele>
        <time>2020-09-06T19:45:41Z</time>
      </trkpt>
      <trkpt lat="47.80756" lon="6.79452">
        <ele>806.9</ele>
        <time>2020-09-06T19:45:41Z</time>
      </trkpt>
      <trkpt lat="47.80764" lon="6.79448">
        <ele>808</ele>
        <time>2020-09-06T19:45:41Z</time>
      </trkpt>
      <trkpt lat="47.80773" lon="6.79449">
        <ele>808.2</ele>
        <time>2020-09-06T19:45:41Z</time>
      </trkpt>
      <trkpt lat="47.80782" lon="6.79452">
        <ele>809.6</ele>
        <time>2020-09-06T19:45:41Z</time>
      </trkpt>
      <trkpt lat="47.80819" lon="6.79478">
        <ele>814</ele>
        <time>2020-09-06T19:45:41Z</time>
      </trkpt>
      <trkpt lat="47.80844" lon="6.795">
        <ele>817</ele>
        <time>2020-09-06T19:45:41Z</time>
      </trkpt>
      <trkpt lat="47.80866" lon="6.79519">
        <ele>819.6</ele>
        <time>2020-09-06T19:45:41Z</time>
      </trkpt>
      <trkpt lat="47.80871" lon="6.79524">
        <ele>820.1</ele>
        <time>2020-09-06T19:45:41Z</time>
      </trkpt>
      <trkpt lat="47.80885" lon="6.7953">
        <ele>821.5</ele>
        <time>2020-09-06T19:45:41Z</time>
      </trkpt>
      <trkpt lat="47.80907" lon="6.7953">
        <ele>822.9</ele>
        <time>2020-09-06T19:45:41Z</time>
      </trkpt>
      <trkpt lat="47.80937" lon="6.79529">
        <ele>824.6</ele>
        <time>2020-09-06T19:45:41Z</time>
      </trkpt>
      <trkpt lat="47.8096" lon="6.79529">
        <ele>826.2</ele>
        <time>2020-09-06T19:45:41Z</time>
      </trkpt>
      <trkpt lat="47.8098" lon="6.79532">
        <ele>827.5</ele>
        <time>2020-09-06T19:45:41Z</time>
      </trkpt>
      <trkpt lat="47.81016" lon="6.79549">
        <ele>830.2</ele>
        <time>2020-09-06T19:45:41Z</time>
      </trkpt>
      <trkpt lat="47.81033" lon="6.79554">
        <ele>831.7</ele>
        <time>2020-09-06T19:45:41Z</time>
      </trkpt>
      <trkpt lat="47.81052" lon="6.79556">
        <ele>833.7</ele>
        <time>2020-09-06T19:45:41Z</time>
      </trkpt>
      <trkpt lat="47.81083" lon="6.79567">
        <ele>838.6</ele>
        <time>2020-09-06T19:45:41Z</time>
      </trkpt>
      <trkpt lat="47.81112" lon="6.79584">
        <ele>840.7</ele>
        <time>2020-09-06T19:45:41Z</time>
      </trkpt>
      <trkpt lat="47.8118" lon="6.79623">
        <ele>851.2</ele>
        <time>2020-09-06T19:45:41Z</time>
      </trkpt>
      <trkpt lat="47.81191" lon="6.79631">
        <ele>854.4</ele>
        <time>2020-09-06T19:45:41Z</time>
      </trkpt>
      <trkpt lat="47.81199" lon="6.79642">
        <ele>856.3</ele>
        <time>2020-09-06T19:45:41Z</time>
      </trkpt>
      <trkpt lat="47.81206" lon="6.79655">
        <ele>856.5</ele>
        <time>2020-09-06T19:45:41Z</time>
      </trkpt>
      <trkpt lat="47.81212" lon="6.79668">
        <ele>858.9</ele>
        <time>2020-09-06T19:45:41Z</time>
      </trkpt>
      <trkpt lat="47.81224" lon="6.79708">
        <ele>859.2</ele>
        <time>2020-09-06T19:45:41Z</time>
      </trkpt>
      <trkpt lat="47.81231" lon="6.79737">
        <ele>860.4</ele>
        <time>2020-09-06T19:45:41Z</time>
      </trkpt>
      <trkpt lat="47.8124" lon="6.79766">
        <ele>862.9</ele>
        <time>2020-09-06T19:45:41Z</time>
      </trkpt>
      <trkpt lat="47.81243" lon="6.79784">
        <ele>864.7</ele>
        <time>2020-09-06T19:45:41Z</time>
      </trkpt>
      <trkpt lat="47.81244" lon="6.79795">
        <ele>865</ele>
        <time>2020-09-06T19:45:41Z</time>
      </trkpt>
      <trkpt lat="47.81242" lon="6.79816">
        <ele>866.5</ele>
        <time>2020-09-06T19:45:41Z</time>
      </trkpt>
      <trkpt lat="47.8124" lon="6.79854">
        <ele>868.4</ele>
        <time>2020-09-06T19:45:41Z</time>
      </trkpt>
      <trkpt lat="47.81241" lon="6.79873">
        <ele>869.7</ele>
        <time>2020-09-06T19:45:41Z</time>
      </trkpt>
      <trkpt lat="47.81242" lon="6.7989">
        <ele>871.8</ele>
        <time>2020-09-06T19:45:41Z</time>
      </trkpt>
      <trkpt lat="47.81245" lon="6.79907">
        <ele>872</ele>
        <time>2020-09-06T19:45:41Z</time>
      </trkpt>
      <trkpt lat="47.8125" lon="6.79923">
        <ele>872.8</ele>
        <time>2020-09-06T19:45:41Z</time>
      </trkpt>
      <trkpt lat="47.81256" lon="6.7994">
        <ele>874.8</ele>
        <time>2020-09-06T19:45:41Z</time>
      </trkpt>
      <trkpt lat="47.81262" lon="6.79951">
        <ele>875.1</ele>
        <time>2020-09-06T19:45:41Z</time>
      </trkpt>
      <trkpt lat="47.8127" lon="6.79959">
        <ele>877.7</ele>
        <time>2020-09-06T19:45:41Z</time>
      </trkpt>
      <trkpt lat="47.81282" lon="6.79964">
        <ele>880.7</ele>
        <time>2020-09-06T19:45:41Z</time>
      </trkpt>
      <trkpt lat="47.81291" lon="6.79967">
        <ele>883.2</ele>
        <time>2020-09-06T19:45:41Z</time>
      </trkpt>
      <trkpt lat="47.81297" lon="6.79974">
        <ele>883.4</ele>
        <time>2020-09-06T19:45:41Z</time>
      </trkpt>
      <trkpt lat="47.81311" lon="6.79996">
        <ele>884.9</ele>
        <time>2020-09-06T19:45:41Z</time>
      </trkpt>
      <trkpt lat="47.81322" lon="6.8001">
        <ele>885.1</ele>
        <time>2020-09-06T19:45:41Z</time>
      </trkpt>
      <trkpt lat="47.81332" lon="6.80017">
        <ele>886.8</ele>
        <time>2020-09-06T19:45:41Z</time>
      </trkpt>
      <trkpt lat="47.81346" lon="6.80018">
        <ele>889.2</ele>
        <time>2020-09-06T19:45:41Z</time>
      </trkpt>
      <trkpt lat="47.81354" lon="6.80017">
        <ele>890.9</ele>
        <time>2020-09-06T19:45:41Z</time>
      </trkpt>
      <trkpt lat="47.81363" lon="6.80019">
        <ele>892.6</ele>
        <time>2020-09-06T19:45:41Z</time>
      </trkpt>
      <trkpt lat="47.81377" lon="6.8003">
        <ele>893.5</ele>
        <time>2020-09-06T19:45:41Z</time>
      </trkpt>
      <trkpt lat="47.8139" lon="6.8004">
        <ele>894.9</ele>
        <time>2020-09-06T19:45:41Z</time>
      </trkpt>
      <trkpt lat="47.81399" lon="6.80042">
        <ele>896</ele>
        <time>2020-09-06T19:45:41Z</time>
      </trkpt>
      <trkpt lat="47.81407" lon="6.80042">
        <ele>897.3</ele>
        <time>2020-09-06T19:45:41Z</time>
      </trkpt>
      <trkpt lat="47.81426" lon="6.80033">
        <ele>900.8</ele>
        <time>2020-09-06T19:45:41Z</time>
      </trkpt>
      <trkpt lat="47.81442" lon="6.80026">
        <ele>902.7</ele>
        <time>2020-09-06T19:45:41Z</time>
      </trkpt>
      <trkpt lat="47.81453" lon="6.80017">
        <ele>905.2</ele>
        <time>2020-09-06T19:45:41Z</time>
      </trkpt>
      <trkpt lat="47.81464" lon="6.80012">
        <ele>906.9</ele>
        <time>2020-09-06T19:45:41Z</time>
      </trkpt>
      <trkpt lat="47.81473" lon="6.80011">
        <ele>908.5</ele>
        <time>2020-09-06T19:45:41Z</time>
      </trkpt>
      <trkpt lat="47.8148" lon="6.80016">
        <ele>910.2</ele>
        <time>2020-09-06T19:45:41Z</time>
      </trkpt>
      <trkpt lat="47.81488" lon="6.80027">
        <ele>911</ele>
        <time>2020-09-06T19:45:41Z</time>
      </trkpt>
      <trkpt lat="47.81501" lon="6.80047">
        <ele>911.9</ele>
        <time>2020-09-06T19:45:41Z</time>
      </trkpt>
      <trkpt lat="47.81514" lon="6.80061">
        <ele>913.6</ele>
        <time>2020-09-06T19:45:41Z</time>
      </trkpt>
      <trkpt lat="47.81531" lon="6.80069">
        <ele>916.1</ele>
        <time>2020-09-06T19:45:41Z</time>
      </trkpt>
      <trkpt lat="47.8155" lon="6.80068">
        <ele>918.1</ele>
        <time>2020-09-06T19:45:41Z</time>
      </trkpt>
      <trkpt lat="47.81566" lon="6.80061">
        <ele>919.2</ele>
        <time>2020-09-06T19:45:41Z</time>
      </trkpt>
      <trkpt lat="47.81574" lon="6.80051">
        <ele>919.8</ele>
        <time>2020-09-06T19:45:41Z</time>
      </trkpt>
      <trkpt lat="47.81581" lon="6.80028">
        <ele>921.2</ele>
        <time>2020-09-06T19:45:41Z</time>
      </trkpt>
      <trkpt lat="47.81585" lon="6.80007">
        <ele>923.3</ele>
        <time>2020-09-06T19:45:41Z</time>
      </trkpt>
      <trkpt lat="47.81592" lon="6.79974">
        <ele>927.2</ele>
        <time>2020-09-06T19:45:41Z</time>
      </trkpt>
      <trkpt lat="47.81599" lon="6.79956">
        <ele>929.1</ele>
        <time>2020-09-06T19:45:41Z</time>
      </trkpt>
      <trkpt lat="47.81611" lon="6.79944">
        <ele>930.4</ele>
        <time>2020-09-06T19:45:41Z</time>
      </trkpt>
      <trkpt lat="47.81623" lon="6.79939">
        <ele>930.2</ele>
        <time>2020-09-06T19:45:41Z</time>
      </trkpt>
      <trkpt lat="47.81635" lon="6.79935">
        <ele>929.1</ele>
        <time>2020-09-06T19:45:41Z</time>
      </trkpt>
      <trkpt lat="47.8164" lon="6.79926">
        <ele>929.9</ele>
        <time>2020-09-06T19:45:41Z</time>
      </trkpt>
      <trkpt lat="47.8164" lon="6.79916">
        <ele>932.3</ele>
        <time>2020-09-06T19:45:41Z</time>
      </trkpt>
      <trkpt lat="47.81635" lon="6.79911">
        <ele>934</ele>
        <time>2020-09-06T19:45:41Z</time>
      </trkpt>
      <trkpt lat="47.81628" lon="6.79911">
        <ele>934.9</ele>
        <time>2020-09-06T19:45:41Z</time>
      </trkpt>
      <trkpt lat="47.81617" lon="6.79917">
        <ele>935.2</ele>
        <time>2020-09-06T19:45:41Z</time>
      </trkpt>
      <trkpt lat="47.81602" lon="6.79923">
        <ele>936.2</ele>
        <time>2020-09-06T19:45:41Z</time>
      </trkpt>
      <trkpt lat="47.81586" lon="6.79929">
        <ele>937</ele>
        <time>2020-09-06T19:45:41Z</time>
      </trkpt>
      <trkpt lat="47.81569" lon="6.7993">
        <ele>938</ele>
        <time>2020-09-06T19:45:41Z</time>
      </trkpt>
      <trkpt lat="47.81555" lon="6.79935">
        <ele>938.8</ele>
        <time>2020-09-06T19:45:41Z</time>
      </trkpt>
      <trkpt lat="47.81539" lon="6.79937">
        <ele>941.4</ele>
        <time>2020-09-06T19:45:41Z</time>
      </trkpt>
      <trkpt lat="47.81523" lon="6.79929">
        <ele>942.6</ele>
        <time>2020-09-06T19:45:41Z</time>
      </trkpt>
      <trkpt lat="47.81511" lon="6.79915">
        <ele>943.3</ele>
        <time>2020-09-06T19:45:41Z</time>
      </trkpt>
      <trkpt lat="47.81498" lon="6.7989">
        <ele>945.6</ele>
        <time>2020-09-06T19:45:41Z</time>
      </trkpt>
      <trkpt lat="47.81493" lon="6.79871">
        <ele>947</ele>
        <time>2020-09-06T19:45:41Z</time>
      </trkpt>
      <trkpt lat="47.81489" lon="6.79844">
        <ele>949.3</ele>
        <time>2020-09-06T19:45:41Z</time>
      </trkpt>
      <trkpt lat="47.81487" lon="6.7982">
        <ele>953.5</ele>
        <time>2020-09-06T19:45:41Z</time>
      </trkpt>
      <trkpt lat="47.81483" lon="6.79806">
        <ele>954</ele>
        <time>2020-09-06T19:45:41Z</time>
      </trkpt>
      <trkpt lat="47.81475" lon="6.79788">
        <ele>953.3</ele>
        <time>2020-09-06T19:45:41Z</time>
      </trkpt>
      <trkpt lat="47.81468" lon="6.7976">
        <ele>954.4</ele>
        <time>2020-09-06T19:45:41Z</time>
      </trkpt>
      <trkpt lat="47.81466" lon="6.79719">
        <ele>960.4</ele>
        <time>2020-09-06T19:45:41Z</time>
      </trkpt>
      <trkpt lat="47.81464" lon="6.79678">
        <ele>964.3</ele>
        <time>2020-09-06T19:45:41Z</time>
      </trkpt>
      <trkpt lat="47.81461" lon="6.7965">
        <ele>968.2</ele>
        <time>2020-09-06T19:45:41Z</time>
      </trkpt>
      <trkpt lat="47.81458" lon="6.79624">
        <ele>969.1</ele>
        <time>2020-09-06T19:45:41Z</time>
      </trkpt>
      <trkpt lat="47.81452" lon="6.79596">
        <ele>970.2</ele>
        <time>2020-09-06T19:45:41Z</time>
      </trkpt>
      <trkpt lat="47.81445" lon="6.79576">
        <ele>969.9</ele>
        <time>2020-09-06T19:45:41Z</time>
      </trkpt>
      <trkpt lat="47.81438" lon="6.79564">
        <ele>968.7</ele>
        <time>2020-09-06T19:45:41Z</time>
      </trkpt>
      <trkpt lat="47.81433" lon="6.79548">
        <ele>969.2</ele>
        <time>2020-09-06T19:45:41Z</time>
      </trkpt>
      <trkpt lat="47.81432" lon="6.79526">
        <ele>973.4</ele>
        <time>2020-09-06T19:45:41Z</time>
      </trkpt>
      <trkpt lat="47.8143" lon="6.79508">
        <ele>975.4</ele>
        <time>2020-09-06T19:45:41Z</time>
      </trkpt>
      <trkpt lat="47.8142" lon="6.79484">
        <ele>975.2</ele>
        <time>2020-09-06T19:45:41Z</time>
      </trkpt>
      <trkpt lat="47.81389" lon="6.79397">
        <ele>979.4</ele>
        <time>2020-09-06T19:45:41Z</time>
      </trkpt>
      <trkpt lat="47.81374" lon="6.79347">
        <ele>980.7</ele>
        <time>2020-09-06T19:45:41Z</time>
      </trkpt>
      <trkpt lat="47.81366" lon="6.79312">
        <ele>985.2</ele>
        <time>2020-09-06T19:45:41Z</time>
      </trkpt>
      <trkpt lat="47.81365" lon="6.79266">
        <ele>987.6</ele>
        <time>2020-09-06T19:45:41Z</time>
      </trkpt>
      <trkpt lat="47.81365" lon="6.79232">
        <ele>990.4</ele>
        <time>2020-09-06T19:45:41Z</time>
      </trkpt>
      <trkpt lat="47.8136" lon="6.79202">
        <ele>991.1</ele>
        <time>2020-09-06T19:45:41Z</time>
      </trkpt>
      <trkpt lat="47.81354" lon="6.79171">
        <ele>993.9</ele>
        <time>2020-09-06T19:45:41Z</time>
      </trkpt>
      <trkpt lat="47.81348" lon="6.79154">
        <ele>994</ele>
        <time>2020-09-06T19:45:41Z</time>
      </trkpt>
      <trkpt lat="47.81342" lon="6.79141">
        <ele>995.2</ele>
        <time>2020-09-06T19:45:41Z</time>
      </trkpt>
      <trkpt lat="47.81333" lon="6.7913">
        <ele>995.3</ele>
        <time>2020-09-06T19:45:41Z</time>
      </trkpt>
      <trkpt lat="47.81325" lon="6.79115">
        <ele>995.9</ele>
        <time>2020-09-06T19:45:41Z</time>
      </trkpt>
      <trkpt lat="47.81319" lon="6.79095">
        <ele>999.8</ele>
        <time>2020-09-06T19:45:41Z</time>
      </trkpt>
      <trkpt lat="47.81309" lon="6.7907">
        <ele>1002.5</ele>
        <time>2020-09-06T19:45:41Z</time>
      </trkpt>
      <trkpt lat="47.81296" lon="6.79052">
        <ele>1004.2</ele>
        <time>2020-09-06T19:45:41Z</time>
      </trkpt>
      <trkpt lat="47.81277" lon="6.79034">
        <ele>1005.8</ele>
        <time>2020-09-06T19:45:41Z</time>
      </trkpt>
      <trkpt lat="47.81226" lon="6.78981">
        <ele>1011.5</ele>
        <time>2020-09-06T19:45:41Z</time>
      </trkpt>
      <trkpt lat="47.81176" lon="6.78933">
        <ele>1016</ele>
        <time>2020-09-06T19:45:41Z</time>
      </trkpt>
      <trkpt lat="47.81147" lon="6.78909">
        <ele>1018.8</ele>
        <time>2020-09-06T19:45:41Z</time>
      </trkpt>
      <trkpt lat="47.81134" lon="6.78904">
        <ele>1019.9</ele>
        <time>2020-09-06T19:45:41Z</time>
      </trkpt>
      <trkpt lat="47.81117" lon="6.78902">
        <ele>1021.3</ele>
        <time>2020-09-06T19:45:41Z</time>
      </trkpt>
      <trkpt lat="47.81099" lon="6.78904">
        <ele>1023.1</ele>
        <time>2020-09-06T19:45:41Z</time>
      </trkpt>
      <trkpt lat="47.81082" lon="6.78913">
        <ele>1024.8</ele>
        <time>2020-09-06T19:45:41Z</time>
      </trkpt>
      <trkpt lat="47.81062" lon="6.78931">
        <ele>1026.5</ele>
        <time>2020-09-06T19:45:41Z</time>
      </trkpt>
      <trkpt lat="47.81041" lon="6.78952">
        <ele>1028.7</ele>
        <time>2020-09-06T19:45:41Z</time>
      </trkpt>
      <trkpt lat="47.81024" lon="6.7897">
        <ele>1030.4</ele>
        <time>2020-09-06T19:45:41Z</time>
      </trkpt>
      <trkpt lat="47.81008" lon="6.78984">
        <ele>1031.9</ele>
        <time>2020-09-06T19:45:41Z</time>
      </trkpt>
      <trkpt lat="47.80992" lon="6.78992">
        <ele>1032.9</ele>
        <time>2020-09-06T19:45:41Z</time>
      </trkpt>
      <trkpt lat="47.80981" lon="6.78994">
        <ele>1033.2</ele>
        <time>2020-09-06T19:45:41Z</time>
      </trkpt>
      <trkpt lat="47.80971" lon="6.78992">
        <ele>1033.7</ele>
        <time>2020-09-06T19:45:41Z</time>
      </trkpt>
      <trkpt lat="47.80967" lon="6.78988">
        <ele>1033.6</ele>
        <time>2020-09-06T19:45:41Z</time>
      </trkpt>
      <trkpt lat="47.8096" lon="6.78975">
        <ele>1034.2</ele>
        <time>2020-09-06T19:45:41Z</time>
      </trkpt>
      <trkpt lat="47.8096" lon="6.78958">
        <ele>1034.9</ele>
        <time>2020-09-06T19:45:41Z</time>
      </trkpt>
      <trkpt lat="47.80964" lon="6.78949">
        <ele>1035.2</ele>
        <time>2020-09-06T19:45:41Z</time>
      </trkpt>
      <trkpt lat="47.80968" lon="6.78944">
        <ele>1035.5</ele>
        <time>2020-09-06T19:45:41Z</time>
      </trkpt>
      <trkpt lat="47.80978" lon="6.78943">
        <ele>1035.9</ele>
        <time>2020-09-06T19:45:41Z</time>
      </trkpt>
      <trkpt lat="47.80992" lon="6.78952">
        <ele>1036.2</ele>
        <time>2020-09-06T19:45:41Z</time>
      </trkpt>
      <trkpt lat="47.81002" lon="6.78959">
        <ele>1036.6</ele>
        <time>2020-09-06T19:45:41Z</time>
      </trkpt>
      <trkpt lat="47.81008" lon="6.78961">
        <ele>1036.8</ele>
        <time>2020-09-06T19:45:41Z</time>
      </trkpt>
      <trkpt lat="47.81014" lon="6.7896">
        <ele>1037.1</ele>
        <time>2020-09-06T19:45:41Z</time>
      </trkpt>
      <trkpt lat="47.81021" lon="6.78956">
        <ele>1037.2</ele>
        <time>2020-09-06T19:45:41Z</time>
      </trkpt>
      <trkpt lat="47.81031" lon="6.78946">
        <ele>1037.3</ele>
        <time>2020-09-06T19:45:41Z</time>
      </trkpt>
      <trkpt lat="47.8105" lon="6.78921">
        <ele>1037.2</ele>
        <time>2020-09-06T19:45:41Z</time>
      </trkpt>
      <trkpt lat="47.81068" lon="6.78893">
        <ele>1038.6</ele>
        <time>2020-09-06T19:45:41Z</time>
      </trkpt>
      <trkpt lat="47.81084" lon="6.78874">
        <ele>1039.1</ele>
        <time>2020-09-06T19:45:41Z</time>
      </trkpt>
      <trkpt lat="47.81094" lon="6.78868">
        <ele>1039.7</ele>
        <time>2020-09-06T19:45:41Z</time>
      </trkpt>
      <trkpt lat="47.81107" lon="6.78862">
        <ele>1040</ele>
        <time>2020-09-06T19:45:41Z</time>
      </trkpt>
      <trkpt lat="47.81124" lon="6.78859">
        <ele>1041.1</ele>
        <time>2020-09-06T19:45:41Z</time>
      </trkpt>
      <trkpt lat="47.81149" lon="6.78855">
        <ele>1042.5</ele>
        <time>2020-09-06T19:45:41Z</time>
      </trkpt>
      <trkpt lat="47.81163" lon="6.78855">
        <ele>1043.3</ele>
        <time>2020-09-06T19:45:41Z</time>
      </trkpt>
      <trkpt lat="47.81182" lon="6.78863">
        <ele>1044.5</ele>
        <time>2020-09-06T19:45:41Z</time>
      </trkpt>
      <trkpt lat="47.81191" lon="6.78866">
        <ele>1044.7</ele>
        <time>2020-09-06T19:45:41Z</time>
      </trkpt>
      <trkpt lat="47.81203" lon="6.78862">
        <ele>1045.4</ele>
        <time>2020-09-06T19:45:41Z</time>
      </trkpt>
      <trkpt lat="47.81215" lon="6.78858">
        <ele>1048.1</ele>
        <time>2020-09-06T19:45:41Z</time>
      </trkpt>
      <trkpt lat="47.81225" lon="6.78856">
        <ele>1053.5</ele>
        <time>2020-09-06T19:45:41Z</time>
      </trkpt>
      <trkpt lat="47.81237" lon="6.7886">
        <ele>1053.7</ele>
        <time>2020-09-06T19:45:41Z</time>
      </trkpt>
      <trkpt lat="47.81257" lon="6.7887">
        <ele>1054.2</ele>
        <time>2020-09-06T19:45:41Z</time>
      </trkpt>
      <trkpt lat="47.81276" lon="6.78881">
        <ele>1059</ele>
        <time>2020-09-06T19:45:41Z</time>
      </trkpt>
      <trkpt lat="47.81285" lon="6.78892">
        <ele>1058</ele>
        <time>2020-09-06T19:45:41Z</time>
      </trkpt>
      <trkpt lat="47.81297" lon="6.78908">
        <ele>1055.5</ele>
        <time>2020-09-06T19:45:41Z</time>
      </trkpt>
      <trkpt lat="47.81308" lon="6.78919">
        <ele>1057.2</ele>
        <time>2020-09-06T19:45:41Z</time>
      </trkpt>
      <trkpt lat="47.81319" lon="6.78927">
        <ele>1058.3</ele>
        <time>2020-09-06T19:45:41Z</time>
      </trkpt>
      <trkpt lat="47.81347" lon="6.78938">
        <ele>1060.6</ele>
        <time>2020-09-06T19:45:41Z</time>
      </trkpt>
      <trkpt lat="47.81376" lon="6.78951">
        <ele>1062.5</ele>
        <time>2020-09-06T19:45:41Z</time>
      </trkpt>
      <trkpt lat="47.81397" lon="6.78961">
        <ele>1065.6</ele>
        <time>2020-09-06T19:45:41Z</time>
      </trkpt>
      <trkpt lat="47.81413" lon="6.78972">
        <ele>1067.1</ele>
        <time>2020-09-06T19:45:41Z</time>
      </trkpt>
      <trkpt lat="47.81438" lon="6.78989">
        <ele>1070.7</ele>
        <time>2020-09-06T19:45:41Z</time>
      </trkpt>
      <trkpt lat="47.81448" lon="6.79">
        <ele>1072.7</ele>
        <time>2020-09-06T19:45:41Z</time>
      </trkpt>
      <trkpt lat="47.81455" lon="6.7901">
        <ele>1072.2</ele>
        <time>2020-09-06T19:45:41Z</time>
      </trkpt>
      <trkpt lat="47.8146" lon="6.7903">
        <ele>1069.8</ele>
        <time>2020-09-06T19:45:41Z</time>
      </trkpt>
      <trkpt lat="47.81466" lon="6.79049">
        <ele>1072.1</ele>
        <time>2020-09-06T19:45:41Z</time>
      </trkpt>
      <trkpt lat="47.81476" lon="6.79065">
        <ele>1073.7</ele>
        <time>2020-09-06T19:45:41Z</time>
      </trkpt>
      <trkpt lat="47.81486" lon="6.79079">
        <ele>1075.6</ele>
        <time>2020-09-06T19:45:41Z</time>
      </trkpt>
      <trkpt lat="47.81497" lon="6.79103">
        <ele>1077.9</ele>
        <time>2020-09-06T19:45:41Z</time>
      </trkpt>
      <trkpt lat="47.81501" lon="6.79123">
        <ele>1077.6</ele>
        <time>2020-09-06T19:45:41Z</time>
      </trkpt>
      <trkpt lat="47.81504" lon="6.79149">
        <ele>1078.8</ele>
        <time>2020-09-06T19:45:41Z</time>
      </trkpt>
      <trkpt lat="47.81514" lon="6.79189">
        <ele>1080.6</ele>
        <time>2020-09-06T19:45:41Z</time>
      </trkpt>
      <trkpt lat="47.81524" lon="6.79214">
        <ele>1081.6</ele>
        <time>2020-09-06T19:45:41Z</time>
      </trkpt>
      <trkpt lat="47.81543" lon="6.79239">
        <ele>1087</ele>
        <time>2020-09-06T19:45:41Z</time>
      </trkpt>
      <trkpt lat="47.81561" lon="6.79266">
        <ele>1089.7</ele>
        <time>2020-09-06T19:45:41Z</time>
      </trkpt>
      <trkpt lat="47.8158" lon="6.79288">
        <ele>1091.3</ele>
        <time>2020-09-06T19:45:41Z</time>
      </trkpt>
      <trkpt lat="47.81597" lon="6.79302">
        <ele>1093.4</ele>
        <time>2020-09-06T19:45:41Z</time>
      </trkpt>
      <trkpt lat="47.81612" lon="6.79311">
        <ele>1095.6</ele>
        <time>2020-09-06T19:45:41Z</time>
      </trkpt>
      <trkpt lat="47.81638" lon="6.7932">
        <ele>1097.2</ele>
        <time>2020-09-06T19:45:41Z</time>
      </trkpt>
      <trkpt lat="47.81675" lon="6.7933">
        <ele>1101.7</ele>
        <time>2020-09-06T19:45:41Z</time>
      </trkpt>
      <trkpt lat="47.81718" lon="6.79345">
        <ele>1105.7</ele>
        <time>2020-09-06T19:45:41Z</time>
      </trkpt>
      <trkpt lat="47.81755" lon="6.7936">
        <ele>1106.5</ele>
        <time>2020-09-06T19:45:41Z</time>
      </trkpt>
      <trkpt lat="47.81784" lon="6.79373">
        <ele>1109.2</ele>
        <time>2020-09-06T19:45:41Z</time>
      </trkpt>
      <trkpt lat="47.818" lon="6.79388">
        <ele>1111.1</ele>
        <time>2020-09-06T19:45:41Z</time>
      </trkpt>
      <trkpt lat="47.81816" lon="6.79414">
        <ele>1110.8</ele>
        <time>2020-09-06T19:45:41Z</time>
      </trkpt>
      <trkpt lat="47.81837" lon="6.79446">
        <ele>1111.6</ele>
        <time>2020-09-06T19:45:41Z</time>
      </trkpt>
      <trkpt lat="47.81848" lon="6.79457">
        <ele>1113.6</ele>
        <time>2020-09-06T19:45:41Z</time>
      </trkpt>
      <trkpt lat="47.81856" lon="6.79463">
        <ele>1113.6</ele>
        <time>2020-09-06T19:45:41Z</time>
      </trkpt>
      <trkpt lat="47.81864" lon="6.79464">
        <ele>1114.4</ele>
        <time>2020-09-06T19:45:41Z</time>
      </trkpt>
      <trkpt lat="47.81871" lon="6.7946">
        <ele>1115.3</ele>
        <time>2020-09-06T19:45:41Z</time>
      </trkpt>
      <trkpt lat="47.8188" lon="6.79454">
        <ele>1116.1</ele>
        <time>2020-09-06T19:45:41Z</time>
      </trkpt>
      <trkpt lat="47.81888" lon="6.79453">
        <ele>1116.3</ele>
        <time>2020-09-06T19:45:41Z</time>
      </trkpt>
      <trkpt lat="47.81896" lon="6.79456">
        <ele>1116.7</ele>
        <time>2020-09-06T19:45:41Z</time>
      </trkpt>
      <trkpt lat="47.81906" lon="6.79462">
        <ele>1115.4</ele>
        <time>2020-09-06T19:45:41Z</time>
      </trkpt>
      <trkpt lat="47.81917" lon="6.79469">
        <ele>1115.1</ele>
        <time>2020-09-06T19:45:41Z</time>
      </trkpt>
      <trkpt lat="47.81928" lon="6.7947">
        <ele>1115.9</ele>
        <time>2020-09-06T19:45:41Z</time>
      </trkpt>
      <trkpt lat="47.81949" lon="6.79468">
        <ele>1116.2</ele>
        <time>2020-09-06T19:45:41Z</time>
      </trkpt>
      <trkpt lat="47.81965" lon="6.79464">
        <ele>1115.8</ele>
        <time>2020-09-06T19:45:41Z</time>
      </trkpt>
      <trkpt lat="47.81976" lon="6.79459">
        <ele>1114.3</ele>
        <time>2020-09-06T19:45:41Z</time>
      </trkpt>
      <trkpt lat="47.81991" lon="6.79446">
        <ele>1114.1</ele>
        <time>2020-09-06T19:45:41Z</time>
      </trkpt>
      <trkpt lat="47.82001" lon="6.79427">
        <ele>1117.2</ele>
        <time>2020-09-06T19:45:41Z</time>
      </trkpt>
      <trkpt lat="47.82009" lon="6.7941">
        <ele>1117.7</ele>
        <time>2020-09-06T19:45:41Z</time>
      </trkpt>
      <trkpt lat="47.82025" lon="6.7938">
        <ele>1120.2</ele>
        <time>2020-09-06T19:45:41Z</time>
      </trkpt>
      <trkpt lat="47.82034" lon="6.79366">
        <ele>1120.6</ele>
        <time>2020-09-06T19:45:41Z</time>
      </trkpt>
      <trkpt lat="47.82041" lon="6.79355">
        <ele>1120.2</ele>
        <time>2020-09-06T19:45:41Z</time>
      </trkpt>
      <trkpt lat="47.82057" lon="6.79361">
        <ele>1119.9</ele>
        <time>2020-09-06T19:45:41Z</time>
      </trkpt>
      <trkpt lat="47.82072" lon="6.79368">
        <ele>1119.9</ele>
        <time>2020-09-06T19:45:41Z</time>
      </trkpt>
      <trkpt lat="47.82082" lon="6.79366">
        <ele>1120.3</ele>
        <time>2020-09-06T19:45:41Z</time>
      </trkpt>
      <trkpt lat="47.82094" lon="6.79357">
        <ele>1120.6</ele>
        <time>2020-09-06T19:45:41Z</time>
      </trkpt>
      <trkpt lat="47.82105" lon="6.7935">
        <ele>1121.6</ele>
        <time>2020-09-06T19:45:41Z</time>
      </trkpt>
      <trkpt lat="47.82116" lon="6.79338">
        <ele>1122.4</ele>
        <time>2020-09-06T19:45:41Z</time>
      </trkpt>
      <trkpt lat="47.82126" lon="6.79318">
        <ele>1123.4</ele>
        <time>2020-09-06T19:45:41Z</time>
      </trkpt>
      <trkpt lat="47.82141" lon="6.79303">
        <ele>1125.2</ele>
        <time>2020-09-06T19:45:41Z</time>
      </trkpt>
      <trkpt lat="47.82163" lon="6.79288">
        <ele>1127</ele>
        <time>2020-09-06T19:45:41Z</time>
      </trkpt>
      <trkpt lat="47.82185" lon="6.79276">
        <ele>1129.4</ele>
        <time>2020-09-06T19:45:41Z</time>
      </trkpt>
      <trkpt lat="47.82207" lon="6.79262">
        <ele>1130.9</ele>
        <time>2020-09-06T19:45:41Z</time>
      </trkpt>
      <trkpt lat="47.82218" lon="6.79254">
        <ele>1131.6</ele>
        <time>2020-09-06T19:45:41Z</time>
      </trkpt>
      <trkpt lat="47.82223" lon="6.7924">
        <ele>1132.3</ele>
        <time>2020-09-06T19:45:41Z</time>
      </trkpt>
      <trkpt lat="47.82225" lon="6.79216">
        <ele>1134.1</ele>
        <time>2020-09-06T19:45:41Z</time>
      </trkpt>
      <trkpt lat="47.82226" lon="6.79203">
        <ele>1134.6</ele>
        <time>2020-09-06T19:45:41Z</time>
      </trkpt>
      <trkpt lat="47.82229" lon="6.79174">
        <ele>1136.7</ele>
        <time>2020-09-06T19:45:41Z</time>
      </trkpt>
      <trkpt lat="47.82233" lon="6.79149">
        <ele>1137.9</ele>
        <time>2020-09-06T19:45:41Z</time>
      </trkpt>
      <trkpt lat="47.82238" lon="6.79134">
        <ele>1138.9</ele>
        <time>2020-09-06T19:45:41Z</time>
      </trkpt>
      <trkpt lat="47.82251" lon="6.7911">
        <ele>1141.9</ele>
        <time>2020-09-06T19:45:41Z</time>
      </trkpt>
      <trkpt lat="47.82259" lon="6.79084">
        <ele>1144</ele>
        <time>2020-09-06T19:45:41Z</time>
      </trkpt>
      <trkpt lat="47.8226" lon="6.79033">
        <ele>1146.3</ele>
        <time>2020-09-06T19:45:41Z</time>
      </trkpt>
      <trkpt lat="47.82251" lon="6.78953">
        <ele>1149.9</ele>
        <time>2020-09-06T19:45:41Z</time>
      </trkpt>
      <trkpt lat="47.82252" lon="6.78919">
        <ele>1151.6</ele>
        <time>2020-09-06T19:45:41Z</time>
      </trkpt>
      <trkpt lat="47.82253" lon="6.78886">
        <ele>1152.6</ele>
        <time>2020-09-06T19:45:41Z</time>
      </trkpt>
      <trkpt lat="47.82252" lon="6.78856">
        <ele>1154.1</ele>
        <time>2020-09-06T19:45:41Z</time>
      </trkpt>
      <trkpt lat="47.82255" lon="6.78809">
        <ele>1157.1</ele>
        <time>2020-09-06T19:45:41Z</time>
      </trkpt>
      <trkpt lat="47.82261" lon="6.78784">
        <ele>1157.3</ele>
        <time>2020-09-06T19:45:41Z</time>
      </trkpt>
      <trkpt lat="47.82265" lon="6.78772">
        <ele>1157.5</ele>
        <time>2020-09-06T19:45:41Z</time>
      </trkpt>
      <trkpt lat="47.82262" lon="6.78765">
        <ele>1156.3</ele>
        <time>2020-09-06T19:45:41Z</time>
      </trkpt>
      <trkpt lat="47.82258" lon="6.78755">
        <ele>1155.2</ele>
        <time>2020-09-06T19:45:41Z</time>
      </trkpt>
      <trkpt lat="47.82256" lon="6.78747">
        <ele>1154.8</ele>
        <time>2020-09-06T19:45:41Z</time>
      </trkpt>
      <trkpt lat="47.82254" lon="6.78738">
        <ele>1153.7</ele>
        <time>2020-09-06T19:45:41Z</time>
      </trkpt>
      <trkpt lat="47.82253" lon="6.78727">
        <ele>1153.1</ele>
        <time>2020-09-06T19:45:41Z</time>
      </trkpt>
      <trkpt lat="47.82255" lon="6.78714">
        <ele>1153.1</ele>
        <time>2020-09-06T19:45:41Z</time>
      </trkpt>
      <trkpt lat="47.82259" lon="6.78704">
        <ele>1152.9</ele>
        <time>2020-09-06T19:45:41Z</time>
      </trkpt>
      <trkpt lat="47.82265" lon="6.78696">
        <ele>1152.5</ele>
        <time>2020-09-06T19:45:41Z</time>
      </trkpt>
      <trkpt lat="47.82271" lon="6.78691">
        <ele>1152.3</ele>
        <time>2020-09-06T19:45:41Z</time>
      </trkpt>
      <trkpt lat="47.82279" lon="6.78691">
        <ele>1152.5</ele>
        <time>2020-09-06T19:45:41Z</time>
      </trkpt>
      <trkpt lat="47.82287" lon="6.78695">
        <ele>1151.9</ele>
        <time>2020-09-06T19:45:41Z</time>
      </trkpt>
      <trkpt lat="47.82296" lon="6.78703">
        <ele>1151.8</ele>
        <time>2020-09-06T19:45:41Z</time>
      </trkpt>
      <trkpt lat="47.82316" lon="6.78726">
        <ele>1150.3</ele>
        <time>2020-09-06T19:45:41Z</time>
      </trkpt>
      <trkpt lat="47.82346" lon="6.78757">
        <ele>1147.9</ele>
        <time>2020-09-06T19:45:41Z</time>
      </trkpt>
      <trkpt lat="47.82361" lon="6.78774">
        <ele>1148.2</ele>
        <time>2020-09-06T19:45:41Z</time>
      </trkpt>
      <trkpt lat="47.82375" lon="6.78782">
        <ele>1146.5</ele>
        <time>2020-09-06T19:45:41Z</time>
      </trkpt>
      <trkpt lat="47.8239" lon="6.78786">
        <ele>1145.2</ele>
        <time>2020-09-06T19:45:41Z</time>
      </trkpt>
      <trkpt lat="47.82398" lon="6.78787">
        <ele>1144.2</ele>
        <time>2020-09-06T19:45:41Z</time>
      </trkpt>
      <trkpt lat="47.8241" lon="6.78787">
        <ele>1142.7</ele>
        <time>2020-09-06T19:45:41Z</time>
      </trkpt>
      <trkpt lat="47.82424" lon="6.78784">
        <ele>1142</ele>
        <time>2020-09-06T19:45:41Z</time>
      </trkpt>
      <trkpt lat="47.82435" lon="6.78779">
        <ele>1139.2</ele>
        <time>2020-09-06T19:45:41Z</time>
      </trkpt>
      <trkpt lat="47.82455" lon="6.78773">
        <ele>1138.1</ele>
        <time>2020-09-06T19:45:41Z</time>
      </trkpt>
      <trkpt lat="47.82488" lon="6.78762">
        <ele>1136.6</ele>
        <time>2020-09-06T19:45:41Z</time>
      </trkpt>
      <trkpt lat="47.82519" lon="6.78754">
        <ele>1133.6</ele>
        <time>2020-09-06T19:45:41Z</time>
      </trkpt>
      <trkpt lat="47.82543" lon="6.78749">
        <ele>1129.6</ele>
        <time>2020-09-06T19:45:41Z</time>
      </trkpt>
      <trkpt lat="47.82576" lon="6.78745">
        <ele>1128.6</ele>
        <time>2020-09-06T19:45:41Z</time>
      </trkpt>
      <trkpt lat="47.82592" lon="6.78742">
        <ele>1127.6</ele>
        <time>2020-09-06T19:45:41Z</time>
      </trkpt>
      <trkpt lat="47.82598" lon="6.78741">
        <ele>1128.4</ele>
        <time>2020-09-06T19:45:41Z</time>
      </trkpt>
      <trkpt lat="47.82605" lon="6.78736">
        <ele>1126.9</ele>
        <time>2020-09-06T19:45:41Z</time>
      </trkpt>
      <trkpt lat="47.8261" lon="6.78729">
        <ele>1126.6</ele>
        <time>2020-09-06T19:45:41Z</time>
      </trkpt>
      <trkpt lat="47.82614" lon="6.7872">
        <ele>1125.7</ele>
        <time>2020-09-06T19:45:41Z</time>
      </trkpt>
      <trkpt lat="47.82617" lon="6.78707">
        <ele>1124.6</ele>
        <time>2020-09-06T19:45:41Z</time>
      </trkpt>
      <trkpt lat="47.82618" lon="6.78687">
        <ele>1121.6</ele>
        <time>2020-09-06T19:45:41Z</time>
      </trkpt>
      <trkpt lat="47.82619" lon="6.78666">
        <ele>1119.1</ele>
        <time>2020-09-06T19:45:41Z</time>
      </trkpt>
      <trkpt lat="47.8262" lon="6.78639">
        <ele>1119.2</ele>
        <time>2020-09-06T19:45:41Z</time>
      </trkpt>
      <trkpt lat="47.82621" lon="6.7863">
        <ele>1118.5</ele>
        <time>2020-09-06T19:45:41Z</time>
      </trkpt>
      <trkpt lat="47.82624" lon="6.78607">
        <ele>1118.1</ele>
        <time>2020-09-06T19:45:41Z</time>
      </trkpt>
      <trkpt lat="47.82628" lon="6.78574">
        <ele>1116.5</ele>
        <time>2020-09-06T19:45:41Z</time>
      </trkpt>
      <trkpt lat="47.82634" lon="6.78528">
        <ele>1111.4</ele>
        <time>2020-09-06T19:45:41Z</time>
      </trkpt>
      <trkpt lat="47.8264" lon="6.78488">
        <ele>1106.8</ele>
        <time>2020-09-06T19:45:41Z</time>
      </trkpt>
      <trkpt lat="47.82642" lon="6.78478">
        <ele>1106.8</ele>
        <time>2020-09-06T19:45:41Z</time>
      </trkpt>
      <trkpt lat="47.82643" lon="6.7847">
        <ele>1105.6</ele>
        <time>2020-09-06T19:45:41Z</time>
      </trkpt>
      <trkpt lat="47.82647" lon="6.78456">
        <ele>1104.1</ele>
        <time>2020-09-06T19:45:41Z</time>
      </trkpt>
      <trkpt lat="47.82652" lon="6.78449">
        <ele>1103.8</ele>
        <time>2020-09-06T19:45:41Z</time>
      </trkpt>
      <trkpt lat="47.82656" lon="6.78444">
        <ele>1102.2</ele>
        <time>2020-09-06T19:45:41Z</time>
      </trkpt>
      <trkpt lat="47.82664" lon="6.78441">
        <ele>1102.9</ele>
        <time>2020-09-06T19:45:41Z</time>
      </trkpt>
      <trkpt lat="47.82672" lon="6.7844">
        <ele>1101.4</ele>
        <time>2020-09-06T19:45:41Z</time>
      </trkpt>
      <trkpt lat="47.8268" lon="6.78443">
        <ele>1101.4</ele>
        <time>2020-09-06T19:45:41Z</time>
      </trkpt>
      <trkpt lat="47.82687" lon="6.78449">
        <ele>1103.8</ele>
        <time>2020-09-06T19:45:41Z</time>
      </trkpt>
      <trkpt lat="47.82692" lon="6.78453">
        <ele>1104.2</ele>
        <time>2020-09-06T19:45:41Z</time>
      </trkpt>
      <trkpt lat="47.82701" lon="6.78456">
        <ele>1102.8</ele>
        <time>2020-09-06T19:45:41Z</time>
      </trkpt>
      <trkpt lat="47.8271" lon="6.78458">
        <ele>1103.2</ele>
        <time>2020-09-06T19:45:41Z</time>
      </trkpt>
      <trkpt lat="47.8272" lon="6.78457">
        <ele>1100.5</ele>
        <time>2020-09-06T19:45:41Z</time>
      </trkpt>
      <trkpt lat="47.82743" lon="6.78452">
        <ele>1097.1</ele>
        <time>2020-09-06T19:45:41Z</time>
      </trkpt>
      <trkpt lat="47.82767" lon="6.78448">
        <ele>1094.2</ele>
        <time>2020-09-06T19:45:41Z</time>
      </trkpt>
      <trkpt lat="47.82784" lon="6.78445">
        <ele>1092.9</ele>
        <time>2020-09-06T19:45:41Z</time>
      </trkpt>
      <trkpt lat="47.82793" lon="6.78445">
        <ele>1091.8</ele>
        <time>2020-09-06T19:45:41Z</time>
      </trkpt>
      <trkpt lat="47.82802" lon="6.78445">
        <ele>1090.7</ele>
        <time>2020-09-06T19:45:41Z</time>
      </trkpt>
      <trkpt lat="47.82812" lon="6.78449">
        <ele>1090.3</ele>
        <time>2020-09-06T19:45:41Z</time>
      </trkpt>
      <trkpt lat="47.82824" lon="6.78454">
        <ele>1088.9</ele>
        <time>2020-09-06T19:45:41Z</time>
      </trkpt>
      <trkpt lat="47.82839" lon="6.78463">
        <ele>1087.3</ele>
        <time>2020-09-06T19:45:41Z</time>
      </trkpt>
      <trkpt lat="47.82856" lon="6.78471">
        <ele>1085.3</ele>
        <time>2020-09-06T19:45:41Z</time>
      </trkpt>
      <trkpt lat="47.82892" lon="6.78493">
        <ele>1082.4</ele>
        <time>2020-09-06T19:45:41Z</time>
      </trkpt>
      <trkpt lat="47.82921" lon="6.78511">
        <ele>1079.9</ele>
        <time>2020-09-06T19:45:41Z</time>
      </trkpt>
      <trkpt lat="47.82927" lon="6.78514">
        <ele>1080.7</ele>
        <time>2020-09-06T19:45:41Z</time>
      </trkpt>
      <trkpt lat="47.82933" lon="6.78514">
        <ele>1079.3</ele>
        <time>2020-09-06T19:45:41Z</time>
      </trkpt>
      <trkpt lat="47.82938" lon="6.78513">
        <ele>1079.2</ele>
        <time>2020-09-06T19:45:41Z</time>
      </trkpt>
      <trkpt lat="47.82944" lon="6.78511">
        <ele>1078.2</ele>
        <time>2020-09-06T19:45:41Z</time>
      </trkpt>
      <trkpt lat="47.82952" lon="6.78505">
        <ele>1077.9</ele>
        <time>2020-09-06T19:45:41Z</time>
      </trkpt>
      <trkpt lat="47.8297" lon="6.78488">
        <ele>1076.3</ele>
        <time>2020-09-06T19:45:41Z</time>
      </trkpt>
      <trkpt lat="47.83004" lon="6.78456">
        <ele>1070.1</ele>
        <time>2020-09-06T19:45:41Z</time>
      </trkpt>
      <trkpt lat="47.83033" lon="6.78429">
        <ele>1067.4</ele>
        <time>2020-09-06T19:45:41Z</time>
      </trkpt>
      <trkpt lat="47.83043" lon="6.78421">
        <ele>1065.7</ele>
        <time>2020-09-06T19:45:41Z</time>
      </trkpt>
      <trkpt lat="47.83052" lon="6.78414">
        <ele>1063.9</ele>
        <time>2020-09-06T19:45:41Z</time>
      </trkpt>
      <trkpt lat="47.83062" lon="6.78409">
        <ele>1063.1</ele>
        <time>2020-09-06T19:45:41Z</time>
      </trkpt>
      <trkpt lat="47.83084" lon="6.78402">
        <ele>1061.7</ele>
        <time>2020-09-06T19:45:41Z</time>
      </trkpt>
      <trkpt lat="47.83115" lon="6.78393">
        <ele>1058</ele>
        <time>2020-09-06T19:45:41Z</time>
      </trkpt>
      <trkpt lat="47.83137" lon="6.78388">
        <ele>1055.9</ele>
        <time>2020-09-06T19:45:41Z</time>
      </trkpt>
      <trkpt lat="47.83146" lon="6.78386">
        <ele>1056.7</ele>
        <time>2020-09-06T19:45:41Z</time>
      </trkpt>
      <trkpt lat="47.83167" lon="6.78381">
        <ele>1056.1</ele>
        <time>2020-09-06T19:45:41Z</time>
      </trkpt>
      <trkpt lat="47.83176" lon="6.78379">
        <ele>1054.3</ele>
        <time>2020-09-06T19:45:41Z</time>
      </trkpt>
      <trkpt lat="47.83185" lon="6.78379">
        <ele>1053.8</ele>
        <time>2020-09-06T19:45:41Z</time>
      </trkpt>
      <trkpt lat="47.83195" lon="6.78381">
        <ele>1053.9</ele>
        <time>2020-09-06T19:45:41Z</time>
      </trkpt>
      <trkpt lat="47.8321" lon="6.78387">
        <ele>1053.5</ele>
        <time>2020-09-06T19:45:41Z</time>
      </trkpt>
      <trkpt lat="47.8323" lon="6.784">
        <ele>1053.3</ele>
        <time>2020-09-06T19:45:41Z</time>
      </trkpt>
      <trkpt lat="47.83248" lon="6.78414">
        <ele>1052.3</ele>
        <time>2020-09-06T19:45:41Z</time>
      </trkpt>
      <trkpt lat="47.83266" lon="6.78435">
        <ele>1051.2</ele>
        <time>2020-09-06T19:45:41Z</time>
      </trkpt>
      <trkpt lat="47.83281" lon="6.78453">
        <ele>1049.8</ele>
        <time>2020-09-06T19:45:41Z</time>
      </trkpt>
      <trkpt lat="47.83289" lon="6.78458">
        <ele>1049.2</ele>
        <time>2020-09-06T19:45:41Z</time>
      </trkpt>
      <trkpt lat="47.83298" lon="6.78461">
        <ele>1047.7</ele>
        <time>2020-09-06T19:45:41Z</time>
      </trkpt>
      <trkpt lat="47.83304" lon="6.78461">
        <ele>1047.8</ele>
        <time>2020-09-06T19:45:41Z</time>
      </trkpt>
      <trkpt lat="47.83314" lon="6.78456">
        <ele>1046.9</ele>
        <time>2020-09-06T19:45:41Z</time>
      </trkpt>
      <trkpt lat="47.83331" lon="6.78443">
        <ele>1044.9</ele>
        <time>2020-09-06T19:45:41Z</time>
      </trkpt>
      <trkpt lat="47.83341" lon="6.78433">
        <ele>1045.1</ele>
        <time>2020-09-06T19:45:41Z</time>
      </trkpt>
      <trkpt lat="47.83353" lon="6.78417">
        <ele>1043</ele>
        <time>2020-09-06T19:45:41Z</time>
      </trkpt>
      <trkpt lat="47.83364" lon="6.78398">
        <ele>1041.1</ele>
        <time>2020-09-06T19:45:41Z</time>
      </trkpt>
      <trkpt lat="47.83373" lon="6.7838">
        <ele>1039.5</ele>
        <time>2020-09-06T19:45:41Z</time>
      </trkpt>
      <trkpt lat="47.83381" lon="6.7836">
        <ele>1038.3</ele>
        <time>2020-09-06T19:45:41Z</time>
      </trkpt>
      <trkpt lat="47.83387" lon="6.7834">
        <ele>1036.1</ele>
        <time>2020-09-06T19:45:41Z</time>
      </trkpt>
      <trkpt lat="47.83392" lon="6.78317">
        <ele>1036.2</ele>
        <time>2020-09-06T19:45:41Z</time>
      </trkpt>
      <trkpt lat="47.83393" lon="6.78307">
        <ele>1034.5</ele>
        <time>2020-09-06T19:45:41Z</time>
      </trkpt>
      <trkpt lat="47.83397" lon="6.78287">
        <ele>1033.9</ele>
        <time>2020-09-06T19:45:41Z</time>
      </trkpt>
      <trkpt lat="47.83402" lon="6.78255">
        <ele>1031.4</ele>
        <time>2020-09-06T19:45:41Z</time>
      </trkpt>
      <trkpt lat="47.83404" lon="6.78233">
        <ele>1029.2</ele>
        <time>2020-09-06T19:45:41Z</time>
      </trkpt>
      <trkpt lat="47.83405" lon="6.7821">
        <ele>1029</ele>
        <time>2020-09-06T19:45:41Z</time>
      </trkpt>
      <trkpt lat="47.83405" lon="6.78192">
        <ele>1028.1</ele>
        <time>2020-09-06T19:45:41Z</time>
      </trkpt>
      <trkpt lat="47.83401" lon="6.7817">
        <ele>1026.5</ele>
        <time>2020-09-06T19:45:41Z</time>
      </trkpt>
      <trkpt lat="47.83395" lon="6.78144">
        <ele>1024</ele>
        <time>2020-09-06T19:45:41Z</time>
      </trkpt>
      <trkpt lat="47.83386" lon="6.78119">
        <ele>1021.7</ele>
        <time>2020-09-06T19:45:41Z</time>
      </trkpt>
      <trkpt lat="47.83377" lon="6.78096">
        <ele>1019.6</ele>
        <time>2020-09-06T19:45:41Z</time>
      </trkpt>
      <trkpt lat="47.83361" lon="6.78053">
        <ele>1016.1</ele>
        <time>2020-09-06T19:45:41Z</time>
      </trkpt>
      <trkpt lat="47.83345" lon="6.7801">
        <ele>1014.7</ele>
        <time>2020-09-06T19:45:41Z</time>
      </trkpt>
      <trkpt lat="47.83326" lon="6.77961">
        <ele>1011.2</ele>
        <time>2020-09-06T19:45:41Z</time>
      </trkpt>
      <trkpt lat="47.83313" lon="6.77928">
        <ele>1008.8</ele>
        <time>2020-09-06T19:45:41Z</time>
      </trkpt>
      <trkpt lat="47.83306" lon="6.7791">
        <ele>1007.9</ele>
        <time>2020-09-06T19:45:41Z</time>
      </trkpt>
      <trkpt lat="47.83301" lon="6.77895">
        <ele>1005.3</ele>
        <time>2020-09-06T19:45:41Z</time>
      </trkpt>
      <trkpt lat="47.83298" lon="6.77882">
        <ele>1005.9</ele>
        <time>2020-09-06T19:45:41Z</time>
      </trkpt>
      <trkpt lat="47.83298" lon="6.77875">
        <ele>1006</ele>
        <time>2020-09-06T19:45:41Z</time>
      </trkpt>
      <trkpt lat="47.83299" lon="6.77866">
        <ele>1005.7</ele>
        <time>2020-09-06T19:45:41Z</time>
      </trkpt>
      <trkpt lat="47.83301" lon="6.77859">
        <ele>1005.4</ele>
        <time>2020-09-06T19:45:41Z</time>
      </trkpt>
      <trkpt lat="47.83306" lon="6.77852">
        <ele>1006.4</ele>
        <time>2020-09-06T19:45:41Z</time>
      </trkpt>
      <trkpt lat="47.83312" lon="6.77848">
        <ele>1006.9</ele>
        <time>2020-09-06T19:45:41Z</time>
      </trkpt>
      <trkpt lat="47.8332" lon="6.77847">
        <ele>1007.1</ele>
        <time>2020-09-06T19:45:41Z</time>
      </trkpt>
      <trkpt lat="47.83329" lon="6.77849">
        <ele>1007.1</ele>
        <time>2020-09-06T19:45:41Z</time>
      </trkpt>
      <trkpt lat="47.83334" lon="6.77856">
        <ele>1007.4</ele>
        <time>2020-09-06T19:45:41Z</time>
      </trkpt>
      <trkpt lat="47.83347" lon="6.77881">
        <ele>1009.3</ele>
        <time>2020-09-06T19:45:41Z</time>
      </trkpt>
      <trkpt lat="47.83354" lon="6.77893">
        <ele>1009.1</ele>
        <time>2020-09-06T19:45:41Z</time>
      </trkpt>
      <trkpt lat="47.8336" lon="6.77899">
        <ele>1008.8</ele>
        <time>2020-09-06T19:45:41Z</time>
      </trkpt>
      <trkpt lat="47.83366" lon="6.77907">
        <ele>1008.1</ele>
        <time>2020-09-06T19:45:41Z</time>
      </trkpt>
      <trkpt lat="47.83377" lon="6.77916">
        <ele>1007.3</ele>
        <time>2020-09-06T19:45:41Z</time>
      </trkpt>
      <trkpt lat="47.83385" lon="6.77924">
        <ele>1006.6</ele>
        <time>2020-09-06T19:45:41Z</time>
      </trkpt>
      <trkpt lat="47.83398" lon="6.77936">
        <ele>1005.1</ele>
        <time>2020-09-06T19:45:41Z</time>
      </trkpt>
      <trkpt lat="47.83406" lon="6.77948">
        <ele>1004.4</ele>
        <time>2020-09-06T19:45:41Z</time>
      </trkpt>
      <trkpt lat="47.83415" lon="6.77965">
        <ele>1003.2</ele>
        <time>2020-09-06T19:45:41Z</time>
      </trkpt>
      <trkpt lat="47.83439" lon="6.78023">
        <ele>999.3</ele>
        <time>2020-09-06T19:45:41Z</time>
      </trkpt>
      <trkpt lat="47.8345" lon="6.78045">
        <ele>999.6</ele>
        <time>2020-09-06T19:45:41Z</time>
      </trkpt>
      <trkpt lat="47.83461" lon="6.78062">
        <ele>997</ele>
        <time>2020-09-06T19:45:41Z</time>
      </trkpt>
      <trkpt lat="47.83476" lon="6.78084">
        <ele>996.8</ele>
        <time>2020-09-06T19:45:41Z</time>
      </trkpt>
      <trkpt lat="47.83488" lon="6.78102">
        <ele>995</ele>
        <time>2020-09-06T19:45:41Z</time>
      </trkpt>
      <trkpt lat="47.83497" lon="6.78117">
        <ele>994.6</ele>
        <time>2020-09-06T19:45:41Z</time>
      </trkpt>
      <trkpt lat="47.83516" lon="6.78138">
        <ele>991.1</ele>
        <time>2020-09-06T19:45:41Z</time>
      </trkpt>
      <trkpt lat="47.83532" lon="6.7815">
        <ele>988.7</ele>
        <time>2020-09-06T19:45:41Z</time>
      </trkpt>
      <trkpt lat="47.83543" lon="6.78169">
        <ele>987.2</ele>
        <time>2020-09-06T19:45:41Z</time>
      </trkpt>
      <trkpt lat="47.83561" lon="6.78194">
        <ele>987</ele>
        <time>2020-09-06T19:45:41Z</time>
      </trkpt>
      <trkpt lat="47.83582" lon="6.78212">
        <ele>984.1</ele>
        <time>2020-09-06T19:45:41Z</time>
      </trkpt>
      <trkpt lat="47.836" lon="6.78231">
        <ele>984.5</ele>
        <time>2020-09-06T19:45:41Z</time>
      </trkpt>
      <trkpt lat="47.83639" lon="6.7827">
        <ele>979.2</ele>
        <time>2020-09-06T19:45:41Z</time>
      </trkpt>
      <trkpt lat="47.83655" lon="6.78284">
        <ele>977.9</ele>
        <time>2020-09-06T19:45:41Z</time>
      </trkpt>
      <trkpt lat="47.83667" lon="6.78289">
        <ele>975.9</ele>
        <time>2020-09-06T19:45:41Z</time>
      </trkpt>
      <trkpt lat="47.83685" lon="6.78297">
        <ele>975.3</ele>
        <time>2020-09-06T19:45:41Z</time>
      </trkpt>
      <trkpt lat="47.83704" lon="6.78304">
        <ele>974.8</ele>
        <time>2020-09-06T19:45:41Z</time>
      </trkpt>
      <trkpt lat="47.83714" lon="6.78305">
        <ele>972.9</ele>
        <time>2020-09-06T19:45:41Z</time>
      </trkpt>
      <trkpt lat="47.8372" lon="6.78306">
        <ele>972.5</ele>
        <time>2020-09-06T19:45:41Z</time>
      </trkpt>
      <trkpt lat="47.83728" lon="6.78306">
        <ele>971.7</ele>
        <time>2020-09-06T19:45:41Z</time>
      </trkpt>
      <trkpt lat="47.8374" lon="6.78299">
        <ele>970.2</ele>
        <time>2020-09-06T19:45:41Z</time>
      </trkpt>
      <trkpt lat="47.83757" lon="6.78292">
        <ele>968</ele>
        <time>2020-09-06T19:45:41Z</time>
      </trkpt>
      <trkpt lat="47.83771" lon="6.78287">
        <ele>967.3</ele>
        <time>2020-09-06T19:45:41Z</time>
      </trkpt>
      <trkpt lat="47.83783" lon="6.78279">
        <ele>965.9</ele>
        <time>2020-09-06T19:45:41Z</time>
      </trkpt>
      <trkpt lat="47.83793" lon="6.78271">
        <ele>964.6</ele>
        <time>2020-09-06T19:45:41Z</time>
      </trkpt>
      <trkpt lat="47.83801" lon="6.78259">
        <ele>962.4</ele>
        <time>2020-09-06T19:45:41Z</time>
      </trkpt>
      <trkpt lat="47.83815" lon="6.78235">
        <ele>959.2</ele>
        <time>2020-09-06T19:45:41Z</time>
      </trkpt>
      <trkpt lat="47.83838" lon="6.78195">
        <ele>954.7</ele>
        <time>2020-09-06T19:45:41Z</time>
      </trkpt>
      <trkpt lat="47.83845" lon="6.78183">
        <ele>954</ele>
        <time>2020-09-06T19:45:41Z</time>
      </trkpt>
      <trkpt lat="47.83855" lon="6.78169">
        <ele>951.8</ele>
        <time>2020-09-06T19:45:41Z</time>
      </trkpt>
      <trkpt lat="47.83863" lon="6.78159">
        <ele>950.6</ele>
        <time>2020-09-06T19:45:41Z</time>
      </trkpt>
      <trkpt lat="47.83872" lon="6.78154">
        <ele>950.4</ele>
        <time>2020-09-06T19:45:41Z</time>
      </trkpt>
      <trkpt lat="47.83881" lon="6.78153">
        <ele>949.8</ele>
        <time>2020-09-06T19:45:41Z</time>
      </trkpt>
      <trkpt lat="47.8389" lon="6.78155">
        <ele>949.2</ele>
        <time>2020-09-06T19:45:41Z</time>
      </trkpt>
      <trkpt lat="47.83899" lon="6.78161">
        <ele>948.5</ele>
        <time>2020-09-06T19:45:41Z</time>
      </trkpt>
      <trkpt lat="47.8391" lon="6.78171">
        <ele>948.4</ele>
        <time>2020-09-06T19:45:41Z</time>
      </trkpt>
      <trkpt lat="47.83921" lon="6.78183">
        <ele>947</ele>
        <time>2020-09-06T19:45:41Z</time>
      </trkpt>
      <trkpt lat="47.83938" lon="6.78207">
        <ele>944.4</ele>
        <time>2020-09-06T19:45:41Z</time>
      </trkpt>
      <trkpt lat="47.83948" lon="6.78224">
        <ele>943.1</ele>
        <time>2020-09-06T19:45:41Z</time>
      </trkpt>
      <trkpt lat="47.83959" lon="6.78247">
        <ele>941</ele>
        <time>2020-09-06T19:45:41Z</time>
      </trkpt>
      <trkpt lat="47.83973" lon="6.78281">
        <ele>939.2</ele>
        <time>2020-09-06T19:45:41Z</time>
      </trkpt>
      <trkpt lat="47.83984" lon="6.78306">
        <ele>937.4</ele>
        <time>2020-09-06T19:45:41Z</time>
      </trkpt>
      <trkpt lat="47.83994" lon="6.78334">
        <ele>937</ele>
        <time>2020-09-06T19:45:41Z</time>
      </trkpt>
      <trkpt lat="47.84004" lon="6.78368">
        <ele>936.1</ele>
        <time>2020-09-06T19:45:41Z</time>
      </trkpt>
      <trkpt lat="47.84013" lon="6.78405">
        <ele>935.3</ele>
        <time>2020-09-06T19:45:41Z</time>
      </trkpt>
      <trkpt lat="47.8402" lon="6.78423">
        <ele>935.3</ele>
        <time>2020-09-06T19:45:41Z</time>
      </trkpt>
      <trkpt lat="47.84024" lon="6.78432">
        <ele>935.8</ele>
        <time>2020-09-06T19:45:41Z</time>
      </trkpt>
      <trkpt lat="47.8403" lon="6.78439">
        <ele>935.9</ele>
        <time>2020-09-06T19:45:41Z</time>
      </trkpt>
      <trkpt lat="47.84036" lon="6.78444">
        <ele>935.6</ele>
        <time>2020-09-06T19:45:41Z</time>
      </trkpt>
      <trkpt lat="47.84043" lon="6.78446">
        <ele>935.7</ele>
        <time>2020-09-06T19:45:41Z</time>
      </trkpt>
      <trkpt lat="47.84052" lon="6.78446">
        <ele>934.9</ele>
        <time>2020-09-06T19:45:41Z</time>
      </trkpt>
      <trkpt lat="47.84061" lon="6.78443">
        <ele>933.1</ele>
        <time>2020-09-06T19:45:41Z</time>
      </trkpt>
      <trkpt lat="47.84071" lon="6.78441">
        <ele>932</ele>
        <time>2020-09-06T19:45:41Z</time>
      </trkpt>
      <trkpt lat="47.84081" lon="6.78443">
        <ele>930.9</ele>
        <time>2020-09-06T19:45:41Z</time>
      </trkpt>
      <trkpt lat="47.8409" lon="6.7845">
        <ele>930.9</ele>
        <time>2020-09-06T19:45:41Z</time>
      </trkpt>
      <trkpt lat="47.84096" lon="6.78458">
        <ele>930.3</ele>
        <time>2020-09-06T19:45:41Z</time>
      </trkpt>
      <trkpt lat="47.841" lon="6.78466">
        <ele>930.6</ele>
        <time>2020-09-06T19:45:41Z</time>
      </trkpt>
      <trkpt lat="47.84118" lon="6.78511">
        <ele>932</ele>
        <time>2020-09-06T19:45:41Z</time>
      </trkpt>
      <trkpt lat="47.84135" lon="6.7856">
        <ele>932.3</ele>
        <time>2020-09-06T19:45:41Z</time>
      </trkpt>
      <trkpt lat="47.84147" lon="6.78584">
        <ele>931.8</ele>
        <time>2020-09-06T19:45:41Z</time>
      </trkpt>
      <trkpt lat="47.84159" lon="6.78597">
        <ele>931.7</ele>
        <time>2020-09-06T19:45:41Z</time>
      </trkpt>
      <trkpt lat="47.84185" lon="6.78624">
        <ele>930.2</ele>
        <time>2020-09-06T19:45:41Z</time>
      </trkpt>
      <trkpt lat="47.84204" lon="6.78649">
        <ele>928.8</ele>
        <time>2020-09-06T19:45:41Z</time>
      </trkpt>
      <trkpt lat="47.84216" lon="6.78669">
        <ele>928.6</ele>
        <time>2020-09-06T19:45:41Z</time>
      </trkpt>
      <trkpt lat="47.84222" lon="6.78675">
        <ele>928.3</ele>
        <time>2020-09-06T19:45:41Z</time>
      </trkpt>
      <trkpt lat="47.84232" lon="6.78685">
        <ele>928.3</ele>
        <time>2020-09-06T19:45:41Z</time>
      </trkpt>
      <trkpt lat="47.84251" lon="6.78694">
        <ele>925.6</ele>
        <time>2020-09-06T19:45:41Z</time>
      </trkpt>
      <trkpt lat="47.84269" lon="6.78712">
        <ele>925.1</ele>
        <time>2020-09-06T19:45:41Z</time>
      </trkpt>
      <trkpt lat="47.84292" lon="6.78739">
        <ele>922.8</ele>
        <time>2020-09-06T19:45:41Z</time>
      </trkpt>
      <trkpt lat="47.843" lon="6.78768">
        <ele>923.1</ele>
        <time>2020-09-06T19:45:41Z</time>
      </trkpt>
      <trkpt lat="47.84309" lon="6.78799">
        <ele>924.1</ele>
        <time>2020-09-06T19:45:41Z</time>
      </trkpt>
      <trkpt lat="47.84322" lon="6.78811">
        <ele>922</ele>
        <time>2020-09-06T19:45:41Z</time>
      </trkpt>
      <trkpt lat="47.84342" lon="6.7883">
        <ele>917.8</ele>
        <time>2020-09-06T19:45:41Z</time>
      </trkpt>
      <trkpt lat="47.84365" lon="6.78863">
        <ele>916.3</ele>
        <time>2020-09-06T19:45:41Z</time>
      </trkpt>
      <trkpt lat="47.84384" lon="6.78892">
        <ele>912.9</ele>
        <time>2020-09-06T19:45:41Z</time>
      </trkpt>
      <trkpt lat="47.84406" lon="6.78922">
        <ele>911.3</ele>
        <time>2020-09-06T19:45:41Z</time>
      </trkpt>
      <trkpt lat="47.84428" lon="6.7894">
        <ele>911.4</ele>
        <time>2020-09-06T19:45:41Z</time>
      </trkpt>
      <trkpt lat="47.84442" lon="6.78941">
        <ele>911.9</ele>
        <time>2020-09-06T19:45:41Z</time>
      </trkpt>
      <trkpt lat="47.84454" lon="6.78927">
        <ele>912.3</ele>
        <time>2020-09-06T19:45:41Z</time>
      </trkpt>
      <trkpt lat="47.84462" lon="6.78906">
        <ele>912</ele>
        <time>2020-09-06T19:45:41Z</time>
      </trkpt>
      <trkpt lat="47.84467" lon="6.7889">
        <ele>910.8</ele>
        <time>2020-09-06T19:45:41Z</time>
      </trkpt>
      <trkpt lat="47.84492" lon="6.7886">
        <ele>909.8</ele>
        <time>2020-09-06T19:45:41Z</time>
      </trkpt>
      <trkpt lat="47.84517" lon="6.78825">
        <ele>910</ele>
        <time>2020-09-06T19:45:41Z</time>
      </trkpt>
      <trkpt lat="47.84528" lon="6.78817">
        <ele>911.1</ele>
        <time>2020-09-06T19:45:41Z</time>
      </trkpt>
      <trkpt lat="47.84537" lon="6.78814">
        <ele>911.7</ele>
        <time>2020-09-06T19:45:41Z</time>
      </trkpt>
      <trkpt lat="47.84544" lon="6.78815">
        <ele>912.4</ele>
        <time>2020-09-06T19:45:41Z</time>
      </trkpt>
      <trkpt lat="47.84568" lon="6.78828">
        <ele>911.4</ele>
        <time>2020-09-06T19:45:41Z</time>
      </trkpt>
      <trkpt lat="47.84573" lon="6.78831">
        <ele>910.7</ele>
        <time>2020-09-06T19:45:41Z</time>
      </trkpt>
      <trkpt lat="47.84589" lon="6.78837">
        <ele>909.4</ele>
        <time>2020-09-06T19:45:41Z</time>
      </trkpt>
      <trkpt lat="47.84604" lon="6.78841">
        <ele>907.8</ele>
        <time>2020-09-06T19:45:41Z</time>
      </trkpt>
      <trkpt lat="47.84613" lon="6.78843">
        <ele>907.1</ele>
        <time>2020-09-06T19:45:41Z</time>
      </trkpt>
      <trkpt lat="47.84631" lon="6.78842">
        <ele>905.4</ele>
        <time>2020-09-06T19:45:41Z</time>
      </trkpt>
      <trkpt lat="47.84648" lon="6.78841">
        <ele>903.6</ele>
        <time>2020-09-06T19:45:41Z</time>
      </trkpt>
      <trkpt lat="47.84663" lon="6.78837">
        <ele>902.7</ele>
        <time>2020-09-06T19:45:41Z</time>
      </trkpt>
      <trkpt lat="47.84675" lon="6.78833">
        <ele>902.3</ele>
        <time>2020-09-06T19:45:41Z</time>
      </trkpt>
      <trkpt lat="47.84688" lon="6.78827">
        <ele>901.6</ele>
        <time>2020-09-06T19:45:41Z</time>
      </trkpt>
      <trkpt lat="47.84703" lon="6.78818">
        <ele>901.5</ele>
        <time>2020-09-06T19:45:41Z</time>
      </trkpt>
      <trkpt lat="47.84716" lon="6.78805">
        <ele>901.6</ele>
        <time>2020-09-06T19:45:41Z</time>
      </trkpt>
      <trkpt lat="47.8473" lon="6.78791">
        <ele>902.2</ele>
        <time>2020-09-06T19:45:41Z</time>
      </trkpt>
      <trkpt lat="47.84743" lon="6.78776">
        <ele>901.7</ele>
        <time>2020-09-06T19:45:41Z</time>
      </trkpt>
      <trkpt lat="47.84752" lon="6.78761">
        <ele>901.8</ele>
        <time>2020-09-06T19:45:41Z</time>
      </trkpt>
      <trkpt lat="47.84766" lon="6.78738">
        <ele>901.6</ele>
        <time>2020-09-06T19:45:41Z</time>
      </trkpt>
      <trkpt lat="47.84778" lon="6.78715">
        <ele>901</ele>
        <time>2020-09-06T19:45:41Z</time>
      </trkpt>
      <trkpt lat="47.8479" lon="6.78691">
        <ele>901.9</ele>
        <time>2020-09-06T19:45:41Z</time>
      </trkpt>
      <trkpt lat="47.84802" lon="6.78665">
        <ele>901.3</ele>
        <time>2020-09-06T19:45:41Z</time>
      </trkpt>
      <trkpt lat="47.84813" lon="6.78643">
        <ele>900.3</ele>
        <time>2020-09-06T19:45:41Z</time>
      </trkpt>
      <trkpt lat="47.8482" lon="6.7863">
        <ele>900.1</ele>
        <time>2020-09-06T19:45:41Z</time>
      </trkpt>
      <trkpt lat="47.84828" lon="6.7862">
        <ele>899</ele>
        <time>2020-09-06T19:45:41Z</time>
      </trkpt>
      <trkpt lat="47.84836" lon="6.78612">
        <ele>897.9</ele>
        <time>2020-09-06T19:45:41Z</time>
      </trkpt>
      <trkpt lat="47.84851" lon="6.78603">
        <ele>895.7</ele>
        <time>2020-09-06T19:45:41Z</time>
      </trkpt>
      <trkpt lat="47.84868" lon="6.78596">
        <ele>893.8</ele>
        <time>2020-09-06T19:45:41Z</time>
      </trkpt>
      <trkpt lat="47.84878" lon="6.78595">
        <ele>893.2</ele>
        <time>2020-09-06T19:45:41Z</time>
      </trkpt>
      <trkpt lat="47.84888" lon="6.78597">
        <ele>892.6</ele>
        <time>2020-09-06T19:45:41Z</time>
      </trkpt>
      <trkpt lat="47.84895" lon="6.786">
        <ele>892.2</ele>
        <time>2020-09-06T19:45:41Z</time>
      </trkpt>
      <trkpt lat="47.84904" lon="6.78603">
        <ele>891.7</ele>
        <time>2020-09-06T19:45:41Z</time>
      </trkpt>
      <trkpt lat="47.84912" lon="6.78602">
        <ele>891.3</ele>
        <time>2020-09-06T19:45:41Z</time>
      </trkpt>
      <trkpt lat="47.84918" lon="6.78597">
        <ele>890.8</ele>
        <time>2020-09-06T19:45:41Z</time>
      </trkpt>
      <trkpt lat="47.84929" lon="6.78586">
        <ele>890.1</ele>
        <time>2020-09-06T19:45:41Z</time>
      </trkpt>
      <trkpt lat="47.84937" lon="6.78572">
        <ele>889.6</ele>
        <time>2020-09-06T19:45:41Z</time>
      </trkpt>
      <trkpt lat="47.84943" lon="6.78555">
        <ele>889.4</ele>
        <time>2020-09-06T19:45:41Z</time>
      </trkpt>
      <trkpt lat="47.84946" lon="6.78545">
        <ele>889.5</ele>
        <time>2020-09-06T19:45:41Z</time>
      </trkpt>
      <trkpt lat="47.8495" lon="6.78526">
        <ele>889.5</ele>
        <time>2020-09-06T19:45:41Z</time>
      </trkpt>
      <trkpt lat="47.84956" lon="6.78496">
        <ele>888.3</ele>
        <time>2020-09-06T19:45:41Z</time>
      </trkpt>
      <trkpt lat="47.84958" lon="6.78484">
        <ele>888.1</ele>
        <time>2020-09-06T19:45:41Z</time>
      </trkpt>
      <trkpt lat="47.8496" lon="6.78473">
        <ele>887.2</ele>
        <time>2020-09-06T19:45:41Z</time>
      </trkpt>
      <trkpt lat="47.84961" lon="6.78464">
        <ele>886.7</ele>
        <time>2020-09-06T19:45:41Z</time>
      </trkpt>
      <trkpt lat="47.84963" lon="6.78451">
        <ele>887.4</ele>
        <time>2020-09-06T19:45:41Z</time>
      </trkpt>
      <trkpt lat="47.84964" lon="6.78437">
        <ele>887.1</ele>
        <time>2020-09-06T19:45:41Z</time>
      </trkpt>
      <trkpt lat="47.84964" lon="6.78423">
        <ele>887.1</ele>
        <time>2020-09-06T19:45:41Z</time>
      </trkpt>
      <trkpt lat="47.84961" lon="6.78408">
        <ele>886.1</ele>
        <time>2020-09-06T19:45:41Z</time>
      </trkpt>
      <trkpt lat="47.84954" lon="6.78389">
        <ele>885.5</ele>
        <time>2020-09-06T19:45:41Z</time>
      </trkpt>
      <trkpt lat="47.84945" lon="6.78368">
        <ele>883.2</ele>
        <time>2020-09-06T19:45:41Z</time>
      </trkpt>
      <trkpt lat="47.84927" lon="6.78327">
        <ele>880.9</ele>
        <time>2020-09-06T19:45:41Z</time>
      </trkpt>
      <trkpt lat="47.84913" lon="6.78297">
        <ele>879.7</ele>
        <time>2020-09-06T19:45:41Z</time>
      </trkpt>
      <trkpt lat="47.849" lon="6.78267">
        <ele>877.1</ele>
        <time>2020-09-06T19:45:41Z</time>
      </trkpt>
      <trkpt lat="47.84882" lon="6.78221">
        <ele>874</ele>
        <time>2020-09-06T19:45:41Z</time>
      </trkpt>
      <trkpt lat="47.84875" lon="6.78202">
        <ele>872.3</ele>
        <time>2020-09-06T19:45:41Z</time>
      </trkpt>
      <trkpt lat="47.84871" lon="6.78192">
        <ele>871.4</ele>
        <time>2020-09-06T19:45:41Z</time>
      </trkpt>
      <trkpt lat="47.84865" lon="6.78175">
        <ele>870.9</ele>
        <time>2020-09-06T19:45:41Z</time>
      </trkpt>
      <trkpt lat="47.84859" lon="6.78155">
        <ele>869.2</ele>
        <time>2020-09-06T19:45:41Z</time>
      </trkpt>
      <trkpt lat="47.84852" lon="6.78129">
        <ele>869.3</ele>
        <time>2020-09-06T19:45:41Z</time>
      </trkpt>
      <trkpt lat="47.84846" lon="6.78105">
        <ele>868.4</ele>
        <time>2020-09-06T19:45:41Z</time>
      </trkpt>
      <trkpt lat="47.84842" lon="6.78068">
        <ele>869.1</ele>
        <time>2020-09-06T19:45:41Z</time>
      </trkpt>
      <trkpt lat="47.84838" lon="6.78043">
        <ele>870.6</ele>
        <time>2020-09-06T19:45:41Z</time>
      </trkpt>
      <trkpt lat="47.84834" lon="6.78023">
        <ele>870.3</ele>
        <time>2020-09-06T19:45:41Z</time>
      </trkpt>
      <trkpt lat="47.84827" lon="6.77998">
        <ele>868.5</ele>
        <time>2020-09-06T19:45:41Z</time>
      </trkpt>
      <trkpt lat="47.84821" lon="6.77976">
        <ele>868.8</ele>
        <time>2020-09-06T19:45:41Z</time>
      </trkpt>
      <trkpt lat="47.84814" lon="6.77959">
        <ele>868.2</ele>
        <time>2020-09-06T19:45:41Z</time>
      </trkpt>
      <trkpt lat="47.84803" lon="6.77941">
        <ele>867.3</ele>
        <time>2020-09-06T19:45:41Z</time>
      </trkpt>
      <trkpt lat="47.8479" lon="6.7792">
        <ele>867.9</ele>
        <time>2020-09-06T19:45:41Z</time>
      </trkpt>
      <trkpt lat="47.8478" lon="6.77904">
        <ele>867.8</ele>
        <time>2020-09-06T19:45:41Z</time>
      </trkpt>
      <trkpt lat="47.84772" lon="6.77885">
        <ele>868.5</ele>
        <time>2020-09-06T19:45:41Z</time>
      </trkpt>
      <trkpt lat="47.84768" lon="6.77869">
        <ele>869</ele>
        <time>2020-09-06T19:45:41Z</time>
      </trkpt>
      <trkpt lat="47.84761" lon="6.77842">
        <ele>869.9</ele>
        <time>2020-09-06T19:45:41Z</time>
      </trkpt>
      <trkpt lat="47.84757" lon="6.7782">
        <ele>870</ele>
        <time>2020-09-06T19:45:41Z</time>
      </trkpt>
      <trkpt lat="47.84754" lon="6.77801">
        <ele>869.3</ele>
        <time>2020-09-06T19:45:41Z</time>
      </trkpt>
      <trkpt lat="47.84752" lon="6.77784">
        <ele>870</ele>
        <time>2020-09-06T19:45:41Z</time>
      </trkpt>
      <trkpt lat="47.8475" lon="6.77767">
        <ele>869.3</ele>
        <time>2020-09-06T19:45:41Z</time>
      </trkpt>
      <trkpt lat="47.84749" lon="6.77755">
        <ele>870.1</ele>
        <time>2020-09-06T19:45:41Z</time>
      </trkpt>
      <trkpt lat="47.84748" lon="6.77744">
        <ele>871.1</ele>
        <time>2020-09-06T19:45:41Z</time>
      </trkpt>
      <trkpt lat="47.84746" lon="6.77731">
        <ele>870.9</ele>
        <time>2020-09-06T19:45:41Z</time>
      </trkpt>
      <trkpt lat="47.84743" lon="6.77721">
        <ele>870.2</ele>
        <time>2020-09-06T19:45:41Z</time>
      </trkpt>
      <trkpt lat="47.84737" lon="6.77706">
        <ele>870.9</ele>
        <time>2020-09-06T19:45:41Z</time>
      </trkpt>
      <trkpt lat="47.84726" lon="6.77684">
        <ele>869.6</ele>
        <time>2020-09-06T19:45:41Z</time>
      </trkpt>
      <trkpt lat="47.84713" lon="6.77657">
        <ele>868.8</ele>
        <time>2020-09-06T19:45:41Z</time>
      </trkpt>
      <trkpt lat="47.84699" lon="6.77628">
        <ele>868.6</ele>
        <time>2020-09-06T19:45:41Z</time>
      </trkpt>
      <trkpt lat="47.84683" lon="6.776">
        <ele>866</ele>
        <time>2020-09-06T19:45:41Z</time>
      </trkpt>
      <trkpt lat="47.8467" lon="6.77573">
        <ele>865.6</ele>
        <time>2020-09-06T19:45:41Z</time>
      </trkpt>
      <trkpt lat="47.84662" lon="6.77553">
        <ele>866.6</ele>
        <time>2020-09-06T19:45:41Z</time>
      </trkpt>
      <trkpt lat="47.84655" lon="6.77535">
        <ele>866.1</ele>
        <time>2020-09-06T19:45:41Z</time>
      </trkpt>
      <trkpt lat="47.84651" lon="6.77522">
        <ele>866.3</ele>
        <time>2020-09-06T19:45:41Z</time>
      </trkpt>
      <trkpt lat="47.84646" lon="6.77499">
        <ele>867.9</ele>
        <time>2020-09-06T19:45:41Z</time>
      </trkpt>
      <trkpt lat="47.84642" lon="6.77481">
        <ele>867.9</ele>
        <time>2020-09-06T19:45:41Z</time>
      </trkpt>
      <trkpt lat="47.84639" lon="6.77468">
        <ele>867.4</ele>
        <time>2020-09-06T19:45:41Z</time>
      </trkpt>
      <trkpt lat="47.84632" lon="6.77448">
        <ele>867.4</ele>
        <time>2020-09-06T19:45:41Z</time>
      </trkpt>
      <trkpt lat="47.84626" lon="6.7743">
        <ele>865.4</ele>
        <time>2020-09-06T19:45:41Z</time>
      </trkpt>
      <trkpt lat="47.84621" lon="6.77417">
        <ele>865.2</ele>
        <time>2020-09-06T19:45:41Z</time>
      </trkpt>
      <trkpt lat="47.84607" lon="6.77385">
        <ele>863.9</ele>
        <time>2020-09-06T19:45:41Z</time>
      </trkpt>
      <trkpt lat="47.84593" lon="6.77336">
        <ele>864.5</ele>
        <time>2020-09-06T19:45:41Z</time>
      </trkpt>
      <trkpt lat="47.84567" lon="6.77264">
        <ele>863.8</ele>
        <time>2020-09-06T19:45:41Z</time>
      </trkpt>
      <trkpt lat="47.84561" lon="6.77248">
        <ele>863.8</ele>
        <time>2020-09-06T19:45:41Z</time>
      </trkpt>
      <trkpt lat="47.84555" lon="6.77233">
        <ele>864.5</ele>
        <time>2020-09-06T19:45:41Z</time>
      </trkpt>
      <trkpt lat="47.8455" lon="6.77223">
        <ele>863</ele>
        <time>2020-09-06T19:45:41Z</time>
      </trkpt>
      <trkpt lat="47.84538" lon="6.77207">
        <ele>864</ele>
        <time>2020-09-06T19:45:41Z</time>
      </trkpt>
      <trkpt lat="47.84528" lon="6.77195">
        <ele>863.6</ele>
        <time>2020-09-06T19:45:41Z</time>
      </trkpt>
      <trkpt lat="47.84504" lon="6.7717">
        <ele>863.5</ele>
        <time>2020-09-06T19:45:41Z</time>
      </trkpt>
      <trkpt lat="47.84481" lon="6.77146">
        <ele>862.5</ele>
        <time>2020-09-06T19:45:41Z</time>
      </trkpt>
      <trkpt lat="47.84466" lon="6.77129">
        <ele>863</ele>
        <time>2020-09-06T19:45:41Z</time>
      </trkpt>
      <trkpt lat="47.84442" lon="6.77104">
        <ele>860.5</ele>
        <time>2020-09-06T19:45:41Z</time>
      </trkpt>
      <trkpt lat="47.84433" lon="6.77092">
        <ele>860.8</ele>
        <time>2020-09-06T19:45:41Z</time>
      </trkpt>
      <trkpt lat="47.84421" lon="6.77076">
        <ele>859.1</ele>
        <time>2020-09-06T19:45:41Z</time>
      </trkpt>
      <trkpt lat="47.84403" lon="6.77044">
        <ele>861.1</ele>
        <time>2020-09-06T19:45:41Z</time>
      </trkpt>
      <trkpt lat="47.84388" lon="6.77022">
        <ele>861.4</ele>
        <time>2020-09-06T19:45:41Z</time>
      </trkpt>
      <trkpt lat="47.84359" lon="6.76977">
        <ele>860.1</ele>
        <time>2020-09-06T19:45:41Z</time>
      </trkpt>
      <trkpt lat="47.84336" lon="6.76938">
        <ele>860.8</ele>
        <time>2020-09-06T19:45:41Z</time>
      </trkpt>
      <trkpt lat="47.84322" lon="6.76916">
        <ele>856.9</ele>
        <time>2020-09-06T19:45:41Z</time>
      </trkpt>
      <trkpt lat="47.84312" lon="6.76898">
        <ele>856.5</ele>
        <time>2020-09-06T19:45:41Z</time>
      </trkpt>
      <trkpt lat="47.84303" lon="6.76879">
        <ele>856</ele>
        <time>2020-09-06T19:45:41Z</time>
      </trkpt>
      <trkpt lat="47.84297" lon="6.76855">
        <ele>854.4</ele>
        <time>2020-09-06T19:45:41Z</time>
      </trkpt>
      <trkpt lat="47.84294" lon="6.76836">
        <ele>854.8</ele>
        <time>2020-09-06T19:45:41Z</time>
      </trkpt>
      <trkpt lat="47.84293" lon="6.76815">
        <ele>853.2</ele>
        <time>2020-09-06T19:45:41Z</time>
      </trkpt>
      <trkpt lat="47.84295" lon="6.76802">
        <ele>851.4</ele>
        <time>2020-09-06T19:45:41Z</time>
      </trkpt>
      <trkpt lat="47.84299" lon="6.76787">
        <ele>849.7</ele>
        <time>2020-09-06T19:45:41Z</time>
      </trkpt>
      <trkpt lat="47.84303" lon="6.76779">
        <ele>848.8</ele>
        <time>2020-09-06T19:45:41Z</time>
      </trkpt>
      <trkpt lat="47.84311" lon="6.76772">
        <ele>848.7</ele>
        <time>2020-09-06T19:45:41Z</time>
      </trkpt>
      <trkpt lat="47.84323" lon="6.76766">
        <ele>847.9</ele>
        <time>2020-09-06T19:45:41Z</time>
      </trkpt>
      <trkpt lat="47.84336" lon="6.76762">
        <ele>848.4</ele>
        <time>2020-09-06T19:45:41Z</time>
      </trkpt>
      <trkpt lat="47.84345" lon="6.76755">
        <ele>848.3</ele>
        <time>2020-09-06T19:45:41Z</time>
      </trkpt>
      <trkpt lat="47.84352" lon="6.76747">
        <ele>846.2</ele>
        <time>2020-09-06T19:45:41Z</time>
      </trkpt>
      <trkpt lat="47.84365" lon="6.76733">
        <ele>844.5</ele>
        <time>2020-09-06T19:45:41Z</time>
      </trkpt>
      <trkpt lat="47.84374" lon="6.76721">
        <ele>843.3</ele>
        <time>2020-09-06T19:45:41Z</time>
      </trkpt>
      <trkpt lat="47.84381" lon="6.76709">
        <ele>842.7</ele>
        <time>2020-09-06T19:45:41Z</time>
      </trkpt>
      <trkpt lat="47.84387" lon="6.76695">
        <ele>840.5</ele>
        <time>2020-09-06T19:45:41Z</time>
      </trkpt>
      <trkpt lat="47.84391" lon="6.76685">
        <ele>839.5</ele>
        <time>2020-09-06T19:45:41Z</time>
      </trkpt>
      <trkpt lat="47.84396" lon="6.76679">
        <ele>838.7</ele>
        <time>2020-09-06T19:45:41Z</time>
      </trkpt>
      <trkpt lat="47.84401" lon="6.76675">
        <ele>838</ele>
        <time>2020-09-06T19:45:41Z</time>
      </trkpt>
      <trkpt lat="47.84409" lon="6.7667">
        <ele>838.4</ele>
        <time>2020-09-06T19:45:41Z</time>
      </trkpt>
      <trkpt lat="47.84416" lon="6.76664">
        <ele>837.9</ele>
        <time>2020-09-06T19:45:41Z</time>
      </trkpt>
      <trkpt lat="47.84426" lon="6.76652">
        <ele>836.5</ele>
        <time>2020-09-06T19:45:41Z</time>
      </trkpt>
      <trkpt lat="47.84436" lon="6.76642">
        <ele>835.7</ele>
        <time>2020-09-06T19:45:41Z</time>
      </trkpt>
      <trkpt lat="47.84447" lon="6.76634">
        <ele>834.5</ele>
        <time>2020-09-06T19:45:41Z</time>
      </trkpt>
      <trkpt lat="47.84465" lon="6.76626">
        <ele>835.3</ele>
        <time>2020-09-06T19:45:41Z</time>
      </trkpt>
      <trkpt lat="47.84484" lon="6.76618">
        <ele>835.7</ele>
        <time>2020-09-06T19:45:41Z</time>
      </trkpt>
      <trkpt lat="47.84493" lon="6.76613">
        <ele>836.3</ele>
        <time>2020-09-06T19:45:41Z</time>
      </trkpt>
      <trkpt lat="47.84504" lon="6.76603">
        <ele>835.5</ele>
        <time>2020-09-06T19:45:41Z</time>
      </trkpt>
      <trkpt lat="47.84511" lon="6.76593">
        <ele>834.2</ele>
        <time>2020-09-06T19:45:41Z</time>
      </trkpt>
      <trkpt lat="47.84517" lon="6.76581">
        <ele>833.9</ele>
        <time>2020-09-06T19:45:41Z</time>
      </trkpt>
      <trkpt lat="47.8452" lon="6.76568">
        <ele>831.2</ele>
        <time>2020-09-06T19:45:41Z</time>
      </trkpt>
      <trkpt lat="47.84525" lon="6.76547">
        <ele>830.6</ele>
        <time>2020-09-06T19:45:41Z</time>
      </trkpt>
      <trkpt lat="47.84532" lon="6.76511">
        <ele>827.3</ele>
        <time>2020-09-06T19:45:41Z</time>
      </trkpt>
      <trkpt lat="47.84539" lon="6.76485">
        <ele>827.3</ele>
        <time>2020-09-06T19:45:41Z</time>
      </trkpt>
      <trkpt lat="47.84547" lon="6.76456">
        <ele>826.7</ele>
        <time>2020-09-06T19:45:41Z</time>
      </trkpt>
      <trkpt lat="47.84557" lon="6.76435">
        <ele>826.8</ele>
        <time>2020-09-06T19:45:41Z</time>
      </trkpt>
      <trkpt lat="47.84567" lon="6.7642">
        <ele>827.4</ele>
        <time>2020-09-06T19:45:41Z</time>
      </trkpt>
      <trkpt lat="47.84574" lon="6.76411">
        <ele>828.4</ele>
        <time>2020-09-06T19:45:41Z</time>
      </trkpt>
      <trkpt lat="47.84582" lon="6.76402">
        <ele>829.2</ele>
        <time>2020-09-06T19:45:41Z</time>
      </trkpt>
      <trkpt lat="47.84588" lon="6.76394">
        <ele>829.1</ele>
        <time>2020-09-06T19:45:41Z</time>
      </trkpt>
      <trkpt lat="47.84593" lon="6.76384">
        <ele>828.6</ele>
        <time>2020-09-06T19:45:41Z</time>
      </trkpt>
      <trkpt lat="47.84596" lon="6.76374">
        <ele>828.9</ele>
        <time>2020-09-06T19:45:41Z</time>
      </trkpt>
      <trkpt lat="47.84598" lon="6.76364">
        <ele>829.4</ele>
        <time>2020-09-06T19:45:41Z</time>
      </trkpt>
      <trkpt lat="47.84601" lon="6.76342">
        <ele>826.7</ele>
        <time>2020-09-06T19:45:41Z</time>
      </trkpt>
      <trkpt lat="47.84608" lon="6.76292">
        <ele>826.6</ele>
        <time>2020-09-06T19:45:41Z</time>
      </trkpt>
      <trkpt lat="47.84611" lon="6.76265">
        <ele>828</ele>
        <time>2020-09-06T19:45:41Z</time>
      </trkpt>
      <trkpt lat="47.84613" lon="6.76249">
        <ele>827.8</ele>
        <time>2020-09-06T19:45:41Z</time>
      </trkpt>
      <trkpt lat="47.84614" lon="6.76238">
        <ele>827.7</ele>
        <time>2020-09-06T19:45:41Z</time>
      </trkpt>
      <trkpt lat="47.84613" lon="6.76228">
        <ele>827.7</ele>
        <time>2020-09-06T19:45:41Z</time>
      </trkpt>
      <trkpt lat="47.84612" lon="6.76212">
        <ele>828.2</ele>
        <time>2020-09-06T19:45:41Z</time>
      </trkpt>
      <trkpt lat="47.8461" lon="6.76197">
        <ele>826.6</ele>
        <time>2020-09-06T19:45:41Z</time>
      </trkpt>
      <trkpt lat="47.84607" lon="6.76182">
        <ele>827.8</ele>
        <time>2020-09-06T19:45:41Z</time>
      </trkpt>
      <trkpt lat="47.84601" lon="6.76161">
        <ele>826.2</ele>
        <time>2020-09-06T19:45:41Z</time>
      </trkpt>
      <trkpt lat="47.84593" lon="6.76141">
        <ele>825</ele>
        <time>2020-09-06T19:45:41Z</time>
      </trkpt>
      <trkpt lat="47.84579" lon="6.76116">
        <ele>824.6</ele>
        <time>2020-09-06T19:45:41Z</time>
      </trkpt>
      <trkpt lat="47.84568" lon="6.76101">
        <ele>824.9</ele>
        <time>2020-09-06T19:45:41Z</time>
      </trkpt>
      <trkpt lat="47.8456" lon="6.76081">
        <ele>824.4</ele>
        <time>2020-09-06T19:45:41Z</time>
      </trkpt>
      <trkpt lat="47.84545" lon="6.76028">
        <ele>824.7</ele>
        <time>2020-09-06T19:45:41Z</time>
      </trkpt>
      <trkpt lat="47.84537" lon="6.75996">
        <ele>824.7</ele>
        <time>2020-09-06T19:45:41Z</time>
      </trkpt>
      <trkpt lat="47.84529" lon="6.7596">
        <ele>825.4</ele>
        <time>2020-09-06T19:45:41Z</time>
      </trkpt>
      <trkpt lat="47.84527" lon="6.75947">
        <ele>824</ele>
        <time>2020-09-06T19:45:41Z</time>
      </trkpt>
      <trkpt lat="47.84528" lon="6.75936">
        <ele>824</ele>
        <time>2020-09-06T19:45:41Z</time>
      </trkpt>
      <trkpt lat="47.8453" lon="6.75925">
        <ele>825.3</ele>
        <time>2020-09-06T19:45:41Z</time>
      </trkpt>
      <trkpt lat="47.84534" lon="6.75911">
        <ele>825.8</ele>
        <time>2020-09-06T19:45:41Z</time>
      </trkpt>
      <trkpt lat="47.84542" lon="6.75887">
        <ele>826.8</ele>
        <time>2020-09-06T19:45:41Z</time>
      </trkpt>
      <trkpt lat="47.84555" lon="6.75851">
        <ele>826.1</ele>
        <time>2020-09-06T19:45:41Z</time>
      </trkpt>
      <trkpt lat="47.84564" lon="6.75833">
        <ele>825.9</ele>
        <time>2020-09-06T19:45:41Z</time>
      </trkpt>
      <trkpt lat="47.84576" lon="6.75811">
        <ele>826.1</ele>
        <time>2020-09-06T19:45:41Z</time>
      </trkpt>
      <trkpt lat="47.8459" lon="6.75786">
        <ele>825.5</ele>
        <time>2020-09-06T19:45:41Z</time>
      </trkpt>
      <trkpt lat="47.84611" lon="6.75747">
        <ele>824.8</ele>
        <time>2020-09-06T19:45:41Z</time>
      </trkpt>
      <trkpt lat="47.84616" lon="6.75735">
        <ele>823.8</ele>
        <time>2020-09-06T19:45:41Z</time>
      </trkpt>
      <trkpt lat="47.8462" lon="6.75723">
        <ele>823.2</ele>
        <time>2020-09-06T19:45:41Z</time>
      </trkpt>
      <trkpt lat="47.84622" lon="6.75716">
        <ele>822.8</ele>
        <time>2020-09-06T19:45:41Z</time>
      </trkpt>
      <trkpt lat="47.84623" lon="6.75705">
        <ele>821.5</ele>
        <time>2020-09-06T19:45:41Z</time>
      </trkpt>
      <trkpt lat="47.84622" lon="6.75686">
        <ele>821.3</ele>
        <time>2020-09-06T19:45:41Z</time>
      </trkpt>
      <trkpt lat="47.84619" lon="6.75666">
        <ele>822.5</ele>
        <time>2020-09-06T19:45:41Z</time>
      </trkpt>
      <trkpt lat="47.84614" lon="6.75648">
        <ele>820.7</ele>
        <time>2020-09-06T19:45:41Z</time>
      </trkpt>
      <trkpt lat="47.84611" lon="6.75628">
        <ele>822.1</ele>
        <time>2020-09-06T19:45:41Z</time>
      </trkpt>
      <trkpt lat="47.8461" lon="6.75614">
        <ele>820.6</ele>
        <time>2020-09-06T19:45:41Z</time>
      </trkpt>
      <trkpt lat="47.8461" lon="6.75582">
        <ele>820.9</ele>
        <time>2020-09-06T19:45:41Z</time>
      </trkpt>
      <trkpt lat="47.84609" lon="6.75559">
        <ele>821.2</ele>
        <time>2020-09-06T19:45:41Z</time>
      </trkpt>
      <trkpt lat="47.84601" lon="6.75505">
        <ele>820.3</ele>
        <time>2020-09-06T19:45:41Z</time>
      </trkpt>
      <trkpt lat="47.84598" lon="6.75474">
        <ele>821.7</ele>
        <time>2020-09-06T19:45:41Z</time>
      </trkpt>
      <trkpt lat="47.84596" lon="6.75441">
        <ele>820.8</ele>
        <time>2020-09-06T19:45:41Z</time>
      </trkpt>
      <trkpt lat="47.84596" lon="6.75414">
        <ele>820.2</ele>
        <time>2020-09-06T19:45:41Z</time>
      </trkpt>
      <trkpt lat="47.84598" lon="6.75397">
        <ele>820.5</ele>
        <time>2020-09-06T19:45:41Z</time>
      </trkpt>
      <trkpt lat="47.84602" lon="6.75383">
        <ele>820.2</ele>
        <time>2020-09-06T19:45:41Z</time>
      </trkpt>
      <trkpt lat="47.84607" lon="6.7537">
        <ele>819.6</ele>
        <time>2020-09-06T19:45:41Z</time>
      </trkpt>
      <trkpt lat="47.84613" lon="6.75359">
        <ele>819.3</ele>
        <time>2020-09-06T19:45:41Z</time>
      </trkpt>
      <trkpt lat="47.84617" lon="6.75354">
        <ele>818.6</ele>
        <time>2020-09-06T19:45:41Z</time>
      </trkpt>
      <trkpt lat="47.84629" lon="6.75339">
        <ele>817.8</ele>
        <time>2020-09-06T19:45:41Z</time>
      </trkpt>
      <trkpt lat="47.8464" lon="6.75331">
        <ele>817</ele>
        <time>2020-09-06T19:45:41Z</time>
      </trkpt>
      <trkpt lat="47.84652" lon="6.75325">
        <ele>816.7</ele>
        <time>2020-09-06T19:45:41Z</time>
      </trkpt>
      <trkpt lat="47.84674" lon="6.75314">
        <ele>815</ele>
        <time>2020-09-06T19:45:41Z</time>
      </trkpt>
      <trkpt lat="47.8469" lon="6.75306">
        <ele>814.3</ele>
        <time>2020-09-06T19:45:41Z</time>
      </trkpt>
      <trkpt lat="47.847" lon="6.75301">
        <ele>813.9</ele>
        <time>2020-09-06T19:45:41Z</time>
      </trkpt>
      <trkpt lat="47.84713" lon="6.75298">
        <ele>813.4</ele>
        <time>2020-09-06T19:45:41Z</time>
      </trkpt>
      <trkpt lat="47.84726" lon="6.75299">
        <ele>814.8</ele>
        <time>2020-09-06T19:45:41Z</time>
      </trkpt>
      <trkpt lat="47.84745" lon="6.75305">
        <ele>815.4</ele>
        <time>2020-09-06T19:45:41Z</time>
      </trkpt>
      <trkpt lat="47.84762" lon="6.75313">
        <ele>816.4</ele>
        <time>2020-09-06T19:45:41Z</time>
      </trkpt>
      <trkpt lat="47.84773" lon="6.75318">
        <ele>816.7</ele>
        <time>2020-09-06T19:45:41Z</time>
      </trkpt>
      <trkpt lat="47.84784" lon="6.75319">
        <ele>816</ele>
        <time>2020-09-06T19:45:41Z</time>
      </trkpt>
      <trkpt lat="47.84795" lon="6.7532">
        <ele>815.5</ele>
        <time>2020-09-06T19:45:41Z</time>
      </trkpt>
      <trkpt lat="47.84803" lon="6.75317">
        <ele>815.7</ele>
        <time>2020-09-06T19:45:41Z</time>
      </trkpt>
      <trkpt lat="47.84815" lon="6.7531">
        <ele>815.2</ele>
        <time>2020-09-06T19:45:41Z</time>
      </trkpt>
      <trkpt lat="47.8483" lon="6.75301">
        <ele>815.2</ele>
        <time>2020-09-06T19:45:41Z</time>
      </trkpt>
      <trkpt lat="47.84842" lon="6.75293">
        <ele>814.4</ele>
        <time>2020-09-06T19:45:41Z</time>
      </trkpt>
      <trkpt lat="47.84857" lon="6.75284">
        <ele>813.5</ele>
        <time>2020-09-06T19:45:41Z</time>
      </trkpt>
      <trkpt lat="47.84866" lon="6.75278">
        <ele>813.1</ele>
        <time>2020-09-06T19:45:41Z</time>
      </trkpt>
      <trkpt lat="47.84878" lon="6.75273">
        <ele>812.1</ele>
        <time>2020-09-06T19:45:41Z</time>
      </trkpt>
      <trkpt lat="47.84891" lon="6.75269">
        <ele>810.8</ele>
        <time>2020-09-06T19:45:41Z</time>
      </trkpt>
      <trkpt lat="47.84909" lon="6.75268">
        <ele>808.3</ele>
        <time>2020-09-06T19:45:41Z</time>
      </trkpt>
      <trkpt lat="47.84923" lon="6.75267">
        <ele>807</ele>
        <time>2020-09-06T19:45:41Z</time>
      </trkpt>
      <trkpt lat="47.84944" lon="6.75266">
        <ele>805.2</ele>
        <time>2020-09-06T19:45:41Z</time>
      </trkpt>
      <trkpt lat="47.84963" lon="6.75264">
        <ele>803.4</ele>
        <time>2020-09-06T19:45:41Z</time>
      </trkpt>
      <trkpt lat="47.84983" lon="6.75263">
        <ele>802.5</ele>
        <time>2020-09-06T19:45:41Z</time>
      </trkpt>
      <trkpt lat="47.84997" lon="6.75264">
        <ele>801.2</ele>
        <time>2020-09-06T19:45:41Z</time>
      </trkpt>
      <trkpt lat="47.85009" lon="6.75268">
        <ele>800.5</ele>
        <time>2020-09-06T19:45:41Z</time>
      </trkpt>
      <trkpt lat="47.85022" lon="6.75276">
        <ele>799.5</ele>
        <time>2020-09-06T19:45:41Z</time>
      </trkpt>
      <trkpt lat="47.85034" lon="6.75285">
        <ele>798.1</ele>
        <time>2020-09-06T19:45:41Z</time>
      </trkpt>
      <trkpt lat="47.85045" lon="6.75297">
        <ele>796.8</ele>
        <time>2020-09-06T19:45:41Z</time>
      </trkpt>
      <trkpt lat="47.85052" lon="6.7531">
        <ele>796.6</ele>
        <time>2020-09-06T19:45:41Z</time>
      </trkpt>
      <trkpt lat="47.85059" lon="6.75324">
        <ele>795.4</ele>
        <time>2020-09-06T19:45:41Z</time>
      </trkpt>
      <trkpt lat="47.85063" lon="6.75333">
        <ele>795</ele>
        <time>2020-09-06T19:45:41Z</time>
      </trkpt>
      <trkpt lat="47.8507" lon="6.75351">
        <ele>793.2</ele>
        <time>2020-09-06T19:45:41Z</time>
      </trkpt>
      <trkpt lat="47.85077" lon="6.75371">
        <ele>792.4</ele>
        <time>2020-09-06T19:45:41Z</time>
      </trkpt>
      <trkpt lat="47.85084" lon="6.75397">
        <ele>790.5</ele>
        <time>2020-09-06T19:45:41Z</time>
      </trkpt>
      <trkpt lat="47.85088" lon="6.75419">
        <ele>790.1</ele>
        <time>2020-09-06T19:45:41Z</time>
      </trkpt>
      <trkpt lat="47.85091" lon="6.75437">
        <ele>788.9</ele>
        <time>2020-09-06T19:45:41Z</time>
      </trkpt>
      <trkpt lat="47.85091" lon="6.75447">
        <ele>789</ele>
        <time>2020-09-06T19:45:41Z</time>
      </trkpt>
      <trkpt lat="47.85092" lon="6.75466">
        <ele>789.1</ele>
        <time>2020-09-06T19:45:41Z</time>
      </trkpt>
      <trkpt lat="47.85091" lon="6.7549">
        <ele>788.5</ele>
        <time>2020-09-06T19:45:41Z</time>
      </trkpt>
      <trkpt lat="47.8509" lon="6.75517">
        <ele>788.7</ele>
        <time>2020-09-06T19:45:41Z</time>
      </trkpt>
      <trkpt lat="47.85086" lon="6.75555">
        <ele>787.7</ele>
        <time>2020-09-06T19:45:41Z</time>
      </trkpt>
      <trkpt lat="47.85085" lon="6.75578">
        <ele>787.4</ele>
        <time>2020-09-06T19:45:41Z</time>
      </trkpt>
      <trkpt lat="47.85085" lon="6.7559">
        <ele>787.5</ele>
        <time>2020-09-06T19:45:41Z</time>
      </trkpt>
      <trkpt lat="47.85086" lon="6.75602">
        <ele>788.1</ele>
        <time>2020-09-06T19:45:41Z</time>
      </trkpt>
      <trkpt lat="47.8509" lon="6.75621">
        <ele>788.6</ele>
        <time>2020-09-06T19:45:41Z</time>
      </trkpt>
      <trkpt lat="47.85097" lon="6.75645">
        <ele>787.5</ele>
        <time>2020-09-06T19:45:41Z</time>
      </trkpt>
      <trkpt lat="47.85106" lon="6.75679">
        <ele>786.9</ele>
        <time>2020-09-06T19:45:41Z</time>
      </trkpt>
      <trkpt lat="47.85118" lon="6.75725">
        <ele>784.6</ele>
        <time>2020-09-06T19:45:41Z</time>
      </trkpt>
      <trkpt lat="47.85127" lon="6.75756">
        <ele>782</ele>
        <time>2020-09-06T19:45:41Z</time>
      </trkpt>
      <trkpt lat="47.85139" lon="6.75791">
        <ele>779.5</ele>
        <time>2020-09-06T19:45:41Z</time>
      </trkpt>
      <trkpt lat="47.85158" lon="6.75837">
        <ele>776.4</ele>
        <time>2020-09-06T19:45:41Z</time>
      </trkpt>
      <trkpt lat="47.85176" lon="6.75885">
        <ele>774.3</ele>
        <time>2020-09-06T19:45:41Z</time>
      </trkpt>
      <trkpt lat="47.85194" lon="6.7593">
        <ele>772.1</ele>
        <time>2020-09-06T19:45:41Z</time>
      </trkpt>
      <trkpt lat="47.85201" lon="6.75944">
        <ele>771.5</ele>
        <time>2020-09-06T19:45:41Z</time>
      </trkpt>
      <trkpt lat="47.85207" lon="6.75953">
        <ele>770.7</ele>
        <time>2020-09-06T19:45:41Z</time>
      </trkpt>
      <trkpt lat="47.85214" lon="6.75961">
        <ele>770.6</ele>
        <time>2020-09-06T19:45:41Z</time>
      </trkpt>
      <trkpt lat="47.85226" lon="6.75966">
        <ele>770</ele>
        <time>2020-09-06T19:45:41Z</time>
      </trkpt>
      <trkpt lat="47.85235" lon="6.75968">
        <ele>769.4</ele>
        <time>2020-09-06T19:45:41Z</time>
      </trkpt>
      <trkpt lat="47.85252" lon="6.75973">
        <ele>768.1</ele>
        <time>2020-09-06T19:45:41Z</time>
      </trkpt>
      <trkpt lat="47.85275" lon="6.7598">
        <ele>766.6</ele>
        <time>2020-09-06T19:45:41Z</time>
      </trkpt>
      <trkpt lat="47.85304" lon="6.75991">
        <ele>764.4</ele>
        <time>2020-09-06T19:45:41Z</time>
      </trkpt>
      <trkpt lat="47.85329" lon="6.75999">
        <ele>762.6</ele>
        <time>2020-09-06T19:45:41Z</time>
      </trkpt>
      <trkpt lat="47.85352" lon="6.76006">
        <ele>761.3</ele>
        <time>2020-09-06T19:45:41Z</time>
      </trkpt>
      <trkpt lat="47.85369" lon="6.76011">
        <ele>760.6</ele>
        <time>2020-09-06T19:45:41Z</time>
      </trkpt>
      <trkpt lat="47.85388" lon="6.76013">
        <ele>760</ele>
        <time>2020-09-06T19:45:41Z</time>
      </trkpt>
      <trkpt lat="47.85409" lon="6.76019">
        <ele>758.2</ele>
        <time>2020-09-06T19:45:41Z</time>
      </trkpt>
      <trkpt lat="47.85439" lon="6.7603">
        <ele>757.8</ele>
        <time>2020-09-06T19:45:41Z</time>
      </trkpt>
      <trkpt lat="47.85455" lon="6.76034">
        <ele>757.9</ele>
        <time>2020-09-06T19:45:41Z</time>
      </trkpt>
      <trkpt lat="47.85465" lon="6.76035">
        <ele>757.5</ele>
        <time>2020-09-06T19:45:41Z</time>
      </trkpt>
      <trkpt lat="47.85471" lon="6.76035">
        <ele>757.4</ele>
        <time>2020-09-06T19:45:41Z</time>
      </trkpt>
      <trkpt lat="47.8548" lon="6.76033">
        <ele>757.3</ele>
        <time>2020-09-06T19:45:41Z</time>
      </trkpt>
      <trkpt lat="47.85488" lon="6.76029">
        <ele>757.2</ele>
        <time>2020-09-06T19:45:41Z</time>
      </trkpt>
      <trkpt lat="47.85501" lon="6.76023">
        <ele>757</ele>
        <time>2020-09-06T19:45:41Z</time>
      </trkpt>
      <trkpt lat="47.8551" lon="6.76023">
        <ele>757.1</ele>
        <time>2020-09-06T19:45:41Z</time>
      </trkpt>
      <trkpt lat="47.85518" lon="6.76022">
        <ele>757.2</ele>
        <time>2020-09-06T19:45:41Z</time>
      </trkpt>
      <trkpt lat="47.85526" lon="6.76025">
        <ele>757.2</ele>
        <time>2020-09-06T19:45:41Z</time>
      </trkpt>
      <trkpt lat="47.85536" lon="6.76025">
        <ele>757.1</ele>
        <time>2020-09-06T19:45:41Z</time>
      </trkpt>
      <trkpt lat="47.85545" lon="6.76023">
        <ele>757</ele>
        <time>2020-09-06T19:45:41Z</time>
      </trkpt>
      <trkpt lat="47.85552" lon="6.76021">
        <ele>757</ele>
        <time>2020-09-06T19:45:41Z</time>
      </trkpt>
      <trkpt lat="47.85558" lon="6.76018">
        <ele>756.8</ele>
        <time>2020-09-06T19:45:41Z</time>
      </trkpt>
      <trkpt lat="47.85564" lon="6.76009">
        <ele>756.5</ele>
        <time>2020-09-06T19:45:41Z</time>
      </trkpt>
      <trkpt lat="47.85573" lon="6.75992">
        <ele>756.1</ele>
        <time>2020-09-06T19:45:41Z</time>
      </trkpt>
      <trkpt lat="47.85579" lon="6.7598">
        <ele>755.7</ele>
        <time>2020-09-06T19:45:41Z</time>
      </trkpt>
      <trkpt lat="47.85587" lon="6.7597">
        <ele>755.3</ele>
        <time>2020-09-06T19:45:41Z</time>
      </trkpt>
      <trkpt lat="47.85592" lon="6.75965">
        <ele>754.9</ele>
        <time>2020-09-06T19:45:41Z</time>
      </trkpt>
      <trkpt lat="47.85599" lon="6.75961">
        <ele>754.4</ele>
        <time>2020-09-06T19:45:41Z</time>
      </trkpt>
      <trkpt lat="47.8561" lon="6.75956">
        <ele>753.9</ele>
        <time>2020-09-06T19:45:41Z</time>
      </trkpt>
      <trkpt lat="47.8564" lon="6.75949">
        <ele>751.3</ele>
        <time>2020-09-06T19:45:41Z</time>
      </trkpt>
      <trkpt lat="47.85669" lon="6.75943">
        <ele>749.3</ele>
        <time>2020-09-06T19:45:41Z</time>
      </trkpt>
      <trkpt lat="47.85696" lon="6.75937">
        <ele>748.4</ele>
        <time>2020-09-06T19:45:41Z</time>
      </trkpt>
      <trkpt lat="47.85709" lon="6.75933">
        <ele>747.5</ele>
        <time>2020-09-06T19:45:41Z</time>
      </trkpt>
      <trkpt lat="47.85718" lon="6.75928">
        <ele>747</ele>
        <time>2020-09-06T19:45:41Z</time>
      </trkpt>
      <trkpt lat="47.85724" lon="6.75923">
        <ele>746.8</ele>
        <time>2020-09-06T19:45:41Z</time>
      </trkpt>
      <trkpt lat="47.85732" lon="6.75912">
        <ele>745.9</ele>
        <time>2020-09-06T19:45:41Z</time>
      </trkpt>
      <trkpt lat="47.85735" lon="6.75905">
        <ele>745.7</ele>
        <time>2020-09-06T19:45:41Z</time>
      </trkpt>
      <trkpt lat="47.85742" lon="6.75882">
        <ele>744.2</ele>
        <time>2020-09-06T19:45:41Z</time>
      </trkpt>
      <trkpt lat="47.85745" lon="6.75863">
        <ele>743.6</ele>
        <time>2020-09-06T19:45:41Z</time>
      </trkpt>
      <trkpt lat="47.85745" lon="6.75841">
        <ele>742.5</ele>
        <time>2020-09-06T19:45:41Z</time>
      </trkpt>
      <trkpt lat="47.85746" lon="6.75814">
        <ele>741.2</ele>
        <time>2020-09-06T19:45:41Z</time>
      </trkpt>
      <trkpt lat="47.85747" lon="6.75798">
        <ele>740.4</ele>
        <time>2020-09-06T19:45:41Z</time>
      </trkpt>
      <trkpt lat="47.8575" lon="6.75776">
        <ele>739.2</ele>
        <time>2020-09-06T19:45:41Z</time>
      </trkpt>
      <trkpt lat="47.85753" lon="6.75764">
        <ele>739.2</ele>
        <time>2020-09-06T19:45:41Z</time>
      </trkpt>
      <trkpt lat="47.85759" lon="6.75741">
        <ele>737.8</ele>
        <time>2020-09-06T19:45:41Z</time>
      </trkpt>
      <trkpt lat="47.85764" lon="6.75729">
        <ele>736.8</ele>
        <time>2020-09-06T19:45:41Z</time>
      </trkpt>
      <trkpt lat="47.85767" lon="6.75719">
        <ele>735.8</ele>
        <time>2020-09-06T19:45:41Z</time>
      </trkpt>
      <trkpt lat="47.8577" lon="6.75709">
        <ele>735.4</ele>
        <time>2020-09-06T19:45:41Z</time>
      </trkpt>
      <trkpt lat="47.85771" lon="6.75699">
        <ele>734.8</ele>
        <time>2020-09-06T19:45:41Z</time>
      </trkpt>
      <trkpt lat="47.85771" lon="6.75691">
        <ele>734.2</ele>
        <time>2020-09-06T19:45:41Z</time>
      </trkpt>
      <trkpt lat="47.85769" lon="6.75675">
        <ele>734</ele>
        <time>2020-09-06T19:45:41Z</time>
      </trkpt>
      <trkpt lat="47.85764" lon="6.75657">
        <ele>731.7</ele>
        <time>2020-09-06T19:45:41Z</time>
      </trkpt>
      <trkpt lat="47.8576" lon="6.75639">
        <ele>730.8</ele>
        <time>2020-09-06T19:45:41Z</time>
      </trkpt>
      <trkpt lat="47.85759" lon="6.75625">
        <ele>730.4</ele>
        <time>2020-09-06T19:45:41Z</time>
      </trkpt>
      <trkpt lat="47.85759" lon="6.75609">
        <ele>729.3</ele>
        <time>2020-09-06T19:45:41Z</time>
      </trkpt>
      <trkpt lat="47.85761" lon="6.75571">
        <ele>729.1</ele>
        <time>2020-09-06T19:45:41Z</time>
      </trkpt>
      <trkpt lat="47.85764" lon="6.75531">
        <ele>727.3</ele>
        <time>2020-09-06T19:45:41Z</time>
      </trkpt>
      <trkpt lat="47.85765" lon="6.75505">
        <ele>726.9</ele>
        <time>2020-09-06T19:45:41Z</time>
      </trkpt>
      <trkpt lat="47.85767" lon="6.75466">
        <ele>723.7</ele>
        <time>2020-09-06T19:45:41Z</time>
      </trkpt>
      <trkpt lat="47.85767" lon="6.75444">
        <ele>722.2</ele>
        <time>2020-09-06T19:45:41Z</time>
      </trkpt>
      <trkpt lat="47.85766" lon="6.7543">
        <ele>721.6</ele>
        <time>2020-09-06T19:45:41Z</time>
      </trkpt>
      <trkpt lat="47.85763" lon="6.75411">
        <ele>719.7</ele>
        <time>2020-09-06T19:45:41Z</time>
      </trkpt>
      <trkpt lat="47.85758" lon="6.75387">
        <ele>718.9</ele>
        <time>2020-09-06T19:45:41Z</time>
      </trkpt>
      <trkpt lat="47.85755" lon="6.7537">
        <ele>717.6</ele>
        <time>2020-09-06T19:45:41Z</time>
      </trkpt>
      <trkpt lat="47.85752" lon="6.75349">
        <ele>716.9</ele>
        <time>2020-09-06T19:45:41Z</time>
      </trkpt>
      <trkpt lat="47.85752" lon="6.75339">
        <ele>716.4</ele>
        <time>2020-09-06T19:45:41Z</time>
      </trkpt>
      <trkpt lat="47.85753" lon="6.75322">
        <ele>715.5</ele>
        <time>2020-09-06T19:45:41Z</time>
      </trkpt>
      <trkpt lat="47.85755" lon="6.75312">
        <ele>715.2</ele>
        <time>2020-09-06T19:45:41Z</time>
      </trkpt>
      <trkpt lat="47.85758" lon="6.75301">
        <ele>715</ele>
        <time>2020-09-06T19:45:41Z</time>
      </trkpt>
      <trkpt lat="47.85763" lon="6.75293">
        <ele>714.7</ele>
        <time>2020-09-06T19:45:41Z</time>
      </trkpt>
      <trkpt lat="47.85769" lon="6.75286">
        <ele>715</ele>
        <time>2020-09-06T19:45:41Z</time>
      </trkpt>
      <trkpt lat="47.85781" lon="6.75273">
        <ele>714</ele>
        <time>2020-09-06T19:45:41Z</time>
      </trkpt>
      <trkpt lat="47.85792" lon="6.7526">
        <ele>713.5</ele>
        <time>2020-09-06T19:45:41Z</time>
      </trkpt>
      <trkpt lat="47.85798" lon="6.7525">
        <ele>713.1</ele>
        <time>2020-09-06T19:45:41Z</time>
      </trkpt>
      <trkpt lat="47.85803" lon="6.75239">
        <ele>712.9</ele>
        <time>2020-09-06T19:45:41Z</time>
      </trkpt>
      <trkpt lat="47.85809" lon="6.75222">
        <ele>712.6</ele>
        <time>2020-09-06T19:45:41Z</time>
      </trkpt>
      <trkpt lat="47.85812" lon="6.75213">
        <ele>713</ele>
        <time>2020-09-06T19:45:41Z</time>
      </trkpt>
      <trkpt lat="47.85816" lon="6.75207">
        <ele>711.7</ele>
        <time>2020-09-06T19:45:41Z</time>
      </trkpt>
      <trkpt lat="47.85821" lon="6.75198">
        <ele>711.2</ele>
        <time>2020-09-06T19:45:41Z</time>
      </trkpt>
      <trkpt lat="47.85827" lon="6.75191">
        <ele>710.9</ele>
        <time>2020-09-06T19:45:41Z</time>
      </trkpt>
      <trkpt lat="47.8583" lon="6.75184">
        <ele>711.1</ele>
        <time>2020-09-06T19:45:41Z</time>
      </trkpt>
      <trkpt lat="47.85834" lon="6.75174">
        <ele>711.5</ele>
        <time>2020-09-06T19:45:41Z</time>
      </trkpt>
      <trkpt lat="47.85835" lon="6.75167">
        <ele>711.5</ele>
        <time>2020-09-06T19:45:41Z</time>
      </trkpt>
      <trkpt lat="47.85833" lon="6.75158">
        <ele>710.4</ele>
        <time>2020-09-06T19:45:41Z</time>
      </trkpt>
      <trkpt lat="47.85828" lon="6.75145">
        <ele>711.8</ele>
        <time>2020-09-06T19:45:41Z</time>
      </trkpt>
      <trkpt lat="47.85818" lon="6.75131">
        <ele>712.9</ele>
        <time>2020-09-06T19:45:41Z</time>
      </trkpt>
      <trkpt lat="47.85808" lon="6.75121">
        <ele>713.3</ele>
        <time>2020-09-06T19:45:41Z</time>
      </trkpt>
      <trkpt lat="47.85796" lon="6.75112">
        <ele>713.9</ele>
        <time>2020-09-06T19:45:41Z</time>
      </trkpt>
      <trkpt lat="47.85789" lon="6.75104">
        <ele>714.4</ele>
        <time>2020-09-06T19:45:41Z</time>
      </trkpt>
      <trkpt lat="47.85784" lon="6.75097">
        <ele>714.4</ele>
        <time>2020-09-06T19:45:41Z</time>
      </trkpt>
      <trkpt lat="47.85783" lon="6.75087">
        <ele>715.1</ele>
        <time>2020-09-06T19:45:41Z</time>
      </trkpt>
      <trkpt lat="47.85783" lon="6.75067">
        <ele>715.1</ele>
        <time>2020-09-06T19:45:41Z</time>
      </trkpt>
      <trkpt lat="47.85783" lon="6.75054">
        <ele>715.6</ele>
        <time>2020-09-06T19:45:41Z</time>
      </trkpt>
      <trkpt lat="47.8578" lon="6.75038">
        <ele>715.6</ele>
        <time>2020-09-06T19:45:41Z</time>
      </trkpt>
      <trkpt lat="47.85776" lon="6.75029">
        <ele>715.6</ele>
        <time>2020-09-06T19:45:41Z</time>
      </trkpt>
      <trkpt lat="47.85771" lon="6.75022">
        <ele>715.6</ele>
        <time>2020-09-06T19:45:41Z</time>
      </trkpt>
      <trkpt lat="47.85766" lon="6.75015">
        <ele>715.8</ele>
        <time>2020-09-06T19:45:41Z</time>
      </trkpt>
      <trkpt lat="47.85759" lon="6.7501">
        <ele>714.5</ele>
        <time>2020-09-06T19:45:41Z</time>
      </trkpt>
      <trkpt lat="47.85754" lon="6.75007">
        <ele>714.2</ele>
        <time>2020-09-06T19:45:41Z</time>
      </trkpt>
      <trkpt lat="47.85748" lon="6.75001">
        <ele>714</ele>
        <time>2020-09-06T19:45:41Z</time>
      </trkpt>
      <trkpt lat="47.85741" lon="6.74992">
        <ele>712.6</ele>
        <time>2020-09-06T19:45:41Z</time>
      </trkpt>
      <trkpt lat="47.85737" lon="6.74984">
        <ele>711.9</ele>
        <time>2020-09-06T19:45:41Z</time>
      </trkpt>
      <trkpt lat="47.85734" lon="6.74971">
        <ele>710.8</ele>
        <time>2020-09-06T19:45:41Z</time>
      </trkpt>
      <trkpt lat="47.85733" lon="6.74961">
        <ele>710</ele>
        <time>2020-09-06T19:45:41Z</time>
      </trkpt>
      <trkpt lat="47.85734" lon="6.74952">
        <ele>709.8</ele>
        <time>2020-09-06T19:45:41Z</time>
      </trkpt>
      <trkpt lat="47.85736" lon="6.7494">
        <ele>709.3</ele>
        <time>2020-09-06T19:45:41Z</time>
      </trkpt>
      <trkpt lat="47.8574" lon="6.74928">
        <ele>708.3</ele>
        <time>2020-09-06T19:45:41Z</time>
      </trkpt>
      <trkpt lat="47.85749" lon="6.74908">
        <ele>706.8</ele>
        <time>2020-09-06T19:45:41Z</time>
      </trkpt>
      <trkpt lat="47.85756" lon="6.74892">
        <ele>705.7</ele>
        <time>2020-09-06T19:45:41Z</time>
      </trkpt>
      <trkpt lat="47.85764" lon="6.74879">
        <ele>704.6</ele>
        <time>2020-09-06T19:45:41Z</time>
      </trkpt>
      <trkpt lat="47.85769" lon="6.74872">
        <ele>703.7</ele>
        <time>2020-09-06T19:45:41Z</time>
      </trkpt>
      <trkpt lat="47.85777" lon="6.74866">
        <ele>703.2</ele>
        <time>2020-09-06T19:45:41Z</time>
      </trkpt>
      <trkpt lat="47.85784" lon="6.74865">
        <ele>702</ele>
        <time>2020-09-06T19:45:41Z</time>
      </trkpt>
      <trkpt lat="47.85793" lon="6.74864">
        <ele>701.3</ele>
        <time>2020-09-06T19:45:41Z</time>
      </trkpt>
      <trkpt lat="47.85799" lon="6.74862">
        <ele>701.1</ele>
        <time>2020-09-06T19:45:41Z</time>
      </trkpt>
      <trkpt lat="47.85807" lon="6.74856">
        <ele>699.1</ele>
        <time>2020-09-06T19:45:41Z</time>
      </trkpt>
      <trkpt lat="47.85814" lon="6.74848">
        <ele>699.2</ele>
        <time>2020-09-06T19:45:41Z</time>
      </trkpt>
      <trkpt lat="47.85817" lon="6.74838">
        <ele>698.8</ele>
        <time>2020-09-06T19:45:41Z</time>
      </trkpt>
      <trkpt lat="47.85821" lon="6.74822">
        <ele>697.8</ele>
        <time>2020-09-06T19:45:41Z</time>
      </trkpt>
      <trkpt lat="47.85823" lon="6.74806">
        <ele>696.9</ele>
        <time>2020-09-06T19:45:41Z</time>
      </trkpt>
      <trkpt lat="47.85823" lon="6.74796">
        <ele>696.1</ele>
        <time>2020-09-06T19:45:41Z</time>
      </trkpt>
      <trkpt lat="47.85821" lon="6.74781">
        <ele>695.6</ele>
        <time>2020-09-06T19:45:41Z</time>
      </trkpt>
      <trkpt lat="47.85818" lon="6.74764">
        <ele>694.4</ele>
        <time>2020-09-06T19:45:41Z</time>
      </trkpt>
      <trkpt lat="47.85819" lon="6.74754">
        <ele>694</ele>
        <time>2020-09-06T19:45:41Z</time>
      </trkpt>
      <trkpt lat="47.85823" lon="6.74747">
        <ele>693.3</ele>
        <time>2020-09-06T19:45:41Z</time>
      </trkpt>
      <trkpt lat="47.8583" lon="6.74738">
        <ele>692.5</ele>
        <time>2020-09-06T19:45:41Z</time>
      </trkpt>
      <trkpt lat="47.85836" lon="6.74734">
        <ele>691.9</ele>
        <time>2020-09-06T19:45:41Z</time>
      </trkpt>
      <trkpt lat="47.85843" lon="6.74734">
        <ele>691</ele>
        <time>2020-09-06T19:45:41Z</time>
      </trkpt>
      <trkpt lat="47.85858" lon="6.74734">
        <ele>689.9</ele>
        <time>2020-09-06T19:45:41Z</time>
      </trkpt>
      <trkpt lat="47.85871" lon="6.74735">
        <ele>688.8</ele>
        <time>2020-09-06T19:45:41Z</time>
      </trkpt>
      <trkpt lat="47.85879" lon="6.74733">
        <ele>688.1</ele>
        <time>2020-09-06T19:45:41Z</time>
      </trkpt>
      <trkpt lat="47.8589" lon="6.74729">
        <ele>686.9</ele>
        <time>2020-09-06T19:45:41Z</time>
      </trkpt>
      <trkpt lat="47.85909" lon="6.74722">
        <ele>685.1</ele>
        <time>2020-09-06T19:45:41Z</time>
      </trkpt>
      <trkpt lat="47.85918" lon="6.74718">
        <ele>684.3</ele>
        <time>2020-09-06T19:45:41Z</time>
      </trkpt>
      <trkpt lat="47.85933" lon="6.74715">
        <ele>682.9</ele>
        <time>2020-09-06T19:45:41Z</time>
      </trkpt>
      <trkpt lat="47.85942" lon="6.74715">
        <ele>682.1</ele>
        <time>2020-09-06T19:45:41Z</time>
      </trkpt>
      <trkpt lat="47.85958" lon="6.74718">
        <ele>680</ele>
        <time>2020-09-06T19:45:41Z</time>
      </trkpt>
      <trkpt lat="47.85979" lon="6.74722">
        <ele>679.4</ele>
        <time>2020-09-06T19:45:41Z</time>
      </trkpt>
      <trkpt lat="47.85985" lon="6.74723">
        <ele>679</ele>
        <time>2020-09-06T19:45:41Z</time>
      </trkpt>
      <trkpt lat="47.85991" lon="6.74722">
        <ele>678.6</ele>
        <time>2020-09-06T19:45:41Z</time>
      </trkpt>
      <trkpt lat="47.85998" lon="6.74715">
        <ele>678.4</ele>
        <time>2020-09-06T19:45:41Z</time>
      </trkpt>
      <trkpt lat="47.86001" lon="6.74709">
        <ele>679.7</ele>
        <time>2020-09-06T19:45:41Z</time>
      </trkpt>
      <trkpt lat="47.85985" lon="6.74709">
        <ele>681.4</ele>
        <time>2020-09-06T19:45:41Z</time>
      </trkpt>
      <trkpt lat="47.86001" lon="6.74709">
        <ele>679.7</ele>
        <time>2020-09-06T19:45:41Z</time>
      </trkpt>
      <trkpt lat="47.86003" lon="6.74701">
        <ele>681.6</ele>
        <time>2020-09-06T19:45:41Z</time>
      </trkpt>
      <trkpt lat="47.86007" lon="6.74695">
        <ele>682.1</ele>
        <time>2020-09-06T19:45:41Z</time>
      </trkpt>
      <trkpt lat="47.86012" lon="6.74691">
        <ele>682.7</ele>
        <time>2020-09-06T19:45:41Z</time>
      </trkpt>
      <trkpt lat="47.86022" lon="6.74687">
        <ele>683.1</ele>
        <time>2020-09-06T19:45:41Z</time>
      </trkpt>
      <trkpt lat="47.86035" lon="6.74679">
        <ele>684.5</ele>
        <time>2020-09-06T19:45:41Z</time>
      </trkpt>
      <trkpt lat="47.86061" lon="6.74666">
        <ele>683.5</ele>
        <time>2020-09-06T19:45:41Z</time>
      </trkpt>
      <trkpt lat="47.86073" lon="6.74656">
        <ele>683.5</ele>
        <time>2020-09-06T19:45:41Z</time>
      </trkpt>
      <trkpt lat="47.86083" lon="6.74643">
        <ele>682.5</ele>
        <time>2020-09-06T19:45:41Z</time>
      </trkpt>
      <trkpt lat="47.8609" lon="6.7463">
        <ele>683.8</ele>
        <time>2020-09-06T19:45:41Z</time>
      </trkpt>
      <trkpt lat="47.86096" lon="6.74614">
        <ele>683.7</ele>
        <time>2020-09-06T19:45:41Z</time>
      </trkpt>
      <trkpt lat="47.86103" lon="6.74591">
        <ele>685.7</ele>
        <time>2020-09-06T19:45:41Z</time>
      </trkpt>
      <trkpt lat="47.86111" lon="6.74562">
        <ele>686</ele>
        <time>2020-09-06T19:45:41Z</time>
      </trkpt>
      <trkpt lat="47.86115" lon="6.74542">
        <ele>686</ele>
        <time>2020-09-06T19:45:41Z</time>
      </trkpt>
      <trkpt lat="47.86118" lon="6.74524">
        <ele>685.1</ele>
        <time>2020-09-06T19:45:41Z</time>
      </trkpt>
      <trkpt lat="47.8612" lon="6.74509">
        <ele>685.8</ele>
        <time>2020-09-06T19:45:41Z</time>
      </trkpt>
      <trkpt lat="47.8612" lon="6.74492">
        <ele>686.6</ele>
        <time>2020-09-06T19:45:41Z</time>
      </trkpt>
      <trkpt lat="47.8612" lon="6.74474">
        <ele>687.3</ele>
        <time>2020-09-06T19:45:41Z</time>
      </trkpt>
      <trkpt lat="47.8612" lon="6.74459">
        <ele>687.7</ele>
        <time>2020-09-06T19:45:41Z</time>
      </trkpt>
      <trkpt lat="47.8612" lon="6.74439">
        <ele>687.7</ele>
        <time>2020-09-06T19:45:41Z</time>
      </trkpt>
      <trkpt lat="47.86121" lon="6.74417">
        <ele>685.4</ele>
        <time>2020-09-06T19:45:41Z</time>
      </trkpt>
      <trkpt lat="47.86124" lon="6.74352">
        <ele>686.6</ele>
        <time>2020-09-06T19:45:41Z</time>
      </trkpt>
      <trkpt lat="47.86125" lon="6.74333">
        <ele>687.6</ele>
        <time>2020-09-06T19:45:41Z</time>
      </trkpt>
      <trkpt lat="47.86128" lon="6.74317">
        <ele>686.8</ele>
        <time>2020-09-06T19:45:41Z</time>
      </trkpt>
      <trkpt lat="47.86132" lon="6.74302">
        <ele>686.2</ele>
        <time>2020-09-06T19:45:41Z</time>
      </trkpt>
      <trkpt lat="47.86136" lon="6.74287">
        <ele>684.9</ele>
        <time>2020-09-06T19:45:41Z</time>
      </trkpt>
      <trkpt lat="47.86139" lon="6.74273">
        <ele>683.4</ele>
        <time>2020-09-06T19:45:41Z</time>
      </trkpt>
      <trkpt lat="47.86146" lon="6.74248">
        <ele>682.3</ele>
        <time>2020-09-06T19:45:41Z</time>
      </trkpt>
      <trkpt lat="47.86156" lon="6.74216">
        <ele>679.9</ele>
        <time>2020-09-06T19:45:41Z</time>
      </trkpt>
      <trkpt lat="47.86174" lon="6.74158">
        <ele>680</ele>
        <time>2020-09-06T19:45:41Z</time>
      </trkpt>
      <trkpt lat="47.86181" lon="6.74136">
        <ele>681.3</ele>
        <time>2020-09-06T19:45:41Z</time>
      </trkpt>
      <trkpt lat="47.86185" lon="6.7412">
        <ele>682.3</ele>
        <time>2020-09-06T19:45:41Z</time>
      </trkpt>
      <trkpt lat="47.86187" lon="6.74108">
        <ele>683.4</ele>
        <time>2020-09-06T19:45:41Z</time>
      </trkpt>
      <trkpt lat="47.86188" lon="6.74097">
        <ele>684.5</ele>
        <time>2020-09-06T19:45:41Z</time>
      </trkpt>
      <trkpt lat="47.86188" lon="6.74087">
        <ele>685.5</ele>
        <time>2020-09-06T19:45:41Z</time>
      </trkpt>
      <trkpt lat="47.86187" lon="6.74075">
        <ele>687</ele>
        <time>2020-09-06T19:45:41Z</time>
      </trkpt>
      <trkpt lat="47.86185" lon="6.74064">
        <ele>687.5</ele>
        <time>2020-09-06T19:45:41Z</time>
      </trkpt>
      <trkpt lat="47.86184" lon="6.74058">
        <ele>689.7</ele>
        <time>2020-09-06T19:45:41Z</time>
      </trkpt>
      <trkpt lat="47.8618" lon="6.74049">
        <ele>691.1</ele>
        <time>2020-09-06T19:45:41Z</time>
      </trkpt>
      <trkpt lat="47.86175" lon="6.74041">
        <ele>692.4</ele>
        <time>2020-09-06T19:45:41Z</time>
      </trkpt>
      <trkpt lat="47.8617" lon="6.74036">
        <ele>692.7</ele>
        <time>2020-09-06T19:45:41Z</time>
      </trkpt>
      <trkpt lat="47.86152" lon="6.74023">
        <ele>693.6</ele>
        <time>2020-09-06T19:45:41Z</time>
      </trkpt>
      <trkpt lat="47.86142" lon="6.74016">
        <ele>692.5</ele>
        <time>2020-09-06T19:45:41Z</time>
      </trkpt>
      <trkpt lat="47.86133" lon="6.74009">
        <ele>692.9</ele>
        <time>2020-09-06T19:45:41Z</time>
      </trkpt>
      <trkpt lat="47.86125" lon="6.74003">
        <ele>692.1</ele>
        <time>2020-09-06T19:45:41Z</time>
      </trkpt>
      <trkpt lat="47.86121" lon="6.73997">
        <ele>693.8</ele>
        <time>2020-09-06T19:45:41Z</time>
      </trkpt>
      <trkpt lat="47.8612" lon="6.73986">
        <ele>693.6</ele>
        <time>2020-09-06T19:45:41Z</time>
      </trkpt>
      <trkpt lat="47.86121" lon="6.73978">
        <ele>695.7</ele>
        <time>2020-09-06T19:45:41Z</time>
      </trkpt>
      <trkpt lat="47.86124" lon="6.73968">
        <ele>696.9</ele>
        <time>2020-09-06T19:45:41Z</time>
      </trkpt>
      <trkpt lat="47.86129" lon="6.73952">
        <ele>699.2</ele>
        <time>2020-09-06T19:45:41Z</time>
      </trkpt>
      <trkpt lat="47.86132" lon="6.73935">
        <ele>702.1</ele>
        <time>2020-09-06T19:45:41Z</time>
      </trkpt>
      <trkpt lat="47.86133" lon="6.73926">
        <ele>702.7</ele>
        <time>2020-09-06T19:45:41Z</time>
      </trkpt>
      <trkpt lat="47.86132" lon="6.73915">
        <ele>703.5</ele>
        <time>2020-09-06T19:45:41Z</time>
      </trkpt>
      <trkpt lat="47.86131" lon="6.739">
        <ele>704.1</ele>
        <time>2020-09-06T19:45:41Z</time>
      </trkpt>
      <trkpt lat="47.8613" lon="6.73887">
        <ele>704.6</ele>
        <time>2020-09-06T19:45:41Z</time>
      </trkpt>
      <trkpt lat="47.8613" lon="6.73873">
        <ele>705.1</ele>
        <time>2020-09-06T19:45:41Z</time>
      </trkpt>
      <trkpt lat="47.86131" lon="6.7386">
        <ele>705.5</ele>
        <time>2020-09-06T19:45:41Z</time>
      </trkpt>
      <trkpt lat="47.86133" lon="6.73835">
        <ele>706.1</ele>
        <time>2020-09-06T19:45:41Z</time>
      </trkpt>
      <trkpt lat="47.86132" lon="6.73826">
        <ele>706.4</ele>
        <time>2020-09-06T19:45:41Z</time>
      </trkpt>
      <trkpt lat="47.86129" lon="6.73816">
        <ele>705.5</ele>
        <time>2020-09-06T19:45:41Z</time>
      </trkpt>
      <trkpt lat="47.86124" lon="6.73805">
        <ele>705.6</ele>
        <time>2020-09-06T19:45:41Z</time>
      </trkpt>
      <trkpt lat="47.86101" lon="6.73759">
        <ele>705.5</ele>
        <time>2020-09-06T19:45:41Z</time>
      </trkpt>
      <trkpt lat="47.86098" lon="6.73748">
        <ele>704.4</ele>
        <time>2020-09-06T19:45:41Z</time>
      </trkpt>
      <trkpt lat="47.86097" lon="6.73738">
        <ele>704.3</ele>
        <time>2020-09-06T19:45:41Z</time>
      </trkpt>
      <trkpt lat="47.86097" lon="6.7373">
        <ele>704.1</ele>
        <time>2020-09-06T19:45:41Z</time>
      </trkpt>
      <trkpt lat="47.86099" lon="6.73722">
        <ele>703.5</ele>
        <time>2020-09-06T19:45:41Z</time>
      </trkpt>
      <trkpt lat="47.86102" lon="6.73717">
        <ele>703.6</ele>
        <time>2020-09-06T19:45:41Z</time>
      </trkpt>
      <trkpt lat="47.86108" lon="6.73714">
        <ele>703.7</ele>
        <time>2020-09-06T19:45:41Z</time>
      </trkpt>
      <trkpt lat="47.86113" lon="6.73714">
        <ele>704.3</ele>
        <time>2020-09-06T19:45:41Z</time>
      </trkpt>
      <trkpt lat="47.86119" lon="6.73716">
        <ele>705</ele>
        <time>2020-09-06T19:45:41Z</time>
      </trkpt>
      <trkpt lat="47.86125" lon="6.7372">
        <ele>705.7</ele>
        <time>2020-09-06T19:45:41Z</time>
      </trkpt>
      <trkpt lat="47.86131" lon="6.73727">
        <ele>706.4</ele>
        <time>2020-09-06T19:45:41Z</time>
      </trkpt>
      <trkpt lat="47.86137" lon="6.73738">
        <ele>707.9</ele>
        <time>2020-09-06T19:45:41Z</time>
      </trkpt>
      <trkpt lat="47.86158" lon="6.73769">
        <ele>712.3</ele>
        <time>2020-09-06T19:45:41Z</time>
      </trkpt>
      <trkpt lat="47.86167" lon="6.73778">
        <ele>714.8</ele>
        <time>2020-09-06T19:45:41Z</time>
      </trkpt>
      <trkpt lat="47.86174" lon="6.73782">
        <ele>717.3</ele>
        <time>2020-09-06T19:45:41Z</time>
      </trkpt>
      <trkpt lat="47.86179" lon="6.73782">
        <ele>718.4</ele>
        <time>2020-09-06T19:45:41Z</time>
      </trkpt>
      <trkpt lat="47.86185" lon="6.7378">
        <ele>719.5</ele>
        <time>2020-09-06T19:45:41Z</time>
      </trkpt>
      <trkpt lat="47.86191" lon="6.73776">
        <ele>720.7</ele>
        <time>2020-09-06T19:45:41Z</time>
      </trkpt>
      <trkpt lat="47.862" lon="6.73769">
        <ele>720.7</ele>
        <time>2020-09-06T19:45:41Z</time>
      </trkpt>
      <trkpt lat="47.86209" lon="6.73764">
        <ele>721.6</ele>
        <time>2020-09-06T19:45:41Z</time>
      </trkpt>
      <trkpt lat="47.86219" lon="6.7376">
        <ele>722.5</ele>
        <time>2020-09-06T19:45:41Z</time>
      </trkpt>
      <trkpt lat="47.86229" lon="6.73759">
        <ele>723.4</ele>
        <time>2020-09-06T19:45:41Z</time>
      </trkpt>
      <trkpt lat="47.86238" lon="6.7376">
        <ele>723.8</ele>
        <time>2020-09-06T19:45:41Z</time>
      </trkpt>
      <trkpt lat="47.86246" lon="6.73761">
        <ele>723.9</ele>
        <time>2020-09-06T19:45:41Z</time>
      </trkpt>
      <trkpt lat="47.86254" lon="6.7376">
        <ele>723.9</ele>
        <time>2020-09-06T19:45:41Z</time>
      </trkpt>
      <trkpt lat="47.8626" lon="6.73758">
        <ele>723.9</ele>
        <time>2020-09-06T19:45:41Z</time>
      </trkpt>
      <trkpt lat="47.86265" lon="6.73754">
        <ele>723.5</ele>
        <time>2020-09-06T19:45:41Z</time>
      </trkpt>
      <trkpt lat="47.86273" lon="6.73746">
        <ele>723.1</ele>
        <time>2020-09-06T19:45:41Z</time>
      </trkpt>
      <trkpt lat="47.8629" lon="6.73729">
        <ele>723.9</ele>
        <time>2020-09-06T19:45:41Z</time>
      </trkpt>
      <trkpt lat="47.86309" lon="6.73712">
        <ele>726.6</ele>
        <time>2020-09-06T19:45:41Z</time>
      </trkpt>
      <trkpt lat="47.86318" lon="6.73706">
        <ele>728.6</ele>
        <time>2020-09-06T19:45:41Z</time>
      </trkpt>
      <trkpt lat="47.86328" lon="6.73703">
        <ele>730.2</ele>
        <time>2020-09-06T19:45:41Z</time>
      </trkpt>
      <trkpt lat="47.86348" lon="6.73698">
        <ele>732.5</ele>
        <time>2020-09-06T19:45:41Z</time>
      </trkpt>
      <trkpt lat="47.86376" lon="6.73693">
        <ele>735.3</ele>
        <time>2020-09-06T19:45:41Z</time>
      </trkpt>
      <trkpt lat="47.86393" lon="6.73689">
        <ele>736.4</ele>
        <time>2020-09-06T19:45:41Z</time>
      </trkpt>
      <trkpt lat="47.86406" lon="6.73687">
        <ele>736.8</ele>
        <time>2020-09-06T19:45:41Z</time>
      </trkpt>
      <trkpt lat="47.86416" lon="6.73688">
        <ele>737.3</ele>
        <time>2020-09-06T19:45:41Z</time>
      </trkpt>
      <trkpt lat="47.86426" lon="6.7369">
        <ele>737.6</ele>
        <time>2020-09-06T19:45:41Z</time>
      </trkpt>
      <trkpt lat="47.86441" lon="6.73695">
        <ele>738.4</ele>
        <time>2020-09-06T19:45:41Z</time>
      </trkpt>
      <trkpt lat="47.86463" lon="6.73704">
        <ele>740.2</ele>
        <time>2020-09-06T19:45:41Z</time>
      </trkpt>
      <trkpt lat="47.86495" lon="6.73718">
        <ele>743.8</ele>
        <time>2020-09-06T19:45:41Z</time>
      </trkpt>
      <trkpt lat="47.86519" lon="6.73729">
        <ele>744.5</ele>
        <time>2020-09-06T19:45:41Z</time>
      </trkpt>
      <trkpt lat="47.86531" lon="6.73733">
        <ele>744.9</ele>
        <time>2020-09-06T19:45:41Z</time>
      </trkpt>
      <trkpt lat="47.86538" lon="6.73734">
        <ele>745.4</ele>
        <time>2020-09-06T19:45:41Z</time>
      </trkpt>
      <trkpt lat="47.86542" lon="6.73733">
        <ele>745.5</ele>
        <time>2020-09-06T19:45:41Z</time>
      </trkpt>
      <trkpt lat="47.86548" lon="6.73731">
        <ele>746.2</ele>
        <time>2020-09-06T19:45:41Z</time>
      </trkpt>
      <trkpt lat="47.86552" lon="6.73728">
        <ele>746.2</ele>
        <time>2020-09-06T19:45:41Z</time>
      </trkpt>
      <trkpt lat="47.86556" lon="6.73722">
        <ele>747.2</ele>
        <time>2020-09-06T19:45:41Z</time>
      </trkpt>
      <trkpt lat="47.8656" lon="6.73715">
        <ele>747.8</ele>
        <time>2020-09-06T19:45:41Z</time>
      </trkpt>
      <trkpt lat="47.86562" lon="6.73708">
        <ele>748.1</ele>
        <time>2020-09-06T19:45:41Z</time>
      </trkpt>
      <trkpt lat="47.86564" lon="6.73698">
        <ele>748.5</ele>
        <time>2020-09-06T19:45:41Z</time>
      </trkpt>
      <trkpt lat="47.86564" lon="6.7369">
        <ele>749</ele>
        <time>2020-09-06T19:45:41Z</time>
      </trkpt>
      <trkpt lat="47.86564" lon="6.73681">
        <ele>749.1</ele>
        <time>2020-09-06T19:45:41Z</time>
      </trkpt>
      <trkpt lat="47.86563" lon="6.7367">
        <ele>749.2</ele>
        <time>2020-09-06T19:45:41Z</time>
      </trkpt>
      <trkpt lat="47.86561" lon="6.7366">
        <ele>749.5</ele>
        <time>2020-09-06T19:45:41Z</time>
      </trkpt>
      <trkpt lat="47.86558" lon="6.73651">
        <ele>750</ele>
        <time>2020-09-06T19:45:41Z</time>
      </trkpt>
      <trkpt lat="47.86555" lon="6.73642">
        <ele>750.5</ele>
        <time>2020-09-06T19:45:41Z</time>
      </trkpt>
      <trkpt lat="47.86542" lon="6.73623">
        <ele>752</ele>
        <time>2020-09-06T19:45:41Z</time>
      </trkpt>
      <trkpt lat="47.86525" lon="6.73595">
        <ele>754.6</ele>
        <time>2020-09-06T19:45:41Z</time>
      </trkpt>
      <trkpt lat="47.8651" lon="6.73572">
        <ele>755.6</ele>
        <time>2020-09-06T19:45:41Z</time>
      </trkpt>
      <trkpt lat="47.86506" lon="6.7356">
        <ele>756</ele>
        <time>2020-09-06T19:45:41Z</time>
      </trkpt>
      <trkpt lat="47.86504" lon="6.73551">
        <ele>756.5</ele>
        <time>2020-09-06T19:45:41Z</time>
      </trkpt>
      <trkpt lat="47.86504" lon="6.73542">
        <ele>756.9</ele>
        <time>2020-09-06T19:45:41Z</time>
      </trkpt>
      <trkpt lat="47.86506" lon="6.73531">
        <ele>757.3</ele>
        <time>2020-09-06T19:45:41Z</time>
      </trkpt>
      <trkpt lat="47.86508" lon="6.73523">
        <ele>757.9</ele>
        <time>2020-09-06T19:45:41Z</time>
      </trkpt>
      <trkpt lat="47.86512" lon="6.73509">
        <ele>758.3</ele>
        <time>2020-09-06T19:45:41Z</time>
      </trkpt>
      <trkpt lat="47.86519" lon="6.73481">
        <ele>758</ele>
        <time>2020-09-06T19:45:41Z</time>
      </trkpt>
      <trkpt lat="47.86521" lon="6.73464">
        <ele>756.8</ele>
        <time>2020-09-06T19:45:41Z</time>
      </trkpt>
      <trkpt lat="47.86524" lon="6.73444">
        <ele>755.5</ele>
        <time>2020-09-06T19:45:41Z</time>
      </trkpt>
      <trkpt lat="47.86529" lon="6.7338">
        <ele>751.9</ele>
        <time>2020-09-06T19:45:41Z</time>
      </trkpt>
      <trkpt lat="47.86533" lon="6.73318">
        <ele>752.4</ele>
        <time>2020-09-06T19:45:41Z</time>
      </trkpt>
      <trkpt lat="47.86535" lon="6.73295">
        <ele>753.9</ele>
        <time>2020-09-06T19:45:41Z</time>
      </trkpt>
      <trkpt lat="47.86537" lon="6.73285">
        <ele>754.9</ele>
        <time>2020-09-06T19:45:41Z</time>
      </trkpt>
      <trkpt lat="47.86541" lon="6.73276">
        <ele>755.4</ele>
        <time>2020-09-06T19:45:41Z</time>
      </trkpt>
      <trkpt lat="47.86556" lon="6.73246">
        <ele>755.9</ele>
        <time>2020-09-06T19:45:41Z</time>
      </trkpt>
      <trkpt lat="47.86575" lon="6.73203">
        <ele>755.8</ele>
        <time>2020-09-06T19:45:41Z</time>
      </trkpt>
      <trkpt lat="47.86589" lon="6.73173">
        <ele>755.6</ele>
        <time>2020-09-06T19:45:41Z</time>
      </trkpt>
      <trkpt lat="47.86602" lon="6.73145">
        <ele>755.4</ele>
        <time>2020-09-06T19:45:41Z</time>
      </trkpt>
      <trkpt lat="47.86611" lon="6.73121">
        <ele>755.3</ele>
        <time>2020-09-06T19:45:41Z</time>
      </trkpt>
      <trkpt lat="47.86614" lon="6.73108">
        <ele>756</ele>
        <time>2020-09-06T19:45:41Z</time>
      </trkpt>
      <trkpt lat="47.86616" lon="6.73097">
        <ele>755.6</ele>
        <time>2020-09-06T19:45:41Z</time>
      </trkpt>
      <trkpt lat="47.86618" lon="6.73081">
        <ele>756.5</ele>
        <time>2020-09-06T19:45:41Z</time>
      </trkpt>
      <trkpt lat="47.8662" lon="6.73072">
        <ele>756.2</ele>
        <time>2020-09-06T19:45:41Z</time>
      </trkpt>
      <trkpt lat="47.86624" lon="6.73065">
        <ele>756</ele>
        <time>2020-09-06T19:45:41Z</time>
      </trkpt>
      <trkpt lat="47.86629" lon="6.73059">
        <ele>755.9</ele>
        <time>2020-09-06T19:45:41Z</time>
      </trkpt>
      <trkpt lat="47.86636" lon="6.73055">
        <ele>755.5</ele>
        <time>2020-09-06T19:45:41Z</time>
      </trkpt>
      <trkpt lat="47.86645" lon="6.73053">
        <ele>755.3</ele>
        <time>2020-09-06T19:45:41Z</time>
      </trkpt>
      <trkpt lat="47.86665" lon="6.73049">
        <ele>755.5</ele>
        <time>2020-09-06T19:45:41Z</time>
      </trkpt>
      <trkpt lat="47.86686" lon="6.73046">
        <ele>755.8</ele>
        <time>2020-09-06T19:45:41Z</time>
      </trkpt>
      <trkpt lat="47.86691" lon="6.73045">
        <ele>756.4</ele>
        <time>2020-09-06T19:45:41Z</time>
      </trkpt>
      <trkpt lat="47.86722" lon="6.73039">
        <ele>757.9</ele>
        <time>2020-09-06T19:45:41Z</time>
      </trkpt>
      <trkpt lat="47.86765" lon="6.73031">
        <ele>757.8</ele>
        <time>2020-09-06T19:45:41Z</time>
      </trkpt>
      <trkpt lat="47.86784" lon="6.73026">
        <ele>757.4</ele>
        <time>2020-09-06T19:45:41Z</time>
      </trkpt>
      <trkpt lat="47.86793" lon="6.73023">
        <ele>757.1</ele>
        <time>2020-09-06T19:45:41Z</time>
      </trkpt>
      <trkpt lat="47.86801" lon="6.73018">
        <ele>756.9</ele>
        <time>2020-09-06T19:45:41Z</time>
      </trkpt>
      <trkpt lat="47.8681" lon="6.73012">
        <ele>756.7</ele>
        <time>2020-09-06T19:45:41Z</time>
      </trkpt>
      <trkpt lat="47.86819" lon="6.73003">
        <ele>756.5</ele>
        <time>2020-09-06T19:45:41Z</time>
      </trkpt>
      <trkpt lat="47.86837" lon="6.72983">
        <ele>757.1</ele>
        <time>2020-09-06T19:45:41Z</time>
      </trkpt>
      <trkpt lat="47.8687" lon="6.72945">
        <ele>757.7</ele>
        <time>2020-09-06T19:45:41Z</time>
      </trkpt>
      <trkpt lat="47.86878" lon="6.72934">
        <ele>757.6</ele>
        <time>2020-09-06T19:45:41Z</time>
      </trkpt>
      <trkpt lat="47.86882" lon="6.72923">
        <ele>757.8</ele>
        <time>2020-09-06T19:45:41Z</time>
      </trkpt>
      <trkpt lat="47.86886" lon="6.7291">
        <ele>758.2</ele>
        <time>2020-09-06T19:45:41Z</time>
      </trkpt>
      <trkpt lat="47.86888" lon="6.72894">
        <ele>758.4</ele>
        <time>2020-09-06T19:45:41Z</time>
      </trkpt>
      <trkpt lat="47.86892" lon="6.72836">
        <ele>757.4</ele>
        <time>2020-09-06T19:45:41Z</time>
      </trkpt>
      <trkpt lat="47.86893" lon="6.72809">
        <ele>756</ele>
        <time>2020-09-06T19:45:41Z</time>
      </trkpt>
      <trkpt lat="47.86896" lon="6.72785">
        <ele>754.7</ele>
        <time>2020-09-06T19:45:41Z</time>
      </trkpt>
      <trkpt lat="47.86898" lon="6.72772">
        <ele>753.8</ele>
        <time>2020-09-06T19:45:41Z</time>
      </trkpt>
      <trkpt lat="47.86901" lon="6.72763">
        <ele>753.3</ele>
        <time>2020-09-06T19:45:41Z</time>
      </trkpt>
      <trkpt lat="47.86905" lon="6.72756">
        <ele>752.6</ele>
        <time>2020-09-06T19:45:41Z</time>
      </trkpt>
      <trkpt lat="47.8691" lon="6.7275">
        <ele>752.2</ele>
        <time>2020-09-06T19:45:41Z</time>
      </trkpt>
      <trkpt lat="47.86916" lon="6.72746">
        <ele>752</ele>
        <time>2020-09-06T19:45:41Z</time>
      </trkpt>
      <trkpt lat="47.86929" lon="6.72741">
        <ele>752</ele>
        <time>2020-09-06T19:45:41Z</time>
      </trkpt>
      <trkpt lat="47.86937" lon="6.72737">
        <ele>752.2</ele>
        <time>2020-09-06T19:45:41Z</time>
      </trkpt>
      <trkpt lat="47.86943" lon="6.72733">
        <ele>752.3</ele>
        <time>2020-09-06T19:45:41Z</time>
      </trkpt>
      <trkpt lat="47.86947" lon="6.72727">
        <ele>752.3</ele>
        <time>2020-09-06T19:45:41Z</time>
      </trkpt>
      <trkpt lat="47.86951" lon="6.72717">
        <ele>752.3</ele>
        <time>2020-09-06T19:45:41Z</time>
      </trkpt>
      <trkpt lat="47.86952" lon="6.72706">
        <ele>752.1</ele>
        <time>2020-09-06T19:45:41Z</time>
      </trkpt>
      <trkpt lat="47.86953" lon="6.72695">
        <ele>752</ele>
        <time>2020-09-06T19:45:41Z</time>
      </trkpt>
      <trkpt lat="47.86954" lon="6.72677">
        <ele>752.1</ele>
        <time>2020-09-06T19:45:41Z</time>
      </trkpt>
      <trkpt lat="47.86952" lon="6.7265">
        <ele>751.8</ele>
        <time>2020-09-06T19:45:41Z</time>
      </trkpt>
      <trkpt lat="47.86951" lon="6.72625">
        <ele>752</ele>
        <time>2020-09-06T19:45:41Z</time>
      </trkpt>
      <trkpt lat="47.8695" lon="6.72599">
        <ele>752.1</ele>
        <time>2020-09-06T19:45:41Z</time>
      </trkpt>
      <trkpt lat="47.86949" lon="6.72574">
        <ele>751.8</ele>
        <time>2020-09-06T19:45:41Z</time>
      </trkpt>
      <trkpt lat="47.86948" lon="6.72558">
        <ele>751.3</ele>
        <time>2020-09-06T19:45:41Z</time>
      </trkpt>
      <trkpt lat="47.86948" lon="6.72546">
        <ele>750.9</ele>
        <time>2020-09-06T19:45:41Z</time>
      </trkpt>
      <trkpt lat="47.86949" lon="6.72523">
        <ele>749.8</ele>
        <time>2020-09-06T19:45:41Z</time>
      </trkpt>
      <trkpt lat="47.86953" lon="6.7251">
        <ele>749.5</ele>
        <time>2020-09-06T19:45:41Z</time>
      </trkpt>
      <trkpt lat="47.86958" lon="6.72495">
        <ele>750</ele>
        <time>2020-09-06T19:45:41Z</time>
      </trkpt>
      <trkpt lat="47.86968" lon="6.7247">
        <ele>749.8</ele>
        <time>2020-09-06T19:45:41Z</time>
      </trkpt>
      <trkpt lat="47.86979" lon="6.7244">
        <ele>749.8</ele>
        <time>2020-09-06T19:45:41Z</time>
      </trkpt>
      <trkpt lat="47.86989" lon="6.72418">
        <ele>750.2</ele>
        <time>2020-09-06T19:45:41Z</time>
      </trkpt>
      <trkpt lat="47.86996" lon="6.72405">
        <ele>750.2</ele>
        <time>2020-09-06T19:45:41Z</time>
      </trkpt>
      <trkpt lat="47.8701" lon="6.72384">
        <ele>750.1</ele>
        <time>2020-09-06T19:45:41Z</time>
      </trkpt>
      <trkpt lat="47.8703" lon="6.72358">
        <ele>750</ele>
        <time>2020-09-06T19:45:41Z</time>
      </trkpt>
      <trkpt lat="47.87047" lon="6.72338">
        <ele>750.6</ele>
        <time>2020-09-06T19:45:41Z</time>
      </trkpt>
      <trkpt lat="47.87058" lon="6.72327">
        <ele>751.4</ele>
        <time>2020-09-06T19:45:41Z</time>
      </trkpt>
      <trkpt lat="47.87064" lon="6.72324">
        <ele>751.8</ele>
        <time>2020-09-06T19:45:41Z</time>
      </trkpt>
      <trkpt lat="47.87071" lon="6.7232">
        <ele>752.7</ele>
        <time>2020-09-06T19:45:41Z</time>
      </trkpt>
      <trkpt lat="47.87091" lon="6.72312">
        <ele>753.7</ele>
        <time>2020-09-06T19:45:41Z</time>
      </trkpt>
      <trkpt lat="47.87115" lon="6.72303">
        <ele>755</ele>
        <time>2020-09-06T19:45:41Z</time>
      </trkpt>
      <trkpt lat="47.87129" lon="6.72297">
        <ele>754.8</ele>
        <time>2020-09-06T19:45:41Z</time>
      </trkpt>
      <trkpt lat="47.87139" lon="6.72291">
        <ele>754.3</ele>
        <time>2020-09-06T19:45:41Z</time>
      </trkpt>
      <trkpt lat="47.87147" lon="6.72285">
        <ele>754.4</ele>
        <time>2020-09-06T19:45:41Z</time>
      </trkpt>
      <trkpt lat="47.87155" lon="6.72278">
        <ele>754.3</ele>
        <time>2020-09-06T19:45:41Z</time>
      </trkpt>
      <trkpt lat="47.87161" lon="6.72269">
        <ele>754.1</ele>
        <time>2020-09-06T19:45:41Z</time>
      </trkpt>
      <trkpt lat="47.87167" lon="6.72254">
        <ele>755.1</ele>
        <time>2020-09-06T19:45:41Z</time>
      </trkpt>
      <trkpt lat="47.87174" lon="6.72233">
        <ele>755</ele>
        <time>2020-09-06T19:45:41Z</time>
      </trkpt>
      <trkpt lat="47.87186" lon="6.72188">
        <ele>755.5</ele>
        <time>2020-09-06T19:45:41Z</time>
      </trkpt>
      <trkpt lat="47.87197" lon="6.7215">
        <ele>757.7</ele>
        <time>2020-09-06T19:45:41Z</time>
      </trkpt>
      <trkpt lat="47.87205" lon="6.72119">
        <ele>759</ele>
        <time>2020-09-06T19:45:41Z</time>
      </trkpt>
      <trkpt lat="47.87212" lon="6.72097">
        <ele>759.6</ele>
        <time>2020-09-06T19:45:41Z</time>
      </trkpt>
      <trkpt lat="47.87218" lon="6.72078">
        <ele>761.4</ele>
        <time>2020-09-06T19:45:41Z</time>
      </trkpt>
      <trkpt lat="47.87224" lon="6.72065">
        <ele>761</ele>
        <time>2020-09-06T19:45:41Z</time>
      </trkpt>
      <trkpt lat="47.8723" lon="6.72054">
        <ele>762</ele>
        <time>2020-09-06T19:45:41Z</time>
      </trkpt>
      <trkpt lat="47.87238" lon="6.72043">
        <ele>761.5</ele>
        <time>2020-09-06T19:45:41Z</time>
      </trkpt>
      <trkpt lat="47.87247" lon="6.72028">
        <ele>762.5</ele>
        <time>2020-09-06T19:45:41Z</time>
      </trkpt>
      <trkpt lat="47.87253" lon="6.72017">
        <ele>762.2</ele>
        <time>2020-09-06T19:45:41Z</time>
      </trkpt>
      <trkpt lat="47.87258" lon="6.72005">
        <ele>762.8</ele>
        <time>2020-09-06T19:45:41Z</time>
      </trkpt>
      <trkpt lat="47.87262" lon="6.71991">
        <ele>763</ele>
        <time>2020-09-06T19:45:41Z</time>
      </trkpt>
      <trkpt lat="47.87265" lon="6.71974">
        <ele>763.4</ele>
        <time>2020-09-06T19:45:41Z</time>
      </trkpt>
      <trkpt lat="47.87271" lon="6.71939">
        <ele>764.6</ele>
        <time>2020-09-06T19:45:41Z</time>
      </trkpt>
      <trkpt lat="47.87281" lon="6.71879">
        <ele>765</ele>
        <time>2020-09-06T19:45:41Z</time>
      </trkpt>
      <trkpt lat="47.87284" lon="6.71861">
        <ele>765</ele>
        <time>2020-09-06T19:45:41Z</time>
      </trkpt>
      <trkpt lat="47.87289" lon="6.7183">
        <ele>765.1</ele>
        <time>2020-09-06T19:45:41Z</time>
      </trkpt>
      <trkpt lat="47.87292" lon="6.71811">
        <ele>764.7</ele>
        <time>2020-09-06T19:45:41Z</time>
      </trkpt>
      <trkpt lat="47.87296" lon="6.71793">
        <ele>764.4</ele>
        <time>2020-09-06T19:45:41Z</time>
      </trkpt>
      <trkpt lat="47.87304" lon="6.71766">
        <ele>763.8</ele>
        <time>2020-09-06T19:45:41Z</time>
      </trkpt>
      <trkpt lat="47.87315" lon="6.71726">
        <ele>762.1</ele>
        <time>2020-09-06T19:45:41Z</time>
      </trkpt>
      <trkpt lat="47.8732" lon="6.71704">
        <ele>761.4</ele>
        <time>2020-09-06T19:45:41Z</time>
      </trkpt>
      <trkpt lat="47.87322" lon="6.71693">
        <ele>761.2</ele>
        <time>2020-09-06T19:45:41Z</time>
      </trkpt>
      <trkpt lat="47.87322" lon="6.71681">
        <ele>761.1</ele>
        <time>2020-09-06T19:45:41Z</time>
      </trkpt>
      <trkpt lat="47.87323" lon="6.71658">
        <ele>759.6</ele>
        <time>2020-09-06T19:45:41Z</time>
      </trkpt>
      <trkpt lat="47.87323" lon="6.71647">
        <ele>759.3</ele>
        <time>2020-09-06T19:45:41Z</time>
      </trkpt>
      <trkpt lat="47.87323" lon="6.71633">
        <ele>758.6</ele>
        <time>2020-09-06T19:45:41Z</time>
      </trkpt>
      <trkpt lat="47.87323" lon="6.71617">
        <ele>758.1</ele>
        <time>2020-09-06T19:45:41Z</time>
      </trkpt>
      <trkpt lat="47.8732" lon="6.71591">
        <ele>757.8</ele>
        <time>2020-09-06T19:45:41Z</time>
      </trkpt>
      <trkpt lat="47.87318" lon="6.7158">
        <ele>757.9</ele>
        <time>2020-09-06T19:45:41Z</time>
      </trkpt>
      <trkpt lat="47.87314" lon="6.71556">
        <ele>757</ele>
        <time>2020-09-06T19:45:41Z</time>
      </trkpt>
      <trkpt lat="47.8731" lon="6.71536">
        <ele>757.1</ele>
        <time>2020-09-06T19:45:41Z</time>
      </trkpt>
      <trkpt lat="47.87303" lon="6.71497">
        <ele>757.1</ele>
        <time>2020-09-06T19:45:41Z</time>
      </trkpt>
      <trkpt lat="47.87298" lon="6.71472">
        <ele>756.4</ele>
        <time>2020-09-06T19:45:41Z</time>
      </trkpt>
      <trkpt lat="47.87298" lon="6.71456">
        <ele>755.4</ele>
        <time>2020-09-06T19:45:41Z</time>
      </trkpt>
      <trkpt lat="47.87301" lon="6.71445">
        <ele>754.9</ele>
        <time>2020-09-06T19:45:41Z</time>
      </trkpt>
      <trkpt lat="47.87307" lon="6.71433">
        <ele>753.2</ele>
        <time>2020-09-06T19:45:41Z</time>
      </trkpt>
      <trkpt lat="47.87312" lon="6.71427">
        <ele>752.3</ele>
        <time>2020-09-06T19:45:41Z</time>
      </trkpt>
      <trkpt lat="47.87323" lon="6.71421">
        <ele>751.4</ele>
        <time>2020-09-06T19:45:41Z</time>
      </trkpt>
      <trkpt lat="47.87348" lon="6.71415">
        <ele>750.5</ele>
        <time>2020-09-06T19:45:41Z</time>
      </trkpt>
      <trkpt lat="47.87371" lon="6.71409">
        <ele>750</ele>
        <time>2020-09-06T19:45:41Z</time>
      </trkpt>
      <trkpt lat="47.87393" lon="6.71403">
        <ele>749.9</ele>
        <time>2020-09-06T19:45:41Z</time>
      </trkpt>
      <trkpt lat="47.87402" lon="6.714">
        <ele>750.1</ele>
        <time>2020-09-06T19:45:41Z</time>
      </trkpt>
      <trkpt lat="47.87419" lon="6.71396">
        <ele>750.3</ele>
        <time>2020-09-06T19:45:41Z</time>
      </trkpt>
      <trkpt lat="47.87437" lon="6.71389">
        <ele>749.9</ele>
        <time>2020-09-06T19:45:41Z</time>
      </trkpt>
      <trkpt lat="47.87445" lon="6.71383">
        <ele>749.3</ele>
        <time>2020-09-06T19:45:41Z</time>
      </trkpt>
      <trkpt lat="47.8745" lon="6.71374">
        <ele>749.1</ele>
        <time>2020-09-06T19:45:41Z</time>
      </trkpt>
      <trkpt lat="47.87455" lon="6.71363">
        <ele>749</ele>
        <time>2020-09-06T19:45:41Z</time>
      </trkpt>
      <trkpt lat="47.87461" lon="6.71344">
        <ele>748</ele>
        <time>2020-09-06T19:45:41Z</time>
      </trkpt>
      <trkpt lat="47.87467" lon="6.71323">
        <ele>747.8</ele>
        <time>2020-09-06T19:45:41Z</time>
      </trkpt>
      <trkpt lat="47.87481" lon="6.71276">
        <ele>747.8</ele>
        <time>2020-09-06T19:45:41Z</time>
      </trkpt>
      <trkpt lat="47.87489" lon="6.71248">
        <ele>747.5</ele>
        <time>2020-09-06T19:45:41Z</time>
      </trkpt>
      <trkpt lat="47.87491" lon="6.7124">
        <ele>746.8</ele>
        <time>2020-09-06T19:45:41Z</time>
      </trkpt>
      <trkpt lat="47.875" lon="6.7121">
        <ele>745.3</ele>
        <time>2020-09-06T19:45:41Z</time>
      </trkpt>
      <trkpt lat="47.87516" lon="6.71154">
        <ele>745</ele>
        <time>2020-09-06T19:45:41Z</time>
      </trkpt>
      <trkpt lat="47.87526" lon="6.7112">
        <ele>745.5</ele>
        <time>2020-09-06T19:45:41Z</time>
      </trkpt>
      <trkpt lat="47.87532" lon="6.71105">
        <ele>745.9</ele>
        <time>2020-09-06T19:45:41Z</time>
      </trkpt>
      <trkpt lat="47.87535" lon="6.71096">
        <ele>746.2</ele>
        <time>2020-09-06T19:45:41Z</time>
      </trkpt>
      <trkpt lat="47.8754" lon="6.71087">
        <ele>746.5</ele>
        <time>2020-09-06T19:45:41Z</time>
      </trkpt>
      <trkpt lat="47.87548" lon="6.71077">
        <ele>746.9</ele>
        <time>2020-09-06T19:45:41Z</time>
      </trkpt>
      <trkpt lat="47.87593" lon="6.7104">
        <ele>746.7</ele>
        <time>2020-09-06T19:45:41Z</time>
      </trkpt>
      <trkpt lat="47.87601" lon="6.71034">
        <ele>746.6</ele>
        <time>2020-09-06T19:45:41Z</time>
      </trkpt>
      <trkpt lat="47.87662" lon="6.70987">
        <ele>748.4</ele>
        <time>2020-09-06T19:45:41Z</time>
      </trkpt>
      <trkpt lat="47.87674" lon="6.70977">
        <ele>748.4</ele>
        <time>2020-09-06T19:45:41Z</time>
      </trkpt>
      <trkpt lat="47.87682" lon="6.70966">
        <ele>748.5</ele>
        <time>2020-09-06T19:45:41Z</time>
      </trkpt>
      <trkpt lat="47.87685" lon="6.7096">
        <ele>748.5</ele>
        <time>2020-09-06T19:45:41Z</time>
      </trkpt>
      <trkpt lat="47.87687" lon="6.70952">
        <ele>748.3</ele>
        <time>2020-09-06T19:45:41Z</time>
      </trkpt>
      <trkpt lat="47.87688" lon="6.70943">
        <ele>748.8</ele>
        <time>2020-09-06T19:45:41Z</time>
      </trkpt>
      <trkpt lat="47.87687" lon="6.70934">
        <ele>748.7</ele>
        <time>2020-09-06T19:45:41Z</time>
      </trkpt>
      <trkpt lat="47.87685" lon="6.70924">
        <ele>748.9</ele>
        <time>2020-09-06T19:45:41Z</time>
      </trkpt>
      <trkpt lat="47.8768" lon="6.70907">
        <ele>749.1</ele>
        <time>2020-09-06T19:45:41Z</time>
      </trkpt>
      <trkpt lat="47.87661" lon="6.70851">
        <ele>747.9</ele>
        <time>2020-09-06T19:45:41Z</time>
      </trkpt>
      <trkpt lat="47.87653" lon="6.70826">
        <ele>748.5</ele>
        <time>2020-09-06T19:45:41Z</time>
      </trkpt>
      <trkpt lat="47.8765" lon="6.70817">
        <ele>748.2</ele>
        <time>2020-09-06T19:45:41Z</time>
      </trkpt>
      <trkpt lat="47.87648" lon="6.70805">
        <ele>747.8</ele>
        <time>2020-09-06T19:45:41Z</time>
      </trkpt>
      <trkpt lat="47.87648" lon="6.70797">
        <ele>747.8</ele>
        <time>2020-09-06T19:45:41Z</time>
      </trkpt>
      <trkpt lat="47.87649" lon="6.70786">
        <ele>748.3</ele>
        <time>2020-09-06T19:45:41Z</time>
      </trkpt>
      <trkpt lat="47.87654" lon="6.70775">
        <ele>748.2</ele>
        <time>2020-09-06T19:45:41Z</time>
      </trkpt>
      <trkpt lat="47.87659" lon="6.70763">
        <ele>748.2</ele>
        <time>2020-09-06T19:45:41Z</time>
      </trkpt>
      <trkpt lat="47.87675" lon="6.70734">
        <ele>747.7</ele>
        <time>2020-09-06T19:45:41Z</time>
      </trkpt>
      <trkpt lat="47.87688" lon="6.70707">
        <ele>747.1</ele>
        <time>2020-09-06T19:45:41Z</time>
      </trkpt>
      <trkpt lat="47.87694" lon="6.70697">
        <ele>747</ele>
        <time>2020-09-06T19:45:41Z</time>
      </trkpt>
      <trkpt lat="47.87707" lon="6.70682">
        <ele>747.6</ele>
        <time>2020-09-06T19:45:41Z</time>
      </trkpt>
      <trkpt lat="47.87732" lon="6.70654">
        <ele>746.8</ele>
        <time>2020-09-06T19:45:41Z</time>
      </trkpt>
      <trkpt lat="47.87751" lon="6.70634">
        <ele>745.8</ele>
        <time>2020-09-06T19:45:41Z</time>
      </trkpt>
      <trkpt lat="47.87767" lon="6.70617">
        <ele>744.6</ele>
        <time>2020-09-06T19:45:41Z</time>
      </trkpt>
      <trkpt lat="47.87778" lon="6.70606">
        <ele>743.3</ele>
        <time>2020-09-06T19:45:41Z</time>
      </trkpt>
      <trkpt lat="47.87784" lon="6.70604">
        <ele>743.4</ele>
        <time>2020-09-06T19:45:41Z</time>
      </trkpt>
      <trkpt lat="47.87791" lon="6.70603">
        <ele>742.6</ele>
        <time>2020-09-06T19:45:41Z</time>
      </trkpt>
      <trkpt lat="47.87799" lon="6.70606">
        <ele>743</ele>
        <time>2020-09-06T19:45:41Z</time>
      </trkpt>
      <trkpt lat="47.87808" lon="6.70608">
        <ele>743.1</ele>
        <time>2020-09-06T19:45:41Z</time>
      </trkpt>
      <trkpt lat="47.87814" lon="6.70614">
        <ele>743.1</ele>
        <time>2020-09-06T19:45:41Z</time>
      </trkpt>
      <trkpt lat="47.8782" lon="6.70622">
        <ele>743.5</ele>
        <time>2020-09-06T19:45:41Z</time>
      </trkpt>
      <trkpt lat="47.87825" lon="6.70626">
        <ele>742.7</ele>
        <time>2020-09-06T19:45:41Z</time>
      </trkpt>
      <trkpt lat="47.87833" lon="6.70628">
        <ele>742.1</ele>
        <time>2020-09-06T19:45:41Z</time>
      </trkpt>
      <trkpt lat="47.87838" lon="6.7064">
        <ele>741.6</ele>
        <time>2020-09-06T19:45:41Z</time>
      </trkpt>
      <trkpt lat="47.87833" lon="6.70628">
        <ele>742.1</ele>
        <time>2020-09-06T19:45:41Z</time>
      </trkpt>
      <trkpt lat="47.87831" lon="6.70621">
        <ele>741.8</ele>
        <time>2020-09-06T19:45:41Z</time>
      </trkpt>
      <trkpt lat="47.87831" lon="6.70608">
        <ele>740.8</ele>
        <time>2020-09-06T19:45:41Z</time>
      </trkpt>
      <trkpt lat="47.87829" lon="6.70601">
        <ele>740.1</ele>
        <time>2020-09-06T19:45:41Z</time>
      </trkpt>
      <trkpt lat="47.87797" lon="6.70504">
        <ele>735.9</ele>
        <time>2020-09-06T19:45:41Z</time>
      </trkpt>
      <trkpt lat="47.87794" lon="6.70495">
        <ele>735.1</ele>
        <time>2020-09-06T19:45:41Z</time>
      </trkpt>
      <trkpt lat="47.87793" lon="6.70485">
        <ele>735</ele>
        <time>2020-09-06T19:45:41Z</time>
      </trkpt>
      <trkpt lat="47.87794" lon="6.70476">
        <ele>735</ele>
        <time>2020-09-06T19:45:41Z</time>
      </trkpt>
      <trkpt lat="47.87796" lon="6.70468">
        <ele>735.6</ele>
        <time>2020-09-06T19:45:41Z</time>
      </trkpt>
      <trkpt lat="47.87805" lon="6.70423">
        <ele>734.3</ele>
        <time>2020-09-06T19:45:41Z</time>
      </trkpt>
      <trkpt lat="47.87806" lon="6.70413">
        <ele>733.7</ele>
        <time>2020-09-06T19:45:41Z</time>
      </trkpt>
      <trkpt lat="47.87806" lon="6.704">
        <ele>732.8</ele>
        <time>2020-09-06T19:45:41Z</time>
      </trkpt>
      <trkpt lat="47.87803" lon="6.70378">
        <ele>732.2</ele>
        <time>2020-09-06T19:45:41Z</time>
      </trkpt>
      <trkpt lat="47.87797" lon="6.70363">
        <ele>731.7</ele>
        <time>2020-09-06T19:45:41Z</time>
      </trkpt>
      <trkpt lat="47.87783" lon="6.70321">
        <ele>731.6</ele>
        <time>2020-09-06T19:45:41Z</time>
      </trkpt>
      <trkpt lat="47.87779" lon="6.70311">
        <ele>731.7</ele>
        <time>2020-09-06T19:45:41Z</time>
      </trkpt>
      <trkpt lat="47.87772" lon="6.7028">
        <ele>731.7</ele>
        <time>2020-09-06T19:45:41Z</time>
      </trkpt>
      <trkpt lat="47.87769" lon="6.70271">
        <ele>732</ele>
        <time>2020-09-06T19:45:41Z</time>
      </trkpt>
      <trkpt lat="47.8776" lon="6.70253">
        <ele>731</ele>
        <time>2020-09-06T19:45:41Z</time>
      </trkpt>
      <trkpt lat="47.87744" lon="6.70233">
        <ele>730.6</ele>
        <time>2020-09-06T19:45:41Z</time>
      </trkpt>
      <trkpt lat="47.87721" lon="6.70208">
        <ele>730.5</ele>
        <time>2020-09-06T19:45:41Z</time>
      </trkpt>
      <trkpt lat="47.87707" lon="6.70191">
        <ele>731.1</ele>
        <time>2020-09-06T19:45:41Z</time>
      </trkpt>
      <trkpt lat="47.87702" lon="6.70184">
        <ele>731.2</ele>
        <time>2020-09-06T19:45:41Z</time>
      </trkpt>
      <trkpt lat="47.87693" lon="6.70177">
        <ele>731.2</ele>
        <time>2020-09-06T19:45:41Z</time>
      </trkpt>
      <trkpt lat="47.87682" lon="6.70174">
        <ele>730.9</ele>
        <time>2020-09-06T19:45:41Z</time>
      </trkpt>
      <trkpt lat="47.87675" lon="6.7017">
        <ele>730.9</ele>
        <time>2020-09-06T19:45:41Z</time>
      </trkpt>
      <trkpt lat="47.87654" lon="6.70153">
        <ele>730.8</ele>
        <time>2020-09-06T19:45:41Z</time>
      </trkpt>
      <trkpt lat="47.87635" lon="6.70132">
        <ele>730.6</ele>
        <time>2020-09-06T19:45:41Z</time>
      </trkpt>
      <trkpt lat="47.87603" lon="6.70082">
        <ele>728.9</ele>
        <time>2020-09-06T19:45:41Z</time>
      </trkpt>
      <trkpt lat="47.87588" lon="6.70063">
        <ele>727.9</ele>
        <time>2020-09-06T19:45:41Z</time>
      </trkpt>
      <trkpt lat="47.8753" lon="6.70009">
        <ele>729.2</ele>
        <time>2020-09-06T19:45:41Z</time>
      </trkpt>
      <trkpt lat="47.8751" lon="6.69989">
        <ele>729.5</ele>
        <time>2020-09-06T19:45:41Z</time>
      </trkpt>
      <trkpt lat="47.87503" lon="6.69981">
        <ele>729.8</ele>
        <time>2020-09-06T19:45:41Z</time>
      </trkpt>
      <trkpt lat="47.87495" lon="6.69969">
        <ele>729.8</ele>
        <time>2020-09-06T19:45:41Z</time>
      </trkpt>
      <trkpt lat="47.8748" lon="6.69937">
        <ele>729.8</ele>
        <time>2020-09-06T19:45:41Z</time>
      </trkpt>
      <trkpt lat="47.87477" lon="6.6993">
        <ele>729.7</ele>
        <time>2020-09-06T19:45:41Z</time>
      </trkpt>
      <trkpt lat="47.87464" lon="6.699">
        <ele>729.3</ele>
        <time>2020-09-06T19:45:41Z</time>
      </trkpt>
      <trkpt lat="47.87434" lon="6.69834">
        <ele>730</ele>
        <time>2020-09-06T19:45:41Z</time>
      </trkpt>
      <trkpt lat="47.87405" lon="6.69775">
        <ele>728.6</ele>
        <time>2020-09-06T19:45:41Z</time>
      </trkpt>
      <trkpt lat="47.87385" lon="6.69729">
        <ele>727.1</ele>
        <time>2020-09-06T19:45:41Z</time>
      </trkpt>
      <trkpt lat="47.87376" lon="6.69707">
        <ele>726.4</ele>
        <time>2020-09-06T19:45:41Z</time>
      </trkpt>
      <trkpt lat="47.87372" lon="6.69695">
        <ele>726.1</ele>
        <time>2020-09-06T19:45:41Z</time>
      </trkpt>
      <trkpt lat="47.87369" lon="6.69679">
        <ele>725.8</ele>
        <time>2020-09-06T19:45:41Z</time>
      </trkpt>
      <trkpt lat="47.87364" lon="6.69631">
        <ele>725.2</ele>
        <time>2020-09-06T19:45:41Z</time>
      </trkpt>
      <trkpt lat="47.87361" lon="6.69567">
        <ele>724.9</ele>
        <time>2020-09-06T19:45:41Z</time>
      </trkpt>
      <trkpt lat="47.87362" lon="6.69558">
        <ele>724.7</ele>
        <time>2020-09-06T19:45:41Z</time>
      </trkpt>
      <trkpt lat="47.8736" lon="6.6954">
        <ele>724.7</ele>
        <time>2020-09-06T19:45:41Z</time>
      </trkpt>
      <trkpt lat="47.87358" lon="6.69526">
        <ele>724.6</ele>
        <time>2020-09-06T19:45:41Z</time>
      </trkpt>
      <trkpt lat="47.87352" lon="6.69462">
        <ele>723.3</ele>
        <time>2020-09-06T19:45:41Z</time>
      </trkpt>
      <trkpt lat="47.87347" lon="6.6941">
        <ele>722.6</ele>
        <time>2020-09-06T19:45:41Z</time>
      </trkpt>
      <trkpt lat="47.87344" lon="6.69375">
        <ele>722.4</ele>
        <time>2020-09-06T19:45:41Z</time>
      </trkpt>
      <trkpt lat="47.8734" lon="6.69313">
        <ele>722.2</ele>
        <time>2020-09-06T19:45:41Z</time>
      </trkpt>
      <trkpt lat="47.87336" lon="6.69252">
        <ele>721.7</ele>
        <time>2020-09-06T19:45:41Z</time>
      </trkpt>
      <trkpt lat="47.8733" lon="6.69181">
        <ele>720.7</ele>
        <time>2020-09-06T19:45:41Z</time>
      </trkpt>
      <trkpt lat="47.87326" lon="6.69151">
        <ele>720.6</ele>
        <time>2020-09-06T19:45:41Z</time>
      </trkpt>
      <trkpt lat="47.87324" lon="6.69137">
        <ele>720.5</ele>
        <time>2020-09-06T19:45:41Z</time>
      </trkpt>
      <trkpt lat="47.87322" lon="6.69125">
        <ele>720.4</ele>
        <time>2020-09-06T19:45:41Z</time>
      </trkpt>
      <trkpt lat="47.87319" lon="6.69116">
        <ele>720.4</ele>
        <time>2020-09-06T19:45:41Z</time>
      </trkpt>
      <trkpt lat="47.87316" lon="6.69105">
        <ele>720.5</ele>
        <time>2020-09-06T19:45:41Z</time>
      </trkpt>
      <trkpt lat="47.8731" lon="6.69089">
        <ele>720.5</ele>
        <time>2020-09-06T19:45:41Z</time>
      </trkpt>
      <trkpt lat="47.87305" lon="6.69074">
        <ele>720.6</ele>
        <time>2020-09-06T19:45:41Z</time>
      </trkpt>
      <trkpt lat="47.87288" lon="6.6902">
        <ele>720.7</ele>
        <time>2020-09-06T19:45:41Z</time>
      </trkpt>
      <trkpt lat="47.87276" lon="6.68983">
        <ele>720.8</ele>
        <time>2020-09-06T19:45:41Z</time>
      </trkpt>
      <trkpt lat="47.87271" lon="6.68967">
        <ele>720.8</ele>
        <time>2020-09-06T19:45:41Z</time>
      </trkpt>
      <trkpt lat="47.87268" lon="6.68957">
        <ele>720.8</ele>
        <time>2020-09-06T19:45:41Z</time>
      </trkpt>
      <trkpt lat="47.87235" lon="6.68855">
        <ele>723.4</ele>
        <time>2020-09-06T19:45:41Z</time>
      </trkpt>
      <trkpt lat="47.8721" lon="6.68776">
        <ele>722.3</ele>
        <time>2020-09-06T19:45:41Z</time>
      </trkpt>
      <trkpt lat="47.87207" lon="6.68762">
        <ele>721.7</ele>
        <time>2020-09-06T19:45:41Z</time>
      </trkpt>
      <trkpt lat="47.87206" lon="6.68753">
        <ele>721.4</ele>
        <time>2020-09-06T19:45:41Z</time>
      </trkpt>
      <trkpt lat="47.87205" lon="6.68744">
        <ele>721.3</ele>
        <time>2020-09-06T19:45:41Z</time>
      </trkpt>
      <trkpt lat="47.87206" lon="6.68733">
        <ele>721.2</ele>
        <time>2020-09-06T19:45:41Z</time>
      </trkpt>
      <trkpt lat="47.87207" lon="6.68725">
        <ele>721.2</ele>
        <time>2020-09-06T19:45:41Z</time>
      </trkpt>
      <trkpt lat="47.87211" lon="6.68709">
        <ele>721.1</ele>
        <time>2020-09-06T19:45:41Z</time>
      </trkpt>
      <trkpt lat="47.87214" lon="6.68697">
        <ele>721.3</ele>
        <time>2020-09-06T19:45:41Z</time>
      </trkpt>
      <trkpt lat="47.87225" lon="6.68657">
        <ele>721.1</ele>
        <time>2020-09-06T19:45:41Z</time>
      </trkpt>
      <trkpt lat="47.87251" lon="6.68568">
        <ele>719.4</ele>
        <time>2020-09-06T19:45:41Z</time>
      </trkpt>
      <trkpt lat="47.87262" lon="6.68531">
        <ele>718.3</ele>
        <time>2020-09-06T19:45:41Z</time>
      </trkpt>
      <trkpt lat="47.87272" lon="6.68498">
        <ele>717.2</ele>
        <time>2020-09-06T19:45:41Z</time>
      </trkpt>
      <trkpt lat="47.8728" lon="6.68471">
        <ele>716.5</ele>
        <time>2020-09-06T19:45:41Z</time>
      </trkpt>
      <trkpt lat="47.87282" lon="6.68464">
        <ele>716.2</ele>
        <time>2020-09-06T19:45:41Z</time>
      </trkpt>
      <trkpt lat="47.87293" lon="6.68429">
        <ele>715.4</ele>
        <time>2020-09-06T19:45:41Z</time>
      </trkpt>
      <trkpt lat="47.87298" lon="6.68412">
        <ele>715.1</ele>
        <time>2020-09-06T19:45:41Z</time>
      </trkpt>
      <trkpt lat="47.873" lon="6.68398">
        <ele>715</ele>
        <time>2020-09-06T19:45:41Z</time>
      </trkpt>
      <trkpt lat="47.87301" lon="6.68387">
        <ele>715</ele>
        <time>2020-09-06T19:45:41Z</time>
      </trkpt>
      <trkpt lat="47.87303" lon="6.68369">
        <ele>714.9</ele>
        <time>2020-09-06T19:45:41Z</time>
      </trkpt>
      <trkpt lat="47.87307" lon="6.68324">
        <ele>714.5</ele>
        <time>2020-09-06T19:45:41Z</time>
      </trkpt>
      <trkpt lat="47.87311" lon="6.68271">
        <ele>713.8</ele>
        <time>2020-09-06T19:45:41Z</time>
      </trkpt>
      <trkpt lat="47.87314" lon="6.68239">
        <ele>713.5</ele>
        <time>2020-09-06T19:45:41Z</time>
      </trkpt>
      <trkpt lat="47.87316" lon="6.68213">
        <ele>713.3</ele>
        <time>2020-09-06T19:45:41Z</time>
      </trkpt>
      <trkpt lat="47.87318" lon="6.68198">
        <ele>713.3</ele>
        <time>2020-09-06T19:45:41Z</time>
      </trkpt>
      <trkpt lat="47.87319" lon="6.68185">
        <ele>713.6</ele>
        <time>2020-09-06T19:45:41Z</time>
      </trkpt>
      <trkpt lat="47.87319" lon="6.68173">
        <ele>713.7</ele>
        <time>2020-09-06T19:45:41Z</time>
      </trkpt>
      <trkpt lat="47.87318" lon="6.68166">
        <ele>713.7</ele>
        <time>2020-09-06T19:45:41Z</time>
      </trkpt>
      <trkpt lat="47.87315" lon="6.68158">
        <ele>713.8</ele>
        <time>2020-09-06T19:45:41Z</time>
      </trkpt>
      <trkpt lat="47.87313" lon="6.68151">
        <ele>713.8</ele>
        <time>2020-09-06T19:45:41Z</time>
      </trkpt>
      <trkpt lat="47.87311" lon="6.68145">
        <ele>713.8</ele>
        <time>2020-09-06T19:45:41Z</time>
      </trkpt>
      <trkpt lat="47.87302" lon="6.68127">
        <ele>714</ele>
        <time>2020-09-06T19:45:41Z</time>
      </trkpt>
      <trkpt lat="47.87294" lon="6.68111">
        <ele>714.1</ele>
        <time>2020-09-06T19:45:41Z</time>
      </trkpt>
      <trkpt lat="47.87286" lon="6.68098">
        <ele>714.2</ele>
        <time>2020-09-06T19:45:41Z</time>
      </trkpt>
      <trkpt lat="47.87278" lon="6.68082">
        <ele>714.3</ele>
        <time>2020-09-06T19:45:41Z</time>
      </trkpt>
      <trkpt lat="47.87269" lon="6.68064">
        <ele>714.2</ele>
        <time>2020-09-06T19:45:41Z</time>
      </trkpt>
      <trkpt lat="47.87263" lon="6.68053">
        <ele>714.2</ele>
        <time>2020-09-06T19:45:41Z</time>
      </trkpt>
      <trkpt lat="47.87247" lon="6.68023">
        <ele>713.9</ele>
        <time>2020-09-06T19:45:41Z</time>
      </trkpt>
      <trkpt lat="47.87229" lon="6.67991">
        <ele>713.6</ele>
        <time>2020-09-06T19:45:41Z</time>
      </trkpt>
      <trkpt lat="47.87222" lon="6.67978">
        <ele>713.2</ele>
        <time>2020-09-06T19:45:41Z</time>
      </trkpt>
      <trkpt lat="47.87219" lon="6.6797">
        <ele>713</ele>
        <time>2020-09-06T19:45:41Z</time>
      </trkpt>
      <trkpt lat="47.87214" lon="6.67961">
        <ele>712.8</ele>
        <time>2020-09-06T19:45:41Z</time>
      </trkpt>
      <trkpt lat="47.87209" lon="6.6795">
        <ele>712.4</ele>
        <time>2020-09-06T19:45:41Z</time>
      </trkpt>
      <trkpt lat="47.87205" lon="6.67941">
        <ele>712.2</ele>
        <time>2020-09-06T19:45:41Z</time>
      </trkpt>
      <trkpt lat="47.87202" lon="6.67932">
        <ele>712.1</ele>
        <time>2020-09-06T19:45:41Z</time>
      </trkpt>
      <trkpt lat="47.87198" lon="6.6792">
        <ele>712.2</ele>
        <time>2020-09-06T19:45:41Z</time>
      </trkpt>
      <trkpt lat="47.87193" lon="6.67904">
        <ele>712.2</ele>
        <time>2020-09-06T19:45:41Z</time>
      </trkpt>
      <trkpt lat="47.87188" lon="6.67888">
        <ele>711.7</ele>
        <time>2020-09-06T19:45:41Z</time>
      </trkpt>
      <trkpt lat="47.87182" lon="6.67866">
        <ele>711</ele>
        <time>2020-09-06T19:45:41Z</time>
      </trkpt>
      <trkpt lat="47.87175" lon="6.67845">
        <ele>709.3</ele>
        <time>2020-09-06T19:45:41Z</time>
      </trkpt>
      <trkpt lat="47.87171" lon="6.67831">
        <ele>708.7</ele>
        <time>2020-09-06T19:45:41Z</time>
      </trkpt>
      <trkpt lat="47.87165" lon="6.67815">
        <ele>708.3</ele>
        <time>2020-09-06T19:45:41Z</time>
      </trkpt>
      <trkpt lat="47.87159" lon="6.67794">
        <ele>707.2</ele>
        <time>2020-09-06T19:45:41Z</time>
      </trkpt>
      <trkpt lat="47.87153" lon="6.67775">
        <ele>706.6</ele>
        <time>2020-09-06T19:45:41Z</time>
      </trkpt>
      <trkpt lat="47.87149" lon="6.67762">
        <ele>705.8</ele>
        <time>2020-09-06T19:45:41Z</time>
      </trkpt>
      <trkpt lat="47.87147" lon="6.67752">
        <ele>705.6</ele>
        <time>2020-09-06T19:45:41Z</time>
      </trkpt>
      <trkpt lat="47.87147" lon="6.67744">
        <ele>705.4</ele>
        <time>2020-09-06T19:45:41Z</time>
      </trkpt>
      <trkpt lat="47.87148" lon="6.67729">
        <ele>704.9</ele>
        <time>2020-09-06T19:45:41Z</time>
      </trkpt>
      <trkpt lat="47.87149" lon="6.6772">
        <ele>704.6</ele>
        <time>2020-09-06T19:45:41Z</time>
      </trkpt>
      <trkpt lat="47.87149" lon="6.67714">
        <ele>704.3</ele>
        <time>2020-09-06T19:45:41Z</time>
      </trkpt>
      <trkpt lat="47.87148" lon="6.677">
        <ele>704</ele>
        <time>2020-09-06T19:45:41Z</time>
      </trkpt>
      <trkpt lat="47.87145" lon="6.67692">
        <ele>703.5</ele>
        <time>2020-09-06T19:45:41Z</time>
      </trkpt>
      <trkpt lat="47.87141" lon="6.67685">
        <ele>703</ele>
        <time>2020-09-06T19:45:41Z</time>
      </trkpt>
      <trkpt lat="47.87127" lon="6.67665">
        <ele>701.9</ele>
        <time>2020-09-06T19:45:41Z</time>
      </trkpt>
      <trkpt lat="47.87118" lon="6.67652">
        <ele>701.3</ele>
        <time>2020-09-06T19:45:41Z</time>
      </trkpt>
      <trkpt lat="47.87107" lon="6.67637">
        <ele>700.5</ele>
        <time>2020-09-06T19:45:41Z</time>
      </trkpt>
      <trkpt lat="47.871" lon="6.67627">
        <ele>700.3</ele>
        <time>2020-09-06T19:45:41Z</time>
      </trkpt>
      <trkpt lat="47.87093" lon="6.67617">
        <ele>699.7</ele>
        <time>2020-09-06T19:45:41Z</time>
      </trkpt>
      <trkpt lat="47.87088" lon="6.6761">
        <ele>699.4</ele>
        <time>2020-09-06T19:45:41Z</time>
      </trkpt>
      <trkpt lat="47.87082" lon="6.67601">
        <ele>698.9</ele>
        <time>2020-09-06T19:45:41Z</time>
      </trkpt>
      <trkpt lat="47.87077" lon="6.67594">
        <ele>698.7</ele>
        <time>2020-09-06T19:45:41Z</time>
      </trkpt>
      <trkpt lat="47.87072" lon="6.67586">
        <ele>698.5</ele>
        <time>2020-09-06T19:45:41Z</time>
      </trkpt>
      <trkpt lat="47.87067" lon="6.6758">
        <ele>698.2</ele>
        <time>2020-09-06T19:45:41Z</time>
      </trkpt>
      <trkpt lat="47.87064" lon="6.67573">
        <ele>698</ele>
        <time>2020-09-06T19:45:41Z</time>
      </trkpt>
      <trkpt lat="47.87059" lon="6.67565">
        <ele>697.7</ele>
        <time>2020-09-06T19:45:41Z</time>
      </trkpt>
      <trkpt lat="47.87055" lon="6.67555">
        <ele>697.4</ele>
        <time>2020-09-06T19:45:41Z</time>
      </trkpt>
      <trkpt lat="47.87051" lon="6.67546">
        <ele>697.2</ele>
        <time>2020-09-06T19:45:41Z</time>
      </trkpt>
      <trkpt lat="47.87045" lon="6.67531">
        <ele>697</ele>
        <time>2020-09-06T19:45:41Z</time>
      </trkpt>
      <trkpt lat="47.87041" lon="6.67521">
        <ele>696.5</ele>
        <time>2020-09-06T19:45:41Z</time>
      </trkpt>
      <trkpt lat="47.87036" lon="6.67509">
        <ele>696.1</ele>
        <time>2020-09-06T19:45:41Z</time>
      </trkpt>
      <trkpt lat="47.87033" lon="6.67502">
        <ele>695.9</ele>
        <time>2020-09-06T19:45:41Z</time>
      </trkpt>
      <trkpt lat="47.87031" lon="6.67496">
        <ele>695.9</ele>
        <time>2020-09-06T19:45:41Z</time>
      </trkpt>
      <trkpt lat="47.87027" lon="6.67483">
        <ele>695.4</ele>
        <time>2020-09-06T19:45:41Z</time>
      </trkpt>
      <trkpt lat="47.87021" lon="6.6746">
        <ele>694.6</ele>
        <time>2020-09-06T19:45:41Z</time>
      </trkpt>
      <trkpt lat="47.87018" lon="6.67444">
        <ele>694.2</ele>
        <time>2020-09-06T19:45:41Z</time>
      </trkpt>
      <trkpt lat="47.87015" lon="6.67429">
        <ele>693.7</ele>
        <time>2020-09-06T19:45:41Z</time>
      </trkpt>
      <trkpt lat="47.87014" lon="6.67418">
        <ele>693.5</ele>
        <time>2020-09-06T19:45:41Z</time>
      </trkpt>
      <trkpt lat="47.87012" lon="6.67406">
        <ele>693.1</ele>
        <time>2020-09-06T19:45:41Z</time>
      </trkpt>
      <trkpt lat="47.87011" lon="6.67398">
        <ele>693.1</ele>
        <time>2020-09-06T19:45:41Z</time>
      </trkpt>
      <trkpt lat="47.87011" lon="6.67382">
        <ele>692.9</ele>
        <time>2020-09-06T19:45:41Z</time>
      </trkpt>
      <trkpt lat="47.87011" lon="6.67359">
        <ele>692.7</ele>
        <time>2020-09-06T19:45:41Z</time>
      </trkpt>
      <trkpt lat="47.87011" lon="6.67338">
        <ele>692.3</ele>
        <time>2020-09-06T19:45:41Z</time>
      </trkpt>
      <trkpt lat="47.87012" lon="6.67326">
        <ele>692</ele>
        <time>2020-09-06T19:45:41Z</time>
      </trkpt>
      <trkpt lat="47.87013" lon="6.67318">
        <ele>691.7</ele>
        <time>2020-09-06T19:45:41Z</time>
      </trkpt>
      <trkpt lat="47.87015" lon="6.67312">
        <ele>691.4</ele>
        <time>2020-09-06T19:45:41Z</time>
      </trkpt>
      <trkpt lat="47.87019" lon="6.67304">
        <ele>691.2</ele>
        <time>2020-09-06T19:45:41Z</time>
      </trkpt>
      <trkpt lat="47.87026" lon="6.67291">
        <ele>690.6</ele>
        <time>2020-09-06T19:45:41Z</time>
      </trkpt>
      <trkpt lat="47.87035" lon="6.67279">
        <ele>689.8</ele>
        <time>2020-09-06T19:45:41Z</time>
      </trkpt>
      <trkpt lat="47.87044" lon="6.67268">
        <ele>689.1</ele>
        <time>2020-09-06T19:45:41Z</time>
      </trkpt>
      <trkpt lat="47.87049" lon="6.67262">
        <ele>688.8</ele>
        <time>2020-09-06T19:45:41Z</time>
      </trkpt>
      <trkpt lat="47.87054" lon="6.67254">
        <ele>688.4</ele>
        <time>2020-09-06T19:45:41Z</time>
      </trkpt>
      <trkpt lat="47.87057" lon="6.67247">
        <ele>688</ele>
        <time>2020-09-06T19:45:41Z</time>
      </trkpt>
      <trkpt lat="47.87061" lon="6.67238">
        <ele>687.7</ele>
        <time>2020-09-06T19:45:41Z</time>
      </trkpt>
      <trkpt lat="47.87064" lon="6.6723">
        <ele>687.5</ele>
        <time>2020-09-06T19:45:41Z</time>
      </trkpt>
      <trkpt lat="47.87067" lon="6.67223">
        <ele>687.4</ele>
        <time>2020-09-06T19:45:41Z</time>
      </trkpt>
      <trkpt lat="47.87074" lon="6.67199">
        <ele>687</ele>
        <time>2020-09-06T19:45:41Z</time>
      </trkpt>
      <trkpt lat="47.87078" lon="6.67185">
        <ele>686.9</ele>
        <time>2020-09-06T19:45:41Z</time>
      </trkpt>
      <trkpt lat="47.87084" lon="6.67166">
        <ele>686.6</ele>
        <time>2020-09-06T19:45:41Z</time>
      </trkpt>
      <trkpt lat="47.87088" lon="6.67151">
        <ele>686.7</ele>
        <time>2020-09-06T19:45:41Z</time>
      </trkpt>
      <trkpt lat="47.8709" lon="6.67141">
        <ele>686.6</ele>
        <time>2020-09-06T19:45:41Z</time>
      </trkpt>
      <trkpt lat="47.87091" lon="6.67133">
        <ele>686.7</ele>
        <time>2020-09-06T19:45:41Z</time>
      </trkpt>
      <trkpt lat="47.87092" lon="6.67122">
        <ele>686.9</ele>
        <time>2020-09-06T19:45:41Z</time>
      </trkpt>
      <trkpt lat="47.87093" lon="6.67104">
        <ele>687.2</ele>
        <time>2020-09-06T19:45:41Z</time>
      </trkpt>
      <trkpt lat="47.87094" lon="6.67082">
        <ele>688</ele>
        <time>2020-09-06T19:45:41Z</time>
      </trkpt>
      <trkpt lat="47.87095" lon="6.67067">
        <ele>688.8</ele>
        <time>2020-09-06T19:45:41Z</time>
      </trkpt>
      <trkpt lat="47.87096" lon="6.67041">
        <ele>689.6</ele>
        <time>2020-09-06T19:45:41Z</time>
      </trkpt>
      <trkpt lat="47.87097" lon="6.67024">
        <ele>689.8</ele>
        <time>2020-09-06T19:45:41Z</time>
      </trkpt>
      <trkpt lat="47.87097" lon="6.67007">
        <ele>689.8</ele>
        <time>2020-09-06T19:45:41Z</time>
      </trkpt>
      <trkpt lat="47.87098" lon="6.66973">
        <ele>689.4</ele>
        <time>2020-09-06T19:45:41Z</time>
      </trkpt>
      <trkpt lat="47.87099" lon="6.66955">
        <ele>688.9</ele>
        <time>2020-09-06T19:45:41Z</time>
      </trkpt>
      <trkpt lat="47.87099" lon="6.66946">
        <ele>688.7</ele>
        <time>2020-09-06T19:45:41Z</time>
      </trkpt>
      <trkpt lat="47.87098" lon="6.66938">
        <ele>688.4</ele>
        <time>2020-09-06T19:45:41Z</time>
      </trkpt>
      <trkpt lat="47.87098" lon="6.66921">
        <ele>687.5</ele>
        <time>2020-09-06T19:45:41Z</time>
      </trkpt>
      <trkpt lat="47.87098" lon="6.66895">
        <ele>686</ele>
        <time>2020-09-06T19:45:41Z</time>
      </trkpt>
      <trkpt lat="47.87098" lon="6.66879">
        <ele>685.4</ele>
        <time>2020-09-06T19:45:41Z</time>
      </trkpt>
      <trkpt lat="47.87098" lon="6.66866">
        <ele>684.8</ele>
        <time>2020-09-06T19:45:41Z</time>
      </trkpt>
      <trkpt lat="47.87099" lon="6.66854">
        <ele>684.5</ele>
        <time>2020-09-06T19:45:41Z</time>
      </trkpt>
      <trkpt lat="47.871" lon="6.66845">
        <ele>683.9</ele>
        <time>2020-09-06T19:45:41Z</time>
      </trkpt>
      <trkpt lat="47.87102" lon="6.66832">
        <ele>683.6</ele>
        <time>2020-09-06T19:45:41Z</time>
      </trkpt>
      <trkpt lat="47.87103" lon="6.66817">
        <ele>683.5</ele>
        <time>2020-09-06T19:45:41Z</time>
      </trkpt>
      <trkpt lat="47.87106" lon="6.66801">
        <ele>682.9</ele>
        <time>2020-09-06T19:45:41Z</time>
      </trkpt>
      <trkpt lat="47.87108" lon="6.66784">
        <ele>682.4</ele>
        <time>2020-09-06T19:45:41Z</time>
      </trkpt>
      <trkpt lat="47.87108" lon="6.66771">
        <ele>682.4</ele>
        <time>2020-09-06T19:45:41Z</time>
      </trkpt>
      <trkpt lat="47.87108" lon="6.66755">
        <ele>682.2</ele>
        <time>2020-09-06T19:45:41Z</time>
      </trkpt>
      <trkpt lat="47.87107" lon="6.66741">
        <ele>682.6</ele>
        <time>2020-09-06T19:45:41Z</time>
      </trkpt>
      <trkpt lat="47.87106" lon="6.66725">
        <ele>682.3</ele>
        <time>2020-09-06T19:45:41Z</time>
      </trkpt>
      <trkpt lat="47.87103" lon="6.66711">
        <ele>682.2</ele>
        <time>2020-09-06T19:45:41Z</time>
      </trkpt>
      <trkpt lat="47.87101" lon="6.66698">
        <ele>681.6</ele>
        <time>2020-09-06T19:45:41Z</time>
      </trkpt>
      <trkpt lat="47.87097" lon="6.66684">
        <ele>681</ele>
        <time>2020-09-06T19:45:41Z</time>
      </trkpt>
      <trkpt lat="47.87092" lon="6.66669">
        <ele>680.3</ele>
        <time>2020-09-06T19:45:41Z</time>
      </trkpt>
      <trkpt lat="47.87085" lon="6.66657">
        <ele>680</ele>
        <time>2020-09-06T19:45:41Z</time>
      </trkpt>
      <trkpt lat="47.87079" lon="6.66647">
        <ele>679.6</ele>
        <time>2020-09-06T19:45:41Z</time>
      </trkpt>
      <trkpt lat="47.87073" lon="6.66639">
        <ele>679.5</ele>
        <time>2020-09-06T19:45:41Z</time>
      </trkpt>
      <trkpt lat="47.87069" lon="6.66634">
        <ele>679</ele>
        <time>2020-09-06T19:45:41Z</time>
      </trkpt>
      <trkpt lat="47.87064" lon="6.6663">
        <ele>679.3</ele>
        <time>2020-09-06T19:45:41Z</time>
      </trkpt>
      <trkpt lat="47.87067" lon="6.6662">
        <ele>678.2</ele>
        <time>2020-09-06T19:45:41Z</time>
      </trkpt>
      <trkpt lat="47.87064" lon="6.6663">
        <ele>679.3</ele>
        <time>2020-09-06T19:45:41Z</time>
      </trkpt>
      <trkpt lat="47.87059" lon="6.66627">
        <ele>679.3</ele>
        <time>2020-09-06T19:45:41Z</time>
      </trkpt>
      <trkpt lat="47.87056" lon="6.66622">
        <ele>679.4</ele>
        <time>2020-09-06T19:45:41Z</time>
      </trkpt>
      <trkpt lat="47.87052" lon="6.66615">
        <ele>679.4</ele>
        <time>2020-09-06T19:45:41Z</time>
      </trkpt>
      <trkpt lat="47.87049" lon="6.66607">
        <ele>679.1</ele>
        <time>2020-09-06T19:45:41Z</time>
      </trkpt>
      <trkpt lat="47.87048" lon="6.66597">
        <ele>678.9</ele>
        <time>2020-09-06T19:45:41Z</time>
      </trkpt>
      <trkpt lat="47.87047" lon="6.6659">
        <ele>679</ele>
        <time>2020-09-06T19:45:41Z</time>
      </trkpt>
      <trkpt lat="47.87045" lon="6.66571">
        <ele>678.8</ele>
        <time>2020-09-06T19:45:41Z</time>
      </trkpt>
      <trkpt lat="47.87044" lon="6.66554">
        <ele>678.6</ele>
        <time>2020-09-06T19:45:41Z</time>
      </trkpt>
      <trkpt lat="47.87042" lon="6.66529">
        <ele>678.5</ele>
        <time>2020-09-06T19:45:41Z</time>
      </trkpt>
      <trkpt lat="47.8704" lon="6.66511">
        <ele>677.9</ele>
        <time>2020-09-06T19:45:41Z</time>
      </trkpt>
      <trkpt lat="47.87041" lon="6.66494">
        <ele>677.2</ele>
        <time>2020-09-06T19:45:41Z</time>
      </trkpt>
      <trkpt lat="47.87043" lon="6.66474">
        <ele>676.3</ele>
        <time>2020-09-06T19:45:41Z</time>
      </trkpt>
      <trkpt lat="47.87044" lon="6.66457">
        <ele>675.4</ele>
        <time>2020-09-06T19:45:41Z</time>
      </trkpt>
      <trkpt lat="47.87047" lon="6.6644">
        <ele>674.9</ele>
        <time>2020-09-06T19:45:41Z</time>
      </trkpt>
      <trkpt lat="47.87047" lon="6.66432">
        <ele>674.6</ele>
        <time>2020-09-06T19:45:41Z</time>
      </trkpt>
      <trkpt lat="47.87047" lon="6.66424">
        <ele>674.5</ele>
        <time>2020-09-06T19:45:41Z</time>
      </trkpt>
      <trkpt lat="47.87045" lon="6.66407">
        <ele>673.8</ele>
        <time>2020-09-06T19:45:41Z</time>
      </trkpt>
      <trkpt lat="47.87042" lon="6.66381">
        <ele>672.8</ele>
        <time>2020-09-06T19:45:41Z</time>
      </trkpt>
      <trkpt lat="47.87036" lon="6.66334">
        <ele>670.7</ele>
        <time>2020-09-06T19:45:41Z</time>
      </trkpt>
      <trkpt lat="47.87021" lon="6.66231">
        <ele>668.9</ele>
        <time>2020-09-06T19:45:41Z</time>
      </trkpt>
      <trkpt lat="47.87018" lon="6.66208">
        <ele>668.9</ele>
        <time>2020-09-06T19:45:41Z</time>
      </trkpt>
      <trkpt lat="47.87017" lon="6.66191">
        <ele>668.8</ele>
        <time>2020-09-06T19:45:41Z</time>
      </trkpt>
      <trkpt lat="47.87018" lon="6.66179">
        <ele>669.1</ele>
        <time>2020-09-06T19:45:41Z</time>
      </trkpt>
      <trkpt lat="47.87019" lon="6.66165">
        <ele>669.3</ele>
        <time>2020-09-06T19:45:41Z</time>
      </trkpt>
      <trkpt lat="47.87021" lon="6.66141">
        <ele>669.4</ele>
        <time>2020-09-06T19:45:41Z</time>
      </trkpt>
      <trkpt lat="47.87023" lon="6.66116">
        <ele>669.7</ele>
        <time>2020-09-06T19:45:41Z</time>
      </trkpt>
      <trkpt lat="47.87025" lon="6.66089">
        <ele>669.8</ele>
        <time>2020-09-06T19:45:41Z</time>
      </trkpt>
      <trkpt lat="47.87025" lon="6.66078">
        <ele>669.8</ele>
        <time>2020-09-06T19:45:41Z</time>
      </trkpt>
      <trkpt lat="47.87025" lon="6.66066">
        <ele>669.8</ele>
        <time>2020-09-06T19:45:41Z</time>
      </trkpt>
      <trkpt lat="47.87024" lon="6.66035">
        <ele>669.7</ele>
        <time>2020-09-06T19:45:41Z</time>
      </trkpt>
      <trkpt lat="47.87023" lon="6.66002">
        <ele>669.5</ele>
        <time>2020-09-06T19:45:41Z</time>
      </trkpt>
      <trkpt lat="47.87021" lon="6.65966">
        <ele>669.6</ele>
        <time>2020-09-06T19:45:41Z</time>
      </trkpt>
      <trkpt lat="47.8702" lon="6.65953">
        <ele>669.7</ele>
        <time>2020-09-06T19:45:41Z</time>
      </trkpt>
      <trkpt lat="47.87018" lon="6.65943">
        <ele>669.8</ele>
        <time>2020-09-06T19:45:41Z</time>
      </trkpt>
      <trkpt lat="47.87013" lon="6.6593">
        <ele>669.8</ele>
        <time>2020-09-06T19:45:41Z</time>
      </trkpt>
      <trkpt lat="47.87008" lon="6.65918">
        <ele>669.8</ele>
        <time>2020-09-06T19:45:41Z</time>
      </trkpt>
      <trkpt lat="47.87004" lon="6.65906">
        <ele>669.9</ele>
        <time>2020-09-06T19:45:41Z</time>
      </trkpt>
      <trkpt lat="47.87002" lon="6.65895">
        <ele>670</ele>
        <time>2020-09-06T19:45:41Z</time>
      </trkpt>
      <trkpt lat="47.86999" lon="6.65875">
        <ele>670.1</ele>
        <time>2020-09-06T19:45:41Z</time>
      </trkpt>
      <trkpt lat="47.86999" lon="6.65861">
        <ele>670.2</ele>
        <time>2020-09-06T19:45:41Z</time>
      </trkpt>
      <trkpt lat="47.86999" lon="6.65836">
        <ele>670.3</ele>
        <time>2020-09-06T19:45:41Z</time>
      </trkpt>
      <trkpt lat="47.86999" lon="6.65785">
        <ele>670.3</ele>
        <time>2020-09-06T19:45:41Z</time>
      </trkpt>
      <trkpt lat="47.87" lon="6.65774">
        <ele>670.3</ele>
        <time>2020-09-06T19:45:41Z</time>
      </trkpt>
      <trkpt lat="47.87001" lon="6.65765">
        <ele>670.2</ele>
        <time>2020-09-06T19:45:41Z</time>
      </trkpt>
      <trkpt lat="47.87002" lon="6.65757">
        <ele>670.2</ele>
        <time>2020-09-06T19:45:41Z</time>
      </trkpt>
      <trkpt lat="47.87004" lon="6.65746">
        <ele>670.3</ele>
        <time>2020-09-06T19:45:41Z</time>
      </trkpt>
      <trkpt lat="47.87008" lon="6.65724">
        <ele>670.4</ele>
        <time>2020-09-06T19:45:41Z</time>
      </trkpt>
      <trkpt lat="47.87012" lon="6.65706">
        <ele>670.7</ele>
        <time>2020-09-06T19:45:41Z</time>
      </trkpt>
      <trkpt lat="47.87032" lon="6.65593">
        <ele>671.7</ele>
        <time>2020-09-06T19:45:41Z</time>
      </trkpt>
      <trkpt lat="47.87048" lon="6.65503">
        <ele>669.9</ele>
        <time>2020-09-06T19:45:41Z</time>
      </trkpt>
      <trkpt lat="47.87052" lon="6.65487">
        <ele>669.9</ele>
        <time>2020-09-06T19:45:41Z</time>
      </trkpt>
      <trkpt lat="47.87054" lon="6.65471">
        <ele>669.8</ele>
        <time>2020-09-06T19:45:41Z</time>
      </trkpt>
      <trkpt lat="47.87063" lon="6.65378">
        <ele>669.7</ele>
        <time>2020-09-06T19:45:41Z</time>
      </trkpt>
      <trkpt lat="47.87071" lon="6.65308">
        <ele>668.7</ele>
        <time>2020-09-06T19:45:41Z</time>
      </trkpt>
      <trkpt lat="47.87073" lon="6.65292">
        <ele>667.9</ele>
        <time>2020-09-06T19:45:41Z</time>
      </trkpt>
      <trkpt lat="47.87075" lon="6.65284">
        <ele>667.2</ele>
        <time>2020-09-06T19:45:41Z</time>
      </trkpt>
      <trkpt lat="47.87077" lon="6.65278">
        <ele>666.8</ele>
        <time>2020-09-06T19:45:41Z</time>
      </trkpt>
      <trkpt lat="47.87081" lon="6.65268">
        <ele>665.8</ele>
        <time>2020-09-06T19:45:41Z</time>
      </trkpt>
      <trkpt lat="47.87086" lon="6.65261">
        <ele>665.6</ele>
        <time>2020-09-06T19:45:41Z</time>
      </trkpt>
      <trkpt lat="47.87109" lon="6.65213">
        <ele>663.3</ele>
        <time>2020-09-06T19:45:41Z</time>
      </trkpt>
      <trkpt lat="47.87145" lon="6.6514">
        <ele>662.2</ele>
        <time>2020-09-06T19:45:41Z</time>
      </trkpt>
      <trkpt lat="47.87213" lon="6.65006">
        <ele>663.6</ele>
        <time>2020-09-06T19:45:41Z</time>
      </trkpt>
      <trkpt lat="47.87218" lon="6.64994">
        <ele>664.1</ele>
        <time>2020-09-06T19:45:41Z</time>
      </trkpt>
      <trkpt lat="47.87221" lon="6.64982">
        <ele>664.8</ele>
        <time>2020-09-06T19:45:41Z</time>
      </trkpt>
      <trkpt lat="47.87222" lon="6.64975">
        <ele>665</ele>
        <time>2020-09-06T19:45:41Z</time>
      </trkpt>
      <trkpt lat="47.87221" lon="6.64958">
        <ele>665.3</ele>
        <time>2020-09-06T19:45:41Z</time>
      </trkpt>
      <trkpt lat="47.87217" lon="6.64924">
        <ele>665.2</ele>
        <time>2020-09-06T19:45:41Z</time>
      </trkpt>
      <trkpt lat="47.87213" lon="6.64884">
        <ele>665.6</ele>
        <time>2020-09-06T19:45:41Z</time>
      </trkpt>
      <trkpt lat="47.87209" lon="6.64839">
        <ele>666.2</ele>
        <time>2020-09-06T19:45:41Z</time>
      </trkpt>
      <trkpt lat="47.87209" lon="6.64819">
        <ele>666.7</ele>
        <time>2020-09-06T19:45:41Z</time>
      </trkpt>
      <trkpt lat="47.87211" lon="6.64805">
        <ele>667.6</ele>
        <time>2020-09-06T19:45:41Z</time>
      </trkpt>
      <trkpt lat="47.87216" lon="6.6479">
        <ele>668.1</ele>
        <time>2020-09-06T19:45:41Z</time>
      </trkpt>
      <trkpt lat="47.87221" lon="6.6478">
        <ele>668.4</ele>
        <time>2020-09-06T19:45:41Z</time>
      </trkpt>
      <trkpt lat="47.87227" lon="6.64775">
        <ele>668.6</ele>
        <time>2020-09-06T19:45:41Z</time>
      </trkpt>
      <trkpt lat="47.87235" lon="6.64771">
        <ele>668.7</ele>
        <time>2020-09-06T19:45:41Z</time>
      </trkpt>
      <trkpt lat="47.87247" lon="6.64767">
        <ele>668.7</ele>
        <time>2020-09-06T19:45:41Z</time>
      </trkpt>
      <trkpt lat="47.87263" lon="6.64759">
        <ele>667.1</ele>
        <time>2020-09-06T19:45:41Z</time>
      </trkpt>
      <trkpt lat="47.87271" lon="6.64751">
        <ele>666.6</ele>
        <time>2020-09-06T19:45:41Z</time>
      </trkpt>
      <trkpt lat="47.87278" lon="6.64741">
        <ele>666</ele>
        <time>2020-09-06T19:45:41Z</time>
      </trkpt>
      <trkpt lat="47.87284" lon="6.64725">
        <ele>665.3</ele>
        <time>2020-09-06T19:45:41Z</time>
      </trkpt>
      <trkpt lat="47.87287" lon="6.64712">
        <ele>665.2</ele>
        <time>2020-09-06T19:45:41Z</time>
      </trkpt>
      <trkpt lat="47.8729" lon="6.64698">
        <ele>664.8</ele>
        <time>2020-09-06T19:45:41Z</time>
      </trkpt>
      <trkpt lat="47.87291" lon="6.6468">
        <ele>664.7</ele>
        <time>2020-09-06T19:45:41Z</time>
      </trkpt>
      <trkpt lat="47.8729" lon="6.64664">
        <ele>664.6</ele>
        <time>2020-09-06T19:45:41Z</time>
      </trkpt>
      <trkpt lat="47.87289" lon="6.64646">
        <ele>664.5</ele>
        <time>2020-09-06T19:45:41Z</time>
      </trkpt>
      <trkpt lat="47.87287" lon="6.64636">
        <ele>664.4</ele>
        <time>2020-09-06T19:45:41Z</time>
      </trkpt>
      <trkpt lat="47.87285" lon="6.64628">
        <ele>664.6</ele>
        <time>2020-09-06T19:45:41Z</time>
      </trkpt>
      <trkpt lat="47.87281" lon="6.64621">
        <ele>664.7</ele>
        <time>2020-09-06T19:45:41Z</time>
      </trkpt>
      <trkpt lat="47.87276" lon="6.64614">
        <ele>664.7</ele>
        <time>2020-09-06T19:45:41Z</time>
      </trkpt>
      <trkpt lat="47.87271" lon="6.64607">
        <ele>664.4</ele>
        <time>2020-09-06T19:45:41Z</time>
      </trkpt>
      <trkpt lat="47.87263" lon="6.64599">
        <ele>664.4</ele>
        <time>2020-09-06T19:45:41Z</time>
      </trkpt>
      <trkpt lat="47.87255" lon="6.64591">
        <ele>664.1</ele>
        <time>2020-09-06T19:45:41Z</time>
      </trkpt>
      <trkpt lat="47.87248" lon="6.64586">
        <ele>663.7</ele>
        <time>2020-09-06T19:45:41Z</time>
      </trkpt>
      <trkpt lat="47.87241" lon="6.64579">
        <ele>663.6</ele>
        <time>2020-09-06T19:45:41Z</time>
      </trkpt>
      <trkpt lat="47.87234" lon="6.64572">
        <ele>663.5</ele>
        <time>2020-09-06T19:45:41Z</time>
      </trkpt>
      <trkpt lat="47.87229" lon="6.64565">
        <ele>663.5</ele>
        <time>2020-09-06T19:45:41Z</time>
      </trkpt>
      <trkpt lat="47.87224" lon="6.64558">
        <ele>663.2</ele>
        <time>2020-09-06T19:45:41Z</time>
      </trkpt>
      <trkpt lat="47.87216" lon="6.64545">
        <ele>662.5</ele>
        <time>2020-09-06T19:45:41Z</time>
      </trkpt>
      <trkpt lat="47.87206" lon="6.64526">
        <ele>661.3</ele>
        <time>2020-09-06T19:45:41Z</time>
      </trkpt>
      <trkpt lat="47.87201" lon="6.64513">
        <ele>660.9</ele>
        <time>2020-09-06T19:45:41Z</time>
      </trkpt>
      <trkpt lat="47.87195" lon="6.64497">
        <ele>660.4</ele>
        <time>2020-09-06T19:45:41Z</time>
      </trkpt>
      <trkpt lat="47.87192" lon="6.64484">
        <ele>659.9</ele>
        <time>2020-09-06T19:45:41Z</time>
      </trkpt>
      <trkpt lat="47.87189" lon="6.64471">
        <ele>659.3</ele>
        <time>2020-09-06T19:45:41Z</time>
      </trkpt>
      <trkpt lat="47.87187" lon="6.64456">
        <ele>659.1</ele>
        <time>2020-09-06T19:45:41Z</time>
      </trkpt>
      <trkpt lat="47.87184" lon="6.6444">
        <ele>658.5</ele>
        <time>2020-09-06T19:45:41Z</time>
      </trkpt>
      <trkpt lat="47.87182" lon="6.64426">
        <ele>658.2</ele>
        <time>2020-09-06T19:45:41Z</time>
      </trkpt>
      <trkpt lat="47.87181" lon="6.64411">
        <ele>657.7</ele>
        <time>2020-09-06T19:45:41Z</time>
      </trkpt>
      <trkpt lat="47.87179" lon="6.64397">
        <ele>657.3</ele>
        <time>2020-09-06T19:45:41Z</time>
      </trkpt>
      <trkpt lat="47.87177" lon="6.64384">
        <ele>656.9</ele>
        <time>2020-09-06T19:45:41Z</time>
      </trkpt>
      <trkpt lat="47.87174" lon="6.64371">
        <ele>656.5</ele>
        <time>2020-09-06T19:45:41Z</time>
      </trkpt>
      <trkpt lat="47.87173" lon="6.64365">
        <ele>656.4</ele>
        <time>2020-09-06T19:45:41Z</time>
      </trkpt>
      <trkpt lat="47.87167" lon="6.64346">
        <ele>656.1</ele>
        <time>2020-09-06T19:45:41Z</time>
      </trkpt>
      <trkpt lat="47.87149" lon="6.64293">
        <ele>655.9</ele>
        <time>2020-09-06T19:45:41Z</time>
      </trkpt>
      <trkpt lat="47.8713" lon="6.64237">
        <ele>655.8</ele>
        <time>2020-09-06T19:45:41Z</time>
      </trkpt>
      <trkpt lat="47.87127" lon="6.64218">
        <ele>655.7</ele>
        <time>2020-09-06T19:45:41Z</time>
      </trkpt>
      <trkpt lat="47.87126" lon="6.64203">
        <ele>655.5</ele>
        <time>2020-09-06T19:45:41Z</time>
      </trkpt>
      <trkpt lat="47.87128" lon="6.64185">
        <ele>655.3</ele>
        <time>2020-09-06T19:45:41Z</time>
      </trkpt>
      <trkpt lat="47.87133" lon="6.64166">
        <ele>654.7</ele>
        <time>2020-09-06T19:45:41Z</time>
      </trkpt>
      <trkpt lat="47.87147" lon="6.64132">
        <ele>653.9</ele>
        <time>2020-09-06T19:45:41Z</time>
      </trkpt>
      <trkpt lat="47.87158" lon="6.64103">
        <ele>652</ele>
        <time>2020-09-06T19:45:41Z</time>
      </trkpt>
      <trkpt lat="47.87163" lon="6.64088">
        <ele>650.3</ele>
        <time>2020-09-06T19:45:41Z</time>
      </trkpt>
      <trkpt lat="47.87164" lon="6.64081">
        <ele>649.5</ele>
        <time>2020-09-06T19:45:41Z</time>
      </trkpt>
      <trkpt lat="47.87164" lon="6.64069">
        <ele>648.4</ele>
        <time>2020-09-06T19:45:41Z</time>
      </trkpt>
      <trkpt lat="47.87161" lon="6.64051">
        <ele>647.4</ele>
        <time>2020-09-06T19:45:41Z</time>
      </trkpt>
      <trkpt lat="47.87154" lon="6.64029">
        <ele>646.2</ele>
        <time>2020-09-06T19:45:41Z</time>
      </trkpt>
      <trkpt lat="47.87145" lon="6.64015">
        <ele>646.3</ele>
        <time>2020-09-06T19:45:41Z</time>
      </trkpt>
      <trkpt lat="47.87137" lon="6.63999">
        <ele>645.3</ele>
        <time>2020-09-06T19:45:41Z</time>
      </trkpt>
      <trkpt lat="47.87133" lon="6.63986">
        <ele>644.6</ele>
        <time>2020-09-06T19:45:41Z</time>
      </trkpt>
      <trkpt lat="47.87132" lon="6.63976">
        <ele>643.9</ele>
        <time>2020-09-06T19:45:41Z</time>
      </trkpt>
      <trkpt lat="47.87131" lon="6.63969">
        <ele>643.6</ele>
        <time>2020-09-06T19:45:41Z</time>
      </trkpt>
      <trkpt lat="47.87131" lon="6.63955">
        <ele>642.3</ele>
        <time>2020-09-06T19:45:41Z</time>
      </trkpt>
      <trkpt lat="47.87132" lon="6.63945">
        <ele>641.9</ele>
        <time>2020-09-06T19:45:41Z</time>
      </trkpt>
      <trkpt lat="47.87133" lon="6.63935">
        <ele>641.4</ele>
        <time>2020-09-06T19:45:41Z</time>
      </trkpt>
      <trkpt lat="47.87143" lon="6.63923">
        <ele>640.3</ele>
        <time>2020-09-06T19:45:41Z</time>
      </trkpt>
      <trkpt lat="47.8716" lon="6.63917">
        <ele>640.4</ele>
        <time>2020-09-06T19:45:41Z</time>
      </trkpt>
      <trkpt lat="47.87174" lon="6.6391">
        <ele>640.7</ele>
        <time>2020-09-06T19:45:41Z</time>
      </trkpt>
      <trkpt lat="47.87179" lon="6.63905">
        <ele>640.8</ele>
        <time>2020-09-06T19:45:41Z</time>
      </trkpt>
      <trkpt lat="47.87182" lon="6.63896">
        <ele>641</ele>
        <time>2020-09-06T19:45:41Z</time>
      </trkpt>
      <trkpt lat="47.87183" lon="6.63886">
        <ele>641.1</ele>
        <time>2020-09-06T19:45:41Z</time>
      </trkpt>
      <trkpt lat="47.87183" lon="6.63869">
        <ele>641.2</ele>
        <time>2020-09-06T19:45:41Z</time>
      </trkpt>
      <trkpt lat="47.87182" lon="6.63861">
        <ele>641.3</ele>
        <time>2020-09-06T19:45:41Z</time>
      </trkpt>
      <trkpt lat="47.87178" lon="6.63847">
        <ele>641.3</ele>
        <time>2020-09-06T19:45:41Z</time>
      </trkpt>
      <trkpt lat="47.87161" lon="6.63825">
        <ele>640.6</ele>
        <time>2020-09-06T19:45:41Z</time>
      </trkpt>
      <trkpt lat="47.87137" lon="6.63801">
        <ele>640.1</ele>
        <time>2020-09-06T19:45:41Z</time>
      </trkpt>
      <trkpt lat="47.87116" lon="6.63777">
        <ele>639.7</ele>
        <time>2020-09-06T19:45:41Z</time>
      </trkpt>
      <trkpt lat="47.87103" lon="6.63766">
        <ele>639.3</ele>
        <time>2020-09-06T19:45:41Z</time>
      </trkpt>
      <trkpt lat="47.87087" lon="6.63757">
        <ele>638.3</ele>
        <time>2020-09-06T19:45:41Z</time>
      </trkpt>
      <trkpt lat="47.87064" lon="6.63746">
        <ele>635.3</ele>
        <time>2020-09-06T19:45:41Z</time>
      </trkpt>
      <trkpt lat="47.87041" lon="6.63734">
        <ele>632.9</ele>
        <time>2020-09-06T19:45:41Z</time>
      </trkpt>
      <trkpt lat="47.87031" lon="6.63726">
        <ele>632.1</ele>
        <time>2020-09-06T19:45:41Z</time>
      </trkpt>
      <trkpt lat="47.87021" lon="6.63712">
        <ele>631.1</ele>
        <time>2020-09-06T19:45:41Z</time>
      </trkpt>
      <trkpt lat="47.87007" lon="6.63693">
        <ele>630.4</ele>
        <time>2020-09-06T19:45:41Z</time>
      </trkpt>
      <trkpt lat="47.87" lon="6.63681">
        <ele>629.9</ele>
        <time>2020-09-06T19:45:41Z</time>
      </trkpt>
      <trkpt lat="47.86993" lon="6.63669">
        <ele>629.7</ele>
        <time>2020-09-06T19:45:41Z</time>
      </trkpt>
      <trkpt lat="47.86985" lon="6.63642">
        <ele>629.3</ele>
        <time>2020-09-06T19:45:41Z</time>
      </trkpt>
      <trkpt lat="47.86975" lon="6.63595">
        <ele>628.6</ele>
        <time>2020-09-06T19:45:41Z</time>
      </trkpt>
      <trkpt lat="47.86967" lon="6.63559">
        <ele>627.5</ele>
        <time>2020-09-06T19:45:41Z</time>
      </trkpt>
      <trkpt lat="47.86961" lon="6.63543">
        <ele>626.6</ele>
        <time>2020-09-06T19:45:41Z</time>
      </trkpt>
      <trkpt lat="47.86945" lon="6.63523">
        <ele>625.4</ele>
        <time>2020-09-06T19:45:41Z</time>
      </trkpt>
      <trkpt lat="47.8691" lon="6.63481">
        <ele>622.6</ele>
        <time>2020-09-06T19:45:41Z</time>
      </trkpt>
      <trkpt lat="47.86882" lon="6.63446">
        <ele>621.6</ele>
        <time>2020-09-06T19:45:41Z</time>
      </trkpt>
      <trkpt lat="47.86869" lon="6.63426">
        <ele>621.1</ele>
        <time>2020-09-06T19:45:41Z</time>
      </trkpt>
      <trkpt lat="47.8686" lon="6.63406">
        <ele>620.9</ele>
        <time>2020-09-06T19:45:41Z</time>
      </trkpt>
      <trkpt lat="47.86852" lon="6.63375">
        <ele>620.7</ele>
        <time>2020-09-06T19:45:41Z</time>
      </trkpt>
      <trkpt lat="47.86846" lon="6.63347">
        <ele>620.2</ele>
        <time>2020-09-06T19:45:41Z</time>
      </trkpt>
      <trkpt lat="47.86841" lon="6.63331">
        <ele>620.1</ele>
        <time>2020-09-06T19:45:41Z</time>
      </trkpt>
      <trkpt lat="47.86833" lon="6.63315">
        <ele>619.7</ele>
        <time>2020-09-06T19:45:41Z</time>
      </trkpt>
      <trkpt lat="47.86819" lon="6.63301">
        <ele>619</ele>
        <time>2020-09-06T19:45:41Z</time>
      </trkpt>
      <trkpt lat="47.86799" lon="6.63289">
        <ele>618.1</ele>
        <time>2020-09-06T19:45:41Z</time>
      </trkpt>
      <trkpt lat="47.86781" lon="6.6328">
        <ele>616.8</ele>
        <time>2020-09-06T19:45:41Z</time>
      </trkpt>
      <trkpt lat="47.86768" lon="6.63268">
        <ele>616.3</ele>
        <time>2020-09-06T19:45:41Z</time>
      </trkpt>
      <trkpt lat="47.86752" lon="6.63244">
        <ele>616</ele>
        <time>2020-09-06T19:45:41Z</time>
      </trkpt>
      <trkpt lat="47.86736" lon="6.63221">
        <ele>615.6</ele>
        <time>2020-09-06T19:45:41Z</time>
      </trkpt>
      <trkpt lat="47.86723" lon="6.63207">
        <ele>615.1</ele>
        <time>2020-09-06T19:45:41Z</time>
      </trkpt>
      <trkpt lat="47.86712" lon="6.632">
        <ele>614.6</ele>
        <time>2020-09-06T19:45:41Z</time>
      </trkpt>
      <trkpt lat="47.86701" lon="6.63189">
        <ele>614.4</ele>
        <time>2020-09-06T19:45:41Z</time>
      </trkpt>
      <trkpt lat="47.86691" lon="6.63175">
        <ele>614</ele>
        <time>2020-09-06T19:45:41Z</time>
      </trkpt>
      <trkpt lat="47.86683" lon="6.63156">
        <ele>613.7</ele>
        <time>2020-09-06T19:45:41Z</time>
      </trkpt>
      <trkpt lat="47.86676" lon="6.6313">
        <ele>613.2</ele>
        <time>2020-09-06T19:45:41Z</time>
      </trkpt>
      <trkpt lat="47.86671" lon="6.63114">
        <ele>612.6</ele>
        <time>2020-09-06T19:45:41Z</time>
      </trkpt>
      <trkpt lat="47.86664" lon="6.63102">
        <ele>611.6</ele>
        <time>2020-09-06T19:45:41Z</time>
      </trkpt>
      <trkpt lat="47.86651" lon="6.63091">
        <ele>610.1</ele>
        <time>2020-09-06T19:45:41Z</time>
      </trkpt>
      <trkpt lat="47.86632" lon="6.63079">
        <ele>608.7</ele>
        <time>2020-09-06T19:45:41Z</time>
      </trkpt>
      <trkpt lat="47.86621" lon="6.63071">
        <ele>608.3</ele>
        <time>2020-09-06T19:45:41Z</time>
      </trkpt>
      <trkpt lat="47.86609" lon="6.63061">
        <ele>608.7</ele>
        <time>2020-09-06T19:45:41Z</time>
      </trkpt>
      <trkpt lat="47.8659" lon="6.63033">
        <ele>610</ele>
        <time>2020-09-06T19:45:41Z</time>
      </trkpt>
      <trkpt lat="47.86559" lon="6.62985">
        <ele>611.3</ele>
        <time>2020-09-06T19:45:41Z</time>
      </trkpt>
      <trkpt lat="47.86549" lon="6.62969">
        <ele>611.7</ele>
        <time>2020-09-06T19:45:41Z</time>
      </trkpt>
      <trkpt lat="47.86516" lon="6.62918">
        <ele>612.6</ele>
        <time>2020-09-06T19:45:41Z</time>
      </trkpt>
      <trkpt lat="47.86492" lon="6.62882">
        <ele>613</ele>
        <time>2020-09-06T19:45:41Z</time>
      </trkpt>
      <trkpt lat="47.86482" lon="6.62864">
        <ele>613.3</ele>
        <time>2020-09-06T19:45:41Z</time>
      </trkpt>
      <trkpt lat="47.86475" lon="6.62835">
        <ele>614</ele>
        <time>2020-09-06T19:45:41Z</time>
      </trkpt>
      <trkpt lat="47.86471" lon="6.62807">
        <ele>614.7</ele>
        <time>2020-09-06T19:45:41Z</time>
      </trkpt>
      <trkpt lat="47.86462" lon="6.62734">
        <ele>616.8</ele>
        <time>2020-09-06T19:45:41Z</time>
      </trkpt>
      <trkpt lat="47.8646" lon="6.62718">
        <ele>617.2</ele>
        <time>2020-09-06T19:45:41Z</time>
      </trkpt>
      <trkpt lat="47.86449" lon="6.62633">
        <ele>619.3</ele>
        <time>2020-09-06T19:45:41Z</time>
      </trkpt>
      <trkpt lat="47.86444" lon="6.6259">
        <ele>619.6</ele>
        <time>2020-09-06T19:45:41Z</time>
      </trkpt>
      <trkpt lat="47.8644" lon="6.62563">
        <ele>619.6</ele>
        <time>2020-09-06T19:45:41Z</time>
      </trkpt>
      <trkpt lat="47.86436" lon="6.62545">
        <ele>619.5</ele>
        <time>2020-09-06T19:45:41Z</time>
      </trkpt>
      <trkpt lat="47.8643" lon="6.62529">
        <ele>619.3</ele>
        <time>2020-09-06T19:45:41Z</time>
      </trkpt>
      <trkpt lat="47.86427" lon="6.62523">
        <ele>619.3</ele>
        <time>2020-09-06T19:45:41Z</time>
      </trkpt>
      <trkpt lat="47.8641" lon="6.62507">
        <ele>618.7</ele>
        <time>2020-09-06T19:45:41Z</time>
      </trkpt>
      <trkpt lat="47.8639" lon="6.62486">
        <ele>616.9</ele>
        <time>2020-09-06T19:45:41Z</time>
      </trkpt>
      <trkpt lat="47.86375" lon="6.62466">
        <ele>615.1</ele>
        <time>2020-09-06T19:45:41Z</time>
      </trkpt>
      <trkpt lat="47.86361" lon="6.62441">
        <ele>614.1</ele>
        <time>2020-09-06T19:45:41Z</time>
      </trkpt>
      <trkpt lat="47.86347" lon="6.62417">
        <ele>613.6</ele>
        <time>2020-09-06T19:45:41Z</time>
      </trkpt>
      <trkpt lat="47.86327" lon="6.62377">
        <ele>613.2</ele>
        <time>2020-09-06T19:45:41Z</time>
      </trkpt>
      <trkpt lat="47.86305" lon="6.62334">
        <ele>612.7</ele>
        <time>2020-09-06T19:45:41Z</time>
      </trkpt>
      <trkpt lat="47.86297" lon="6.62321">
        <ele>612.6</ele>
        <time>2020-09-06T19:45:41Z</time>
      </trkpt>
      <trkpt lat="47.86286" lon="6.62311">
        <ele>612.1</ele>
        <time>2020-09-06T19:45:41Z</time>
      </trkpt>
      <trkpt lat="47.86273" lon="6.62304">
        <ele>611.7</ele>
        <time>2020-09-06T19:45:41Z</time>
      </trkpt>
      <trkpt lat="47.86251" lon="6.62292">
        <ele>610.9</ele>
        <time>2020-09-06T19:45:41Z</time>
      </trkpt>
      <trkpt lat="47.86214" lon="6.62277">
        <ele>609.2</ele>
        <time>2020-09-06T19:45:41Z</time>
      </trkpt>
      <trkpt lat="47.86203" lon="6.6227">
        <ele>608.7</ele>
        <time>2020-09-06T19:45:41Z</time>
      </trkpt>
      <trkpt lat="47.86191" lon="6.62261">
        <ele>607.8</ele>
        <time>2020-09-06T19:45:41Z</time>
      </trkpt>
      <trkpt lat="47.86179" lon="6.62247">
        <ele>606.9</ele>
        <time>2020-09-06T19:45:41Z</time>
      </trkpt>
      <trkpt lat="47.86169" lon="6.62234">
        <ele>606.6</ele>
        <time>2020-09-06T19:45:41Z</time>
      </trkpt>
      <trkpt lat="47.86153" lon="6.62214">
        <ele>606.3</ele>
        <time>2020-09-06T19:45:41Z</time>
      </trkpt>
      <trkpt lat="47.86137" lon="6.62194">
        <ele>605.4</ele>
        <time>2020-09-06T19:45:41Z</time>
      </trkpt>
      <trkpt lat="47.86123" lon="6.62177">
        <ele>604.5</ele>
        <time>2020-09-06T19:45:41Z</time>
      </trkpt>
      <trkpt lat="47.86109" lon="6.62162">
        <ele>603.4</ele>
        <time>2020-09-06T19:45:41Z</time>
      </trkpt>
      <trkpt lat="47.86099" lon="6.62153">
        <ele>602</ele>
        <time>2020-09-06T19:45:41Z</time>
      </trkpt>
      <trkpt lat="47.86092" lon="6.62148">
        <ele>601.5</ele>
        <time>2020-09-06T19:45:41Z</time>
      </trkpt>
      <trkpt lat="47.86085" lon="6.62146">
        <ele>600.7</ele>
        <time>2020-09-06T19:45:41Z</time>
      </trkpt>
      <trkpt lat="47.8607" lon="6.62144">
        <ele>599.9</ele>
        <time>2020-09-06T19:45:41Z</time>
      </trkpt>
      <trkpt lat="47.86045" lon="6.62139">
        <ele>599.3</ele>
        <time>2020-09-06T19:45:41Z</time>
      </trkpt>
      <trkpt lat="47.86028" lon="6.62137">
        <ele>599.2</ele>
        <time>2020-09-06T19:45:41Z</time>
      </trkpt>
      <trkpt lat="47.86018" lon="6.62138">
        <ele>599.2</ele>
        <time>2020-09-06T19:45:41Z</time>
      </trkpt>
      <trkpt lat="47.86003" lon="6.62141">
        <ele>599.3</ele>
        <time>2020-09-06T19:45:41Z</time>
      </trkpt>
      <trkpt lat="47.85982" lon="6.62144">
        <ele>599.6</ele>
        <time>2020-09-06T19:45:41Z</time>
      </trkpt>
      <trkpt lat="47.85967" lon="6.62146">
        <ele>599.7</ele>
        <time>2020-09-06T19:45:41Z</time>
      </trkpt>
      <trkpt lat="47.85949" lon="6.6215">
        <ele>599.7</ele>
        <time>2020-09-06T19:45:41Z</time>
      </trkpt>
      <trkpt lat="47.85943" lon="6.62149">
        <ele>599.6</ele>
        <time>2020-09-06T19:45:41Z</time>
      </trkpt>
      <trkpt lat="47.85934" lon="6.62149">
        <ele>599.5</ele>
        <time>2020-09-06T19:45:41Z</time>
      </trkpt>
      <trkpt lat="47.85919" lon="6.62146">
        <ele>599.7</ele>
        <time>2020-09-06T19:45:41Z</time>
      </trkpt>
      <trkpt lat="47.85902" lon="6.62142">
        <ele>599.9</ele>
        <time>2020-09-06T19:45:41Z</time>
      </trkpt>
      <trkpt lat="47.85885" lon="6.62135">
        <ele>600</ele>
        <time>2020-09-06T19:45:41Z</time>
      </trkpt>
      <trkpt lat="47.85867" lon="6.62127">
        <ele>599.9</ele>
        <time>2020-09-06T19:45:41Z</time>
      </trkpt>
      <trkpt lat="47.85854" lon="6.62123">
        <ele>599.8</ele>
        <time>2020-09-06T19:45:41Z</time>
      </trkpt>
      <trkpt lat="47.85843" lon="6.6212">
        <ele>599.7</ele>
        <time>2020-09-06T19:45:41Z</time>
      </trkpt>
      <trkpt lat="47.85832" lon="6.6212">
        <ele>599.7</ele>
        <time>2020-09-06T19:45:41Z</time>
      </trkpt>
      <trkpt lat="47.85823" lon="6.62122">
        <ele>599.6</ele>
        <time>2020-09-06T19:45:41Z</time>
      </trkpt>
      <trkpt lat="47.8581" lon="6.62128">
        <ele>599.7</ele>
        <time>2020-09-06T19:45:41Z</time>
      </trkpt>
      <trkpt lat="47.858" lon="6.62132">
        <ele>599.8</ele>
        <time>2020-09-06T19:45:41Z</time>
      </trkpt>
      <trkpt lat="47.85793" lon="6.62131">
        <ele>599.9</ele>
        <time>2020-09-06T19:45:41Z</time>
      </trkpt>
      <trkpt lat="47.85778" lon="6.62128">
        <ele>600.1</ele>
        <time>2020-09-06T19:45:41Z</time>
      </trkpt>
      <trkpt lat="47.85758" lon="6.62121">
        <ele>600.3</ele>
        <time>2020-09-06T19:45:41Z</time>
      </trkpt>
      <trkpt lat="47.85745" lon="6.62116">
        <ele>600.1</ele>
        <time>2020-09-06T19:45:41Z</time>
      </trkpt>
      <trkpt lat="47.85737" lon="6.62111">
        <ele>600</ele>
        <time>2020-09-06T19:45:41Z</time>
      </trkpt>
      <trkpt lat="47.85728" lon="6.62103">
        <ele>599.8</ele>
        <time>2020-09-06T19:45:41Z</time>
      </trkpt>
      <trkpt lat="47.85719" lon="6.62092">
        <ele>599.7</ele>
        <time>2020-09-06T19:45:41Z</time>
      </trkpt>
      <trkpt lat="47.85709" lon="6.62076">
        <ele>599.5</ele>
        <time>2020-09-06T19:45:41Z</time>
      </trkpt>
      <trkpt lat="47.857" lon="6.62065">
        <ele>599.3</ele>
        <time>2020-09-06T19:45:41Z</time>
      </trkpt>
      <trkpt lat="47.85692" lon="6.62057">
        <ele>599.3</ele>
        <time>2020-09-06T19:45:41Z</time>
      </trkpt>
      <trkpt lat="47.85681" lon="6.62049">
        <ele>598.9</ele>
        <time>2020-09-06T19:45:41Z</time>
      </trkpt>
      <trkpt lat="47.85663" lon="6.62038">
        <ele>597.9</ele>
        <time>2020-09-06T19:45:41Z</time>
      </trkpt>
      <trkpt lat="47.85645" lon="6.62028">
        <ele>596.9</ele>
        <time>2020-09-06T19:45:41Z</time>
      </trkpt>
      <trkpt lat="47.85634" lon="6.62019">
        <ele>596.5</ele>
        <time>2020-09-06T19:45:41Z</time>
      </trkpt>
      <trkpt lat="47.85625" lon="6.62013">
        <ele>596.4</ele>
        <time>2020-09-06T19:45:41Z</time>
      </trkpt>
      <trkpt lat="47.8562" lon="6.62006">
        <ele>596.3</ele>
        <time>2020-09-06T19:45:41Z</time>
      </trkpt>
      <trkpt lat="47.85617" lon="6.61998">
        <ele>596.3</ele>
        <time>2020-09-06T19:45:41Z</time>
      </trkpt>
      <trkpt lat="47.85613" lon="6.61985">
        <ele>596.3</ele>
        <time>2020-09-06T19:45:41Z</time>
      </trkpt>
      <trkpt lat="47.85611" lon="6.61969">
        <ele>596.1</ele>
        <time>2020-09-06T19:45:41Z</time>
      </trkpt>
      <trkpt lat="47.85606" lon="6.61946">
        <ele>595.8</ele>
        <time>2020-09-06T19:45:41Z</time>
      </trkpt>
      <trkpt lat="47.85601" lon="6.61928">
        <ele>595.6</ele>
        <time>2020-09-06T19:45:41Z</time>
      </trkpt>
      <trkpt lat="47.85594" lon="6.61908">
        <ele>595.2</ele>
        <time>2020-09-06T19:45:41Z</time>
      </trkpt>
      <trkpt lat="47.85586" lon="6.61887">
        <ele>594.9</ele>
        <time>2020-09-06T19:45:41Z</time>
      </trkpt>
      <trkpt lat="47.85578" lon="6.61874">
        <ele>594.7</ele>
        <time>2020-09-06T19:45:41Z</time>
      </trkpt>
      <trkpt lat="47.85567" lon="6.61858">
        <ele>594.6</ele>
        <time>2020-09-06T19:45:41Z</time>
      </trkpt>
      <trkpt lat="47.85555" lon="6.61845">
        <ele>594.3</ele>
        <time>2020-09-06T19:45:41Z</time>
      </trkpt>
      <trkpt lat="47.85544" lon="6.61837">
        <ele>594.2</ele>
        <time>2020-09-06T19:45:41Z</time>
      </trkpt>
      <trkpt lat="47.85536" lon="6.61835">
        <ele>594.2</ele>
        <time>2020-09-06T19:45:41Z</time>
      </trkpt>
      <trkpt lat="47.85526" lon="6.61831">
        <ele>594.2</ele>
        <time>2020-09-06T19:45:41Z</time>
      </trkpt>
      <trkpt lat="47.85513" lon="6.61823">
        <ele>594.2</ele>
        <time>2020-09-06T19:45:41Z</time>
      </trkpt>
      <trkpt lat="47.85502" lon="6.61814">
        <ele>594.3</ele>
        <time>2020-09-06T19:45:41Z</time>
      </trkpt>
      <trkpt lat="47.85492" lon="6.61803">
        <ele>594.3</ele>
        <time>2020-09-06T19:45:41Z</time>
      </trkpt>
      <trkpt lat="47.85476" lon="6.6179">
        <ele>594.8</ele>
        <time>2020-09-06T19:45:41Z</time>
      </trkpt>
      <trkpt lat="47.85465" lon="6.61781">
        <ele>595.1</ele>
        <time>2020-09-06T19:45:41Z</time>
      </trkpt>
      <trkpt lat="47.85456" lon="6.61776">
        <ele>595.3</ele>
        <time>2020-09-06T19:45:41Z</time>
      </trkpt>
      <trkpt lat="47.85439" lon="6.61771">
        <ele>595.6</ele>
        <time>2020-09-06T19:45:41Z</time>
      </trkpt>
      <trkpt lat="47.85426" lon="6.61765">
        <ele>595.6</ele>
        <time>2020-09-06T19:45:41Z</time>
      </trkpt>
      <trkpt lat="47.85415" lon="6.6176">
        <ele>595.4</ele>
        <time>2020-09-06T19:45:41Z</time>
      </trkpt>
      <trkpt lat="47.85403" lon="6.61752">
        <ele>595.2</ele>
        <time>2020-09-06T19:45:41Z</time>
      </trkpt>
      <trkpt lat="47.85391" lon="6.61743">
        <ele>594.8</ele>
        <time>2020-09-06T19:45:41Z</time>
      </trkpt>
      <trkpt lat="47.85371" lon="6.61727">
        <ele>593.9</ele>
        <time>2020-09-06T19:45:41Z</time>
      </trkpt>
      <trkpt lat="47.85358" lon="6.61717">
        <ele>592.9</ele>
        <time>2020-09-06T19:45:41Z</time>
      </trkpt>
      <trkpt lat="47.85348" lon="6.61713">
        <ele>591.7</ele>
        <time>2020-09-06T19:45:41Z</time>
      </trkpt>
      <trkpt lat="47.8534" lon="6.61713">
        <ele>591.3</ele>
        <time>2020-09-06T19:45:41Z</time>
      </trkpt>
      <trkpt lat="47.85331" lon="6.61714">
        <ele>590.2</ele>
        <time>2020-09-06T19:45:41Z</time>
      </trkpt>
      <trkpt lat="47.85325" lon="6.61715">
        <ele>589.8</ele>
        <time>2020-09-06T19:45:41Z</time>
      </trkpt>
      <trkpt lat="47.85319" lon="6.61713">
        <ele>589.4</ele>
        <time>2020-09-06T19:45:41Z</time>
      </trkpt>
      <trkpt lat="47.85314" lon="6.61709">
        <ele>588.6</ele>
        <time>2020-09-06T19:45:41Z</time>
      </trkpt>
      <trkpt lat="47.8531" lon="6.61704">
        <ele>588.4</ele>
        <time>2020-09-06T19:45:41Z</time>
      </trkpt>
      <trkpt lat="47.85306" lon="6.61698">
        <ele>587.7</ele>
        <time>2020-09-06T19:45:41Z</time>
      </trkpt>
      <trkpt lat="47.85304" lon="6.61689">
        <ele>587.1</ele>
        <time>2020-09-06T19:45:41Z</time>
      </trkpt>
      <trkpt lat="47.853" lon="6.61672">
        <ele>586.2</ele>
        <time>2020-09-06T19:45:41Z</time>
      </trkpt>
      <trkpt lat="47.85295" lon="6.61643">
        <ele>585.1</ele>
        <time>2020-09-06T19:45:41Z</time>
      </trkpt>
      <trkpt lat="47.85292" lon="6.61617">
        <ele>584.3</ele>
        <time>2020-09-06T19:45:41Z</time>
      </trkpt>
      <trkpt lat="47.8529" lon="6.61601">
        <ele>584.4</ele>
        <time>2020-09-06T19:45:41Z</time>
      </trkpt>
      <trkpt lat="47.85289" lon="6.61592">
        <ele>584.4</ele>
        <time>2020-09-06T19:45:41Z</time>
      </trkpt>
      <trkpt lat="47.85288" lon="6.61582">
        <ele>584.2</ele>
        <time>2020-09-06T19:45:41Z</time>
      </trkpt>
      <trkpt lat="47.85285" lon="6.61569">
        <ele>584.3</ele>
        <time>2020-09-06T19:45:41Z</time>
      </trkpt>
      <trkpt lat="47.85281" lon="6.6156">
        <ele>584.1</ele>
        <time>2020-09-06T19:45:41Z</time>
      </trkpt>
      <trkpt lat="47.85276" lon="6.61553">
        <ele>583.8</ele>
        <time>2020-09-06T19:45:41Z</time>
      </trkpt>
      <trkpt lat="47.85267" lon="6.61543">
        <ele>583.4</ele>
        <time>2020-09-06T19:45:41Z</time>
      </trkpt>
      <trkpt lat="47.85258" lon="6.61532">
        <ele>582.8</ele>
        <time>2020-09-06T19:45:41Z</time>
      </trkpt>
      <trkpt lat="47.85251" lon="6.61521">
        <ele>582.8</ele>
        <time>2020-09-06T19:45:41Z</time>
      </trkpt>
      <trkpt lat="47.85242" lon="6.61504">
        <ele>582.7</ele>
        <time>2020-09-06T19:45:41Z</time>
      </trkpt>
      <trkpt lat="47.85237" lon="6.61493">
        <ele>582.6</ele>
        <time>2020-09-06T19:45:41Z</time>
      </trkpt>
      <trkpt lat="47.85234" lon="6.61478">
        <ele>582.6</ele>
        <time>2020-09-06T19:45:41Z</time>
      </trkpt>
      <trkpt lat="47.85233" lon="6.61464">
        <ele>582.5</ele>
        <time>2020-09-06T19:45:41Z</time>
      </trkpt>
      <trkpt lat="47.85233" lon="6.61446">
        <ele>582.5</ele>
        <time>2020-09-06T19:45:41Z</time>
      </trkpt>
      <trkpt lat="47.85231" lon="6.61416">
        <ele>582</ele>
        <time>2020-09-06T19:45:41Z</time>
      </trkpt>
      <trkpt lat="47.85229" lon="6.61389">
        <ele>581.7</ele>
        <time>2020-09-06T19:45:41Z</time>
      </trkpt>
      <trkpt lat="47.85229" lon="6.61372">
        <ele>581.5</ele>
        <time>2020-09-06T19:45:41Z</time>
      </trkpt>
      <trkpt lat="47.85232" lon="6.61354">
        <ele>581.2</ele>
        <time>2020-09-06T19:45:41Z</time>
      </trkpt>
      <trkpt lat="47.85237" lon="6.61338">
        <ele>581.4</ele>
        <time>2020-09-06T19:45:41Z</time>
      </trkpt>
      <trkpt lat="47.85244" lon="6.61325">
        <ele>581.4</ele>
        <time>2020-09-06T19:45:41Z</time>
      </trkpt>
      <trkpt lat="47.85254" lon="6.61309">
        <ele>581.4</ele>
        <time>2020-09-06T19:45:41Z</time>
      </trkpt>
      <trkpt lat="47.85268" lon="6.61291">
        <ele>581.2</ele>
        <time>2020-09-06T19:45:41Z</time>
      </trkpt>
      <trkpt lat="47.85276" lon="6.6128">
        <ele>581.2</ele>
        <time>2020-09-06T19:45:41Z</time>
      </trkpt>
      <trkpt lat="47.85281" lon="6.61271">
        <ele>581.1</ele>
        <time>2020-09-06T19:45:41Z</time>
      </trkpt>
      <trkpt lat="47.85284" lon="6.61263">
        <ele>581</ele>
        <time>2020-09-06T19:45:41Z</time>
      </trkpt>
      <trkpt lat="47.85288" lon="6.61248">
        <ele>580.8</ele>
        <time>2020-09-06T19:45:41Z</time>
      </trkpt>
      <trkpt lat="47.85292" lon="6.61228">
        <ele>580.6</ele>
        <time>2020-09-06T19:45:41Z</time>
      </trkpt>
      <trkpt lat="47.85296" lon="6.61199">
        <ele>580.4</ele>
        <time>2020-09-06T19:45:41Z</time>
      </trkpt>
      <trkpt lat="47.85297" lon="6.61182">
        <ele>580.4</ele>
        <time>2020-09-06T19:45:41Z</time>
      </trkpt>
      <trkpt lat="47.85297" lon="6.61163">
        <ele>580.4</ele>
        <time>2020-09-06T19:45:41Z</time>
      </trkpt>
      <trkpt lat="47.85294" lon="6.61144">
        <ele>580.4</ele>
        <time>2020-09-06T19:45:41Z</time>
      </trkpt>
      <trkpt lat="47.85287" lon="6.6112">
        <ele>580</ele>
        <time>2020-09-06T19:45:41Z</time>
      </trkpt>
      <trkpt lat="47.85279" lon="6.61102">
        <ele>579.1</ele>
        <time>2020-09-06T19:45:41Z</time>
      </trkpt>
      <trkpt lat="47.85272" lon="6.61092">
        <ele>578.6</ele>
        <time>2020-09-06T19:45:41Z</time>
      </trkpt>
      <trkpt lat="47.85261" lon="6.61079">
        <ele>577.1</ele>
        <time>2020-09-06T19:45:41Z</time>
      </trkpt>
      <trkpt lat="47.85254" lon="6.61065">
        <ele>576.2</ele>
        <time>2020-09-06T19:45:41Z</time>
      </trkpt>
      <trkpt lat="47.85249" lon="6.61056">
        <ele>575.8</ele>
        <time>2020-09-06T19:45:41Z</time>
      </trkpt>
      <trkpt lat="47.85247" lon="6.6104">
        <ele>575</ele>
        <time>2020-09-06T19:45:41Z</time>
      </trkpt>
      <trkpt lat="47.85246" lon="6.61026">
        <ele>574.5</ele>
        <time>2020-09-06T19:45:41Z</time>
      </trkpt>
      <trkpt lat="47.85247" lon="6.60995">
        <ele>574</ele>
        <time>2020-09-06T19:45:41Z</time>
      </trkpt>
      <trkpt lat="47.85249" lon="6.6097">
        <ele>573.2</ele>
        <time>2020-09-06T19:45:41Z</time>
      </trkpt>
      <trkpt lat="47.8525" lon="6.6094">
        <ele>572.5</ele>
        <time>2020-09-06T19:45:41Z</time>
      </trkpt>
      <trkpt lat="47.85251" lon="6.60916">
        <ele>571.5</ele>
        <time>2020-09-06T19:45:41Z</time>
      </trkpt>
      <trkpt lat="47.8525" lon="6.60893">
        <ele>570.4</ele>
        <time>2020-09-06T19:45:41Z</time>
      </trkpt>
      <trkpt lat="47.85248" lon="6.60873">
        <ele>569.1</ele>
        <time>2020-09-06T19:45:41Z</time>
      </trkpt>
      <trkpt lat="47.85241" lon="6.60839">
        <ele>567.3</ele>
        <time>2020-09-06T19:45:41Z</time>
      </trkpt>
      <trkpt lat="47.85233" lon="6.60803">
        <ele>565.4</ele>
        <time>2020-09-06T19:45:41Z</time>
      </trkpt>
      <trkpt lat="47.85227" lon="6.60771">
        <ele>564</ele>
        <time>2020-09-06T19:45:41Z</time>
      </trkpt>
      <trkpt lat="47.85222" lon="6.6075">
        <ele>563.4</ele>
        <time>2020-09-06T19:45:41Z</time>
      </trkpt>
      <trkpt lat="47.85215" lon="6.60729">
        <ele>562.3</ele>
        <time>2020-09-06T19:45:41Z</time>
      </trkpt>
      <trkpt lat="47.85206" lon="6.60705">
        <ele>561.3</ele>
        <time>2020-09-06T19:45:41Z</time>
      </trkpt>
      <trkpt lat="47.85198" lon="6.60681">
        <ele>560.8</ele>
        <time>2020-09-06T19:45:41Z</time>
      </trkpt>
      <trkpt lat="47.85193" lon="6.60661">
        <ele>559.5</ele>
        <time>2020-09-06T19:45:41Z</time>
      </trkpt>
      <trkpt lat="47.85188" lon="6.60632">
        <ele>557.8</ele>
        <time>2020-09-06T19:45:41Z</time>
      </trkpt>
      <trkpt lat="47.85184" lon="6.60618">
        <ele>556.9</ele>
        <time>2020-09-06T19:45:41Z</time>
      </trkpt>
      <trkpt lat="47.85176" lon="6.60599">
        <ele>555.7</ele>
        <time>2020-09-06T19:45:41Z</time>
      </trkpt>
      <trkpt lat="47.85164" lon="6.60583">
        <ele>554.8</ele>
        <time>2020-09-06T19:45:41Z</time>
      </trkpt>
      <trkpt lat="47.85154" lon="6.60568">
        <ele>553.3</ele>
        <time>2020-09-06T19:45:41Z</time>
      </trkpt>
      <trkpt lat="47.85145" lon="6.60551">
        <ele>552.3</ele>
        <time>2020-09-06T19:45:41Z</time>
      </trkpt>
      <trkpt lat="47.8514" lon="6.60536">
        <ele>551.4</ele>
        <time>2020-09-06T19:45:41Z</time>
      </trkpt>
      <trkpt lat="47.85136" lon="6.60518">
        <ele>550.4</ele>
        <time>2020-09-06T19:45:41Z</time>
      </trkpt>
      <trkpt lat="47.85131" lon="6.60492">
        <ele>549</ele>
        <time>2020-09-06T19:45:41Z</time>
      </trkpt>
      <trkpt lat="47.85126" lon="6.60452">
        <ele>547.4</ele>
        <time>2020-09-06T19:45:41Z</time>
      </trkpt>
      <trkpt lat="47.85116" lon="6.60396">
        <ele>542.5</ele>
        <time>2020-09-06T19:45:41Z</time>
      </trkpt>
      <trkpt lat="47.85109" lon="6.60355">
        <ele>540.5</ele>
        <time>2020-09-06T19:45:41Z</time>
      </trkpt>
      <trkpt lat="47.85102" lon="6.60319">
        <ele>537.9</ele>
        <time>2020-09-06T19:45:41Z</time>
      </trkpt>
      <trkpt lat="47.85097" lon="6.60299">
        <ele>536.6</ele>
        <time>2020-09-06T19:45:41Z</time>
      </trkpt>
      <trkpt lat="47.85091" lon="6.60283">
        <ele>535.8</ele>
        <time>2020-09-06T19:45:41Z</time>
      </trkpt>
      <trkpt lat="47.85083" lon="6.60268">
        <ele>534.4</ele>
        <time>2020-09-06T19:45:41Z</time>
      </trkpt>
      <trkpt lat="47.85076" lon="6.60246">
        <ele>532.5</ele>
        <time>2020-09-06T19:45:41Z</time>
      </trkpt>
      <trkpt lat="47.8507" lon="6.60227">
        <ele>530.9</ele>
        <time>2020-09-06T19:45:41Z</time>
      </trkpt>
      <trkpt lat="47.85066" lon="6.60209">
        <ele>529.8</ele>
        <time>2020-09-06T19:45:41Z</time>
      </trkpt>
      <trkpt lat="47.85065" lon="6.60195">
        <ele>529.2</ele>
        <time>2020-09-06T19:45:41Z</time>
      </trkpt>
      <trkpt lat="47.85068" lon="6.60177">
        <ele>528.7</ele>
        <time>2020-09-06T19:45:41Z</time>
      </trkpt>
      <trkpt lat="47.85071" lon="6.60163">
        <ele>528.6</ele>
        <time>2020-09-06T19:45:41Z</time>
      </trkpt>
      <trkpt lat="47.85077" lon="6.60149">
        <ele>528.4</ele>
        <time>2020-09-06T19:45:41Z</time>
      </trkpt>
      <trkpt lat="47.85083" lon="6.6014">
        <ele>527.9</ele>
        <time>2020-09-06T19:45:41Z</time>
      </trkpt>
      <trkpt lat="47.85095" lon="6.6013">
        <ele>527</ele>
        <time>2020-09-06T19:45:41Z</time>
      </trkpt>
      <trkpt lat="47.85099" lon="6.60126">
        <ele>526.6</ele>
        <time>2020-09-06T19:45:41Z</time>
      </trkpt>
      <trkpt lat="47.85107" lon="6.6012">
        <ele>526.3</ele>
        <time>2020-09-06T19:45:41Z</time>
      </trkpt>
      <trkpt lat="47.85116" lon="6.6011">
        <ele>525.4</ele>
        <time>2020-09-06T19:45:41Z</time>
      </trkpt>
      <trkpt lat="47.85121" lon="6.60102">
        <ele>525</ele>
        <time>2020-09-06T19:45:41Z</time>
      </trkpt>
      <trkpt lat="47.85124" lon="6.60092">
        <ele>524.3</ele>
        <time>2020-09-06T19:45:41Z</time>
      </trkpt>
      <trkpt lat="47.85124" lon="6.60079">
        <ele>523.4</ele>
        <time>2020-09-06T19:45:41Z</time>
      </trkpt>
      <trkpt lat="47.85121" lon="6.60065">
        <ele>522.8</ele>
        <time>2020-09-06T19:45:41Z</time>
      </trkpt>
      <trkpt lat="47.85116" lon="6.60047">
        <ele>521.2</ele>
        <time>2020-09-06T19:45:41Z</time>
      </trkpt>
      <trkpt lat="47.85108" lon="6.60026">
        <ele>519.1</ele>
        <time>2020-09-06T19:45:41Z</time>
      </trkpt>
      <trkpt lat="47.85102" lon="6.60005">
        <ele>518</ele>
        <time>2020-09-06T19:45:41Z</time>
      </trkpt>
      <trkpt lat="47.85095" lon="6.59978">
        <ele>516.1</ele>
        <time>2020-09-06T19:45:41Z</time>
      </trkpt>
      <trkpt lat="47.85083" lon="6.59948">
        <ele>514</ele>
        <time>2020-09-06T19:45:41Z</time>
      </trkpt>
      <trkpt lat="47.85072" lon="6.59927">
        <ele>512.3</ele>
        <time>2020-09-06T19:45:41Z</time>
      </trkpt>
      <trkpt lat="47.85057" lon="6.59901">
        <ele>509.2</ele>
        <time>2020-09-06T19:45:41Z</time>
      </trkpt>
      <trkpt lat="47.85048" lon="6.59883">
        <ele>506.9</ele>
        <time>2020-09-06T19:45:41Z</time>
      </trkpt>
      <trkpt lat="47.85042" lon="6.59868">
        <ele>506</ele>
        <time>2020-09-06T19:45:41Z</time>
      </trkpt>
      <trkpt lat="47.8504" lon="6.59857">
        <ele>505.1</ele>
        <time>2020-09-06T19:45:41Z</time>
      </trkpt>
      <trkpt lat="47.85039" lon="6.59846">
        <ele>504.6</ele>
        <time>2020-09-06T19:45:41Z</time>
      </trkpt>
      <trkpt lat="47.8504" lon="6.59833">
        <ele>503.8</ele>
        <time>2020-09-06T19:45:41Z</time>
      </trkpt>
      <trkpt lat="47.85043" lon="6.59822">
        <ele>502.9</ele>
        <time>2020-09-06T19:45:41Z</time>
      </trkpt>
      <trkpt lat="47.8505" lon="6.59802">
        <ele>501.6</ele>
        <time>2020-09-06T19:45:41Z</time>
      </trkpt>
      <trkpt lat="47.85058" lon="6.59782">
        <ele>500</ele>
        <time>2020-09-06T19:45:41Z</time>
      </trkpt>
      <trkpt lat="47.85063" lon="6.59769">
        <ele>498.9</ele>
        <time>2020-09-06T19:45:41Z</time>
      </trkpt>
      <trkpt lat="47.85067" lon="6.59761">
        <ele>498.4</ele>
        <time>2020-09-06T19:45:41Z</time>
      </trkpt>
      <trkpt lat="47.85076" lon="6.59758">
        <ele>497.6</ele>
        <time>2020-09-06T19:45:41Z</time>
      </trkpt>
      <trkpt lat="47.85086" lon="6.59758">
        <ele>497.2</ele>
        <time>2020-09-06T19:45:41Z</time>
      </trkpt>
      <trkpt lat="47.85105" lon="6.59757">
        <ele>496.1</ele>
        <time>2020-09-06T19:45:41Z</time>
      </trkpt>
      <trkpt lat="47.85113" lon="6.59757">
        <ele>495.6</ele>
        <time>2020-09-06T19:45:41Z</time>
      </trkpt>
      <trkpt lat="47.85119" lon="6.59751">
        <ele>495.2</ele>
        <time>2020-09-06T19:45:41Z</time>
      </trkpt>
      <trkpt lat="47.8512" lon="6.59741">
        <ele>493.7</ele>
        <time>2020-09-06T19:45:41Z</time>
      </trkpt>
      <trkpt lat="47.85116" lon="6.59735">
        <ele>492.7</ele>
        <time>2020-09-06T19:45:41Z</time>
      </trkpt>
      <trkpt lat="47.85107" lon="6.59724">
        <ele>491</ele>
        <time>2020-09-06T19:45:41Z</time>
      </trkpt>
      <trkpt lat="47.85096" lon="6.59713">
        <ele>489.8</ele>
        <time>2020-09-06T19:45:41Z</time>
      </trkpt>
      <trkpt lat="47.85086" lon="6.597">
        <ele>488.1</ele>
        <time>2020-09-06T19:45:41Z</time>
      </trkpt>
      <trkpt lat="47.85075" lon="6.59684">
        <ele>486.1</ele>
        <time>2020-09-06T19:45:41Z</time>
      </trkpt>
      <trkpt lat="47.85065" lon="6.5967">
        <ele>485.4</ele>
        <time>2020-09-06T19:45:41Z</time>
      </trkpt>
      <trkpt lat="47.85055" lon="6.59654">
        <ele>482.8</ele>
        <time>2020-09-06T19:45:41Z</time>
      </trkpt>
      <trkpt lat="47.85045" lon="6.59634">
        <ele>480.4</ele>
        <time>2020-09-06T19:45:41Z</time>
      </trkpt>
      <trkpt lat="47.85025" lon="6.59599">
        <ele>476.9</ele>
        <time>2020-09-06T19:45:41Z</time>
      </trkpt>
      <trkpt lat="47.8501" lon="6.59574">
        <ele>473.9</ele>
        <time>2020-09-06T19:45:41Z</time>
      </trkpt>
      <trkpt lat="47.85001" lon="6.59557">
        <ele>471.8</ele>
        <time>2020-09-06T19:45:41Z</time>
      </trkpt>
      <trkpt lat="47.84996" lon="6.59542">
        <ele>470.4</ele>
        <time>2020-09-06T19:45:41Z</time>
      </trkpt>
      <trkpt lat="47.84993" lon="6.59526">
        <ele>468.9</ele>
        <time>2020-09-06T19:45:41Z</time>
      </trkpt>
      <trkpt lat="47.84993" lon="6.59512">
        <ele>467.9</ele>
        <time>2020-09-06T19:45:41Z</time>
      </trkpt>
      <trkpt lat="47.84992" lon="6.59494">
        <ele>466.6</ele>
        <time>2020-09-06T19:45:41Z</time>
      </trkpt>
      <trkpt lat="47.84988" lon="6.59467">
        <ele>463.7</ele>
        <time>2020-09-06T19:45:41Z</time>
      </trkpt>
      <trkpt lat="47.84983" lon="6.59438">
        <ele>461.6</ele>
        <time>2020-09-06T19:45:41Z</time>
      </trkpt>
      <trkpt lat="47.84979" lon="6.59403">
        <ele>458.2</ele>
        <time>2020-09-06T19:45:41Z</time>
      </trkpt>
      <trkpt lat="47.84975" lon="6.5938">
        <ele>455.6</ele>
        <time>2020-09-06T19:45:41Z</time>
      </trkpt>
      <trkpt lat="47.84969" lon="6.59357">
        <ele>453.3</ele>
        <time>2020-09-06T19:45:41Z</time>
      </trkpt>
      <trkpt lat="47.84965" lon="6.59334">
        <ele>450.8</ele>
        <time>2020-09-06T19:45:41Z</time>
      </trkpt>
      <trkpt lat="47.84962" lon="6.5931">
        <ele>448.8</ele>
        <time>2020-09-06T19:45:41Z</time>
      </trkpt>
      <trkpt lat="47.84961" lon="6.59286">
        <ele>446.3</ele>
        <time>2020-09-06T19:45:41Z</time>
      </trkpt>
      <trkpt lat="47.84961" lon="6.59258">
        <ele>443.4</ele>
        <time>2020-09-06T19:45:41Z</time>
      </trkpt>
      <trkpt lat="47.8496" lon="6.59234">
        <ele>441.1</ele>
        <time>2020-09-06T19:45:41Z</time>
      </trkpt>
      <trkpt lat="47.84959" lon="6.59224">
        <ele>440.5</ele>
        <time>2020-09-06T19:45:41Z</time>
      </trkpt>
      <trkpt lat="47.84953" lon="6.59212">
        <ele>439.2</ele>
        <time>2020-09-06T19:45:41Z</time>
      </trkpt>
      <trkpt lat="47.84942" lon="6.59199">
        <ele>438</ele>
        <time>2020-09-06T19:45:41Z</time>
      </trkpt>
      <trkpt lat="47.84929" lon="6.59187">
        <ele>436.5</ele>
        <time>2020-09-06T19:45:41Z</time>
      </trkpt>
      <trkpt lat="47.84909" lon="6.59171">
        <ele>434.9</ele>
        <time>2020-09-06T19:45:41Z</time>
      </trkpt>
      <trkpt lat="47.8489" lon="6.59155">
        <ele>433.2</ele>
        <time>2020-09-06T19:45:41Z</time>
      </trkpt>
      <trkpt lat="47.84871" lon="6.59142">
        <ele>431.1</ele>
        <time>2020-09-06T19:45:41Z</time>
      </trkpt>
      <trkpt lat="47.84853" lon="6.5913">
        <ele>429.1</ele>
        <time>2020-09-06T19:45:41Z</time>
      </trkpt>
      <trkpt lat="47.84841" lon="6.59119">
        <ele>428.2</ele>
        <time>2020-09-06T19:45:41Z</time>
      </trkpt>
      <trkpt lat="47.8483" lon="6.59105">
        <ele>427.3</ele>
        <time>2020-09-06T19:45:41Z</time>
      </trkpt>
      <trkpt lat="47.84816" lon="6.59083">
        <ele>426</ele>
        <time>2020-09-06T19:45:41Z</time>
      </trkpt>
      <trkpt lat="47.84786" lon="6.59049">
        <ele>421.6</ele>
        <time>2020-09-06T19:45:41Z</time>
      </trkpt>
      <trkpt lat="47.8477" lon="6.5903">
        <ele>420</ele>
        <time>2020-09-06T19:45:41Z</time>
      </trkpt>
      <trkpt lat="47.8476" lon="6.59022">
        <ele>418.7</ele>
        <time>2020-09-06T19:45:41Z</time>
      </trkpt>
      <trkpt lat="47.84753" lon="6.5902">
        <ele>418</ele>
        <time>2020-09-06T19:45:41Z</time>
      </trkpt>
      <trkpt lat="47.84747" lon="6.59022">
        <ele>417.1</ele>
        <time>2020-09-06T19:45:41Z</time>
      </trkpt>
      <trkpt lat="47.84742" lon="6.59026">
        <ele>416.7</ele>
        <time>2020-09-06T19:45:41Z</time>
      </trkpt>
      <trkpt lat="47.84737" lon="6.59031">
        <ele>416.4</ele>
        <time>2020-09-06T19:45:41Z</time>
      </trkpt>
      <trkpt lat="47.84732" lon="6.5903">
        <ele>416.1</ele>
        <time>2020-09-06T19:45:41Z</time>
      </trkpt>
      <trkpt lat="47.84728" lon="6.59027">
        <ele>415.4</ele>
        <time>2020-09-06T19:45:41Z</time>
      </trkpt>
      <trkpt lat="47.84726" lon="6.5902">
        <ele>414.5</ele>
        <time>2020-09-06T19:45:41Z</time>
      </trkpt>
      <trkpt lat="47.84727" lon="6.59009">
        <ele>413.7</ele>
        <time>2020-09-06T19:45:41Z</time>
      </trkpt>
      <trkpt lat="47.84731" lon="6.58998">
        <ele>412.5</ele>
        <time>2020-09-06T19:45:41Z</time>
      </trkpt>
      <trkpt lat="47.84737" lon="6.58992">
        <ele>411.9</ele>
        <time>2020-09-06T19:45:41Z</time>
      </trkpt>
      <trkpt lat="47.84746" lon="6.58987">
        <ele>411.1</ele>
        <time>2020-09-06T19:45:41Z</time>
      </trkpt>
      <trkpt lat="47.84758" lon="6.58987">
        <ele>410.4</ele>
        <time>2020-09-06T19:45:41Z</time>
      </trkpt>
      <trkpt lat="47.84778" lon="6.58991">
        <ele>409.4</ele>
        <time>2020-09-06T19:45:41Z</time>
      </trkpt>
      <trkpt lat="47.8479" lon="6.58996">
        <ele>408.7</ele>
        <time>2020-09-06T19:45:41Z</time>
      </trkpt>
      <trkpt lat="47.84796" lon="6.58997">
        <ele>408.1</ele>
        <time>2020-09-06T19:45:41Z</time>
      </trkpt>
      <trkpt lat="47.84802" lon="6.5899">
        <ele>407.3</ele>
        <time>2020-09-06T19:45:41Z</time>
      </trkpt>
      <trkpt lat="47.84801" lon="6.58979">
        <ele>406.5</ele>
        <time>2020-09-06T19:45:41Z</time>
      </trkpt>
      <trkpt lat="47.84796" lon="6.58974">
        <ele>405.8</ele>
        <time>2020-09-06T19:45:41Z</time>
      </trkpt>
      <trkpt lat="47.84778" lon="6.58966">
        <ele>404</ele>
        <time>2020-09-06T19:45:41Z</time>
      </trkpt>
      <trkpt lat="47.84756" lon="6.58954">
        <ele>402.3</ele>
        <time>2020-09-06T19:45:41Z</time>
      </trkpt>
      <trkpt lat="47.84735" lon="6.58943">
        <ele>400.9</ele>
        <time>2020-09-06T19:45:41Z</time>
      </trkpt>
      <trkpt lat="47.84718" lon="6.58931">
        <ele>399</ele>
        <time>2020-09-06T19:45:41Z</time>
      </trkpt>
      <trkpt lat="47.84708" lon="6.58925">
        <ele>397.2</ele>
        <time>2020-09-06T19:45:41Z</time>
      </trkpt>
      <trkpt lat="47.84696" lon="6.58913">
        <ele>395.3</ele>
        <time>2020-09-06T19:45:41Z</time>
      </trkpt>
      <trkpt lat="47.8469" lon="6.58906">
        <ele>394.9</ele>
        <time>2020-09-06T19:45:41Z</time>
      </trkpt>
      <trkpt lat="47.84685" lon="6.58928">
        <ele>393.6</ele>
        <time>2020-09-06T19:45:41Z</time>
      </trkpt>
      <trkpt lat="47.84677" lon="6.58983">
        <ele>389.5</ele>
        <time>2020-09-06T19:45:41Z</time>
      </trkpt>
      <trkpt lat="47.84669" lon="6.59029">
        <ele>387.9</ele>
        <time>2020-09-06T19:45:41Z</time>
      </trkpt>
      <trkpt lat="47.84663" lon="6.59041">
        <ele>388.1</ele>
        <time>2020-09-06T19:45:41Z</time>
      </trkpt>
      <trkpt lat="47.84657" lon="6.5905">
        <ele>388.6</ele>
        <time>2020-09-06T19:45:41Z</time>
      </trkpt>
      <trkpt lat="47.84642" lon="6.59057">
        <ele>389.3</ele>
        <time>2020-09-06T19:45:41Z</time>
      </trkpt>
      <trkpt lat="47.84598" lon="6.59082">
        <ele>389.4</ele>
        <time>2020-09-06T19:45:41Z</time>
      </trkpt>
      <trkpt lat="47.8455" lon="6.59109">
        <ele>387.8</ele>
        <time>2020-09-06T19:45:41Z</time>
      </trkpt>
      <trkpt lat="47.84501" lon="6.59136">
        <ele>387.9</ele>
        <time>2020-09-06T19:45:41Z</time>
      </trkpt>
      <trkpt lat="47.84462" lon="6.59157">
        <ele>388.6</ele>
        <time>2020-09-06T19:45:41Z</time>
      </trkpt>
      <trkpt lat="47.84437" lon="6.59173">
        <ele>389</ele>
        <time>2020-09-06T19:45:41Z</time>
      </trkpt>
      <trkpt lat="47.84418" lon="6.59191">
        <ele>389.6</ele>
        <time>2020-09-06T19:45:41Z</time>
      </trkpt>
      <trkpt lat="47.844" lon="6.59208">
        <ele>389.9</ele>
        <time>2020-09-06T19:45:41Z</time>
      </trkpt>
      <trkpt lat="47.84387" lon="6.59224">
        <ele>390.2</ele>
        <time>2020-09-06T19:45:41Z</time>
      </trkpt>
      <trkpt lat="47.84377" lon="6.59242">
        <ele>390.7</ele>
        <time>2020-09-06T19:45:41Z</time>
      </trkpt>
      <trkpt lat="47.84372" lon="6.59258">
        <ele>391.2</ele>
        <time>2020-09-06T19:45:41Z</time>
      </trkpt>
      <trkpt lat="47.84367" lon="6.59279">
        <ele>391.6</ele>
        <time>2020-09-06T19:45:41Z</time>
      </trkpt>
      <trkpt lat="47.84366" lon="6.59295">
        <ele>391.7</ele>
        <time>2020-09-06T19:45:41Z</time>
      </trkpt>
      <trkpt lat="47.84369" lon="6.59318">
        <ele>392</ele>
        <time>2020-09-06T19:45:41Z</time>
      </trkpt>
      <trkpt lat="47.84372" lon="6.59342">
        <ele>392.7</ele>
        <time>2020-09-06T19:45:41Z</time>
      </trkpt>
      <trkpt lat="47.84374" lon="6.59352">
        <ele>392.7</ele>
        <time>2020-09-06T19:45:41Z</time>
      </trkpt>
      <trkpt lat="47.84381" lon="6.59378">
        <ele>392.2</ele>
        <time>2020-09-06T19:45:41Z</time>
      </trkpt>
      <trkpt lat="47.84391" lon="6.59404">
        <ele>392</ele>
        <time>2020-09-06T19:45:41Z</time>
      </trkpt>
      <trkpt lat="47.84395" lon="6.59421">
        <ele>392.6</ele>
        <time>2020-09-06T19:45:41Z</time>
      </trkpt>
      <trkpt lat="47.84396" lon="6.59445">
        <ele>394.2</ele>
        <time>2020-09-06T19:45:41Z</time>
      </trkpt>
      <trkpt lat="47.84394" lon="6.59461">
        <ele>394</ele>
        <time>2020-09-06T19:45:41Z</time>
      </trkpt>
      <trkpt lat="47.84388" lon="6.59479">
        <ele>394.8</ele>
        <time>2020-09-06T19:45:41Z</time>
      </trkpt>
      <trkpt lat="47.84378" lon="6.59495">
        <ele>394.4</ele>
        <time>2020-09-06T19:45:41Z</time>
      </trkpt>
      <trkpt lat="47.84358" lon="6.59521">
        <ele>394.7</ele>
        <time>2020-09-06T19:45:41Z</time>
      </trkpt>
      <trkpt lat="47.84341" lon="6.59546">
        <ele>395.4</ele>
        <time>2020-09-06T19:45:41Z</time>
      </trkpt>
      <trkpt lat="47.8432" lon="6.59578">
        <ele>395.7</ele>
        <time>2020-09-06T19:45:41Z</time>
      </trkpt>
      <trkpt lat="47.84309" lon="6.59597">
        <ele>396.3</ele>
        <time>2020-09-06T19:45:41Z</time>
      </trkpt>
      <trkpt lat="47.84304" lon="6.59615">
        <ele>397.3</ele>
        <time>2020-09-06T19:45:41Z</time>
      </trkpt>
      <trkpt lat="47.84301" lon="6.59632">
        <ele>395.8</ele>
        <time>2020-09-06T19:45:41Z</time>
      </trkpt>
      <trkpt lat="47.84296" lon="6.59655">
        <ele>395.9</ele>
        <time>2020-09-06T19:45:41Z</time>
      </trkpt>
      <trkpt lat="47.8429" lon="6.59677">
        <ele>396.1</ele>
        <time>2020-09-06T19:45:41Z</time>
      </trkpt>
      <trkpt lat="47.84281" lon="6.59704">
        <ele>396.6</ele>
        <time>2020-09-06T19:45:41Z</time>
      </trkpt>
      <trkpt lat="47.8427" lon="6.59727">
        <ele>397</ele>
        <time>2020-09-06T19:45:41Z</time>
      </trkpt>
      <trkpt lat="47.84257" lon="6.59752">
        <ele>397.6</ele>
        <time>2020-09-06T19:45:41Z</time>
      </trkpt>
      <trkpt lat="47.8424" lon="6.59781">
        <ele>398.1</ele>
        <time>2020-09-06T19:45:41Z</time>
      </trkpt>
      <trkpt lat="47.84224" lon="6.59806">
        <ele>398.9</ele>
        <time>2020-09-06T19:45:41Z</time>
      </trkpt>
      <trkpt lat="47.84204" lon="6.59836">
        <ele>399.7</ele>
        <time>2020-09-06T19:45:41Z</time>
      </trkpt>
      <trkpt lat="47.84183" lon="6.59868">
        <ele>400.5</ele>
        <time>2020-09-06T19:45:41Z</time>
      </trkpt>
      <trkpt lat="47.84164" lon="6.59893">
        <ele>401.3</ele>
        <time>2020-09-06T19:45:41Z</time>
      </trkpt>
      <trkpt lat="47.84147" lon="6.59912">
        <ele>401.8</ele>
        <time>2020-09-06T19:45:41Z</time>
      </trkpt>
      <trkpt lat="47.84126" lon="6.59936">
        <ele>402.4</ele>
        <time>2020-09-06T19:45:41Z</time>
      </trkpt>
      <trkpt lat="47.84111" lon="6.59953">
        <ele>402.9</ele>
        <time>2020-09-06T19:45:41Z</time>
      </trkpt>
      <trkpt lat="47.84094" lon="6.5997">
        <ele>403.4</ele>
        <time>2020-09-06T19:45:41Z</time>
      </trkpt>
      <trkpt lat="47.84077" lon="6.59984">
        <ele>404</ele>
        <time>2020-09-06T19:45:41Z</time>
      </trkpt>
      <trkpt lat="47.8407" lon="6.59987">
        <ele>404.3</ele>
        <time>2020-09-06T19:45:41Z</time>
      </trkpt>
      <trkpt lat="47.8406" lon="6.59988">
        <ele>405</ele>
        <time>2020-09-06T19:45:41Z</time>
      </trkpt>
      <trkpt lat="47.84053" lon="6.59985">
        <ele>405.2</ele>
        <time>2020-09-06T19:45:41Z</time>
      </trkpt>
      <trkpt lat="47.84045" lon="6.59979">
        <ele>405.6</ele>
        <time>2020-09-06T19:45:41Z</time>
      </trkpt>
      <trkpt lat="47.84036" lon="6.59969">
        <ele>405.9</ele>
        <time>2020-09-06T19:45:41Z</time>
      </trkpt>
      <trkpt lat="47.84029" lon="6.59964">
        <ele>406.2</ele>
        <time>2020-09-06T19:45:41Z</time>
      </trkpt>
      <trkpt lat="47.8402" lon="6.59962">
        <ele>406.7</ele>
        <time>2020-09-06T19:45:41Z</time>
      </trkpt>
      <trkpt lat="47.84008" lon="6.59966">
        <ele>407.2</ele>
        <time>2020-09-06T19:45:41Z</time>
      </trkpt>
      <trkpt lat="47.83993" lon="6.59976">
        <ele>407.6</ele>
        <time>2020-09-06T19:45:41Z</time>
      </trkpt>
      <trkpt lat="47.83975" lon="6.59995">
        <ele>406.5</ele>
        <time>2020-09-06T19:45:41Z</time>
      </trkpt>
      <trkpt lat="47.83955" lon="6.60017">
        <ele>407.5</ele>
        <time>2020-09-06T19:45:41Z</time>
      </trkpt>
      <trkpt lat="47.83939" lon="6.60032">
        <ele>408.5</ele>
        <time>2020-09-06T19:45:41Z</time>
      </trkpt>
      <trkpt lat="47.83929" lon="6.60044">
        <ele>409.5</ele>
        <time>2020-09-06T19:45:41Z</time>
      </trkpt>
      <trkpt lat="47.83917" lon="6.6006">
        <ele>410.6</ele>
        <time>2020-09-06T19:45:41Z</time>
      </trkpt>
      <trkpt lat="47.8391" lon="6.60074">
        <ele>411.2</ele>
        <time>2020-09-06T19:45:41Z</time>
      </trkpt>
      <trkpt lat="47.83902" lon="6.60092">
        <ele>411.3</ele>
        <time>2020-09-06T19:45:41Z</time>
      </trkpt>
      <trkpt lat="47.83895" lon="6.60109">
        <ele>410.5</ele>
        <time>2020-09-06T19:45:41Z</time>
      </trkpt>
      <trkpt lat="47.83889" lon="6.60137">
        <ele>409.5</ele>
        <time>2020-09-06T19:45:41Z</time>
      </trkpt>
      <trkpt lat="47.83884" lon="6.60193">
        <ele>410</ele>
        <time>2020-09-06T19:45:41Z</time>
      </trkpt>
      <trkpt lat="47.83881" lon="6.60232">
        <ele>410.6</ele>
        <time>2020-09-06T19:45:41Z</time>
      </trkpt>
      <trkpt lat="47.83879" lon="6.60255">
        <ele>409.8</ele>
        <time>2020-09-06T19:45:41Z</time>
      </trkpt>
      <trkpt lat="47.83879" lon="6.60277">
        <ele>409.9</ele>
        <time>2020-09-06T19:45:41Z</time>
      </trkpt>
      <trkpt lat="47.83881" lon="6.60298">
        <ele>410.6</ele>
        <time>2020-09-06T19:45:41Z</time>
      </trkpt>
      <trkpt lat="47.83885" lon="6.60312">
        <ele>410.2</ele>
        <time>2020-09-06T19:45:41Z</time>
      </trkpt>
      <trkpt lat="47.83892" lon="6.6033">
        <ele>411.2</ele>
        <time>2020-09-06T19:45:41Z</time>
      </trkpt>
      <trkpt lat="47.83901" lon="6.60352">
        <ele>411.4</ele>
        <time>2020-09-06T19:45:41Z</time>
      </trkpt>
      <trkpt lat="47.83907" lon="6.60368">
        <ele>411.9</ele>
        <time>2020-09-06T19:45:41Z</time>
      </trkpt>
      <trkpt lat="47.83914" lon="6.60397">
        <ele>411.8</ele>
        <time>2020-09-06T19:45:41Z</time>
      </trkpt>
      <trkpt lat="47.83921" lon="6.60434">
        <ele>412.7</ele>
        <time>2020-09-06T19:45:41Z</time>
      </trkpt>
      <trkpt lat="47.83924" lon="6.60459">
        <ele>413.1</ele>
        <time>2020-09-06T19:45:41Z</time>
      </trkpt>
      <trkpt lat="47.83923" lon="6.6047">
        <ele>412.4</ele>
        <time>2020-09-06T19:45:41Z</time>
      </trkpt>
      <trkpt lat="47.83921" lon="6.60487">
        <ele>412.8</ele>
        <time>2020-09-06T19:45:41Z</time>
      </trkpt>
      <trkpt lat="47.83917" lon="6.60503">
        <ele>412.8</ele>
        <time>2020-09-06T19:45:41Z</time>
      </trkpt>
      <trkpt lat="47.83906" lon="6.60529">
        <ele>412.1</ele>
        <time>2020-09-06T19:45:41Z</time>
      </trkpt>
      <trkpt lat="47.83903" lon="6.60536">
        <ele>412.9</ele>
        <time>2020-09-06T19:45:41Z</time>
      </trkpt>
      <trkpt lat="47.83888" lon="6.60568">
        <ele>412.1</ele>
        <time>2020-09-06T19:45:41Z</time>
      </trkpt>
      <trkpt lat="47.83883" lon="6.60583">
        <ele>412.4</ele>
        <time>2020-09-06T19:45:41Z</time>
      </trkpt>
      <trkpt lat="47.83878" lon="6.60599">
        <ele>411.9</ele>
        <time>2020-09-06T19:45:41Z</time>
      </trkpt>
      <trkpt lat="47.83874" lon="6.60614">
        <ele>411.9</ele>
        <time>2020-09-06T19:45:41Z</time>
      </trkpt>
      <trkpt lat="47.83865" lon="6.60635">
        <ele>412.4</ele>
        <time>2020-09-06T19:45:41Z</time>
      </trkpt>
      <trkpt lat="47.83859" lon="6.60644">
        <ele>412.3</ele>
        <time>2020-09-06T19:45:41Z</time>
      </trkpt>
      <trkpt lat="47.83852" lon="6.60652">
        <ele>412.9</ele>
        <time>2020-09-06T19:45:41Z</time>
      </trkpt>
      <trkpt lat="47.83842" lon="6.60661">
        <ele>412.7</ele>
        <time>2020-09-06T19:45:41Z</time>
      </trkpt>
      <trkpt lat="47.8383" lon="6.60676">
        <ele>413</ele>
        <time>2020-09-06T19:45:41Z</time>
      </trkpt>
      <trkpt lat="47.83821" lon="6.60684">
        <ele>413</ele>
        <time>2020-09-06T19:45:41Z</time>
      </trkpt>
      <trkpt lat="47.83811" lon="6.60692">
        <ele>412.5</ele>
        <time>2020-09-06T19:45:41Z</time>
      </trkpt>
      <trkpt lat="47.83803" lon="6.60697">
        <ele>412.3</ele>
        <time>2020-09-06T19:45:41Z</time>
      </trkpt>
      <trkpt lat="47.83797" lon="6.60698">
        <ele>412.3</ele>
        <time>2020-09-06T19:45:41Z</time>
      </trkpt>
      <trkpt lat="47.83787" lon="6.607">
        <ele>412.4</ele>
        <time>2020-09-06T19:45:41Z</time>
      </trkpt>
      <trkpt lat="47.83776" lon="6.60706">
        <ele>412.7</ele>
        <time>2020-09-06T19:45:41Z</time>
      </trkpt>
      <trkpt lat="47.83747" lon="6.60726">
        <ele>413</ele>
        <time>2020-09-06T19:45:41Z</time>
      </trkpt>
      <trkpt lat="47.83727" lon="6.60739">
        <ele>413.2</ele>
        <time>2020-09-06T19:45:41Z</time>
      </trkpt>
      <trkpt lat="47.83712" lon="6.60749">
        <ele>413.4</ele>
        <time>2020-09-06T19:45:41Z</time>
      </trkpt>
      <trkpt lat="47.83694" lon="6.60765">
        <ele>414.3</ele>
        <time>2020-09-06T19:45:41Z</time>
      </trkpt>
      <trkpt lat="47.83682" lon="6.60776">
        <ele>414.9</ele>
        <time>2020-09-06T19:45:41Z</time>
      </trkpt>
      <trkpt lat="47.83669" lon="6.60785">
        <ele>415.1</ele>
        <time>2020-09-06T19:45:41Z</time>
      </trkpt>
      <trkpt lat="47.83656" lon="6.60792">
        <ele>415.4</ele>
        <time>2020-09-06T19:45:41Z</time>
      </trkpt>
      <trkpt lat="47.83644" lon="6.60797">
        <ele>415.7</ele>
        <time>2020-09-06T19:45:41Z</time>
      </trkpt>
      <trkpt lat="47.83628" lon="6.60801">
        <ele>416</ele>
        <time>2020-09-06T19:45:41Z</time>
      </trkpt>
      <trkpt lat="47.83608" lon="6.60804">
        <ele>415.9</ele>
        <time>2020-09-06T19:45:41Z</time>
      </trkpt>
      <trkpt lat="47.8359" lon="6.60812">
        <ele>416.8</ele>
        <time>2020-09-06T19:45:41Z</time>
      </trkpt>
      <trkpt lat="47.83578" lon="6.60818">
        <ele>416.8</ele>
        <time>2020-09-06T19:45:41Z</time>
      </trkpt>
      <trkpt lat="47.8357" lon="6.60827">
        <ele>417.4</ele>
        <time>2020-09-06T19:45:41Z</time>
      </trkpt>
      <trkpt lat="47.83563" lon="6.60835">
        <ele>416.8</ele>
        <time>2020-09-06T19:45:41Z</time>
      </trkpt>
      <trkpt lat="47.8356" lon="6.60845">
        <ele>417.3</ele>
        <time>2020-09-06T19:45:41Z</time>
      </trkpt>
      <trkpt lat="47.83556" lon="6.6086">
        <ele>417.5</ele>
        <time>2020-09-06T19:45:41Z</time>
      </trkpt>
      <trkpt lat="47.8355" lon="6.60869">
        <ele>417.7</ele>
        <time>2020-09-06T19:45:41Z</time>
      </trkpt>
      <trkpt lat="47.83536" lon="6.60885">
        <ele>419.3</ele>
        <time>2020-09-06T19:45:41Z</time>
      </trkpt>
      <trkpt lat="47.83523" lon="6.60898">
        <ele>421.9</ele>
        <time>2020-09-06T19:45:41Z</time>
      </trkpt>
      <trkpt lat="47.83494" lon="6.60926">
        <ele>422</ele>
        <time>2020-09-06T19:45:41Z</time>
      </trkpt>
      <trkpt lat="47.83476" lon="6.60943">
        <ele>423.3</ele>
        <time>2020-09-06T19:45:41Z</time>
      </trkpt>
      <trkpt lat="47.83456" lon="6.60961">
        <ele>424.3</ele>
        <time>2020-09-06T19:45:41Z</time>
      </trkpt>
      <trkpt lat="47.83435" lon="6.6098">
        <ele>425.2</ele>
        <time>2020-09-06T19:45:41Z</time>
      </trkpt>
      <trkpt lat="47.83419" lon="6.60996">
        <ele>426</ele>
        <time>2020-09-06T19:45:41Z</time>
      </trkpt>
      <trkpt lat="47.83409" lon="6.61005">
        <ele>425.5</ele>
        <time>2020-09-06T19:45:41Z</time>
      </trkpt>
      <trkpt lat="47.83401" lon="6.6101">
        <ele>424.9</ele>
        <time>2020-09-06T19:45:41Z</time>
      </trkpt>
      <trkpt lat="47.83394" lon="6.61013">
        <ele>424.9</ele>
        <time>2020-09-06T19:45:41Z</time>
      </trkpt>
      <trkpt lat="47.8339" lon="6.61017">
        <ele>424.7</ele>
        <time>2020-09-06T19:45:41Z</time>
      </trkpt>
      <trkpt lat="47.83387" lon="6.61026">
        <ele>423.6</ele>
        <time>2020-09-06T19:45:41Z</time>
      </trkpt>
      <trkpt lat="47.83381" lon="6.61044">
        <ele>422.4</ele>
        <time>2020-09-06T19:45:41Z</time>
      </trkpt>
      <trkpt lat="47.83375" lon="6.61063">
        <ele>422.3</ele>
        <time>2020-09-06T19:45:41Z</time>
      </trkpt>
      <trkpt lat="47.83372" lon="6.61068">
        <ele>421.8</ele>
        <time>2020-09-06T19:45:41Z</time>
      </trkpt>
      <trkpt lat="47.83364" lon="6.61077">
        <ele>420.6</ele>
        <time>2020-09-06T19:45:41Z</time>
      </trkpt>
      <trkpt lat="47.83354" lon="6.61085">
        <ele>419.7</ele>
        <time>2020-09-06T19:45:41Z</time>
      </trkpt>
      <trkpt lat="47.83345" lon="6.61089">
        <ele>419.4</ele>
        <time>2020-09-06T19:45:41Z</time>
      </trkpt>
      <trkpt lat="47.83336" lon="6.61088">
        <ele>419.2</ele>
        <time>2020-09-06T19:45:41Z</time>
      </trkpt>
      <trkpt lat="47.83321" lon="6.61084">
        <ele>419</ele>
        <time>2020-09-06T19:45:41Z</time>
      </trkpt>
      <trkpt lat="47.83314" lon="6.61082">
        <ele>418.9</ele>
        <time>2020-09-06T19:45:41Z</time>
      </trkpt>
      <trkpt lat="47.83308" lon="6.61084">
        <ele>418.9</ele>
        <time>2020-09-06T19:45:41Z</time>
      </trkpt>
      <trkpt lat="47.83302" lon="6.6109">
        <ele>418.9</ele>
        <time>2020-09-06T19:45:41Z</time>
      </trkpt>
      <trkpt lat="47.8329" lon="6.6111">
        <ele>419.2</ele>
        <time>2020-09-06T19:45:41Z</time>
      </trkpt>
      <trkpt lat="47.83283" lon="6.61122">
        <ele>419.7</ele>
        <time>2020-09-06T19:45:41Z</time>
      </trkpt>
      <trkpt lat="47.8328" lon="6.61137">
        <ele>419.7</ele>
        <time>2020-09-06T19:45:41Z</time>
      </trkpt>
      <trkpt lat="47.83283" lon="6.61122">
        <ele>419.7</ele>
        <time>2020-09-06T19:45:41Z</time>
      </trkpt>
      <trkpt lat="47.83275" lon="6.61128">
        <ele>419.7</ele>
        <time>2020-09-06T19:45:41Z</time>
      </trkpt>
      <trkpt lat="47.83267" lon="6.61133">
        <ele>419.4</ele>
        <time>2020-09-06T19:45:41Z</time>
      </trkpt>
      <trkpt lat="47.83251" lon="6.61141">
        <ele>420.1</ele>
        <time>2020-09-06T19:45:41Z</time>
      </trkpt>
      <trkpt lat="47.83236" lon="6.61143">
        <ele>420.5</ele>
        <time>2020-09-06T19:45:41Z</time>
      </trkpt>
      <trkpt lat="47.83222" lon="6.61143">
        <ele>421</ele>
        <time>2020-09-06T19:45:41Z</time>
      </trkpt>
      <trkpt lat="47.83209" lon="6.61142">
        <ele>421.7</ele>
        <time>2020-09-06T19:45:41Z</time>
      </trkpt>
      <trkpt lat="47.83196" lon="6.61138">
        <ele>422.4</ele>
        <time>2020-09-06T19:45:41Z</time>
      </trkpt>
      <trkpt lat="47.83189" lon="6.61133">
        <ele>422.9</ele>
        <time>2020-09-06T19:45:41Z</time>
      </trkpt>
      <trkpt lat="47.83183" lon="6.61124">
        <ele>422.9</ele>
        <time>2020-09-06T19:45:41Z</time>
      </trkpt>
      <trkpt lat="47.8318" lon="6.61114">
        <ele>422.8</ele>
        <time>2020-09-06T19:45:41Z</time>
      </trkpt>
      <trkpt lat="47.83175" lon="6.61095">
        <ele>422.6</ele>
        <time>2020-09-06T19:45:41Z</time>
      </trkpt>
      <trkpt lat="47.83168" lon="6.6107">
        <ele>422.2</ele>
        <time>2020-09-06T19:45:41Z</time>
      </trkpt>
      <trkpt lat="47.83167" lon="6.61042">
        <ele>422.1</ele>
        <time>2020-09-06T19:45:41Z</time>
      </trkpt>
      <trkpt lat="47.83166" lon="6.61028">
        <ele>422.2</ele>
        <time>2020-09-06T19:45:41Z</time>
      </trkpt>
      <trkpt lat="47.83166" lon="6.6101">
        <ele>422.5</ele>
        <time>2020-09-06T19:45:41Z</time>
      </trkpt>
      <trkpt lat="47.83167" lon="6.60993">
        <ele>423.6</ele>
        <time>2020-09-06T19:45:41Z</time>
      </trkpt>
      <trkpt lat="47.8317" lon="6.60968">
        <ele>424.5</ele>
        <time>2020-09-06T19:45:41Z</time>
      </trkpt>
      <trkpt lat="47.83177" lon="6.60945">
        <ele>424.7</ele>
        <time>2020-09-06T19:45:41Z</time>
      </trkpt>
      <trkpt lat="47.83183" lon="6.60927">
        <ele>426</ele>
        <time>2020-09-06T19:45:41Z</time>
      </trkpt>
      <trkpt lat="47.83185" lon="6.60918">
        <ele>426.6</ele>
        <time>2020-09-06T19:45:41Z</time>
      </trkpt>
      <trkpt lat="47.83185" lon="6.60908">
        <ele>427.4</ele>
        <time>2020-09-06T19:45:41Z</time>
      </trkpt>
      <trkpt lat="47.83181" lon="6.60887">
        <ele>428.5</ele>
        <time>2020-09-06T19:45:41Z</time>
      </trkpt>
      <trkpt lat="47.83174" lon="6.60846">
        <ele>430.3</ele>
        <time>2020-09-06T19:45:41Z</time>
      </trkpt>
      <trkpt lat="47.83167" lon="6.60801">
        <ele>432.3</ele>
        <time>2020-09-06T19:45:41Z</time>
      </trkpt>
      <trkpt lat="47.83159" lon="6.60754">
        <ele>434.4</ele>
        <time>2020-09-06T19:45:41Z</time>
      </trkpt>
      <trkpt lat="47.83154" lon="6.60726">
        <ele>435.7</ele>
        <time>2020-09-06T19:45:41Z</time>
      </trkpt>
      <trkpt lat="47.83153" lon="6.60714">
        <ele>436.4</ele>
        <time>2020-09-06T19:45:41Z</time>
      </trkpt>
      <trkpt lat="47.83155" lon="6.60703">
        <ele>437.2</ele>
        <time>2020-09-06T19:45:41Z</time>
      </trkpt>
      <trkpt lat="47.83158" lon="6.60693">
        <ele>437.6</ele>
        <time>2020-09-06T19:45:41Z</time>
      </trkpt>
      <trkpt lat="47.83172" lon="6.60666">
        <ele>438.9</ele>
        <time>2020-09-06T19:45:41Z</time>
      </trkpt>
      <trkpt lat="47.83191" lon="6.60628">
        <ele>441.4</ele>
        <time>2020-09-06T19:45:41Z</time>
      </trkpt>
      <trkpt lat="47.83202" lon="6.60611">
        <ele>442.5</ele>
        <time>2020-09-06T19:45:41Z</time>
      </trkpt>
      <trkpt lat="47.83221" lon="6.60588">
        <ele>443</ele>
        <time>2020-09-06T19:45:41Z</time>
      </trkpt>
      <trkpt lat="47.83232" lon="6.60575">
        <ele>444.3</ele>
        <time>2020-09-06T19:45:41Z</time>
      </trkpt>
      <trkpt lat="47.83243" lon="6.60566">
        <ele>443.7</ele>
        <time>2020-09-06T19:45:41Z</time>
      </trkpt>
      <trkpt lat="47.83253" lon="6.60558">
        <ele>443.8</ele>
        <time>2020-09-06T19:45:41Z</time>
      </trkpt>
      <trkpt lat="47.83261" lon="6.60551">
        <ele>446.4</ele>
        <time>2020-09-06T19:45:41Z</time>
      </trkpt>
      <trkpt lat="47.83271" lon="6.60546">
        <ele>447.9</ele>
        <time>2020-09-06T19:45:41Z</time>
      </trkpt>
      <trkpt lat="47.83279" lon="6.60544">
        <ele>448.7</ele>
        <time>2020-09-06T19:45:41Z</time>
      </trkpt>
      <trkpt lat="47.83283" lon="6.60543">
        <ele>448.9</ele>
        <time>2020-09-06T19:45:41Z</time>
      </trkpt>
      <trkpt lat="47.83288" lon="6.60538">
        <ele>449.2</ele>
        <time>2020-09-06T19:45:41Z</time>
      </trkpt>
      <trkpt lat="47.83291" lon="6.60526">
        <ele>450.4</ele>
        <time>2020-09-06T19:45:41Z</time>
      </trkpt>
      <trkpt lat="47.83281" lon="6.60519">
        <ele>451</ele>
        <time>2020-09-06T19:45:42Z</time>
      </trkpt>
      <trkpt lat="47.83273" lon="6.60519">
        <ele>451.4</ele>
        <time>2020-09-06T19:45:42Z</time>
      </trkpt>
      <trkpt lat="47.83262" lon="6.60523">
        <ele>451.1</ele>
        <time>2020-09-06T19:45:42Z</time>
      </trkpt>
      <trkpt lat="47.83254" lon="6.60528">
        <ele>451.2</ele>
        <time>2020-09-06T19:45:42Z</time>
      </trkpt>
      <trkpt lat="47.83244" lon="6.60532">
        <ele>451.1</ele>
        <time>2020-09-06T19:45:42Z</time>
      </trkpt>
      <trkpt lat="47.83237" lon="6.60533">
        <ele>452</ele>
        <time>2020-09-06T19:45:42Z</time>
      </trkpt>
      <trkpt lat="47.83226" lon="6.60532">
        <ele>454.1</ele>
        <time>2020-09-06T19:45:42Z</time>
      </trkpt>
      <trkpt lat="47.83216" lon="6.60532">
        <ele>454.9</ele>
        <time>2020-09-06T19:45:42Z</time>
      </trkpt>
      <trkpt lat="47.83205" lon="6.60532">
        <ele>456</ele>
        <time>2020-09-06T19:45:42Z</time>
      </trkpt>
      <trkpt lat="47.83191" lon="6.60535">
        <ele>457.9</ele>
        <time>2020-09-06T19:45:42Z</time>
      </trkpt>
      <trkpt lat="47.8318" lon="6.60539">
        <ele>458.6</ele>
        <time>2020-09-06T19:45:42Z</time>
      </trkpt>
      <trkpt lat="47.83163" lon="6.60549">
        <ele>458.4</ele>
        <time>2020-09-06T19:45:42Z</time>
      </trkpt>
      <trkpt lat="47.8315" lon="6.60559">
        <ele>459.3</ele>
        <time>2020-09-06T19:45:42Z</time>
      </trkpt>
      <trkpt lat="47.8314" lon="6.6057">
        <ele>460</ele>
        <time>2020-09-06T19:45:42Z</time>
      </trkpt>
      <trkpt lat="47.83128" lon="6.6058">
        <ele>460.7</ele>
        <time>2020-09-06T19:45:42Z</time>
      </trkpt>
      <trkpt lat="47.83116" lon="6.60587">
        <ele>461.6</ele>
        <time>2020-09-06T19:45:42Z</time>
      </trkpt>
      <trkpt lat="47.83099" lon="6.60595">
        <ele>462.8</ele>
        <time>2020-09-06T19:45:42Z</time>
      </trkpt>
      <trkpt lat="47.83082" lon="6.60604">
        <ele>463.9</ele>
        <time>2020-09-06T19:45:42Z</time>
      </trkpt>
      <trkpt lat="47.83071" lon="6.6061">
        <ele>464.2</ele>
        <time>2020-09-06T19:45:42Z</time>
      </trkpt>
      <trkpt lat="47.83064" lon="6.60614">
        <ele>464.8</ele>
        <time>2020-09-06T19:45:42Z</time>
      </trkpt>
      <trkpt lat="47.83051" lon="6.60625">
        <ele>465.9</ele>
        <time>2020-09-06T19:45:42Z</time>
      </trkpt>
      <trkpt lat="47.83038" lon="6.60634">
        <ele>467.4</ele>
        <time>2020-09-06T19:45:42Z</time>
      </trkpt>
      <trkpt lat="47.83032" lon="6.60641">
        <ele>467.4</ele>
        <time>2020-09-06T19:45:42Z</time>
      </trkpt>
      <trkpt lat="47.83025" lon="6.6065">
        <ele>469.9</ele>
        <time>2020-09-06T19:45:42Z</time>
      </trkpt>
      <trkpt lat="47.8302" lon="6.6066">
        <ele>471.1</ele>
        <time>2020-09-06T19:45:42Z</time>
      </trkpt>
      <trkpt lat="47.83017" lon="6.60668">
        <ele>473.7</ele>
        <time>2020-09-06T19:45:42Z</time>
      </trkpt>
      <trkpt lat="47.83014" lon="6.60681">
        <ele>474.5</ele>
        <time>2020-09-06T19:45:42Z</time>
      </trkpt>
      <trkpt lat="47.83014" lon="6.60698">
        <ele>471.6</ele>
        <time>2020-09-06T19:45:42Z</time>
      </trkpt>
      <trkpt lat="47.83014" lon="6.60709">
        <ele>470.4</ele>
        <time>2020-09-06T19:45:42Z</time>
      </trkpt>
      <trkpt lat="47.83017" lon="6.60722">
        <ele>470.9</ele>
        <time>2020-09-06T19:45:42Z</time>
      </trkpt>
      <trkpt lat="47.83019" lon="6.60739">
        <ele>470.8</ele>
        <time>2020-09-06T19:45:42Z</time>
      </trkpt>
      <trkpt lat="47.8302" lon="6.60752">
        <ele>471.5</ele>
        <time>2020-09-06T19:45:42Z</time>
      </trkpt>
      <trkpt lat="47.83018" lon="6.60763">
        <ele>472.7</ele>
        <time>2020-09-06T19:45:42Z</time>
      </trkpt>
      <trkpt lat="47.83015" lon="6.60771">
        <ele>472.8</ele>
        <time>2020-09-06T19:45:42Z</time>
      </trkpt>
      <trkpt lat="47.8301" lon="6.60775">
        <ele>473.2</ele>
        <time>2020-09-06T19:45:42Z</time>
      </trkpt>
      <trkpt lat="47.83005" lon="6.60777">
        <ele>473.8</ele>
        <time>2020-09-06T19:45:42Z</time>
      </trkpt>
      <trkpt lat="47.82996" lon="6.6078">
        <ele>474.3</ele>
        <time>2020-09-06T19:45:42Z</time>
      </trkpt>
      <trkpt lat="47.8299" lon="6.6078">
        <ele>474.6</ele>
        <time>2020-09-06T19:45:42Z</time>
      </trkpt>
      <trkpt lat="47.82982" lon="6.6078">
        <ele>475.3</ele>
        <time>2020-09-06T19:45:42Z</time>
      </trkpt>
      <trkpt lat="47.82966" lon="6.60779">
        <ele>476</ele>
        <time>2020-09-06T19:45:42Z</time>
      </trkpt>
      <trkpt lat="47.82958" lon="6.60777">
        <ele>476.5</ele>
        <time>2020-09-06T19:45:42Z</time>
      </trkpt>
      <trkpt lat="47.82949" lon="6.60781">
        <ele>476.8</ele>
        <time>2020-09-06T19:45:42Z</time>
      </trkpt>
      <trkpt lat="47.82937" lon="6.60787">
        <ele>477.3</ele>
        <time>2020-09-06T19:45:42Z</time>
      </trkpt>
      <trkpt lat="47.82921" lon="6.60792">
        <ele>478.4</ele>
        <time>2020-09-06T19:45:42Z</time>
      </trkpt>
      <trkpt lat="47.82907" lon="6.60795">
        <ele>478.9</ele>
        <time>2020-09-06T19:45:42Z</time>
      </trkpt>
      <trkpt lat="47.8289" lon="6.60796">
        <ele>479.4</ele>
        <time>2020-09-06T19:45:42Z</time>
      </trkpt>
      <trkpt lat="47.8286" lon="6.60802">
        <ele>479.3</ele>
        <time>2020-09-06T19:45:42Z</time>
      </trkpt>
      <trkpt lat="47.82825" lon="6.60809">
        <ele>479.1</ele>
        <time>2020-09-06T19:45:42Z</time>
      </trkpt>
      <trkpt lat="47.82807" lon="6.60813">
        <ele>479.3</ele>
        <time>2020-09-06T19:45:42Z</time>
      </trkpt>
      <trkpt lat="47.82799" lon="6.60817">
        <ele>479.5</ele>
        <time>2020-09-06T19:45:42Z</time>
      </trkpt>
      <trkpt lat="47.82795" lon="6.60822">
        <ele>479.1</ele>
        <time>2020-09-06T19:45:42Z</time>
      </trkpt>
      <trkpt lat="47.82789" lon="6.60831">
        <ele>479.5</ele>
        <time>2020-09-06T19:45:42Z</time>
      </trkpt>
      <trkpt lat="47.82775" lon="6.60857">
        <ele>481</ele>
        <time>2020-09-06T19:45:42Z</time>
      </trkpt>
      <trkpt lat="47.82767" lon="6.60866">
        <ele>481.9</ele>
        <time>2020-09-06T19:45:42Z</time>
      </trkpt>
      <trkpt lat="47.82759" lon="6.60869">
        <ele>481.7</ele>
        <time>2020-09-06T19:45:42Z</time>
      </trkpt>
      <trkpt lat="47.82754" lon="6.60871">
        <ele>481.5</ele>
        <time>2020-09-06T19:45:42Z</time>
      </trkpt>
      <trkpt lat="47.8273" lon="6.60882">
        <ele>481.9</ele>
        <time>2020-09-06T19:45:42Z</time>
      </trkpt>
      <trkpt lat="47.82666" lon="6.60912">
        <ele>483.2</ele>
        <time>2020-09-06T19:45:42Z</time>
      </trkpt>
      <trkpt lat="47.82644" lon="6.60924">
        <ele>484.1</ele>
        <time>2020-09-06T19:45:42Z</time>
      </trkpt>
      <trkpt lat="47.82631" lon="6.60929">
        <ele>484.3</ele>
        <time>2020-09-06T19:45:42Z</time>
      </trkpt>
      <trkpt lat="47.82622" lon="6.6093">
        <ele>484.1</ele>
        <time>2020-09-06T19:45:42Z</time>
      </trkpt>
      <trkpt lat="47.82605" lon="6.60929">
        <ele>484</ele>
        <time>2020-09-06T19:45:42Z</time>
      </trkpt>
      <trkpt lat="47.82577" lon="6.60926">
        <ele>483.8</ele>
        <time>2020-09-06T19:45:42Z</time>
      </trkpt>
      <trkpt lat="47.82551" lon="6.60921">
        <ele>484.5</ele>
        <time>2020-09-06T19:45:42Z</time>
      </trkpt>
      <trkpt lat="47.82538" lon="6.60917">
        <ele>485.2</ele>
        <time>2020-09-06T19:45:42Z</time>
      </trkpt>
      <trkpt lat="47.82524" lon="6.60912">
        <ele>484.9</ele>
        <time>2020-09-06T19:45:42Z</time>
      </trkpt>
      <trkpt lat="47.82514" lon="6.60908">
        <ele>485.5</ele>
        <time>2020-09-06T19:45:42Z</time>
      </trkpt>
      <trkpt lat="47.82498" lon="6.609">
        <ele>486.4</ele>
        <time>2020-09-06T19:45:42Z</time>
      </trkpt>
      <trkpt lat="47.82486" lon="6.60895">
        <ele>487.1</ele>
        <time>2020-09-06T19:45:42Z</time>
      </trkpt>
      <trkpt lat="47.82476" lon="6.60889">
        <ele>488.1</ele>
        <time>2020-09-06T19:45:42Z</time>
      </trkpt>
      <trkpt lat="47.82468" lon="6.60883">
        <ele>489.3</ele>
        <time>2020-09-06T19:45:42Z</time>
      </trkpt>
      <trkpt lat="47.8246" lon="6.60875">
        <ele>491.7</ele>
        <time>2020-09-06T19:45:42Z</time>
      </trkpt>
      <trkpt lat="47.82451" lon="6.60866">
        <ele>491.4</ele>
        <time>2020-09-06T19:45:42Z</time>
      </trkpt>
      <trkpt lat="47.82442" lon="6.60861">
        <ele>491.2</ele>
        <time>2020-09-06T19:45:42Z</time>
      </trkpt>
      <trkpt lat="47.82433" lon="6.60858">
        <ele>491.1</ele>
        <time>2020-09-06T19:45:42Z</time>
      </trkpt>
      <trkpt lat="47.82422" lon="6.60853">
        <ele>491.2</ele>
        <time>2020-09-06T19:45:42Z</time>
      </trkpt>
      <trkpt lat="47.82409" lon="6.60848">
        <ele>491.2</ele>
        <time>2020-09-06T19:45:42Z</time>
      </trkpt>
      <trkpt lat="47.82402" lon="6.60843">
        <ele>491.6</ele>
        <time>2020-09-06T19:45:42Z</time>
      </trkpt>
      <trkpt lat="47.82395" lon="6.60839">
        <ele>492.4</ele>
        <time>2020-09-06T19:45:42Z</time>
      </trkpt>
      <trkpt lat="47.8239" lon="6.60833">
        <ele>492.9</ele>
        <time>2020-09-06T19:45:42Z</time>
      </trkpt>
      <trkpt lat="47.82385" lon="6.60825">
        <ele>493.5</ele>
        <time>2020-09-06T19:45:42Z</time>
      </trkpt>
      <trkpt lat="47.8238" lon="6.60816">
        <ele>493.7</ele>
        <time>2020-09-06T19:45:42Z</time>
      </trkpt>
      <trkpt lat="47.82373" lon="6.60809">
        <ele>493.8</ele>
        <time>2020-09-06T19:45:42Z</time>
      </trkpt>
      <trkpt lat="47.82365" lon="6.60804">
        <ele>493.6</ele>
        <time>2020-09-06T19:45:42Z</time>
      </trkpt>
      <trkpt lat="47.82357" lon="6.608">
        <ele>493.3</ele>
        <time>2020-09-06T19:45:42Z</time>
      </trkpt>
      <trkpt lat="47.82349" lon="6.60799">
        <ele>493.2</ele>
        <time>2020-09-06T19:45:42Z</time>
      </trkpt>
      <trkpt lat="47.8234" lon="6.60797">
        <ele>493.2</ele>
        <time>2020-09-06T19:45:42Z</time>
      </trkpt>
      <trkpt lat="47.82321" lon="6.60796">
        <ele>493.4</ele>
        <time>2020-09-06T19:45:42Z</time>
      </trkpt>
      <trkpt lat="47.82301" lon="6.60792">
        <ele>494.3</ele>
        <time>2020-09-06T19:45:42Z</time>
      </trkpt>
      <trkpt lat="47.82292" lon="6.60791">
        <ele>495.2</ele>
        <time>2020-09-06T19:45:42Z</time>
      </trkpt>
      <trkpt lat="47.8228" lon="6.60788">
        <ele>496</ele>
        <time>2020-09-06T19:45:42Z</time>
      </trkpt>
      <trkpt lat="47.82269" lon="6.60782">
        <ele>496.5</ele>
        <time>2020-09-06T19:45:42Z</time>
      </trkpt>
      <trkpt lat="47.82257" lon="6.60776">
        <ele>498.2</ele>
        <time>2020-09-06T19:45:42Z</time>
      </trkpt>
      <trkpt lat="47.82249" lon="6.60771">
        <ele>499.3</ele>
        <time>2020-09-06T19:45:42Z</time>
      </trkpt>
      <trkpt lat="47.82242" lon="6.60765">
        <ele>499.9</ele>
        <time>2020-09-06T19:45:42Z</time>
      </trkpt>
      <trkpt lat="47.82235" lon="6.60756">
        <ele>501.2</ele>
        <time>2020-09-06T19:45:42Z</time>
      </trkpt>
      <trkpt lat="47.82229" lon="6.60746">
        <ele>502.1</ele>
        <time>2020-09-06T19:45:42Z</time>
      </trkpt>
      <trkpt lat="47.82221" lon="6.60729">
        <ele>503.1</ele>
        <time>2020-09-06T19:45:42Z</time>
      </trkpt>
      <trkpt lat="47.82211" lon="6.60704">
        <ele>503.5</ele>
        <time>2020-09-06T19:45:42Z</time>
      </trkpt>
      <trkpt lat="47.822" lon="6.60679">
        <ele>504.4</ele>
        <time>2020-09-06T19:45:42Z</time>
      </trkpt>
      <trkpt lat="47.82193" lon="6.60658">
        <ele>505.4</ele>
        <time>2020-09-06T19:45:42Z</time>
      </trkpt>
      <trkpt lat="47.82188" lon="6.60647">
        <ele>506.4</ele>
        <time>2020-09-06T19:45:42Z</time>
      </trkpt>
      <trkpt lat="47.82182" lon="6.60634">
        <ele>507.6</ele>
        <time>2020-09-06T19:45:42Z</time>
      </trkpt>
      <trkpt lat="47.82177" lon="6.60628">
        <ele>507.9</ele>
        <time>2020-09-06T19:45:42Z</time>
      </trkpt>
      <trkpt lat="47.82172" lon="6.60626">
        <ele>508</ele>
        <time>2020-09-06T19:45:42Z</time>
      </trkpt>
      <trkpt lat="47.82165" lon="6.60625">
        <ele>507</ele>
        <time>2020-09-06T19:45:42Z</time>
      </trkpt>
      <trkpt lat="47.82157" lon="6.60627">
        <ele>506.4</ele>
        <time>2020-09-06T19:45:42Z</time>
      </trkpt>
      <trkpt lat="47.82148" lon="6.60634">
        <ele>504.9</ele>
        <time>2020-09-06T19:45:42Z</time>
      </trkpt>
      <trkpt lat="47.82143" lon="6.60638">
        <ele>504.1</ele>
        <time>2020-09-06T19:45:42Z</time>
      </trkpt>
      <trkpt lat="47.82137" lon="6.60639">
        <ele>503.2</ele>
        <time>2020-09-06T19:45:42Z</time>
      </trkpt>
      <trkpt lat="47.82131" lon="6.60636">
        <ele>503.1</ele>
        <time>2020-09-06T19:45:42Z</time>
      </trkpt>
      <trkpt lat="47.8212" lon="6.60632">
        <ele>503.6</ele>
        <time>2020-09-06T19:45:42Z</time>
      </trkpt>
      <trkpt lat="47.82113" lon="6.6063">
        <ele>504.4</ele>
        <time>2020-09-06T19:45:42Z</time>
      </trkpt>
      <trkpt lat="47.82108" lon="6.60624">
        <ele>505.6</ele>
        <time>2020-09-06T19:45:42Z</time>
      </trkpt>
      <trkpt lat="47.82103" lon="6.60615">
        <ele>506.5</ele>
        <time>2020-09-06T19:45:42Z</time>
      </trkpt>
      <trkpt lat="47.82098" lon="6.60602">
        <ele>507.1</ele>
        <time>2020-09-06T19:45:42Z</time>
      </trkpt>
      <trkpt lat="47.82093" lon="6.60596">
        <ele>507.3</ele>
        <time>2020-09-06T19:45:42Z</time>
      </trkpt>
      <trkpt lat="47.82081" lon="6.60596">
        <ele>508</ele>
        <time>2020-09-06T19:45:42Z</time>
      </trkpt>
      <trkpt lat="47.82076" lon="6.60595">
        <ele>507.6</ele>
        <time>2020-09-06T19:45:42Z</time>
      </trkpt>
      <trkpt lat="47.82066" lon="6.6059">
        <ele>507.7</ele>
        <time>2020-09-06T19:45:42Z</time>
      </trkpt>
      <trkpt lat="47.8206" lon="6.60582">
        <ele>507.8</ele>
        <time>2020-09-06T19:45:42Z</time>
      </trkpt>
      <trkpt lat="47.82052" lon="6.60568">
        <ele>507.4</ele>
        <time>2020-09-06T19:45:42Z</time>
      </trkpt>
      <trkpt lat="47.82042" lon="6.60554">
        <ele>506.3</ele>
        <time>2020-09-06T19:45:42Z</time>
      </trkpt>
      <trkpt lat="47.82037" lon="6.60546">
        <ele>506.5</ele>
        <time>2020-09-06T19:45:42Z</time>
      </trkpt>
      <trkpt lat="47.82031" lon="6.60543">
        <ele>506</ele>
        <time>2020-09-06T19:45:42Z</time>
      </trkpt>
      <trkpt lat="47.82025" lon="6.60543">
        <ele>505.5</ele>
        <time>2020-09-06T19:45:42Z</time>
      </trkpt>
      <trkpt lat="47.82007" lon="6.60539">
        <ele>503.1</ele>
        <time>2020-09-06T19:45:42Z</time>
      </trkpt>
      <trkpt lat="47.81993" lon="6.60535">
        <ele>501.2</ele>
        <time>2020-09-06T19:45:42Z</time>
      </trkpt>
      <trkpt lat="47.81983" lon="6.60532">
        <ele>499.8</ele>
        <time>2020-09-06T19:45:42Z</time>
      </trkpt>
      <trkpt lat="47.81973" lon="6.60529">
        <ele>500.1</ele>
        <time>2020-09-06T19:45:42Z</time>
      </trkpt>
      <trkpt lat="47.81966" lon="6.60527">
        <ele>500</ele>
        <time>2020-09-06T19:45:42Z</time>
      </trkpt>
      <trkpt lat="47.8196" lon="6.60528">
        <ele>499.9</ele>
        <time>2020-09-06T19:45:42Z</time>
      </trkpt>
      <trkpt lat="47.81954" lon="6.6053">
        <ele>500</ele>
        <time>2020-09-06T19:45:42Z</time>
      </trkpt>
      <trkpt lat="47.81947" lon="6.60537">
        <ele>499.7</ele>
        <time>2020-09-06T19:45:42Z</time>
      </trkpt>
      <trkpt lat="47.81933" lon="6.60546">
        <ele>499.5</ele>
        <time>2020-09-06T19:45:42Z</time>
      </trkpt>
      <trkpt lat="47.81917" lon="6.60556">
        <ele>499.3</ele>
        <time>2020-09-06T19:45:42Z</time>
      </trkpt>
      <trkpt lat="47.81902" lon="6.60565">
        <ele>497.5</ele>
        <time>2020-09-06T19:45:42Z</time>
      </trkpt>
      <trkpt lat="47.81887" lon="6.60575">
        <ele>495.5</ele>
        <time>2020-09-06T19:45:42Z</time>
      </trkpt>
      <trkpt lat="47.81876" lon="6.60583">
        <ele>493.2</ele>
        <time>2020-09-06T19:45:42Z</time>
      </trkpt>
      <trkpt lat="47.81868" lon="6.60588">
        <ele>492.1</ele>
        <time>2020-09-06T19:45:42Z</time>
      </trkpt>
      <trkpt lat="47.8186" lon="6.60582">
        <ele>492.6</ele>
        <time>2020-09-06T19:45:42Z</time>
      </trkpt>
      <trkpt lat="47.81852" lon="6.60576">
        <ele>490.6</ele>
        <time>2020-09-06T19:45:42Z</time>
      </trkpt>
      <trkpt lat="47.81844" lon="6.60569">
        <ele>489.4</ele>
        <time>2020-09-06T19:45:42Z</time>
      </trkpt>
      <trkpt lat="47.8184" lon="6.60564">
        <ele>488.9</ele>
        <time>2020-09-06T19:45:42Z</time>
      </trkpt>
      <trkpt lat="47.81835" lon="6.60562">
        <ele>488.8</ele>
        <time>2020-09-06T19:45:42Z</time>
      </trkpt>
      <trkpt lat="47.81829" lon="6.60568">
        <ele>489.1</ele>
        <time>2020-09-06T19:45:42Z</time>
      </trkpt>
      <trkpt lat="47.81826" lon="6.60583">
        <ele>488.7</ele>
        <time>2020-09-06T19:45:42Z</time>
      </trkpt>
      <trkpt lat="47.81825" lon="6.60595">
        <ele>487.6</ele>
        <time>2020-09-06T19:45:42Z</time>
      </trkpt>
      <trkpt lat="47.81823" lon="6.6061">
        <ele>487.6</ele>
        <time>2020-09-06T19:45:42Z</time>
      </trkpt>
      <trkpt lat="47.81819" lon="6.60624">
        <ele>487.6</ele>
        <time>2020-09-06T19:45:42Z</time>
      </trkpt>
      <trkpt lat="47.81814" lon="6.60631">
        <ele>488.5</ele>
        <time>2020-09-06T19:45:42Z</time>
      </trkpt>
      <trkpt lat="47.81807" lon="6.60632">
        <ele>487</ele>
        <time>2020-09-06T19:45:42Z</time>
      </trkpt>
      <trkpt lat="47.81798" lon="6.60626">
        <ele>486.9</ele>
        <time>2020-09-06T19:45:42Z</time>
      </trkpt>
      <trkpt lat="47.81793" lon="6.6061">
        <ele>487.9</ele>
        <time>2020-09-06T19:45:42Z</time>
      </trkpt>
      <trkpt lat="47.81787" lon="6.606">
        <ele>488.3</ele>
        <time>2020-09-06T19:45:42Z</time>
      </trkpt>
      <trkpt lat="47.81784" lon="6.60595">
        <ele>487.1</ele>
        <time>2020-09-06T19:45:42Z</time>
      </trkpt>
      <trkpt lat="47.81779" lon="6.60592">
        <ele>486.4</ele>
        <time>2020-09-06T19:45:42Z</time>
      </trkpt>
      <trkpt lat="47.81772" lon="6.60591">
        <ele>485.2</ele>
        <time>2020-09-06T19:45:42Z</time>
      </trkpt>
      <trkpt lat="47.81764" lon="6.60594">
        <ele>484.4</ele>
        <time>2020-09-06T19:45:42Z</time>
      </trkpt>
      <trkpt lat="47.81759" lon="6.60599">
        <ele>484.5</ele>
        <time>2020-09-06T19:45:42Z</time>
      </trkpt>
      <trkpt lat="47.81751" lon="6.60608">
        <ele>483.1</ele>
        <time>2020-09-06T19:45:42Z</time>
      </trkpt>
      <trkpt lat="47.81739" lon="6.60634">
        <ele>479.6</ele>
        <time>2020-09-06T19:45:42Z</time>
      </trkpt>
      <trkpt lat="47.81727" lon="6.60658">
        <ele>478.8</ele>
        <time>2020-09-06T19:45:42Z</time>
      </trkpt>
      <trkpt lat="47.81714" lon="6.60677">
        <ele>476.2</ele>
        <time>2020-09-06T19:45:42Z</time>
      </trkpt>
      <trkpt lat="47.81698" lon="6.60698">
        <ele>473.1</ele>
        <time>2020-09-06T19:45:42Z</time>
      </trkpt>
      <trkpt lat="47.81692" lon="6.60704">
        <ele>471.8</ele>
        <time>2020-09-06T19:45:42Z</time>
      </trkpt>
      <trkpt lat="47.81684" lon="6.60709">
        <ele>471.6</ele>
        <time>2020-09-06T19:45:42Z</time>
      </trkpt>
      <trkpt lat="47.81674" lon="6.60706">
        <ele>471.1</ele>
        <time>2020-09-06T19:45:42Z</time>
      </trkpt>
      <trkpt lat="47.81667" lon="6.60704">
        <ele>471.2</ele>
        <time>2020-09-06T19:45:42Z</time>
      </trkpt>
      <trkpt lat="47.81657" lon="6.60701">
        <ele>471.6</ele>
        <time>2020-09-06T19:45:42Z</time>
      </trkpt>
      <trkpt lat="47.81644" lon="6.60695">
        <ele>471.9</ele>
        <time>2020-09-06T19:45:42Z</time>
      </trkpt>
      <trkpt lat="47.81639" lon="6.60692">
        <ele>471.6</ele>
        <time>2020-09-06T19:45:42Z</time>
      </trkpt>
      <trkpt lat="47.81639" lon="6.60682">
        <ele>471.1</ele>
        <time>2020-09-06T19:45:42Z</time>
      </trkpt>
      <trkpt lat="47.81639" lon="6.60675">
        <ele>470.7</ele>
        <time>2020-09-06T19:45:42Z</time>
      </trkpt>
      <trkpt lat="47.81637" lon="6.60666">
        <ele>470.4</ele>
        <time>2020-09-06T19:45:42Z</time>
      </trkpt>
      <trkpt lat="47.81634" lon="6.60655">
        <ele>469.7</ele>
        <time>2020-09-06T19:45:42Z</time>
      </trkpt>
      <trkpt lat="47.81628" lon="6.60643">
        <ele>469.2</ele>
        <time>2020-09-06T19:45:42Z</time>
      </trkpt>
      <trkpt lat="47.81623" lon="6.60631">
        <ele>468.8</ele>
        <time>2020-09-06T19:45:42Z</time>
      </trkpt>
      <trkpt lat="47.8162" lon="6.60625">
        <ele>468.4</ele>
        <time>2020-09-06T19:45:42Z</time>
      </trkpt>
      <trkpt lat="47.81617" lon="6.60619">
        <ele>468.3</ele>
        <time>2020-09-06T19:45:42Z</time>
      </trkpt>
      <trkpt lat="47.81612" lon="6.60606">
        <ele>467.9</ele>
        <time>2020-09-06T19:45:42Z</time>
      </trkpt>
      <trkpt lat="47.81609" lon="6.60594">
        <ele>467.4</ele>
        <time>2020-09-06T19:45:42Z</time>
      </trkpt>
      <trkpt lat="47.81607" lon="6.60585">
        <ele>467.1</ele>
        <time>2020-09-06T19:45:42Z</time>
      </trkpt>
      <trkpt lat="47.81606" lon="6.60576">
        <ele>466.7</ele>
        <time>2020-09-06T19:45:42Z</time>
      </trkpt>
      <trkpt lat="47.81605" lon="6.60569">
        <ele>466.6</ele>
        <time>2020-09-06T19:45:42Z</time>
      </trkpt>
      <trkpt lat="47.81605" lon="6.60561">
        <ele>466.3</ele>
        <time>2020-09-06T19:45:42Z</time>
      </trkpt>
      <trkpt lat="47.81605" lon="6.60554">
        <ele>466.2</ele>
        <time>2020-09-06T19:45:42Z</time>
      </trkpt>
      <trkpt lat="47.81606" lon="6.60546">
        <ele>466</ele>
        <time>2020-09-06T19:45:42Z</time>
      </trkpt>
      <trkpt lat="47.81607" lon="6.60538">
        <ele>465.8</ele>
        <time>2020-09-06T19:45:42Z</time>
      </trkpt>
      <trkpt lat="47.81609" lon="6.6053">
        <ele>465.5</ele>
        <time>2020-09-06T19:45:42Z</time>
      </trkpt>
      <trkpt lat="47.81611" lon="6.60522">
        <ele>465.5</ele>
        <time>2020-09-06T19:45:42Z</time>
      </trkpt>
      <trkpt lat="47.81613" lon="6.60515">
        <ele>465.3</ele>
        <time>2020-09-06T19:45:42Z</time>
      </trkpt>
      <trkpt lat="47.81617" lon="6.60503">
        <ele>464.9</ele>
        <time>2020-09-06T19:45:42Z</time>
      </trkpt>
      <trkpt lat="47.81621" lon="6.60494">
        <ele>464.6</ele>
        <time>2020-09-06T19:45:42Z</time>
      </trkpt>
      <trkpt lat="47.81625" lon="6.60486">
        <ele>464.4</ele>
        <time>2020-09-06T19:45:42Z</time>
      </trkpt>
      <trkpt lat="47.81627" lon="6.60477">
        <ele>464.3</ele>
        <time>2020-09-06T19:45:42Z</time>
      </trkpt>
      <trkpt lat="47.81624" lon="6.60467">
        <ele>464.2</ele>
        <time>2020-09-06T19:45:42Z</time>
      </trkpt>
      <trkpt lat="47.81617" lon="6.60462">
        <ele>464.1</ele>
        <time>2020-09-06T19:45:42Z</time>
      </trkpt>
      <trkpt lat="47.81608" lon="6.60462">
        <ele>464.2</ele>
        <time>2020-09-06T19:45:42Z</time>
      </trkpt>
      <trkpt lat="47.81602" lon="6.60464">
        <ele>464.1</ele>
        <time>2020-09-06T19:45:42Z</time>
      </trkpt>
      <trkpt lat="47.81597" lon="6.60465">
        <ele>464.3</ele>
        <time>2020-09-06T19:45:42Z</time>
      </trkpt>
      <trkpt lat="47.81593" lon="6.60468">
        <ele>464.7</ele>
        <time>2020-09-06T19:45:42Z</time>
      </trkpt>
      <trkpt lat="47.81585" lon="6.60477">
        <ele>465.2</ele>
        <time>2020-09-06T19:45:42Z</time>
      </trkpt>
      <trkpt lat="47.81553" lon="6.60519">
        <ele>466.8</ele>
        <time>2020-09-06T19:45:42Z</time>
      </trkpt>
      <trkpt lat="47.81544" lon="6.60533">
        <ele>467.5</ele>
        <time>2020-09-06T19:45:42Z</time>
      </trkpt>
      <trkpt lat="47.81533" lon="6.60545">
        <ele>468.2</ele>
        <time>2020-09-06T19:45:42Z</time>
      </trkpt>
      <trkpt lat="47.81527" lon="6.60549">
        <ele>468.4</ele>
        <time>2020-09-06T19:45:42Z</time>
      </trkpt>
      <trkpt lat="47.8152" lon="6.6055">
        <ele>468.7</ele>
        <time>2020-09-06T19:45:42Z</time>
      </trkpt>
      <trkpt lat="47.81513" lon="6.60549">
        <ele>468.9</ele>
        <time>2020-09-06T19:45:42Z</time>
      </trkpt>
      <trkpt lat="47.81503" lon="6.60547">
        <ele>469.6</ele>
        <time>2020-09-06T19:45:42Z</time>
      </trkpt>
      <trkpt lat="47.81493" lon="6.60539">
        <ele>470.4</ele>
        <time>2020-09-06T19:45:42Z</time>
      </trkpt>
      <trkpt lat="47.81486" lon="6.60529">
        <ele>471.6</ele>
        <time>2020-09-06T19:45:42Z</time>
      </trkpt>
      <trkpt lat="47.81481" lon="6.6052">
        <ele>472.1</ele>
        <time>2020-09-06T19:45:42Z</time>
      </trkpt>
      <trkpt lat="47.81476" lon="6.60513">
        <ele>472.4</ele>
        <time>2020-09-06T19:45:42Z</time>
      </trkpt>
      <trkpt lat="47.81469" lon="6.60509">
        <ele>472.8</ele>
        <time>2020-09-06T19:45:42Z</time>
      </trkpt>
      <trkpt lat="47.81461" lon="6.60507">
        <ele>473.3</ele>
        <time>2020-09-06T19:45:42Z</time>
      </trkpt>
      <trkpt lat="47.81452" lon="6.60513">
        <ele>473.7</ele>
        <time>2020-09-06T19:45:42Z</time>
      </trkpt>
      <trkpt lat="47.81445" lon="6.60519">
        <ele>474.6</ele>
        <time>2020-09-06T19:45:42Z</time>
      </trkpt>
      <trkpt lat="47.81441" lon="6.6053">
        <ele>475.2</ele>
        <time>2020-09-06T19:45:42Z</time>
      </trkpt>
      <trkpt lat="47.81439" lon="6.60537">
        <ele>475.8</ele>
        <time>2020-09-06T19:45:42Z</time>
      </trkpt>
      <trkpt lat="47.81438" lon="6.60547">
        <ele>476.7</ele>
        <time>2020-09-06T19:45:42Z</time>
      </trkpt>
      <trkpt lat="47.81435" lon="6.60553">
        <ele>477</ele>
        <time>2020-09-06T19:45:42Z</time>
      </trkpt>
      <trkpt lat="47.81431" lon="6.60559">
        <ele>477.8</ele>
        <time>2020-09-06T19:45:42Z</time>
      </trkpt>
      <trkpt lat="47.81424" lon="6.60561">
        <ele>479</ele>
        <time>2020-09-06T19:45:42Z</time>
      </trkpt>
      <trkpt lat="47.81419" lon="6.60561">
        <ele>480</ele>
        <time>2020-09-06T19:45:42Z</time>
      </trkpt>
      <trkpt lat="47.81411" lon="6.60557">
        <ele>481.2</ele>
        <time>2020-09-06T19:45:42Z</time>
      </trkpt>
      <trkpt lat="47.81398" lon="6.60548">
        <ele>482.5</ele>
        <time>2020-09-06T19:45:42Z</time>
      </trkpt>
      <trkpt lat="47.81389" lon="6.6054">
        <ele>483.1</ele>
        <time>2020-09-06T19:45:42Z</time>
      </trkpt>
      <trkpt lat="47.81379" lon="6.60532">
        <ele>483</ele>
        <time>2020-09-06T19:45:42Z</time>
      </trkpt>
      <trkpt lat="47.81372" lon="6.60528">
        <ele>482.9</ele>
        <time>2020-09-06T19:45:42Z</time>
      </trkpt>
      <trkpt lat="47.81361" lon="6.60522">
        <ele>482.5</ele>
        <time>2020-09-06T19:45:42Z</time>
      </trkpt>
      <trkpt lat="47.81348" lon="6.60512">
        <ele>482.4</ele>
        <time>2020-09-06T19:45:42Z</time>
      </trkpt>
      <trkpt lat="47.8134" lon="6.60508">
        <ele>482.1</ele>
        <time>2020-09-06T19:45:42Z</time>
      </trkpt>
      <trkpt lat="47.81333" lon="6.60508">
        <ele>482</ele>
        <time>2020-09-06T19:45:42Z</time>
      </trkpt>
      <trkpt lat="47.81325" lon="6.60512">
        <ele>481.8</ele>
        <time>2020-09-06T19:45:42Z</time>
      </trkpt>
      <trkpt lat="47.81316" lon="6.60516">
        <ele>481.3</ele>
        <time>2020-09-06T19:45:42Z</time>
      </trkpt>
      <trkpt lat="47.81305" lon="6.60525">
        <ele>481.1</ele>
        <time>2020-09-06T19:45:42Z</time>
      </trkpt>
      <trkpt lat="47.81295" lon="6.60537">
        <ele>481.9</ele>
        <time>2020-09-06T19:45:42Z</time>
      </trkpt>
      <trkpt lat="47.81283" lon="6.6055">
        <ele>481.5</ele>
        <time>2020-09-06T19:45:42Z</time>
      </trkpt>
      <trkpt lat="47.81274" lon="6.60561">
        <ele>481.7</ele>
        <time>2020-09-06T19:45:42Z</time>
      </trkpt>
      <trkpt lat="47.81266" lon="6.60566">
        <ele>481.9</ele>
        <time>2020-09-06T19:45:42Z</time>
      </trkpt>
      <trkpt lat="47.81259" lon="6.60566">
        <ele>482</ele>
        <time>2020-09-06T19:45:42Z</time>
      </trkpt>
      <trkpt lat="47.81245" lon="6.60565">
        <ele>482.2</ele>
        <time>2020-09-06T19:45:42Z</time>
      </trkpt>
      <trkpt lat="47.81237" lon="6.60564">
        <ele>482.4</ele>
        <time>2020-09-06T19:45:42Z</time>
      </trkpt>
      <trkpt lat="47.81209" lon="6.60557">
        <ele>483.3</ele>
        <time>2020-09-06T19:45:42Z</time>
      </trkpt>
      <trkpt lat="47.81199" lon="6.60555">
        <ele>483.8</ele>
        <time>2020-09-06T19:45:42Z</time>
      </trkpt>
      <trkpt lat="47.81179" lon="6.60551">
        <ele>484.8</ele>
        <time>2020-09-06T19:45:42Z</time>
      </trkpt>
      <trkpt lat="47.81167" lon="6.60545">
        <ele>485.7</ele>
        <time>2020-09-06T19:45:42Z</time>
      </trkpt>
      <trkpt lat="47.81152" lon="6.60536">
        <ele>486.9</ele>
        <time>2020-09-06T19:45:42Z</time>
      </trkpt>
      <trkpt lat="47.81136" lon="6.60526">
        <ele>489.1</ele>
        <time>2020-09-06T19:45:42Z</time>
      </trkpt>
      <trkpt lat="47.81115" lon="6.60513">
        <ele>491.7</ele>
        <time>2020-09-06T19:45:42Z</time>
      </trkpt>
      <trkpt lat="47.811" lon="6.60505">
        <ele>493.5</ele>
        <time>2020-09-06T19:45:42Z</time>
      </trkpt>
      <trkpt lat="47.8109" lon="6.605">
        <ele>495.4</ele>
        <time>2020-09-06T19:45:42Z</time>
      </trkpt>
      <trkpt lat="47.81077" lon="6.60499">
        <ele>496.6</ele>
        <time>2020-09-06T19:45:42Z</time>
      </trkpt>
      <trkpt lat="47.8107" lon="6.60498">
        <ele>496.8</ele>
        <time>2020-09-06T19:45:42Z</time>
      </trkpt>
      <trkpt lat="47.81055" lon="6.60499">
        <ele>497.8</ele>
        <time>2020-09-06T19:45:42Z</time>
      </trkpt>
      <trkpt lat="47.81044" lon="6.605">
        <ele>498.3</ele>
        <time>2020-09-06T19:45:42Z</time>
      </trkpt>
      <trkpt lat="47.81033" lon="6.60502">
        <ele>498.8</ele>
        <time>2020-09-06T19:45:42Z</time>
      </trkpt>
      <trkpt lat="47.81026" lon="6.60505">
        <ele>499.1</ele>
        <time>2020-09-06T19:45:42Z</time>
      </trkpt>
      <trkpt lat="47.81017" lon="6.60511">
        <ele>499.6</ele>
        <time>2020-09-06T19:45:42Z</time>
      </trkpt>
      <trkpt lat="47.81008" lon="6.6052">
        <ele>499.8</ele>
        <time>2020-09-06T19:45:42Z</time>
      </trkpt>
      <trkpt lat="47.80997" lon="6.60531">
        <ele>499.8</ele>
        <time>2020-09-06T19:45:42Z</time>
      </trkpt>
      <trkpt lat="47.8099" lon="6.60537">
        <ele>499.7</ele>
        <time>2020-09-06T19:45:42Z</time>
      </trkpt>
      <trkpt lat="47.80986" lon="6.6054">
        <ele>499.4</ele>
        <time>2020-09-06T19:45:42Z</time>
      </trkpt>
      <trkpt lat="47.80982" lon="6.60543">
        <ele>499.3</ele>
        <time>2020-09-06T19:45:42Z</time>
      </trkpt>
      <trkpt lat="47.80978" lon="6.60544">
        <ele>499</ele>
        <time>2020-09-06T19:45:42Z</time>
      </trkpt>
      <trkpt lat="47.80972" lon="6.60545">
        <ele>498.9</ele>
        <time>2020-09-06T19:45:42Z</time>
      </trkpt>
      <trkpt lat="47.80965" lon="6.60541">
        <ele>498.1</ele>
        <time>2020-09-06T19:45:42Z</time>
      </trkpt>
      <trkpt lat="47.80959" lon="6.60535">
        <ele>497.7</ele>
        <time>2020-09-06T19:45:42Z</time>
      </trkpt>
      <trkpt lat="47.80952" lon="6.60524">
        <ele>497.3</ele>
        <time>2020-09-06T19:45:42Z</time>
      </trkpt>
      <trkpt lat="47.80944" lon="6.60508">
        <ele>497</ele>
        <time>2020-09-06T19:45:42Z</time>
      </trkpt>
      <trkpt lat="47.80932" lon="6.60478">
        <ele>496.3</ele>
        <time>2020-09-06T19:45:42Z</time>
      </trkpt>
      <trkpt lat="47.80926" lon="6.60463">
        <ele>495.9</ele>
        <time>2020-09-06T19:45:42Z</time>
      </trkpt>
      <trkpt lat="47.80922" lon="6.60452">
        <ele>495.4</ele>
        <time>2020-09-06T19:45:42Z</time>
      </trkpt>
      <trkpt lat="47.80918" lon="6.60447">
        <ele>494.9</ele>
        <time>2020-09-06T19:45:42Z</time>
      </trkpt>
      <trkpt lat="47.80914" lon="6.60441">
        <ele>494.5</ele>
        <time>2020-09-06T19:45:42Z</time>
      </trkpt>
      <trkpt lat="47.8091" lon="6.60438">
        <ele>494.2</ele>
        <time>2020-09-06T19:45:42Z</time>
      </trkpt>
      <trkpt lat="47.80903" lon="6.60435">
        <ele>493.9</ele>
        <time>2020-09-06T19:45:42Z</time>
      </trkpt>
      <trkpt lat="47.80898" lon="6.60435">
        <ele>493.3</ele>
        <time>2020-09-06T19:45:42Z</time>
      </trkpt>
      <trkpt lat="47.80893" lon="6.60434">
        <ele>493.1</ele>
        <time>2020-09-06T19:45:42Z</time>
      </trkpt>
      <trkpt lat="47.80882" lon="6.60436">
        <ele>492.8</ele>
        <time>2020-09-06T19:45:42Z</time>
      </trkpt>
      <trkpt lat="47.80869" lon="6.60438">
        <ele>492.2</ele>
        <time>2020-09-06T19:45:42Z</time>
      </trkpt>
      <trkpt lat="47.80841" lon="6.60446">
        <ele>491.3</ele>
        <time>2020-09-06T19:45:42Z</time>
      </trkpt>
      <trkpt lat="47.80832" lon="6.60449">
        <ele>491</ele>
        <time>2020-09-06T19:45:42Z</time>
      </trkpt>
      <trkpt lat="47.80824" lon="6.6045">
        <ele>490.9</ele>
        <time>2020-09-06T19:45:42Z</time>
      </trkpt>
      <trkpt lat="47.80819" lon="6.6045">
        <ele>490.7</ele>
        <time>2020-09-06T19:45:42Z</time>
      </trkpt>
      <trkpt lat="47.80807" lon="6.60448">
        <ele>490.2</ele>
        <time>2020-09-06T19:45:42Z</time>
      </trkpt>
      <trkpt lat="47.80796" lon="6.60446">
        <ele>490</ele>
        <time>2020-09-06T19:45:42Z</time>
      </trkpt>
      <trkpt lat="47.80746" lon="6.60438">
        <ele>486.8</ele>
        <time>2020-09-06T19:45:42Z</time>
      </trkpt>
      <trkpt lat="47.80733" lon="6.60435">
        <ele>486.1</ele>
        <time>2020-09-06T19:45:42Z</time>
      </trkpt>
      <trkpt lat="47.80722" lon="6.60432">
        <ele>485.6</ele>
        <time>2020-09-06T19:45:42Z</time>
      </trkpt>
      <trkpt lat="47.80711" lon="6.60429">
        <ele>485.6</ele>
        <time>2020-09-06T19:45:42Z</time>
      </trkpt>
      <trkpt lat="47.80698" lon="6.60423">
        <ele>484.8</ele>
        <time>2020-09-06T19:45:42Z</time>
      </trkpt>
      <trkpt lat="47.80691" lon="6.6042">
        <ele>484.6</ele>
        <time>2020-09-06T19:45:42Z</time>
      </trkpt>
      <trkpt lat="47.80684" lon="6.60414">
        <ele>484.3</ele>
        <time>2020-09-06T19:45:42Z</time>
      </trkpt>
      <trkpt lat="47.80678" lon="6.60408">
        <ele>484.2</ele>
        <time>2020-09-06T19:45:42Z</time>
      </trkpt>
      <trkpt lat="47.80672" lon="6.60399">
        <ele>484</ele>
        <time>2020-09-06T19:45:42Z</time>
      </trkpt>
      <trkpt lat="47.80664" lon="6.60386">
        <ele>483.6</ele>
        <time>2020-09-06T19:45:42Z</time>
      </trkpt>
      <trkpt lat="47.80657" lon="6.60379">
        <ele>483</ele>
        <time>2020-09-06T19:45:42Z</time>
      </trkpt>
      <trkpt lat="47.80652" lon="6.60374">
        <ele>482.8</ele>
        <time>2020-09-06T19:45:42Z</time>
      </trkpt>
      <trkpt lat="47.80648" lon="6.60371">
        <ele>482.5</ele>
        <time>2020-09-06T19:45:42Z</time>
      </trkpt>
      <trkpt lat="47.80642" lon="6.60368">
        <ele>482.1</ele>
        <time>2020-09-06T19:45:42Z</time>
      </trkpt>
      <trkpt lat="47.80636" lon="6.60366">
        <ele>481.6</ele>
        <time>2020-09-06T19:45:42Z</time>
      </trkpt>
      <trkpt lat="47.80627" lon="6.60363">
        <ele>480.8</ele>
        <time>2020-09-06T19:45:42Z</time>
      </trkpt>
      <trkpt lat="47.80618" lon="6.60361">
        <ele>480.1</ele>
        <time>2020-09-06T19:45:42Z</time>
      </trkpt>
      <trkpt lat="47.80614" lon="6.60359">
        <ele>479.6</ele>
        <time>2020-09-06T19:45:42Z</time>
      </trkpt>
      <trkpt lat="47.80604" lon="6.60352">
        <ele>478.6</ele>
        <time>2020-09-06T19:45:42Z</time>
      </trkpt>
      <trkpt lat="47.80599" lon="6.6035">
        <ele>478.2</ele>
        <time>2020-09-06T19:45:42Z</time>
      </trkpt>
      <trkpt lat="47.80594" lon="6.6035">
        <ele>477.7</ele>
        <time>2020-09-06T19:45:42Z</time>
      </trkpt>
      <trkpt lat="47.80589" lon="6.60352">
        <ele>477</ele>
        <time>2020-09-06T19:45:42Z</time>
      </trkpt>
      <trkpt lat="47.80583" lon="6.60358">
        <ele>476.6</ele>
        <time>2020-09-06T19:45:42Z</time>
      </trkpt>
      <trkpt lat="47.8057" lon="6.60369">
        <ele>475.4</ele>
        <time>2020-09-06T19:45:42Z</time>
      </trkpt>
      <trkpt lat="47.80555" lon="6.60383">
        <ele>474.5</ele>
        <time>2020-09-06T19:45:42Z</time>
      </trkpt>
      <trkpt lat="47.8054" lon="6.60374">
        <ele>475</ele>
        <time>2020-09-06T19:45:42Z</time>
      </trkpt>
      <trkpt lat="47.80529" lon="6.60367">
        <ele>476.3</ele>
        <time>2020-09-06T19:45:42Z</time>
      </trkpt>
      <trkpt lat="47.80522" lon="6.60358">
        <ele>476.8</ele>
        <time>2020-09-06T19:45:42Z</time>
      </trkpt>
      <trkpt lat="47.80514" lon="6.60343">
        <ele>477.2</ele>
        <time>2020-09-06T19:45:42Z</time>
      </trkpt>
      <trkpt lat="47.80505" lon="6.60331">
        <ele>476.8</ele>
        <time>2020-09-06T19:45:42Z</time>
      </trkpt>
      <trkpt lat="47.80488" lon="6.60311">
        <ele>476.4</ele>
        <time>2020-09-06T19:45:42Z</time>
      </trkpt>
      <trkpt lat="47.80477" lon="6.60299">
        <ele>476.2</ele>
        <time>2020-09-06T19:45:42Z</time>
      </trkpt>
      <trkpt lat="47.80467" lon="6.60292">
        <ele>476.5</ele>
        <time>2020-09-06T19:45:42Z</time>
      </trkpt>
      <trkpt lat="47.80451" lon="6.60285">
        <ele>476.9</ele>
        <time>2020-09-06T19:45:42Z</time>
      </trkpt>
      <trkpt lat="47.80435" lon="6.60277">
        <ele>477.2</ele>
        <time>2020-09-06T19:45:42Z</time>
      </trkpt>
      <trkpt lat="47.80421" lon="6.60271">
        <ele>476.9</ele>
        <time>2020-09-06T19:45:42Z</time>
      </trkpt>
      <trkpt lat="47.80408" lon="6.60267">
        <ele>476.8</ele>
        <time>2020-09-06T19:45:42Z</time>
      </trkpt>
      <trkpt lat="47.80398" lon="6.60266">
        <ele>476.7</ele>
        <time>2020-09-06T19:45:42Z</time>
      </trkpt>
      <trkpt lat="47.80389" lon="6.60264">
        <ele>476.8</ele>
        <time>2020-09-06T19:45:42Z</time>
      </trkpt>
      <trkpt lat="47.8038" lon="6.60264">
        <ele>476.7</ele>
        <time>2020-09-06T19:45:42Z</time>
      </trkpt>
      <trkpt lat="47.80372" lon="6.60265">
        <ele>476.4</ele>
        <time>2020-09-06T19:45:42Z</time>
      </trkpt>
      <trkpt lat="47.80362" lon="6.60269">
        <ele>476</ele>
        <time>2020-09-06T19:45:42Z</time>
      </trkpt>
      <trkpt lat="47.80353" lon="6.60272">
        <ele>475.8</ele>
        <time>2020-09-06T19:45:42Z</time>
      </trkpt>
      <trkpt lat="47.80348" lon="6.60273">
        <ele>475.7</ele>
        <time>2020-09-06T19:45:42Z</time>
      </trkpt>
      <trkpt lat="47.80341" lon="6.60273">
        <ele>475.6</ele>
        <time>2020-09-06T19:45:42Z</time>
      </trkpt>
      <trkpt lat="47.80336" lon="6.60272">
        <ele>475.5</ele>
        <time>2020-09-06T19:45:42Z</time>
      </trkpt>
      <trkpt lat="47.80317" lon="6.60265">
        <ele>474.6</ele>
        <time>2020-09-06T19:45:42Z</time>
      </trkpt>
      <trkpt lat="47.80286" lon="6.60253">
        <ele>473.5</ele>
        <time>2020-09-06T19:45:42Z</time>
      </trkpt>
      <trkpt lat="47.80274" lon="6.60249">
        <ele>473.1</ele>
        <time>2020-09-06T19:45:42Z</time>
      </trkpt>
      <trkpt lat="47.80269" lon="6.60248">
        <ele>472.8</ele>
        <time>2020-09-06T19:45:42Z</time>
      </trkpt>
      <trkpt lat="47.80261" lon="6.60248">
        <ele>472.1</ele>
        <time>2020-09-06T19:45:42Z</time>
      </trkpt>
      <trkpt lat="47.80254" lon="6.60249">
        <ele>471.4</ele>
        <time>2020-09-06T19:45:42Z</time>
      </trkpt>
      <trkpt lat="47.80248" lon="6.60249">
        <ele>471</ele>
        <time>2020-09-06T19:45:42Z</time>
      </trkpt>
      <trkpt lat="47.80241" lon="6.60247">
        <ele>470.2</ele>
        <time>2020-09-06T19:45:42Z</time>
      </trkpt>
      <trkpt lat="47.80215" lon="6.60242">
        <ele>467.8</ele>
        <time>2020-09-06T19:45:42Z</time>
      </trkpt>
      <trkpt lat="47.80208" lon="6.6024">
        <ele>467.4</ele>
        <time>2020-09-06T19:45:42Z</time>
      </trkpt>
      <trkpt lat="47.80201" lon="6.60242">
        <ele>467.1</ele>
        <time>2020-09-06T19:45:42Z</time>
      </trkpt>
      <trkpt lat="47.80197" lon="6.60244">
        <ele>466.6</ele>
        <time>2020-09-06T19:45:42Z</time>
      </trkpt>
      <trkpt lat="47.80192" lon="6.60247">
        <ele>466.5</ele>
        <time>2020-09-06T19:45:42Z</time>
      </trkpt>
      <trkpt lat="47.80187" lon="6.60252">
        <ele>466.2</ele>
        <time>2020-09-06T19:45:42Z</time>
      </trkpt>
      <trkpt lat="47.80183" lon="6.60257">
        <ele>465.6</ele>
        <time>2020-09-06T19:45:42Z</time>
      </trkpt>
      <trkpt lat="47.80178" lon="6.60264">
        <ele>466</ele>
        <time>2020-09-06T19:45:42Z</time>
      </trkpt>
      <trkpt lat="47.80173" lon="6.60269">
        <ele>466.1</ele>
        <time>2020-09-06T19:45:42Z</time>
      </trkpt>
      <trkpt lat="47.80167" lon="6.60269">
        <ele>466.4</ele>
        <time>2020-09-06T19:45:42Z</time>
      </trkpt>
      <trkpt lat="47.80158" lon="6.60263">
        <ele>466.3</ele>
        <time>2020-09-06T19:45:42Z</time>
      </trkpt>
      <trkpt lat="47.80152" lon="6.60258">
        <ele>466.2</ele>
        <time>2020-09-06T19:45:42Z</time>
      </trkpt>
      <trkpt lat="47.80141" lon="6.60255">
        <ele>465.6</ele>
        <time>2020-09-06T19:45:42Z</time>
      </trkpt>
      <trkpt lat="47.80134" lon="6.60251">
        <ele>465.5</ele>
        <time>2020-09-06T19:45:42Z</time>
      </trkpt>
      <trkpt lat="47.80126" lon="6.60251">
        <ele>465.4</ele>
        <time>2020-09-06T19:45:42Z</time>
      </trkpt>
      <trkpt lat="47.80121" lon="6.60251">
        <ele>464.6</ele>
        <time>2020-09-06T19:45:42Z</time>
      </trkpt>
      <trkpt lat="47.80113" lon="6.60242">
        <ele>464.2</ele>
        <time>2020-09-06T19:45:42Z</time>
      </trkpt>
      <trkpt lat="47.80105" lon="6.60233">
        <ele>462.9</ele>
        <time>2020-09-06T19:45:42Z</time>
      </trkpt>
      <trkpt lat="47.80096" lon="6.60219">
        <ele>461.7</ele>
        <time>2020-09-06T19:45:42Z</time>
      </trkpt>
      <trkpt lat="47.80087" lon="6.60208">
        <ele>460.3</ele>
        <time>2020-09-06T19:45:42Z</time>
      </trkpt>
      <trkpt lat="47.80078" lon="6.60196">
        <ele>459.5</ele>
        <time>2020-09-06T19:45:42Z</time>
      </trkpt>
      <trkpt lat="47.80069" lon="6.60182">
        <ele>458.8</ele>
        <time>2020-09-06T19:45:42Z</time>
      </trkpt>
      <trkpt lat="47.80061" lon="6.6017">
        <ele>458.5</ele>
        <time>2020-09-06T19:45:42Z</time>
      </trkpt>
      <trkpt lat="47.80054" lon="6.60153">
        <ele>458.2</ele>
        <time>2020-09-06T19:45:42Z</time>
      </trkpt>
      <trkpt lat="47.8005" lon="6.60142">
        <ele>458</ele>
        <time>2020-09-06T19:45:42Z</time>
      </trkpt>
      <trkpt lat="47.80039" lon="6.60121">
        <ele>456.7</ele>
        <time>2020-09-06T19:45:42Z</time>
      </trkpt>
      <trkpt lat="47.80031" lon="6.60103">
        <ele>455.5</ele>
        <time>2020-09-06T19:45:42Z</time>
      </trkpt>
      <trkpt lat="47.80028" lon="6.60095">
        <ele>455.5</ele>
        <time>2020-09-06T19:45:42Z</time>
      </trkpt>
      <trkpt lat="47.80021" lon="6.60077">
        <ele>455.2</ele>
        <time>2020-09-06T19:45:42Z</time>
      </trkpt>
      <trkpt lat="47.80013" lon="6.60062">
        <ele>455.2</ele>
        <time>2020-09-06T19:45:42Z</time>
      </trkpt>
      <trkpt lat="47.80007" lon="6.60051">
        <ele>455.3</ele>
        <time>2020-09-06T19:45:42Z</time>
      </trkpt>
      <trkpt lat="47.80002" lon="6.60037">
        <ele>455.7</ele>
        <time>2020-09-06T19:45:42Z</time>
      </trkpt>
      <trkpt lat="47.79996" lon="6.60026">
        <ele>455.1</ele>
        <time>2020-09-06T19:45:42Z</time>
      </trkpt>
      <trkpt lat="47.79988" lon="6.60009">
        <ele>454.6</ele>
        <time>2020-09-06T19:45:42Z</time>
      </trkpt>
      <trkpt lat="47.79979" lon="6.59985">
        <ele>454.1</ele>
        <time>2020-09-06T19:45:42Z</time>
      </trkpt>
      <trkpt lat="47.79974" lon="6.59971">
        <ele>453.8</ele>
        <time>2020-09-06T19:45:42Z</time>
      </trkpt>
      <trkpt lat="47.79969" lon="6.59953">
        <ele>453.4</ele>
        <time>2020-09-06T19:45:42Z</time>
      </trkpt>
      <trkpt lat="47.79967" lon="6.59946">
        <ele>453.3</ele>
        <time>2020-09-06T19:45:42Z</time>
      </trkpt>
      <trkpt lat="47.79963" lon="6.59933">
        <ele>452.7</ele>
        <time>2020-09-06T19:45:42Z</time>
      </trkpt>
      <trkpt lat="47.79957" lon="6.59925">
        <ele>451.4</ele>
        <time>2020-09-06T19:45:42Z</time>
      </trkpt>
      <trkpt lat="47.79952" lon="6.59917">
        <ele>450.5</ele>
        <time>2020-09-06T19:45:42Z</time>
      </trkpt>
      <trkpt lat="47.79945" lon="6.59909">
        <ele>449.4</ele>
        <time>2020-09-06T19:45:42Z</time>
      </trkpt>
      <trkpt lat="47.79937" lon="6.599">
        <ele>448.6</ele>
        <time>2020-09-06T19:45:42Z</time>
      </trkpt>
      <trkpt lat="47.7993" lon="6.5989">
        <ele>447.5</ele>
        <time>2020-09-06T19:45:42Z</time>
      </trkpt>
      <trkpt lat="47.79924" lon="6.59883">
        <ele>446.7</ele>
        <time>2020-09-06T19:45:42Z</time>
      </trkpt>
      <trkpt lat="47.7992" lon="6.59877">
        <ele>446.1</ele>
        <time>2020-09-06T19:45:42Z</time>
      </trkpt>
      <trkpt lat="47.79914" lon="6.59864">
        <ele>444.8</ele>
        <time>2020-09-06T19:45:42Z</time>
      </trkpt>
      <trkpt lat="47.79907" lon="6.59851">
        <ele>443.6</ele>
        <time>2020-09-06T19:45:42Z</time>
      </trkpt>
      <trkpt lat="47.79903" lon="6.5984">
        <ele>442.6</ele>
        <time>2020-09-06T19:45:42Z</time>
      </trkpt>
      <trkpt lat="47.799" lon="6.59828">
        <ele>442.2</ele>
        <time>2020-09-06T19:45:42Z</time>
      </trkpt>
      <trkpt lat="47.79897" lon="6.59817">
        <ele>441.6</ele>
        <time>2020-09-06T19:45:42Z</time>
      </trkpt>
      <trkpt lat="47.79895" lon="6.59796">
        <ele>440.9</ele>
        <time>2020-09-06T19:45:42Z</time>
      </trkpt>
      <trkpt lat="47.79893" lon="6.59781">
        <ele>440.9</ele>
        <time>2020-09-06T19:45:42Z</time>
      </trkpt>
      <trkpt lat="47.79891" lon="6.59772">
        <ele>440.7</ele>
        <time>2020-09-06T19:45:42Z</time>
      </trkpt>
      <trkpt lat="47.79889" lon="6.59765">
        <ele>440.9</ele>
        <time>2020-09-06T19:45:42Z</time>
      </trkpt>
      <trkpt lat="47.79886" lon="6.59756">
        <ele>440.5</ele>
        <time>2020-09-06T19:45:42Z</time>
      </trkpt>
      <trkpt lat="47.79882" lon="6.59745">
        <ele>440.1</ele>
        <time>2020-09-06T19:45:42Z</time>
      </trkpt>
      <trkpt lat="47.79879" lon="6.59738">
        <ele>440.1</ele>
        <time>2020-09-06T19:45:42Z</time>
      </trkpt>
      <trkpt lat="47.79873" lon="6.59727">
        <ele>439.7</ele>
        <time>2020-09-06T19:45:42Z</time>
      </trkpt>
      <trkpt lat="47.79867" lon="6.59718">
        <ele>439.7</ele>
        <time>2020-09-06T19:45:42Z</time>
      </trkpt>
      <trkpt lat="47.7986" lon="6.59706">
        <ele>439.4</ele>
        <time>2020-09-06T19:45:42Z</time>
      </trkpt>
      <trkpt lat="47.79854" lon="6.59697">
        <ele>439.4</ele>
        <time>2020-09-06T19:45:42Z</time>
      </trkpt>
      <trkpt lat="47.7985" lon="6.59689">
        <ele>439.2</ele>
        <time>2020-09-06T19:45:42Z</time>
      </trkpt>
      <trkpt lat="47.79844" lon="6.59678">
        <ele>439.2</ele>
        <time>2020-09-06T19:45:42Z</time>
      </trkpt>
      <trkpt lat="47.79838" lon="6.59666">
        <ele>439.3</ele>
        <time>2020-09-06T19:45:42Z</time>
      </trkpt>
      <trkpt lat="47.79831" lon="6.5965">
        <ele>439.1</ele>
        <time>2020-09-06T19:45:42Z</time>
      </trkpt>
      <trkpt lat="47.79825" lon="6.59638">
        <ele>439</ele>
        <time>2020-09-06T19:45:42Z</time>
      </trkpt>
      <trkpt lat="47.79821" lon="6.59631">
        <ele>438.8</ele>
        <time>2020-09-06T19:45:42Z</time>
      </trkpt>
      <trkpt lat="47.79817" lon="6.59626">
        <ele>438.8</ele>
        <time>2020-09-06T19:45:42Z</time>
      </trkpt>
      <trkpt lat="47.79811" lon="6.59618">
        <ele>438.5</ele>
        <time>2020-09-06T19:45:42Z</time>
      </trkpt>
      <trkpt lat="47.798" lon="6.59607">
        <ele>438.1</ele>
        <time>2020-09-06T19:45:42Z</time>
      </trkpt>
      <trkpt lat="47.79792" lon="6.59596">
        <ele>438</ele>
        <time>2020-09-06T19:45:42Z</time>
      </trkpt>
      <trkpt lat="47.79784" lon="6.59587">
        <ele>437.7</ele>
        <time>2020-09-06T19:45:42Z</time>
      </trkpt>
      <trkpt lat="47.79775" lon="6.59575">
        <ele>437.6</ele>
        <time>2020-09-06T19:45:42Z</time>
      </trkpt>
      <trkpt lat="47.79766" lon="6.59561">
        <ele>437.2</ele>
        <time>2020-09-06T19:45:42Z</time>
      </trkpt>
      <trkpt lat="47.79754" lon="6.59543">
        <ele>436.9</ele>
        <time>2020-09-06T19:45:42Z</time>
      </trkpt>
      <trkpt lat="47.79749" lon="6.59534">
        <ele>436.8</ele>
        <time>2020-09-06T19:45:42Z</time>
      </trkpt>
      <trkpt lat="47.79743" lon="6.59523">
        <ele>436.6</ele>
        <time>2020-09-06T19:45:42Z</time>
      </trkpt>
      <trkpt lat="47.79736" lon="6.59505">
        <ele>436.5</ele>
        <time>2020-09-06T19:45:42Z</time>
      </trkpt>
      <trkpt lat="47.79734" lon="6.59496">
        <ele>436.5</ele>
        <time>2020-09-06T19:45:42Z</time>
      </trkpt>
      <trkpt lat="47.79732" lon="6.59487">
        <ele>436.3</ele>
        <time>2020-09-06T19:45:42Z</time>
      </trkpt>
      <trkpt lat="47.79731" lon="6.59472">
        <ele>436.3</ele>
        <time>2020-09-06T19:45:42Z</time>
      </trkpt>
      <trkpt lat="47.79729" lon="6.59455">
        <ele>436.4</ele>
        <time>2020-09-06T19:45:42Z</time>
      </trkpt>
      <trkpt lat="47.79727" lon="6.59444">
        <ele>436.5</ele>
        <time>2020-09-06T19:45:42Z</time>
      </trkpt>
      <trkpt lat="47.79723" lon="6.5943">
        <ele>436.6</ele>
        <time>2020-09-06T19:45:42Z</time>
      </trkpt>
      <trkpt lat="47.79718" lon="6.59421">
        <ele>436.7</ele>
        <time>2020-09-06T19:45:42Z</time>
      </trkpt>
      <trkpt lat="47.79713" lon="6.59412">
        <ele>436.9</ele>
        <time>2020-09-06T19:45:42Z</time>
      </trkpt>
      <trkpt lat="47.79706" lon="6.59401">
        <ele>437.2</ele>
        <time>2020-09-06T19:45:42Z</time>
      </trkpt>
      <trkpt lat="47.79697" lon="6.59388">
        <ele>437.4</ele>
        <time>2020-09-06T19:45:42Z</time>
      </trkpt>
      <trkpt lat="47.7969" lon="6.59379">
        <ele>437.6</ele>
        <time>2020-09-06T19:45:42Z</time>
      </trkpt>
      <trkpt lat="47.79683" lon="6.59374">
        <ele>437.8</ele>
        <time>2020-09-06T19:45:42Z</time>
      </trkpt>
      <trkpt lat="47.79673" lon="6.59366">
        <ele>438</ele>
        <time>2020-09-06T19:45:42Z</time>
      </trkpt>
      <trkpt lat="47.79667" lon="6.59361">
        <ele>438.1</ele>
        <time>2020-09-06T19:45:42Z</time>
      </trkpt>
      <trkpt lat="47.79662" lon="6.59357">
        <ele>438.3</ele>
        <time>2020-09-06T19:45:42Z</time>
      </trkpt>
      <trkpt lat="47.79657" lon="6.5935">
        <ele>438.5</ele>
        <time>2020-09-06T19:45:42Z</time>
      </trkpt>
      <trkpt lat="47.79653" lon="6.59342">
        <ele>439</ele>
        <time>2020-09-06T19:45:42Z</time>
      </trkpt>
      <trkpt lat="47.79642" lon="6.59323">
        <ele>440.2</ele>
        <time>2020-09-06T19:45:42Z</time>
      </trkpt>
      <trkpt lat="47.79622" lon="6.59295">
        <ele>441.1</ele>
        <time>2020-09-06T19:45:42Z</time>
      </trkpt>
      <trkpt lat="47.79598" lon="6.59261">
        <ele>441.7</ele>
        <time>2020-09-06T19:45:42Z</time>
      </trkpt>
      <trkpt lat="47.79589" lon="6.59248">
        <ele>442.2</ele>
        <time>2020-09-06T19:45:42Z</time>
      </trkpt>
      <trkpt lat="47.79577" lon="6.5923">
        <ele>442.5</ele>
        <time>2020-09-06T19:45:42Z</time>
      </trkpt>
      <trkpt lat="47.79553" lon="6.59197">
        <ele>442.9</ele>
        <time>2020-09-06T19:45:42Z</time>
      </trkpt>
      <trkpt lat="47.79524" lon="6.59164">
        <ele>443</ele>
        <time>2020-09-06T19:45:42Z</time>
      </trkpt>
      <trkpt lat="47.79515" lon="6.59154">
        <ele>442.7</ele>
        <time>2020-09-06T19:45:42Z</time>
      </trkpt>
      <trkpt lat="47.79486" lon="6.59119">
        <ele>442.3</ele>
        <time>2020-09-06T19:45:42Z</time>
      </trkpt>
      <trkpt lat="47.79441" lon="6.59069">
        <ele>442.1</ele>
        <time>2020-09-06T19:45:42Z</time>
      </trkpt>
      <trkpt lat="47.79431" lon="6.59057">
        <ele>442.3</ele>
        <time>2020-09-06T19:45:42Z</time>
      </trkpt>
      <trkpt lat="47.79401" lon="6.5903">
        <ele>443</ele>
        <time>2020-09-06T19:45:42Z</time>
      </trkpt>
      <trkpt lat="47.79382" lon="6.59009">
        <ele>443</ele>
        <time>2020-09-06T19:45:42Z</time>
      </trkpt>
      <trkpt lat="47.79359" lon="6.58984">
        <ele>442.9</ele>
        <time>2020-09-06T19:45:42Z</time>
      </trkpt>
      <trkpt lat="47.79353" lon="6.58977">
        <ele>442.8</ele>
        <time>2020-09-06T19:45:42Z</time>
      </trkpt>
      <trkpt lat="47.79341" lon="6.58964">
        <ele>442.8</ele>
        <time>2020-09-06T19:45:42Z</time>
      </trkpt>
      <trkpt lat="47.79331" lon="6.58951">
        <ele>442.5</ele>
        <time>2020-09-06T19:45:42Z</time>
      </trkpt>
      <trkpt lat="47.79324" lon="6.58943">
        <ele>442.6</ele>
        <time>2020-09-06T19:45:42Z</time>
      </trkpt>
      <trkpt lat="47.79317" lon="6.58933">
        <ele>442.4</ele>
        <time>2020-09-06T19:45:42Z</time>
      </trkpt>
      <trkpt lat="47.79298" lon="6.58908">
        <ele>442.2</ele>
        <time>2020-09-06T19:45:42Z</time>
      </trkpt>
      <trkpt lat="47.79291" lon="6.589">
        <ele>441.8</ele>
        <time>2020-09-06T19:45:42Z</time>
      </trkpt>
      <trkpt lat="47.79286" lon="6.58895">
        <ele>441.4</ele>
        <time>2020-09-06T19:45:42Z</time>
      </trkpt>
      <trkpt lat="47.79282" lon="6.58891">
        <ele>441.2</ele>
        <time>2020-09-06T19:45:42Z</time>
      </trkpt>
      <trkpt lat="47.79275" lon="6.58888">
        <ele>440.9</ele>
        <time>2020-09-06T19:45:42Z</time>
      </trkpt>
      <trkpt lat="47.79268" lon="6.58883">
        <ele>440.7</ele>
        <time>2020-09-06T19:45:42Z</time>
      </trkpt>
      <trkpt lat="47.79238" lon="6.58866">
        <ele>440.2</ele>
        <time>2020-09-06T19:45:42Z</time>
      </trkpt>
      <trkpt lat="47.79212" lon="6.58854">
        <ele>439.8</ele>
        <time>2020-09-06T19:45:42Z</time>
      </trkpt>
      <trkpt lat="47.79193" lon="6.58843">
        <ele>439.3</ele>
        <time>2020-09-06T19:45:42Z</time>
      </trkpt>
      <trkpt lat="47.7917" lon="6.58828">
        <ele>437.9</ele>
        <time>2020-09-06T19:45:42Z</time>
      </trkpt>
      <trkpt lat="47.79139" lon="6.5881">
        <ele>436.7</ele>
        <time>2020-09-06T19:45:42Z</time>
      </trkpt>
      <trkpt lat="47.79125" lon="6.58804">
        <ele>435.8</ele>
        <time>2020-09-06T19:45:42Z</time>
      </trkpt>
      <trkpt lat="47.79088" lon="6.58794">
        <ele>435.1</ele>
        <time>2020-09-06T19:45:42Z</time>
      </trkpt>
      <trkpt lat="47.79069" lon="6.58789">
        <ele>434.6</ele>
        <time>2020-09-06T19:45:42Z</time>
      </trkpt>
      <trkpt lat="47.79052" lon="6.5879">
        <ele>433.3</ele>
        <time>2020-09-06T19:45:42Z</time>
      </trkpt>
      <trkpt lat="47.79022" lon="6.58795">
        <ele>432.7</ele>
        <time>2020-09-06T19:45:42Z</time>
      </trkpt>
      <trkpt lat="47.78991" lon="6.588">
        <ele>431.7</ele>
        <time>2020-09-06T19:45:42Z</time>
      </trkpt>
      <trkpt lat="47.78947" lon="6.58805">
        <ele>430.9</ele>
        <time>2020-09-06T19:45:42Z</time>
      </trkpt>
      <trkpt lat="47.78927" lon="6.58808">
        <ele>430.5</ele>
        <time>2020-09-06T19:45:42Z</time>
      </trkpt>
      <trkpt lat="47.78908" lon="6.5881">
        <ele>430.3</ele>
        <time>2020-09-06T19:45:42Z</time>
      </trkpt>
      <trkpt lat="47.78867" lon="6.58812">
        <ele>430</ele>
        <time>2020-09-06T19:45:42Z</time>
      </trkpt>
      <trkpt lat="47.78846" lon="6.58811">
        <ele>430</ele>
        <time>2020-09-06T19:45:42Z</time>
      </trkpt>
      <trkpt lat="47.78816" lon="6.58809">
        <ele>430.2</ele>
        <time>2020-09-06T19:45:42Z</time>
      </trkpt>
      <trkpt lat="47.788" lon="6.58808">
        <ele>430.7</ele>
        <time>2020-09-06T19:45:42Z</time>
      </trkpt>
      <trkpt lat="47.78792" lon="6.58806">
        <ele>430.4</ele>
        <time>2020-09-06T19:45:42Z</time>
      </trkpt>
      <trkpt lat="47.78787" lon="6.58803">
        <ele>430.4</ele>
        <time>2020-09-06T19:45:42Z</time>
      </trkpt>
      <trkpt lat="47.78764" lon="6.58779">
        <ele>430</ele>
        <time>2020-09-06T19:45:42Z</time>
      </trkpt>
      <trkpt lat="47.78753" lon="6.58768">
        <ele>429.7</ele>
        <time>2020-09-06T19:45:42Z</time>
      </trkpt>
      <trkpt lat="47.78738" lon="6.58753">
        <ele>429</ele>
        <time>2020-09-06T19:45:42Z</time>
      </trkpt>
      <trkpt lat="47.78729" lon="6.58749">
        <ele>428.5</ele>
        <time>2020-09-06T19:45:42Z</time>
      </trkpt>
      <trkpt lat="47.78719" lon="6.58746">
        <ele>428.1</ele>
        <time>2020-09-06T19:45:42Z</time>
      </trkpt>
      <trkpt lat="47.78693" lon="6.58749">
        <ele>426.7</ele>
        <time>2020-09-06T19:45:42Z</time>
      </trkpt>
      <trkpt lat="47.7868" lon="6.5875">
        <ele>426.4</ele>
        <time>2020-09-06T19:45:42Z</time>
      </trkpt>
      <trkpt lat="47.78669" lon="6.5875">
        <ele>425.8</ele>
        <time>2020-09-06T19:45:42Z</time>
      </trkpt>
      <trkpt lat="47.78647" lon="6.58742">
        <ele>424.3</ele>
        <time>2020-09-06T19:45:42Z</time>
      </trkpt>
      <trkpt lat="47.78625" lon="6.58731">
        <ele>424.6</ele>
        <time>2020-09-06T19:45:42Z</time>
      </trkpt>
      <trkpt lat="47.78586" lon="6.58711">
        <ele>424.3</ele>
        <time>2020-09-06T19:45:42Z</time>
      </trkpt>
      <trkpt lat="47.78552" lon="6.58693">
        <ele>423.1</ele>
        <time>2020-09-06T19:45:42Z</time>
      </trkpt>
      <trkpt lat="47.78535" lon="6.58683">
        <ele>422.4</ele>
        <time>2020-09-06T19:45:42Z</time>
      </trkpt>
      <trkpt lat="47.78524" lon="6.58679">
        <ele>422</ele>
        <time>2020-09-06T19:45:42Z</time>
      </trkpt>
      <trkpt lat="47.78517" lon="6.58677">
        <ele>421.9</ele>
        <time>2020-09-06T19:45:42Z</time>
      </trkpt>
      <trkpt lat="47.78501" lon="6.58672">
        <ele>421.1</ele>
        <time>2020-09-06T19:45:42Z</time>
      </trkpt>
      <trkpt lat="47.7847" lon="6.58667">
        <ele>420.2</ele>
        <time>2020-09-06T19:45:42Z</time>
      </trkpt>
      <trkpt lat="47.78439" lon="6.58661">
        <ele>417.8</ele>
        <time>2020-09-06T19:45:42Z</time>
      </trkpt>
      <trkpt lat="47.78411" lon="6.58656">
        <ele>416.3</ele>
        <time>2020-09-06T19:45:42Z</time>
      </trkpt>
      <trkpt lat="47.78401" lon="6.58653">
        <ele>415.7</ele>
        <time>2020-09-06T19:45:42Z</time>
      </trkpt>
      <trkpt lat="47.78392" lon="6.58647">
        <ele>414.8</ele>
        <time>2020-09-06T19:45:42Z</time>
      </trkpt>
      <trkpt lat="47.78382" lon="6.58637">
        <ele>413.4</ele>
        <time>2020-09-06T19:45:42Z</time>
      </trkpt>
      <trkpt lat="47.78358" lon="6.58596">
        <ele>410.2</ele>
        <time>2020-09-06T19:45:42Z</time>
      </trkpt>
      <trkpt lat="47.78343" lon="6.58578">
        <ele>409.3</ele>
        <time>2020-09-06T19:45:42Z</time>
      </trkpt>
      <trkpt lat="47.78329" lon="6.58562">
        <ele>409</ele>
        <time>2020-09-06T19:45:42Z</time>
      </trkpt>
      <trkpt lat="47.78295" lon="6.58537">
        <ele>408.3</ele>
        <time>2020-09-06T19:45:42Z</time>
      </trkpt>
      <trkpt lat="47.78277" lon="6.58525">
        <ele>407.4</ele>
        <time>2020-09-06T19:45:42Z</time>
      </trkpt>
      <trkpt lat="47.78238" lon="6.585">
        <ele>406.5</ele>
        <time>2020-09-06T19:45:42Z</time>
      </trkpt>
      <trkpt lat="47.78153" lon="6.58443">
        <ele>404.3</ele>
        <time>2020-09-06T19:45:42Z</time>
      </trkpt>
      <trkpt lat="47.78139" lon="6.58432">
        <ele>404.4</ele>
        <time>2020-09-06T19:45:42Z</time>
      </trkpt>
      <trkpt lat="47.78131" lon="6.58428">
        <ele>403.9</ele>
        <time>2020-09-06T19:45:42Z</time>
      </trkpt>
      <trkpt lat="47.78077" lon="6.58398">
        <ele>402.3</ele>
        <time>2020-09-06T19:45:42Z</time>
      </trkpt>
      <trkpt lat="47.77992" lon="6.58344">
        <ele>397.9</ele>
        <time>2020-09-06T19:45:42Z</time>
      </trkpt>
      <trkpt lat="47.77968" lon="6.58329">
        <ele>395.3</ele>
        <time>2020-09-06T19:45:42Z</time>
      </trkpt>
      <trkpt lat="47.77949" lon="6.5832">
        <ele>393.2</ele>
        <time>2020-09-06T19:45:42Z</time>
      </trkpt>
      <trkpt lat="47.77936" lon="6.58309">
        <ele>392.1</ele>
        <time>2020-09-06T19:45:42Z</time>
      </trkpt>
      <trkpt lat="47.77911" lon="6.58283">
        <ele>389.8</ele>
        <time>2020-09-06T19:45:42Z</time>
      </trkpt>
      <trkpt lat="47.77887" lon="6.58263">
        <ele>387.9</ele>
        <time>2020-09-06T19:45:42Z</time>
      </trkpt>
      <trkpt lat="47.77879" lon="6.58256">
        <ele>386.9</ele>
        <time>2020-09-06T19:45:42Z</time>
      </trkpt>
      <trkpt lat="47.77846" lon="6.58228">
        <ele>382.6</ele>
        <time>2020-09-06T19:45:42Z</time>
      </trkpt>
      <trkpt lat="47.77834" lon="6.58218">
        <ele>382.3</ele>
        <time>2020-09-06T19:45:42Z</time>
      </trkpt>
      <trkpt lat="47.77822" lon="6.58212">
        <ele>380.9</ele>
        <time>2020-09-06T19:45:42Z</time>
      </trkpt>
      <trkpt lat="47.77804" lon="6.58207">
        <ele>379.4</ele>
        <time>2020-09-06T19:45:42Z</time>
      </trkpt>
      <trkpt lat="47.77777" lon="6.58199">
        <ele>378.2</ele>
        <time>2020-09-06T19:45:42Z</time>
      </trkpt>
      <trkpt lat="47.77763" lon="6.58197">
        <ele>377.8</ele>
        <time>2020-09-06T19:45:42Z</time>
      </trkpt>
      <trkpt lat="47.77731" lon="6.58194">
        <ele>377.9</ele>
        <time>2020-09-06T19:45:42Z</time>
      </trkpt>
      <trkpt lat="47.77698" lon="6.58188">
        <ele>378.5</ele>
        <time>2020-09-06T19:45:42Z</time>
      </trkpt>
      <trkpt lat="47.77686" lon="6.58186">
        <ele>378.7</ele>
        <time>2020-09-06T19:45:42Z</time>
      </trkpt>
      <trkpt lat="47.77673" lon="6.58179">
        <ele>379</ele>
        <time>2020-09-06T19:45:42Z</time>
      </trkpt>
      <trkpt lat="47.77657" lon="6.58171">
        <ele>378.8</ele>
        <time>2020-09-06T19:45:42Z</time>
      </trkpt>
      <trkpt lat="47.77641" lon="6.58162">
        <ele>378.6</ele>
        <time>2020-09-06T19:45:42Z</time>
      </trkpt>
      <trkpt lat="47.77632" lon="6.58156">
        <ele>378.2</ele>
        <time>2020-09-06T19:45:42Z</time>
      </trkpt>
      <trkpt lat="47.77596" lon="6.5814">
        <ele>377</ele>
        <time>2020-09-06T19:45:42Z</time>
      </trkpt>
      <trkpt lat="47.77575" lon="6.58129">
        <ele>376</ele>
        <time>2020-09-06T19:45:42Z</time>
      </trkpt>
      <trkpt lat="47.7756" lon="6.58118">
        <ele>375.9</ele>
        <time>2020-09-06T19:45:42Z</time>
      </trkpt>
      <trkpt lat="47.77547" lon="6.58107">
        <ele>375.7</ele>
        <time>2020-09-06T19:45:42Z</time>
      </trkpt>
      <trkpt lat="47.77538" lon="6.581">
        <ele>375.6</ele>
        <time>2020-09-06T19:45:42Z</time>
      </trkpt>
      <trkpt lat="47.77522" lon="6.58091">
        <ele>375.3</ele>
        <time>2020-09-06T19:45:42Z</time>
      </trkpt>
      <trkpt lat="47.77499" lon="6.58084">
        <ele>374.3</ele>
        <time>2020-09-06T19:45:42Z</time>
      </trkpt>
      <trkpt lat="47.77464" lon="6.58079">
        <ele>373</ele>
        <time>2020-09-06T19:45:42Z</time>
      </trkpt>
      <trkpt lat="47.77433" lon="6.58075">
        <ele>371.6</ele>
        <time>2020-09-06T19:45:42Z</time>
      </trkpt>
      <trkpt lat="47.77398" lon="6.5807">
        <ele>370</ele>
        <time>2020-09-06T19:45:42Z</time>
      </trkpt>
      <trkpt lat="47.77359" lon="6.58061">
        <ele>368.1</ele>
        <time>2020-09-06T19:45:42Z</time>
      </trkpt>
      <trkpt lat="47.77325" lon="6.58054">
        <ele>366.1</ele>
        <time>2020-09-06T19:45:42Z</time>
      </trkpt>
      <trkpt lat="47.77304" lon="6.5805">
        <ele>365.9</ele>
        <time>2020-09-06T19:45:42Z</time>
      </trkpt>
      <trkpt lat="47.77286" lon="6.58052">
        <ele>365.8</ele>
        <time>2020-09-06T19:45:42Z</time>
      </trkpt>
      <trkpt lat="47.7726" lon="6.58059">
        <ele>365.4</ele>
        <time>2020-09-06T19:45:42Z</time>
      </trkpt>
      <trkpt lat="47.77237" lon="6.58065">
        <ele>365.2</ele>
        <time>2020-09-06T19:45:42Z</time>
      </trkpt>
      <trkpt lat="47.77206" lon="6.5807">
        <ele>365.3</ele>
        <time>2020-09-06T19:45:42Z</time>
      </trkpt>
      <trkpt lat="47.77159" lon="6.58069">
        <ele>364.5</ele>
        <time>2020-09-06T19:45:42Z</time>
      </trkpt>
      <trkpt lat="47.77148" lon="6.58064">
        <ele>364.3</ele>
        <time>2020-09-06T19:45:42Z</time>
      </trkpt>
      <trkpt lat="47.77136" lon="6.5805">
        <ele>364</ele>
        <time>2020-09-06T19:45:42Z</time>
      </trkpt>
      <trkpt lat="47.7712" lon="6.5802">
        <ele>363.9</ele>
        <time>2020-09-06T19:45:42Z</time>
      </trkpt>
      <trkpt lat="47.77112" lon="6.57993">
        <ele>364.2</ele>
        <time>2020-09-06T19:45:42Z</time>
      </trkpt>
      <trkpt lat="47.77108" lon="6.57963">
        <ele>364</ele>
        <time>2020-09-06T19:45:42Z</time>
      </trkpt>
      <trkpt lat="47.77106" lon="6.57927">
        <ele>363.8</ele>
        <time>2020-09-06T19:45:42Z</time>
      </trkpt>
      <trkpt lat="47.77103" lon="6.57874">
        <ele>363.3</ele>
        <time>2020-09-06T19:45:42Z</time>
      </trkpt>
      <trkpt lat="47.77103" lon="6.57851">
        <ele>362.9</ele>
        <time>2020-09-06T19:45:42Z</time>
      </trkpt>
      <trkpt lat="47.77101" lon="6.5784">
        <ele>362.8</ele>
        <time>2020-09-06T19:45:42Z</time>
      </trkpt>
      <trkpt lat="47.77095" lon="6.57833">
        <ele>362.9</ele>
        <time>2020-09-06T19:45:42Z</time>
      </trkpt>
      <trkpt lat="47.77079" lon="6.57829">
        <ele>362.8</ele>
        <time>2020-09-06T19:45:42Z</time>
      </trkpt>
      <trkpt lat="47.77062" lon="6.57824">
        <ele>363</ele>
        <time>2020-09-06T19:45:42Z</time>
      </trkpt>
      <trkpt lat="47.77034" lon="6.57806">
        <ele>363.3</ele>
        <time>2020-09-06T19:45:42Z</time>
      </trkpt>
      <trkpt lat="47.77007" lon="6.57784">
        <ele>362.6</ele>
        <time>2020-09-06T19:45:42Z</time>
      </trkpt>
      <trkpt lat="47.76975" lon="6.57762">
        <ele>360.1</ele>
        <time>2020-09-06T19:45:42Z</time>
      </trkpt>
      <trkpt lat="47.76963" lon="6.57758">
        <ele>359.6</ele>
        <time>2020-09-06T19:45:42Z</time>
      </trkpt>
      <trkpt lat="47.76949" lon="6.57757">
        <ele>358.8</ele>
        <time>2020-09-06T19:45:42Z</time>
      </trkpt>
      <trkpt lat="47.76929" lon="6.5776">
        <ele>358</ele>
        <time>2020-09-06T19:45:42Z</time>
      </trkpt>
      <trkpt lat="47.76903" lon="6.5777">
        <ele>356.7</ele>
        <time>2020-09-06T19:45:42Z</time>
      </trkpt>
      <trkpt lat="47.76882" lon="6.57775">
        <ele>355.9</ele>
        <time>2020-09-06T19:45:42Z</time>
      </trkpt>
      <trkpt lat="47.7687" lon="6.57776">
        <ele>355.5</ele>
        <time>2020-09-06T19:45:42Z</time>
      </trkpt>
      <trkpt lat="47.76855" lon="6.57775">
        <ele>355.2</ele>
        <time>2020-09-06T19:45:42Z</time>
      </trkpt>
      <trkpt lat="47.76825" lon="6.57772">
        <ele>354.6</ele>
        <time>2020-09-06T19:45:42Z</time>
      </trkpt>
      <trkpt lat="47.76807" lon="6.57768">
        <ele>354.1</ele>
        <time>2020-09-06T19:45:42Z</time>
      </trkpt>
      <trkpt lat="47.76802" lon="6.57767">
        <ele>354.4</ele>
        <time>2020-09-06T19:45:42Z</time>
      </trkpt>
      <trkpt lat="47.76762" lon="6.57753">
        <ele>353.7</ele>
        <time>2020-09-06T19:45:42Z</time>
      </trkpt>
      <trkpt lat="47.76728" lon="6.57742">
        <ele>351</ele>
        <time>2020-09-06T19:45:42Z</time>
      </trkpt>
      <trkpt lat="47.7671" lon="6.57736">
        <ele>350</ele>
        <time>2020-09-06T19:45:42Z</time>
      </trkpt>
      <trkpt lat="47.76628" lon="6.57713">
        <ele>349.1</ele>
        <time>2020-09-06T19:45:42Z</time>
      </trkpt>
      <trkpt lat="47.76597" lon="6.57712">
        <ele>349</ele>
        <time>2020-09-06T19:45:42Z</time>
      </trkpt>
      <trkpt lat="47.76575" lon="6.57721">
        <ele>348.8</ele>
        <time>2020-09-06T19:45:42Z</time>
      </trkpt>
      <trkpt lat="47.76535" lon="6.57738">
        <ele>346.7</ele>
        <time>2020-09-06T19:45:42Z</time>
      </trkpt>
      <trkpt lat="47.76513" lon="6.57742">
        <ele>345.4</ele>
        <time>2020-09-06T19:45:42Z</time>
      </trkpt>
      <trkpt lat="47.76506" lon="6.57742">
        <ele>344.7</ele>
        <time>2020-09-06T19:45:42Z</time>
      </trkpt>
      <trkpt lat="47.76383" lon="6.57733">
        <ele>338</ele>
        <time>2020-09-06T19:45:42Z</time>
      </trkpt>
      <trkpt lat="47.76346" lon="6.5773">
        <ele>336.3</ele>
        <time>2020-09-06T19:45:42Z</time>
      </trkpt>
      <trkpt lat="47.76327" lon="6.57724">
        <ele>335.4</ele>
        <time>2020-09-06T19:45:42Z</time>
      </trkpt>
      <trkpt lat="47.76278" lon="6.57705">
        <ele>333.6</ele>
        <time>2020-09-06T19:45:42Z</time>
      </trkpt>
      <trkpt lat="47.76215" lon="6.57711">
        <ele>333.2</ele>
        <time>2020-09-06T19:45:42Z</time>
      </trkpt>
      <trkpt lat="47.76173" lon="6.57724">
        <ele>332.5</ele>
        <time>2020-09-06T19:45:42Z</time>
      </trkpt>
      <trkpt lat="47.76145" lon="6.57746">
        <ele>332</ele>
        <time>2020-09-06T19:45:42Z</time>
      </trkpt>
      <trkpt lat="47.7609" lon="6.57768">
        <ele>331.8</ele>
        <time>2020-09-06T19:45:42Z</time>
      </trkpt>
      <trkpt lat="47.7607" lon="6.57774">
        <ele>331.6</ele>
        <time>2020-09-06T19:45:42Z</time>
      </trkpt>
      <trkpt lat="47.76061" lon="6.57772">
        <ele>331.6</ele>
        <time>2020-09-06T19:45:42Z</time>
      </trkpt>
      <trkpt lat="47.76052" lon="6.57762">
        <ele>331.6</ele>
        <time>2020-09-06T19:45:42Z</time>
      </trkpt>
      <trkpt lat="47.76037" lon="6.57743">
        <ele>331.6</ele>
        <time>2020-09-06T19:45:42Z</time>
      </trkpt>
      <trkpt lat="47.76028" lon="6.57736">
        <ele>331.6</ele>
        <time>2020-09-06T19:45:42Z</time>
      </trkpt>
      <trkpt lat="47.76009" lon="6.57732">
        <ele>331.5</ele>
        <time>2020-09-06T19:45:42Z</time>
      </trkpt>
      <trkpt lat="47.75997" lon="6.57735">
        <ele>331.4</ele>
        <time>2020-09-06T19:45:42Z</time>
      </trkpt>
      <trkpt lat="47.75987" lon="6.57738">
        <ele>331.3</ele>
        <time>2020-09-06T19:45:42Z</time>
      </trkpt>
      <trkpt lat="47.75976" lon="6.57747">
        <ele>331.4</ele>
        <time>2020-09-06T19:45:42Z</time>
      </trkpt>
      <trkpt lat="47.75966" lon="6.5777">
        <ele>331.6</ele>
        <time>2020-09-06T19:45:42Z</time>
      </trkpt>
      <trkpt lat="47.75941" lon="6.57811">
        <ele>332.8</ele>
        <time>2020-09-06T19:45:42Z</time>
      </trkpt>
      <trkpt lat="47.75913" lon="6.57889">
        <ele>332.4</ele>
        <time>2020-09-06T19:45:42Z</time>
      </trkpt>
      <trkpt lat="47.75909" lon="6.579">
        <ele>332.3</ele>
        <time>2020-09-06T19:45:42Z</time>
      </trkpt>
      <trkpt lat="47.75904" lon="6.57906">
        <ele>332.2</ele>
        <time>2020-09-06T19:45:42Z</time>
      </trkpt>
      <trkpt lat="47.75887" lon="6.57929">
        <ele>332.2</ele>
        <time>2020-09-06T19:45:42Z</time>
      </trkpt>
      <trkpt lat="47.75844" lon="6.5799">
        <ele>332.1</ele>
        <time>2020-09-06T19:45:42Z</time>
      </trkpt>
      <trkpt lat="47.75819" lon="6.58029">
        <ele>331.6</ele>
        <time>2020-09-06T19:45:42Z</time>
      </trkpt>
      <trkpt lat="47.75795" lon="6.58067">
        <ele>331.3</ele>
        <time>2020-09-06T19:45:42Z</time>
      </trkpt>
      <trkpt lat="47.75777" lon="6.58094">
        <ele>330.8</ele>
        <time>2020-09-06T19:45:42Z</time>
      </trkpt>
      <trkpt lat="47.75743" lon="6.58121">
        <ele>330.6</ele>
        <time>2020-09-06T19:45:42Z</time>
      </trkpt>
      <trkpt lat="47.75718" lon="6.58141">
        <ele>330.5</ele>
        <time>2020-09-06T19:45:42Z</time>
      </trkpt>
      <trkpt lat="47.75685" lon="6.58154">
        <ele>330.7</ele>
        <time>2020-09-06T19:45:42Z</time>
      </trkpt>
      <trkpt lat="47.75655" lon="6.58159">
        <ele>330.6</ele>
        <time>2020-09-06T19:45:42Z</time>
      </trkpt>
      <trkpt lat="47.75589" lon="6.58156">
        <ele>330.1</ele>
        <time>2020-09-06T19:45:42Z</time>
      </trkpt>
      <trkpt lat="47.755" lon="6.58153">
        <ele>329.3</ele>
        <time>2020-09-06T19:45:42Z</time>
      </trkpt>
      <trkpt lat="47.75491" lon="6.5815">
        <ele>329.3</ele>
        <time>2020-09-06T19:45:42Z</time>
      </trkpt>
      <trkpt lat="47.75487" lon="6.58144">
        <ele>329.3</ele>
        <time>2020-09-06T19:45:42Z</time>
      </trkpt>
      <trkpt lat="47.7548" lon="6.58127">
        <ele>329.4</ele>
        <time>2020-09-06T19:45:42Z</time>
      </trkpt>
      <trkpt lat="47.75473" lon="6.58118">
        <ele>329.2</ele>
        <time>2020-09-06T19:45:42Z</time>
      </trkpt>
      <trkpt lat="47.75466" lon="6.58114">
        <ele>329.3</ele>
        <time>2020-09-06T19:45:42Z</time>
      </trkpt>
      <trkpt lat="47.75449" lon="6.58119">
        <ele>329.4</ele>
        <time>2020-09-06T19:45:42Z</time>
      </trkpt>
      <trkpt lat="47.75443" lon="6.58128">
        <ele>329.6</ele>
        <time>2020-09-06T19:45:42Z</time>
      </trkpt>
      <trkpt lat="47.75425" lon="6.5815">
        <ele>330.6</ele>
        <time>2020-09-06T19:45:42Z</time>
      </trkpt>
      <trkpt lat="47.75404" lon="6.58171">
        <ele>332.3</ele>
        <time>2020-09-06T19:45:42Z</time>
      </trkpt>
      <trkpt lat="47.75391" lon="6.58155">
        <ele>332.9</ele>
        <time>2020-09-06T19:45:42Z</time>
      </trkpt>
      <trkpt lat="47.75384" lon="6.58148">
        <ele>333</ele>
        <time>2020-09-06T19:45:42Z</time>
      </trkpt>
      <trkpt lat="47.75383" lon="6.58137">
        <ele>333.2</ele>
        <time>2020-09-06T19:45:42Z</time>
      </trkpt>
      <trkpt lat="47.75384" lon="6.58148">
        <ele>333</ele>
        <time>2020-09-06T19:45:42Z</time>
      </trkpt>
      <trkpt lat="47.75388" lon="6.58151">
        <ele>333</ele>
        <time>2020-09-06T19:45:42Z</time>
      </trkpt>
      <trkpt lat="47.75366" lon="6.58174">
        <ele>331.2</ele>
        <time>2020-09-06T19:45:42Z</time>
      </trkpt>
      <trkpt lat="47.7533" lon="6.58199">
        <ele>329.2</ele>
        <time>2020-09-06T19:45:42Z</time>
      </trkpt>
      <trkpt lat="47.75324" lon="6.58203">
        <ele>329</ele>
        <time>2020-09-06T19:45:42Z</time>
      </trkpt>
      <trkpt lat="47.75313" lon="6.58211">
        <ele>328.4</ele>
        <time>2020-09-06T19:45:42Z</time>
      </trkpt>
      <trkpt lat="47.75306" lon="6.58217">
        <ele>328.2</ele>
        <time>2020-09-06T19:45:42Z</time>
      </trkpt>
      <trkpt lat="47.75285" lon="6.58226">
        <ele>328</ele>
        <time>2020-09-06T19:45:42Z</time>
      </trkpt>
      <trkpt lat="47.75258" lon="6.58232">
        <ele>327.9</ele>
        <time>2020-09-06T19:45:42Z</time>
      </trkpt>
      <trkpt lat="47.7525" lon="6.58237">
        <ele>327.9</ele>
        <time>2020-09-06T19:45:42Z</time>
      </trkpt>
      <trkpt lat="47.75246" lon="6.58243">
        <ele>327.7</ele>
        <time>2020-09-06T19:45:42Z</time>
      </trkpt>
      <trkpt lat="47.75239" lon="6.58252">
        <ele>327.7</ele>
        <time>2020-09-06T19:45:42Z</time>
      </trkpt>
      <trkpt lat="47.75233" lon="6.5826">
        <ele>327.9</ele>
        <time>2020-09-06T19:45:42Z</time>
      </trkpt>
      <trkpt lat="47.75209" lon="6.5829">
        <ele>327.9</ele>
        <time>2020-09-06T19:45:42Z</time>
      </trkpt>
      <trkpt lat="47.752" lon="6.58299">
        <ele>328</ele>
        <time>2020-09-06T19:45:42Z</time>
      </trkpt>
      <trkpt lat="47.75187" lon="6.58302">
        <ele>328.5</ele>
        <time>2020-09-06T19:45:42Z</time>
      </trkpt>
      <trkpt lat="47.75166" lon="6.58303">
        <ele>327.9</ele>
        <time>2020-09-06T19:45:42Z</time>
      </trkpt>
      <trkpt lat="47.7515" lon="6.58304">
        <ele>327.5</ele>
        <time>2020-09-06T19:45:42Z</time>
      </trkpt>
      <trkpt lat="47.75118" lon="6.58304">
        <ele>326.5</ele>
        <time>2020-09-06T19:45:42Z</time>
      </trkpt>
      <trkpt lat="47.75104" lon="6.58305">
        <ele>331</ele>
        <time>2020-09-06T19:45:42Z</time>
      </trkpt>
      <trkpt lat="47.75095" lon="6.58338">
        <ele>330.8</ele>
        <time>2020-09-06T19:45:42Z</time>
      </trkpt>
      <trkpt lat="47.75088" lon="6.58375">
        <ele>330.7</ele>
        <time>2020-09-06T19:45:42Z</time>
      </trkpt>
      <trkpt lat="47.75085" lon="6.58406">
        <ele>331</ele>
        <time>2020-09-06T19:45:42Z</time>
      </trkpt>
      <trkpt lat="47.75081" lon="6.58441">
        <ele>331.5</ele>
        <time>2020-09-06T19:45:42Z</time>
      </trkpt>
      <trkpt lat="47.75073" lon="6.58525">
        <ele>331.5</ele>
        <time>2020-09-06T19:45:42Z</time>
      </trkpt>
      <trkpt lat="47.7507" lon="6.5855">
        <ele>331.3</ele>
        <time>2020-09-06T19:45:42Z</time>
      </trkpt>
      <trkpt lat="47.75064" lon="6.58578">
        <ele>331.5</ele>
        <time>2020-09-06T19:45:42Z</time>
      </trkpt>
      <trkpt lat="47.75057" lon="6.58593">
        <ele>331.7</ele>
        <time>2020-09-06T19:45:42Z</time>
      </trkpt>
      <trkpt lat="47.75037" lon="6.58637">
        <ele>332.3</ele>
        <time>2020-09-06T19:45:42Z</time>
      </trkpt>
      <trkpt lat="47.75025" lon="6.58668">
        <ele>332.7</ele>
        <time>2020-09-06T19:45:42Z</time>
      </trkpt>
      <trkpt lat="47.75015" lon="6.58696">
        <ele>333</ele>
        <time>2020-09-06T19:45:42Z</time>
      </trkpt>
      <trkpt lat="47.75003" lon="6.58716">
        <ele>333.3</ele>
        <time>2020-09-06T19:45:42Z</time>
      </trkpt>
      <trkpt lat="47.74979" lon="6.58776">
        <ele>333.3</ele>
        <time>2020-09-06T19:45:42Z</time>
      </trkpt>
      <trkpt lat="47.74982" lon="6.58796">
        <ele>332.6</ele>
        <time>2020-09-06T19:45:42Z</time>
      </trkpt>
      <trkpt lat="47.74981" lon="6.58816">
        <ele>331.6</ele>
        <time>2020-09-06T19:45:42Z</time>
      </trkpt>
      <trkpt lat="47.74979" lon="6.58837">
        <ele>331.3</ele>
        <time>2020-09-06T19:45:42Z</time>
      </trkpt>
      <trkpt lat="47.74978" lon="6.58854">
        <ele>330.9</ele>
        <time>2020-09-06T19:45:42Z</time>
      </trkpt>
      <trkpt lat="47.74976" lon="6.58866">
        <ele>330.7</ele>
        <time>2020-09-06T19:45:42Z</time>
      </trkpt>
      <trkpt lat="47.75019" lon="6.5889">
        <ele>329.6</ele>
        <time>2020-09-06T19:45:42Z</time>
      </trkpt>
      <trkpt lat="47.75048" lon="6.58907">
        <ele>329.8</ele>
        <time>2020-09-06T19:45:42Z</time>
      </trkpt>
      <trkpt lat="47.75056" lon="6.58911">
        <ele>329.9</ele>
        <time>2020-09-06T19:45:42Z</time>
      </trkpt>
      <trkpt lat="47.75062" lon="6.58924">
        <ele>330.1</ele>
        <time>2020-09-06T19:45:42Z</time>
      </trkpt>
      <trkpt lat="47.751" lon="6.59015">
        <ele>331.3</ele>
        <time>2020-09-06T19:45:42Z</time>
      </trkpt>
      <trkpt lat="47.75113" lon="6.59049">
        <ele>331.8</ele>
        <time>2020-09-06T19:45:42Z</time>
      </trkpt>
      <trkpt lat="47.75128" lon="6.5909">
        <ele>332.2</ele>
        <time>2020-09-06T19:45:42Z</time>
      </trkpt>
      <trkpt lat="47.75163" lon="6.59153">
        <ele>332.3</ele>
        <time>2020-09-06T19:45:42Z</time>
      </trkpt>
      <trkpt lat="47.75202" lon="6.59231">
        <ele>332.7</ele>
        <time>2020-09-06T19:45:42Z</time>
      </trkpt>
      <trkpt lat="47.75215" lon="6.59284">
        <ele>333</ele>
        <time>2020-09-06T19:45:42Z</time>
      </trkpt>
      <trkpt lat="47.75228" lon="6.59354">
        <ele>333.2</ele>
        <time>2020-09-06T19:45:42Z</time>
      </trkpt>
      <trkpt lat="47.75238" lon="6.59399">
        <ele>333.3</ele>
        <time>2020-09-06T19:45:42Z</time>
      </trkpt>
      <trkpt lat="47.75254" lon="6.59453">
        <ele>333.5</ele>
        <time>2020-09-06T19:45:42Z</time>
      </trkpt>
      <trkpt lat="47.7526" lon="6.59487">
        <ele>333.4</ele>
        <time>2020-09-06T19:45:42Z</time>
      </trkpt>
      <trkpt lat="47.7526" lon="6.59496">
        <ele>333.4</ele>
        <time>2020-09-06T19:45:42Z</time>
      </trkpt>
    </trkseg>
  </trk>
</gpx>